<?xml version='1.0' encoding='UTF-8'?><gpx version="1.1" creator="JPX - https://github.com/jenetics/jpx" xmlns="http://www.topografix.com/GPX/1/1"><trk><trkseg><trkpt lat="43.4542252044861" lon="11.808038921782188"><ele>244.0</ele><time>2026-05-02T12:44:27Z</time></trkpt><trkpt lat="43.45414605602359" lon="11.808107381864765"><ele>243.99999999999997</ele><time>2026-05-02T12:44:31Z</time></trkpt><trkpt lat="43.45410896289877" lon="11.808229755224056"><ele>243.99999999999997</ele><time>2026-05-02T12:44:33Z</time></trkpt><trkpt lat="43.454074207713525" lon="11.808351209395939"><ele>244.0</ele><time>2026-05-02T12:44:35Z</time></trkpt><trkpt lat="43.454010261532744" lon="11.808447187152103"><ele>244.0</ele><time>2026-05-02T12:44:37Z</time></trkpt><trkpt lat="43.45393186265948" lon="11.808448896194928"><ele>244.0</ele><time>2026-05-02T12:44:39Z</time></trkpt><trkpt lat="43.453866659764785" lon="11.808423727362616"><ele>243.99999999999997</ele><time>2026-05-02T12:44:41Z</time></trkpt><trkpt lat="43.453808142785924" lon="11.808367218680385"><ele>243.99999999999997</ele><time>2026-05-02T12:44:42Z</time></trkpt><trkpt lat="43.45373034889267" lon="11.808273139880685"><ele>244.0</ele><time>2026-05-02T12:44:43Z</time></trkpt><trkpt lat="43.45364829688772" lon="11.808161207283694"><ele>244.0</ele><time>2026-05-02T12:44:44Z</time></trkpt><trkpt lat="43.453575892621586" lon="11.808057044067464"><ele>244.5</ele><time>2026-05-02T12:44:45Z</time></trkpt><trkpt lat="43.453490589089405" lon="11.807954567817173"><ele>245.0</ele><time>2026-05-02T12:44:46Z</time></trkpt><trkpt lat="43.45340775193782" lon="11.807847781952228"><ele>245.5</ele><time>2026-05-02T12:44:47Z</time></trkpt><trkpt lat="43.45331732143548" lon="11.807717102302833"><ele>246.0</ele><time>2026-05-02T12:44:48Z</time></trkpt><trkpt lat="43.45322007868019" lon="11.807579348981914"><ele>246.33333333333331</ele><time>2026-05-02T12:44:49Z</time></trkpt><trkpt lat="43.45311441201496" lon="11.807424515158042"><ele>246.66666666666666</ele><time>2026-05-02T12:44:50Z</time></trkpt><trkpt lat="43.45299837872522" lon="11.807256376081742"><ele>247.0</ele><time>2026-05-02T12:44:51Z</time></trkpt><trkpt lat="43.452887759084895" lon="11.80710122206326"><ele>246.75</ele><time>2026-05-02T12:44:52Z</time></trkpt><trkpt lat="43.45280688989636" lon="11.806962377339255"><ele>246.5</ele><time>2026-05-02T12:44:53Z</time></trkpt><trkpt lat="43.45274166822627" lon="11.806835545436247"><ele>246.25</ele><time>2026-05-02T12:44:54Z</time></trkpt><trkpt lat="43.45267135740585" lon="11.806760485085247"><ele>246.0</ele><time>2026-05-02T12:44:55Z</time></trkpt><trkpt lat="43.45275140250925" lon="11.806566236762855"><ele>246.0</ele><time>2026-05-02T12:44:56Z</time></trkpt><trkpt lat="43.45279810089571" lon="11.806458629090896"><ele>246.00000000000003</ele><time>2026-05-02T12:44:57Z</time></trkpt><trkpt lat="43.452882068873876" lon="11.806376796562683"><ele>246.00000000000003</ele><time>2026-05-02T12:44:58Z</time></trkpt><trkpt lat="43.45297100850139" lon="11.806260955616088"><ele>246.0</ele><time>2026-05-02T12:44:59Z</time></trkpt><trkpt lat="43.45305769919264" lon="11.806170170381018"><ele>246.0</ele><time>2026-05-02T12:45:00Z</time></trkpt><trkpt lat="43.45311700943119" lon="11.806098363316416"><ele>246.25</ele><time>2026-05-02T12:45:01Z</time></trkpt><trkpt lat="43.45317694403663" lon="11.806016677391925"><ele>246.5</ele><time>2026-05-02T12:45:03Z</time></trkpt><trkpt lat="43.45304795139402" lon="11.80590475090447"><ele>246.75</ele><time>2026-05-02T12:45:07Z</time></trkpt><trkpt lat="43.45294353268591" lon="11.805866587459196"><ele>247.0</ele><time>2026-05-02T12:45:08Z</time></trkpt><trkpt lat="43.45281868398536" lon="11.805849720536541"><ele>247.5</ele><time>2026-05-02T12:45:09Z</time></trkpt><trkpt lat="43.45268430966527" lon="11.805810566147699"><ele>248.0</ele><time>2026-05-02T12:45:10Z</time></trkpt><trkpt lat="43.45254619953952" lon="11.805741052975069"><ele>248.5</ele><time>2026-05-02T12:45:11Z</time></trkpt><trkpt lat="43.452411237842234" lon="11.805642421134042"><ele>249.0</ele><time>2026-05-02T12:45:12Z</time></trkpt><trkpt lat="43.452312624563284" lon="11.80548839622213"><ele>249.0</ele><time>2026-05-02T12:45:13Z</time></trkpt><trkpt lat="43.45218874135035" lon="11.805313946336096"><ele>249.0</ele><time>2026-05-02T12:45:14Z</time></trkpt><trkpt lat="43.452050941451205" lon="11.805147704118092"><ele>249.0</ele><time>2026-05-02T12:45:15Z</time></trkpt><trkpt lat="43.45191397115715" lon="11.804945973471902"><ele>249.0</ele><time>2026-05-02T12:45:16Z</time></trkpt><trkpt lat="43.45180833677113" lon="11.804729652092131"><ele>249.0</ele><time>2026-05-02T12:45:17Z</time></trkpt><trkpt lat="43.4516996210186" lon="11.804503003781045"><ele>249.0</ele><time>2026-05-02T12:45:18Z</time></trkpt><trkpt lat="43.451565487358316" lon="11.804283287882585"><ele>249.0</ele><time>2026-05-02T12:45:19Z</time></trkpt><trkpt lat="43.451452842052944" lon="11.804068164789498"><ele>249.0</ele><time>2026-05-02T12:45:20Z</time></trkpt><trkpt lat="43.451341884968" lon="11.80387099939043"><ele>249.0</ele><time>2026-05-02T12:45:21Z</time></trkpt><trkpt lat="43.45126878249322" lon="11.803657137264867"><ele>249.0</ele><time>2026-05-02T12:45:22Z</time></trkpt><trkpt lat="43.45121957067932" lon="11.80341197922171"><ele>249.0</ele><time>2026-05-02T12:45:23Z</time></trkpt><trkpt lat="43.45121578014098" lon="11.803147338439922"><ele>249.0</ele><time>2026-05-02T12:45:24Z</time></trkpt><trkpt lat="43.4511802513762" lon="11.802897509428574"><ele>249.0</ele><time>2026-05-02T12:45:25Z</time></trkpt><trkpt lat="43.45113571734037" lon="11.802672673613305"><ele>249.0</ele><time>2026-05-02T12:45:26Z</time></trkpt><trkpt lat="43.4511047983047" lon="11.8024766281057"><ele>249.0</ele><time>2026-05-02T12:45:27Z</time></trkpt><trkpt lat="43.45105809768281" lon="11.802293781865282"><ele>249.25</ele><time>2026-05-02T12:45:28Z</time></trkpt><trkpt lat="43.45099950411061" lon="11.802128416646184"><ele>249.5</ele><time>2026-05-02T12:45:29Z</time></trkpt><trkpt lat="43.45093063359611" lon="11.801964258571426"><ele>249.75</ele><time>2026-05-02T12:45:30Z</time></trkpt><trkpt lat="43.45085972283905" lon="11.801801743810376"><ele>250.0</ele><time>2026-05-02T12:45:31Z</time></trkpt><trkpt lat="43.45079084484098" lon="11.8016373655736"><ele>250.0</ele><time>2026-05-02T12:45:32Z</time></trkpt><trkpt lat="43.45072197857134" lon="11.801467248896367"><ele>250.0</ele><time>2026-05-02T12:45:33Z</time></trkpt><trkpt lat="43.45065104582106" lon="11.80128723033519"><ele>250.0</ele><time>2026-05-02T12:45:34Z</time></trkpt><trkpt lat="43.45058123756851" lon="11.801093318960433"><ele>250.0</ele><time>2026-05-02T12:45:35Z</time></trkpt><trkpt lat="43.450511606535464" lon="11.800893611170652"><ele>250.33333333333331</ele><time>2026-05-02T12:45:35.999Z</time></trkpt><trkpt lat="43.45041924804462" lon="11.800682632017503"><ele>250.66666666666669</ele><time>2026-05-02T12:45:36.999Z</time></trkpt><trkpt lat="43.45032912940148" lon="11.800476741677985"><ele>251.0</ele><time>2026-05-02T12:45:37.999Z</time></trkpt><trkpt lat="43.450241294539154" lon="11.800274646181967"><ele>250.66666666666669</ele><time>2026-05-02T12:45:38.999Z</time></trkpt><trkpt lat="43.45015103861955" lon="11.800085828172817"><ele>250.33333333333331</ele><time>2026-05-02T12:45:39.999Z</time></trkpt><trkpt lat="43.45005975704044" lon="11.799903611877038"><ele>250.0</ele><time>2026-05-02T12:45:40.999Z</time></trkpt><trkpt lat="43.44994955426879" lon="11.799730426326992"><ele>250.0</ele><time>2026-05-02T12:45:41.999Z</time></trkpt><trkpt lat="43.4498181680637" lon="11.799585798052208"><ele>250.0</ele><time>2026-05-02T12:45:42.999Z</time></trkpt><trkpt lat="43.449681043848585" lon="11.799444076232675"><ele>250.0</ele><time>2026-05-02T12:45:43.999Z</time></trkpt><trkpt lat="43.44954641247417" lon="11.799305762999511"><ele>249.33333333333331</ele><time>2026-05-02T12:45:44.999Z</time></trkpt><trkpt lat="43.4494139370726" lon="11.799160588671699"><ele>248.66666666666669</ele><time>2026-05-02T12:45:45.999Z</time></trkpt><trkpt lat="43.44930676055506" lon="11.798981828985996"><ele>248.0</ele><time>2026-05-02T12:45:46.999Z</time></trkpt><trkpt lat="43.44919496442089" lon="11.798809100760199"><ele>248.0</ele><time>2026-05-02T12:45:47.999Z</time></trkpt><trkpt lat="43.449107743005285" lon="11.798611920497791"><ele>248.0</ele><time>2026-05-02T12:45:48.999Z</time></trkpt><trkpt lat="43.44903251710114" lon="11.798406569200973"><ele>248.0</ele><time>2026-05-02T12:45:49.999Z</time></trkpt><trkpt lat="43.44896613031443" lon="11.798199487936056"><ele>248.0</ele><time>2026-05-02T12:45:50.999Z</time></trkpt><trkpt lat="43.44889944496976" lon="11.798008492007298"><ele>248.0</ele><time>2026-05-02T12:45:51.999Z</time></trkpt><trkpt lat="43.44883072101133" lon="11.797833798568798"><ele>248.0</ele><time>2026-05-02T12:45:52.999Z</time></trkpt><trkpt lat="43.44874467219927" lon="11.797674130380413"><ele>248.0</ele><time>2026-05-02T12:45:54Z</time></trkpt><trkpt lat="43.448647251869566" lon="11.797522269201483"><ele>248.25</ele><time>2026-05-02T12:45:55Z</time></trkpt><trkpt lat="43.448517353401456" lon="11.797399913327192"><ele>248.5</ele><time>2026-05-02T12:45:56Z</time></trkpt><trkpt lat="43.44840179013669" lon="11.797318883513599"><ele>248.75</ele><time>2026-05-02T12:45:57Z</time></trkpt><trkpt lat="43.44830240121341" lon="11.797251398711808"><ele>249.0</ele><time>2026-05-02T12:45:58Z</time></trkpt><trkpt lat="43.44821234050032" lon="11.797190637502775"><ele>249.0</ele><time>2026-05-02T12:45:59Z</time></trkpt><trkpt lat="43.448141656822855" lon="11.797126802816237"><ele>249.0</ele><time>2026-05-02T12:46:00Z</time></trkpt><trkpt lat="43.44808917323884" lon="11.797044859773537"><ele>249.0</ele><time>2026-05-02T12:46:01Z</time></trkpt><trkpt lat="43.44805636569443" lon="11.796958502613842"><ele>249.0</ele><time>2026-05-02T12:46:02Z</time></trkpt><trkpt lat="43.44801752155455" lon="11.796869909174776"><ele>249.0</ele><time>2026-05-02T12:46:03Z</time></trkpt><trkpt lat="43.4479602539326" lon="11.796806964497245"><ele>249.0</ele><time>2026-05-02T12:46:04Z</time></trkpt><trkpt lat="43.44783185159983" lon="11.796796140902142"><ele>249.0</ele><time>2026-05-02T12:46:06Z</time></trkpt><trkpt lat="43.447759557258415" lon="11.796898746228083"><ele>249.0</ele><time>2026-05-02T12:46:07Z</time></trkpt><trkpt lat="43.447665691636814" lon="11.79697181149697"><ele>249.0</ele><time>2026-05-02T12:46:08Z</time></trkpt><trkpt lat="43.4475532299839" lon="11.79700032634282"><ele>249.0</ele><time>2026-05-02T12:46:09Z</time></trkpt><trkpt lat="43.44742112046047" lon="11.796990855339736"><ele>249.0</ele><time>2026-05-02T12:46:10Z</time></trkpt><trkpt lat="43.447283773905454" lon="11.796965640579474"><ele>249.0</ele><time>2026-05-02T12:46:11Z</time></trkpt><trkpt lat="43.44714119171656" lon="11.796940959406399"><ele>249.0</ele><time>2026-05-02T12:46:12Z</time></trkpt><trkpt lat="43.446990480226916" lon="11.796902840801767"><ele>249.0</ele><time>2026-05-02T12:46:13Z</time></trkpt><trkpt lat="43.44684464253599" lon="11.796848987079732"><ele>249.66666666666669</ele><time>2026-05-02T12:46:14Z</time></trkpt><trkpt lat="43.4466862255845" lon="11.796775237804523"><ele>250.33333333333334</ele><time>2026-05-02T12:46:15Z</time></trkpt><trkpt lat="43.446539731987954" lon="11.796681216243895"><ele>251.0</ele><time>2026-05-02T12:46:16Z</time></trkpt><trkpt lat="43.446397155828535" lon="11.796578487646638"><ele>251.0</ele><time>2026-05-02T12:46:17Z</time></trkpt><trkpt lat="43.44625168160962" lon="11.796468839096432"><ele>251.0</ele><time>2026-05-02T12:46:18Z</time></trkpt><trkpt lat="43.446105341548154" lon="11.796356292646818"><ele>251.0</ele><time>2026-05-02T12:46:19Z</time></trkpt><trkpt lat="43.445948884956536" lon="11.796238268825942"><ele>251.0</ele><time>2026-05-02T12:46:20Z</time></trkpt><trkpt lat="43.44578581850354" lon="11.79611886744643"><ele>251.0</ele><time>2026-05-02T12:46:21Z</time></trkpt><trkpt lat="43.445619977834056" lon="11.79599454700944"><ele>251.0</ele><time>2026-05-02T12:46:22Z</time></trkpt><trkpt lat="43.44544879053462" lon="11.795867064959792"><ele>250.66666666666669</ele><time>2026-05-02T12:46:23Z</time></trkpt><trkpt lat="43.445285780287364" lon="11.795745891675628"><ele>250.33333333333331</ele><time>2026-05-02T12:46:24Z</time></trkpt><trkpt lat="43.44513343938471" lon="11.795631165743476"><ele>250.0</ele><time>2026-05-02T12:46:25Z</time></trkpt><trkpt lat="43.4449929387677" lon="11.79552280690023"><ele>250.0</ele><time>2026-05-02T12:46:26Z</time></trkpt><trkpt lat="43.444858576324734" lon="11.795420448941151"><ele>250.0</ele><time>2026-05-02T12:46:27Z</time></trkpt><trkpt lat="43.444729444746635" lon="11.795324970602115"><ele>250.0</ele><time>2026-05-02T12:46:28Z</time></trkpt><trkpt lat="43.444598471691876" lon="11.795226669774028"><ele>250.0</ele><time>2026-05-02T12:46:29Z</time></trkpt><trkpt lat="43.44445575624623" lon="11.795119047026127"><ele>250.33333333333331</ele><time>2026-05-02T12:46:30Z</time></trkpt><trkpt lat="43.444302609770865" lon="11.79500561103291"><ele>250.66666666666669</ele><time>2026-05-02T12:46:31Z</time></trkpt><trkpt lat="43.44414380797085" lon="11.79488965898994"><ele>251.0</ele><time>2026-05-02T12:46:32Z</time></trkpt><trkpt lat="43.44398346116497" lon="11.794772659676653"><ele>251.0</ele><time>2026-05-02T12:46:33Z</time></trkpt><trkpt lat="43.44381534263391" lon="11.794647003375008"><ele>251.0</ele><time>2026-05-02T12:46:34Z</time></trkpt><trkpt lat="43.443645967151696" lon="11.794531873624374"><ele>251.0</ele><time>2026-05-02T12:46:35Z</time></trkpt><trkpt lat="43.44347550744831" lon="11.794437483704979"><ele>250.66666666666669</ele><time>2026-05-02T12:46:36Z</time></trkpt><trkpt lat="43.44330466052435" lon="11.794346289026937"><ele>250.33333333333331</ele><time>2026-05-02T12:46:37Z</time></trkpt><trkpt lat="43.443136364164076" lon="11.79427611109872"><ele>250.0</ele><time>2026-05-02T12:46:38Z</time></trkpt><trkpt lat="43.442959141969965" lon="11.794221573687901"><ele>250.0</ele><time>2026-05-02T12:46:39Z</time></trkpt><trkpt lat="43.442781603837425" lon="11.794190138937745"><ele>250.0</ele><time>2026-05-02T12:46:40Z</time></trkpt><trkpt lat="43.44259933456507" lon="11.794182552382816"><ele>250.0</ele><time>2026-05-02T12:46:41Z</time></trkpt><trkpt lat="43.442416102191686" lon="11.794207002491502"><ele>250.0</ele><time>2026-05-02T12:46:42Z</time></trkpt><trkpt lat="43.442237398801026" lon="11.794222790081378"><ele>250.0</ele><time>2026-05-02T12:46:43Z</time></trkpt><trkpt lat="43.44205455458379" lon="11.794228382966635"><ele>250.0</ele><time>2026-05-02T12:46:44Z</time></trkpt><trkpt lat="43.44188095093822" lon="11.79425491287775"><ele>250.33333333333331</ele><time>2026-05-02T12:46:45Z</time></trkpt><trkpt lat="43.441701668298016" lon="11.79427063505897"><ele>250.66666666666669</ele><time>2026-05-02T12:46:46Z</time></trkpt><trkpt lat="43.441516880560755" lon="11.794283963147802"><ele>251.0</ele><time>2026-05-02T12:46:47Z</time></trkpt><trkpt lat="43.44132802264405" lon="11.794279730607466"><ele>250.66666666666669</ele><time>2026-05-02T12:46:48Z</time></trkpt><trkpt lat="43.441135992039904" lon="11.794260708106643"><ele>250.33333333333331</ele><time>2026-05-02T12:46:49Z</time></trkpt><trkpt lat="43.44093974373753" lon="11.7942241554028"><ele>250.0</ele><time>2026-05-02T12:46:50Z</time></trkpt><trkpt lat="43.440738139550405" lon="11.794181189393674"><ele>250.0</ele><time>2026-05-02T12:46:51Z</time></trkpt><trkpt lat="43.4405284728565" lon="11.794134038203218"><ele>250.0</ele><time>2026-05-02T12:46:52Z</time></trkpt><trkpt lat="43.440319110976326" lon="11.794089827114673"><ele>250.0</ele><time>2026-05-02T12:46:53Z</time></trkpt><trkpt lat="43.44011199591064" lon="11.79405154336752"><ele>249.66666666666666</ele><time>2026-05-02T12:46:54Z</time></trkpt><trkpt lat="43.439904378609924" lon="11.793998285795373"><ele>249.33333333333331</ele><time>2026-05-02T12:46:55Z</time></trkpt><trkpt lat="43.43967732637672" lon="11.793975685689228"><ele>249.0</ele><time>2026-05-02T12:46:56Z</time></trkpt><trkpt lat="43.43943229829908" lon="11.793970501362862"><ele>248.5</ele><time>2026-05-02T12:46:57Z</time></trkpt><trkpt lat="43.43918617818291" lon="11.793998596407627"><ele>248.0</ele><time>2026-05-02T12:46:58Z</time></trkpt><trkpt lat="43.4389579983607" lon="11.79400674849369"><ele>248.66666666666669</ele><time>2026-05-02T12:46:59Z</time></trkpt><trkpt lat="43.43874996447029" lon="11.79402779278942"><ele>249.33333333333331</ele><time>2026-05-02T12:47:00Z</time></trkpt><trkpt lat="43.43855498833096" lon="11.794046313237232"><ele>250.0</ele><time>2026-05-02T12:47:01Z</time></trkpt><trkpt lat="43.43837398191926" lon="11.79405825552891"><ele>250.0</ele><time>2026-05-02T12:47:02Z</time></trkpt><trkpt lat="43.43819826270877" lon="11.794059396102583"><ele>250.0</ele><time>2026-05-02T12:47:03Z</time></trkpt><trkpt lat="43.43802969940254" lon="11.794073661564457"><ele>250.0</ele><time>2026-05-02T12:47:04Z</time></trkpt><trkpt lat="43.43785473425043" lon="11.794093455497608"><ele>250.0</ele><time>2026-05-02T12:47:05Z</time></trkpt><trkpt lat="43.43767100195107" lon="11.794107949014935"><ele>250.0</ele><time>2026-05-02T12:47:06Z</time></trkpt><trkpt lat="43.43748352436512" lon="11.794122207131931"><ele>250.0</ele><time>2026-05-02T12:47:07Z</time></trkpt><trkpt lat="43.43730358363553" lon="11.794134180125077"><ele>250.0</ele><time>2026-05-02T12:47:08Z</time></trkpt><trkpt lat="43.4371518469814" lon="11.794131452777101"><ele>250.0</ele><time>2026-05-02T12:47:09Z</time></trkpt><trkpt lat="43.437006588018114" lon="11.794134976976537"><ele>250.0</ele><time>2026-05-02T12:47:10Z</time></trkpt><trkpt lat="43.43685139688083" lon="11.794120946729636"><ele>250.33333333333331</ele><time>2026-05-02T12:47:11Z</time></trkpt><trkpt lat="43.43668399266593" lon="11.794089002649995"><ele>250.66666666666669</ele><time>2026-05-02T12:47:12Z</time></trkpt><trkpt lat="43.43651015333695" lon="11.794035258592318"><ele>251.0</ele><time>2026-05-02T12:47:13Z</time></trkpt><trkpt lat="43.43632765276944" lon="11.793967958838365"><ele>251.66666666666669</ele><time>2026-05-02T12:47:14Z</time></trkpt><trkpt lat="43.43615098823475" lon="11.7938956918454"><ele>252.33333333333331</ele><time>2026-05-02T12:47:15Z</time></trkpt><trkpt lat="43.43598825638534" lon="11.793819859543055"><ele>253.0</ele><time>2026-05-02T12:47:16Z</time></trkpt><trkpt lat="43.43583513414268" lon="11.793744612920765"><ele>253.0</ele><time>2026-05-02T12:47:17Z</time></trkpt><trkpt lat="43.43566767627065" lon="11.793667455977578"><ele>253.0</ele><time>2026-05-02T12:47:18Z</time></trkpt><trkpt lat="43.43549699859334" lon="11.793592693235553"><ele>253.0</ele><time>2026-05-02T12:47:19Z</time></trkpt><trkpt lat="43.43534271810855" lon="11.79352000128166"><ele>253.66666666666666</ele><time>2026-05-02T12:47:20Z</time></trkpt><trkpt lat="43.43518845234195" lon="11.79344892781897"><ele>254.33333333333331</ele><time>2026-05-02T12:47:21Z</time></trkpt><trkpt lat="43.43502987762517" lon="11.793375030754953"><ele>255.0</ele><time>2026-05-02T12:47:22Z</time></trkpt><trkpt lat="43.43487800758294" lon="11.79330650017265"><ele>255.0</ele><time>2026-05-02T12:47:23Z</time></trkpt><trkpt lat="43.43473643896749" lon="11.793249315777624"><ele>255.0</ele><time>2026-05-02T12:47:24Z</time></trkpt><trkpt lat="43.434597080435466" lon="11.793208105305304"><ele>255.0</ele><time>2026-05-02T12:47:25Z</time></trkpt><trkpt lat="43.43445704179123" lon="11.793209080770017"><ele>255.0</ele><time>2026-05-02T12:47:26Z</time></trkpt><trkpt lat="43.4343129634273" lon="11.793222992802894"><ele>256.0</ele><time>2026-05-02T12:47:27Z</time></trkpt><trkpt lat="43.43416807923719" lon="11.793275076898803"><ele>257.0</ele><time>2026-05-02T12:47:28Z</time></trkpt><trkpt lat="43.43402532814872" lon="11.79335861481423"><ele>258.0</ele><time>2026-05-02T12:47:29Z</time></trkpt><trkpt lat="43.433895927720314" lon="11.793463510752701"><ele>257.5</ele><time>2026-05-02T12:47:30Z</time></trkpt><trkpt lat="43.43378156358615" lon="11.793588940087902"><ele>257.0</ele><time>2026-05-02T12:47:31Z</time></trkpt><trkpt lat="43.43368175796571" lon="11.793745191849853"><ele>256.5</ele><time>2026-05-02T12:47:32Z</time></trkpt><trkpt lat="43.43359853900243" lon="11.793902237740525"><ele>256.0</ele><time>2026-05-02T12:47:33Z</time></trkpt><trkpt lat="43.43353297191102" lon="11.794065864220041"><ele>256.0</ele><time>2026-05-02T12:47:34Z</time></trkpt><trkpt lat="43.43347802483143" lon="11.794232937236837"><ele>256.0</ele><time>2026-05-02T12:47:35Z</time></trkpt><trkpt lat="43.433421188162555" lon="11.794405505617409"><ele>256.0</ele><time>2026-05-02T12:47:36Z</time></trkpt><trkpt lat="43.43335427274923" lon="11.79459203076831"><ele>256.0</ele><time>2026-05-02T12:47:37Z</time></trkpt><trkpt lat="43.43327514631025" lon="11.794793243955281"><ele>255.0</ele><time>2026-05-02T12:47:38Z</time></trkpt><trkpt lat="43.43318473781469" lon="11.794990172608065"><ele>254.0</ele><time>2026-05-02T12:47:39Z</time></trkpt><trkpt lat="43.43309516738248" lon="11.795173593137651"><ele>253.0</ele><time>2026-05-02T12:47:40Z</time></trkpt><trkpt lat="43.43300395104435" lon="11.795340218869448"><ele>253.0</ele><time>2026-05-02T12:47:41Z</time></trkpt><trkpt lat="43.43290889453359" lon="11.795497118716895"><ele>253.0</ele><time>2026-05-02T12:47:41.999Z</time></trkpt><trkpt lat="43.43279933351754" lon="11.795657574352214"><ele>253.0</ele><time>2026-05-02T12:47:42.999Z</time></trkpt><trkpt lat="43.432674144255536" lon="11.795846826747754"><ele>252.0</ele><time>2026-05-02T12:47:43.999Z</time></trkpt><trkpt lat="43.43253808807046" lon="11.796043462696204"><ele>251.0</ele><time>2026-05-02T12:47:44.999Z</time></trkpt><trkpt lat="43.43240849876403" lon="11.796237983837111"><ele>250.0</ele><time>2026-05-02T12:47:45.999Z</time></trkpt><trkpt lat="43.43228260669353" lon="11.796418228611355"><ele>250.0</ele><time>2026-05-02T12:47:46.999Z</time></trkpt><trkpt lat="43.43216344673226" lon="11.796588546913513"><ele>250.0</ele><time>2026-05-02T12:47:47.999Z</time></trkpt><trkpt lat="43.43205255497799" lon="11.796751258148676"><ele>250.0</ele><time>2026-05-02T12:47:48.999Z</time></trkpt><trkpt lat="43.431945882134855" lon="11.796901072420862"><ele>250.0</ele><time>2026-05-02T12:47:49.999Z</time></trkpt><trkpt lat="43.43182545762697" lon="11.797030667104067"><ele>250.0</ele><time>2026-05-02T12:47:50.999Z</time></trkpt><trkpt lat="43.43172755258279" lon="11.797204908828657"><ele>250.0</ele><time>2026-05-02T12:47:51.999Z</time></trkpt><trkpt lat="43.43162603170483" lon="11.797351785074223"><ele>250.0</ele><time>2026-05-02T12:47:52.999Z</time></trkpt><trkpt lat="43.43151928427982" lon="11.797470711690353"><ele>250.0</ele><time>2026-05-02T12:47:53.999Z</time></trkpt><trkpt lat="43.43138390868799" lon="11.797556502949709"><ele>250.0</ele><time>2026-05-02T12:47:54.999Z</time></trkpt><trkpt lat="43.43124629537885" lon="11.79762364641881"><ele>250.0</ele><time>2026-05-02T12:47:55.999Z</time></trkpt><trkpt lat="43.4310860311396" lon="11.797661140511401"><ele>249.33333333333331</ele><time>2026-05-02T12:47:56.999Z</time></trkpt><trkpt lat="43.430932318718384" lon="11.797659819002698"><ele>248.66666666666669</ele><time>2026-05-02T12:47:57.999Z</time></trkpt><trkpt lat="43.43076632699696" lon="11.79762027283397"><ele>248.0</ele><time>2026-05-02T12:47:58.999Z</time></trkpt><trkpt lat="43.43060609161499" lon="11.797548410394382"><ele>248.66666666666669</ele><time>2026-05-02T12:47:59.999Z</time></trkpt><trkpt lat="43.43044308235543" lon="11.79746136230565"><ele>249.33333333333331</ele><time>2026-05-02T12:48:00.999Z</time></trkpt><trkpt lat="43.43027434351533" lon="11.797381028866772"><ele>250.0</ele><time>2026-05-02T12:48:01.999Z</time></trkpt><trkpt lat="43.43008480301751" lon="11.79727674146576"><ele>250.0</ele><time>2026-05-02T12:48:02.999Z</time></trkpt><trkpt lat="43.429889357928786" lon="11.797151660801775"><ele>250.0</ele><time>2026-05-02T12:48:03.999Z</time></trkpt><trkpt lat="43.429656990182394" lon="11.797021511634886"><ele>250.0</ele><time>2026-05-02T12:48:05Z</time></trkpt><trkpt lat="43.42940695136724" lon="11.796881653312676"><ele>250.0</ele><time>2026-05-02T12:48:06Z</time></trkpt><trkpt lat="43.42914093109767" lon="11.79673167376326"><ele>250.0</ele><time>2026-05-02T12:48:07Z</time></trkpt><trkpt lat="43.42886246130725" lon="11.796574200878483"><ele>250.0</ele><time>2026-05-02T12:48:08Z</time></trkpt><trkpt lat="43.42856804781836" lon="11.796407146553644"><ele>250.0</ele><time>2026-05-02T12:48:09Z</time></trkpt><trkpt lat="43.42824387066823" lon="11.796242247942963"><ele>250.0</ele><time>2026-05-02T12:48:10Z</time></trkpt><trkpt lat="43.42794139353229" lon="11.796063875317296"><ele>251.0</ele><time>2026-05-02T12:48:11Z</time></trkpt><trkpt lat="43.42762859717012" lon="11.795884741635428"><ele>252.0</ele><time>2026-05-02T12:48:12Z</time></trkpt><trkpt lat="43.42730590574401" lon="11.795707351496292"><ele>250.5</ele><time>2026-05-02T12:48:13Z</time></trkpt><trkpt lat="43.42698842031358" lon="11.795536521323296"><ele>249.0</ele><time>2026-05-02T12:48:14Z</time></trkpt><trkpt lat="43.42670983131638" lon="11.795375671869243"><ele>249.0</ele><time>2026-05-02T12:48:15Z</time></trkpt><trkpt lat="43.426444641765954" lon="11.79522373131421"><ele>249.0</ele><time>2026-05-02T12:48:16Z</time></trkpt><trkpt lat="43.42619812588182" lon="11.795085061144475"><ele>251.5</ele><time>2026-05-02T12:48:17Z</time></trkpt><trkpt lat="43.425966185081485" lon="11.794955187354613"><ele>254.0</ele><time>2026-05-02T12:48:18Z</time></trkpt><trkpt lat="43.425743908925206" lon="11.794830368292644"><ele>254.0</ele><time>2026-05-02T12:48:19Z</time></trkpt><trkpt lat="43.425533032162086" lon="11.794721841469627"><ele>254.0</ele><time>2026-05-02T12:48:20Z</time></trkpt><trkpt lat="43.42532726386204" lon="11.794638301936015"><ele>254.0</ele><time>2026-05-02T12:48:21Z</time></trkpt><trkpt lat="43.42511724608164" lon="11.794587265199693"><ele>254.33333333333334</ele><time>2026-05-02T12:48:22Z</time></trkpt><trkpt lat="43.42489982145587" lon="11.794567835966257"><ele>254.66666666666669</ele><time>2026-05-02T12:48:23Z</time></trkpt><trkpt lat="43.42468382283694" lon="11.794579072394143"><ele>255.0</ele><time>2026-05-02T12:48:24Z</time></trkpt><trkpt lat="43.42446854595507" lon="11.794606638126284"><ele>255.33333333333331</ele><time>2026-05-02T12:48:25Z</time></trkpt><trkpt lat="43.4242546493635" lon="11.794643469399203"><ele>255.66666666666666</ele><time>2026-05-02T12:48:26Z</time></trkpt><trkpt lat="43.424024299307824" lon="11.794681039394632"><ele>256.0</ele><time>2026-05-02T12:48:27Z</time></trkpt><trkpt lat="43.42378845143522" lon="11.794712597580851"><ele>256.0</ele><time>2026-05-02T12:48:28Z</time></trkpt><trkpt lat="43.42353779938957" lon="11.794765243336894"><ele>256.0</ele><time>2026-05-02T12:48:29Z</time></trkpt><trkpt lat="43.423277085372696" lon="11.794843291438585"><ele>256.0</ele><time>2026-05-02T12:48:30Z</time></trkpt><trkpt lat="43.42300242799942" lon="11.794935852235858"><ele>256.0</ele><time>2026-05-02T12:48:31Z</time></trkpt><trkpt lat="43.4227201852293" lon="11.795038229123985"><ele>254.5</ele><time>2026-05-02T12:48:32Z</time></trkpt><trkpt lat="43.42242793907257" lon="11.795138692396659"><ele>253.0</ele><time>2026-05-02T12:48:33Z</time></trkpt><trkpt lat="43.42212501271442" lon="11.795236510032884"><ele>252.5</ele><time>2026-05-02T12:48:34Z</time></trkpt><trkpt lat="43.42182344961591" lon="11.795335227253622"><ele>252.0</ele><time>2026-05-02T12:48:35Z</time></trkpt><trkpt lat="43.42152173140514" lon="11.795439159033613"><ele>252.0</ele><time>2026-05-02T12:48:36Z</time></trkpt><trkpt lat="43.42122152589946" lon="11.795532384052079"><ele>252.0</ele><time>2026-05-02T12:48:37Z</time></trkpt><trkpt lat="43.42092667409329" lon="11.795618666885126"><ele>252.0</ele><time>2026-05-02T12:48:38Z</time></trkpt><trkpt lat="43.42063732381" lon="11.795694302749713"><ele>252.0</ele><time>2026-05-02T12:48:39Z</time></trkpt><trkpt lat="43.420356121041216" lon="11.795772495538046"><ele>252.0</ele><time>2026-05-02T12:48:40Z</time></trkpt><trkpt lat="43.420081259971205" lon="11.79584784256437"><ele>252.0</ele><time>2026-05-02T12:48:41Z</time></trkpt><trkpt lat="43.419814321929984" lon="11.79592138808748"><ele>251.0</ele><time>2026-05-02T12:48:42Z</time></trkpt><trkpt lat="43.41955672265288" lon="11.795992057459278"><ele>250.0</ele><time>2026-05-02T12:48:43Z</time></trkpt><trkpt lat="43.41930454111052" lon="11.796062652937822"><ele>250.0</ele><time>2026-05-02T12:48:44Z</time></trkpt><trkpt lat="43.419052388820454" lon="11.796139115313295"><ele>250.0</ele><time>2026-05-02T12:48:45Z</time></trkpt><trkpt lat="43.41880638957479" lon="11.796225818085482"><ele>250.33333333333331</ele><time>2026-05-02T12:48:46Z</time></trkpt><trkpt lat="43.41858744171203" lon="11.79627944438925"><ele>250.66666666666669</ele><time>2026-05-02T12:48:47Z</time></trkpt><trkpt lat="43.41837035241083" lon="11.796352440818737"><ele>251.0</ele><time>2026-05-02T12:48:48Z</time></trkpt><trkpt lat="43.418167167491774" lon="11.796427880187514"><ele>250.66666666666669</ele><time>2026-05-02T12:48:49Z</time></trkpt><trkpt lat="43.41797458488942" lon="11.796491071631337"><ele>250.33333333333331</ele><time>2026-05-02T12:48:50Z</time></trkpt><trkpt lat="43.41778198003187" lon="11.796554265245295"><ele>250.0</ele><time>2026-05-02T12:48:51Z</time></trkpt><trkpt lat="43.417583666724866" lon="11.796627849713408"><ele>250.0</ele><time>2026-05-02T12:48:52Z</time></trkpt><trkpt lat="43.41738165125894" lon="11.796695119101873"><ele>250.0</ele><time>2026-05-02T12:48:53Z</time></trkpt><trkpt lat="43.41717636240351" lon="11.796738314250048"><ele>250.0</ele><time>2026-05-02T12:48:54Z</time></trkpt><trkpt lat="43.41697081036576" lon="11.79674210203362"><ele>249.0</ele><time>2026-05-02T12:48:55Z</time></trkpt><trkpt lat="43.4167570965145" lon="11.796706502259184"><ele>248.0</ele><time>2026-05-02T12:48:56Z</time></trkpt><trkpt lat="43.416539036110976" lon="11.79664204645219"><ele>247.0</ele><time>2026-05-02T12:48:57Z</time></trkpt><trkpt lat="43.41631547361892" lon="11.796563943650263"><ele>247.0</ele><time>2026-05-02T12:48:58Z</time></trkpt><trkpt lat="43.41609508771451" lon="11.79649439960192"><ele>247.0</ele><time>2026-05-02T12:48:59Z</time></trkpt><trkpt lat="43.415889131152966" lon="11.796449713297243"><ele>247.0</ele><time>2026-05-02T12:49:00Z</time></trkpt><trkpt lat="43.41569248151811" lon="11.796433955921517"><ele>247.0</ele><time>2026-05-02T12:49:01Z</time></trkpt><trkpt lat="43.41550289800855" lon="11.796444093556984"><ele>247.0</ele><time>2026-05-02T12:49:02Z</time></trkpt><trkpt lat="43.41531835059573" lon="11.796484014016032"><ele>247.0</ele><time>2026-05-02T12:49:03Z</time></trkpt><trkpt lat="43.415134284125195" lon="11.796543910784635"><ele>247.0</ele><time>2026-05-02T12:49:04Z</time></trkpt><trkpt lat="43.41495787585132" lon="11.796610794702337"><ele>247.0</ele><time>2026-05-02T12:49:05Z</time></trkpt><trkpt lat="43.41478717332843" lon="11.796679943275315"><ele>247.0</ele><time>2026-05-02T12:49:06Z</time></trkpt><trkpt lat="43.414617252807965" lon="11.796755703630648"><ele>247.0</ele><time>2026-05-02T12:49:07Z</time></trkpt><trkpt lat="43.41444092409839" lon="11.796831443576478"><ele>247.0</ele><time>2026-05-02T12:49:08Z</time></trkpt><trkpt lat="43.41425104019397" lon="11.796906404436772"><ele>247.0</ele><time>2026-05-02T12:49:09Z</time></trkpt><trkpt lat="43.414065360235675" lon="11.79699380309128"><ele>247.0</ele><time>2026-05-02T12:49:10Z</time></trkpt><trkpt lat="43.413888236274545" lon="11.797106847016689"><ele>247.0</ele><time>2026-05-02T12:49:11Z</time></trkpt><trkpt lat="43.41371209483837" lon="11.797253375833375"><ele>247.0</ele><time>2026-05-02T12:49:12Z</time></trkpt><trkpt lat="43.413547002322744" lon="11.797433225173863"><ele>247.0</ele><time>2026-05-02T12:49:13Z</time></trkpt><trkpt lat="43.413390206774444" lon="11.797645846666917"><ele>247.0</ele><time>2026-05-02T12:49:14Z</time></trkpt><trkpt lat="43.413237140770015" lon="11.797881550228388"><ele>247.5</ele><time>2026-05-02T12:49:15Z</time></trkpt><trkpt lat="43.41308340282774" lon="11.79811509336532"><ele>248.0</ele><time>2026-05-02T12:49:16Z</time></trkpt><trkpt lat="43.41292592491517" lon="11.798351589079214"><ele>246.5</ele><time>2026-05-02T12:49:17Z</time></trkpt><trkpt lat="43.412764711717685" lon="11.798588670046172"><ele>245.0</ele><time>2026-05-02T12:49:18Z</time></trkpt><trkpt lat="43.41260294073887" lon="11.798823992280457"><ele>245.0</ele><time>2026-05-02T12:49:19Z</time></trkpt><trkpt lat="43.412438641110974" lon="11.799062320080353"><ele>245.0</ele><time>2026-05-02T12:49:20Z</time></trkpt><trkpt lat="43.412280844433035" lon="11.799293850774617"><ele>245.66666666666669</ele><time>2026-05-02T12:49:21Z</time></trkpt><trkpt lat="43.412126640170186" lon="11.799513499002613"><ele>246.33333333333331</ele><time>2026-05-02T12:49:22Z</time></trkpt><trkpt lat="43.41198155285501" lon="11.79971857921644"><ele>247.0</ele><time>2026-05-02T12:49:23Z</time></trkpt><trkpt lat="43.41185215169258" lon="11.799911567316611"><ele>247.0</ele><time>2026-05-02T12:49:24Z</time></trkpt><trkpt lat="43.411726137539794" lon="11.800091358619252"><ele>247.0</ele><time>2026-05-02T12:49:25Z</time></trkpt><trkpt lat="43.4116183079365" lon="11.800243705361435"><ele>247.0</ele><time>2026-05-02T12:49:26Z</time></trkpt><trkpt lat="43.41153017538171" lon="11.80036921111477"><ele>246.8</ele><time>2026-05-02T12:49:27Z</time></trkpt><trkpt lat="43.41144760060952" lon="11.800480103565622"><ele>246.6</ele><time>2026-05-02T12:49:28Z</time></trkpt><trkpt lat="43.41136661219989" lon="11.800566829962992"><ele>246.40000000000003</ele><time>2026-05-02T12:49:29Z</time></trkpt><trkpt lat="43.411289356765096" lon="11.800611746175335"><ele>246.20000000000002</ele><time>2026-05-02T12:49:30Z</time></trkpt><trkpt lat="43.41122345013536" lon="11.800609768306932"><ele>246.0</ele><time>2026-05-02T12:49:31Z</time></trkpt><trkpt lat="43.41110478392994" lon="11.800496838793423"><ele>247.0</ele><time>2026-05-02T12:49:33Z</time></trkpt><trkpt lat="43.41103392925945" lon="11.800360858738506"><ele>248.0</ele><time>2026-05-02T12:49:34Z</time></trkpt><trkpt lat="43.4109514085746" lon="11.80017542139831"><ele>249.0</ele><time>2026-05-02T12:49:35Z</time></trkpt><trkpt lat="43.41085441844996" lon="11.799959373271943"><ele>249.66666666666669</ele><time>2026-05-02T12:49:36Z</time></trkpt><trkpt lat="43.410753566336076" lon="11.799754748690656"><ele>250.33333333333334</ele><time>2026-05-02T12:49:37Z</time></trkpt><trkpt lat="43.41067051609927" lon="11.799577134867569"><ele>251.0</ele><time>2026-05-02T12:49:38Z</time></trkpt><trkpt lat="43.410599113886505" lon="11.799416587162534"><ele>250.8</ele><time>2026-05-02T12:49:39Z</time></trkpt><trkpt lat="43.41053097800865" lon="11.799265351155706"><ele>250.60000000000002</ele><time>2026-05-02T12:49:40Z</time></trkpt><trkpt lat="43.41047146116722" lon="11.799129211990167"><ele>250.4</ele><time>2026-05-02T12:49:41Z</time></trkpt><trkpt lat="43.41042696927879" lon="11.79901790900622"><ele>250.2</ele><time>2026-05-02T12:49:42Z</time></trkpt><trkpt lat="43.41037898896094" lon="11.798910430925702"><ele>250.0</ele><time>2026-05-02T12:49:44Z</time></trkpt><trkpt lat="43.410332337374385" lon="11.79881695547839"><ele>249.6</ele><time>2026-05-02T12:52:08.999Z</time></trkpt><trkpt lat="43.41023690315568" lon="11.798678671186957"><ele>249.2</ele><time>2026-05-02T12:52:10.999Z</time></trkpt><trkpt lat="43.41017359165732" lon="11.798594706693919"><ele>248.8</ele><time>2026-05-02T12:52:11.999Z</time></trkpt><trkpt lat="43.41009979712276" lon="11.798508535063103"><ele>248.4</ele><time>2026-05-02T12:52:12.999Z</time></trkpt><trkpt lat="43.41001387738464" lon="11.798440130872017"><ele>248.0</ele><time>2026-05-02T12:52:14Z</time></trkpt><trkpt lat="43.409936497571984" lon="11.798390195355452"><ele>248.00000000000003</ele><time>2026-05-02T12:52:15Z</time></trkpt><trkpt lat="43.40986742203178" lon="11.798323579296495"><ele>248.0</ele><time>2026-05-02T12:52:16Z</time></trkpt><trkpt lat="43.40980632691478" lon="11.798285382970462"><ele>248.0</ele><time>2026-05-02T12:52:17Z</time></trkpt><trkpt lat="43.4097283471313" lon="11.798245186152927"><ele>248.0</ele><time>2026-05-02T12:52:18Z</time></trkpt><trkpt lat="43.409627303882985" lon="11.798199446997168"><ele>248.00000000000003</ele><time>2026-05-02T12:52:20Z</time></trkpt><trkpt lat="43.409558749640354" lon="11.798174178759828"><ele>248.0</ele><time>2026-05-02T12:52:21Z</time></trkpt><trkpt lat="43.40942692671939" lon="11.798131922770008"><ele>248.2</ele><time>2026-05-02T12:52:23Z</time></trkpt><trkpt lat="43.40933752068963" lon="11.798103945293871"><ele>248.4</ele><time>2026-05-02T12:52:24Z</time></trkpt><trkpt lat="43.40923877699037" lon="11.798071090111367"><ele>248.59999999999997</ele><time>2026-05-02T12:52:25Z</time></trkpt><trkpt lat="43.40913565461183" lon="11.798038894691382"><ele>248.79999999999998</ele><time>2026-05-02T12:52:26Z</time></trkpt><trkpt lat="43.40903412179978" lon="11.798006477536303"><ele>249.0</ele><time>2026-05-02T12:52:27Z</time></trkpt><trkpt lat="43.408938030282776" lon="11.79797661026488"><ele>249.0</ele><time>2026-05-02T12:52:28Z</time></trkpt><trkpt lat="43.40884536800251" lon="11.797949087187426"><ele>248.99999999999997</ele><time>2026-05-02T12:52:29Z</time></trkpt><trkpt lat="43.40875291053963" lon="11.797929439357237"><ele>248.99999999999997</ele><time>2026-05-02T12:52:30Z</time></trkpt><trkpt lat="43.40868533031036" lon="11.79788370281169"><ele>249.0</ele><time>2026-05-02T12:52:31Z</time></trkpt><trkpt lat="43.40861033035467" lon="11.797856395385077"><ele>249.0</ele><time>2026-05-02T12:52:32Z</time></trkpt><trkpt lat="43.40848706581565" lon="11.798162487932217"><ele>249.0</ele><time>2026-05-02T12:52:33Z</time></trkpt><trkpt lat="43.408369225591336" lon="11.798305911148308"><ele>249.0</ele><time>2026-05-02T12:52:34Z</time></trkpt><trkpt lat="43.40823017645497" lon="11.798443773543825"><ele>249.0</ele><time>2026-05-02T12:52:35Z</time></trkpt><trkpt lat="43.40809708929752" lon="11.798593132282189"><ele>249.0</ele><time>2026-05-02T12:52:36Z</time></trkpt><trkpt lat="43.40795097747297" lon="11.798730290094872"><ele>249.0</ele><time>2026-05-02T12:52:37Z</time></trkpt><trkpt lat="43.40779274835574" lon="11.798868949791583"><ele>249.0</ele><time>2026-05-02T12:52:38Z</time></trkpt><trkpt lat="43.40763678594399" lon="11.799023020231417"><ele>249.0</ele><time>2026-05-02T12:52:39Z</time></trkpt><trkpt lat="43.407490623185716" lon="11.799160140267372"><ele>249.0</ele><time>2026-05-02T12:52:40Z</time></trkpt><trkpt lat="43.40736254055673" lon="11.79929148306116"><ele>249.0</ele><time>2026-05-02T12:52:41Z</time></trkpt><trkpt lat="43.40724240179023" lon="11.79940940789834"><ele>248.75</ele><time>2026-05-02T12:52:42Z</time></trkpt><trkpt lat="43.40712555927248" lon="11.79951907600755"><ele>248.5</ele><time>2026-05-02T12:52:43Z</time></trkpt><trkpt lat="43.40701769773064" lon="11.799620995599769"><ele>248.25</ele><time>2026-05-02T12:52:44Z</time></trkpt><trkpt lat="43.40691784977271" lon="11.799720023149387"><ele>248.0</ele><time>2026-05-02T12:52:45Z</time></trkpt><trkpt lat="43.406827044973745" lon="11.799808349609538"><ele>248.0</ele><time>2026-05-02T12:52:46Z</time></trkpt><trkpt lat="43.40674317504145" lon="11.799888457782796"><ele>248.0</ele><time>2026-05-02T12:52:47Z</time></trkpt><trkpt lat="43.40666711572986" lon="11.799962211214948"><ele>248.0</ele><time>2026-05-02T12:52:48Z</time></trkpt><trkpt lat="43.40659545512685" lon="11.800033378969541"><ele>248.0</ele><time>2026-05-02T12:52:49Z</time></trkpt><trkpt lat="43.40652115712363" lon="11.800105930823879"><ele>248.0</ele><time>2026-05-02T12:52:50Z</time></trkpt><trkpt lat="43.40644680569336" lon="11.80017492140501"><ele>248.0</ele><time>2026-05-02T12:52:51Z</time></trkpt><trkpt lat="43.40637257003808" lon="11.800245602110333"><ele>248.0</ele><time>2026-05-02T12:52:52Z</time></trkpt><trkpt lat="43.40628400579052" lon="11.800337274318297"><ele>248.0</ele><time>2026-05-02T12:52:53Z</time></trkpt><trkpt lat="43.406172895688975" lon="11.800447324079164"><ele>248.0</ele><time>2026-05-02T12:52:54Z</time></trkpt><trkpt lat="43.40605477691075" lon="11.800556152889259"><ele>248.33333333333334</ele><time>2026-05-02T12:52:55Z</time></trkpt><trkpt lat="43.40593530486529" lon="11.800668493712543"><ele>248.66666666666669</ele><time>2026-05-02T12:52:56Z</time></trkpt><trkpt lat="43.40581216368781" lon="11.800788464379847"><ele>249.0</ele><time>2026-05-02T12:52:57Z</time></trkpt><trkpt lat="43.405680679768125" lon="11.80092320938488"><ele>249.33333333333331</ele><time>2026-05-02T12:52:58Z</time></trkpt><trkpt lat="43.40553684028813" lon="11.801067828000495"><ele>249.66666666666666</ele><time>2026-05-02T12:52:59Z</time></trkpt><trkpt lat="43.40537665403275" lon="11.801222980859357"><ele>250.0</ele><time>2026-05-02T12:53:00Z</time></trkpt><trkpt lat="43.40520521928483" lon="11.801389211073152"><ele>249.33333333333331</ele><time>2026-05-02T12:53:01Z</time></trkpt><trkpt lat="43.40502150612474" lon="11.801564332290566"><ele>248.66666666666669</ele><time>2026-05-02T12:53:02Z</time></trkpt><trkpt lat="43.40483740006365" lon="11.801739846066054"><ele>248.0</ele><time>2026-05-02T12:53:03Z</time></trkpt><trkpt lat="43.4046508955695" lon="11.801933916576202"><ele>247.0</ele><time>2026-05-02T12:53:04Z</time></trkpt><trkpt lat="43.40444674696458" lon="11.802123263803507"><ele>246.0</ele><time>2026-05-02T12:53:05Z</time></trkpt><trkpt lat="43.4042447526793" lon="11.80231601688066"><ele>246.0</ele><time>2026-05-02T12:53:06Z</time></trkpt><trkpt lat="43.404040028121784" lon="11.80251553206788"><ele>246.0</ele><time>2026-05-02T12:53:07Z</time></trkpt><trkpt lat="43.40383330535951" lon="11.802715242812676"><ele>247.0</ele><time>2026-05-02T12:53:08Z</time></trkpt><trkpt lat="43.403630406975644" lon="11.802915715728842"><ele>248.0</ele><time>2026-05-02T12:53:09Z</time></trkpt><trkpt lat="43.40343792004885" lon="11.803101699790268"><ele>248.0</ele><time>2026-05-02T12:53:10Z</time></trkpt><trkpt lat="43.40325753385982" lon="11.803269519249552"><ele>248.0</ele><time>2026-05-02T12:53:11Z</time></trkpt><trkpt lat="43.40307982473173" lon="11.803413338131437"><ele>248.0</ele><time>2026-05-02T12:53:12Z</time></trkpt><trkpt lat="43.40288671064355" lon="11.803544766356683"><ele>247.33333333333334</ele><time>2026-05-02T12:53:13Z</time></trkpt><trkpt lat="43.40268175963914" lon="11.803646498549226"><ele>246.66666666666669</ele><time>2026-05-02T12:53:14Z</time></trkpt><trkpt lat="43.40247086143148" lon="11.803722602775409"><ele>246.0</ele><time>2026-05-02T12:53:15Z</time></trkpt><trkpt lat="43.40225681480693" lon="11.803764160666859"><ele>245.66666666666669</ele><time>2026-05-02T12:53:16Z</time></trkpt><trkpt lat="43.402039159848826" lon="11.803786303205927"><ele>245.33333333333334</ele><time>2026-05-02T12:53:17Z</time></trkpt><trkpt lat="43.401817776019094" lon="11.803789075895265"><ele>245.0</ele><time>2026-05-02T12:53:18Z</time></trkpt><trkpt lat="43.40159759441822" lon="11.803792182473334"><ele>245.0</ele><time>2026-05-02T12:53:19Z</time></trkpt><trkpt lat="43.40137927136623" lon="11.803799234502456"><ele>245.0</ele><time>2026-05-02T12:53:20Z</time></trkpt><trkpt lat="43.40115755575679" lon="11.80380689070188"><ele>245.0</ele><time>2026-05-02T12:53:21Z</time></trkpt><trkpt lat="43.40093399417759" lon="11.803814669648485"><ele>244.33333333333334</ele><time>2026-05-02T12:53:22Z</time></trkpt><trkpt lat="43.40070777732787" lon="11.803824242708904"><ele>243.66666666666669</ele><time>2026-05-02T12:53:23Z</time></trkpt><trkpt lat="43.40049979094625" lon="11.803832023294325"><ele>243.0</ele><time>2026-05-02T12:53:24Z</time></trkpt><trkpt lat="43.400303969687386" lon="11.803838406076423"><ele>242.66666666666669</ele><time>2026-05-02T12:53:25Z</time></trkpt><trkpt lat="43.40011000477951" lon="11.803842587518435"><ele>242.33333333333334</ele><time>2026-05-02T12:53:26Z</time></trkpt><trkpt lat="43.39990522481643" lon="11.803852978954785"><ele>242.0</ele><time>2026-05-02T12:53:27Z</time></trkpt><trkpt lat="43.399692698572" lon="11.803877986648377"><ele>243.33333333333334</ele><time>2026-05-02T12:53:28Z</time></trkpt><trkpt lat="43.39947507046427" lon="11.803928842284225"><ele>244.66666666666669</ele><time>2026-05-02T12:53:29Z</time></trkpt><trkpt lat="43.39925919965695" lon="11.803996918664785"><ele>246.0</ele><time>2026-05-02T12:53:30Z</time></trkpt><trkpt lat="43.39903682628217" lon="11.804069166315829"><ele>246.0</ele><time>2026-05-02T12:53:31Z</time></trkpt><trkpt lat="43.39881400451728" lon="11.80414025643347"><ele>246.0</ele><time>2026-05-02T12:53:32Z</time></trkpt><trkpt lat="43.39858502870664" lon="11.804207051046825"><ele>246.0</ele><time>2026-05-02T12:53:33Z</time></trkpt><trkpt lat="43.39835512984715" lon="11.804274229756654"><ele>246.0</ele><time>2026-05-02T12:53:34Z</time></trkpt><trkpt lat="43.39812393441803" lon="11.804344815448644"><ele>245.5</ele><time>2026-05-02T12:53:35Z</time></trkpt><trkpt lat="43.39789467363" lon="11.804417670917053"><ele>245.0</ele><time>2026-05-02T12:53:36Z</time></trkpt><trkpt lat="43.39766373380344" lon="11.804490052067443"><ele>245.0</ele><time>2026-05-02T12:53:37Z</time></trkpt><trkpt lat="43.39743290698753" lon="11.804555369274093"><ele>245.0</ele><time>2026-05-02T12:53:38Z</time></trkpt><trkpt lat="43.39720009565746" lon="11.804612385584836"><ele>246.5</ele><time>2026-05-02T12:53:39Z</time></trkpt><trkpt lat="43.39697102894153" lon="11.804656472489683"><ele>248.0</ele><time>2026-05-02T12:53:40Z</time></trkpt><trkpt lat="43.396735781763695" lon="11.804692622049583"><ele>248.0</ele><time>2026-05-02T12:53:41Z</time></trkpt><trkpt lat="43.39650399736234" lon="11.804719627084998"><ele>248.0</ele><time>2026-05-02T12:53:42Z</time></trkpt><trkpt lat="43.39627412627683" lon="11.804750018331537"><ele>247.0</ele><time>2026-05-02T12:53:43Z</time></trkpt><trkpt lat="43.396041455971485" lon="11.804784010848685"><ele>246.0</ele><time>2026-05-02T12:53:44Z</time></trkpt><trkpt lat="43.39581247352458" lon="11.804813699152623"><ele>246.0</ele><time>2026-05-02T12:53:45Z</time></trkpt><trkpt lat="43.39558198156794" lon="11.804844232066031"><ele>246.0</ele><time>2026-05-02T12:53:46Z</time></trkpt><trkpt lat="43.39534735995819" lon="11.804877773551466"><ele>246.5</ele><time>2026-05-02T12:53:47Z</time></trkpt><trkpt lat="43.395112153400405" lon="11.804910155602164"><ele>247.0</ele><time>2026-05-02T12:53:48Z</time></trkpt><trkpt lat="43.39487598043826" lon="11.804938742426277"><ele>246.5</ele><time>2026-05-02T12:53:49Z</time></trkpt><trkpt lat="43.394637035475434" lon="11.80497278191332"><ele>246.0</ele><time>2026-05-02T12:53:50Z</time></trkpt><trkpt lat="43.394398046378825" lon="11.805006731158459"><ele>246.0</ele><time>2026-05-02T12:53:51Z</time></trkpt><trkpt lat="43.39415965852587" lon="11.805037364918661"><ele>246.0</ele><time>2026-05-02T12:53:52Z</time></trkpt><trkpt lat="43.39392111154288" lon="11.805072709701133"><ele>245.5</ele><time>2026-05-02T12:53:53Z</time></trkpt><trkpt lat="43.39368797293078" lon="11.805108104069996"><ele>245.0</ele><time>2026-05-02T12:53:54Z</time></trkpt><trkpt lat="43.393451069782834" lon="11.805140785974169"><ele>245.0</ele><time>2026-05-02T12:53:55Z</time></trkpt><trkpt lat="43.39321765510874" lon="11.805175473505457"><ele>245.0</ele><time>2026-05-02T12:53:56Z</time></trkpt><trkpt lat="43.39297886251805" lon="11.805209458148758"><ele>245.5</ele><time>2026-05-02T12:53:57Z</time></trkpt><trkpt lat="43.39274255516481" lon="11.805241503056365"><ele>246.0</ele><time>2026-05-02T12:53:57.999Z</time></trkpt><trkpt lat="43.39250360461514" lon="11.805274314957465"><ele>246.0</ele><time>2026-05-02T12:53:58.999Z</time></trkpt><trkpt lat="43.392267649007096" lon="11.805309370919627"><ele>246.0</ele><time>2026-05-02T12:53:59.999Z</time></trkpt><trkpt lat="43.392028455291175" lon="11.805341458822037"><ele>246.5</ele><time>2026-05-02T12:54:00.999Z</time></trkpt><trkpt lat="43.391794304372425" lon="11.805374054504071"><ele>247.0</ele><time>2026-05-02T12:54:01.999Z</time></trkpt><trkpt lat="43.39157086156628" lon="11.805393106228584"><ele>247.0</ele><time>2026-05-02T12:54:02.999Z</time></trkpt><trkpt lat="43.39135854268551" lon="11.805380484627273"><ele>247.0</ele><time>2026-05-02T12:54:03.999Z</time></trkpt><trkpt lat="43.391144833543564" lon="11.805353498776329"><ele>247.0</ele><time>2026-05-02T12:54:04.999Z</time></trkpt><trkpt lat="43.39092566266622" lon="11.805295093489883"><ele>247.0</ele><time>2026-05-02T12:54:05.999Z</time></trkpt><trkpt lat="43.39070523145166" lon="11.805215143905219"><ele>247.0</ele><time>2026-05-02T12:54:06.999Z</time></trkpt><trkpt lat="43.39047840946828" lon="11.80513288961691"><ele>246.5</ele><time>2026-05-02T12:54:07.999Z</time></trkpt><trkpt lat="43.39024763998582" lon="11.80506303109278"><ele>246.0</ele><time>2026-05-02T12:54:08.999Z</time></trkpt><trkpt lat="43.39001259623181" lon="11.804988652450655"><ele>246.0</ele><time>2026-05-02T12:54:09.999Z</time></trkpt><trkpt lat="43.38978882185152" lon="11.804919666118039"><ele>246.0</ele><time>2026-05-02T12:54:10.999Z</time></trkpt><trkpt lat="43.38957614088531" lon="11.804861708789133"><ele>246.0</ele><time>2026-05-02T12:54:11.999Z</time></trkpt><trkpt lat="43.38936567562704" lon="11.80480990065887"><ele>246.0</ele><time>2026-05-02T12:54:12.999Z</time></trkpt><trkpt lat="43.38915480807113" lon="11.804787383606495"><ele>246.0</ele><time>2026-05-02T12:54:13.999Z</time></trkpt><trkpt lat="43.3889415966931" lon="11.804804015415908"><ele>246.0</ele><time>2026-05-02T12:54:14.999Z</time></trkpt><trkpt lat="43.38873088249088" lon="11.804855345475687"><ele>246.0</ele><time>2026-05-02T12:54:15.999Z</time></trkpt><trkpt lat="43.388519188463654" lon="11.804922268894948"><ele>246.0</ele><time>2026-05-02T12:54:16.999Z</time></trkpt><trkpt lat="43.38830777760887" lon="11.80498982014417"><ele>246.0</ele><time>2026-05-02T12:54:17.999Z</time></trkpt><trkpt lat="43.38809414416558" lon="11.805054528977777"><ele>246.0</ele><time>2026-05-02T12:54:18.999Z</time></trkpt><trkpt lat="43.387878011640986" lon="11.805114453552921"><ele>246.0</ele><time>2026-05-02T12:54:20Z</time></trkpt><trkpt lat="43.387661552623314" lon="11.805173718150323"><ele>246.0</ele><time>2026-05-02T12:54:21Z</time></trkpt><trkpt lat="43.38744550057011" lon="11.805234889574853"><ele>246.0</ele><time>2026-05-02T12:54:22Z</time></trkpt><trkpt lat="43.387239854009714" lon="11.805288476398509"><ele>246.0</ele><time>2026-05-02T12:54:23Z</time></trkpt><trkpt lat="43.38703977801163" lon="11.805341332496129"><ele>246.0</ele><time>2026-05-02T12:54:24Z</time></trkpt><trkpt lat="43.38683800660605" lon="11.805395501337095"><ele>246.0</ele><time>2026-05-02T12:54:25Z</time></trkpt><trkpt lat="43.38663423297284" lon="11.805449696056602"><ele>246.0</ele><time>2026-05-02T12:54:26Z</time></trkpt><trkpt lat="43.38642592072571" lon="11.805503428100529"><ele>246.0</ele><time>2026-05-02T12:54:27Z</time></trkpt><trkpt lat="43.38621556108467" lon="11.805553550339019"><ele>245.33333333333331</ele><time>2026-05-02T12:54:28Z</time></trkpt><trkpt lat="43.38600262514745" lon="11.805599433065694"><ele>244.66666666666666</ele><time>2026-05-02T12:54:29Z</time></trkpt><trkpt lat="43.38579079746278" lon="11.805643775373243"><ele>244.0</ele><time>2026-05-02T12:54:30Z</time></trkpt><trkpt lat="43.38559134534423" lon="11.805687261390467"><ele>245.0</ele><time>2026-05-02T12:54:31Z</time></trkpt><trkpt lat="43.38539660411179" lon="11.805732664003928"><ele>246.0</ele><time>2026-05-02T12:54:32Z</time></trkpt><trkpt lat="43.38520349311165" lon="11.805773693231632"><ele>247.0</ele><time>2026-05-02T12:54:33Z</time></trkpt><trkpt lat="43.385002969813634" lon="11.805816838670495"><ele>247.0</ele><time>2026-05-02T12:54:34Z</time></trkpt><trkpt lat="43.38479522377675" lon="11.805860844988583"><ele>247.0</ele><time>2026-05-02T12:54:35Z</time></trkpt><trkpt lat="43.38457978264547" lon="11.805910130722182"><ele>247.0</ele><time>2026-05-02T12:54:36Z</time></trkpt><trkpt lat="43.38436006849602" lon="11.80596126963724"><ele>246.5</ele><time>2026-05-02T12:54:37Z</time></trkpt><trkpt lat="43.38413282325667" lon="11.806006205387913"><ele>246.0</ele><time>2026-05-02T12:54:38Z</time></trkpt><trkpt lat="43.38390037674611" lon="11.806057359614057"><ele>246.0</ele><time>2026-05-02T12:54:39Z</time></trkpt><trkpt lat="43.38366274259864" lon="11.806110984974785"><ele>246.0</ele><time>2026-05-02T12:54:40Z</time></trkpt><trkpt lat="43.38342218324101" lon="11.806165466109418"><ele>246.0</ele><time>2026-05-02T12:54:41Z</time></trkpt><trkpt lat="43.38318283416415" lon="11.806216630317682"><ele>246.0</ele><time>2026-05-02T12:54:42Z</time></trkpt><trkpt lat="43.382945854760585" lon="11.806259504282355"><ele>246.0</ele><time>2026-05-02T12:54:43Z</time></trkpt><trkpt lat="43.38270475917362" lon="11.80630557261646"><ele>246.0</ele><time>2026-05-02T12:54:44Z</time></trkpt><trkpt lat="43.382466738778" lon="11.806348825951048"><ele>246.0</ele><time>2026-05-02T12:54:45Z</time></trkpt><trkpt lat="43.38222888021172" lon="11.806393657886796"><ele>246.0</ele><time>2026-05-02T12:54:46Z</time></trkpt><trkpt lat="43.38199486094179" lon="11.806437228047017"><ele>246.5</ele><time>2026-05-02T12:54:47Z</time></trkpt><trkpt lat="43.38176462429136" lon="11.806480500447467"><ele>247.0</ele><time>2026-05-02T12:54:48Z</time></trkpt><trkpt lat="43.38154757378827" lon="11.806522665942431"><ele>247.0</ele><time>2026-05-02T12:54:49Z</time></trkpt><trkpt lat="43.38133922780986" lon="11.806562279274422"><ele>247.0</ele><time>2026-05-02T12:54:50Z</time></trkpt><trkpt lat="43.38114249418087" lon="11.806601709077706"><ele>247.0</ele><time>2026-05-02T12:54:51Z</time></trkpt><trkpt lat="43.38093669442877" lon="11.806640418723354"><ele>247.0</ele><time>2026-05-02T12:54:52Z</time></trkpt><trkpt lat="43.38071890931312" lon="11.806684201454553"><ele>247.0</ele><time>2026-05-02T12:54:53Z</time></trkpt><trkpt lat="43.3804999391345" lon="11.806731572622976"><ele>247.0</ele><time>2026-05-02T12:54:54Z</time></trkpt><trkpt lat="43.38028476985248" lon="11.806775500240132"><ele>247.33333333333331</ele><time>2026-05-02T12:54:55Z</time></trkpt><trkpt lat="43.38007305510035" lon="11.806823459261649"><ele>247.66666666666669</ele><time>2026-05-02T12:54:56Z</time></trkpt><trkpt lat="43.37986384653935" lon="11.806868330656092"><ele>248.0</ele><time>2026-05-02T12:54:57Z</time></trkpt><trkpt lat="43.379654679391926" lon="11.806911441170596"><ele>248.0</ele><time>2026-05-02T12:54:58Z</time></trkpt><trkpt lat="43.37944807401745" lon="11.806955013344206"><ele>248.0</ele><time>2026-05-02T12:54:59Z</time></trkpt><trkpt lat="43.37924312442224" lon="11.807000424737433"><ele>248.0</ele><time>2026-05-02T12:55:00Z</time></trkpt><trkpt lat="43.379037729133145" lon="11.807046278468762"><ele>248.0</ele><time>2026-05-02T12:55:01Z</time></trkpt><trkpt lat="43.37883144308074" lon="11.80709112887311"><ele>248.0</ele><time>2026-05-02T12:55:02Z</time></trkpt><trkpt lat="43.37862454190306" lon="11.807137246343233"><ele>248.0</ele><time>2026-05-02T12:55:03Z</time></trkpt><trkpt lat="43.37842014493291" lon="11.807180525162895"><ele>248.0</ele><time>2026-05-02T12:55:04Z</time></trkpt><trkpt lat="43.37823350576684" lon="11.807223056113251"><ele>248.0</ele><time>2026-05-02T12:55:05Z</time></trkpt><trkpt lat="43.378055150290145" lon="11.807263692615665"><ele>248.0</ele><time>2026-05-02T12:55:06Z</time></trkpt><trkpt lat="43.37788345326442" lon="11.807300872561719"><ele>247.66666666666669</ele><time>2026-05-02T12:55:07Z</time></trkpt><trkpt lat="43.37771533081903" lon="11.807334476023557"><ele>247.33333333333331</ele><time>2026-05-02T12:55:08Z</time></trkpt><trkpt lat="43.37754948555326" lon="11.807361789193287"><ele>247.0</ele><time>2026-05-02T12:55:09Z</time></trkpt><trkpt lat="43.3773871966334" lon="11.80739300925937"><ele>247.0</ele><time>2026-05-02T12:55:10Z</time></trkpt><trkpt lat="43.37722907937539" lon="11.80742430164467"><ele>247.0</ele><time>2026-05-02T12:55:11Z</time></trkpt><trkpt lat="43.377067749060814" lon="11.807449078114665"><ele>247.0</ele><time>2026-05-02T12:55:12Z</time></trkpt><trkpt lat="43.376909514651615" lon="11.807470568305364"><ele>247.25</ele><time>2026-05-02T12:55:13Z</time></trkpt><trkpt lat="43.376760371977596" lon="11.807491077988868"><ele>247.5</ele><time>2026-05-02T12:55:14Z</time></trkpt><trkpt lat="43.37662297969278" lon="11.807506825871371"><ele>247.75</ele><time>2026-05-02T12:55:15Z</time></trkpt><trkpt lat="43.37649250795412" lon="11.807520273647778"><ele>248.0</ele><time>2026-05-02T12:55:16Z</time></trkpt><trkpt lat="43.37636500761297" lon="11.807533516946298"><ele>248.0</ele><time>2026-05-02T12:55:17Z</time></trkpt><trkpt lat="43.376233176687066" lon="11.80754641440241"><ele>248.0</ele><time>2026-05-02T12:55:18Z</time></trkpt><trkpt lat="43.37610603707733" lon="11.80756017583939"><ele>248.0</ele><time>2026-05-02T12:55:19Z</time></trkpt><trkpt lat="43.37596672156669" lon="11.807578679216189"><ele>248.0</ele><time>2026-05-02T12:55:20Z</time></trkpt><trkpt lat="43.37581974431315" lon="11.807599394990056"><ele>248.0</ele><time>2026-05-02T12:55:21Z</time></trkpt><trkpt lat="43.375668525772866" lon="11.807625517701778"><ele>248.0</ele><time>2026-05-02T12:55:22Z</time></trkpt><trkpt lat="43.37551830142179" lon="11.8076595567373"><ele>248.0</ele><time>2026-05-02T12:55:23Z</time></trkpt><trkpt lat="43.37535842586735" lon="11.80770747120323"><ele>248.0</ele><time>2026-05-02T12:55:24Z</time></trkpt><trkpt lat="43.3752006215242" lon="11.807752021103967"><ele>248.0</ele><time>2026-05-02T12:55:25Z</time></trkpt><trkpt lat="43.375056279008156" lon="11.807792515774432"><ele>248.0</ele><time>2026-05-02T12:55:26Z</time></trkpt><trkpt lat="43.37491708863654" lon="11.807833280328397"><ele>248.0</ele><time>2026-05-02T12:55:27Z</time></trkpt><trkpt lat="43.37476979254522" lon="11.807869447040716"><ele>248.0</ele><time>2026-05-02T12:55:28Z</time></trkpt><trkpt lat="43.37462406367714" lon="11.807915466172668"><ele>248.0</ele><time>2026-05-02T12:55:29Z</time></trkpt><trkpt lat="43.3744874796415" lon="11.807958248283898"><ele>248.0</ele><time>2026-05-02T12:55:30Z</time></trkpt><trkpt lat="43.374353845144974" lon="11.807996728271048"><ele>248.25</ele><time>2026-05-02T12:55:31Z</time></trkpt><trkpt lat="43.37421689300902" lon="11.808034914809202"><ele>248.5</ele><time>2026-05-02T12:55:32Z</time></trkpt><trkpt lat="43.37407510495963" lon="11.808078029515011"><ele>248.75</ele><time>2026-05-02T12:55:33Z</time></trkpt><trkpt lat="43.37393077344345" lon="11.808118422089013"><ele>249.0</ele><time>2026-05-02T12:55:34Z</time></trkpt><trkpt lat="43.373782818481885" lon="11.808160853503164"><ele>249.33333333333331</ele><time>2026-05-02T12:55:35Z</time></trkpt><trkpt lat="43.37362385767659" lon="11.808209457054536"><ele>249.66666666666666</ele><time>2026-05-02T12:55:36Z</time></trkpt><trkpt lat="43.37346418239666" lon="11.80825217514524"><ele>250.0</ele><time>2026-05-02T12:55:37Z</time></trkpt><trkpt lat="43.37331090955881" lon="11.808292453882254"><ele>250.0</ele><time>2026-05-02T12:55:38Z</time></trkpt><trkpt lat="43.37315431370516" lon="11.808325200259423"><ele>250.0</ele><time>2026-05-02T12:55:39Z</time></trkpt><trkpt lat="43.373003848807414" lon="11.808334554286679"><ele>250.0</ele><time>2026-05-02T12:55:40Z</time></trkpt><trkpt lat="43.37285369776258" lon="11.808344350471913"><ele>249.75</ele><time>2026-05-02T12:55:41Z</time></trkpt><trkpt lat="43.372708930834804" lon="11.808351506559255"><ele>249.5</ele><time>2026-05-02T12:55:42Z</time></trkpt><trkpt lat="43.372564159089585" lon="11.808325043523887"><ele>249.25</ele><time>2026-05-02T12:55:43Z</time></trkpt><trkpt lat="43.372419967061454" lon="11.808331590014532"><ele>249.0</ele><time>2026-05-02T12:55:44Z</time></trkpt><trkpt lat="43.372273696035144" lon="11.80831209959841"><ele>248.75</ele><time>2026-05-02T12:55:45Z</time></trkpt><trkpt lat="43.37212680135355" lon="11.808287628108154"><ele>248.5</ele><time>2026-05-02T12:55:46Z</time></trkpt><trkpt lat="43.37197815673021" lon="11.808274696071507"><ele>248.25</ele><time>2026-05-02T12:55:47Z</time></trkpt><trkpt lat="43.3718282370714" lon="11.808255906713903"><ele>248.0</ele><time>2026-05-02T12:55:48Z</time></trkpt><trkpt lat="43.37167195805684" lon="11.808237246915207"><ele>248.0</ele><time>2026-05-02T12:55:49Z</time></trkpt><trkpt lat="43.37151705532221" lon="11.808216890095743"><ele>248.0</ele><time>2026-05-02T12:55:50Z</time></trkpt><trkpt lat="43.37136041938774" lon="11.808202273990162"><ele>248.0</ele><time>2026-05-02T12:55:51Z</time></trkpt><trkpt lat="43.371211233949865" lon="11.808183807098217"><ele>248.0</ele><time>2026-05-02T12:55:52Z</time></trkpt><trkpt lat="43.37106225559347" lon="11.808167220933296"><ele>248.0</ele><time>2026-05-02T12:55:53Z</time></trkpt><trkpt lat="43.37090955752788" lon="11.808150318314446"><ele>248.0</ele><time>2026-05-02T12:55:54Z</time></trkpt><trkpt lat="43.37076039378238" lon="11.808132883768044"><ele>248.0</ele><time>2026-05-02T12:55:55Z</time></trkpt><trkpt lat="43.37061736582022" lon="11.808116614531684"><ele>248.0</ele><time>2026-05-02T12:55:56Z</time></trkpt><trkpt lat="43.370486838773715" lon="11.808098762590063"><ele>248.0</ele><time>2026-05-02T12:55:57Z</time></trkpt><trkpt lat="43.37036045515871" lon="11.80808582586205"><ele>248.0</ele><time>2026-05-02T12:55:58Z</time></trkpt><trkpt lat="43.37023811922933" lon="11.808074793520856"><ele>247.75</ele><time>2026-05-02T12:55:59Z</time></trkpt><trkpt lat="43.37011385189105" lon="11.808063929488036"><ele>247.5</ele><time>2026-05-02T12:56:00Z</time></trkpt><trkpt lat="43.369992116838745" lon="11.808046909883775"><ele>247.25</ele><time>2026-05-02T12:56:01Z</time></trkpt><trkpt lat="43.369875888542005" lon="11.808034448370876"><ele>247.0</ele><time>2026-05-02T12:56:02Z</time></trkpt><trkpt lat="43.36975631371718" lon="11.808020263010029"><ele>247.5</ele><time>2026-05-02T12:56:03Z</time></trkpt><trkpt lat="43.36963673183257" lon="11.808005668799913"><ele>248.0</ele><time>2026-05-02T12:56:03.999Z</time></trkpt><trkpt lat="43.36951390450083" lon="11.807991289510795"><ele>248.5</ele><time>2026-05-02T12:56:04.999Z</time></trkpt><trkpt lat="43.36939433468844" lon="11.807977052631221"><ele>249.0</ele><time>2026-05-02T12:56:05.999Z</time></trkpt><trkpt lat="43.36927605008111" lon="11.80796501938396"><ele>249.0</ele><time>2026-05-02T12:56:06.999Z</time></trkpt><trkpt lat="43.36915541288859" lon="11.807955329862608"><ele>249.0</ele><time>2026-05-02T12:56:07.999Z</time></trkpt><trkpt lat="43.36902784495928" lon="11.807941764313645"><ele>249.0</ele><time>2026-05-02T12:56:08.999Z</time></trkpt><trkpt lat="43.36889489075074" lon="11.807926199596679"><ele>249.0</ele><time>2026-05-02T12:56:09.999Z</time></trkpt><trkpt lat="43.36875454106943" lon="11.807909561478752"><ele>249.0</ele><time>2026-05-02T12:56:10.999Z</time></trkpt><trkpt lat="43.36860492031167" lon="11.807890427090399"><ele>249.0</ele><time>2026-05-02T12:56:11.999Z</time></trkpt><trkpt lat="43.36845072026519" lon="11.80787401290387"><ele>249.0</ele><time>2026-05-02T12:56:12.999Z</time></trkpt><trkpt lat="43.36830136034815" lon="11.807858790340038"><ele>249.0</ele><time>2026-05-02T12:56:13.999Z</time></trkpt><trkpt lat="43.368162689148996" lon="11.80784183275829"><ele>249.0</ele><time>2026-05-02T12:56:14.999Z</time></trkpt><trkpt lat="43.368033171504514" lon="11.80782124311806"><ele>249.0</ele><time>2026-05-02T12:56:15.999Z</time></trkpt><trkpt lat="43.367907721961515" lon="11.807803710542158"><ele>249.0</ele><time>2026-05-02T12:56:16.999Z</time></trkpt><trkpt lat="43.367796347137926" lon="11.807780407761879"><ele>249.0</ele><time>2026-05-02T12:56:17.999Z</time></trkpt><trkpt lat="43.367684237480994" lon="11.807745225148805"><ele>249.0</ele><time>2026-05-02T12:56:18.999Z</time></trkpt><trkpt lat="43.36756992191291" lon="11.807699318742122"><ele>249.0</ele><time>2026-05-02T12:56:19.999Z</time></trkpt><trkpt lat="43.367454336755934" lon="11.807645504097685"><ele>249.0</ele><time>2026-05-02T12:56:20.999Z</time></trkpt><trkpt lat="43.367339672472376" lon="11.807592286667525"><ele>249.2</ele><time>2026-05-02T12:56:21.999Z</time></trkpt><trkpt lat="43.36724026599612" lon="11.807551442489878"><ele>249.39999999999998</ele><time>2026-05-02T12:56:22.999Z</time></trkpt><trkpt lat="43.36714831838031" lon="11.807527202582135"><ele>249.6</ele><time>2026-05-02T12:56:23.999Z</time></trkpt><trkpt lat="43.36706337381908" lon="11.807506427818725"><ele>249.8</ele><time>2026-05-02T12:56:24.999Z</time></trkpt><trkpt lat="43.366974380729346" lon="11.80748742810665"><ele>250.0</ele><time>2026-05-02T12:56:25.999Z</time></trkpt><trkpt lat="43.36687380149504" lon="11.807465743421703"><ele>250.0</ele><time>2026-05-02T12:56:26.999Z</time></trkpt><trkpt lat="43.36677176526116" lon="11.807442202357716"><ele>250.0</ele><time>2026-05-02T12:56:27.999Z</time></trkpt><trkpt lat="43.36666525245366" lon="11.807414306277177"><ele>250.0</ele><time>2026-05-02T12:56:28.999Z</time></trkpt><trkpt lat="43.36655475951676" lon="11.80738566857912"><ele>250.0</ele><time>2026-05-02T12:56:29.999Z</time></trkpt><trkpt lat="43.36643716385569" lon="11.807363087284266"><ele>250.0</ele><time>2026-05-02T12:56:31Z</time></trkpt><trkpt lat="43.36631604255828" lon="11.807354861336808"><ele>250.25</ele><time>2026-05-02T12:56:32Z</time></trkpt><trkpt lat="43.366195291554554" lon="11.807324006384903"><ele>250.5</ele><time>2026-05-02T12:56:33Z</time></trkpt><trkpt lat="43.36607087528697" lon="11.807301002151592"><ele>250.75</ele><time>2026-05-02T12:56:34Z</time></trkpt><trkpt lat="43.36594990193539" lon="11.80727317497541"><ele>251.0</ele><time>2026-05-02T12:56:35Z</time></trkpt><trkpt lat="43.36582715186041" lon="11.807249513837595"><ele>251.0</ele><time>2026-05-02T12:56:36Z</time></trkpt><trkpt lat="43.36569825023624" lon="11.807225845664659"><ele>251.0</ele><time>2026-05-02T12:56:37Z</time></trkpt><trkpt lat="43.365569690464206" lon="11.807194405479112"><ele>251.0</ele><time>2026-05-02T12:56:38Z</time></trkpt><trkpt lat="43.36543793325312" lon="11.807167011737754"><ele>251.0</ele><time>2026-05-02T12:56:39Z</time></trkpt><trkpt lat="43.3653026283324" lon="11.807136586761311"><ele>251.0</ele><time>2026-05-02T12:56:40Z</time></trkpt><trkpt lat="43.365166412077926" lon="11.807109623841509"><ele>251.0</ele><time>2026-05-02T12:56:41Z</time></trkpt><trkpt lat="43.36503274431384" lon="11.8070843541146"><ele>251.0</ele><time>2026-05-02T12:56:42Z</time></trkpt><trkpt lat="43.36490205123131" lon="11.807066835024225"><ele>251.0</ele><time>2026-05-02T12:56:43Z</time></trkpt><trkpt lat="43.364765590044655" lon="11.807052210307788"><ele>251.0</ele><time>2026-05-02T12:56:44Z</time></trkpt><trkpt lat="43.364636565333875" lon="11.807038158805849"><ele>251.0</ele><time>2026-05-02T12:56:45Z</time></trkpt><trkpt lat="43.364515856875514" lon="11.807034377850178"><ele>251.0</ele><time>2026-05-02T12:56:46Z</time></trkpt><trkpt lat="43.36440318311898" lon="11.807035092595704"><ele>251.0</ele><time>2026-05-02T12:56:47Z</time></trkpt><trkpt lat="43.36429457432937" lon="11.807039930820316"><ele>251.0</ele><time>2026-05-02T12:56:48Z</time></trkpt><trkpt lat="43.36418363778141" lon="11.80704451555685"><ele>251.0</ele><time>2026-05-02T12:56:49Z</time></trkpt><trkpt lat="43.36406968231488" lon="11.807056394493056"><ele>251.0</ele><time>2026-05-02T12:56:50Z</time></trkpt><trkpt lat="43.36395650754352" lon="11.80707114677124"><ele>251.0</ele><time>2026-05-02T12:56:51Z</time></trkpt><trkpt lat="43.36383740469122" lon="11.807087043623486"><ele>250.5</ele><time>2026-05-02T12:56:52Z</time></trkpt><trkpt lat="43.36371818034204" lon="11.807107372017532"><ele>250.0</ele><time>2026-05-02T12:56:53Z</time></trkpt><trkpt lat="43.36359741959021" lon="11.807125543146924"><ele>249.5</ele><time>2026-05-02T12:56:54Z</time></trkpt><trkpt lat="43.36347418946178" lon="11.807144611571916"><ele>249.0</ele><time>2026-05-02T12:56:55Z</time></trkpt><trkpt lat="43.36335175186071" lon="11.807166391454146"><ele>249.0</ele><time>2026-05-02T12:56:56Z</time></trkpt><trkpt lat="43.363226072275104" lon="11.8071791244213"><ele>249.0</ele><time>2026-05-02T12:56:57Z</time></trkpt><trkpt lat="43.363102276540324" lon="11.807194523900367"><ele>249.0</ele><time>2026-05-02T12:56:58Z</time></trkpt><trkpt lat="43.36298778593435" lon="11.80721367422006"><ele>249.0</ele><time>2026-05-02T12:56:59Z</time></trkpt><trkpt lat="43.36288143287991" lon="11.807227391001675"><ele>248.75</ele><time>2026-05-02T12:57:00Z</time></trkpt><trkpt lat="43.36276945647416" lon="11.807240833207029"><ele>248.5</ele><time>2026-05-02T12:57:01Z</time></trkpt><trkpt lat="43.362655214153804" lon="11.807255366031255"><ele>248.25</ele><time>2026-05-02T12:57:02Z</time></trkpt><trkpt lat="43.36253522513352" lon="11.807273435180804"><ele>248.0</ele><time>2026-05-02T12:57:03Z</time></trkpt><trkpt lat="43.36241253607137" lon="11.807294322484912"><ele>248.0</ele><time>2026-05-02T12:57:04Z</time></trkpt><trkpt lat="43.362288061350355" lon="11.807316746684863"><ele>248.0</ele><time>2026-05-02T12:57:05Z</time></trkpt><trkpt lat="43.3621633782004" lon="11.807332784021156"><ele>248.0</ele><time>2026-05-02T12:57:06Z</time></trkpt><trkpt lat="43.36203536954364" lon="11.807354925860482"><ele>248.0</ele><time>2026-05-02T12:57:07Z</time></trkpt><trkpt lat="43.36190869094188" lon="11.807372669814061"><ele>248.5</ele><time>2026-05-02T12:57:08Z</time></trkpt><trkpt lat="43.36178062390143" lon="11.80739172246526"><ele>249.0</ele><time>2026-05-02T12:57:09Z</time></trkpt><trkpt lat="43.3616505428262" lon="11.807409546788325"><ele>249.5</ele><time>2026-05-02T12:57:10Z</time></trkpt><trkpt lat="43.36152174484147" lon="11.807425477243662"><ele>250.0</ele><time>2026-05-02T12:57:11Z</time></trkpt><trkpt lat="43.36139303631862" lon="11.807441983819036"><ele>249.25</ele><time>2026-05-02T12:57:12Z</time></trkpt><trkpt lat="43.36127392064861" lon="11.807458941370463"><ele>248.5</ele><time>2026-05-02T12:57:13Z</time></trkpt><trkpt lat="43.361160984469116" lon="11.807474464293096"><ele>247.75</ele><time>2026-05-02T12:57:14Z</time></trkpt><trkpt lat="43.36104851276269" lon="11.807489592537618"><ele>247.0</ele><time>2026-05-02T12:57:15Z</time></trkpt><trkpt lat="43.360929827575596" lon="11.807506554374923"><ele>247.0</ele><time>2026-05-02T12:57:16Z</time></trkpt><trkpt lat="43.36080465161815" lon="11.807522974645357"><ele>247.0</ele><time>2026-05-02T12:57:17Z</time></trkpt><trkpt lat="43.360673631477134" lon="11.807541254144422"><ele>247.0</ele><time>2026-05-02T12:57:18Z</time></trkpt><trkpt lat="43.36053713125887" lon="11.807562378852932"><ele>247.0</ele><time>2026-05-02T12:57:19Z</time></trkpt><trkpt lat="43.360408433454815" lon="11.807583011564306"><ele>247.5</ele><time>2026-05-02T12:57:20Z</time></trkpt><trkpt lat="43.360282245076164" lon="11.807604419657851"><ele>248.0</ele><time>2026-05-02T12:57:21Z</time></trkpt><trkpt lat="43.36015390871757" lon="11.807620779852751"><ele>248.5</ele><time>2026-05-02T12:57:22Z</time></trkpt><trkpt lat="43.36002516814026" lon="11.807638001509895"><ele>249.0</ele><time>2026-05-02T12:57:23Z</time></trkpt><trkpt lat="43.35990016405696" lon="11.807656899799635"><ele>248.79999999999998</ele><time>2026-05-02T12:57:24Z</time></trkpt><trkpt lat="43.35978455879431" lon="11.80767552026997"><ele>248.59999999999997</ele><time>2026-05-02T12:57:25Z</time></trkpt><trkpt lat="43.3596759519105" lon="11.807692137493033"><ele>248.4</ele><time>2026-05-02T12:57:26Z</time></trkpt><trkpt lat="43.35957424048313" lon="11.807701942390636"><ele>248.2</ele><time>2026-05-02T12:57:27Z</time></trkpt><trkpt lat="43.3594693305242" lon="11.807716877408106"><ele>248.0</ele><time>2026-05-02T12:57:28Z</time></trkpt><trkpt lat="43.35935693611228" lon="11.807731996892908"><ele>248.0</ele><time>2026-05-02T12:57:29Z</time></trkpt><trkpt lat="43.35924116637616" lon="11.807754688535333"><ele>248.0</ele><time>2026-05-02T12:57:30Z</time></trkpt><trkpt lat="43.3591198626792" lon="11.807787551863616"><ele>248.0</ele><time>2026-05-02T12:57:31Z</time></trkpt><trkpt lat="43.35900455056005" lon="11.80782412199744"><ele>248.0</ele><time>2026-05-02T12:57:32Z</time></trkpt><trkpt lat="43.358894275664724" lon="11.807866455781731"><ele>248.5</ele><time>2026-05-02T12:57:33Z</time></trkpt><trkpt lat="43.358782265483875" lon="11.807915169459509"><ele>249.0</ele><time>2026-05-02T12:57:34Z</time></trkpt><trkpt lat="43.35866925407433" lon="11.807968986800375"><ele>249.5</ele><time>2026-05-02T12:57:35Z</time></trkpt><trkpt lat="43.358552645743984" lon="11.808022096483995"><ele>250.0</ele><time>2026-05-02T12:57:36Z</time></trkpt><trkpt lat="43.35842993177925" lon="11.808078188743764"><ele>250.0</ele><time>2026-05-02T12:57:37Z</time></trkpt><trkpt lat="43.358309367119084" lon="11.808132092961719"><ele>250.0</ele><time>2026-05-02T12:57:38Z</time></trkpt><trkpt lat="43.358185555763555" lon="11.808183023268993"><ele>250.0</ele><time>2026-05-02T12:57:39Z</time></trkpt><trkpt lat="43.35806271835563" lon="11.808237569695425"><ele>250.0</ele><time>2026-05-02T12:57:40Z</time></trkpt><trkpt lat="43.357935569145376" lon="11.80829540692799"><ele>250.0</ele><time>2026-05-02T12:57:41Z</time></trkpt><trkpt lat="43.35780927756672" lon="11.808355892668517"><ele>250.0</ele><time>2026-05-02T12:57:42Z</time></trkpt><trkpt lat="43.35768735531689" lon="11.808413745687814"><ele>250.0</ele><time>2026-05-02T12:57:43Z</time></trkpt><trkpt lat="43.35756585451602" lon="11.80847371360994"><ele>250.0</ele><time>2026-05-02T12:57:44Z</time></trkpt><trkpt lat="43.357450363428576" lon="11.808538388426438"><ele>250.0</ele><time>2026-05-02T12:57:45Z</time></trkpt><trkpt lat="43.35733330885132" lon="11.808602300007642"><ele>250.0</ele><time>2026-05-02T12:57:46Z</time></trkpt><trkpt lat="43.357219604251455" lon="11.808668340869175"><ele>250.0</ele><time>2026-05-02T12:57:47Z</time></trkpt><trkpt lat="43.357107138862865" lon="11.808744421083784"><ele>250.0</ele><time>2026-05-02T12:57:48Z</time></trkpt><trkpt lat="43.35698893012234" lon="11.808820010813761"><ele>250.0</ele><time>2026-05-02T12:57:49Z</time></trkpt><trkpt lat="43.35686803208329" lon="11.808896824170336"><ele>250.0</ele><time>2026-05-02T12:57:50Z</time></trkpt><trkpt lat="43.35675589574981" lon="11.808969921698877"><ele>250.0</ele><time>2026-05-02T12:57:51Z</time></trkpt><trkpt lat="43.356650561609" lon="11.809039434682349"><ele>250.0</ele><time>2026-05-02T12:57:52Z</time></trkpt><trkpt lat="43.356553341488805" lon="11.809106837948118"><ele>250.0</ele><time>2026-05-02T12:57:53Z</time></trkpt><trkpt lat="43.356461014076416" lon="11.809167738888322"><ele>250.0</ele><time>2026-05-02T12:57:54Z</time></trkpt><trkpt lat="43.35637526474408" lon="11.809220481142713"><ele>250.0</ele><time>2026-05-02T12:57:55Z</time></trkpt><trkpt lat="43.35628644561735" lon="11.809277210329052"><ele>250.0</ele><time>2026-05-02T12:57:56Z</time></trkpt><trkpt lat="43.35619419372547" lon="11.80934036182247"><ele>250.0</ele><time>2026-05-02T12:57:57Z</time></trkpt><trkpt lat="43.3560966399853" lon="11.809401907276312"><ele>249.75</ele><time>2026-05-02T12:57:58Z</time></trkpt><trkpt lat="43.355993128606485" lon="11.809472619841985"><ele>249.5</ele><time>2026-05-02T12:57:59Z</time></trkpt><trkpt lat="43.355879587093" lon="11.809542185833793"><ele>249.25</ele><time>2026-05-02T12:58:00Z</time></trkpt><trkpt lat="43.355764982045216" lon="11.809615914085871"><ele>249.0</ele><time>2026-05-02T12:58:01Z</time></trkpt><trkpt lat="43.355651037695274" lon="11.809682693555189"><ele>249.75</ele><time>2026-05-02T12:58:02Z</time></trkpt><trkpt lat="43.35553152987651" lon="11.809758669898246"><ele>250.5</ele><time>2026-05-02T12:58:03Z</time></trkpt><trkpt lat="43.355425469480345" lon="11.809826039025026"><ele>251.25</ele><time>2026-05-02T12:58:04Z</time></trkpt><trkpt lat="43.355321520334925" lon="11.809884238768158"><ele>252.0</ele><time>2026-05-02T12:58:05Z</time></trkpt><trkpt lat="43.355209595358225" lon="11.809940618617349"><ele>252.0</ele><time>2026-05-02T12:58:06Z</time></trkpt><trkpt lat="43.355091670697924" lon="11.810001874505193"><ele>252.0</ele><time>2026-05-02T12:58:07Z</time></trkpt><trkpt lat="43.35496706547838" lon="11.810055689901784"><ele>252.0</ele><time>2026-05-02T12:58:08Z</time></trkpt><trkpt lat="43.354832778863745" lon="11.810101308170022"><ele>252.0</ele><time>2026-05-02T12:58:09Z</time></trkpt><trkpt lat="43.35469166044752" lon="11.810141357933249"><ele>251.5</ele><time>2026-05-02T12:58:09.999Z</time></trkpt><trkpt lat="43.354546865884195" lon="11.81017602942228"><ele>251.0</ele><time>2026-05-02T12:58:10.999Z</time></trkpt><trkpt lat="43.35439898478758" lon="11.810208410452239"><ele>250.5</ele><time>2026-05-02T12:58:11.999Z</time></trkpt><trkpt lat="43.35425010890592" lon="11.810245078672352"><ele>250.0</ele><time>2026-05-02T12:58:12.999Z</time></trkpt><trkpt lat="43.35410852231064" lon="11.810277878398743"><ele>250.0</ele><time>2026-05-02T12:58:13.999Z</time></trkpt><trkpt lat="43.35396676304704" lon="11.810309478480955"><ele>250.0</ele><time>2026-05-02T12:58:14.999Z</time></trkpt><trkpt lat="43.35381976308615" lon="11.81034324116616"><ele>250.0</ele><time>2026-05-02T12:58:15.999Z</time></trkpt><trkpt lat="43.353668042889645" lon="11.810374378592993"><ele>250.0</ele><time>2026-05-02T12:58:16.999Z</time></trkpt><trkpt lat="43.35351977206861" lon="11.810404851936974"><ele>249.5</ele><time>2026-05-02T12:58:17.999Z</time></trkpt><trkpt lat="43.35337743764917" lon="11.810437631849755"><ele>249.0</ele><time>2026-05-02T12:58:18.999Z</time></trkpt><trkpt lat="43.353240290955405" lon="11.810468382385018"><ele>248.5</ele><time>2026-05-02T12:58:19.999Z</time></trkpt><trkpt lat="43.35310175277651" lon="11.81049835404156"><ele>248.0</ele><time>2026-05-02T12:58:20.999Z</time></trkpt><trkpt lat="43.35296404252324" lon="11.810531847363285"><ele>247.75</ele><time>2026-05-02T12:58:21.999Z</time></trkpt><trkpt lat="43.35281831217774" lon="11.810567530517593"><ele>247.5</ele><time>2026-05-02T12:58:22.999Z</time></trkpt><trkpt lat="43.35267052415962" lon="11.810601089453987"><ele>247.25</ele><time>2026-05-02T12:58:23.999Z</time></trkpt><trkpt lat="43.352524374441195" lon="11.810633887665723"><ele>247.0</ele><time>2026-05-02T12:58:24.999Z</time></trkpt><trkpt lat="43.352381908868054" lon="11.810665194204502"><ele>247.0</ele><time>2026-05-02T12:58:25.999Z</time></trkpt><trkpt lat="43.35224854599321" lon="11.810694578585037"><ele>247.0</ele><time>2026-05-02T12:58:26.999Z</time></trkpt><trkpt lat="43.35211743720102" lon="11.810724318521954"><ele>247.0</ele><time>2026-05-02T12:58:27.999Z</time></trkpt><trkpt lat="43.35198583018833" lon="11.810752489653199"><ele>247.0</ele><time>2026-05-02T12:58:28.999Z</time></trkpt><trkpt lat="43.351849307314545" lon="11.810783443046239"><ele>247.75</ele><time>2026-05-02T12:58:29.999Z</time></trkpt><trkpt lat="43.351710346171195" lon="11.81081568776304"><ele>248.5</ele><time>2026-05-02T12:58:30.999Z</time></trkpt><trkpt lat="43.351575336611866" lon="11.81084405569983"><ele>249.25</ele><time>2026-05-02T12:58:32Z</time></trkpt><trkpt lat="43.351451417964164" lon="11.81087191624533"><ele>250.0</ele><time>2026-05-02T12:58:33Z</time></trkpt><trkpt lat="43.35132955476153" lon="11.810901611374433"><ele>250.0</ele><time>2026-05-02T12:58:34Z</time></trkpt><trkpt lat="43.351205648436355" lon="11.810926908294109"><ele>250.0</ele><time>2026-05-02T12:58:35Z</time></trkpt><trkpt lat="43.35109221844844" lon="11.810952632380847"><ele>250.0</ele><time>2026-05-02T12:58:36Z</time></trkpt><trkpt lat="43.35099186330381" lon="11.810974823814606"><ele>250.0</ele><time>2026-05-02T12:58:37Z</time></trkpt><trkpt lat="43.35091050555034" lon="11.81099330401439"><ele>250.0</ele><time>2026-05-02T12:58:38Z</time></trkpt><trkpt lat="43.350838122267376" lon="11.81100643366739"><ele>250.0</ele><time>2026-05-02T12:58:39Z</time></trkpt><trkpt lat="43.3507579805717" lon="11.811021938846395"><ele>250.0</ele><time>2026-05-02T12:58:40Z</time></trkpt><trkpt lat="43.350656168628156" lon="11.8110452245922"><ele>250.0</ele><time>2026-05-02T12:58:41Z</time></trkpt><trkpt lat="43.350536747689716" lon="11.811074697669662"><ele>250.0</ele><time>2026-05-02T12:58:42Z</time></trkpt><trkpt lat="43.350398380000286" lon="11.811096298870194"><ele>250.0</ele><time>2026-05-02T12:58:43Z</time></trkpt><trkpt lat="43.35024360513765" lon="11.811109992798935"><ele>250.33333333333331</ele><time>2026-05-02T12:58:44Z</time></trkpt><trkpt lat="43.35007996955843" lon="11.81113591761752"><ele>250.66666666666669</ele><time>2026-05-02T12:58:45Z</time></trkpt><trkpt lat="43.34991206294694" lon="11.811133959438887"><ele>251.0</ele><time>2026-05-02T12:58:46Z</time></trkpt><trkpt lat="43.34974118383122" lon="11.811131399794599"><ele>251.33333333333334</ele><time>2026-05-02T12:58:47Z</time></trkpt><trkpt lat="43.34957665511622" lon="11.811143840443647"><ele>251.66666666666669</ele><time>2026-05-02T12:58:48Z</time></trkpt><trkpt lat="43.34939436206964" lon="11.811153046983687"><ele>252.0</ele><time>2026-05-02T12:58:49Z</time></trkpt><trkpt lat="43.34921360658755" lon="11.81116658781108"><ele>252.0</ele><time>2026-05-02T12:58:50Z</time></trkpt><trkpt lat="43.34904170370597" lon="11.811184283145602"><ele>252.0</ele><time>2026-05-02T12:58:51Z</time></trkpt><trkpt lat="43.34887045748546" lon="11.811210480516587"><ele>252.0</ele><time>2026-05-02T12:58:52Z</time></trkpt><trkpt lat="43.34869778416762" lon="11.811232046516077"><ele>252.0</ele><time>2026-05-02T12:58:53Z</time></trkpt><trkpt lat="43.348528950498014" lon="11.811252479314218"><ele>252.0</ele><time>2026-05-02T12:58:54Z</time></trkpt><trkpt lat="43.34835566089668" lon="11.81127135364363"><ele>252.0</ele><time>2026-05-02T12:58:55Z</time></trkpt><trkpt lat="43.34818277184352" lon="11.811289172373503"><ele>251.33333333333331</ele><time>2026-05-02T12:58:56Z</time></trkpt><trkpt lat="43.348020333942486" lon="11.81130579319859"><ele>250.66666666666666</ele><time>2026-05-02T12:58:57Z</time></trkpt><trkpt lat="43.3478616561882" lon="11.811319433999898"><ele>250.0</ele><time>2026-05-02T12:58:58Z</time></trkpt><trkpt lat="43.3476983671773" lon="11.811338277531398"><ele>250.0</ele><time>2026-05-02T12:58:59Z</time></trkpt><trkpt lat="43.347538177442296" lon="11.81135653066321"><ele>250.0</ele><time>2026-05-02T12:59:00Z</time></trkpt><trkpt lat="43.34737884691757" lon="11.811370976744861"><ele>250.0</ele><time>2026-05-02T12:59:01Z</time></trkpt><trkpt lat="43.34721052475888" lon="11.811392580231054"><ele>250.33333333333331</ele><time>2026-05-02T12:59:02Z</time></trkpt><trkpt lat="43.34704103994789" lon="11.81141666436166"><ele>250.66666666666669</ele><time>2026-05-02T12:59:03Z</time></trkpt><trkpt lat="43.346870249981166" lon="11.811436837030703"><ele>251.0</ele><time>2026-05-02T12:59:04Z</time></trkpt><trkpt lat="43.346694388049755" lon="11.811454821494143"><ele>251.0</ele><time>2026-05-02T12:59:05Z</time></trkpt><trkpt lat="43.3465193990413" lon="11.811474649445081"><ele>251.0</ele><time>2026-05-02T12:59:06Z</time></trkpt><trkpt lat="43.34635191081943" lon="11.811492512443087"><ele>251.0</ele><time>2026-05-02T12:59:07Z</time></trkpt><trkpt lat="43.34618228002806" lon="11.811508961014002"><ele>250.33333333333334</ele><time>2026-05-02T12:59:08Z</time></trkpt><trkpt lat="43.34601184333087" lon="11.811518553242243"><ele>249.66666666666669</ele><time>2026-05-02T12:59:09Z</time></trkpt><trkpt lat="43.34585443742762" lon="11.811506973167024"><ele>249.0</ele><time>2026-05-02T12:59:10Z</time></trkpt><trkpt lat="43.34570493707303" lon="11.811490108371475"><ele>249.0</ele><time>2026-05-02T12:59:11Z</time></trkpt><trkpt lat="43.34555928643237" lon="11.811457850826821"><ele>249.0</ele><time>2026-05-02T12:59:12Z</time></trkpt><trkpt lat="43.345415135939085" lon="11.81141475607448"><ele>249.0</ele><time>2026-05-02T12:59:13Z</time></trkpt><trkpt lat="43.34527172952274" lon="11.811365287307728"><ele>249.0</ele><time>2026-05-02T12:59:14Z</time></trkpt><trkpt lat="43.34512294063777" lon="11.811316995039888"><ele>249.0</ele><time>2026-05-02T12:59:15Z</time></trkpt><trkpt lat="43.344975546996594" lon="11.811266358421161"><ele>249.0</ele><time>2026-05-02T12:59:16Z</time></trkpt><trkpt lat="43.34482976469592" lon="11.811212467367117"><ele>249.0</ele><time>2026-05-02T12:59:17Z</time></trkpt><trkpt lat="43.34469114588547" lon="11.811165034804686"><ele>249.0</ele><time>2026-05-02T12:59:18Z</time></trkpt><trkpt lat="43.34455676186231" lon="11.811124780503665"><ele>248.75</ele><time>2026-05-02T12:59:19Z</time></trkpt><trkpt lat="43.34442373786774" lon="11.81108141885524"><ele>248.5</ele><time>2026-05-02T12:59:20Z</time></trkpt><trkpt lat="43.34429019682028" lon="11.81103596637247"><ele>248.25</ele><time>2026-05-02T12:59:21Z</time></trkpt><trkpt lat="43.34415616755147" lon="11.810991675325152"><ele>248.0</ele><time>2026-05-02T12:59:22Z</time></trkpt><trkpt lat="43.34402312135571" lon="11.810946531425412"><ele>248.0</ele><time>2026-05-02T12:59:23Z</time></trkpt><trkpt lat="43.34388865384774" lon="11.81090048850534"><ele>248.0</ele><time>2026-05-02T12:59:24Z</time></trkpt><trkpt lat="43.343754882759455" lon="11.810854545560248"><ele>248.0</ele><time>2026-05-02T12:59:25Z</time></trkpt><trkpt lat="43.34362056389552" lon="11.810812314599286"><ele>248.0</ele><time>2026-05-02T12:59:26Z</time></trkpt><trkpt lat="43.343487730213035" lon="11.810769463118165"><ele>248.0</ele><time>2026-05-02T12:59:27Z</time></trkpt><trkpt lat="43.34335168272756" lon="11.810726167880894"><ele>248.0</ele><time>2026-05-02T12:59:28Z</time></trkpt><trkpt lat="43.34320713132202" lon="11.810676120028972"><ele>248.0</ele><time>2026-05-02T12:59:29Z</time></trkpt><trkpt lat="43.34306135906997" lon="11.810626442985413"><ele>248.0</ele><time>2026-05-02T12:59:30Z</time></trkpt><trkpt lat="43.34291341345239" lon="11.810577482013734"><ele>248.0</ele><time>2026-05-02T12:59:31Z</time></trkpt><trkpt lat="43.34276727865487" lon="11.810532263428348"><ele>248.0</ele><time>2026-05-02T12:59:32Z</time></trkpt><trkpt lat="43.34262199265956" lon="11.810478616238028"><ele>248.0</ele><time>2026-05-02T12:59:33Z</time></trkpt><trkpt lat="43.34247554328505" lon="11.810429499472733"><ele>248.0</ele><time>2026-05-02T12:59:34Z</time></trkpt><trkpt lat="43.34233098435381" lon="11.810383594524907"><ele>248.0</ele><time>2026-05-02T12:59:35Z</time></trkpt><trkpt lat="43.34218795058319" lon="11.810347958000616"><ele>248.0</ele><time>2026-05-02T12:59:36Z</time></trkpt><trkpt lat="43.34204083507371" lon="11.810323840493044"><ele>248.0</ele><time>2026-05-02T12:59:37Z</time></trkpt><trkpt lat="43.341892036196" lon="11.810315157662858"><ele>247.75</ele><time>2026-05-02T12:59:38Z</time></trkpt><trkpt lat="43.34174972687533" lon="11.810317793767462"><ele>247.5</ele><time>2026-05-02T12:59:39Z</time></trkpt><trkpt lat="43.341613491507964" lon="11.810324830842141"><ele>247.25</ele><time>2026-05-02T12:59:40Z</time></trkpt><trkpt lat="43.341476006954856" lon="11.810332929249165"><ele>247.0</ele><time>2026-05-02T12:59:41Z</time></trkpt><trkpt lat="43.3413451424526" lon="11.810338927543766"><ele>247.0</ele><time>2026-05-02T12:59:42Z</time></trkpt><trkpt lat="43.341210802033224" lon="11.810349519517601"><ele>247.0</ele><time>2026-05-02T12:59:43Z</time></trkpt><trkpt lat="43.34107706389467" lon="11.810357224249726"><ele>247.0</ele><time>2026-05-02T12:59:44Z</time></trkpt><trkpt lat="43.340950517555704" lon="11.810361685278853"><ele>247.0</ele><time>2026-05-02T12:59:45Z</time></trkpt><trkpt lat="43.340833621668914" lon="11.810368928919031"><ele>247.0</ele><time>2026-05-02T12:59:46Z</time></trkpt><trkpt lat="43.34072390597061" lon="11.810373392134021"><ele>247.0</ele><time>2026-05-02T12:59:47Z</time></trkpt><trkpt lat="43.34061905396969" lon="11.810378788821675"><ele>247.0</ele><time>2026-05-02T12:59:48Z</time></trkpt><trkpt lat="43.34052377734655" lon="11.810383687360728"><ele>247.0</ele><time>2026-05-02T12:59:49Z</time></trkpt><trkpt lat="43.34042896779341" lon="11.810392714225156"><ele>247.0</ele><time>2026-05-02T12:59:50Z</time></trkpt><trkpt lat="43.34032767816216" lon="11.810402273401783"><ele>247.0</ele><time>2026-05-02T12:59:51Z</time></trkpt><trkpt lat="43.340219244347956" lon="11.810412045989334"><ele>247.0</ele><time>2026-05-02T12:59:52Z</time></trkpt><trkpt lat="43.34009713849396" lon="11.810423586648792"><ele>247.0</ele><time>2026-05-02T12:59:53Z</time></trkpt><trkpt lat="43.33997725266266" lon="11.810432060123981"><ele>247.0</ele><time>2026-05-02T12:59:54Z</time></trkpt><trkpt lat="43.33986834784808" lon="11.81043483036617"><ele>247.0</ele><time>2026-05-02T12:59:55Z</time></trkpt><trkpt lat="43.33975940506769" lon="11.810440569520958"><ele>247.0</ele><time>2026-05-02T12:59:56Z</time></trkpt><trkpt lat="43.33964701539807" lon="11.810450115379538"><ele>247.0</ele><time>2026-05-02T12:59:57Z</time></trkpt><trkpt lat="43.33954569054988" lon="11.810456275531045"><ele>247.0</ele><time>2026-05-02T12:59:58Z</time></trkpt><trkpt lat="43.33947802156601" lon="11.81046122364852"><ele>247.0</ele><time>2026-05-02T12:59:59Z</time></trkpt><trkpt lat="43.3394026474993" lon="11.810468799613362"><ele>247.0</ele><time>2026-05-02T13:00:01Z</time></trkpt><trkpt lat="43.3393271070101" lon="11.810475443058715"><ele>247.0</ele><time>2026-05-02T13:00:04Z</time></trkpt><trkpt lat="43.339257931476666" lon="11.810474458472966"><ele>247.0</ele><time>2026-05-02T13:00:19.999Z</time></trkpt><trkpt lat="43.33914159553774" lon="11.810483213811066"><ele>247.0</ele><time>2026-05-02T13:00:21.999Z</time></trkpt><trkpt lat="43.339018148394885" lon="11.8104905119881"><ele>247.0</ele><time>2026-05-02T13:00:23.999Z</time></trkpt><trkpt lat="43.338948340246056" lon="11.81049374044457"><ele>246.99999999999997</ele><time>2026-05-02T13:00:24.999Z</time></trkpt><trkpt lat="43.338871902118484" lon="11.810500422630346"><ele>247.0</ele><time>2026-05-02T13:00:25.999Z</time></trkpt><trkpt lat="43.33879853476944" lon="11.810506523856102"><ele>247.0</ele><time>2026-05-02T13:00:26.999Z</time></trkpt><trkpt lat="43.33871720602522" lon="11.810512390709594"><ele>247.0</ele><time>2026-05-02T13:00:27.999Z</time></trkpt><trkpt lat="43.33863274408959" lon="11.810517633907907"><ele>246.99999999999997</ele><time>2026-05-02T13:00:28.999Z</time></trkpt><trkpt lat="43.338554229963655" lon="11.81052097748697"><ele>247.0</ele><time>2026-05-02T13:00:29.999Z</time></trkpt><trkpt lat="43.33847774060681" lon="11.81052631574324"><ele>247.0</ele><time>2026-05-02T13:00:30.999Z</time></trkpt><trkpt lat="43.338398052029376" lon="11.810532548696107"><ele>247.0</ele><time>2026-05-02T13:00:31.999Z</time></trkpt><trkpt lat="43.33831973372027" lon="11.81053700925144"><ele>247.0</ele><time>2026-05-02T13:00:32.999Z</time></trkpt><trkpt lat="43.33823126347784" lon="11.810539565030032"><ele>247.0</ele><time>2026-05-02T13:00:33.999Z</time></trkpt><trkpt lat="43.338131694168986" lon="11.81054571327163"><ele>247.0</ele><time>2026-05-02T13:00:34.999Z</time></trkpt><trkpt lat="43.33802043127677" lon="11.810554027525994"><ele>246.75</ele><time>2026-05-02T13:00:35.999Z</time></trkpt><trkpt lat="43.33790551015658" lon="11.810560187892872"><ele>246.5</ele><time>2026-05-02T13:00:36.999Z</time></trkpt><trkpt lat="43.33779336092835" lon="11.810567859987351"><ele>246.25</ele><time>2026-05-02T13:00:38Z</time></trkpt><trkpt lat="43.337681086027665" lon="11.810575684174857"><ele>246.0</ele><time>2026-05-02T13:00:39Z</time></trkpt><trkpt lat="43.33756832603651" lon="11.81058262610702"><ele>246.0</ele><time>2026-05-02T13:00:40Z</time></trkpt><trkpt lat="43.33744642586452" lon="11.810592378118594"><ele>246.0</ele><time>2026-05-02T13:00:41Z</time></trkpt><trkpt lat="43.337318141035645" lon="11.810598561759145"><ele>246.0</ele><time>2026-05-02T13:00:42Z</time></trkpt><trkpt lat="43.33719232324571" lon="11.810608452904432"><ele>246.0</ele><time>2026-05-02T13:00:43Z</time></trkpt><trkpt lat="43.33706344721235" lon="11.810617813010898"><ele>246.25</ele><time>2026-05-02T13:00:44Z</time></trkpt><trkpt lat="43.33693621195719" lon="11.81062786146805"><ele>246.5</ele><time>2026-05-02T13:00:45Z</time></trkpt><trkpt lat="43.336808417672714" lon="11.810636295635632"><ele>246.75</ele><time>2026-05-02T13:00:46Z</time></trkpt><trkpt lat="43.33667946613328" lon="11.810645805601895"><ele>247.0</ele><time>2026-05-02T13:00:47Z</time></trkpt><trkpt lat="43.33655422044824" lon="11.81065285218795"><ele>247.0</ele><time>2026-05-02T13:00:48Z</time></trkpt><trkpt lat="43.33643562024915" lon="11.810660020040682"><ele>247.0</ele><time>2026-05-02T13:00:49Z</time></trkpt><trkpt lat="43.33631943923559" lon="11.810664275867518"><ele>247.0</ele><time>2026-05-02T13:00:50Z</time></trkpt><trkpt lat="43.33620807974226" lon="11.810672892227851"><ele>247.0</ele><time>2026-05-02T13:00:51Z</time></trkpt><trkpt lat="43.33607451247151" lon="11.810686127045326"><ele>247.25</ele><time>2026-05-02T13:00:52Z</time></trkpt><trkpt lat="43.33595386891932" lon="11.810690826251964"><ele>247.5</ele><time>2026-05-02T13:00:53Z</time></trkpt><trkpt lat="43.3358199658656" lon="11.810700468349093"><ele>247.75</ele><time>2026-05-02T13:00:54Z</time></trkpt><trkpt lat="43.33567994655002" lon="11.810706290111941"><ele>248.0</ele><time>2026-05-02T13:00:55Z</time></trkpt><trkpt lat="43.33553610523791" lon="11.810714693731029"><ele>247.5</ele><time>2026-05-02T13:00:56Z</time></trkpt><trkpt lat="43.33539370608858" lon="11.81072427395542"><ele>247.0</ele><time>2026-05-02T13:00:57Z</time></trkpt><trkpt lat="43.33525836761097" lon="11.810734890904786"><ele>246.5</ele><time>2026-05-02T13:00:58Z</time></trkpt><trkpt lat="43.33511616712994" lon="11.810742968876612"><ele>246.0</ele><time>2026-05-02T13:00:59Z</time></trkpt><trkpt lat="43.33497995005127" lon="11.810751373789447"><ele>246.0</ele><time>2026-05-02T13:01:00Z</time></trkpt><trkpt lat="43.33483969631407" lon="11.81076143791321"><ele>246.0</ele><time>2026-05-02T13:01:01Z</time></trkpt><trkpt lat="43.334701552287456" lon="11.810772145294868"><ele>246.0</ele><time>2026-05-02T13:01:02Z</time></trkpt><trkpt lat="43.33456213362065" lon="11.810783191449564"><ele>246.0</ele><time>2026-05-02T13:01:03Z</time></trkpt><trkpt lat="43.33441974454839" lon="11.810792867511877"><ele>246.0</ele><time>2026-05-02T13:01:04Z</time></trkpt><trkpt lat="43.334285088131985" lon="11.810800896333559"><ele>246.0</ele><time>2026-05-02T13:01:05Z</time></trkpt><trkpt lat="43.334148331723384" lon="11.810809770369037"><ele>246.0</ele><time>2026-05-02T13:01:06Z</time></trkpt><trkpt lat="43.33400376199197" lon="11.810818710493558"><ele>246.0</ele><time>2026-05-02T13:01:07Z</time></trkpt><trkpt lat="43.333863870161615" lon="11.810829074129712"><ele>246.0</ele><time>2026-05-02T13:01:08Z</time></trkpt><trkpt lat="43.33372695813767" lon="11.810839939267852"><ele>246.0</ele><time>2026-05-02T13:01:09Z</time></trkpt><trkpt lat="43.33360145031875" lon="11.810849187003422"><ele>246.0</ele><time>2026-05-02T13:01:10Z</time></trkpt><trkpt lat="43.33347745071167" lon="11.810855896932773"><ele>246.0</ele><time>2026-05-02T13:01:11Z</time></trkpt><trkpt lat="43.333345853621196" lon="11.81086564923952"><ele>246.0</ele><time>2026-05-02T13:01:12Z</time></trkpt><trkpt lat="43.333212679431874" lon="11.810877479811184"><ele>246.0</ele><time>2026-05-02T13:01:13Z</time></trkpt><trkpt lat="43.333073579844495" lon="11.810885437231324"><ele>246.0</ele><time>2026-05-02T13:01:14Z</time></trkpt><trkpt lat="43.33292902985105" lon="11.810894802911676"><ele>246.0</ele><time>2026-05-02T13:01:15Z</time></trkpt><trkpt lat="43.332790593260036" lon="11.810904485970198"><ele>246.0</ele><time>2026-05-02T13:01:16Z</time></trkpt><trkpt lat="43.332649935565925" lon="11.810915542291191"><ele>246.0</ele><time>2026-05-02T13:01:17Z</time></trkpt><trkpt lat="43.33251250190649" lon="11.810923223778163"><ele>246.0</ele><time>2026-05-02T13:01:18Z</time></trkpt><trkpt lat="43.33237906220961" lon="11.810933653474695"><ele>246.0</ele><time>2026-05-02T13:01:19Z</time></trkpt><trkpt lat="43.332240874365766" lon="11.810945282453435"><ele>246.25</ele><time>2026-05-02T13:01:20Z</time></trkpt><trkpt lat="43.33210192730311" lon="11.810954763984745"><ele>246.5</ele><time>2026-05-02T13:01:21Z</time></trkpt><trkpt lat="43.331963258901325" lon="11.81096577700672"><ele>246.75</ele><time>2026-05-02T13:01:22Z</time></trkpt><trkpt lat="43.331822235613544" lon="11.810974856716054"><ele>247.0</ele><time>2026-05-02T13:01:23Z</time></trkpt><trkpt lat="43.331681400894" lon="11.810983249465746"><ele>247.0</ele><time>2026-05-02T13:01:24Z</time></trkpt><trkpt lat="43.331537417281254" lon="11.810993130334381"><ele>247.0</ele><time>2026-05-02T13:01:25Z</time></trkpt><trkpt lat="43.33139490190888" lon="11.811003855333162"><ele>247.0</ele><time>2026-05-02T13:01:26Z</time></trkpt><trkpt lat="43.33125617884428" lon="11.811014354550286"><ele>247.0</ele><time>2026-05-02T13:01:27Z</time></trkpt><trkpt lat="43.33112302159259" lon="11.811025434057365"><ele>247.0</ele><time>2026-05-02T13:01:28Z</time></trkpt><trkpt lat="43.33099959965832" lon="11.81103567199213"><ele>247.0</ele><time>2026-05-02T13:01:29Z</time></trkpt><trkpt lat="43.33087978236493" lon="11.811045702868366"><ele>247.0</ele><time>2026-05-02T13:01:30Z</time></trkpt><trkpt lat="43.330753298487714" lon="11.811053690728269"><ele>247.0</ele><time>2026-05-02T13:01:31Z</time></trkpt><trkpt lat="43.33062441542612" lon="11.81106061984485"><ele>246.75</ele><time>2026-05-02T13:01:32Z</time></trkpt><trkpt lat="43.33049215633658" lon="11.81107121457698"><ele>246.5</ele><time>2026-05-02T13:01:33Z</time></trkpt><trkpt lat="43.330358587128956" lon="11.811080373784444"><ele>246.25</ele><time>2026-05-02T13:01:34Z</time></trkpt><trkpt lat="43.33023066195917" lon="11.811091277099704"><ele>246.0</ele><time>2026-05-02T13:01:35Z</time></trkpt><trkpt lat="43.33010452609158" lon="11.811100381916464"><ele>246.0</ele><time>2026-05-02T13:01:36Z</time></trkpt><trkpt lat="43.32998031623437" lon="11.811107652749518"><ele>246.0</ele><time>2026-05-02T13:01:37Z</time></trkpt><trkpt lat="43.32985235020714" lon="11.811115157703686"><ele>246.0</ele><time>2026-05-02T13:01:38Z</time></trkpt><trkpt lat="43.32972251535736" lon="11.811122342842488"><ele>246.0</ele><time>2026-05-02T13:01:39Z</time></trkpt><trkpt lat="43.32959090642135" lon="11.811131785489899"><ele>246.5</ele><time>2026-05-02T13:01:40Z</time></trkpt><trkpt lat="43.329454538309115" lon="11.811141778784677"><ele>247.0</ele><time>2026-05-02T13:01:41Z</time></trkpt><trkpt lat="43.32931251010435" lon="11.811154813705238"><ele>247.5</ele><time>2026-05-02T13:01:42Z</time></trkpt><trkpt lat="43.32916075107997" lon="11.811172463928179"><ele>248.0</ele><time>2026-05-02T13:01:43Z</time></trkpt><trkpt lat="43.328997482568674" lon="11.811196833709861"><ele>247.66666666666669</ele><time>2026-05-02T13:01:44Z</time></trkpt><trkpt lat="43.32881737948657" lon="11.811207264338345"><ele>247.33333333333331</ele><time>2026-05-02T13:01:45Z</time></trkpt><trkpt lat="43.3286289054576" lon="11.811244452127777"><ele>247.0</ele><time>2026-05-02T13:01:46Z</time></trkpt><trkpt lat="43.32841699677478" lon="11.81128716062056"><ele>247.0</ele><time>2026-05-02T13:01:47Z</time></trkpt><trkpt lat="43.32820390746603" lon="11.811315852865201"><ele>247.0</ele><time>2026-05-02T13:01:48Z</time></trkpt><trkpt lat="43.32800615255579" lon="11.81131718249601"><ele>247.0</ele><time>2026-05-02T13:01:49Z</time></trkpt><trkpt lat="43.3278103503392" lon="11.811345982762228"><ele>247.0</ele><time>2026-05-02T13:01:50Z</time></trkpt><trkpt lat="43.32769124572738" lon="11.811465675200532"><ele>247.0</ele><time>2026-05-02T13:01:51Z</time></trkpt><trkpt lat="43.3275316111099" lon="11.811500888207805"><ele>247.0</ele><time>2026-05-02T13:01:52Z</time></trkpt><trkpt lat="43.32738852837352" lon="11.811528863785382"><ele>247.0</ele><time>2026-05-02T13:01:53Z</time></trkpt><trkpt lat="43.32725294869093" lon="11.811555226892667"><ele>247.0</ele><time>2026-05-02T13:01:54Z</time></trkpt><trkpt lat="43.32712927595889" lon="11.8115896321948"><ele>247.0</ele><time>2026-05-02T13:01:55Z</time></trkpt><trkpt lat="43.32701834550921" lon="11.811619991239485"><ele>247.0</ele><time>2026-05-02T13:01:56Z</time></trkpt><trkpt lat="43.326916166677485" lon="11.811644787302221"><ele>246.66666666666666</ele><time>2026-05-02T13:01:57Z</time></trkpt><trkpt lat="43.326820097808685" lon="11.811667911634553"><ele>246.33333333333331</ele><time>2026-05-02T13:01:58Z</time></trkpt><trkpt lat="43.32673535558584" lon="11.81168611595393"><ele>246.0</ele><time>2026-05-02T13:01:59Z</time></trkpt><trkpt lat="43.32665885602397" lon="11.811703787563337"><ele>245.66666666666669</ele><time>2026-05-02T13:02:00Z</time></trkpt><trkpt lat="43.326584199942715" lon="11.811720767817926"><ele>245.33333333333334</ele><time>2026-05-02T13:02:01Z</time></trkpt><trkpt lat="43.326499428421975" lon="11.811739793040188"><ele>245.0</ele><time>2026-05-02T13:02:02Z</time></trkpt><trkpt lat="43.32641325828736" lon="11.811758747592815"><ele>245.2</ele><time>2026-05-02T13:02:03Z</time></trkpt><trkpt lat="43.326327557672585" lon="11.811779668569482"><ele>245.4</ele><time>2026-05-02T13:02:04Z</time></trkpt><trkpt lat="43.3262331158946" lon="11.811794732322557"><ele>245.60000000000002</ele><time>2026-05-02T13:02:05Z</time></trkpt><trkpt lat="43.32612709733869" lon="11.811813492460479"><ele>245.8</ele><time>2026-05-02T13:02:06Z</time></trkpt><trkpt lat="43.32601244892154" lon="11.811825654134005"><ele>246.0</ele><time>2026-05-02T13:02:07Z</time></trkpt><trkpt lat="43.325890534085325" lon="11.811846754302648"><ele>246.20000000000002</ele><time>2026-05-02T13:02:08Z</time></trkpt><trkpt lat="43.32578376692391" lon="11.811864084881703"><ele>246.40000000000003</ele><time>2026-05-02T13:02:09Z</time></trkpt><trkpt lat="43.32568755671036" lon="11.811877475496223"><ele>246.6</ele><time>2026-05-02T13:02:10Z</time></trkpt><trkpt lat="43.32559900291307" lon="11.811888468165932"><ele>246.8</ele><time>2026-05-02T13:02:11Z</time></trkpt><trkpt lat="43.32552157467533" lon="11.811902406799645"><ele>247.0</ele><time>2026-05-02T13:02:12Z</time></trkpt><trkpt lat="43.32543700739086" lon="11.811908770676611"><ele>246.66666666666666</ele><time>2026-05-02T13:02:13Z</time></trkpt><trkpt lat="43.325345266003524" lon="11.811911921247999"><ele>246.33333333333331</ele><time>2026-05-02T13:02:14Z</time></trkpt><trkpt lat="43.325262707968996" lon="11.811907230398285"><ele>246.0</ele><time>2026-05-02T13:02:15Z</time></trkpt><trkpt lat="43.32518095003029" lon="11.811894073928384"><ele>245.66666666666669</ele><time>2026-05-02T13:02:16Z</time></trkpt><trkpt lat="43.32509325252765" lon="11.811867342685312"><ele>245.33333333333334</ele><time>2026-05-02T13:02:17Z</time></trkpt><trkpt lat="43.32500302551016" lon="11.811818370481141"><ele>245.0</ele><time>2026-05-02T13:02:18Z</time></trkpt><trkpt lat="43.32491527289384" lon="11.811752705466747"><ele>245.0</ele><time>2026-05-02T13:02:19Z</time></trkpt><trkpt lat="43.32483067176623" lon="11.811724894220571"><ele>245.0</ele><time>2026-05-02T13:02:20Z</time></trkpt><trkpt lat="43.32475037944343" lon="11.811741857682183"><ele>245.0</ele><time>2026-05-02T13:02:21Z</time></trkpt><trkpt lat="43.324676548668826" lon="11.811797603990787"><ele>245.0</ele><time>2026-05-02T13:02:21.999Z</time></trkpt><trkpt lat="43.32460294545619" lon="11.811881695704313"><ele>245.0</ele><time>2026-05-02T13:02:22.999Z</time></trkpt><trkpt lat="43.32452051342596" lon="11.811969018298258"><ele>245.25</ele><time>2026-05-02T13:02:23.999Z</time></trkpt><trkpt lat="43.32441026552929" lon="11.81203663403468"><ele>245.5</ele><time>2026-05-02T13:02:24.999Z</time></trkpt><trkpt lat="43.32428870611553" lon="11.812075990299798"><ele>245.75</ele><time>2026-05-02T13:02:25.999Z</time></trkpt><trkpt lat="43.32417780461067" lon="11.812092224261395"><ele>246.0</ele><time>2026-05-02T13:02:26.999Z</time></trkpt><trkpt lat="43.32407524853534" lon="11.812111000840025"><ele>246.0</ele><time>2026-05-02T13:02:27.999Z</time></trkpt><trkpt lat="43.32397256486713" lon="11.812129117246524"><ele>246.0</ele><time>2026-05-02T13:02:28.999Z</time></trkpt><trkpt lat="43.32386290891983" lon="11.812144653822177"><ele>246.0</ele><time>2026-05-02T13:02:29.999Z</time></trkpt><trkpt lat="43.32374396251868" lon="11.812159789896668"><ele>246.0</ele><time>2026-05-02T13:02:30.999Z</time></trkpt><trkpt lat="43.32362404817366" lon="11.812174722235422"><ele>246.25</ele><time>2026-05-02T13:02:31.999Z</time></trkpt><trkpt lat="43.32350644536344" lon="11.812191930964484"><ele>246.5</ele><time>2026-05-02T13:02:32.999Z</time></trkpt><trkpt lat="43.32338846356133" lon="11.81220899387745"><ele>246.75</ele><time>2026-05-02T13:02:33.999Z</time></trkpt><trkpt lat="43.32327372450734" lon="11.81222511237578"><ele>247.0</ele><time>2026-05-02T13:02:34.999Z</time></trkpt><trkpt lat="43.323168643522266" lon="11.81223875302976"><ele>246.99999999999997</ele><time>2026-05-02T13:02:35.999Z</time></trkpt><trkpt lat="43.3230776070594" lon="11.812248006365456"><ele>247.0</ele><time>2026-05-02T13:02:36.999Z</time></trkpt><trkpt lat="43.3229956058432" lon="11.812250538914387"><ele>247.0</ele><time>2026-05-02T13:02:37.999Z</time></trkpt><trkpt lat="43.32291796013533" lon="11.81224970506994"><ele>247.0</ele><time>2026-05-02T13:02:38.999Z</time></trkpt><trkpt lat="43.322833541528176" lon="11.81225082431411"><ele>246.99999999999997</ele><time>2026-05-02T13:02:39.999Z</time></trkpt><trkpt lat="43.32273282635539" lon="11.81225259935192"><ele>247.0</ele><time>2026-05-02T13:02:40.999Z</time></trkpt><trkpt lat="43.32261903682034" lon="11.812255788178431"><ele>247.0</ele><time>2026-05-02T13:02:42Z</time></trkpt><trkpt lat="43.32250920322128" lon="11.812258829100866"><ele>247.0</ele><time>2026-05-02T13:02:43Z</time></trkpt><trkpt lat="43.32240899832889" lon="11.812261945655012"><ele>247.0</ele><time>2026-05-02T13:02:44Z</time></trkpt><trkpt lat="43.3223110787442" lon="11.812264622246216"><ele>247.0</ele><time>2026-05-02T13:02:45Z</time></trkpt><trkpt lat="43.3222164079379" lon="11.812268654828584"><ele>247.0</ele><time>2026-05-02T13:02:46Z</time></trkpt><trkpt lat="43.32212094085825" lon="11.812277700289261"><ele>246.5</ele><time>2026-05-02T13:02:47Z</time></trkpt><trkpt lat="43.32201669489281" lon="11.812286752472238"><ele>246.0</ele><time>2026-05-02T13:02:48Z</time></trkpt><trkpt lat="43.32190072295459" lon="11.812291475997068"><ele>245.5</ele><time>2026-05-02T13:02:49Z</time></trkpt><trkpt lat="43.32178288551286" lon="11.81229277599388"><ele>245.0</ele><time>2026-05-02T13:02:50Z</time></trkpt><trkpt lat="43.32166816086767" lon="11.812295141894886"><ele>245.0</ele><time>2026-05-02T13:02:51Z</time></trkpt><trkpt lat="43.32155072859489" lon="11.812295730575428"><ele>245.0</ele><time>2026-05-02T13:02:52Z</time></trkpt><trkpt lat="43.32142991434642" lon="11.812296178371255"><ele>245.0</ele><time>2026-05-02T13:02:53Z</time></trkpt><trkpt lat="43.32131674601727" lon="11.81229963838309"><ele>245.0</ele><time>2026-05-02T13:02:54Z</time></trkpt><trkpt lat="43.32121213534726" lon="11.812301526276723"><ele>245.4</ele><time>2026-05-02T13:02:55Z</time></trkpt><trkpt lat="43.32111393254732" lon="11.812303783815238"><ele>245.8</ele><time>2026-05-02T13:02:56Z</time></trkpt><trkpt lat="43.32101501055368" lon="11.812302640399563"><ele>246.2</ele><time>2026-05-02T13:02:57Z</time></trkpt><trkpt lat="43.32091215350568" lon="11.81230476993832"><ele>246.6</ele><time>2026-05-02T13:02:58Z</time></trkpt><trkpt lat="43.32080537611787" lon="11.812307539974967"><ele>247.0</ele><time>2026-05-02T13:02:59Z</time></trkpt><trkpt lat="43.320694291383255" lon="11.812308446603948"><ele>247.0</ele><time>2026-05-02T13:03:00Z</time></trkpt><trkpt lat="43.3205907864993" lon="11.812310696123147"><ele>247.0</ele><time>2026-05-02T13:03:01Z</time></trkpt><trkpt lat="43.32048388053977" lon="11.812313462427676"><ele>247.0</ele><time>2026-05-02T13:03:02Z</time></trkpt><trkpt lat="43.32037527783264" lon="11.812314955518104"><ele>247.0</ele><time>2026-05-02T13:03:03Z</time></trkpt><trkpt lat="43.32026859018662" lon="11.812316514915953"><ele>247.0</ele><time>2026-05-02T13:03:04Z</time></trkpt><trkpt lat="43.32016210035599" lon="11.812318678764573"><ele>247.0</ele><time>2026-05-02T13:03:05Z</time></trkpt><trkpt lat="43.32005681276262" lon="11.812321288711944"><ele>247.0</ele><time>2026-05-02T13:03:06Z</time></trkpt><trkpt lat="43.319953005809154" lon="11.812327111613861"><ele>247.0</ele><time>2026-05-02T13:03:07Z</time></trkpt><trkpt lat="43.319857330360996" lon="11.812328921305873"><ele>247.0</ele><time>2026-05-02T13:03:08Z</time></trkpt><trkpt lat="43.31975574360906" lon="11.8123265072952"><ele>247.0</ele><time>2026-05-02T13:03:09Z</time></trkpt><trkpt lat="43.319646162249335" lon="11.812329323955172"><ele>247.5</ele><time>2026-05-02T13:03:10Z</time></trkpt><trkpt lat="43.319532981380455" lon="11.812330165967534"><ele>248.0</ele><time>2026-05-02T13:03:11Z</time></trkpt><trkpt lat="43.31941269428839" lon="11.812329471784913"><ele>248.5</ele><time>2026-05-02T13:03:12Z</time></trkpt><trkpt lat="43.3192980841543" lon="11.812332124860712"><ele>249.0</ele><time>2026-05-02T13:03:13Z</time></trkpt><trkpt lat="43.31919242790129" lon="11.812334756474206"><ele>249.0</ele><time>2026-05-02T13:03:14Z</time></trkpt><trkpt lat="43.31909306790405" lon="11.812337897207376"><ele>248.99999999999997</ele><time>2026-05-02T13:03:15Z</time></trkpt><trkpt lat="43.319000728284806" lon="11.812344250402344"><ele>248.99999999999997</ele><time>2026-05-02T13:03:16Z</time></trkpt><trkpt lat="43.31890902545739" lon="11.812346182267738"><ele>249.0</ele><time>2026-05-02T13:03:17Z</time></trkpt><trkpt lat="43.31881105973211" lon="11.812349349465723"><ele>249.0</ele><time>2026-05-02T13:03:18Z</time></trkpt><trkpt lat="43.31871123836256" lon="11.812352964076302"><ele>248.83333333333334</ele><time>2026-05-02T13:03:19Z</time></trkpt><trkpt lat="43.31861704190944" lon="11.812358485326929"><ele>248.66666666666669</ele><time>2026-05-02T13:03:20Z</time></trkpt><trkpt lat="43.31853379259276" lon="11.81236680731905"><ele>248.5</ele><time>2026-05-02T13:03:21Z</time></trkpt><trkpt lat="43.318453435317856" lon="11.812382547267305"><ele>248.33333333333334</ele><time>2026-05-02T13:03:22Z</time></trkpt><trkpt lat="43.31837468544844" lon="11.81240036133644"><ele>248.16666666666669</ele><time>2026-05-02T13:03:23Z</time></trkpt><trkpt lat="43.31829667137987" lon="11.812422731695998"><ele>248.0</ele><time>2026-05-02T13:03:24Z</time></trkpt><trkpt lat="43.31821949471696" lon="11.812447285710697"><ele>248.0</ele><time>2026-05-02T13:03:25Z</time></trkpt><trkpt lat="43.318149601525995" lon="11.812470356935785"><ele>248.00000000000003</ele><time>2026-05-02T13:03:27Z</time></trkpt><trkpt lat="43.31805643254206" lon="11.812472395474368"><ele>248.0</ele><time>2026-05-02T13:03:30Z</time></trkpt><trkpt lat="43.317988039771436" lon="11.8124625214946"><ele>248.0</ele><time>2026-05-02T13:03:31Z</time></trkpt><trkpt lat="43.31792374815905" lon="11.812473101623105"><ele>248.00000000000003</ele><time>2026-05-02T13:03:32Z</time></trkpt><trkpt lat="43.31785979427928" lon="11.812519886997064"><ele>248.0</ele><time>2026-05-02T13:03:33Z</time></trkpt><trkpt lat="43.31781350092149" lon="11.8125878980839"><ele>248.0</ele><time>2026-05-02T13:03:34Z</time></trkpt><trkpt lat="43.317772655680685" lon="11.812674278175058"><ele>248.0</ele><time>2026-05-02T13:03:35Z</time></trkpt><trkpt lat="43.31772370805948" lon="11.812764875676772"><ele>248.0</ele><time>2026-05-02T13:03:36Z</time></trkpt><trkpt lat="43.31763504808572" lon="11.81283364145376"><ele>248.0</ele><time>2026-05-02T13:03:37Z</time></trkpt><trkpt lat="43.31754211695766" lon="11.812929250560297"><ele>248.0</ele><time>2026-05-02T13:03:38Z</time></trkpt><trkpt lat="43.31743526294244" lon="11.813005768613523"><ele>248.0</ele><time>2026-05-02T13:03:39Z</time></trkpt><trkpt lat="43.317332531892625" lon="11.813089387704162"><ele>248.0</ele><time>2026-05-02T13:03:40Z</time></trkpt><trkpt lat="43.31723643539308" lon="11.813172435505976"><ele>248.0</ele><time>2026-05-02T13:03:41Z</time></trkpt><trkpt lat="43.31715018668835" lon="11.813244367172842"><ele>248.0</ele><time>2026-05-02T13:03:42Z</time></trkpt><trkpt lat="43.31705443460524" lon="11.813321560429538"><ele>248.0</ele><time>2026-05-02T13:03:43Z</time></trkpt><trkpt lat="43.31695180098659" lon="11.813407029347541"><ele>248.0</ele><time>2026-05-02T13:03:44Z</time></trkpt><trkpt lat="43.3168507418465" lon="11.813486531520589"><ele>248.0</ele><time>2026-05-02T13:03:45Z</time></trkpt><trkpt lat="43.31675924611678" lon="11.81355786894715"><ele>248.0</ele><time>2026-05-02T13:03:46Z</time></trkpt><trkpt lat="43.316674311652484" lon="11.81362164754399"><ele>248.0</ele><time>2026-05-02T13:03:47Z</time></trkpt><trkpt lat="43.31659670452577" lon="11.81367967446642"><ele>248.0</ele><time>2026-05-02T13:03:48Z</time></trkpt><trkpt lat="43.31651447796455" lon="11.813742438991643"><ele>248.0</ele><time>2026-05-02T13:03:49Z</time></trkpt><trkpt lat="43.3164184000654" lon="11.813814189558903"><ele>248.0</ele><time>2026-05-02T13:03:50Z</time></trkpt><trkpt lat="43.31632197787237" lon="11.813887289751634"><ele>248.0</ele><time>2026-05-02T13:03:51Z</time></trkpt><trkpt lat="43.31622881330765" lon="11.813955370105008"><ele>248.0</ele><time>2026-05-02T13:03:52Z</time></trkpt><trkpt lat="43.31613757268849" lon="11.814021278411415"><ele>248.0</ele><time>2026-05-02T13:03:53Z</time></trkpt><trkpt lat="43.31603457983004" lon="11.814113037858217"><ele>248.0</ele><time>2026-05-02T13:03:54Z</time></trkpt><trkpt lat="43.31595959752217" lon="11.814164324081759"><ele>248.0</ele><time>2026-05-02T13:03:55Z</time></trkpt><trkpt lat="43.315875121958285" lon="11.814228616668087"><ele>248.0</ele><time>2026-05-02T13:03:56Z</time></trkpt><trkpt lat="43.315787380622055" lon="11.81429620849234"><ele>248.0</ele><time>2026-05-02T13:03:57Z</time></trkpt><trkpt lat="43.31569071435704" lon="11.814371820418945"><ele>248.0</ele><time>2026-05-02T13:03:58Z</time></trkpt><trkpt lat="43.31559481204005" lon="11.814449927151802"><ele>248.0</ele><time>2026-05-02T13:03:59Z</time></trkpt><trkpt lat="43.315498889566136" lon="11.814524642658835"><ele>248.5</ele><time>2026-05-02T13:04:00Z</time></trkpt><trkpt lat="43.315401512869926" lon="11.814596684839723"><ele>249.0</ele><time>2026-05-02T13:04:01Z</time></trkpt><trkpt lat="43.31530217066505" lon="11.8146699459531"><ele>249.5</ele><time>2026-05-02T13:04:02Z</time></trkpt><trkpt lat="43.315200369328295" lon="11.814748539214014"><ele>250.0</ele><time>2026-05-02T13:04:03Z</time></trkpt><trkpt lat="43.31510100366172" lon="11.814822759133138"><ele>250.0</ele><time>2026-05-02T13:04:04.001Z</time></trkpt><trkpt lat="43.315005991666894" lon="11.814892722616483"><ele>250.0</ele><time>2026-05-02T13:04:05.001Z</time></trkpt><trkpt lat="43.31491618683747" lon="11.814967663997624"><ele>250.0</ele><time>2026-05-02T13:04:06.001Z</time></trkpt><trkpt lat="43.31479866668365" lon="11.815050725798896"><ele>250.0</ele><time>2026-05-02T13:04:07.001Z</time></trkpt><trkpt lat="43.31467760423935" lon="11.815153408530588"><ele>249.66666666666666</ele><time>2026-05-02T13:04:08.001Z</time></trkpt><trkpt lat="43.314539370434076" lon="11.815254021328702"><ele>249.33333333333331</ele><time>2026-05-02T13:04:09.001Z</time></trkpt><trkpt lat="43.31440121151036" lon="11.815361144068245"><ele>249.0</ele><time>2026-05-02T13:04:10.001Z</time></trkpt><trkpt lat="43.314273126212186" lon="11.815456716407944"><ele>249.0</ele><time>2026-05-02T13:04:11.001Z</time></trkpt><trkpt lat="43.314143878417845" lon="11.815557697035231"><ele>249.0</ele><time>2026-05-02T13:04:12.001Z</time></trkpt><trkpt lat="43.31402179038625" lon="11.815648021533573"><ele>249.0</ele><time>2026-05-02T13:04:13.001Z</time></trkpt><trkpt lat="43.313905567880376" lon="11.815734483872824"><ele>249.0</ele><time>2026-05-02T13:04:14.001Z</time></trkpt><trkpt lat="43.31379951331511" lon="11.815816503371037"><ele>248.5</ele><time>2026-05-02T13:04:15.001Z</time></trkpt><trkpt lat="43.31369898484017" lon="11.815897253111986"><ele>248.0</ele><time>2026-05-02T13:04:16.001Z</time></trkpt><trkpt lat="43.31359849165304" lon="11.81597483753476"><ele>247.5</ele><time>2026-05-02T13:04:17.001Z</time></trkpt><trkpt lat="43.31348862821256" lon="11.816056841237922"><ele>247.0</ele><time>2026-05-02T13:04:18.001Z</time></trkpt><trkpt lat="43.31336026411454" lon="11.816156831838867"><ele>247.0</ele><time>2026-05-02T13:04:19.001Z</time></trkpt><trkpt lat="43.31321792399334" lon="11.816262864930689"><ele>247.0</ele><time>2026-05-02T13:04:20.001Z</time></trkpt><trkpt lat="43.31306757347076" lon="11.816373879035792"><ele>247.0</ele><time>2026-05-02T13:04:21.001Z</time></trkpt><trkpt lat="43.31290219471414" lon="11.816491986103545"><ele>247.33333333333331</ele><time>2026-05-02T13:04:22.001Z</time></trkpt><trkpt lat="43.31273473673973" lon="11.816607281719666"><ele>247.66666666666669</ele><time>2026-05-02T13:04:23.001Z</time></trkpt><trkpt lat="43.312555553678436" lon="11.81668873241932"><ele>248.0</ele><time>2026-05-02T13:04:24.001Z</time></trkpt><trkpt lat="43.31238088606785" lon="11.81676229293138"><ele>247.33333333333334</ele><time>2026-05-02T13:04:25.001Z</time></trkpt><trkpt lat="43.31223340394595" lon="11.816931212199421"><ele>246.66666666666669</ele><time>2026-05-02T13:04:26.001Z</time></trkpt><trkpt lat="43.31207473929419" lon="11.817022790677427"><ele>246.0</ele><time>2026-05-02T13:04:27.001Z</time></trkpt><trkpt lat="43.311923448371495" lon="11.817107862736194"><ele>246.0</ele><time>2026-05-02T13:04:28Z</time></trkpt><trkpt lat="43.311778615787276" lon="11.817186602693026"><ele>246.0</ele><time>2026-05-02T13:04:29Z</time></trkpt><trkpt lat="43.31163831101083" lon="11.817267756549448"><ele>246.0</ele><time>2026-05-02T13:04:30Z</time></trkpt><trkpt lat="43.311479699355104" lon="11.817368739110432"><ele>246.0</ele><time>2026-05-02T13:04:31Z</time></trkpt><trkpt lat="43.31128818486708" lon="11.817463320099025"><ele>246.0</ele><time>2026-05-02T13:04:32Z</time></trkpt><trkpt lat="43.311084807239254" lon="11.817579912227533"><ele>246.0</ele><time>2026-05-02T13:04:33Z</time></trkpt><trkpt lat="43.310892653613806" lon="11.817699781119643"><ele>246.0</ele><time>2026-05-02T13:04:34Z</time></trkpt><trkpt lat="43.310718746961726" lon="11.817799275272016"><ele>246.0</ele><time>2026-05-02T13:04:35Z</time></trkpt><trkpt lat="43.31055514810942" lon="11.817895547265326"><ele>246.0</ele><time>2026-05-02T13:04:36Z</time></trkpt><trkpt lat="43.31040431771736" lon="11.817984929825974"><ele>246.33333333333331</ele><time>2026-05-02T13:04:37Z</time></trkpt><trkpt lat="43.31025040673016" lon="11.81807059873543"><ele>246.66666666666666</ele><time>2026-05-02T13:04:38Z</time></trkpt><trkpt lat="43.31009966982704" lon="11.81815288701988"><ele>247.0</ele><time>2026-05-02T13:04:39Z</time></trkpt><trkpt lat="43.30995068004956" lon="11.81823199276208"><ele>247.0</ele><time>2026-05-02T13:04:40Z</time></trkpt><trkpt lat="43.309801099590096" lon="11.818309781776478"><ele>247.0</ele><time>2026-05-02T13:04:41Z</time></trkpt><trkpt lat="43.30965246672979" lon="11.818387403356722"><ele>247.0</ele><time>2026-05-02T13:04:42Z</time></trkpt><trkpt lat="43.3095004655626" lon="11.818466996608494"><ele>246.66666666666666</ele><time>2026-05-02T13:04:43Z</time></trkpt><trkpt lat="43.30934363063553" lon="11.818543316819024"><ele>246.33333333333331</ele><time>2026-05-02T13:04:44Z</time></trkpt><trkpt lat="43.30918770006655" lon="11.818614723131287"><ele>246.0</ele><time>2026-05-02T13:04:45Z</time></trkpt><trkpt lat="43.30903316938463" lon="11.818694748047502"><ele>246.33333333333331</ele><time>2026-05-02T13:04:46Z</time></trkpt><trkpt lat="43.30888228482235" lon="11.81876204780851"><ele>246.66666666666666</ele><time>2026-05-02T13:04:47Z</time></trkpt><trkpt lat="43.3087293641176" lon="11.818836524367592"><ele>247.0</ele><time>2026-05-02T13:04:48Z</time></trkpt><trkpt lat="43.3085729474038" lon="11.818916520442356"><ele>247.0</ele><time>2026-05-02T13:04:49Z</time></trkpt><trkpt lat="43.30841356724278" lon="11.81899387220886"><ele>247.0</ele><time>2026-05-02T13:04:50Z</time></trkpt><trkpt lat="43.30825403439423" lon="11.819071301723048"><ele>247.0</ele><time>2026-05-02T13:04:51Z</time></trkpt><trkpt lat="43.308104483027215" lon="11.819143121023384"><ele>247.0</ele><time>2026-05-02T13:04:52Z</time></trkpt><trkpt lat="43.30794641828203" lon="11.819226427851481"><ele>247.0</ele><time>2026-05-02T13:04:53Z</time></trkpt><trkpt lat="43.307758730958085" lon="11.819297884586868"><ele>247.0</ele><time>2026-05-02T13:04:54Z</time></trkpt><trkpt lat="43.30754232705276" lon="11.819401991702916"><ele>247.0</ele><time>2026-05-02T13:04:55.001Z</time></trkpt><trkpt lat="43.307319972836275" lon="11.819509462931478"><ele>247.0</ele><time>2026-05-02T13:04:56.001Z</time></trkpt><trkpt lat="43.30709341105645" lon="11.819622775096867"><ele>247.0</ele><time>2026-05-02T13:04:57.001Z</time></trkpt><trkpt lat="43.30687130353091" lon="11.81972164732561"><ele>247.0</ele><time>2026-05-02T13:04:58.001Z</time></trkpt><trkpt lat="43.30666294584416" lon="11.819820504853322"><ele>247.0</ele><time>2026-05-02T13:04:59.001Z</time></trkpt><trkpt lat="43.30645221510803" lon="11.819927177315826"><ele>247.0</ele><time>2026-05-02T13:05:00.001Z</time></trkpt><trkpt lat="43.3062343319211" lon="11.8200304444188"><ele>247.5</ele><time>2026-05-02T13:05:01.001Z</time></trkpt><trkpt lat="43.30601245012077" lon="11.820153104842769"><ele>248.0</ele><time>2026-05-02T13:05:02.001Z</time></trkpt><trkpt lat="43.305788829705484" lon="11.820282595625539"><ele>247.0</ele><time>2026-05-02T13:05:03.001Z</time></trkpt><trkpt lat="43.305571542300164" lon="11.820414917175594"><ele>246.0</ele><time>2026-05-02T13:05:04.001Z</time></trkpt><trkpt lat="43.30535659284479" lon="11.820549594946698"><ele>246.0</ele><time>2026-05-02T13:05:05.001Z</time></trkpt><trkpt lat="43.30514107762924" lon="11.820685586158133"><ele>246.0</ele><time>2026-05-02T13:05:06.001Z</time></trkpt><trkpt lat="43.3049250998405" lon="11.820817390444555"><ele>246.0</ele><time>2026-05-02T13:05:07.001Z</time></trkpt><trkpt lat="43.30470760603789" lon="11.820947688826946"><ele>246.0</ele><time>2026-05-02T13:05:08.001Z</time></trkpt><trkpt lat="43.3044942344527" lon="11.821080121999568"><ele>245.5</ele><time>2026-05-02T13:05:09.001Z</time></trkpt><trkpt lat="43.30428522531608" lon="11.821211557335353"><ele>245.0</ele><time>2026-05-02T13:05:10.001Z</time></trkpt><trkpt lat="43.304074940955026" lon="11.821343989433819"><ele>245.5</ele><time>2026-05-02T13:05:11.001Z</time></trkpt><trkpt lat="43.30386497298572" lon="11.821473451040728"><ele>246.0</ele><time>2026-05-02T13:05:12.001Z</time></trkpt><trkpt lat="43.30364348567671" lon="11.821599622093574"><ele>246.0</ele><time>2026-05-02T13:05:13.001Z</time></trkpt><trkpt lat="43.30344893009361" lon="11.821730648324163"><ele>246.0</ele><time>2026-05-02T13:05:14.001Z</time></trkpt><trkpt lat="43.30323913840084" lon="11.821859770439456"><ele>246.0</ele><time>2026-05-02T13:05:15.001Z</time></trkpt><trkpt lat="43.3030308430875" lon="11.821989023631865"><ele>246.0</ele><time>2026-05-02T13:05:16.001Z</time></trkpt><trkpt lat="43.30282519334514" lon="11.822119867163732"><ele>246.0</ele><time>2026-05-02T13:05:17.001Z</time></trkpt><trkpt lat="43.30262280079767" lon="11.822248320825317"><ele>246.0</ele><time>2026-05-02T13:05:18.001Z</time></trkpt><trkpt lat="43.302434247022255" lon="11.822367282214143"><ele>246.0</ele><time>2026-05-02T13:05:19.001Z</time></trkpt><trkpt lat="43.30225258287484" lon="11.822479798201423"><ele>246.0</ele><time>2026-05-02T13:05:20.001Z</time></trkpt><trkpt lat="43.30206628848647" lon="11.822595514044819"><ele>245.66666666666669</ele><time>2026-05-02T13:05:21.001Z</time></trkpt><trkpt lat="43.30188067796624" lon="11.822710701705825"><ele>245.33333333333334</ele><time>2026-05-02T13:05:22.001Z</time></trkpt><trkpt lat="43.30171198936541" lon="11.82281379707856"><ele>245.0</ele><time>2026-05-02T13:05:23.001Z</time></trkpt><trkpt lat="43.301557487636586" lon="11.82290593577023"><ele>245.66666666666669</ele><time>2026-05-02T13:05:24.001Z</time></trkpt><trkpt lat="43.30140777590802" lon="11.822994039265705"><ele>246.33333333333331</ele><time>2026-05-02T13:05:25.001Z</time></trkpt><trkpt lat="43.30126571408089" lon="11.82308150936405"><ele>247.0</ele><time>2026-05-02T13:05:26.001Z</time></trkpt><trkpt lat="43.30113279587181" lon="11.823166469357338"><ele>247.0</ele><time>2026-05-02T13:05:27.001Z</time></trkpt><trkpt lat="43.30099574232864" lon="11.823248715559938"><ele>247.0</ele><time>2026-05-02T13:05:28.001Z</time></trkpt><trkpt lat="43.300843744367256" lon="11.823345078316676"><ele>247.0</ele><time>2026-05-02T13:05:29.001Z</time></trkpt><trkpt lat="43.300675295044144" lon="11.82345827317641"><ele>246.66666666666666</ele><time>2026-05-02T13:05:30.001Z</time></trkpt><trkpt lat="43.300493748631354" lon="11.82357322114834"><ele>246.33333333333331</ele><time>2026-05-02T13:05:31.001Z</time></trkpt><trkpt lat="43.30031844387006" lon="11.823688727154494"><ele>246.0</ele><time>2026-05-02T13:05:32.001Z</time></trkpt><trkpt lat="43.300162189009264" lon="11.823782901102673"><ele>246.0</ele><time>2026-05-02T13:05:33.001Z</time></trkpt><trkpt lat="43.30001198314372" lon="11.82387370388113"><ele>246.0</ele><time>2026-05-02T13:05:34.001Z</time></trkpt><trkpt lat="43.299871390895504" lon="11.823960114658512"><ele>246.0</ele><time>2026-05-02T13:05:35.001Z</time></trkpt><trkpt lat="43.29973024873359" lon="11.824048030228006"><ele>246.33333333333331</ele><time>2026-05-02T13:05:36.001Z</time></trkpt><trkpt lat="43.29957216122623" lon="11.824156664822336"><ele>246.66666666666666</ele><time>2026-05-02T13:05:37.001Z</time></trkpt><trkpt lat="43.299388615805064" lon="11.824288104597958"><ele>247.0</ele><time>2026-05-02T13:05:38.001Z</time></trkpt><trkpt lat="43.299179586048226" lon="11.82441237704184"><ele>247.0</ele><time>2026-05-02T13:05:39.001Z</time></trkpt><trkpt lat="43.29895144496508" lon="11.824535064611833"><ele>247.0</ele><time>2026-05-02T13:05:40.001Z</time></trkpt><trkpt lat="43.29871982620652" lon="11.824667975435451"><ele>248.0</ele><time>2026-05-02T13:05:41.001Z</time></trkpt><trkpt lat="43.29849643926497" lon="11.824805032268573"><ele>249.0</ele><time>2026-05-02T13:05:42.001Z</time></trkpt><trkpt lat="43.29829164177286" lon="11.824932478533936"><ele>249.0</ele><time>2026-05-02T13:05:43.001Z</time></trkpt><trkpt lat="43.29810147155335" lon="11.825050490217164"><ele>249.0</ele><time>2026-05-02T13:05:44.001Z</time></trkpt><trkpt lat="43.297908424676876" lon="11.825173029989879"><ele>249.0</ele><time>2026-05-02T13:05:45.001Z</time></trkpt><trkpt lat="43.29769572013304" lon="11.825300607829519"><ele>248.0</ele><time>2026-05-02T13:05:46.001Z</time></trkpt><trkpt lat="43.297468829767745" lon="11.82541857132107"><ele>247.0</ele><time>2026-05-02T13:05:47.001Z</time></trkpt><trkpt lat="43.29723785139459" lon="11.825527535204815"><ele>247.0</ele><time>2026-05-02T13:05:48.001Z</time></trkpt><trkpt lat="43.29701712961131" lon="11.82562608511966"><ele>247.0</ele><time>2026-05-02T13:05:49.001Z</time></trkpt><trkpt lat="43.29680740431438" lon="11.825722081604864"><ele>247.0</ele><time>2026-05-02T13:05:50.001Z</time></trkpt><trkpt lat="43.29660986825102" lon="11.825819437192406"><ele>247.0</ele><time>2026-05-02T13:05:51.001Z</time></trkpt><trkpt lat="43.29642043722808" lon="11.825913185051872"><ele>247.0</ele><time>2026-05-02T13:05:52.001Z</time></trkpt><trkpt lat="43.296240171651085" lon="11.826000638553728"><ele>246.66666666666666</ele><time>2026-05-02T13:05:53.001Z</time></trkpt><trkpt lat="43.29606255022584" lon="11.82608555553148"><ele>246.33333333333331</ele><time>2026-05-02T13:05:54.001Z</time></trkpt><trkpt lat="43.29588707445278" lon="11.826167659677843"><ele>246.0</ele><time>2026-05-02T13:05:55.001Z</time></trkpt><trkpt lat="43.295717614899736" lon="11.826251118105212"><ele>246.0</ele><time>2026-05-02T13:05:56.001Z</time></trkpt><trkpt lat="43.29554081493665" lon="11.826333946722155"><ele>246.0</ele><time>2026-05-02T13:05:57.001Z</time></trkpt><trkpt lat="43.295348463419394" lon="11.826404527701197"><ele>246.0</ele><time>2026-05-02T13:05:58.001Z</time></trkpt><trkpt lat="43.29513687596422" lon="11.826450753933985"><ele>246.0</ele><time>2026-05-02T13:05:59.001Z</time></trkpt><trkpt lat="43.29491454179262" lon="11.826469860843105"><ele>246.0</ele><time>2026-05-02T13:06:00.001Z</time></trkpt><trkpt lat="43.2946924298873" lon="11.82648178713936"><ele>246.0</ele><time>2026-05-02T13:06:01.001Z</time></trkpt><trkpt lat="43.2944883041655" lon="11.826489192035458"><ele>246.33333333333331</ele><time>2026-05-02T13:06:02.001Z</time></trkpt><trkpt lat="43.29429736932929" lon="11.826504304634835"><ele>246.66666666666666</ele><time>2026-05-02T13:06:03.001Z</time></trkpt><trkpt lat="43.294119989102384" lon="11.826522152611656"><ele>247.0</ele><time>2026-05-02T13:06:04.001Z</time></trkpt><trkpt lat="43.29394739227215" lon="11.826527492620077"><ele>247.0</ele><time>2026-05-02T13:06:05.001Z</time></trkpt><trkpt lat="43.29378056692716" lon="11.826541455211688"><ele>247.0</ele><time>2026-05-02T13:06:06.001Z</time></trkpt><trkpt lat="43.29360663451406" lon="11.826558875914195"><ele>247.0</ele><time>2026-05-02T13:06:07.001Z</time></trkpt><trkpt lat="43.29343059142485" lon="11.826575219657743"><ele>247.0</ele><time>2026-05-02T13:06:08.001Z</time></trkpt><trkpt lat="43.29325309271038" lon="11.826588288016552"><ele>247.0</ele><time>2026-05-02T13:06:09.001Z</time></trkpt><trkpt lat="43.29307461170272" lon="11.8266010910331"><ele>247.0</ele><time>2026-05-02T13:06:10.001Z</time></trkpt><trkpt lat="43.29289932025869" lon="11.826614107655947"><ele>247.0</ele><time>2026-05-02T13:06:11.001Z</time></trkpt><trkpt lat="43.292721114436084" lon="11.826628292384413"><ele>247.0</ele><time>2026-05-02T13:06:12.001Z</time></trkpt><trkpt lat="43.292533687547085" lon="11.826639605546411"><ele>247.0</ele><time>2026-05-02T13:06:13.001Z</time></trkpt><trkpt lat="43.29233845109968" lon="11.82665005456968"><ele>246.66666666666666</ele><time>2026-05-02T13:06:14.001Z</time></trkpt><trkpt lat="43.29213834682638" lon="11.826651541415004"><ele>246.33333333333331</ele><time>2026-05-02T13:06:15.001Z</time></trkpt><trkpt lat="43.29193980630943" lon="11.826658708835817"><ele>246.0</ele><time>2026-05-02T13:06:16.001Z</time></trkpt><trkpt lat="43.29174253265285" lon="11.826667678735769"><ele>246.0</ele><time>2026-05-02T13:06:17.001Z</time></trkpt><trkpt lat="43.2915531276416" lon="11.826677985258486"><ele>246.0</ele><time>2026-05-02T13:06:18.001Z</time></trkpt><trkpt lat="43.29136850850413" lon="11.826687309966248"><ele>246.0</ele><time>2026-05-02T13:06:19.001Z</time></trkpt><trkpt lat="43.291190769790056" lon="11.826696740400122"><ele>245.33333333333331</ele><time>2026-05-02T13:06:20.001Z</time></trkpt><trkpt lat="43.29102315302113" lon="11.826703834998348"><ele>244.66666666666666</ele><time>2026-05-02T13:06:21.001Z</time></trkpt><trkpt lat="43.2908613372779" lon="11.826708859957508"><ele>244.0</ele><time>2026-05-02T13:06:22.001Z</time></trkpt><trkpt lat="43.2907017534408" lon="11.82671358588825"><ele>244.5</ele><time>2026-05-02T13:06:23.001Z</time></trkpt><trkpt lat="43.290541551484885" lon="11.826718023599593"><ele>245.0</ele><time>2026-05-02T13:06:24.001Z</time></trkpt><trkpt lat="43.29039018186085" lon="11.826726294848195"><ele>245.5</ele><time>2026-05-02T13:06:25.001Z</time></trkpt><trkpt lat="43.290259649716745" lon="11.826732870672474"><ele>246.0</ele><time>2026-05-02T13:06:26.001Z</time></trkpt><trkpt lat="43.29014968962067" lon="11.826737146372736"><ele>246.0</ele><time>2026-05-02T13:06:27.001Z</time></trkpt><trkpt lat="43.2900506232512" lon="11.82674048093439"><ele>246.0</ele><time>2026-05-02T13:06:28.001Z</time></trkpt><trkpt lat="43.28996513724914" lon="11.826743091176372"><ele>246.0</ele><time>2026-05-02T13:06:29.001Z</time></trkpt><trkpt lat="43.28988648300474" lon="11.826740274749534"><ele>246.0</ele><time>2026-05-02T13:06:30.001Z</time></trkpt><trkpt lat="43.289812679449554" lon="11.82674536902628"><ele>246.0</ele><time>2026-05-02T13:06:31.001Z</time></trkpt><trkpt lat="43.28972851552232" lon="11.826747415244961"><ele>246.0</ele><time>2026-05-02T13:06:32.001Z</time></trkpt><trkpt lat="43.28962727292275" lon="11.82675099281542"><ele>246.0</ele><time>2026-05-02T13:06:33.001Z</time></trkpt><trkpt lat="43.28951869645133" lon="11.826755131043152"><ele>246.0</ele><time>2026-05-02T13:06:34Z</time></trkpt><trkpt lat="43.28940198596891" lon="11.826759327650544"><ele>246.0</ele><time>2026-05-02T13:06:35Z</time></trkpt><trkpt lat="43.28928201039591" lon="11.82676371545411"><ele>246.0</ele><time>2026-05-02T13:06:36Z</time></trkpt><trkpt lat="43.28915877049219" lon="11.826768389185371"><ele>246.0</ele><time>2026-05-02T13:06:37Z</time></trkpt><trkpt lat="43.289028702747274" lon="11.826772773467507"><ele>246.0</ele><time>2026-05-02T13:06:38Z</time></trkpt><trkpt lat="43.28888884093277" lon="11.826780535333016"><ele>246.0</ele><time>2026-05-02T13:06:39Z</time></trkpt><trkpt lat="43.288740584895514" lon="11.826787014756745"><ele>246.0</ele><time>2026-05-02T13:06:40Z</time></trkpt><trkpt lat="43.28857743299182" lon="11.826791074376295"><ele>246.0</ele><time>2026-05-02T13:06:41Z</time></trkpt><trkpt lat="43.28841036214362" lon="11.826794699955874"><ele>246.0</ele><time>2026-05-02T13:06:42Z</time></trkpt><trkpt lat="43.28823759107452" lon="11.826801366047523"><ele>246.0</ele><time>2026-05-02T13:06:43Z</time></trkpt><trkpt lat="43.288064332431595" lon="11.826808052833332"><ele>246.0</ele><time>2026-05-02T13:06:44Z</time></trkpt><trkpt lat="43.28788820855002" lon="11.826820179005521"><ele>246.0</ele><time>2026-05-02T13:06:45Z</time></trkpt><trkpt lat="43.28771454284365" lon="11.826825438833357"><ele>246.0</ele><time>2026-05-02T13:06:46Z</time></trkpt><trkpt lat="43.28753614963571" lon="11.826831700351773"><ele>246.0</ele><time>2026-05-02T13:06:47Z</time></trkpt><trkpt lat="43.28736129651646" lon="11.826833817113261"><ele>246.0</ele><time>2026-05-02T13:06:48Z</time></trkpt><trkpt lat="43.2871790778098" lon="11.82682984649827"><ele>246.0</ele><time>2026-05-02T13:06:49Z</time></trkpt><trkpt lat="43.28699162498921" lon="11.826822474082377"><ele>246.0</ele><time>2026-05-02T13:06:50Z</time></trkpt><trkpt lat="43.28679641350519" lon="11.826808421336935"><ele>246.0</ele><time>2026-05-02T13:06:51Z</time></trkpt><trkpt lat="43.28659813704726" lon="11.826797978584755"><ele>246.0</ele><time>2026-05-02T13:06:52Z</time></trkpt><trkpt lat="43.28640139149773" lon="11.826782200561084"><ele>246.0</ele><time>2026-05-02T13:06:53Z</time></trkpt><trkpt lat="43.28621703309652" lon="11.826764525262055"><ele>246.0</ele><time>2026-05-02T13:06:54Z</time></trkpt><trkpt lat="43.286032545800666" lon="11.826751597802032"><ele>246.0</ele><time>2026-05-02T13:06:55Z</time></trkpt><trkpt lat="43.285852722885004" lon="11.82673464616104"><ele>246.0</ele><time>2026-05-02T13:06:56Z</time></trkpt><trkpt lat="43.28566979652831" lon="11.826719698537877"><ele>246.0</ele><time>2026-05-02T13:06:57Z</time></trkpt><trkpt lat="43.28547847269471" lon="11.826706345961798"><ele>246.0</ele><time>2026-05-02T13:06:58Z</time></trkpt><trkpt lat="43.28528803505408" lon="11.826688290058023"><ele>246.33333333333331</ele><time>2026-05-02T13:06:59Z</time></trkpt><trkpt lat="43.28509347290846" lon="11.82667046533011"><ele>246.66666666666666</ele><time>2026-05-02T13:07:00Z</time></trkpt><trkpt lat="43.28489940146137" lon="11.826653942263416"><ele>247.0</ele><time>2026-05-02T13:07:01Z</time></trkpt><trkpt lat="43.284707655432825" lon="11.826643136427375"><ele>246.33333333333331</ele><time>2026-05-02T13:07:02Z</time></trkpt><trkpt lat="43.28451460131692" lon="11.826623011608321"><ele>245.66666666666669</ele><time>2026-05-02T13:07:03Z</time></trkpt><trkpt lat="43.28432874986259" lon="11.826602577407595"><ele>245.0</ele><time>2026-05-02T13:07:04.001Z</time></trkpt><trkpt lat="43.28414534979596" lon="11.826590933074154"><ele>245.0</ele><time>2026-05-02T13:07:05.001Z</time></trkpt><trkpt lat="43.283966703466525" lon="11.826580035358363"><ele>245.0</ele><time>2026-05-02T13:07:06.001Z</time></trkpt><trkpt lat="43.28378084939587" lon="11.826559575478147"><ele>245.0</ele><time>2026-05-02T13:07:07.001Z</time></trkpt><trkpt lat="43.28360665455469" lon="11.826550875253442"><ele>245.33333333333334</ele><time>2026-05-02T13:07:08.001Z</time></trkpt><trkpt lat="43.283431334754965" lon="11.82653802428853"><ele>245.66666666666669</ele><time>2026-05-02T13:07:09.001Z</time></trkpt><trkpt lat="43.28326219157994" lon="11.826516784494308"><ele>246.0</ele><time>2026-05-02T13:07:10.001Z</time></trkpt><trkpt lat="43.28309232575882" lon="11.826501351482204"><ele>246.33333333333331</ele><time>2026-05-02T13:07:11.001Z</time></trkpt><trkpt lat="43.28291702212856" lon="11.826487384129363"><ele>246.66666666666666</ele><time>2026-05-02T13:07:12.001Z</time></trkpt><trkpt lat="43.28274074624686" lon="11.826470391418397"><ele>247.0</ele><time>2026-05-02T13:07:13.001Z</time></trkpt><trkpt lat="43.28255555798907" lon="11.826459908462986"><ele>247.0</ele><time>2026-05-02T13:07:14.001Z</time></trkpt><trkpt lat="43.28236623301186" lon="11.82644570297255"><ele>247.0</ele><time>2026-05-02T13:07:15.001Z</time></trkpt><trkpt lat="43.28217110402532" lon="11.82642834585383"><ele>247.0</ele><time>2026-05-02T13:07:16.001Z</time></trkpt><trkpt lat="43.28197216839568" lon="11.826408377956408"><ele>247.0</ele><time>2026-05-02T13:07:17.001Z</time></trkpt><trkpt lat="43.28177108310959" lon="11.826389148952634"><ele>247.0</ele><time>2026-05-02T13:07:18.001Z</time></trkpt><trkpt lat="43.2815668428433" lon="11.826371044641217"><ele>247.0</ele><time>2026-05-02T13:07:19.001Z</time></trkpt><trkpt lat="43.28136691406722" lon="11.826356415602714"><ele>246.33333333333331</ele><time>2026-05-02T13:07:20.001Z</time></trkpt><trkpt lat="43.28116805126479" lon="11.826341664499598"><ele>245.66666666666669</ele><time>2026-05-02T13:07:21.001Z</time></trkpt><trkpt lat="43.28097177321297" lon="11.826322726644252"><ele>245.0</ele><time>2026-05-02T13:07:22.001Z</time></trkpt><trkpt lat="43.28077416428859" lon="11.82630713941267"><ele>245.33333333333334</ele><time>2026-05-02T13:07:23.001Z</time></trkpt><trkpt lat="43.28058036452692" lon="11.826291558915456"><ele>245.66666666666669</ele><time>2026-05-02T13:07:24.001Z</time></trkpt><trkpt lat="43.28039997261272" lon="11.82627330795051"><ele>246.0</ele><time>2026-05-02T13:07:25.001Z</time></trkpt><trkpt lat="43.28021554041375" lon="11.826254408836052"><ele>246.0</ele><time>2026-05-02T13:07:26.001Z</time></trkpt><trkpt lat="43.28002673930687" lon="11.826237036958151"><ele>246.0</ele><time>2026-05-02T13:07:27.001Z</time></trkpt><trkpt lat="43.2798360688787" lon="11.82622339117427"><ele>246.0</ele><time>2026-05-02T13:07:28.001Z</time></trkpt><trkpt lat="43.27965041117282" lon="11.826207343245926"><ele>246.0</ele><time>2026-05-02T13:07:29.001Z</time></trkpt><trkpt lat="43.27946010986358" lon="11.826192951953695"><ele>246.0</ele><time>2026-05-02T13:07:30.001Z</time></trkpt><trkpt lat="43.27926614810959" lon="11.826181059623588"><ele>246.0</ele><time>2026-05-02T13:07:31.001Z</time></trkpt><trkpt lat="43.279066261884516" lon="11.826169749355032"><ele>245.66666666666669</ele><time>2026-05-02T13:07:32.001Z</time></trkpt><trkpt lat="43.27885988858244" lon="11.826154265016559"><ele>245.33333333333334</ele><time>2026-05-02T13:07:33.001Z</time></trkpt><trkpt lat="43.278650994155164" lon="11.826134523086335"><ele>245.0</ele><time>2026-05-02T13:07:34.001Z</time></trkpt><trkpt lat="43.27844580964556" lon="11.826112586556297"><ele>245.0</ele><time>2026-05-02T13:07:35.001Z</time></trkpt><trkpt lat="43.27824367001593" lon="11.82609683327757"><ele>245.0</ele><time>2026-05-02T13:07:36.001Z</time></trkpt><trkpt lat="43.27804067643436" lon="11.826076122430361"><ele>245.0</ele><time>2026-05-02T13:07:37.001Z</time></trkpt><trkpt lat="43.27783568511873" lon="11.826058341150294"><ele>245.0</ele><time>2026-05-02T13:07:38.001Z</time></trkpt><trkpt lat="43.27762782073205" lon="11.826042504064914"><ele>245.0</ele><time>2026-05-02T13:07:39.001Z</time></trkpt><trkpt lat="43.27741723240135" lon="11.826024551791066"><ele>245.0</ele><time>2026-05-02T13:07:40.001Z</time></trkpt><trkpt lat="43.27720742586912" lon="11.826004732569125"><ele>245.0</ele><time>2026-05-02T13:07:41.001Z</time></trkpt><trkpt lat="43.27699930833047" lon="11.825985227227457"><ele>245.0</ele><time>2026-05-02T13:07:42.001Z</time></trkpt><trkpt lat="43.27679214700656" lon="11.825969654412479"><ele>245.0</ele><time>2026-05-02T13:07:43.001Z</time></trkpt><trkpt lat="43.276586895750704" lon="11.825955985257714"><ele>245.66666666666669</ele><time>2026-05-02T13:07:44.001Z</time></trkpt><trkpt lat="43.276388106868794" lon="11.825938405935258"><ele>246.33333333333331</ele><time>2026-05-02T13:07:45.001Z</time></trkpt><trkpt lat="43.276193076003096" lon="11.825920702316612"><ele>247.0</ele><time>2026-05-02T13:07:46.001Z</time></trkpt><trkpt lat="43.27599820196695" lon="11.825909411809521"><ele>247.0</ele><time>2026-05-02T13:07:47.001Z</time></trkpt><trkpt lat="43.27580782734309" lon="11.825893448276325"><ele>247.0</ele><time>2026-05-02T13:07:48.001Z</time></trkpt><trkpt lat="43.27561372902659" lon="11.825873597462802"><ele>247.0</ele><time>2026-05-02T13:07:49.001Z</time></trkpt><trkpt lat="43.2754208035928" lon="11.825853031971675"><ele>246.66666666666666</ele><time>2026-05-02T13:07:50.001Z</time></trkpt><trkpt lat="43.27523019085069" lon="11.82583490351869"><ele>246.33333333333331</ele><time>2026-05-02T13:07:51.001Z</time></trkpt><trkpt lat="43.27504092999185" lon="11.825817280447366"><ele>246.0</ele><time>2026-05-02T13:07:52.001Z</time></trkpt><trkpt lat="43.274841358604384" lon="11.825795204368223"><ele>245.66666666666669</ele><time>2026-05-02T13:07:53.001Z</time></trkpt><trkpt lat="43.27463575347565" lon="11.825761696759226"><ele>245.33333333333334</ele><time>2026-05-02T13:07:54.001Z</time></trkpt><trkpt lat="43.27442912440645" lon="11.825716989987896"><ele>245.0</ele><time>2026-05-02T13:07:55.001Z</time></trkpt><trkpt lat="43.274226232147534" lon="11.825661356052857"><ele>245.0</ele><time>2026-05-02T13:07:56.001Z</time></trkpt><trkpt lat="43.27403592211037" lon="11.825600503302452"><ele>245.0</ele><time>2026-05-02T13:07:57.001Z</time></trkpt><trkpt lat="43.27385723443952" lon="11.825531671561135"><ele>245.0</ele><time>2026-05-02T13:07:58.001Z</time></trkpt><trkpt lat="43.2736847787263" lon="11.825457340631623"><ele>246.0</ele><time>2026-05-02T13:07:59.001Z</time></trkpt><trkpt lat="43.2735096351101" lon="11.825381067561095"><ele>247.0</ele><time>2026-05-02T13:08:00.001Z</time></trkpt><trkpt lat="43.27333516631133" lon="11.825304996092148"><ele>248.0</ele><time>2026-05-02T13:08:01.001Z</time></trkpt><trkpt lat="43.2731646335098" lon="11.825230190333038"><ele>248.0</ele><time>2026-05-02T13:08:02.001Z</time></trkpt><trkpt lat="43.27300403700909" lon="11.825159970380971"><ele>248.0</ele><time>2026-05-02T13:08:03.001Z</time></trkpt><trkpt lat="43.272851458654486" lon="11.825092139347197"><ele>248.0</ele><time>2026-05-02T13:08:04.001Z</time></trkpt><trkpt lat="43.272703382419195" lon="11.825028844846553"><ele>248.25</ele><time>2026-05-02T13:08:05.001Z</time></trkpt><trkpt lat="43.27256318167781" lon="11.824969043038626"><ele>248.5</ele><time>2026-05-02T13:08:06.001Z</time></trkpt><trkpt lat="43.27243003255253" lon="11.824913076678365"><ele>248.75</ele><time>2026-05-02T13:08:07.001Z</time></trkpt><trkpt lat="43.27230027412844" lon="11.824858165350415"><ele>249.0</ele><time>2026-05-02T13:08:08.001Z</time></trkpt><trkpt lat="43.272166450175156" lon="11.824796644267568"><ele>248.5</ele><time>2026-05-02T13:08:09.001Z</time></trkpt><trkpt lat="43.272036382471576" lon="11.824733366583489"><ele>248.0</ele><time>2026-05-02T13:08:10.001Z</time></trkpt><trkpt lat="43.271904706248314" lon="11.82467233768392"><ele>247.5</ele><time>2026-05-02T13:08:11.001Z</time></trkpt><trkpt lat="43.271762390567304" lon="11.824608716634483"><ele>247.0</ele><time>2026-05-02T13:08:12.001Z</time></trkpt><trkpt lat="43.27161842208065" lon="11.824543435972215"><ele>247.0</ele><time>2026-05-02T13:08:13.001Z</time></trkpt><trkpt lat="43.27147165360812" lon="11.824480365235319"><ele>247.0</ele><time>2026-05-02T13:08:14.001Z</time></trkpt><trkpt lat="43.27132228323236" lon="11.82441500907367"><ele>247.0</ele><time>2026-05-02T13:08:15.001Z</time></trkpt><trkpt lat="43.27116755410798" lon="11.824350662103432"><ele>248.0</ele><time>2026-05-02T13:08:16.001Z</time></trkpt><trkpt lat="43.271010444651516" lon="11.82428160096535"><ele>249.0</ele><time>2026-05-02T13:08:17.001Z</time></trkpt><trkpt lat="43.27085125542781" lon="11.824209785581466"><ele>250.0</ele><time>2026-05-02T13:08:18.001Z</time></trkpt><trkpt lat="43.27069245326852" lon="11.824136207627557"><ele>249.33333333333331</ele><time>2026-05-02T13:08:19.001Z</time></trkpt><trkpt lat="43.27053864614619" lon="11.824067748405353"><ele>248.66666666666669</ele><time>2026-05-02T13:08:20.001Z</time></trkpt><trkpt lat="43.27039104554211" lon="11.824005038225076"><ele>248.0</ele><time>2026-05-02T13:08:21.001Z</time></trkpt><trkpt lat="43.270254927340794" lon="11.823942017734197"><ele>248.0</ele><time>2026-05-02T13:08:22.001Z</time></trkpt><trkpt lat="43.27011926251573" lon="11.823882134845332"><ele>248.0</ele><time>2026-05-02T13:08:23.001Z</time></trkpt><trkpt lat="43.26998356728698" lon="11.823821529878796"><ele>248.0</ele><time>2026-05-02T13:08:24.001Z</time></trkpt><trkpt lat="43.26985003728914" lon="11.823761383417313"><ele>248.0</ele><time>2026-05-02T13:08:25.001Z</time></trkpt><trkpt lat="43.269715191534424" lon="11.823703209410066"><ele>248.0</ele><time>2026-05-02T13:08:26.001Z</time></trkpt><trkpt lat="43.269572981097035" lon="11.823645680458398"><ele>248.0</ele><time>2026-05-02T13:08:27.001Z</time></trkpt><trkpt lat="43.26942581127172" lon="11.8235820133952"><ele>248.0</ele><time>2026-05-02T13:08:28.001Z</time></trkpt><trkpt lat="43.26928117973585" lon="11.823514213158672"><ele>248.25</ele><time>2026-05-02T13:08:29.001Z</time></trkpt><trkpt lat="43.26914601176123" lon="11.823456073502788"><ele>248.5</ele><time>2026-05-02T13:08:30.001Z</time></trkpt><trkpt lat="43.26901531845815" lon="11.823401557539597"><ele>248.75</ele><time>2026-05-02T13:08:31.001Z</time></trkpt><trkpt lat="43.26889113524948" lon="11.823346652762803"><ele>249.0</ele><time>2026-05-02T13:08:32.001Z</time></trkpt><trkpt lat="43.26876655995836" lon="11.823291861797074"><ele>249.0</ele><time>2026-05-02T13:08:33.001Z</time></trkpt><trkpt lat="43.26863592962974" lon="11.823231449034445"><ele>249.0</ele><time>2026-05-02T13:08:34.001Z</time></trkpt><trkpt lat="43.26850351701022" lon="11.823169955919392"><ele>249.0</ele><time>2026-05-02T13:08:35.001Z</time></trkpt><trkpt lat="43.2683697867205" lon="11.82311136903266"><ele>249.0</ele><time>2026-05-02T13:08:36.001Z</time></trkpt><trkpt lat="43.268233879177906" lon="11.823049728380095"><ele>249.0</ele><time>2026-05-02T13:08:37.001Z</time></trkpt><trkpt lat="43.26809495610378" lon="11.82298983312159"><ele>249.0</ele><time>2026-05-02T13:08:38.001Z</time></trkpt><trkpt lat="43.26795814250239" lon="11.822928413931344"><ele>249.0</ele><time>2026-05-02T13:08:39.001Z</time></trkpt><trkpt lat="43.26781853022409" lon="11.822868760172591"><ele>249.0</ele><time>2026-05-02T13:08:40Z</time></trkpt><trkpt lat="43.2676884628189" lon="11.822812890209836"><ele>249.0</ele><time>2026-05-02T13:08:41Z</time></trkpt><trkpt lat="43.267555971159155" lon="11.822757912805105"><ele>249.0</ele><time>2026-05-02T13:08:42Z</time></trkpt><trkpt lat="43.267424763457726" lon="11.822702081045797"><ele>249.0</ele><time>2026-05-02T13:08:43Z</time></trkpt><trkpt lat="43.26729166465708" lon="11.82264469260074"><ele>249.0</ele><time>2026-05-02T13:08:44Z</time></trkpt><trkpt lat="43.26715807913681" lon="11.822583765216299"><ele>250.0</ele><time>2026-05-02T13:08:45Z</time></trkpt><trkpt lat="43.26702676214572" lon="11.822523191065738"><ele>251.0</ele><time>2026-05-02T13:08:46Z</time></trkpt><trkpt lat="43.26689453129445" lon="11.822463189741939"><ele>252.0</ele><time>2026-05-02T13:08:47Z</time></trkpt><trkpt lat="43.26676957896154" lon="11.822405846641322"><ele>253.0</ele><time>2026-05-02T13:08:48Z</time></trkpt><trkpt lat="43.26665204114918" lon="11.82235534347621"><ele>252.99999999999997</ele><time>2026-05-02T13:08:49Z</time></trkpt><trkpt lat="43.266540783951434" lon="11.822307401417813"><ele>253.0</ele><time>2026-05-02T13:08:50Z</time></trkpt><trkpt lat="43.26645235964691" lon="11.822267179541669"><ele>253.0</ele><time>2026-05-02T13:08:51Z</time></trkpt><trkpt lat="43.26637549041351" lon="11.822239176437803"><ele>253.0</ele><time>2026-05-02T13:08:52Z</time></trkpt><trkpt lat="43.26630102461402" lon="11.822216465741214"><ele>252.99999999999997</ele><time>2026-05-02T13:08:53Z</time></trkpt><trkpt lat="43.26623355942489" lon="11.822199141343775"><ele>253.0</ele><time>2026-05-02T13:08:54Z</time></trkpt><trkpt lat="43.26615623578586" lon="11.822178665650604"><ele>253.16666666666666</ele><time>2026-05-02T13:08:55Z</time></trkpt><trkpt lat="43.26607261947004" lon="11.822139043963283"><ele>253.33333333333331</ele><time>2026-05-02T13:08:56Z</time></trkpt><trkpt lat="43.26599019474869" lon="11.822097224293453"><ele>253.5</ele><time>2026-05-02T13:08:57Z</time></trkpt><trkpt lat="43.26591108677737" lon="11.822097144687364"><ele>253.66666666666669</ele><time>2026-05-02T13:08:58Z</time></trkpt><trkpt lat="43.2658431253029" lon="11.822125093504122"><ele>253.83333333333334</ele><time>2026-05-02T13:08:59Z</time></trkpt><trkpt lat="43.26580098773135" lon="11.822193088523617"><ele>254.0</ele><time>2026-05-02T13:09:00Z</time></trkpt><trkpt lat="43.26577869745059" lon="11.822290281084072"><ele>254.0</ele><time>2026-05-02T13:09:01Z</time></trkpt><trkpt lat="43.2657832959428" lon="11.822420903247611"><ele>254.0</ele><time>2026-05-02T13:09:02Z</time></trkpt><trkpt lat="43.265783620694314" lon="11.822577980405475"><ele>254.0</ele><time>2026-05-02T13:09:03Z</time></trkpt><trkpt lat="43.2657531947901" lon="11.822761113327942"><ele>254.0</ele><time>2026-05-02T13:09:04Z</time></trkpt><trkpt lat="43.265693456324065" lon="11.822967239109843"><ele>253.33333333333334</ele><time>2026-05-02T13:09:05Z</time></trkpt><trkpt lat="43.265619833788534" lon="11.823175196004053"><ele>252.66666666666669</ele><time>2026-05-02T13:09:06Z</time></trkpt><trkpt lat="43.26554605419455" lon="11.823401439867299"><ele>252.0</ele><time>2026-05-02T13:09:07Z</time></trkpt><trkpt lat="43.265460513577025" lon="11.82362447584161"><ele>250.33333333333331</ele><time>2026-05-02T13:09:08Z</time></trkpt><trkpt lat="43.265435142082076" lon="11.823853569428348"><ele>248.66666666666666</ele><time>2026-05-02T13:09:09.001Z</time></trkpt><trkpt lat="43.26537042418302" lon="11.824053811880166"><ele>247.0</ele><time>2026-05-02T13:09:10.001Z</time></trkpt><trkpt lat="43.265306936548896" lon="11.824243294480821"><ele>246.75</ele><time>2026-05-02T13:09:11.001Z</time></trkpt><trkpt lat="43.26525024916479" lon="11.82442620396626"><ele>246.5</ele><time>2026-05-02T13:09:12.001Z</time></trkpt><trkpt lat="43.26518930297962" lon="11.824604841407023"><ele>246.25</ele><time>2026-05-02T13:09:13.001Z</time></trkpt><trkpt lat="43.26512771780217" lon="11.824774849630465"><ele>246.0</ele><time>2026-05-02T13:09:14.001Z</time></trkpt><trkpt lat="43.265062544700925" lon="11.82494389484336"><ele>246.0</ele><time>2026-05-02T13:09:15.001Z</time></trkpt><trkpt lat="43.26499083023599" lon="11.825115567197152"><ele>246.0</ele><time>2026-05-02T13:09:16.001Z</time></trkpt><trkpt lat="43.26491486803796" lon="11.825262585006449"><ele>246.0</ele><time>2026-05-02T13:09:17.001Z</time></trkpt><trkpt lat="43.264829671043685" lon="11.825386743448195"><ele>246.0</ele><time>2026-05-02T13:09:18.001Z</time></trkpt><trkpt lat="43.26473777956642" lon="11.825516932398632"><ele>246.25</ele><time>2026-05-02T13:09:19.001Z</time></trkpt><trkpt lat="43.264641315927484" lon="11.825642563640937"><ele>246.5</ele><time>2026-05-02T13:09:20.001Z</time></trkpt><trkpt lat="43.2645377846373" lon="11.825754510221355"><ele>246.75</ele><time>2026-05-02T13:09:21.001Z</time></trkpt><trkpt lat="43.264433018169186" lon="11.825856961900131"><ele>247.0</ele><time>2026-05-02T13:09:22.001Z</time></trkpt><trkpt lat="43.26431964732833" lon="11.825948133885726"><ele>246.5</ele><time>2026-05-02T13:09:23.001Z</time></trkpt><trkpt lat="43.26420508940416" lon="11.826025823871793"><ele>246.0</ele><time>2026-05-02T13:09:24.001Z</time></trkpt><trkpt lat="43.26409990494553" lon="11.826086844126394"><ele>245.5</ele><time>2026-05-02T13:09:25.001Z</time></trkpt><trkpt lat="43.263983670850216" lon="11.826142822418266"><ele>245.0</ele><time>2026-05-02T13:09:26.001Z</time></trkpt><trkpt lat="43.263857650798016" lon="11.826190224087183"><ele>246.0</ele><time>2026-05-02T13:09:27.001Z</time></trkpt><trkpt lat="43.26371801537468" lon="11.826234738704096"><ele>247.0</ele><time>2026-05-02T13:09:28.001Z</time></trkpt><trkpt lat="43.263582554941806" lon="11.826268538405401"><ele>248.0</ele><time>2026-05-02T13:09:29.001Z</time></trkpt><trkpt lat="43.26344876959612" lon="11.826296978480572"><ele>249.0</ele><time>2026-05-02T13:09:30.001Z</time></trkpt><trkpt lat="43.26330656160388" lon="11.826323276048768"><ele>249.0</ele><time>2026-05-02T13:09:31.001Z</time></trkpt><trkpt lat="43.26316665298639" lon="11.826358958138565"><ele>249.0</ele><time>2026-05-02T13:09:32.001Z</time></trkpt><trkpt lat="43.26301910667097" lon="11.82640155371787"><ele>249.0</ele><time>2026-05-02T13:09:33.001Z</time></trkpt><trkpt lat="43.26285304467286" lon="11.826419890738258"><ele>248.33333333333331</ele><time>2026-05-02T13:09:34.001Z</time></trkpt><trkpt lat="43.26266071714553" lon="11.826459414489655"><ele>247.66666666666666</ele><time>2026-05-02T13:09:35.001Z</time></trkpt><trkpt lat="43.2624505249672" lon="11.826501978035528"><ele>247.0</ele><time>2026-05-02T13:09:36.001Z</time></trkpt><trkpt lat="43.26222339047613" lon="11.826559393921483"><ele>247.0</ele><time>2026-05-02T13:09:37.001Z</time></trkpt><trkpt lat="43.26198220001806" lon="11.826597774962423"><ele>247.0</ele><time>2026-05-02T13:09:38.001Z</time></trkpt><trkpt lat="43.26173250424623" lon="11.826647862425535"><ele>247.0</ele><time>2026-05-02T13:09:39.001Z</time></trkpt><trkpt lat="43.261473911393644" lon="11.826701920931708"><ele>247.0</ele><time>2026-05-02T13:09:40.001Z</time></trkpt><trkpt lat="43.26121059279414" lon="11.826752282077326"><ele>247.0</ele><time>2026-05-02T13:09:41.001Z</time></trkpt><trkpt lat="43.26094559474921" lon="11.826807099997358"><ele>247.0</ele><time>2026-05-02T13:09:42.001Z</time></trkpt><trkpt lat="43.26068530001935" lon="11.826860142274668"><ele>247.0</ele><time>2026-05-02T13:09:43.001Z</time></trkpt><trkpt lat="43.26043020861051" lon="11.82691864034277"><ele>247.0</ele><time>2026-05-02T13:09:44.001Z</time></trkpt><trkpt lat="43.26018529843045" lon="11.826986292275176"><ele>247.0</ele><time>2026-05-02T13:09:45.001Z</time></trkpt><trkpt lat="43.25996141438877" lon="11.827066623865814"><ele>247.0</ele><time>2026-05-02T13:09:46.001Z</time></trkpt><trkpt lat="43.25974986234853" lon="11.827167765765855"><ele>247.0</ele><time>2026-05-02T13:09:47.001Z</time></trkpt><trkpt lat="43.259543467857185" lon="11.827301113028284"><ele>247.0</ele><time>2026-05-02T13:09:48.001Z</time></trkpt><trkpt lat="43.259332410874855" lon="11.827464476414129"><ele>247.0</ele><time>2026-05-02T13:09:49.001Z</time></trkpt><trkpt lat="43.25912050935766" lon="11.827656359427603"><ele>247.0</ele><time>2026-05-02T13:09:50.001Z</time></trkpt><trkpt lat="43.25891694098784" lon="11.827864391207168"><ele>247.0</ele><time>2026-05-02T13:09:51.001Z</time></trkpt><trkpt lat="43.258719498460486" lon="11.82807282798574"><ele>247.0</ele><time>2026-05-02T13:09:52.001Z</time></trkpt><trkpt lat="43.25852234349381" lon="11.828277215387113"><ele>247.0</ele><time>2026-05-02T13:09:53.001Z</time></trkpt><trkpt lat="43.258325571169664" lon="11.82848151552548"><ele>247.0</ele><time>2026-05-02T13:09:54.001Z</time></trkpt><trkpt lat="43.25812624554802" lon="11.828683316676113"><ele>247.0</ele><time>2026-05-02T13:09:55.001Z</time></trkpt><trkpt lat="43.25791819532784" lon="11.828874389583332"><ele>247.0</ele><time>2026-05-02T13:09:56.001Z</time></trkpt><trkpt lat="43.25769947282656" lon="11.829056226942855"><ele>247.0</ele><time>2026-05-02T13:09:57.001Z</time></trkpt><trkpt lat="43.25746403622451" lon="11.829225857105047"><ele>247.0</ele><time>2026-05-02T13:09:58.001Z</time></trkpt><trkpt lat="43.25721605718327" lon="11.829380565719594"><ele>246.5</ele><time>2026-05-02T13:09:59.001Z</time></trkpt><trkpt lat="43.256956923435425" lon="11.829514146416106"><ele>246.0</ele><time>2026-05-02T13:10:00.001Z</time></trkpt><trkpt lat="43.256684921231404" lon="11.829623903491717"><ele>246.5</ele><time>2026-05-02T13:10:01.001Z</time></trkpt><trkpt lat="43.25640695233053" lon="11.82970345177718"><ele>247.0</ele><time>2026-05-02T13:10:02.001Z</time></trkpt><trkpt lat="43.25612314918059" lon="11.829766614558952"><ele>247.0</ele><time>2026-05-02T13:10:03.001Z</time></trkpt><trkpt lat="43.255839435706235" lon="11.829825381502925"><ele>247.0</ele><time>2026-05-02T13:10:04.001Z</time></trkpt><trkpt lat="43.2555728826416" lon="11.829880186566761"><ele>246.5</ele><time>2026-05-02T13:10:05.001Z</time></trkpt><trkpt lat="43.255323283942396" lon="11.829936065566352"><ele>246.0</ele><time>2026-05-02T13:10:06.001Z</time></trkpt><trkpt lat="43.255087975616995" lon="11.829990480513217"><ele>246.0</ele><time>2026-05-02T13:10:07.001Z</time></trkpt><trkpt lat="43.25485400664384" lon="11.830039382210508"><ele>246.0</ele><time>2026-05-02T13:10:08.001Z</time></trkpt><trkpt lat="43.25461782536951" lon="11.830082264724718"><ele>246.0</ele><time>2026-05-02T13:10:09.001Z</time></trkpt><trkpt lat="43.25437120399333" lon="11.83011098519052"><ele>246.0</ele><time>2026-05-02T13:10:10.001Z</time></trkpt><trkpt lat="43.25412655630463" lon="11.830115762966305"><ele>247.5</ele><time>2026-05-02T13:10:11.001Z</time></trkpt><trkpt lat="43.253883210207164" lon="11.83010263044384"><ele>249.0</ele><time>2026-05-02T13:10:12.001Z</time></trkpt><trkpt lat="43.253627284007386" lon="11.830074067867766"><ele>249.0</ele><time>2026-05-02T13:10:13.001Z</time></trkpt><trkpt lat="43.25337237526014" lon="11.830017848596794"><ele>249.0</ele><time>2026-05-02T13:10:14.001Z</time></trkpt><trkpt lat="43.25312101808839" lon="11.8299335631898"><ele>247.5</ele><time>2026-05-02T13:10:15.001Z</time></trkpt><trkpt lat="43.25287493344182" lon="11.829836973831997"><ele>246.0</ele><time>2026-05-02T13:10:16.001Z</time></trkpt><trkpt lat="43.25263202452906" lon="11.829736874369308"><ele>246.0</ele><time>2026-05-02T13:10:17.001Z</time></trkpt><trkpt lat="43.252389712403996" lon="11.82965309113954"><ele>246.0</ele><time>2026-05-02T13:10:18.001Z</time></trkpt><trkpt lat="43.25215658729952" lon="11.829594893899849"><ele>246.5</ele><time>2026-05-02T13:10:19.001Z</time></trkpt><trkpt lat="43.251920205423936" lon="11.829558282043436"><ele>247.0</ele><time>2026-05-02T13:10:20.001Z</time></trkpt><trkpt lat="43.2516751208118" lon="11.829537407947624"><ele>247.5</ele><time>2026-05-02T13:10:21.001Z</time></trkpt><trkpt lat="43.251426550295456" lon="11.829524849251747"><ele>248.0</ele><time>2026-05-02T13:10:22.001Z</time></trkpt><trkpt lat="43.251178180408" lon="11.82952818413764"><ele>248.0</ele><time>2026-05-02T13:10:23.001Z</time></trkpt><trkpt lat="43.25094761048962" lon="11.829550140401986"><ele>248.0</ele><time>2026-05-02T13:10:24.001Z</time></trkpt><trkpt lat="43.250721822386424" lon="11.829588976944116"><ele>248.5</ele><time>2026-05-02T13:10:25.001Z</time></trkpt><trkpt lat="43.250489927790795" lon="11.82964541338384"><ele>249.0</ele><time>2026-05-02T13:10:26.001Z</time></trkpt><trkpt lat="43.25025763689261" lon="11.829719018517412"><ele>249.0</ele><time>2026-05-02T13:10:27.001Z</time></trkpt><trkpt lat="43.250024736788326" lon="11.82980404750956"><ele>249.0</ele><time>2026-05-02T13:10:28.001Z</time></trkpt><trkpt lat="43.24979498859167" lon="11.829902109527008"><ele>249.0</ele><time>2026-05-02T13:10:29.001Z</time></trkpt><trkpt lat="43.24956947751507" lon="11.830003773154761"><ele>249.0</ele><time>2026-05-02T13:10:30.001Z</time></trkpt><trkpt lat="43.2493391419166" lon="11.8301018170679"><ele>248.5</ele><time>2026-05-02T13:10:31.001Z</time></trkpt><trkpt lat="43.24910300189026" lon="11.83017697523734"><ele>248.0</ele><time>2026-05-02T13:10:32.001Z</time></trkpt><trkpt lat="43.24885934133268" lon="11.830238065928233"><ele>248.0</ele><time>2026-05-02T13:10:33.001Z</time></trkpt><trkpt lat="43.24861728705443" lon="11.830272104424132"><ele>248.0</ele><time>2026-05-02T13:10:34.001Z</time></trkpt><trkpt lat="43.24838193059702" lon="11.830282809542537"><ele>248.0</ele><time>2026-05-02T13:10:35.001Z</time></trkpt><trkpt lat="43.2481447949488" lon="11.830272665930472"><ele>248.0</ele><time>2026-05-02T13:10:36.001Z</time></trkpt><trkpt lat="43.2479036305388" lon="11.830242603300354"><ele>247.5</ele><time>2026-05-02T13:10:37.001Z</time></trkpt><trkpt lat="43.247663557093155" lon="11.830187043611254"><ele>247.0</ele><time>2026-05-02T13:10:38.001Z</time></trkpt><trkpt lat="43.247418482634934" lon="11.830115690674466"><ele>247.5</ele><time>2026-05-02T13:10:39.001Z</time></trkpt><trkpt lat="43.24717510378271" lon="11.830029549841093"><ele>248.0</ele><time>2026-05-02T13:10:40.001Z</time></trkpt><trkpt lat="43.246934391710695" lon="11.82993440985717"><ele>248.0</ele><time>2026-05-02T13:10:41.001Z</time></trkpt><trkpt lat="43.24668945301219" lon="11.829840867360787"><ele>248.0</ele><time>2026-05-02T13:10:42.001Z</time></trkpt><trkpt lat="43.24644708098382" lon="11.829750012564212"><ele>247.0</ele><time>2026-05-02T13:10:43.001Z</time></trkpt><trkpt lat="43.24619653946592" lon="11.829661121578557"><ele>246.0</ele><time>2026-05-02T13:10:44.001Z</time></trkpt><trkpt lat="43.24594608822647" lon="11.829567733095146"><ele>246.0</ele><time>2026-05-02T13:10:45.001Z</time></trkpt><trkpt lat="43.24569302688899" lon="11.829477076974413"><ele>246.0</ele><time>2026-05-02T13:10:46Z</time></trkpt><trkpt lat="43.24545375777545" lon="11.829394211739924"><ele>247.0</ele><time>2026-05-02T13:10:47Z</time></trkpt><trkpt lat="43.24519563537474" lon="11.8293045838426"><ele>248.0</ele><time>2026-05-02T13:10:48Z</time></trkpt><trkpt lat="43.244936965469336" lon="11.829200273765391"><ele>248.0</ele><time>2026-05-02T13:10:49Z</time></trkpt><trkpt lat="43.24467670273761" lon="11.829093894903528"><ele>248.0</ele><time>2026-05-02T13:10:50Z</time></trkpt><trkpt lat="43.24443128650746" lon="11.828996949389355"><ele>248.0</ele><time>2026-05-02T13:10:51Z</time></trkpt><trkpt lat="43.244203854616785" lon="11.828913479735464"><ele>248.0</ele><time>2026-05-02T13:10:52Z</time></trkpt><trkpt lat="43.24398402438261" lon="11.828833048316525"><ele>247.5</ele><time>2026-05-02T13:10:53Z</time></trkpt><trkpt lat="43.2437629939339" lon="11.82874495403857"><ele>247.0</ele><time>2026-05-02T13:10:54Z</time></trkpt><trkpt lat="43.24354860287947" lon="11.828639357383862"><ele>247.0</ele><time>2026-05-02T13:10:55Z</time></trkpt><trkpt lat="43.24333126450928" lon="11.828522742583669"><ele>247.0</ele><time>2026-05-02T13:10:56Z</time></trkpt><trkpt lat="43.243108621449664" lon="11.828404926132139"><ele>247.5</ele><time>2026-05-02T13:10:57Z</time></trkpt><trkpt lat="43.24288696566181" lon="11.82828275635783"><ele>248.0</ele><time>2026-05-02T13:10:58Z</time></trkpt><trkpt lat="43.242668289856766" lon="11.828151316589068"><ele>248.0</ele><time>2026-05-02T13:10:59Z</time></trkpt><trkpt lat="43.24245081097947" lon="11.82801049221393"><ele>248.0</ele><time>2026-05-02T13:11:00Z</time></trkpt><trkpt lat="43.24223791215697" lon="11.827862954699903"><ele>247.5</ele><time>2026-05-02T13:11:01Z</time></trkpt><trkpt lat="43.24202516901887" lon="11.827713217200579"><ele>247.0</ele><time>2026-05-02T13:11:02Z</time></trkpt><trkpt lat="43.241811372837944" lon="11.82756259874465"><ele>247.0</ele><time>2026-05-02T13:11:03Z</time></trkpt><trkpt lat="43.24159888298867" lon="11.827406225388346"><ele>247.0</ele><time>2026-05-02T13:11:04.001Z</time></trkpt><trkpt lat="43.24139371640091" lon="11.82725529181642"><ele>247.33333333333331</ele><time>2026-05-02T13:11:05.001Z</time></trkpt><trkpt lat="43.24119915631829" lon="11.827107800026626"><ele>247.66666666666669</ele><time>2026-05-02T13:11:06.001Z</time></trkpt><trkpt lat="43.24102017254846" lon="11.826973236979418"><ele>248.0</ele><time>2026-05-02T13:11:07.001Z</time></trkpt><trkpt lat="43.2408545329592" lon="11.82685237506162"><ele>248.0</ele><time>2026-05-02T13:11:08.001Z</time></trkpt><trkpt lat="43.24070910492012" lon="11.826739661507245"><ele>248.0</ele><time>2026-05-02T13:11:09.001Z</time></trkpt><trkpt lat="43.24057963607584" lon="11.826639525159312"><ele>248.0</ele><time>2026-05-02T13:11:10.001Z</time></trkpt><trkpt lat="43.24046046765327" lon="11.826553140417564"><ele>248.0</ele><time>2026-05-02T13:11:11.001Z</time></trkpt><trkpt lat="43.2403617512984" lon="11.826478435355353"><ele>248.0</ele><time>2026-05-02T13:11:12.001Z</time></trkpt><trkpt lat="43.24028815325513" lon="11.826403364518915"><ele>248.0</ele><time>2026-05-02T13:11:13.001Z</time></trkpt><trkpt lat="43.2402356281637" lon="11.826314358663963"><ele>248.0</ele><time>2026-05-02T13:11:14.001Z</time></trkpt><trkpt lat="43.24019517913491" lon="11.826197966766495"><ele>248.0</ele><time>2026-05-02T13:11:15.001Z</time></trkpt><trkpt lat="43.240154455372874" lon="11.82607354848632"><ele>248.0</ele><time>2026-05-02T13:11:16.001Z</time></trkpt><trkpt lat="43.240097839827115" lon="11.82598888206378"><ele>248.0</ele><time>2026-05-02T13:11:17.001Z</time></trkpt><trkpt lat="43.240025507911064" lon="11.82594563049165"><ele>248.0</ele><time>2026-05-02T13:11:18.001Z</time></trkpt><trkpt lat="43.239929911690034" lon="11.825937012750446"><ele>248.0</ele><time>2026-05-02T13:11:19.001Z</time></trkpt><trkpt lat="43.239816055073135" lon="11.825959292596261"><ele>248.0</ele><time>2026-05-02T13:11:20.001Z</time></trkpt><trkpt lat="43.23969037018743" lon="11.825982130202965"><ele>248.33333333333334</ele><time>2026-05-02T13:11:21.001Z</time></trkpt><trkpt lat="43.239557910039906" lon="11.825978838900427"><ele>248.66666666666669</ele><time>2026-05-02T13:11:22.001Z</time></trkpt><trkpt lat="43.23940386004017" lon="11.8259231814044"><ele>249.0</ele><time>2026-05-02T13:11:23.001Z</time></trkpt><trkpt lat="43.23922651666162" lon="11.825812064758432"><ele>249.0</ele><time>2026-05-02T13:11:24.001Z</time></trkpt><trkpt lat="43.23903130055194" lon="11.825690886838464"><ele>249.0</ele><time>2026-05-02T13:11:25.001Z</time></trkpt><trkpt lat="43.23882398215113" lon="11.825569339545352"><ele>249.0</ele><time>2026-05-02T13:11:26.001Z</time></trkpt><trkpt lat="43.23860789043768" lon="11.825444638775819"><ele>247.5</ele><time>2026-05-02T13:11:27.001Z</time></trkpt><trkpt lat="43.23839096499336" lon="11.825313871028007"><ele>246.0</ele><time>2026-05-02T13:11:28.001Z</time></trkpt><trkpt lat="43.23817326427043" lon="11.825184441569874"><ele>246.0</ele><time>2026-05-02T13:11:29.001Z</time></trkpt><trkpt lat="43.23795670792405" lon="11.825045375671873"><ele>246.0</ele><time>2026-05-02T13:11:30.001Z</time></trkpt><trkpt lat="43.23775097279995" lon="11.82488260233702"><ele>246.0</ele><time>2026-05-02T13:11:31.001Z</time></trkpt><trkpt lat="43.23756253486273" lon="11.824680372386954"><ele>246.0</ele><time>2026-05-02T13:11:32.001Z</time></trkpt><trkpt lat="43.237390877122344" lon="11.824446861778332"><ele>246.0</ele><time>2026-05-02T13:11:33.001Z</time></trkpt><trkpt lat="43.237232206019954" lon="11.824187371341756"><ele>246.0</ele><time>2026-05-02T13:11:34.001Z</time></trkpt><trkpt lat="43.23707631234753" lon="11.823917034934667"><ele>246.0</ele><time>2026-05-02T13:11:35.001Z</time></trkpt><trkpt lat="43.23691870413018" lon="11.823644895893324"><ele>246.0</ele><time>2026-05-02T13:11:36.001Z</time></trkpt><trkpt lat="43.236761110059" lon="11.823374811998292"><ele>246.5</ele><time>2026-05-02T13:11:37.001Z</time></trkpt><trkpt lat="43.23660193576514" lon="11.82311326351436"><ele>247.0</ele><time>2026-05-02T13:11:38.001Z</time></trkpt><trkpt lat="43.23644491854923" lon="11.822855976217005"><ele>247.5</ele><time>2026-05-02T13:11:39.001Z</time></trkpt><trkpt lat="43.23629077820704" lon="11.822606656565597"><ele>248.0</ele><time>2026-05-02T13:11:40.001Z</time></trkpt><trkpt lat="43.23614122902231" lon="11.822360271827769"><ele>248.0</ele><time>2026-05-02T13:11:41.001Z</time></trkpt><trkpt lat="43.23598657144984" lon="11.822115300982524"><ele>248.0</ele><time>2026-05-02T13:11:42.001Z</time></trkpt><trkpt lat="43.2358293762986" lon="11.821875664629522"><ele>248.0</ele><time>2026-05-02T13:11:43.001Z</time></trkpt><trkpt lat="43.235664811346005" lon="11.821647945856135"><ele>248.0</ele><time>2026-05-02T13:11:44.001Z</time></trkpt><trkpt lat="43.23549933101149" lon="11.82142949109058"><ele>247.5</ele><time>2026-05-02T13:11:45.001Z</time></trkpt><trkpt lat="43.235319715415926" lon="11.821201475746031"><ele>247.0</ele><time>2026-05-02T13:11:46.001Z</time></trkpt><trkpt lat="43.235116898362605" lon="11.82101730864993"><ele>247.5</ele><time>2026-05-02T13:11:47.001Z</time></trkpt><trkpt lat="43.23490740763706" lon="11.820846483799862"><ele>248.0</ele><time>2026-05-02T13:11:48.001Z</time></trkpt><trkpt lat="43.234684273701646" lon="11.820705968723864"><ele>248.0</ele><time>2026-05-02T13:11:49.001Z</time></trkpt><trkpt lat="43.23446381920321" lon="11.820558766472615"><ele>248.0</ele><time>2026-05-02T13:11:50.001Z</time></trkpt><trkpt lat="43.23423196716783" lon="11.820438688946695"><ele>248.0</ele><time>2026-05-02T13:11:51.001Z</time></trkpt><trkpt lat="43.233995502954464" lon="11.820324009751376"><ele>248.0</ele><time>2026-05-02T13:11:52.001Z</time></trkpt><trkpt lat="43.23376521149681" lon="11.820193364860339"><ele>248.0</ele><time>2026-05-02T13:11:53.001Z</time></trkpt><trkpt lat="43.23353909633193" lon="11.820048262168141"><ele>248.0</ele><time>2026-05-02T13:11:54.001Z</time></trkpt><trkpt lat="43.23331793504061" lon="11.819869115980266"><ele>247.5</ele><time>2026-05-02T13:11:55.001Z</time></trkpt><trkpt lat="43.23310103213999" lon="11.819675042626033"><ele>247.0</ele><time>2026-05-02T13:11:56.001Z</time></trkpt><trkpt lat="43.2328911450908" lon="11.819464958118258"><ele>247.5</ele><time>2026-05-02T13:11:57.001Z</time></trkpt><trkpt lat="43.23267914960778" lon="11.819249329255003"><ele>248.0</ele><time>2026-05-02T13:11:58.001Z</time></trkpt><trkpt lat="43.23246533904292" lon="11.819035010236204"><ele>247.5</ele><time>2026-05-02T13:11:59.001Z</time></trkpt><trkpt lat="43.2322497681236" lon="11.818817761911019"><ele>247.0</ele><time>2026-05-02T13:12:00.001Z</time></trkpt><trkpt lat="43.23204128485806" lon="11.818609138033791"><ele>248.0</ele><time>2026-05-02T13:12:01.001Z</time></trkpt><trkpt lat="43.23183946352179" lon="11.818412355696996"><ele>249.0</ele><time>2026-05-02T13:12:02.001Z</time></trkpt><trkpt lat="43.23164895844098" lon="11.818230864650593"><ele>248.0</ele><time>2026-05-02T13:12:03.001Z</time></trkpt><trkpt lat="43.23146565839704" lon="11.818047991656005"><ele>247.0</ele><time>2026-05-02T13:12:04.001Z</time></trkpt><trkpt lat="43.23127666675996" lon="11.817859312588064"><ele>247.0</ele><time>2026-05-02T13:12:05.001Z</time></trkpt><trkpt lat="43.2310926244714" lon="11.817673187897626"><ele>247.0</ele><time>2026-05-02T13:12:06.001Z</time></trkpt><trkpt lat="43.23092460934983" lon="11.817495953350756"><ele>247.0</ele><time>2026-05-02T13:12:07.001Z</time></trkpt><trkpt lat="43.23076834962977" lon="11.817335500411325"><ele>246.66666666666666</ele><time>2026-05-02T13:12:08.001Z</time></trkpt><trkpt lat="43.23061855914601" lon="11.817172589321785"><ele>246.33333333333331</ele><time>2026-05-02T13:12:09.001Z</time></trkpt><trkpt lat="43.23048674789678" lon="11.816994007978119"><ele>246.0</ele><time>2026-05-02T13:12:10.001Z</time></trkpt><trkpt lat="43.23037659667143" lon="11.816797524348447"><ele>246.0</ele><time>2026-05-02T13:12:11.001Z</time></trkpt><trkpt lat="43.23029406627216" lon="11.816608150200986"><ele>246.0</ele><time>2026-05-02T13:12:12.001Z</time></trkpt><trkpt lat="43.23025840125818" lon="11.816398647539236"><ele>246.0</ele><time>2026-05-02T13:12:13.001Z</time></trkpt><trkpt lat="43.23023812755507" lon="11.81620735045503"><ele>246.0</ele><time>2026-05-02T13:12:14.001Z</time></trkpt><trkpt lat="43.23022898334651" lon="11.816060205684208"><ele>246.0</ele><time>2026-05-02T13:12:15.001Z</time></trkpt><trkpt lat="43.23022478379263" lon="11.815931635710337"><ele>246.0</ele><time>2026-05-02T13:12:16.001Z</time></trkpt><trkpt lat="43.23026766920259" lon="11.815830409452955"><ele>246.0</ele><time>2026-05-02T13:12:17.001Z</time></trkpt><trkpt lat="43.23040479962726" lon="11.815677555645488"><ele>246.28571428571433</ele><time>2026-05-02T13:12:19.001Z</time></trkpt><trkpt lat="43.23043549151748" lon="11.815590547449078"><ele>246.57142857142858</ele><time>2026-05-02T13:12:20.001Z</time></trkpt><trkpt lat="43.23043516246534" lon="11.815502993441571"><ele>246.8571428571429</ele><time>2026-05-02T13:12:21.001Z</time></trkpt><trkpt lat="43.23040408044665" lon="11.815423249179226"><ele>247.14285714285717</ele><time>2026-05-02T13:12:22.001Z</time></trkpt><trkpt lat="43.2303455868098" lon="11.815366860148872"><ele>247.42857142857144</ele><time>2026-05-02T13:12:23.001Z</time></trkpt><trkpt lat="43.2302666354792" lon="11.815339346908734"><ele>247.71428571428572</ele><time>2026-05-02T13:12:24.001Z</time></trkpt><trkpt lat="43.230176069944854" lon="11.815363847896899"><ele>248.0</ele><time>2026-05-02T13:12:25.001Z</time></trkpt><trkpt lat="43.23006163426985" lon="11.81540115496539"><ele>248.0</ele><time>2026-05-02T13:12:26.001Z</time></trkpt><trkpt lat="43.22992019140844" lon="11.815391884952804"><ele>248.0</ele><time>2026-05-02T13:12:27.001Z</time></trkpt><trkpt lat="43.22975983964813" lon="11.815318963792732"><ele>248.0</ele><time>2026-05-02T13:12:28.001Z</time></trkpt><trkpt lat="43.22958645293536" lon="11.815205087839423"><ele>248.0</ele><time>2026-05-02T13:12:29.001Z</time></trkpt><trkpt lat="43.229402861697906" lon="11.815087017505773"><ele>248.0</ele><time>2026-05-02T13:12:30.001Z</time></trkpt><trkpt lat="43.22923228989444" lon="11.814986645366934"><ele>248.0</ele><time>2026-05-02T13:12:31.001Z</time></trkpt><trkpt lat="43.22898262893751" lon="11.814865845930353"><ele>248.0</ele><time>2026-05-02T13:12:32.001Z</time></trkpt><trkpt lat="43.22876460928075" lon="11.814750455603763"><ele>248.0</ele><time>2026-05-02T13:12:33.001Z</time></trkpt><trkpt lat="43.228544756688564" lon="11.814633477055935"><ele>248.0</ele><time>2026-05-02T13:12:34.001Z</time></trkpt><trkpt lat="43.22832211737028" lon="11.81451288960898"><ele>248.0</ele><time>2026-05-02T13:12:35.001Z</time></trkpt><trkpt lat="43.22809623773424" lon="11.814394641507002"><ele>248.0</ele><time>2026-05-02T13:12:36.001Z</time></trkpt><trkpt lat="43.227874605333575" lon="11.814278861120767"><ele>248.0</ele><time>2026-05-02T13:12:37.001Z</time></trkpt><trkpt lat="43.22766573342293" lon="11.814168581654009"><ele>248.0</ele><time>2026-05-02T13:12:38.001Z</time></trkpt><trkpt lat="43.22746737161395" lon="11.814067637657766"><ele>248.0</ele><time>2026-05-02T13:12:39.001Z</time></trkpt><trkpt lat="43.227279527532886" lon="11.813967400356878"><ele>248.0</ele><time>2026-05-02T13:12:40.001Z</time></trkpt><trkpt lat="43.22710356465042" lon="11.813868941999669"><ele>248.0</ele><time>2026-05-02T13:12:41.001Z</time></trkpt><trkpt lat="43.22693465935988" lon="11.813779863516693"><ele>248.0</ele><time>2026-05-02T13:12:42.001Z</time></trkpt><trkpt lat="43.22677075045655" lon="11.813695511596755"><ele>248.0</ele><time>2026-05-02T13:12:43.001Z</time></trkpt><trkpt lat="43.22659459631917" lon="11.813610734882763"><ele>248.0</ele><time>2026-05-02T13:12:44.001Z</time></trkpt><trkpt lat="43.22642467664481" lon="11.813512464325429"><ele>248.0</ele><time>2026-05-02T13:12:45.001Z</time></trkpt><trkpt lat="43.22622122298076" lon="11.813408965346238"><ele>248.0</ele><time>2026-05-02T13:12:46.001Z</time></trkpt><trkpt lat="43.22602707236627" lon="11.813299423869266"><ele>248.0</ele><time>2026-05-02T13:12:47.001Z</time></trkpt><trkpt lat="43.225823194396135" lon="11.81319285269456"><ele>248.0</ele><time>2026-05-02T13:12:48.001Z</time></trkpt><trkpt lat="43.22561431065765" lon="11.81309238826204"><ele>248.0</ele><time>2026-05-02T13:12:49.001Z</time></trkpt><trkpt lat="43.225407123816375" lon="11.813013356649718"><ele>248.0</ele><time>2026-05-02T13:12:50.001Z</time></trkpt><trkpt lat="43.22520300507964" lon="11.812949131486125"><ele>248.0</ele><time>2026-05-02T13:12:51.001Z</time></trkpt><trkpt lat="43.22499638471389" lon="11.812892079618162"><ele>248.0</ele><time>2026-05-02T13:12:52.001Z</time></trkpt><trkpt lat="43.22479284568964" lon="11.812827404527502"><ele>248.66666666666669</ele><time>2026-05-02T13:12:53.001Z</time></trkpt><trkpt lat="43.22459971326394" lon="11.812736294777926"><ele>249.33333333333331</ele><time>2026-05-02T13:12:54.001Z</time></trkpt><trkpt lat="43.22441003198499" lon="11.812611663951188"><ele>250.0</ele><time>2026-05-02T13:12:55.001Z</time></trkpt><trkpt lat="43.22422174718472" lon="11.81246639770886"><ele>250.0</ele><time>2026-05-02T13:12:56.001Z</time></trkpt><trkpt lat="43.22403694393741" lon="11.812320570216183"><ele>250.0</ele><time>2026-05-02T13:12:57.001Z</time></trkpt><trkpt lat="43.22385059007942" lon="11.81218138057114"><ele>250.0</ele><time>2026-05-02T13:12:58.001Z</time></trkpt><trkpt lat="43.22367616371591" lon="11.812061492338135"><ele>250.5</ele><time>2026-05-02T13:12:59.001Z</time></trkpt><trkpt lat="43.22352412837011" lon="11.811965753302033"><ele>251.0</ele><time>2026-05-02T13:13:00.001Z</time></trkpt><trkpt lat="43.22339112187882" lon="11.811890497717071"><ele>251.5</ele><time>2026-05-02T13:13:01.001Z</time></trkpt><trkpt lat="43.22326793585835" lon="11.811820900252641"><ele>252.0</ele><time>2026-05-02T13:13:02.001Z</time></trkpt><trkpt lat="43.22315163529926" lon="11.81175761117245"><ele>251.6</ele><time>2026-05-02T13:13:03.001Z</time></trkpt><trkpt lat="43.22305702878341" lon="11.811696919243264"><ele>251.2</ele><time>2026-05-02T13:13:04.001Z</time></trkpt><trkpt lat="43.22297882124444" lon="11.811625584658735"><ele>250.8</ele><time>2026-05-02T13:13:05.001Z</time></trkpt><trkpt lat="43.22293003464206" lon="11.811550019136403"><ele>250.4</ele><time>2026-05-02T13:13:06.001Z</time></trkpt><trkpt lat="43.22288377205341" lon="11.811457871700153"><ele>250.0</ele><time>2026-05-02T13:13:08.001Z</time></trkpt><trkpt lat="43.222823745229576" lon="11.811347104543282"><ele>250.0</ele><time>2026-05-02T13:13:18.001Z</time></trkpt><trkpt lat="43.22278474565259" lon="11.81126378507697"><ele>250.0</ele><time>2026-05-02T13:13:19.001Z</time></trkpt><trkpt lat="43.22274072863316" lon="11.811187122304448"><ele>250.0</ele><time>2026-05-02T13:13:20.001Z</time></trkpt><trkpt lat="43.222618668655436" lon="11.811168870849684"><ele>250.0</ele><time>2026-05-02T13:13:22.001Z</time></trkpt><trkpt lat="43.22254026807561" lon="11.811221203379207"><ele>250.0</ele><time>2026-05-02T13:13:23.001Z</time></trkpt><trkpt lat="43.22245408534475" lon="11.811302197497422"><ele>250.0</ele><time>2026-05-02T13:13:24.001Z</time></trkpt><trkpt lat="43.22235505003836" lon="11.811348276695487"><ele>250.0</ele><time>2026-05-02T13:13:25.001Z</time></trkpt><trkpt lat="43.22226097976442" lon="11.811334728234984"><ele>250.0</ele><time>2026-05-02T13:13:26.001Z</time></trkpt><trkpt lat="43.22215698644025" lon="11.811272066673935"><ele>250.0</ele><time>2026-05-02T13:13:27.001Z</time></trkpt><trkpt lat="43.22203968562776" lon="11.811186085038775"><ele>250.0</ele><time>2026-05-02T13:13:28.001Z</time></trkpt><trkpt lat="43.221904077009235" lon="11.811105963276635"><ele>250.66666666666666</ele><time>2026-05-02T13:13:29.001Z</time></trkpt><trkpt lat="43.22175807395371" lon="11.811029373796062"><ele>251.33333333333331</ele><time>2026-05-02T13:13:30.001Z</time></trkpt><trkpt lat="43.22160507513748" lon="11.810946619631482"><ele>252.0</ele><time>2026-05-02T13:13:31.001Z</time></trkpt><trkpt lat="43.22144710056369" lon="11.81086236331323"><ele>252.0</ele><time>2026-05-02T13:13:32.001Z</time></trkpt><trkpt lat="43.221289593815875" lon="11.810777256332564"><ele>252.0</ele><time>2026-05-02T13:13:33.001Z</time></trkpt><trkpt lat="43.221145068349855" lon="11.8106973598044"><ele>252.0</ele><time>2026-05-02T13:13:34.001Z</time></trkpt><trkpt lat="43.221020345610135" lon="11.81062968095704"><ele>252.0</ele><time>2026-05-02T13:13:35.001Z</time></trkpt><trkpt lat="43.22090780142587" lon="11.810569839488014"><ele>252.0</ele><time>2026-05-02T13:13:36.001Z</time></trkpt><trkpt lat="43.22080944116853" lon="11.810517861710839"><ele>252.0</ele><time>2026-05-02T13:13:37.001Z</time></trkpt><trkpt lat="43.22073181604179" lon="11.810476157513978"><ele>252.0</ele><time>2026-05-02T13:13:38.001Z</time></trkpt><trkpt lat="43.22064164453564" lon="11.810406747187649"><ele>252.0</ele><time>2026-05-02T13:13:40.001Z</time></trkpt><trkpt lat="43.22057949829314" lon="11.810282380819501"><ele>251.83333333333334</ele><time>2026-05-02T13:13:42.001Z</time></trkpt><trkpt lat="43.220533362813576" lon="11.810169663205162"><ele>251.66666666666669</ele><time>2026-05-02T13:13:43.001Z</time></trkpt><trkpt lat="43.22047758100213" lon="11.810067635136695"><ele>251.5</ele><time>2026-05-02T13:13:44.001Z</time></trkpt><trkpt lat="43.22042662477042" lon="11.809994172433937"><ele>251.33333333333334</ele><time>2026-05-02T13:13:45.001Z</time></trkpt><trkpt lat="43.22037165928363" lon="11.80994372457459"><ele>251.16666666666669</ele><time>2026-05-02T13:13:46.001Z</time></trkpt><trkpt lat="43.220304690888604" lon="11.809910131386468"><ele>251.0</ele><time>2026-05-02T13:13:47.001Z</time></trkpt><trkpt lat="43.220231827183376" lon="11.809907501871814"><ele>251.00000000000003</ele><time>2026-05-02T13:13:48.001Z</time></trkpt><trkpt lat="43.22016318652196" lon="11.809934143318433"><ele>251.0</ele><time>2026-05-02T13:13:49.001Z</time></trkpt><trkpt lat="43.22009838233731" lon="11.80998266933506"><ele>251.0</ele><time>2026-05-02T13:13:50.001Z</time></trkpt><trkpt lat="43.22003135469089" lon="11.810045913501384"><ele>251.0</ele><time>2026-05-02T13:13:51.001Z</time></trkpt><trkpt lat="43.21998072441613" lon="11.810129275563703"><ele>251.00000000000003</ele><time>2026-05-02T13:13:52.001Z</time></trkpt><trkpt lat="43.21994933039516" lon="11.81021956343506"><ele>251.0</ele><time>2026-05-02T13:13:53.001Z</time></trkpt><trkpt lat="43.219819031829445" lon="11.810178414290242"><ele>250.5</ele><time>2026-05-02T13:13:54.001Z</time></trkpt><trkpt lat="43.21974172617512" lon="11.810185951678795"><ele>250.0</ele><time>2026-05-02T13:13:55.001Z</time></trkpt><trkpt lat="43.21962042582011" lon="11.81019212081731"><ele>249.5</ele><time>2026-05-02T13:13:56.001Z</time></trkpt><trkpt lat="43.219487964588495" lon="11.810184486220573"><ele>249.0</ele><time>2026-05-02T13:13:57.001Z</time></trkpt><trkpt lat="43.21934023566001" lon="11.810174509347432"><ele>249.0</ele><time>2026-05-02T13:13:58.001Z</time></trkpt><trkpt lat="43.219193799735734" lon="11.810165311966765"><ele>249.0</ele><time>2026-05-02T13:13:59.001Z</time></trkpt><trkpt lat="43.21906093074215" lon="11.8101583818009"><ele>249.0</ele><time>2026-05-02T13:14:00.001Z</time></trkpt><trkpt lat="43.218932818121424" lon="11.810149550937494"><ele>249.0</ele><time>2026-05-02T13:14:01.001Z</time></trkpt><trkpt lat="43.21879811637425" lon="11.810139260260296"><ele>250.0</ele><time>2026-05-02T13:14:02.001Z</time></trkpt><trkpt lat="43.218652060479215" lon="11.810127632313172"><ele>251.0</ele><time>2026-05-02T13:14:03.001Z</time></trkpt><trkpt lat="43.218507481891855" lon="11.810106097711968"><ele>252.0</ele><time>2026-05-02T13:14:04.001Z</time></trkpt><trkpt lat="43.21836364159859" lon="11.810070842784123"><ele>253.0</ele><time>2026-05-02T13:14:05.001Z</time></trkpt><trkpt lat="43.21821936212431" lon="11.810031937422139"><ele>253.0</ele><time>2026-05-02T13:14:06.001Z</time></trkpt><trkpt lat="43.218088538302716" lon="11.809996688368853"><ele>253.0</ele><time>2026-05-02T13:14:07.001Z</time></trkpt><trkpt lat="43.2179568689896" lon="11.809962863185266"><ele>253.0</ele><time>2026-05-02T13:14:08.001Z</time></trkpt><trkpt lat="43.21781951557208" lon="11.80993002616416"><ele>253.0</ele><time>2026-05-02T13:14:09.001Z</time></trkpt><trkpt lat="43.21767750795803" lon="11.809893284538889"><ele>252.99999999999997</ele><time>2026-05-02T13:14:10.001Z</time></trkpt><trkpt lat="43.2175643171086" lon="11.809860840829531"><ele>253.0</ele><time>2026-05-02T13:14:11.001Z</time></trkpt><trkpt lat="43.2174668691684" lon="11.809885258181094"><ele>253.0</ele><time>2026-05-02T13:14:12.001Z</time></trkpt><trkpt lat="43.21738540994715" lon="11.809884807745464"><ele>253.0</ele><time>2026-05-02T13:14:13.001Z</time></trkpt><trkpt lat="43.21730751845182" lon="11.809877884649547"><ele>252.99999999999997</ele><time>2026-05-02T13:14:14.001Z</time></trkpt><trkpt lat="43.21723559824703" lon="11.809853512311603"><ele>253.0</ele><time>2026-05-02T13:14:15.001Z</time></trkpt><trkpt lat="43.217169959281186" lon="11.809798567739445"><ele>252.66666666666666</ele><time>2026-05-02T13:14:16.001Z</time></trkpt><trkpt lat="43.21710211372917" lon="11.80971991374482"><ele>252.33333333333331</ele><time>2026-05-02T13:14:17.001Z</time></trkpt><trkpt lat="43.21703581515967" lon="11.809650522902542"><ele>252.0</ele><time>2026-05-02T13:14:18.001Z</time></trkpt><trkpt lat="43.21696838005598" lon="11.809612805987348"><ele>251.66666666666669</ele><time>2026-05-02T13:14:19.001Z</time></trkpt><trkpt lat="43.216898226774795" lon="11.809609614067142"><ele>251.33333333333334</ele><time>2026-05-02T13:14:20.001Z</time></trkpt><trkpt lat="43.21680891458686" lon="11.809628612287371"><ele>251.0</ele><time>2026-05-02T13:14:21.001Z</time></trkpt><trkpt lat="43.21672946157395" lon="11.809664781524958"><ele>251.0</ele><time>2026-05-02T13:14:22.001Z</time></trkpt><trkpt lat="43.216656243680966" lon="11.809698079359519"><ele>251.00000000000003</ele><time>2026-05-02T13:14:23.001Z</time></trkpt><trkpt lat="43.21656621065537" lon="11.809713987067939"><ele>251.00000000000003</ele><time>2026-05-02T13:14:24.001Z</time></trkpt><trkpt lat="43.21647825271276" lon="11.809698630141025"><ele>251.0</ele><time>2026-05-02T13:14:25.001Z</time></trkpt><trkpt lat="43.2163941289361" lon="11.809654184591334"><ele>251.0</ele><time>2026-05-02T13:14:26.001Z</time></trkpt><trkpt lat="43.21628791306968" lon="11.80959527601671"><ele>251.33333333333334</ele><time>2026-05-02T13:14:27.001Z</time></trkpt><trkpt lat="43.21615224587407" lon="11.809522024953264"><ele>251.66666666666669</ele><time>2026-05-02T13:14:28.001Z</time></trkpt><trkpt lat="43.21599193859632" lon="11.809430861316873"><ele>252.0</ele><time>2026-05-02T13:14:29.001Z</time></trkpt><trkpt lat="43.215815806166255" lon="11.809313414328283"><ele>252.0</ele><time>2026-05-02T13:14:30.001Z</time></trkpt><trkpt lat="43.2156248641469" lon="11.809192046901666"><ele>252.0</ele><time>2026-05-02T13:14:31.001Z</time></trkpt><trkpt lat="43.21542249954039" lon="11.809069041023662"><ele>252.0</ele><time>2026-05-02T13:14:32.001Z</time></trkpt><trkpt lat="43.21522131505653" lon="11.80894096707863"><ele>252.0</ele><time>2026-05-02T13:14:33.001Z</time></trkpt><trkpt lat="43.21503337719669" lon="11.808822763313028"><ele>252.0</ele><time>2026-05-02T13:14:34.001Z</time></trkpt><trkpt lat="43.21486206766973" lon="11.808711896326926"><ele>252.0</ele><time>2026-05-02T13:14:35.001Z</time></trkpt><trkpt lat="43.214692042491855" lon="11.808599974706622"><ele>252.66666666666669</ele><time>2026-05-02T13:14:36.001Z</time></trkpt><trkpt lat="43.21453082042751" lon="11.808485510320809"><ele>253.33333333333334</ele><time>2026-05-02T13:14:37.001Z</time></trkpt><trkpt lat="43.21438729764133" lon="11.808383936754712"><ele>254.0</ele><time>2026-05-02T13:14:38.001Z</time></trkpt><trkpt lat="43.21426465094616" lon="11.808276271447658"><ele>254.0</ele><time>2026-05-02T13:14:39.001Z</time></trkpt><trkpt lat="43.214135016258346" lon="11.80815024561508"><ele>254.0</ele><time>2026-05-02T13:14:40.001Z</time></trkpt><trkpt lat="43.21399547060101" lon="11.808010931067829"><ele>254.0</ele><time>2026-05-02T13:14:41.001Z</time></trkpt><trkpt lat="43.21385405894037" lon="11.807872631692671"><ele>254.0</ele><time>2026-05-02T13:14:42.001Z</time></trkpt><trkpt lat="43.21370195900304" lon="11.807718521871019"><ele>254.0</ele><time>2026-05-02T13:14:43.001Z</time></trkpt><trkpt lat="43.21355173291266" lon="11.807571478285338"><ele>254.0</ele><time>2026-05-02T13:14:44.001Z</time></trkpt><trkpt lat="43.21339730437481" lon="11.80741628843955"><ele>255.0</ele><time>2026-05-02T13:14:45.001Z</time></trkpt><trkpt lat="43.21324786757542" lon="11.80726612281165"><ele>256.0</ele><time>2026-05-02T13:14:46.001Z</time></trkpt><trkpt lat="43.21309390889818" lon="11.807114032897982"><ele>257.0</ele><time>2026-05-02T13:14:47.001Z</time></trkpt><trkpt lat="43.21294265727592" lon="11.806953603698476"><ele>257.33333333333337</ele><time>2026-05-02T13:14:48.001Z</time></trkpt><trkpt lat="43.21279518471582" lon="11.806792415754545"><ele>257.6666666666667</ele><time>2026-05-02T13:14:49.001Z</time></trkpt><trkpt lat="43.212656824203044" lon="11.806645876679209"><ele>258.0</ele><time>2026-05-02T13:14:50.001Z</time></trkpt><trkpt lat="43.21253046365846" lon="11.806509890756645"><ele>258.0</ele><time>2026-05-02T13:14:51.001Z</time></trkpt><trkpt lat="43.212421542492" lon="11.806385064330707"><ele>258.0</ele><time>2026-05-02T13:14:52.001Z</time></trkpt><trkpt lat="43.21233017879455" lon="11.806263065253567"><ele>258.0</ele><time>2026-05-02T13:14:53.001Z</time></trkpt><trkpt lat="43.212257160068305" lon="11.80613420500688"><ele>258.0</ele><time>2026-05-02T13:14:54.001Z</time></trkpt><trkpt lat="43.212203660218755" lon="11.805984661514048"><ele>258.5</ele><time>2026-05-02T13:14:55.001Z</time></trkpt><trkpt lat="43.21216468248101" lon="11.805822567234774"><ele>259.0</ele><time>2026-05-02T13:14:56.001Z</time></trkpt><trkpt lat="43.21214785165479" lon="11.805666705962771"><ele>259.5</ele><time>2026-05-02T13:14:57.001Z</time></trkpt><trkpt lat="43.21213999478385" lon="11.805510228482005"><ele>260.0</ele><time>2026-05-02T13:14:58.001Z</time></trkpt><trkpt lat="43.21211465933807" lon="11.805374052187595"><ele>260.0</ele><time>2026-05-02T13:14:59.001Z</time></trkpt><trkpt lat="43.2120565827662" lon="11.805257203708484"><ele>260.0</ele><time>2026-05-02T13:15:00.001Z</time></trkpt><trkpt lat="43.21197665209556" lon="11.805185852900475"><ele>260.0</ele><time>2026-05-02T13:15:01.001Z</time></trkpt><trkpt lat="43.21187880732864" lon="11.80516225961918"><ele>260.0</ele><time>2026-05-02T13:15:02.001Z</time></trkpt><trkpt lat="43.21176933419312" lon="11.805180809313491"><ele>260.0</ele><time>2026-05-02T13:15:03.001Z</time></trkpt><trkpt lat="43.21166511448791" lon="11.805268507019798"><ele>260.0</ele><time>2026-05-02T13:15:04.001Z</time></trkpt><trkpt lat="43.211577584594444" lon="11.805320788211386"><ele>260.0</ele><time>2026-05-02T13:15:05.001Z</time></trkpt><trkpt lat="43.21148717991612" lon="11.805337742099395"><ele>260.0</ele><time>2026-05-02T13:15:06.001Z</time></trkpt><trkpt lat="43.21137844257406" lon="11.805312700523707"><ele>260.0</ele><time>2026-05-02T13:15:07.001Z</time></trkpt><trkpt lat="43.21126651874206" lon="11.805307683400128"><ele>260.0</ele><time>2026-05-02T13:15:08.001Z</time></trkpt><trkpt lat="43.21116911175023" lon="11.80519466408955"><ele>260.5</ele><time>2026-05-02T13:15:09.001Z</time></trkpt><trkpt lat="43.211059889205146" lon="11.805084965630357"><ele>261.0</ele><time>2026-05-02T13:15:10.001Z</time></trkpt><trkpt lat="43.21093753016225" lon="11.804961936886038"><ele>261.5</ele><time>2026-05-02T13:15:11.001Z</time></trkpt><trkpt lat="43.21080624301536" lon="11.804837226366416"><ele>262.0</ele><time>2026-05-02T13:15:12.001Z</time></trkpt><trkpt lat="43.210676705876786" lon="11.80471089752316"><ele>262.3333333333333</ele><time>2026-05-02T13:15:13.001Z</time></trkpt><trkpt lat="43.21054835685314" lon="11.804585617441226"><ele>262.6666666666667</ele><time>2026-05-02T13:15:14.001Z</time></trkpt><trkpt lat="43.210422057483214" lon="11.804467035130857"><ele>263.0</ele><time>2026-05-02T13:15:15.001Z</time></trkpt><trkpt lat="43.2102971877376" lon="11.80434497151584"><ele>263.6666666666667</ele><time>2026-05-02T13:15:16.001Z</time></trkpt><trkpt lat="43.21017220429907" lon="11.804221543664065"><ele>264.3333333333333</ele><time>2026-05-02T13:15:17.001Z</time></trkpt><trkpt lat="43.210050219977525" lon="11.80410258031141"><ele>265.0</ele><time>2026-05-02T13:15:18.001Z</time></trkpt><trkpt lat="43.20992480238748" lon="11.803979097411133"><ele>266.66666666666663</ele><time>2026-05-02T13:15:19.001Z</time></trkpt><trkpt lat="43.20980103874619" lon="11.803859572215044"><ele>268.3333333333333</ele><time>2026-05-02T13:15:20.001Z</time></trkpt><trkpt lat="43.20967881128435" lon="11.803738393254879"><ele>270.0</ele><time>2026-05-02T13:15:21.001Z</time></trkpt><trkpt lat="43.20955498099674" lon="11.803614433253145"><ele>271.0</ele><time>2026-05-02T13:15:22.001Z</time></trkpt><trkpt lat="43.209432479351484" lon="11.803490950560638"><ele>272.0</ele><time>2026-05-02T13:15:23.001Z</time></trkpt><trkpt lat="43.20931965917416" lon="11.80338057645192"><ele>273.0</ele><time>2026-05-02T13:15:24.001Z</time></trkpt><trkpt lat="43.20921016183104" lon="11.803272420079212"><ele>274.0</ele><time>2026-05-02T13:15:25.001Z</time></trkpt><trkpt lat="43.209095265160265" lon="11.80315639679799"><ele>275.5</ele><time>2026-05-02T13:15:26.001Z</time></trkpt><trkpt lat="43.20898170830935" lon="11.803041613210624"><ele>277.0</ele><time>2026-05-02T13:15:27.001Z</time></trkpt><trkpt lat="43.20887937052585" lon="11.802938515762577"><ele>278.5</ele><time>2026-05-02T13:15:28.001Z</time></trkpt><trkpt lat="43.20877427312183" lon="11.80283540991623"><ele>280.0</ele><time>2026-05-02T13:15:29.001Z</time></trkpt><trkpt lat="43.20867852835087" lon="11.802745257547338"><ele>280.0</ele><time>2026-05-02T13:15:30.001Z</time></trkpt><trkpt lat="43.20858852653319" lon="11.802672056250179"><ele>280.0</ele><time>2026-05-02T13:15:31.001Z</time></trkpt><trkpt lat="43.208483790480244" lon="11.802604890079763"><ele>280.0</ele><time>2026-05-02T13:15:32.001Z</time></trkpt><trkpt lat="43.20837589808438" lon="11.80255036758241"><ele>280.0</ele><time>2026-05-02T13:15:33.001Z</time></trkpt><trkpt lat="43.208273355059674" lon="11.802518376914959"><ele>280.0</ele><time>2026-05-02T13:15:34.001Z</time></trkpt><trkpt lat="43.20816158175971" lon="11.802507404281767"><ele>281.4</ele><time>2026-05-02T13:15:35.001Z</time></trkpt><trkpt lat="43.208062254516875" lon="11.802506799817797"><ele>282.8</ele><time>2026-05-02T13:15:36.001Z</time></trkpt><trkpt lat="43.207973325960694" lon="11.802515950232364"><ele>284.2</ele><time>2026-05-02T13:15:37.001Z</time></trkpt><trkpt lat="43.207881876447985" lon="11.802530923354203"><ele>285.6</ele><time>2026-05-02T13:15:38.001Z</time></trkpt><trkpt lat="43.207784897648324" lon="11.802552511552902"><ele>287.0</ele><time>2026-05-02T13:15:39.001Z</time></trkpt><trkpt lat="43.207686850077415" lon="11.802578663768635"><ele>287.0</ele><time>2026-05-02T13:15:40.001Z</time></trkpt><trkpt lat="43.20759181310018" lon="11.802613028330203"><ele>287.0</ele><time>2026-05-02T13:15:41.001Z</time></trkpt><trkpt lat="43.2074982328305" lon="11.802657927135273"><ele>287.0</ele><time>2026-05-02T13:15:42.001Z</time></trkpt><trkpt lat="43.20740333335805" lon="11.802713682673799"><ele>287.0</ele><time>2026-05-02T13:15:43.001Z</time></trkpt><trkpt lat="43.20731800200248" lon="11.802774746744621"><ele>287.0</ele><time>2026-05-02T13:15:44.001Z</time></trkpt><trkpt lat="43.20723834574509" lon="11.802842543971318"><ele>288.6666666666667</ele><time>2026-05-02T13:15:45.001Z</time></trkpt><trkpt lat="43.20716472857771" lon="11.802899823542068"><ele>290.33333333333337</ele><time>2026-05-02T13:15:46.001Z</time></trkpt><trkpt lat="43.20708707670799" lon="11.802954550752544"><ele>292.0</ele><time>2026-05-02T13:15:47.001Z</time></trkpt><trkpt lat="43.20701130087509" lon="11.802987764544376"><ele>293.6666666666667</ele><time>2026-05-02T13:15:48.001Z</time></trkpt><trkpt lat="43.20693958915334" lon="11.803006073314604"><ele>295.3333333333333</ele><time>2026-05-02T13:15:49.001Z</time></trkpt><trkpt lat="43.2068700978026" lon="11.802999882403736"><ele>297.0</ele><time>2026-05-02T13:15:50.001Z</time></trkpt><trkpt lat="43.20679907307138" lon="11.802983764836782"><ele>297.0</ele><time>2026-05-02T13:15:51.001Z</time></trkpt><trkpt lat="43.20673059203841" lon="11.802943651395868"><ele>297.0</ele><time>2026-05-02T13:15:52.001Z</time></trkpt><trkpt lat="43.206639980995035" lon="11.802936440845462"><ele>297.0</ele><time>2026-05-02T13:15:53.001Z</time></trkpt><trkpt lat="43.206547689900944" lon="11.802920974973087"><ele>297.0</ele><time>2026-05-02T13:15:54.001Z</time></trkpt><trkpt lat="43.20645660711423" lon="11.802919425993537"><ele>297.0</ele><time>2026-05-02T13:15:55.001Z</time></trkpt><trkpt lat="43.206370799935165" lon="11.802924984160805"><ele>297.0</ele><time>2026-05-02T13:15:56.001Z</time></trkpt><trkpt lat="43.20627651231147" lon="11.802939142144211"><ele>297.0</ele><time>2026-05-02T13:15:57.001Z</time></trkpt><trkpt lat="43.20617544432206" lon="11.802960794221951"><ele>297.0</ele><time>2026-05-02T13:15:58.001Z</time></trkpt><trkpt lat="43.20606828913606" lon="11.802953996648315"><ele>297.0</ele><time>2026-05-02T13:15:59.001Z</time></trkpt><trkpt lat="43.20596300974112" lon="11.802976125334325"><ele>297.0</ele><time>2026-05-02T13:16:00.001Z</time></trkpt><trkpt lat="43.20584155906257" lon="11.802992447072196"><ele>297.0</ele><time>2026-05-02T13:16:01.001Z</time></trkpt><trkpt lat="43.2057204400189" lon="11.80300700740482"><ele>296.5</ele><time>2026-05-02T13:16:02.001Z</time></trkpt><trkpt lat="43.205597683784084" lon="11.80301833575238"><ele>296.0</ele><time>2026-05-02T13:16:03.001Z</time></trkpt><trkpt lat="43.20547173806598" lon="11.803035134527336"><ele>295.5</ele><time>2026-05-02T13:16:04.001Z</time></trkpt><trkpt lat="43.20533688750784" lon="11.803057712893045"><ele>295.0</ele><time>2026-05-02T13:16:05.001Z</time></trkpt><trkpt lat="43.20519177893655" lon="11.803076538846756"><ele>295.0</ele><time>2026-05-02T13:16:06.001Z</time></trkpt><trkpt lat="43.20506532208135" lon="11.803094800056032"><ele>295.0</ele><time>2026-05-02T13:16:07.001Z</time></trkpt><trkpt lat="43.20495078739087" lon="11.803107251516627"><ele>295.0</ele><time>2026-05-02T13:16:08.001Z</time></trkpt><trkpt lat="43.20484243489129" lon="11.803110707984873"><ele>295.0</ele><time>2026-05-02T13:16:09.001Z</time></trkpt><trkpt lat="43.20473761672654" lon="11.803094026472207"><ele>295.25</ele><time>2026-05-02T13:16:10.001Z</time></trkpt><trkpt lat="43.20464146597732" lon="11.803022734007802"><ele>295.5</ele><time>2026-05-02T13:16:11.001Z</time></trkpt><trkpt lat="43.20452486407374" lon="11.80295915397743"><ele>295.75</ele><time>2026-05-02T13:16:12.001Z</time></trkpt><trkpt lat="43.20439452960213" lon="11.802920858844747"><ele>296.0</ele><time>2026-05-02T13:16:13.001Z</time></trkpt><trkpt lat="43.204274670478824" lon="11.802891118482659"><ele>296.0</ele><time>2026-05-02T13:16:14.001Z</time></trkpt><trkpt lat="43.20414512999432" lon="11.802865480327629"><ele>296.0</ele><time>2026-05-02T13:16:15.001Z</time></trkpt><trkpt lat="43.204012785765734" lon="11.802843268978437"><ele>296.0</ele><time>2026-05-02T13:16:16.001Z</time></trkpt><trkpt lat="43.20387286601498" lon="11.802819089190937"><ele>296.0</ele><time>2026-05-02T13:16:17.001Z</time></trkpt><trkpt lat="43.203739799323124" lon="11.802809133445741"><ele>295.5</ele><time>2026-05-02T13:16:18.001Z</time></trkpt><trkpt lat="43.20360169529519" lon="11.802824974189077"><ele>295.0</ele><time>2026-05-02T13:16:19.001Z</time></trkpt><trkpt lat="43.20345851196211" lon="11.802853517099656"><ele>294.5</ele><time>2026-05-02T13:16:20.001Z</time></trkpt><trkpt lat="43.20332100694983" lon="11.80289407282408"><ele>294.0</ele><time>2026-05-02T13:16:21.001Z</time></trkpt><trkpt lat="43.20319863437924" lon="11.802958989904432"><ele>293.25</ele><time>2026-05-02T13:16:22.001Z</time></trkpt><trkpt lat="43.20308364816739" lon="11.803037162810197"><ele>292.5</ele><time>2026-05-02T13:16:23.001Z</time></trkpt><trkpt lat="43.2029699107999" lon="11.803129592800968"><ele>291.75</ele><time>2026-05-02T13:16:24.001Z</time></trkpt><trkpt lat="43.202858423343464" lon="11.803219113725197"><ele>291.0</ele><time>2026-05-02T13:16:25.001Z</time></trkpt><trkpt lat="43.202756115939394" lon="11.803298502823134"><ele>291.0</ele><time>2026-05-02T13:16:26.001Z</time></trkpt><trkpt lat="43.20266092009251" lon="11.803371104781034"><ele>291.0</ele><time>2026-05-02T13:16:27.001Z</time></trkpt><trkpt lat="43.2025781096509" lon="11.803444384382392"><ele>291.0</ele><time>2026-05-02T13:16:28.001Z</time></trkpt><trkpt lat="43.20249854510869" lon="11.803569748816567"><ele>291.0</ele><time>2026-05-02T13:16:29.001Z</time></trkpt><trkpt lat="43.202437004010214" lon="11.803730198062276"><ele>291.0</ele><time>2026-05-02T13:16:30.001Z</time></trkpt><trkpt lat="43.20239478638276" lon="11.803929351587772"><ele>291.0</ele><time>2026-05-02T13:16:31.001Z</time></trkpt><trkpt lat="43.20236325675716" lon="11.804121104553175"><ele>291.0</ele><time>2026-05-02T13:16:32.001Z</time></trkpt><trkpt lat="43.20234191959506" lon="11.804344211439563"><ele>288.6666666666667</ele><time>2026-05-02T13:16:33.001Z</time></trkpt><trkpt lat="43.20232622243859" lon="11.804570001180384"><ele>286.33333333333337</ele><time>2026-05-02T13:16:34.001Z</time></trkpt><trkpt lat="43.20230972650122" lon="11.80478769987785"><ele>284.0</ele><time>2026-05-02T13:16:35.001Z</time></trkpt><trkpt lat="43.20229379854955" lon="11.804984705055475"><ele>283.5</ele><time>2026-05-02T13:16:36.001Z</time></trkpt><trkpt lat="43.20227786377606" lon="11.805167801470631"><ele>283.0</ele><time>2026-05-02T13:16:37.001Z</time></trkpt><trkpt lat="43.20225777252847" lon="11.805349465513823"><ele>282.5</ele><time>2026-05-02T13:16:38.001Z</time></trkpt><trkpt lat="43.20222524195226" lon="11.805537175287991"><ele>282.0</ele><time>2026-05-02T13:16:39.001Z</time></trkpt><trkpt lat="43.2021399059325" lon="11.805703806892994"><ele>282.0</ele><time>2026-05-02T13:16:40.001Z</time></trkpt><trkpt lat="43.20204914899658" lon="11.805855576926467"><ele>282.0</ele><time>2026-05-02T13:16:41.001Z</time></trkpt><trkpt lat="43.20193113037308" lon="11.80598414844763"><ele>282.0</ele><time>2026-05-02T13:16:42.001Z</time></trkpt><trkpt lat="43.201799822085874" lon="11.806122627348007"><ele>281.75</ele><time>2026-05-02T13:16:43.001Z</time></trkpt><trkpt lat="43.20168624582334" lon="11.80627052259086"><ele>281.5</ele><time>2026-05-02T13:16:44.001Z</time></trkpt><trkpt lat="43.201571774750036" lon="11.806379992032172"><ele>281.25</ele><time>2026-05-02T13:16:45.001Z</time></trkpt><trkpt lat="43.20147281749967" lon="11.806484830877825"><ele>281.0</ele><time>2026-05-02T13:16:46.001Z</time></trkpt><trkpt lat="43.20138271335087" lon="11.806575805888805"><ele>281.0</ele><time>2026-05-02T13:16:47.001Z</time></trkpt><trkpt lat="43.201308022682475" lon="11.806662047412063"><ele>281.0</ele><time>2026-05-02T13:16:48.001Z</time></trkpt><trkpt lat="43.20123906439231" lon="11.806733480977627"><ele>281.0</ele><time>2026-05-02T13:16:49.001Z</time></trkpt><trkpt lat="43.20117612441851" lon="11.806796900720022"><ele>281.0</ele><time>2026-05-02T13:16:50.001Z</time></trkpt><trkpt lat="43.201113684267355" lon="11.806862948447622"><ele>281.0</ele><time>2026-05-02T13:16:51.001Z</time></trkpt><trkpt lat="43.201036594521035" lon="11.806944615022008"><ele>281.0</ele><time>2026-05-02T13:16:52.001Z</time></trkpt><trkpt lat="43.200943604415535" lon="11.807048233218547"><ele>280.75</ele><time>2026-05-02T13:16:53.001Z</time></trkpt><trkpt lat="43.20084602829979" lon="11.807149957190607"><ele>280.5</ele><time>2026-05-02T13:16:54.001Z</time></trkpt><trkpt lat="43.200751405458725" lon="11.807250780915224"><ele>280.25</ele><time>2026-05-02T13:16:55.001Z</time></trkpt><trkpt lat="43.20065873284661" lon="11.807347808772514"><ele>280.0</ele><time>2026-05-02T13:16:56.001Z</time></trkpt><trkpt lat="43.200564443397816" lon="11.807447663487906"><ele>280.0</ele><time>2026-05-02T13:16:57.001Z</time></trkpt><trkpt lat="43.20046938751866" lon="11.807550595855629"><ele>280.0</ele><time>2026-05-02T13:16:58.001Z</time></trkpt><trkpt lat="43.200381085331486" lon="11.807645571590125"><ele>280.0</ele><time>2026-05-02T13:16:59.001Z</time></trkpt><trkpt lat="43.200301664194356" lon="11.807722662651624"><ele>280.0</ele><time>2026-05-02T13:17:00.001Z</time></trkpt><trkpt lat="43.200222732087845" lon="11.807788608449483"><ele>280.0</ele><time>2026-05-02T13:17:01.001Z</time></trkpt><trkpt lat="43.2001305759129" lon="11.807838642620267"><ele>280.75</ele><time>2026-05-02T13:17:02.001Z</time></trkpt><trkpt lat="43.20001749808614" lon="11.807851646334726"><ele>281.5</ele><time>2026-05-02T13:17:03.001Z</time></trkpt><trkpt lat="43.199894668905976" lon="11.807849607230372"><ele>282.25</ele><time>2026-05-02T13:17:04.001Z</time></trkpt><trkpt lat="43.19975638939331" lon="11.807848966367487"><ele>283.0</ele><time>2026-05-02T13:17:05.001Z</time></trkpt><trkpt lat="43.199605090503994" lon="11.807809790841214"><ele>280.0</ele><time>2026-05-02T13:17:06.001Z</time></trkpt><trkpt lat="43.19944679225527" lon="11.807805267055357"><ele>277.0</ele><time>2026-05-02T13:17:07.001Z</time></trkpt><trkpt lat="43.19928200117935" lon="11.80777625677536"><ele>274.0</ele><time>2026-05-02T13:17:08.001Z</time></trkpt><trkpt lat="43.19910693896377" lon="11.807751817509653"><ele>271.66666666666663</ele><time>2026-05-02T13:17:09.001Z</time></trkpt><trkpt lat="43.19893388899754" lon="11.807724157217745"><ele>269.3333333333333</ele><time>2026-05-02T13:17:10.001Z</time></trkpt><trkpt lat="43.198770042467615" lon="11.807697785810856"><ele>267.0</ele><time>2026-05-02T13:17:11.001Z</time></trkpt><trkpt lat="43.19861281414755" lon="11.8076748676232"><ele>266.6666666666667</ele><time>2026-05-02T13:17:12.001Z</time></trkpt><trkpt lat="43.19845018822522" lon="11.807652452076267"><ele>266.33333333333337</ele><time>2026-05-02T13:17:13.001Z</time></trkpt><trkpt lat="43.198279131871196" lon="11.807630350232436"><ele>266.0</ele><time>2026-05-02T13:17:14.001Z</time></trkpt><trkpt lat="43.19810002516314" lon="11.807612727581743"><ele>264.33333333333337</ele><time>2026-05-02T13:17:15.001Z</time></trkpt><trkpt lat="43.19789827416325" lon="11.807576918604688"><ele>262.6666666666667</ele><time>2026-05-02T13:17:16.001Z</time></trkpt><trkpt lat="43.197671885564006" lon="11.807563228964101"><ele>261.0</ele><time>2026-05-02T13:17:17.001Z</time></trkpt><trkpt lat="43.19744111430417" lon="11.807557078418595"><ele>259.0</ele><time>2026-05-02T13:17:18.001Z</time></trkpt><trkpt lat="43.19722846273984" lon="11.8075670642852"><ele>257.0</ele><time>2026-05-02T13:17:19.001Z</time></trkpt><trkpt lat="43.19702660313607" lon="11.807558856282384"><ele>255.0</ele><time>2026-05-02T13:17:20.001Z</time></trkpt><trkpt lat="43.19682992075101" lon="11.807555673456662"><ele>255.0</ele><time>2026-05-02T13:17:21.001Z</time></trkpt><trkpt lat="43.196646910788544" lon="11.807547154646368"><ele>255.0</ele><time>2026-05-02T13:17:22.001Z</time></trkpt><trkpt lat="43.19647223192172" lon="11.807518614166234"><ele>255.0</ele><time>2026-05-02T13:17:23.001Z</time></trkpt><trkpt lat="43.196319471027756" lon="11.807454561977343"><ele>254.4</ele><time>2026-05-02T13:17:24.001Z</time></trkpt><trkpt lat="43.19619040577709" lon="11.807432826240767"><ele>253.8</ele><time>2026-05-02T13:17:25.001Z</time></trkpt><trkpt lat="43.19608701618415" lon="11.807389791580746"><ele>253.2</ele><time>2026-05-02T13:17:26.001Z</time></trkpt><trkpt lat="43.19601585545574" lon="11.807360926095503"><ele>252.6</ele><time>2026-05-02T13:17:27.001Z</time></trkpt><trkpt lat="43.195921470027784" lon="11.807328384198291"><ele>252.0</ele><time>2026-05-02T13:17:29.001Z</time></trkpt><trkpt lat="43.195857888486486" lon="11.807277448642715"><ele>252.0</ele><time>2026-05-02T13:17:32.001Z</time></trkpt><trkpt lat="43.19575163132221" lon="11.807238276350114"><ele>252.0</ele><time>2026-05-02T13:19:00.001Z</time></trkpt><trkpt lat="43.195680345499234" lon="11.807213445567907"><ele>252.0</ele><time>2026-05-02T13:19:01.001Z</time></trkpt><trkpt lat="43.19559775559518" lon="11.807181149682568"><ele>252.0</ele><time>2026-05-02T13:19:02.001Z</time></trkpt><trkpt lat="43.19551811380846" lon="11.807149090802508"><ele>252.0</ele><time>2026-05-02T13:19:03.001Z</time></trkpt><trkpt lat="43.19543668531667" lon="11.807116446692442"><ele>252.0</ele><time>2026-05-02T13:19:04.001Z</time></trkpt><trkpt lat="43.195351034811296" lon="11.807083293030622"><ele>252.25</ele><time>2026-05-02T13:19:05.001Z</time></trkpt><trkpt lat="43.19524658247703" lon="11.80704316265186"><ele>252.5</ele><time>2026-05-02T13:19:06.001Z</time></trkpt><trkpt lat="43.19513975048935" lon="11.806988225284218"><ele>252.75</ele><time>2026-05-02T13:19:07.001Z</time></trkpt><trkpt lat="43.195027500022995" lon="11.806922611809151"><ele>253.0</ele><time>2026-05-02T13:19:08.001Z</time></trkpt><trkpt lat="43.19490241368755" lon="11.806848992422427"><ele>253.0</ele><time>2026-05-02T13:19:09.001Z</time></trkpt><trkpt lat="43.194775293440166" lon="11.80676569788422"><ele>253.0</ele><time>2026-05-02T13:19:10.001Z</time></trkpt><trkpt lat="43.194646586851746" lon="11.806681000866202"><ele>253.0</ele><time>2026-05-02T13:19:11.001Z</time></trkpt><trkpt lat="43.19451326144163" lon="11.80659322088071"><ele>253.0</ele><time>2026-05-02T13:19:12.001Z</time></trkpt><trkpt lat="43.19437579939802" lon="11.806504944259663"><ele>253.0</ele><time>2026-05-02T13:19:13.001Z</time></trkpt><trkpt lat="43.19423281255804" lon="11.806414108878597"><ele>253.0</ele><time>2026-05-02T13:19:14.001Z</time></trkpt><trkpt lat="43.19407906929782" lon="11.80632431999756"><ele>253.0</ele><time>2026-05-02T13:19:15.001Z</time></trkpt><trkpt lat="43.193911095047326" lon="11.806231984059652"><ele>253.0</ele><time>2026-05-02T13:19:16.001Z</time></trkpt><trkpt lat="43.193734772242635" lon="11.806137003743027"><ele>253.0</ele><time>2026-05-02T13:19:17.001Z</time></trkpt><trkpt lat="43.193547110687845" lon="11.806043277250993"><ele>253.0</ele><time>2026-05-02T13:19:18.001Z</time></trkpt><trkpt lat="43.19335942997402" lon="11.805951953290936"><ele>253.33333333333331</ele><time>2026-05-02T13:19:19.001Z</time></trkpt><trkpt lat="43.19317166172312" lon="11.805855628418284"><ele>253.66666666666669</ele><time>2026-05-02T13:19:20.001Z</time></trkpt><trkpt lat="43.192975827786704" lon="11.805740239231948"><ele>254.0</ele><time>2026-05-02T13:19:21.001Z</time></trkpt><trkpt lat="43.1927622992609" lon="11.80562865119695"><ele>254.0</ele><time>2026-05-02T13:19:22Z</time></trkpt><trkpt lat="43.192552587724094" lon="11.805519351505769"><ele>254.0</ele><time>2026-05-02T13:19:23Z</time></trkpt><trkpt lat="43.192334751499565" lon="11.805420283708477"><ele>254.0</ele><time>2026-05-02T13:19:24Z</time></trkpt><trkpt lat="43.19211898587073" lon="11.80530469047764"><ele>254.0</ele><time>2026-05-02T13:19:25Z</time></trkpt><trkpt lat="43.19190128446345" lon="11.8051936562728"><ele>253.5</ele><time>2026-05-02T13:19:26Z</time></trkpt><trkpt lat="43.19168628899974" lon="11.805082619487202"><ele>253.0</ele><time>2026-05-02T13:19:27Z</time></trkpt><trkpt lat="43.191471825249735" lon="11.804969771770915"><ele>252.66666666666666</ele><time>2026-05-02T13:19:28Z</time></trkpt><trkpt lat="43.19126495924685" lon="11.804865527840633"><ele>252.33333333333331</ele><time>2026-05-02T13:19:29Z</time></trkpt><trkpt lat="43.19106554465428" lon="11.80476511038188"><ele>252.0</ele><time>2026-05-02T13:19:30Z</time></trkpt><trkpt lat="43.190877419069224" lon="11.804651488936251"><ele>252.0</ele><time>2026-05-02T13:19:31Z</time></trkpt><trkpt lat="43.190691998313966" lon="11.80456226951117"><ele>252.0</ele><time>2026-05-02T13:19:32Z</time></trkpt><trkpt lat="43.19053355360201" lon="11.804471631957643"><ele>252.0</ele><time>2026-05-02T13:19:33Z</time></trkpt><trkpt lat="43.190399443954014" lon="11.804329292344834"><ele>251.33333333333331</ele><time>2026-05-02T13:19:34Z</time></trkpt><trkpt lat="43.190272151905184" lon="11.804172701890174"><ele>250.66666666666666</ele><time>2026-05-02T13:19:35Z</time></trkpt><trkpt lat="43.19014063990409" lon="11.803979267847247"><ele>250.0</ele><time>2026-05-02T13:19:36.001Z</time></trkpt><trkpt lat="43.1899958307805" lon="11.80378110490616"><ele>250.0</ele><time>2026-05-02T13:19:37.001Z</time></trkpt><trkpt lat="43.189860467661205" lon="11.803559201046975"><ele>250.0</ele><time>2026-05-02T13:19:38.001Z</time></trkpt><trkpt lat="43.189717434020494" lon="11.803348117916771"><ele>250.0</ele><time>2026-05-02T13:19:39.001Z</time></trkpt><trkpt lat="43.189559360023225" lon="11.803143014631615"><ele>250.0</ele><time>2026-05-02T13:19:40.001Z</time></trkpt><trkpt lat="43.18938770922307" lon="11.802954993360744"><ele>250.0</ele><time>2026-05-02T13:19:41.001Z</time></trkpt><trkpt lat="43.189214256153775" lon="11.802769396865289"><ele>250.0</ele><time>2026-05-02T13:19:42.001Z</time></trkpt><trkpt lat="43.18905855354619" lon="11.80259042722587"><ele>251.33333333333331</ele><time>2026-05-02T13:19:43.001Z</time></trkpt><trkpt lat="43.18890717900636" lon="11.802427759589081"><ele>252.66666666666669</ele><time>2026-05-02T13:19:44.001Z</time></trkpt><trkpt lat="43.18875678330681" lon="11.802264243344327"><ele>254.0</ele><time>2026-05-02T13:19:45.001Z</time></trkpt><trkpt lat="43.18860508521572" lon="11.802092948934856"><ele>254.0</ele><time>2026-05-02T13:19:46.001Z</time></trkpt><trkpt lat="43.1884485287447" lon="11.801922121123713"><ele>254.0</ele><time>2026-05-02T13:19:47.001Z</time></trkpt><trkpt lat="43.18829510495012" lon="11.801749731443525"><ele>254.0</ele><time>2026-05-02T13:19:48.001Z</time></trkpt><trkpt lat="43.18814385712043" lon="11.801578592116853"><ele>253.33333333333334</ele><time>2026-05-02T13:19:49.001Z</time></trkpt><trkpt lat="43.18799688451797" lon="11.80140798259395"><ele>252.66666666666669</ele><time>2026-05-02T13:19:50.001Z</time></trkpt><trkpt lat="43.187854230664335" lon="11.801237542790387"><ele>252.0</ele><time>2026-05-02T13:19:51.001Z</time></trkpt><trkpt lat="43.18771108010423" lon="11.801068543457244"><ele>252.66666666666669</ele><time>2026-05-02T13:19:52.001Z</time></trkpt><trkpt lat="43.18756938108037" lon="11.80091360486863"><ele>253.33333333333334</ele><time>2026-05-02T13:19:53.001Z</time></trkpt><trkpt lat="43.18743736440912" lon="11.800771041498113"><ele>254.0</ele><time>2026-05-02T13:19:54.001Z</time></trkpt><trkpt lat="43.18731368527285" lon="11.800619383611524"><ele>254.0</ele><time>2026-05-02T13:19:55.001Z</time></trkpt><trkpt lat="43.18718257936806" lon="11.800469736219881"><ele>254.0</ele><time>2026-05-02T13:19:56.001Z</time></trkpt><trkpt lat="43.1870522994689" lon="11.80032238150815"><ele>254.0</ele><time>2026-05-02T13:19:57.001Z</time></trkpt><trkpt lat="43.18691718021369" lon="11.800171114357045"><ele>253.66666666666669</ele><time>2026-05-02T13:19:58.001Z</time></trkpt><trkpt lat="43.18678489604438" lon="11.800021764867836"><ele>253.33333333333331</ele><time>2026-05-02T13:19:59.001Z</time></trkpt><trkpt lat="43.186650483934585" lon="11.799871076949396"><ele>253.0</ele><time>2026-05-02T13:20:00.001Z</time></trkpt><trkpt lat="43.1865177139985" lon="11.799718567433962"><ele>253.0</ele><time>2026-05-02T13:20:01.001Z</time></trkpt><trkpt lat="43.186386730646845" lon="11.799566320862153"><ele>253.0</ele><time>2026-05-02T13:20:02.001Z</time></trkpt><trkpt lat="43.18625231462236" lon="11.799414984617727"><ele>253.0</ele><time>2026-05-02T13:20:03.001Z</time></trkpt><trkpt lat="43.186113642011954" lon="11.799261399776091"><ele>253.33333333333331</ele><time>2026-05-02T13:20:04.001Z</time></trkpt><trkpt lat="43.18597250253901" lon="11.79910249591889"><ele>253.66666666666669</ele><time>2026-05-02T13:20:05.001Z</time></trkpt><trkpt lat="43.18583070633104" lon="11.798938234994425"><ele>254.0</ele><time>2026-05-02T13:20:06.001Z</time></trkpt><trkpt lat="43.185686510722235" lon="11.79877311802697"><ele>253.66666666666669</ele><time>2026-05-02T13:20:07.001Z</time></trkpt><trkpt lat="43.18554148558328" lon="11.798608706165181"><ele>253.33333333333331</ele><time>2026-05-02T13:20:08.001Z</time></trkpt><trkpt lat="43.18539342392914" lon="11.798443100288676"><ele>253.0</ele><time>2026-05-02T13:20:09.001Z</time></trkpt><trkpt lat="43.18524633680602" lon="11.798275847635432"><ele>253.0</ele><time>2026-05-02T13:20:10.001Z</time></trkpt><trkpt lat="43.18509585367161" lon="11.798108849486779"><ele>253.0</ele><time>2026-05-02T13:20:11.001Z</time></trkpt><trkpt lat="43.18495135437226" lon="11.797944913292078"><ele>253.0</ele><time>2026-05-02T13:20:12.001Z</time></trkpt><trkpt lat="43.18481123679777" lon="11.797784506490984"><ele>253.0</ele><time>2026-05-02T13:20:13.001Z</time></trkpt><trkpt lat="43.18468141063465" lon="11.797635608176424"><ele>253.0</ele><time>2026-05-02T13:20:14.001Z</time></trkpt><trkpt lat="43.184549072304534" lon="11.797486382224854"><ele>253.0</ele><time>2026-05-02T13:20:15.001Z</time></trkpt><trkpt lat="43.184415704024595" lon="11.797334290591433"><ele>253.0</ele><time>2026-05-02T13:20:16.001Z</time></trkpt><trkpt lat="43.184283166345395" lon="11.79718359163819"><ele>253.0</ele><time>2026-05-02T13:20:17.001Z</time></trkpt><trkpt lat="43.184147668973225" lon="11.797028874963534"><ele>253.0</ele><time>2026-05-02T13:20:18.001Z</time></trkpt><trkpt lat="43.18401197199234" lon="11.796876137739703"><ele>253.66666666666666</ele><time>2026-05-02T13:20:19.001Z</time></trkpt><trkpt lat="43.18387425784085" lon="11.796719894888877"><ele>254.33333333333331</ele><time>2026-05-02T13:20:20.001Z</time></trkpt><trkpt lat="43.18373747968456" lon="11.796562422989766"><ele>255.0</ele><time>2026-05-02T13:20:21.001Z</time></trkpt><trkpt lat="43.18359861614871" lon="11.796403664659547"><ele>255.0</ele><time>2026-05-02T13:20:22.001Z</time></trkpt><trkpt lat="43.183460647842445" lon="11.796241431437064"><ele>255.0</ele><time>2026-05-02T13:20:23.001Z</time></trkpt><trkpt lat="43.1833186045907" lon="11.796075577736879"><ele>255.0</ele><time>2026-05-02T13:20:24.001Z</time></trkpt><trkpt lat="43.18317248097472" lon="11.795916328110962"><ele>255.66666666666669</ele><time>2026-05-02T13:20:25.001Z</time></trkpt><trkpt lat="43.183023092089876" lon="11.795747050166465"><ele>256.33333333333337</ele><time>2026-05-02T13:20:26.001Z</time></trkpt><trkpt lat="43.182874189496" lon="11.795579780571556"><ele>257.0</ele><time>2026-05-02T13:20:27.001Z</time></trkpt><trkpt lat="43.18272568341331" lon="11.795404248865196"><ele>257.0</ele><time>2026-05-02T13:20:28.001Z</time></trkpt><trkpt lat="43.182575141726154" lon="11.79523416368747"><ele>257.0</ele><time>2026-05-02T13:20:29.001Z</time></trkpt><trkpt lat="43.182423061345" lon="11.79505646077822"><ele>257.0</ele><time>2026-05-02T13:20:30.001Z</time></trkpt><trkpt lat="43.18227010417336" lon="11.794869619507965"><ele>256.33333333333337</ele><time>2026-05-02T13:20:31.001Z</time></trkpt><trkpt lat="43.182122754564716" lon="11.794689585434975"><ele>255.66666666666669</ele><time>2026-05-02T13:20:32.001Z</time></trkpt><trkpt lat="43.18197002667108" lon="11.794499999300227"><ele>255.0</ele><time>2026-05-02T13:20:33.001Z</time></trkpt><trkpt lat="43.181827900586214" lon="11.794298237873466"><ele>255.0</ele><time>2026-05-02T13:20:34.001Z</time></trkpt><trkpt lat="43.18168466663457" lon="11.794103854413896"><ele>255.0</ele><time>2026-05-02T13:20:35.001Z</time></trkpt><trkpt lat="43.18154782773644" lon="11.793928115964352"><ele>255.0</ele><time>2026-05-02T13:20:36.001Z</time></trkpt><trkpt lat="43.18142576437365" lon="11.793747425883161"><ele>255.33333333333331</ele><time>2026-05-02T13:20:37.001Z</time></trkpt><trkpt lat="43.18130577213006" lon="11.793579488418203"><ele>255.66666666666666</ele><time>2026-05-02T13:20:38.001Z</time></trkpt><trkpt lat="43.181198218451485" lon="11.793412719942367"><ele>256.0</ele><time>2026-05-02T13:20:39.001Z</time></trkpt><trkpt lat="43.181090997665144" lon="11.793240413663339"><ele>256.0</ele><time>2026-05-02T13:20:40.001Z</time></trkpt><trkpt lat="43.18099081377854" lon="11.793056781501992"><ele>256.0</ele><time>2026-05-02T13:20:41.001Z</time></trkpt><trkpt lat="43.180904581154614" lon="11.792869968538316"><ele>256.0</ele><time>2026-05-02T13:20:42.001Z</time></trkpt><trkpt lat="43.18083052983107" lon="11.79268375787155"><ele>256.0</ele><time>2026-05-02T13:20:43.001Z</time></trkpt><trkpt lat="43.18076070900538" lon="11.792489464676393"><ele>256.0</ele><time>2026-05-02T13:20:44.001Z</time></trkpt><trkpt lat="43.18069241726665" lon="11.792303498935388"><ele>256.0</ele><time>2026-05-02T13:20:45.001Z</time></trkpt><trkpt lat="43.1806217477514" lon="11.792121092741777"><ele>256.25</ele><time>2026-05-02T13:20:46.001Z</time></trkpt><trkpt lat="43.180558019087435" lon="11.791941305550742"><ele>256.5</ele><time>2026-05-02T13:20:47.001Z</time></trkpt><trkpt lat="43.180490074782604" lon="11.79176390189413"><ele>256.75</ele><time>2026-05-02T13:20:48.001Z</time></trkpt><trkpt lat="43.180426284086316" lon="11.791587823223749"><ele>257.0</ele><time>2026-05-02T13:20:49.001Z</time></trkpt><trkpt lat="43.180361651310896" lon="11.791408865441994"><ele>257.25</ele><time>2026-05-02T13:20:50.001Z</time></trkpt><trkpt lat="43.18029635718513" lon="11.79122967180382"><ele>257.5</ele><time>2026-05-02T13:20:51.001Z</time></trkpt><trkpt lat="43.180230796290545" lon="11.791051901505643"><ele>257.75</ele><time>2026-05-02T13:20:52.001Z</time></trkpt><trkpt lat="43.18016535355045" lon="11.790873219332436"><ele>258.0</ele><time>2026-05-02T13:20:53.001Z</time></trkpt><trkpt lat="43.18009537322072" lon="11.790688661849051"><ele>258.3333333333333</ele><time>2026-05-02T13:20:54.001Z</time></trkpt><trkpt lat="43.18002697788735" lon="11.79050039094977"><ele>258.66666666666663</ele><time>2026-05-02T13:20:55.001Z</time></trkpt><trkpt lat="43.179959004946284" lon="11.790309646236235"><ele>259.0</ele><time>2026-05-02T13:20:56.001Z</time></trkpt><trkpt lat="43.17988838314644" lon="11.790118062284387"><ele>259.3333333333333</ele><time>2026-05-02T13:20:57.001Z</time></trkpt><trkpt lat="43.17981404339987" lon="11.78992359304697"><ele>259.6666666666667</ele><time>2026-05-02T13:20:58.001Z</time></trkpt><trkpt lat="43.17974036864063" lon="11.789725887057575"><ele>260.0</ele><time>2026-05-02T13:20:59.001Z</time></trkpt><trkpt lat="43.17967167647698" lon="11.789538580767116"><ele>260.0</ele><time>2026-05-02T13:21:00.001Z</time></trkpt><trkpt lat="43.17960113079008" lon="11.789368237027901"><ele>260.0</ele><time>2026-05-02T13:21:01.001Z</time></trkpt><trkpt lat="43.17952651895134" lon="11.789213877786622"><ele>260.0</ele><time>2026-05-02T13:21:02.001Z</time></trkpt><trkpt lat="43.1794241172162" lon="11.789096584173011"><ele>260.0</ele><time>2026-05-02T13:21:03.001Z</time></trkpt><trkpt lat="43.17930259551084" lon="11.789003415371443"><ele>260.0</ele><time>2026-05-02T13:21:04.001Z</time></trkpt><trkpt lat="43.17916693370976" lon="11.788925021154729"><ele>260.0</ele><time>2026-05-02T13:21:05.001Z</time></trkpt><trkpt lat="43.1790298372744" lon="11.788848852916782"><ele>260.0</ele><time>2026-05-02T13:21:06.001Z</time></trkpt><trkpt lat="43.178911220795726" lon="11.788779986462496"><ele>260.0</ele><time>2026-05-02T13:21:07.001Z</time></trkpt><trkpt lat="43.178810453927746" lon="11.788712880107466"><ele>260.0</ele><time>2026-05-02T13:21:08.001Z</time></trkpt><trkpt lat="43.17873829350362" lon="11.78865049412931"><ele>260.0</ele><time>2026-05-02T13:21:09.001Z</time></trkpt><trkpt lat="43.17867661512165" lon="11.788579453346072"><ele>260.0</ele><time>2026-05-02T13:21:10.001Z</time></trkpt><trkpt lat="43.17860967928187" lon="11.788509329669564"><ele>260.0</ele><time>2026-05-02T13:21:11.001Z</time></trkpt><trkpt lat="43.1785202463627" lon="11.788471974883564"><ele>260.0</ele><time>2026-05-02T13:21:12.001Z</time></trkpt><trkpt lat="43.17840209411511" lon="11.788446587549045"><ele>259.6666666666667</ele><time>2026-05-02T13:21:13.001Z</time></trkpt><trkpt lat="43.17826221537573" lon="11.788385305317906"><ele>259.3333333333333</ele><time>2026-05-02T13:21:14.001Z</time></trkpt><trkpt lat="43.17811614766079" lon="11.788300990747823"><ele>259.0</ele><time>2026-05-02T13:21:15.001Z</time></trkpt><trkpt lat="43.17795895228701" lon="11.78822071859242"><ele>259.66666666666663</ele><time>2026-05-02T13:21:16.001Z</time></trkpt><trkpt lat="43.177784988707046" lon="11.78816260457547"><ele>260.3333333333333</ele><time>2026-05-02T13:21:17.001Z</time></trkpt><trkpt lat="43.17760252299931" lon="11.788118700587464"><ele>261.0</ele><time>2026-05-02T13:21:18.001Z</time></trkpt><trkpt lat="43.1774234196148" lon="11.788073558454755"><ele>260.3333333333333</ele><time>2026-05-02T13:21:19.001Z</time></trkpt><trkpt lat="43.17725112933852" lon="11.78801874778739"><ele>259.66666666666663</ele><time>2026-05-02T13:21:20.001Z</time></trkpt><trkpt lat="43.177080347668955" lon="11.787959648818381"><ele>259.0</ele><time>2026-05-02T13:21:21.001Z</time></trkpt><trkpt lat="43.1769160984206" lon="11.78789677027649"><ele>259.0</ele><time>2026-05-02T13:21:22.001Z</time></trkpt><trkpt lat="43.17676855715866" lon="11.787789720541774"><ele>259.0</ele><time>2026-05-02T13:21:23.001Z</time></trkpt><trkpt lat="43.17661795078692" lon="11.787694822975768"><ele>259.0</ele><time>2026-05-02T13:21:24.001Z</time></trkpt><trkpt lat="43.17647238175311" lon="11.78756622457242"><ele>260.0</ele><time>2026-05-02T13:21:25.001Z</time></trkpt><trkpt lat="43.176323616918985" lon="11.787431696753657"><ele>261.0</ele><time>2026-05-02T13:21:26.001Z</time></trkpt><trkpt lat="43.176169900438985" lon="11.787298889257809"><ele>262.0</ele><time>2026-05-02T13:21:27.001Z</time></trkpt><trkpt lat="43.17601993819817" lon="11.787160832816308"><ele>262.0</ele><time>2026-05-02T13:21:28.001Z</time></trkpt><trkpt lat="43.17587673363288" lon="11.78700122160024"><ele>262.0</ele><time>2026-05-02T13:21:29.001Z</time></trkpt><trkpt lat="43.17574473107611" lon="11.786827611780332"><ele>262.0</ele><time>2026-05-02T13:21:30.001Z</time></trkpt><trkpt lat="43.17562894849779" lon="11.786659180275462"><ele>261.75</ele><time>2026-05-02T13:21:31.001Z</time></trkpt><trkpt lat="43.1755225605555" lon="11.786502543283055"><ele>261.5</ele><time>2026-05-02T13:21:32.001Z</time></trkpt><trkpt lat="43.17542017904892" lon="11.786377592699033"><ele>261.25</ele><time>2026-05-02T13:21:33.001Z</time></trkpt><trkpt lat="43.17531147008735" lon="11.786274106463491"><ele>261.0</ele><time>2026-05-02T13:21:34.001Z</time></trkpt><trkpt lat="43.175186373740864" lon="11.78618948396347"><ele>261.0</ele><time>2026-05-02T13:21:35.001Z</time></trkpt><trkpt lat="43.17504526529296" lon="11.786121950366216"><ele>261.0</ele><time>2026-05-02T13:21:36.001Z</time></trkpt><trkpt lat="43.17492057351645" lon="11.786078440796873"><ele>261.0</ele><time>2026-05-02T13:21:37.001Z</time></trkpt><trkpt lat="43.17482022785366" lon="11.786053557369902"><ele>261.0</ele><time>2026-05-02T13:21:38.001Z</time></trkpt><trkpt lat="43.17471533598242" lon="11.786020938095435"><ele>261.6666666666667</ele><time>2026-05-02T13:21:39.001Z</time></trkpt><trkpt lat="43.174589804574005" lon="11.785956846058939"><ele>262.33333333333337</ele><time>2026-05-02T13:21:40.001Z</time></trkpt><trkpt lat="43.17445256408489" lon="11.785842975514992"><ele>263.0</ele><time>2026-05-02T13:21:41.001Z</time></trkpt><trkpt lat="43.1743057180697" lon="11.785712034684776"><ele>263.0</ele><time>2026-05-02T13:21:42.001Z</time></trkpt><trkpt lat="43.17415409244016" lon="11.785591810213052"><ele>263.0</ele><time>2026-05-02T13:21:43.001Z</time></trkpt><trkpt lat="43.174009394115444" lon="11.785501286639082"><ele>263.0</ele><time>2026-05-02T13:21:44.001Z</time></trkpt><trkpt lat="43.17387376570208" lon="11.785438725118812"><ele>263.25</ele><time>2026-05-02T13:21:45.001Z</time></trkpt><trkpt lat="43.17374636177172" lon="11.785387190445359"><ele>263.5</ele><time>2026-05-02T13:21:46.001Z</time></trkpt><trkpt lat="43.173620020049796" lon="11.785364390093424"><ele>263.75</ele><time>2026-05-02T13:21:47.001Z</time></trkpt><trkpt lat="43.173496926044216" lon="11.785371838179003"><ele>264.0</ele><time>2026-05-02T13:21:48.001Z</time></trkpt><trkpt lat="43.17337731878197" lon="11.785400305245753"><ele>264.0</ele><time>2026-05-02T13:21:49.001Z</time></trkpt><trkpt lat="43.173272160828404" lon="11.78542017329002"><ele>264.0</ele><time>2026-05-02T13:21:50.001Z</time></trkpt><trkpt lat="43.17319102369094" lon="11.78541735493864"><ele>264.0</ele><time>2026-05-02T13:21:51.001Z</time></trkpt><trkpt lat="43.173115119666946" lon="11.785386945933242"><ele>264.0</ele><time>2026-05-02T13:21:52.001Z</time></trkpt><trkpt lat="43.1730207876474" lon="11.785312907958303"><ele>264.0</ele><time>2026-05-02T13:21:53.001Z</time></trkpt><trkpt lat="43.172931107598124" lon="11.78519717161285"><ele>263.59999999999997</ele><time>2026-05-02T13:21:54.001Z</time></trkpt><trkpt lat="43.172867580253325" lon="11.785050113200462"><ele>263.2</ele><time>2026-05-02T13:21:55.001Z</time></trkpt><trkpt lat="43.1728241389834" lon="11.784906298107742"><ele>262.79999999999995</ele><time>2026-05-02T13:21:56.001Z</time></trkpt><trkpt lat="43.17278527347325" lon="11.784782572486595"><ele>262.4</ele><time>2026-05-02T13:21:57.001Z</time></trkpt><trkpt lat="43.17273636192585" lon="11.784661451357943"><ele>262.0</ele><time>2026-05-02T13:21:58.001Z</time></trkpt><trkpt lat="43.17267980978013" lon="11.784564218664118"><ele>262.0</ele><time>2026-05-02T13:21:59.001Z</time></trkpt><trkpt lat="43.172628526556075" lon="11.784479218929532"><ele>262.0</ele><time>2026-05-02T13:22:00.001Z</time></trkpt><trkpt lat="43.17257895574348" lon="11.784406390847721"><ele>262.0</ele><time>2026-05-02T13:22:01.001Z</time></trkpt><trkpt lat="43.17253280769456" lon="11.784345419578141"><ele>262.0</ele><time>2026-05-02T13:22:02.001Z</time></trkpt><trkpt lat="43.17248484861635" lon="11.784276376294303"><ele>262.0</ele><time>2026-05-02T13:22:04.001Z</time></trkpt><trkpt lat="43.17242218142136" lon="11.784186757412849"><ele>262.0</ele><time>2026-05-02T13:22:07.001Z</time></trkpt><trkpt lat="43.172332822722105" lon="11.784096487351443"><ele>262.3333333333333</ele><time>2026-05-02T13:22:09.001Z</time></trkpt><trkpt lat="43.17226245733751" lon="11.784039740171611"><ele>262.66666666666663</ele><time>2026-05-02T13:22:11.001Z</time></trkpt><trkpt lat="43.17216893395056" lon="11.783972911146897"><ele>263.0</ele><time>2026-05-02T13:22:13.001Z</time></trkpt><trkpt lat="43.172114565565536" lon="11.783918286692728"><ele>263.3333333333333</ele><time>2026-05-02T13:22:14.001Z</time></trkpt><trkpt lat="43.17205552898842" lon="11.783858954962984"><ele>263.6666666666667</ele><time>2026-05-02T13:22:15.001Z</time></trkpt><trkpt lat="43.17200132002927" lon="11.783798715005403"><ele>264.0</ele><time>2026-05-02T13:22:16.001Z</time></trkpt><trkpt lat="43.1719121388566" lon="11.783677707885824"><ele>264.0</ele><time>2026-05-02T13:22:18.001Z</time></trkpt><trkpt lat="43.171827745597085" lon="11.783563657243779"><ele>264.0</ele><time>2026-05-02T13:22:20.001Z</time></trkpt><trkpt lat="43.171745025890516" lon="11.783464775257801"><ele>264.0</ele><time>2026-05-02T13:22:22.001Z</time></trkpt><trkpt lat="43.17164910966195" lon="11.783361259731976"><ele>264.0</ele><time>2026-05-02T13:22:24.001Z</time></trkpt><trkpt lat="43.17159929403354" lon="11.78330338746282"><ele>264.0</ele><time>2026-05-02T13:22:25.001Z</time></trkpt><trkpt lat="43.171546302033235" lon="11.783241087895894"><ele>263.8333333333333</ele><time>2026-05-02T13:22:26.001Z</time></trkpt><trkpt lat="43.17149390625865" lon="11.783179735004246"><ele>263.6666666666667</ele><time>2026-05-02T13:22:27.001Z</time></trkpt><trkpt lat="43.1714361163779" lon="11.78310202171191"><ele>263.5</ele><time>2026-05-02T13:22:28.001Z</time></trkpt><trkpt lat="43.17138252467787" lon="11.783018810411356"><ele>263.33333333333337</ele><time>2026-05-02T13:22:29.001Z</time></trkpt><trkpt lat="43.171329456948484" lon="11.782947688504324"><ele>263.1666666666667</ele><time>2026-05-02T13:22:30.001Z</time></trkpt><trkpt lat="43.171270643779245" lon="11.782882539953482"><ele>263.0</ele><time>2026-05-02T13:22:31.001Z</time></trkpt><trkpt lat="43.17121036349707" lon="11.782819538194481"><ele>263.0</ele><time>2026-05-02T13:22:32.001Z</time></trkpt><trkpt lat="43.171148416307176" lon="11.782758001824615"><ele>263.0</ele><time>2026-05-02T13:22:33.001Z</time></trkpt><trkpt lat="43.171091660030235" lon="11.782705164116797"><ele>263.0</ele><time>2026-05-02T13:22:34.001Z</time></trkpt><trkpt lat="43.170991763182776" lon="11.782610245314217"><ele>263.0</ele><time>2026-05-02T13:22:36.001Z</time></trkpt><trkpt lat="43.17093642104755" lon="11.782553588269156"><ele>263.0</ele><time>2026-05-02T13:22:37.001Z</time></trkpt><trkpt lat="43.17088258143442" lon="11.782497618696604"><ele>263.0</ele><time>2026-05-02T13:22:38.001Z</time></trkpt><trkpt lat="43.17078682978968" lon="11.782405388879882"><ele>263.1666666666667</ele><time>2026-05-02T13:22:40.001Z</time></trkpt><trkpt lat="43.17070980932122" lon="11.782345834451615"><ele>263.33333333333337</ele><time>2026-05-02T13:22:42.001Z</time></trkpt><trkpt lat="43.17063203309686" lon="11.782282944745457"><ele>263.5</ele><time>2026-05-02T13:22:44.001Z</time></trkpt><trkpt lat="43.17056843243367" lon="11.78222296437355"><ele>263.6666666666667</ele><time>2026-05-02T13:22:45.001Z</time></trkpt><trkpt lat="43.17048906926367" lon="11.782177046391656"><ele>263.8333333333333</ele><time>2026-05-02T13:22:46.001Z</time></trkpt><trkpt lat="43.17043787144247" lon="11.782067432056138"><ele>264.0</ele><time>2026-05-02T13:22:47.001Z</time></trkpt><trkpt lat="43.17038621894764" lon="11.781983757480342"><ele>264.4</ele><time>2026-05-02T13:22:48.001Z</time></trkpt><trkpt lat="43.17034308689189" lon="11.78190612864299"><ele>264.79999999999995</ele><time>2026-05-02T13:22:49.001Z</time></trkpt><trkpt lat="43.1702915903973" lon="11.781801027079622"><ele>265.20000000000005</ele><time>2026-05-02T13:22:50.001Z</time></trkpt><trkpt lat="43.17025011389153" lon="11.7816877584271"><ele>265.6</ele><time>2026-05-02T13:22:51.001Z</time></trkpt><trkpt lat="43.17021577893635" lon="11.781565111804923"><ele>266.0</ele><time>2026-05-02T13:22:52.001Z</time></trkpt><trkpt lat="43.170189615997366" lon="11.781434071399023"><ele>266.0</ele><time>2026-05-02T13:22:53.001Z</time></trkpt><trkpt lat="43.170175516953854" lon="11.781296034580857"><ele>266.0</ele><time>2026-05-02T13:22:54.001Z</time></trkpt><trkpt lat="43.17016827381384" lon="11.781158866282334"><ele>266.0</ele><time>2026-05-02T13:22:55.001Z</time></trkpt><trkpt lat="43.170153021580354" lon="11.781003815028019"><ele>266.0</ele><time>2026-05-02T13:22:56.001Z</time></trkpt><trkpt lat="43.17014248279405" lon="11.780844331812933"><ele>266.0</ele><time>2026-05-02T13:22:57.001Z</time></trkpt><trkpt lat="43.17010210252829" lon="11.780744526525355"><ele>266.0</ele><time>2026-05-02T13:22:58.001Z</time></trkpt><trkpt lat="43.17008697269536" lon="11.780618575446349"><ele>266.0</ele><time>2026-05-02T13:22:59.001Z</time></trkpt><trkpt lat="43.17007002698954" lon="11.780484240261764"><ele>266.0</ele><time>2026-05-02T13:23:00.001Z</time></trkpt><trkpt lat="43.17005263158046" lon="11.780372945585071"><ele>266.0</ele><time>2026-05-02T13:23:01.001Z</time></trkpt><trkpt lat="43.17003574904798" lon="11.780283509287644"><ele>266.0</ele><time>2026-05-02T13:23:02.001Z</time></trkpt><trkpt lat="43.17001876728318" lon="11.780135574328822"><ele>266.0</ele><time>2026-05-02T13:23:04.001Z</time></trkpt><trkpt lat="43.170024472408514" lon="11.78004750104382"><ele>266.0</ele><time>2026-05-02T13:23:05.001Z</time></trkpt><trkpt lat="43.17005599466723" lon="11.779907883264118"><ele>266.0</ele><time>2026-05-02T13:23:07.001Z</time></trkpt><trkpt lat="43.170019870101775" lon="11.779808242561147"><ele>266.0</ele><time>2026-05-02T13:23:09.001Z</time></trkpt><trkpt lat="43.16989694812342" lon="11.779749630658884"><ele>266.0</ele><time>2026-05-02T13:23:11.001Z</time></trkpt><trkpt lat="43.16981649276897" lon="11.779698893345625"><ele>266.2</ele><time>2026-05-02T13:23:12.001Z</time></trkpt><trkpt lat="43.16975622230914" lon="11.779593751453653"><ele>266.40000000000003</ele><time>2026-05-02T13:23:13.001Z</time></trkpt><trkpt lat="43.16970894780968" lon="11.779473478091072"><ele>266.6</ele><time>2026-05-02T13:23:14.001Z</time></trkpt><trkpt lat="43.169667206010004" lon="11.779350776816822"><ele>266.8</ele><time>2026-05-02T13:23:15.001Z</time></trkpt><trkpt lat="43.16962802048147" lon="11.779208428195352"><ele>267.0</ele><time>2026-05-02T13:23:16.001Z</time></trkpt><trkpt lat="43.169597292529595" lon="11.779060365590707"><ele>267.2</ele><time>2026-05-02T13:23:17.001Z</time></trkpt><trkpt lat="43.169575257620096" lon="11.778903420053375"><ele>267.4</ele><time>2026-05-02T13:23:18.001Z</time></trkpt><trkpt lat="43.16956319348257" lon="11.778762931129194"><ele>267.6</ele><time>2026-05-02T13:23:19.001Z</time></trkpt><trkpt lat="43.16954754957206" lon="11.77863821222014"><ele>267.8</ele><time>2026-05-02T13:23:20.001Z</time></trkpt><trkpt lat="43.16953327668275" lon="11.778515690918024"><ele>268.0</ele><time>2026-05-02T13:23:21.001Z</time></trkpt><trkpt lat="43.169518709419094" lon="11.778399462173542"><ele>268.2</ele><time>2026-05-02T13:23:22.001Z</time></trkpt><trkpt lat="43.169511314909826" lon="11.778308298400717"><ele>268.4</ele><time>2026-05-02T13:23:23.001Z</time></trkpt><trkpt lat="43.16950458722232" lon="11.778170736979707"><ele>268.59999999999997</ele><time>2026-05-02T13:23:25.001Z</time></trkpt><trkpt lat="43.169486306527915" lon="11.777996812739703"><ele>268.8</ele><time>2026-05-02T13:23:27.001Z</time></trkpt><trkpt lat="43.16947448237794" lon="11.777870425959755"><ele>269.0</ele><time>2026-05-02T13:23:28.001Z</time></trkpt><trkpt lat="43.16946244592482" lon="11.777735439460393"><ele>269.4</ele><time>2026-05-02T13:23:29Z</time></trkpt><trkpt lat="43.16945393259786" lon="11.777586002687752"><ele>269.79999999999995</ele><time>2026-05-02T13:23:30.001Z</time></trkpt><trkpt lat="43.16944567434821" lon="11.777435300403203"><ele>270.20000000000005</ele><time>2026-05-02T13:23:31Z</time></trkpt><trkpt lat="43.169434839455626" lon="11.777281714602594"><ele>270.6</ele><time>2026-05-02T13:23:32Z</time></trkpt><trkpt lat="43.16942524150969" lon="11.777122275035993"><ele>271.0</ele><time>2026-05-02T13:23:33Z</time></trkpt><trkpt lat="43.169417510601534" lon="11.776964438003152"><ele>271.2</ele><time>2026-05-02T13:23:34Z</time></trkpt><trkpt lat="43.16941194621222" lon="11.776810462223718"><ele>271.40000000000003</ele><time>2026-05-02T13:23:35Z</time></trkpt><trkpt lat="43.16940422522785" lon="11.776660301457868"><ele>271.6</ele><time>2026-05-02T13:23:36Z</time></trkpt><trkpt lat="43.169388514359106" lon="11.77653163392802"><ele>271.8</ele><time>2026-05-02T13:23:37Z</time></trkpt><trkpt lat="43.16937027823958" lon="11.776410494447365"><ele>272.0</ele><time>2026-05-02T13:23:38.001Z</time></trkpt><trkpt lat="43.16934374617961" lon="11.77629291454497"><ele>272.0</ele><time>2026-05-02T13:23:39.001Z</time></trkpt><trkpt lat="43.169304205685954" lon="11.776181043555106"><ele>272.0</ele><time>2026-05-02T13:23:40.001Z</time></trkpt><trkpt lat="43.16926554198214" lon="11.776058759740824"><ele>272.0</ele><time>2026-05-02T13:23:41.001Z</time></trkpt><trkpt lat="43.16922380753623" lon="11.775943919419845"><ele>272.0</ele><time>2026-05-02T13:23:42.001Z</time></trkpt><trkpt lat="43.16918454493037" lon="11.775840327419328"><ele>272.0</ele><time>2026-05-02T13:23:43.001Z</time></trkpt><trkpt lat="43.169152410735144" lon="11.775762575861126"><ele>272.0</ele><time>2026-05-02T13:23:44.001Z</time></trkpt><trkpt lat="43.16911785322937" lon="11.77567398901752"><ele>272.5</ele><time>2026-05-02T13:23:46.001Z</time></trkpt><trkpt lat="43.16906871071486" lon="11.775560358865297"><ele>273.0</ele><time>2026-05-02T13:23:52.001Z</time></trkpt><trkpt lat="43.16904230443162" lon="11.775424195161616"><ele>273.5</ele><time>2026-05-02T13:24:00.001Z</time></trkpt><trkpt lat="43.16898173419366" lon="11.775367689508933"><ele>274.0</ele><time>2026-05-02T13:24:01.001Z</time></trkpt><trkpt lat="43.1689288413699" lon="11.775285411275696"><ele>274.5</ele><time>2026-05-02T13:24:02.001Z</time></trkpt><trkpt lat="43.16887573386285" lon="11.775191567488084"><ele>275.0</ele><time>2026-05-02T13:24:03.001Z</time></trkpt><trkpt lat="43.16882443329193" lon="11.775103955715407"><ele>278.25</ele><time>2026-05-02T13:24:04.001Z</time></trkpt><trkpt lat="43.168771549618725" lon="11.775028634495513"><ele>281.5</ele><time>2026-05-02T13:24:05.001Z</time></trkpt><trkpt lat="43.16871105424374" lon="11.774909640532691"><ele>284.75</ele><time>2026-05-02T13:24:07.001Z</time></trkpt><trkpt lat="43.168510352033344" lon="11.775049398744285"><ele>288.0</ele><time>2026-05-02T13:24:09.001Z</time></trkpt><trkpt lat="43.16842148661528" lon="11.775123970520985"><ele>288.0</ele><time>2026-05-02T13:24:10.001Z</time></trkpt><trkpt lat="43.16834187889582" lon="11.775154612561495"><ele>288.0</ele><time>2026-05-02T13:24:11.001Z</time></trkpt><trkpt lat="43.16827321553079" lon="11.775127230436029"><ele>288.0</ele><time>2026-05-02T13:24:12.001Z</time></trkpt><trkpt lat="43.168202044039646" lon="11.775052163174697"><ele>288.0</ele><time>2026-05-02T13:24:13.001Z</time></trkpt><trkpt lat="43.168114529753474" lon="11.774935025080396"><ele>288.0</ele><time>2026-05-02T13:24:14.001Z</time></trkpt><trkpt lat="43.16800368502384" lon="11.77480941715805"><ele>287.6666666666667</ele><time>2026-05-02T13:24:15.001Z</time></trkpt><trkpt lat="43.16787269914268" lon="11.774672461719145"><ele>287.33333333333337</ele><time>2026-05-02T13:24:16.001Z</time></trkpt><trkpt lat="43.16772893427189" lon="11.774516001661246"><ele>287.0</ele><time>2026-05-02T13:24:17.001Z</time></trkpt><trkpt lat="43.16756907963192" lon="11.774345019170486"><ele>288.0</ele><time>2026-05-02T13:24:18.001Z</time></trkpt><trkpt lat="43.16742094381601" lon="11.774151011037237"><ele>289.0</ele><time>2026-05-02T13:24:19.001Z</time></trkpt><trkpt lat="43.16727493488723" lon="11.774010962653609"><ele>290.0</ele><time>2026-05-02T13:24:20.001Z</time></trkpt><trkpt lat="43.167155606380135" lon="11.77386625804308"><ele>290.0</ele><time>2026-05-02T13:24:21.001Z</time></trkpt><trkpt lat="43.16703626075568" lon="11.77373126403556"><ele>290.0</ele><time>2026-05-02T13:24:22.001Z</time></trkpt><trkpt lat="43.16691489383487" lon="11.773594548041315"><ele>290.0</ele><time>2026-05-02T13:24:23.001Z</time></trkpt><trkpt lat="43.166799377793716" lon="11.773465590096325"><ele>292.0</ele><time>2026-05-02T13:24:24.001Z</time></trkpt><trkpt lat="43.166691998668036" lon="11.773346587005248"><ele>294.0</ele><time>2026-05-02T13:24:25.001Z</time></trkpt><trkpt lat="43.16659016339739" lon="11.77323137644475"><ele>296.0</ele><time>2026-05-02T13:24:26.001Z</time></trkpt><trkpt lat="43.16649595744227" lon="11.773126613538418"><ele>298.0</ele><time>2026-05-02T13:24:27.001Z</time></trkpt><trkpt lat="43.166410943331755" lon="11.773028584246546"><ele>298.0</ele><time>2026-05-02T13:24:28.001Z</time></trkpt><trkpt lat="43.166331312079414" lon="11.772940162526467"><ele>298.0</ele><time>2026-05-02T13:24:29.001Z</time></trkpt><trkpt lat="43.16626911385317" lon="11.77287303542599"><ele>298.0</ele><time>2026-05-02T13:24:30.001Z</time></trkpt><trkpt lat="43.1662175287405" lon="11.772809107970863"><ele>298.0</ele><time>2026-05-02T13:24:31.001Z</time></trkpt><trkpt lat="43.16615502069688" lon="11.772733722291328"><ele>298.0</ele><time>2026-05-02T13:24:32.001Z</time></trkpt><trkpt lat="43.16608642300256" lon="11.77264280221724"><ele>298.0</ele><time>2026-05-02T13:24:33.001Z</time></trkpt><trkpt lat="43.166027336536985" lon="11.77253620413135"><ele>300.5</ele><time>2026-05-02T13:24:34.001Z</time></trkpt><trkpt lat="43.165967473722084" lon="11.772413417594791"><ele>303.0</ele><time>2026-05-02T13:24:35.001Z</time></trkpt><trkpt lat="43.16591295971518" lon="11.772272055104196"><ele>305.5</ele><time>2026-05-02T13:24:36.001Z</time></trkpt><trkpt lat="43.16586331652132" lon="11.77213246771409"><ele>308.0</ele><time>2026-05-02T13:24:37.001Z</time></trkpt><trkpt lat="43.165816476080266" lon="11.771973454885915"><ele>306.75</ele><time>2026-05-02T13:24:38.001Z</time></trkpt><trkpt lat="43.16576844105885" lon="11.771806711007578"><ele>305.5</ele><time>2026-05-02T13:24:39.001Z</time></trkpt><trkpt lat="43.16571955158109" lon="11.77165918501078"><ele>304.25</ele><time>2026-05-02T13:24:40.001Z</time></trkpt><trkpt lat="43.1656738197898" lon="11.771519375369794"><ele>303.0</ele><time>2026-05-02T13:24:41.001Z</time></trkpt><trkpt lat="43.1656323066572" lon="11.77138871981581"><ele>303.0</ele><time>2026-05-02T13:24:42.001Z</time></trkpt><trkpt lat="43.16559145311859" lon="11.771269277933119"><ele>303.0</ele><time>2026-05-02T13:24:43.001Z</time></trkpt><trkpt lat="43.16555357252746" lon="11.771153430539519"><ele>303.0</ele><time>2026-05-02T13:24:44.001Z</time></trkpt><trkpt lat="43.165508414244044" lon="11.771044644548022"><ele>303.0</ele><time>2026-05-02T13:24:45.001Z</time></trkpt><trkpt lat="43.16545132869475" lon="11.770939126550267"><ele>303.0</ele><time>2026-05-02T13:24:46.001Z</time></trkpt><trkpt lat="43.16537618044791" lon="11.770845666175418"><ele>304.8</ele><time>2026-05-02T13:24:47.001Z</time></trkpt><trkpt lat="43.16528693541147" lon="11.770752348135005"><ele>306.6</ele><time>2026-05-02T13:24:48.001Z</time></trkpt><trkpt lat="43.16520367190949" lon="11.770655651669275"><ele>308.4</ele><time>2026-05-02T13:24:49.001Z</time></trkpt><trkpt lat="43.16513668122295" lon="11.77057554558145"><ele>310.2</ele><time>2026-05-02T13:24:50.001Z</time></trkpt><trkpt lat="43.16506331736865" lon="11.770491945235692"><ele>312.0</ele><time>2026-05-02T13:24:51.001Z</time></trkpt><trkpt lat="43.164984940447354" lon="11.770401329009681"><ele>312.0</ele><time>2026-05-02T13:24:52.001Z</time></trkpt><trkpt lat="43.16488998482166" lon="11.770290014704102"><ele>312.0</ele><time>2026-05-02T13:24:53.001Z</time></trkpt><trkpt lat="43.16476801216495" lon="11.770148865916843"><ele>312.0</ele><time>2026-05-02T13:24:54.001Z</time></trkpt><trkpt lat="43.16463867448481" lon="11.769993620921733"><ele>314.0</ele><time>2026-05-02T13:24:55.001Z</time></trkpt><trkpt lat="43.1645018815998" lon="11.769800984040776"><ele>316.0</ele><time>2026-05-02T13:24:56.001Z</time></trkpt><trkpt lat="43.164340823775554" lon="11.769630914810023"><ele>318.0</ele><time>2026-05-02T13:24:57.001Z</time></trkpt><trkpt lat="43.164200899310174" lon="11.769436013348553"><ele>317.6666666666667</ele><time>2026-05-02T13:24:58.001Z</time></trkpt><trkpt lat="43.16405762436454" lon="11.769280779816713"><ele>317.33333333333337</ele><time>2026-05-02T13:24:59.001Z</time></trkpt><trkpt lat="43.16393105607074" lon="11.769114915861909"><ele>317.0</ele><time>2026-05-02T13:25:00.001Z</time></trkpt><trkpt lat="43.16381448403866" lon="11.768967188759362"><ele>317.0</ele><time>2026-05-02T13:25:01.001Z</time></trkpt><trkpt lat="43.163698841669486" lon="11.768809822917524"><ele>317.0</ele><time>2026-05-02T13:25:02.001Z</time></trkpt><trkpt lat="43.1635881052883" lon="11.768652150545254"><ele>317.0</ele><time>2026-05-02T13:25:03.001Z</time></trkpt><trkpt lat="43.1634870131417" lon="11.768482906902037"><ele>319.0</ele><time>2026-05-02T13:25:04.001Z</time></trkpt><trkpt lat="43.16340026047612" lon="11.768298424531743"><ele>321.0</ele><time>2026-05-02T13:25:05.001Z</time></trkpt><trkpt lat="43.16331801349097" lon="11.768089469490794"><ele>323.0</ele><time>2026-05-02T13:25:06.001Z</time></trkpt><trkpt lat="43.163232828811864" lon="11.76786431251401"><ele>321.33333333333337</ele><time>2026-05-02T13:25:07.001Z</time></trkpt><trkpt lat="43.16314812561991" lon="11.767644623340646"><ele>319.6666666666667</ele><time>2026-05-02T13:25:08.001Z</time></trkpt><trkpt lat="43.1630665072692" lon="11.767442035232472"><ele>318.0</ele><time>2026-05-02T13:25:09.001Z</time></trkpt><trkpt lat="43.16299291740426" lon="11.767256610372968"><ele>318.0</ele><time>2026-05-02T13:25:10.001Z</time></trkpt><trkpt lat="43.16292313065637" lon="11.767083032619825"><ele>318.0</ele><time>2026-05-02T13:25:11.001Z</time></trkpt><trkpt lat="43.16286144606722" lon="11.766915886210269"><ele>318.0</ele><time>2026-05-02T13:25:12.001Z</time></trkpt><trkpt lat="43.16281030940036" lon="11.76675510791057"><ele>318.0</ele><time>2026-05-02T13:25:13.001Z</time></trkpt><trkpt lat="43.162774552657844" lon="11.766609904970586"><ele>319.4</ele><time>2026-05-02T13:25:14.001Z</time></trkpt><trkpt lat="43.162757738372584" lon="11.766474454274706"><ele>320.8</ele><time>2026-05-02T13:25:15.001Z</time></trkpt><trkpt lat="43.16273703031048" lon="11.766353227565594"><ele>322.2</ele><time>2026-05-02T13:25:16.001Z</time></trkpt><trkpt lat="43.16267787509842" lon="11.766236687654985"><ele>323.6</ele><time>2026-05-02T13:25:17.001Z</time></trkpt><trkpt lat="43.16259383577559" lon="11.766104515567852"><ele>325.0</ele><time>2026-05-02T13:25:18.001Z</time></trkpt><trkpt lat="43.16252403170699" lon="11.765920190516933"><ele>325.0</ele><time>2026-05-02T13:25:19.001Z</time></trkpt><trkpt lat="43.162486110570114" lon="11.765678668378863"><ele>325.0</ele><time>2026-05-02T13:25:20.001Z</time></trkpt><trkpt lat="43.162470080417314" lon="11.7653975100567"><ele>325.0</ele><time>2026-05-02T13:25:21.001Z</time></trkpt><trkpt lat="43.162457575413235" lon="11.765099566915548"><ele>324.66666666666663</ele><time>2026-05-02T13:25:22.001Z</time></trkpt><trkpt lat="43.16243450945884" lon="11.764814546343263"><ele>324.3333333333333</ele><time>2026-05-02T13:25:23.001Z</time></trkpt><trkpt lat="43.16239727819476" lon="11.764554810212147"><ele>324.0</ele><time>2026-05-02T13:25:24.001Z</time></trkpt><trkpt lat="43.162345214983965" lon="11.764325560594093"><ele>329.6666666666667</ele><time>2026-05-02T13:25:25.001Z</time></trkpt><trkpt lat="43.162272795298186" lon="11.764118320053647"><ele>335.33333333333337</ele><time>2026-05-02T13:25:26.001Z</time></trkpt><trkpt lat="43.16217927036158" lon="11.763922476142584"><ele>341.0</ele><time>2026-05-02T13:25:27.001Z</time></trkpt><trkpt lat="43.16207550983832" lon="11.763733983582803"><ele>341.0</ele><time>2026-05-02T13:25:28.001Z</time></trkpt><trkpt lat="43.161963391498425" lon="11.763545524848857"><ele>341.0</ele><time>2026-05-02T13:25:29.001Z</time></trkpt><trkpt lat="43.16183745472312" lon="11.763353786851395"><ele>341.0</ele><time>2026-05-02T13:25:30.001Z</time></trkpt><trkpt lat="43.16171186591343" lon="11.763155016068575"><ele>339.33333333333337</ele><time>2026-05-02T13:25:31.001Z</time></trkpt><trkpt lat="43.161592688865284" lon="11.762959733431877"><ele>337.6666666666667</ele><time>2026-05-02T13:25:32.001Z</time></trkpt><trkpt lat="43.16149278600648" lon="11.762766323322603"><ele>336.0</ele><time>2026-05-02T13:25:33Z</time></trkpt><trkpt lat="43.161422653592275" lon="11.762572666097013"><ele>334.0</ele><time>2026-05-02T13:25:34Z</time></trkpt><trkpt lat="43.16138813839012" lon="11.762371629981407"><ele>332.0</ele><time>2026-05-02T13:25:35Z</time></trkpt><trkpt lat="43.161386547932935" lon="11.762168780964245"><ele>330.0</ele><time>2026-05-02T13:25:36Z</time></trkpt><trkpt lat="43.16142246379905" lon="11.761959384520752"><ele>331.0</ele><time>2026-05-02T13:25:37Z</time></trkpt><trkpt lat="43.16149953219701" lon="11.761738084231027"><ele>332.0</ele><time>2026-05-02T13:25:38Z</time></trkpt><trkpt lat="43.161555145036935" lon="11.761484947520467"><ele>333.0</ele><time>2026-05-02T13:25:39Z</time></trkpt><trkpt lat="43.16162638605806" lon="11.76123756765235"><ele>335.0</ele><time>2026-05-02T13:25:40Z</time></trkpt><trkpt lat="43.16170504586645" lon="11.761000608084512"><ele>337.0</ele><time>2026-05-02T13:25:41Z</time></trkpt><trkpt lat="43.16179374506093" lon="11.760777105880393"><ele>339.0</ele><time>2026-05-02T13:25:42Z</time></trkpt><trkpt lat="43.161907392344304" lon="11.760549214318186"><ele>339.0</ele><time>2026-05-02T13:25:43Z</time></trkpt><trkpt lat="43.16202647227059" lon="11.760344992024613"><ele>339.0</ele><time>2026-05-02T13:25:44Z</time></trkpt><trkpt lat="43.162131517129446" lon="11.760145394001281"><ele>339.0</ele><time>2026-05-02T13:25:45Z</time></trkpt><trkpt lat="43.16223889498777" lon="11.759974406734099"><ele>339.3333333333333</ele><time>2026-05-02T13:25:46Z</time></trkpt><trkpt lat="43.162326148783045" lon="11.759816485195463"><ele>339.66666666666663</ele><time>2026-05-02T13:25:47Z</time></trkpt><trkpt lat="43.162428549608144" lon="11.75967040817954"><ele>340.0</ele><time>2026-05-02T13:25:48Z</time></trkpt><trkpt lat="43.16254075049103" lon="11.759509009404956"><ele>342.66666666666663</ele><time>2026-05-02T13:25:49.001Z</time></trkpt><trkpt lat="43.16267259943959" lon="11.759346261538544"><ele>345.3333333333333</ele><time>2026-05-02T13:25:50.001Z</time></trkpt><trkpt lat="43.16280393875691" lon="11.75919990524826"><ele>348.0</ele><time>2026-05-02T13:25:51.001Z</time></trkpt><trkpt lat="43.162914248471175" lon="11.75906474106093"><ele>348.0</ele><time>2026-05-02T13:25:52.001Z</time></trkpt><trkpt lat="43.163006255011545" lon="11.758920692471081"><ele>348.0</ele><time>2026-05-02T13:25:53.001Z</time></trkpt><trkpt lat="43.16308358255518" lon="11.75873748894805"><ele>348.0</ele><time>2026-05-02T13:25:54.001Z</time></trkpt><trkpt lat="43.163106406530055" lon="11.758540363933616"><ele>348.0</ele><time>2026-05-02T13:25:55.001Z</time></trkpt><trkpt lat="43.16311278132467" lon="11.758352439771782"><ele>350.0</ele><time>2026-05-02T13:25:56.001Z</time></trkpt><trkpt lat="43.16308206253888" lon="11.758158504197981"><ele>352.0</ele><time>2026-05-02T13:25:57.001Z</time></trkpt><trkpt lat="43.16301829895227" lon="11.757965614746125"><ele>354.0</ele><time>2026-05-02T13:25:58.001Z</time></trkpt><trkpt lat="43.1629127597086" lon="11.757769104312398"><ele>353.6666666666667</ele><time>2026-05-02T13:25:59.001Z</time></trkpt><trkpt lat="43.16279941724054" lon="11.757540148434417"><ele>353.33333333333337</ele><time>2026-05-02T13:26:00.001Z</time></trkpt><trkpt lat="43.162667474893375" lon="11.757322961887875"><ele>353.0</ele><time>2026-05-02T13:26:01.001Z</time></trkpt><trkpt lat="43.162550432539255" lon="11.757106818961839"><ele>353.0</ele><time>2026-05-02T13:26:02.001Z</time></trkpt><trkpt lat="43.16239875390509" lon="11.756877720222159"><ele>353.0</ele><time>2026-05-02T13:26:03.001Z</time></trkpt><trkpt lat="43.16223196483319" lon="11.756667279276648"><ele>351.33333333333337</ele><time>2026-05-02T13:26:04.001Z</time></trkpt><trkpt lat="43.162059457115056" lon="11.756490104250776"><ele>349.6666666666667</ele><time>2026-05-02T13:26:05.001Z</time></trkpt><trkpt lat="43.16187623003871" lon="11.756336372556863"><ele>348.0</ele><time>2026-05-02T13:26:06.001Z</time></trkpt><trkpt lat="43.161693428100364" lon="11.75618772611745"><ele>347.6666666666667</ele><time>2026-05-02T13:26:07.001Z</time></trkpt><trkpt lat="43.1615240708993" lon="11.756011616940032"><ele>347.33333333333337</ele><time>2026-05-02T13:26:08.001Z</time></trkpt><trkpt lat="43.16136609751167" lon="11.75581293407237"><ele>347.0</ele><time>2026-05-02T13:26:09.001Z</time></trkpt><trkpt lat="43.161227340350116" lon="11.755624422820295"><ele>347.0</ele><time>2026-05-02T13:26:10.001Z</time></trkpt><trkpt lat="43.161118593914814" lon="11.755416496558313"><ele>347.0</ele><time>2026-05-02T13:26:11.001Z</time></trkpt><trkpt lat="43.16097149799526" lon="11.75527683744362"><ele>347.0</ele><time>2026-05-02T13:26:12.001Z</time></trkpt><trkpt lat="43.16078239110019" lon="11.755298691444866"><ele>346.0</ele><time>2026-05-02T13:26:13.001Z</time></trkpt><trkpt lat="43.160594685584435" lon="11.755279183244172"><ele>345.0</ele><time>2026-05-02T13:26:14.001Z</time></trkpt><trkpt lat="43.16037467272742" lon="11.75525890177075"><ele>344.0</ele><time>2026-05-02T13:26:15.001Z</time></trkpt><trkpt lat="43.16015715898487" lon="11.755224801413515"><ele>347.0</ele><time>2026-05-02T13:26:16.001Z</time></trkpt><trkpt lat="43.15994156382357" lon="11.755193203203643"><ele>350.0</ele><time>2026-05-02T13:26:17.001Z</time></trkpt><trkpt lat="43.15973143743368" lon="11.755159969285609"><ele>353.0</ele><time>2026-05-02T13:26:18.001Z</time></trkpt><trkpt lat="43.15953891026665" lon="11.755126588161081"><ele>353.0</ele><time>2026-05-02T13:26:19.001Z</time></trkpt><trkpt lat="43.159364012990665" lon="11.755086038467596"><ele>353.0</ele><time>2026-05-02T13:26:20.001Z</time></trkpt><trkpt lat="43.15920468519185" lon="11.755056511244106"><ele>353.0</ele><time>2026-05-02T13:26:21.001Z</time></trkpt><trkpt lat="43.159054301858305" lon="11.75502050928223"><ele>348.6666666666667</ele><time>2026-05-02T13:26:22.001Z</time></trkpt><trkpt lat="43.15891855569582" lon="11.754941864148499"><ele>344.3333333333333</ele><time>2026-05-02T13:26:23.001Z</time></trkpt><trkpt lat="43.15877648157835" lon="11.754852910275405"><ele>340.0</ele><time>2026-05-02T13:26:24.001Z</time></trkpt><trkpt lat="43.15865166880006" lon="11.754682653506965"><ele>340.0</ele><time>2026-05-02T13:26:25.001Z</time></trkpt><trkpt lat="43.15850299806912" lon="11.754502620441736"><ele>340.0</ele><time>2026-05-02T13:26:26.001Z</time></trkpt><trkpt lat="43.15835989821327" lon="11.75428818373901"><ele>340.0</ele><time>2026-05-02T13:26:27.001Z</time></trkpt><trkpt lat="43.158206047771706" lon="11.754088322098209"><ele>343.0</ele><time>2026-05-02T13:26:28.001Z</time></trkpt><trkpt lat="43.15805696059023" lon="11.75391621367276"><ele>346.0</ele><time>2026-05-02T13:26:29.001Z</time></trkpt><trkpt lat="43.15792047789796" lon="11.753760384725924"><ele>349.0</ele><time>2026-05-02T13:26:30.001Z</time></trkpt><trkpt lat="43.15779318033259" lon="11.753597794249849"><ele>352.3333333333333</ele><time>2026-05-02T13:26:31.001Z</time></trkpt><trkpt lat="43.15767177521363" lon="11.7534055148206"><ele>355.6666666666667</ele><time>2026-05-02T13:26:32.001Z</time></trkpt><trkpt lat="43.157567658738586" lon="11.753182162836833"><ele>359.0</ele><time>2026-05-02T13:26:33.001Z</time></trkpt><trkpt lat="43.157475438652995" lon="11.752942442861753"><ele>359.0</ele><time>2026-05-02T13:26:34.001Z</time></trkpt><trkpt lat="43.15739056573071" lon="11.752724016583707"><ele>359.0</ele><time>2026-05-02T13:26:35.001Z</time></trkpt><trkpt lat="43.15730316101389" lon="11.75253406708453"><ele>359.0</ele><time>2026-05-02T13:26:36.001Z</time></trkpt><trkpt lat="43.15719920313025" lon="11.752358685821063"><ele>361.6666666666667</ele><time>2026-05-02T13:26:37.001Z</time></trkpt><trkpt lat="43.15706657784855" lon="11.752208451159552"><ele>364.3333333333333</ele><time>2026-05-02T13:26:38.001Z</time></trkpt><trkpt lat="43.156906723734615" lon="11.752093960786828"><ele>367.0</ele><time>2026-05-02T13:26:39.001Z</time></trkpt><trkpt lat="43.156737542076854" lon="11.752003598895106"><ele>367.0</ele><time>2026-05-02T13:26:40.001Z</time></trkpt><trkpt lat="43.156585415941116" lon="11.751906332177944"><ele>367.0</ele><time>2026-05-02T13:26:41.001Z</time></trkpt><trkpt lat="43.156453066837706" lon="11.751774308578259"><ele>367.0</ele><time>2026-05-02T13:26:42.001Z</time></trkpt><trkpt lat="43.15635797464307" lon="11.751580106461798"><ele>365.66666666666663</ele><time>2026-05-02T13:26:43.001Z</time></trkpt><trkpt lat="43.15625843238988" lon="11.75135713644493"><ele>364.3333333333333</ele><time>2026-05-02T13:26:44.001Z</time></trkpt><trkpt lat="43.15614225119276" lon="11.751101744539842"><ele>363.0</ele><time>2026-05-02T13:26:45.001Z</time></trkpt><trkpt lat="43.15603536414572" lon="11.750816284387511"><ele>362.3333333333333</ele><time>2026-05-02T13:26:46.001Z</time></trkpt><trkpt lat="43.15592592501835" lon="11.750549072819739"><ele>361.66666666666663</ele><time>2026-05-02T13:26:47.001Z</time></trkpt><trkpt lat="43.155824869785825" lon="11.750312939738649"><ele>361.0</ele><time>2026-05-02T13:26:48.001Z</time></trkpt><trkpt lat="43.15573232964217" lon="11.75009669052784"><ele>359.3333333333333</ele><time>2026-05-02T13:26:49.001Z</time></trkpt><trkpt lat="43.15564598459601" lon="11.749898205420507"><ele>357.6666666666667</ele><time>2026-05-02T13:26:50.001Z</time></trkpt><trkpt lat="43.15556254898182" lon="11.74971299845357"><ele>356.0</ele><time>2026-05-02T13:26:51.001Z</time></trkpt><trkpt lat="43.155472515458925" lon="11.749531565232628"><ele>360.6666666666667</ele><time>2026-05-02T13:26:52.001Z</time></trkpt><trkpt lat="43.15536259611944" lon="11.749344532328513"><ele>365.3333333333333</ele><time>2026-05-02T13:26:53.001Z</time></trkpt><trkpt lat="43.1552376974436" lon="11.749166071049924"><ele>370.0</ele><time>2026-05-02T13:26:54.001Z</time></trkpt><trkpt lat="43.15509924988463" lon="11.7490150655325"><ele>370.0</ele><time>2026-05-02T13:26:55.001Z</time></trkpt><trkpt lat="43.15497446345741" lon="11.748874698114815"><ele>370.0</ele><time>2026-05-02T13:26:56.001Z</time></trkpt><trkpt lat="43.15486960466252" lon="11.7486997990893"><ele>370.0</ele><time>2026-05-02T13:26:57.001Z</time></trkpt><trkpt lat="43.154798830309666" lon="11.748467358156903"><ele>366.66666666666663</ele><time>2026-05-02T13:26:58.001Z</time></trkpt><trkpt lat="43.15471132426166" lon="11.748239006375467"><ele>363.3333333333333</ele><time>2026-05-02T13:26:59.001Z</time></trkpt><trkpt lat="43.154646262707786" lon="11.748001533056634"><ele>360.0</ele><time>2026-05-02T13:27:00.001Z</time></trkpt><trkpt lat="43.15457082410543" lon="11.747750852704108"><ele>362.3333333333333</ele><time>2026-05-02T13:27:01.001Z</time></trkpt><trkpt lat="43.1544924808278" lon="11.74750286609"><ele>364.66666666666663</ele><time>2026-05-02T13:27:02.001Z</time></trkpt><trkpt lat="43.15442277162901" lon="11.747253536359567"><ele>367.0</ele><time>2026-05-02T13:27:03.001Z</time></trkpt><trkpt lat="43.15436779926329" lon="11.746985348105985"><ele>367.66666666666663</ele><time>2026-05-02T13:27:04.001Z</time></trkpt><trkpt lat="43.154351577088455" lon="11.746681000266289"><ele>368.3333333333333</ele><time>2026-05-02T13:27:05.001Z</time></trkpt><trkpt lat="43.154316899919515" lon="11.746382304172776"><ele>369.0</ele><time>2026-05-02T13:27:06.001Z</time></trkpt><trkpt lat="43.15429151362688" lon="11.746090557745656"><ele>370.0</ele><time>2026-05-02T13:27:07.001Z</time></trkpt><trkpt lat="43.15425166734997" lon="11.745800345872581"><ele>371.0</ele><time>2026-05-02T13:27:08.001Z</time></trkpt><trkpt lat="43.15420210947117" lon="11.745531509861461"><ele>372.0</ele><time>2026-05-02T13:27:09.001Z</time></trkpt><trkpt lat="43.15414722991792" lon="11.745285467143113"><ele>373.0</ele><time>2026-05-02T13:27:10.001Z</time></trkpt><trkpt lat="43.1540942658629" lon="11.7450604478232"><ele>374.0</ele><time>2026-05-02T13:27:11.001Z</time></trkpt><trkpt lat="43.154045863351556" lon="11.744848253862884"><ele>375.0</ele><time>2026-05-02T13:27:12.001Z</time></trkpt><trkpt lat="43.15401316342683" lon="11.744641682293256"><ele>375.0</ele><time>2026-05-02T13:27:13.001Z</time></trkpt><trkpt lat="43.154034734371685" lon="11.744426265216875"><ele>375.0</ele><time>2026-05-02T13:27:14.001Z</time></trkpt><trkpt lat="43.15406111349415" lon="11.744178871437166"><ele>375.0</ele><time>2026-05-02T13:27:15.001Z</time></trkpt><trkpt lat="43.15409314142762" lon="11.743901937798993"><ele>375.0</ele><time>2026-05-02T13:27:16.001Z</time></trkpt><trkpt lat="43.15415660509032" lon="11.743609098779041"><ele>375.0</ele><time>2026-05-02T13:27:17.001Z</time></trkpt><trkpt lat="43.15422119158529" lon="11.743361621342546"><ele>375.0</ele><time>2026-05-02T13:27:18.001Z</time></trkpt><trkpt lat="43.15428433489087" lon="11.743153871324717"><ele>374.0</ele><time>2026-05-02T13:27:19.001Z</time></trkpt><trkpt lat="43.15432570016767" lon="11.74296968635904"><ele>373.0</ele><time>2026-05-02T13:27:20.001Z</time></trkpt><trkpt lat="43.154340699522265" lon="11.742785116298624"><ele>372.0</ele><time>2026-05-02T13:27:21.001Z</time></trkpt><trkpt lat="43.15432421953596" lon="11.742603522675322"><ele>371.0</ele><time>2026-05-02T13:27:22.001Z</time></trkpt><trkpt lat="43.15428690878696" lon="11.742413354614845"><ele>371.0</ele><time>2026-05-02T13:27:23.001Z</time></trkpt><trkpt lat="43.15423508798254" lon="11.742211997270019"><ele>371.0</ele><time>2026-05-02T13:27:24.001Z</time></trkpt><trkpt lat="43.15417738743976" lon="11.741987806882035"><ele>371.0</ele><time>2026-05-02T13:27:25.001Z</time></trkpt><trkpt lat="43.15411655926459" lon="11.741773473245022"><ele>371.0</ele><time>2026-05-02T13:27:26.001Z</time></trkpt><trkpt lat="43.15404325853287" lon="11.741576230233491"><ele>371.0</ele><time>2026-05-02T13:27:27.001Z</time></trkpt><trkpt lat="43.15395607870111" lon="11.741395395097106"><ele>371.0</ele><time>2026-05-02T13:27:28.001Z</time></trkpt><trkpt lat="43.153849211459516" lon="11.741236927116153"><ele>371.0</ele><time>2026-05-02T13:27:29.001Z</time></trkpt><trkpt lat="43.15371844471491" lon="11.741107283341119"><ele>371.0</ele><time>2026-05-02T13:27:30.001Z</time></trkpt><trkpt lat="43.153569970055074" lon="11.741001850019932"><ele>371.0</ele><time>2026-05-02T13:27:31.001Z</time></trkpt><trkpt lat="43.15341650402225" lon="11.740908844559378"><ele>374.6666666666667</ele><time>2026-05-02T13:27:32.001Z</time></trkpt><trkpt lat="43.15326584223408" lon="11.740819835249495"><ele>378.3333333333333</ele><time>2026-05-02T13:27:33.001Z</time></trkpt><trkpt lat="43.153128386150364" lon="11.740729211726897"><ele>382.0</ele><time>2026-05-02T13:27:34Z</time></trkpt><trkpt lat="43.15299991630415" lon="11.74064507267062"><ele>382.0</ele><time>2026-05-02T13:27:35Z</time></trkpt><trkpt lat="43.15286458208872" lon="11.740552407693329"><ele>382.0</ele><time>2026-05-02T13:27:36Z</time></trkpt><trkpt lat="43.152725090507545" lon="11.740450081975178"><ele>382.0</ele><time>2026-05-02T13:27:37Z</time></trkpt><trkpt lat="43.152572651006935" lon="11.740357479374536"><ele>382.0</ele><time>2026-05-02T13:27:38Z</time></trkpt><trkpt lat="43.15240957332807" lon="11.74027039346075"><ele>382.0</ele><time>2026-05-02T13:27:39Z</time></trkpt><trkpt lat="43.152243044398894" lon="11.740183124619719"><ele>382.0</ele><time>2026-05-02T13:27:40Z</time></trkpt><trkpt lat="43.152098250823975" lon="11.740094228683871"><ele>386.0</ele><time>2026-05-02T13:27:41Z</time></trkpt><trkpt lat="43.15197247730077" lon="11.739987928741067"><ele>390.0</ele><time>2026-05-02T13:27:42Z</time></trkpt><trkpt lat="43.1518621353936" lon="11.739841757290531"><ele>394.0</ele><time>2026-05-02T13:27:43Z</time></trkpt><trkpt lat="43.151762278061796" lon="11.73967931288632"><ele>394.0</ele><time>2026-05-02T13:27:44Z</time></trkpt><trkpt lat="43.15167460923483" lon="11.739538485215972"><ele>394.0</ele><time>2026-05-02T13:27:45Z</time></trkpt><trkpt lat="43.15159363435815" lon="11.739442765882039"><ele>394.0</ele><time>2026-05-02T13:27:46Z</time></trkpt><trkpt lat="43.151508644539526" lon="11.739405668937536"><ele>394.0</ele><time>2026-05-02T13:27:47Z</time></trkpt><trkpt lat="43.15140609288341" lon="11.739423501662726"><ele>394.0</ele><time>2026-05-02T13:27:48Z</time></trkpt><trkpt lat="43.151299375547204" lon="11.739501594095461"><ele>398.6666666666667</ele><time>2026-05-02T13:27:49Z</time></trkpt><trkpt lat="43.15120053882456" lon="11.739647982817816"><ele>403.33333333333337</ele><time>2026-05-02T13:27:50Z</time></trkpt><trkpt lat="43.151093610541345" lon="11.7398094592353"><ele>408.0</ele><time>2026-05-02T13:27:51Z</time></trkpt><trkpt lat="43.15098414887057" lon="11.739998339246485"><ele>408.0</ele><time>2026-05-02T13:27:52.001Z</time></trkpt><trkpt lat="43.150870656492785" lon="11.740177213123063"><ele>408.0</ele><time>2026-05-02T13:27:53.001Z</time></trkpt><trkpt lat="43.1507612840062" lon="11.740313148438895"><ele>408.0</ele><time>2026-05-02T13:27:54.001Z</time></trkpt><trkpt lat="43.15066829610441" lon="11.740429452466934"><ele>408.0</ele><time>2026-05-02T13:27:55.001Z</time></trkpt><trkpt lat="43.15055454690789" lon="11.740510403706974"><ele>408.33333333333337</ele><time>2026-05-02T13:27:56.001Z</time></trkpt><trkpt lat="43.150419416721626" lon="11.740556524603184"><ele>408.6666666666667</ele><time>2026-05-02T13:27:57.001Z</time></trkpt><trkpt lat="43.15024969975003" lon="11.740556779781707"><ele>409.0</ele><time>2026-05-02T13:27:58.001Z</time></trkpt><trkpt lat="43.15005036589222" lon="11.740558976375276"><ele>410.33333333333337</ele><time>2026-05-02T13:27:59.001Z</time></trkpt><trkpt lat="43.14984575943115" lon="11.740578925800737"><ele>411.66666666666663</ele><time>2026-05-02T13:28:00.001Z</time></trkpt><trkpt lat="43.14966775880134" lon="11.740575973625113"><ele>413.0</ele><time>2026-05-02T13:28:01.001Z</time></trkpt><trkpt lat="43.14950287267916" lon="11.740559902310668"><ele>413.0</ele><time>2026-05-02T13:28:02.001Z</time></trkpt><trkpt lat="43.149344022760786" lon="11.740510133729764"><ele>413.0</ele><time>2026-05-02T13:28:03.001Z</time></trkpt><trkpt lat="43.14918805561651" lon="11.740417698002421"><ele>413.0</ele><time>2026-05-02T13:28:04.001Z</time></trkpt><trkpt lat="43.14902699056528" lon="11.74029791106006"><ele>416.66666666666663</ele><time>2026-05-02T13:28:05.001Z</time></trkpt><trkpt lat="43.14886844065398" lon="11.740185802811807"><ele>420.33333333333337</ele><time>2026-05-02T13:28:06.001Z</time></trkpt><trkpt lat="43.1486993757029" lon="11.740111944819608"><ele>424.0</ele><time>2026-05-02T13:28:07.001Z</time></trkpt><trkpt lat="43.148519423040135" lon="11.740061965735668"><ele>424.0</ele><time>2026-05-02T13:28:08.001Z</time></trkpt><trkpt lat="43.1483445906031" lon="11.740034106487538"><ele>424.0</ele><time>2026-05-02T13:28:09.001Z</time></trkpt><trkpt lat="43.1481763301928" lon="11.740012701083089"><ele>424.0</ele><time>2026-05-02T13:28:10.001Z</time></trkpt><trkpt lat="43.14802812400261" lon="11.739992116891575"><ele>425.75</ele><time>2026-05-02T13:28:11.001Z</time></trkpt><trkpt lat="43.14789675720585" lon="11.739988473746296"><ele>427.5</ele><time>2026-05-02T13:28:12.001Z</time></trkpt><trkpt lat="43.1477492319645" lon="11.740021072942858"><ele>429.25</ele><time>2026-05-02T13:28:13.001Z</time></trkpt><trkpt lat="43.147600578295624" lon="11.740104209427434"><ele>431.0</ele><time>2026-05-02T13:28:14.001Z</time></trkpt><trkpt lat="43.14745887158287" lon="11.740205412530898"><ele>428.75</ele><time>2026-05-02T13:28:15.001Z</time></trkpt><trkpt lat="43.147320808654456" lon="11.740283361471507"><ele>426.5</ele><time>2026-05-02T13:28:16.001Z</time></trkpt><trkpt lat="43.14719320217085" lon="11.740323241130065"><ele>424.25</ele><time>2026-05-02T13:28:17.001Z</time></trkpt><trkpt lat="43.147060859659305" lon="11.740328726329281"><ele>422.0</ele><time>2026-05-02T13:28:18.001Z</time></trkpt><trkpt lat="43.14690349596184" lon="11.740300215459639"><ele>422.0</ele><time>2026-05-02T13:28:19.001Z</time></trkpt><trkpt lat="43.14671964764011" lon="11.740247819167477"><ele>422.0</ele><time>2026-05-02T13:28:20.001Z</time></trkpt><trkpt lat="43.146526960274095" lon="11.740212301068995"><ele>422.0</ele><time>2026-05-02T13:28:21.001Z</time></trkpt><trkpt lat="43.146335919814845" lon="11.74020106680782"><ele>426.25</ele><time>2026-05-02T13:28:22.001Z</time></trkpt><trkpt lat="43.14616878739693" lon="11.740204451194353"><ele>430.5</ele><time>2026-05-02T13:28:23.001Z</time></trkpt><trkpt lat="43.1460236363002" lon="11.740190487230704"><ele>434.75</ele><time>2026-05-02T13:28:24.001Z</time></trkpt><trkpt lat="43.14590247941666" lon="11.74015087204374"><ele>439.0</ele><time>2026-05-02T13:28:25.001Z</time></trkpt><trkpt lat="43.145794654548276" lon="11.740096584970788"><ele>439.00000000000006</ele><time>2026-05-02T13:28:26.001Z</time></trkpt><trkpt lat="43.14571272050286" lon="11.73999922472467"><ele>439.0</ele><time>2026-05-02T13:28:27.001Z</time></trkpt><trkpt lat="43.14563342312524" lon="11.739916114978184"><ele>439.0</ele><time>2026-05-02T13:28:28.001Z</time></trkpt><trkpt lat="43.14556848316263" lon="11.739844329195543"><ele>439.0</ele><time>2026-05-02T13:28:29.001Z</time></trkpt><trkpt lat="43.145551872664754" lon="11.739749283123382"><ele>439.00000000000006</ele><time>2026-05-02T13:28:30.001Z</time></trkpt><trkpt lat="43.14557972364835" lon="11.739670386643322"><ele>439.0</ele><time>2026-05-02T13:28:31.001Z</time></trkpt><trkpt lat="43.14564131824124" lon="11.739622570766201"><ele>439.0</ele><time>2026-05-02T13:28:32.001Z</time></trkpt><trkpt lat="43.145722512462726" lon="11.73962510424759"><ele>439.0</ele><time>2026-05-02T13:28:33.001Z</time></trkpt><trkpt lat="43.1458187379262" lon="11.739703246464954"><ele>439.0</ele><time>2026-05-02T13:28:34.001Z</time></trkpt><trkpt lat="43.14594580827391" lon="11.739741223446963"><ele>439.0</ele><time>2026-05-02T13:28:35.001Z</time></trkpt><trkpt lat="43.14607800343308" lon="11.73974477196258"><ele>439.0</ele><time>2026-05-02T13:28:36.001Z</time></trkpt><trkpt lat="43.14623157115665" lon="11.739718851225083"><ele>439.0</ele><time>2026-05-02T13:28:37.001Z</time></trkpt><trkpt lat="43.146389470205634" lon="11.739677368688854"><ele>439.0</ele><time>2026-05-02T13:28:38.001Z</time></trkpt><trkpt lat="43.146547408440405" lon="11.739641520005591"><ele>438.75</ele><time>2026-05-02T13:28:39.001Z</time></trkpt><trkpt lat="43.146695168655306" lon="11.739605404966"><ele>438.5</ele><time>2026-05-02T13:28:40.001Z</time></trkpt><trkpt lat="43.14683026653144" lon="11.739575514150092"><ele>438.25</ele><time>2026-05-02T13:28:41.001Z</time></trkpt><trkpt lat="43.146954380638505" lon="11.7395274029036"><ele>438.0</ele><time>2026-05-02T13:28:42.001Z</time></trkpt><trkpt lat="43.1470672959119" lon="11.739447134061562"><ele>439.75</ele><time>2026-05-02T13:28:43.001Z</time></trkpt><trkpt lat="43.147164061026714" lon="11.739329768779447"><ele>441.5</ele><time>2026-05-02T13:28:44.001Z</time></trkpt><trkpt lat="43.14724613809534" lon="11.73917880754908"><ele>443.25</ele><time>2026-05-02T13:28:45.001Z</time></trkpt><trkpt lat="43.14732377521968" lon="11.738981821461868"><ele>445.0</ele><time>2026-05-02T13:28:46.001Z</time></trkpt><trkpt lat="43.14740790056137" lon="11.738771051086188"><ele>445.0</ele><time>2026-05-02T13:28:47.001Z</time></trkpt><trkpt lat="43.14750179995683" lon="11.73855924834075"><ele>445.0</ele><time>2026-05-02T13:28:48.001Z</time></trkpt><trkpt lat="43.147590734827716" lon="11.738367549647412"><ele>445.0</ele><time>2026-05-02T13:28:49.001Z</time></trkpt><trkpt lat="43.1476669562523" lon="11.738201617008686"><ele>447.4</ele><time>2026-05-02T13:28:50.001Z</time></trkpt><trkpt lat="43.147725978002555" lon="11.738054995207749"><ele>449.8</ele><time>2026-05-02T13:28:51.001Z</time></trkpt><trkpt lat="43.14777027308482" lon="11.737918550321353"><ele>452.20000000000005</ele><time>2026-05-02T13:28:52.001Z</time></trkpt><trkpt lat="43.14778295932392" lon="11.737792684745745"><ele>454.6</ele><time>2026-05-02T13:28:53.001Z</time></trkpt><trkpt lat="43.14775662694054" lon="11.737678565854367"><ele>457.0</ele><time>2026-05-02T13:28:54.001Z</time></trkpt><trkpt lat="43.147701606611314" lon="11.737598932496326"><ele>458.40000000000003</ele><time>2026-05-02T13:28:55.001Z</time></trkpt><trkpt lat="43.147637690127624" lon="11.737539748434711"><ele>459.80000000000007</ele><time>2026-05-02T13:28:56.001Z</time></trkpt><trkpt lat="43.14754274847483" lon="11.737544356792254"><ele>461.2</ele><time>2026-05-02T13:28:57.001Z</time></trkpt><trkpt lat="43.14745769099707" lon="11.737595781222556"><ele>462.6</ele><time>2026-05-02T13:28:58.001Z</time></trkpt><trkpt lat="43.14738402662319" lon="11.737693641130925"><ele>464.0</ele><time>2026-05-02T13:28:59.001Z</time></trkpt><trkpt lat="43.14732396134836" lon="11.73784371159179"><ele>467.0</ele><time>2026-05-02T13:29:00.001Z</time></trkpt><trkpt lat="43.1472572727352" lon="11.738042060966833"><ele>470.0</ele><time>2026-05-02T13:29:01.001Z</time></trkpt><trkpt lat="43.147173308098" lon="11.738251130104198"><ele>473.0</ele><time>2026-05-02T13:29:02.001Z</time></trkpt><trkpt lat="43.14707340038884" lon="11.738437321543413"><ele>469.25</ele><time>2026-05-02T13:29:03.001Z</time></trkpt><trkpt lat="43.14695333766185" lon="11.738559040667566"><ele>465.5</ele><time>2026-05-02T13:29:04.001Z</time></trkpt><trkpt lat="43.1468426666298" lon="11.738645030576246"><ele>461.75</ele><time>2026-05-02T13:29:05.001Z</time></trkpt><trkpt lat="43.146724628640925" lon="11.738699414233208"><ele>458.0</ele><time>2026-05-02T13:29:06.001Z</time></trkpt><trkpt lat="43.14660697399314" lon="11.73872623203365"><ele>457.66666666666663</ele><time>2026-05-02T13:29:07.001Z</time></trkpt><trkpt lat="43.14645975670345" lon="11.738729482088088"><ele>457.33333333333337</ele><time>2026-05-02T13:29:08.001Z</time></trkpt><trkpt lat="43.14629563602783" lon="11.738697994992961"><ele>457.0</ele><time>2026-05-02T13:29:09.001Z</time></trkpt><trkpt lat="43.146128023903785" lon="11.738658884828117"><ele>457.0</ele><time>2026-05-02T13:29:10.001Z</time></trkpt><trkpt lat="43.145987453006406" lon="11.738618704829724"><ele>457.0</ele><time>2026-05-02T13:29:11.001Z</time></trkpt><trkpt lat="43.14586871298064" lon="11.738572701023513"><ele>457.0</ele><time>2026-05-02T13:29:12.001Z</time></trkpt><trkpt lat="43.14577063730986" lon="11.738497276052415"><ele>457.0</ele><time>2026-05-02T13:29:13.001Z</time></trkpt><trkpt lat="43.14569975437286" lon="11.738393729671937"><ele>459.25</ele><time>2026-05-02T13:29:14.001Z</time></trkpt><trkpt lat="43.145658195545984" lon="11.738272249507254"><ele>461.5</ele><time>2026-05-02T13:29:15.001Z</time></trkpt><trkpt lat="43.145630697918754" lon="11.738121239609546"><ele>463.75</ele><time>2026-05-02T13:29:16.001Z</time></trkpt><trkpt lat="43.14560354304222" lon="11.737956623128152"><ele>466.0</ele><time>2026-05-02T13:29:17.001Z</time></trkpt><trkpt lat="43.145551861916864" lon="11.737801474449059"><ele>470.0</ele><time>2026-05-02T13:29:18.001Z</time></trkpt><trkpt lat="43.14549070421582" lon="11.73769444126492"><ele>474.0</ele><time>2026-05-02T13:29:19.001Z</time></trkpt><trkpt lat="43.145396219258366" lon="11.737630310547106"><ele>478.0</ele><time>2026-05-02T13:29:20.001Z</time></trkpt><trkpt lat="43.14527261767832" lon="11.73761314102889"><ele>482.0</ele><time>2026-05-02T13:29:21.001Z</time></trkpt><trkpt lat="43.14514146901423" lon="11.737615947519245"><ele>482.0</ele><time>2026-05-02T13:29:22.001Z</time></trkpt><trkpt lat="43.145021845647896" lon="11.737539249523065"><ele>482.0</ele><time>2026-05-02T13:29:23.001Z</time></trkpt><trkpt lat="43.1449359086099" lon="11.737440981700521"><ele>482.0</ele><time>2026-05-02T13:29:24.001Z</time></trkpt><trkpt lat="43.14485749559624" lon="11.737292669536949"><ele>482.0</ele><time>2026-05-02T13:29:25.001Z</time></trkpt><trkpt lat="43.144788067546216" lon="11.737117485479635"><ele>480.66666666666663</ele><time>2026-05-02T13:29:26.001Z</time></trkpt><trkpt lat="43.144741908641144" lon="11.736931430058528"><ele>479.33333333333337</ele><time>2026-05-02T13:29:27.001Z</time></trkpt><trkpt lat="43.14470005558256" lon="11.73671493548259"><ele>478.0</ele><time>2026-05-02T13:29:28.001Z</time></trkpt><trkpt lat="43.1446831749432" lon="11.736471674874428"><ele>478.0</ele><time>2026-05-02T13:29:29.001Z</time></trkpt><trkpt lat="43.14462727391634" lon="11.736256597872174"><ele>478.0</ele><time>2026-05-02T13:29:30.001Z</time></trkpt><trkpt lat="43.14453335687759" lon="11.736058096972508"><ele>478.0</ele><time>2026-05-02T13:29:31.001Z</time></trkpt><trkpt lat="43.14441555501569" lon="11.735881585851308"><ele>481.0</ele><time>2026-05-02T13:29:32.001Z</time></trkpt><trkpt lat="43.14430952413236" lon="11.735711235874883"><ele>484.0</ele><time>2026-05-02T13:29:33.001Z</time></trkpt><trkpt lat="43.14424381014675" lon="11.735527973028763"><ele>487.0</ele><time>2026-05-02T13:29:34.001Z</time></trkpt><trkpt lat="43.144207275221774" lon="11.735351128833313"><ele>490.0</ele><time>2026-05-02T13:29:35.001Z</time></trkpt><trkpt lat="43.144160690071274" lon="11.735208650081127"><ele>494.0</ele><time>2026-05-02T13:29:36.001Z</time></trkpt><trkpt lat="43.144080983397025" lon="11.735105626864128"><ele>498.0</ele><time>2026-05-02T13:29:37.001Z</time></trkpt><trkpt lat="43.14397340077802" lon="11.735060259747103"><ele>502.0</ele><time>2026-05-02T13:29:38.001Z</time></trkpt><trkpt lat="43.14384121511477" lon="11.735082902703335"><ele>506.0</ele><time>2026-05-02T13:29:39Z</time></trkpt><trkpt lat="43.1436873547374" lon="11.735138490884694"><ele>506.3333333333333</ele><time>2026-05-02T13:29:40Z</time></trkpt><trkpt lat="43.1435140216611" lon="11.735200006435209"><ele>506.66666666666663</ele><time>2026-05-02T13:29:41Z</time></trkpt><trkpt lat="43.14331531758006" lon="11.735251606430584"><ele>507.0</ele><time>2026-05-02T13:29:42Z</time></trkpt><trkpt lat="43.14309624886241" lon="11.73530215375496"><ele>503.5</ele><time>2026-05-02T13:29:43Z</time></trkpt><trkpt lat="43.142866748842756" lon="11.735359308924163"><ele>500.0</ele><time>2026-05-02T13:29:44Z</time></trkpt><trkpt lat="43.14264282681325" lon="11.735426392431576"><ele>500.0</ele><time>2026-05-02T13:29:45Z</time></trkpt><trkpt lat="43.142440750045985" lon="11.735495370531691"><ele>500.0</ele><time>2026-05-02T13:29:46Z</time></trkpt><trkpt lat="43.142253923920556" lon="11.7355443658395"><ele>500.0</ele><time>2026-05-02T13:29:47Z</time></trkpt><trkpt lat="43.14208177867209" lon="11.735567351301555"><ele>504.0</ele><time>2026-05-02T13:29:48Z</time></trkpt><trkpt lat="43.141920959094996" lon="11.735578157678829"><ele>508.0</ele><time>2026-05-02T13:29:49Z</time></trkpt><trkpt lat="43.14176551429652" lon="11.735604959877108"><ele>512.0</ele><time>2026-05-02T13:29:50Z</time></trkpt><trkpt lat="43.14162528402215" lon="11.735659189881506"><ele>514.0</ele><time>2026-05-02T13:29:51Z</time></trkpt><trkpt lat="43.14151177969878" lon="11.735774203065802"><ele>516.0</ele><time>2026-05-02T13:29:52Z</time></trkpt><trkpt lat="43.141395208892376" lon="11.735937433381508"><ele>518.0</ele><time>2026-05-02T13:29:53Z</time></trkpt><trkpt lat="43.14129821851428" lon="11.736126235247507"><ele>518.0</ele><time>2026-05-02T13:29:54Z</time></trkpt><trkpt lat="43.14122524883838" lon="11.736330295172406"><ele>518.0</ele><time>2026-05-02T13:29:55Z</time></trkpt><trkpt lat="43.14117317753688" lon="11.73651496949151"><ele>518.0</ele><time>2026-05-02T13:29:56Z</time></trkpt><trkpt lat="43.14110325088842" lon="11.73667742361591"><ele>518.0</ele><time>2026-05-02T13:29:57Z</time></trkpt><trkpt lat="43.14099083889253" lon="11.736805493734789"><ele>516.0</ele><time>2026-05-02T13:29:58.001Z</time></trkpt><trkpt lat="43.14084999531965" lon="11.736912170609369"><ele>514.0</ele><time>2026-05-02T13:29:59.001Z</time></trkpt><trkpt lat="43.140703898206084" lon="11.736981553359206"><ele>512.0</ele><time>2026-05-02T13:30:00.001Z</time></trkpt><trkpt lat="43.140554972811515" lon="11.73701632081698"><ele>511.25</ele><time>2026-05-02T13:30:01.001Z</time></trkpt><trkpt lat="43.14040313240161" lon="11.736983588710252"><ele>510.5</ele><time>2026-05-02T13:30:02.001Z</time></trkpt><trkpt lat="43.14026836714486" lon="11.73693083283924"><ele>509.75</ele><time>2026-05-02T13:30:03.001Z</time></trkpt><trkpt lat="43.14014289321708" lon="11.7368296400588"><ele>509.0</ele><time>2026-05-02T13:30:04.001Z</time></trkpt><trkpt lat="43.140022095658956" lon="11.736673264633712"><ele>512.3333333333333</ele><time>2026-05-02T13:30:05.001Z</time></trkpt><trkpt lat="43.139876981190746" lon="11.736504948781548"><ele>515.6666666666666</ele><time>2026-05-02T13:30:06.001Z</time></trkpt><trkpt lat="43.139737481903104" lon="11.73630255011293"><ele>519.0</ele><time>2026-05-02T13:30:07.001Z</time></trkpt><trkpt lat="43.139592766294896" lon="11.736110023919"><ele>520.6666666666666</ele><time>2026-05-02T13:30:08.001Z</time></trkpt><trkpt lat="43.139464405967814" lon="11.73594449168211"><ele>522.3333333333333</ele><time>2026-05-02T13:30:09.001Z</time></trkpt><trkpt lat="43.13934311990939" lon="11.735792934524934"><ele>524.0</ele><time>2026-05-02T13:30:10.001Z</time></trkpt><trkpt lat="43.13923468419746" lon="11.735640093563658"><ele>524.0</ele><time>2026-05-02T13:30:11.001Z</time></trkpt><trkpt lat="43.13914218428236" lon="11.735453116869108"><ele>524.0</ele><time>2026-05-02T13:30:12.001Z</time></trkpt><trkpt lat="43.139072635153774" lon="11.73524006531639"><ele>524.0</ele><time>2026-05-02T13:30:13.001Z</time></trkpt><trkpt lat="43.13904606095039" lon="11.735011874422975"><ele>523.3333333333333</ele><time>2026-05-02T13:30:14.001Z</time></trkpt><trkpt lat="43.13903539946373" lon="11.734782400484416"><ele>522.6666666666666</ele><time>2026-05-02T13:30:15.001Z</time></trkpt><trkpt lat="43.13903982849182" lon="11.73455124192446"><ele>522.0</ele><time>2026-05-02T13:30:16.001Z</time></trkpt><trkpt lat="43.13908991381312" lon="11.73432972160011"><ele>520.75</ele><time>2026-05-02T13:30:17.001Z</time></trkpt><trkpt lat="43.13915745701894" lon="11.73413332950211"><ele>519.5</ele><time>2026-05-02T13:30:18.001Z</time></trkpt><trkpt lat="43.139196855661886" lon="11.733954437227654"><ele>518.25</ele><time>2026-05-02T13:30:19.001Z</time></trkpt><trkpt lat="43.13920573412192" lon="11.733780871314144"><ele>517.0</ele><time>2026-05-02T13:30:20.001Z</time></trkpt><trkpt lat="43.139181395976664" lon="11.733593191852222"><ele>518.0</ele><time>2026-05-02T13:30:21.001Z</time></trkpt><trkpt lat="43.13912293994682" lon="11.733407008188765"><ele>519.0</ele><time>2026-05-02T13:30:22.001Z</time></trkpt><trkpt lat="43.139028216013195" lon="11.733254176891563"><ele>520.0</ele><time>2026-05-02T13:30:23.001Z</time></trkpt><trkpt lat="43.13889855775858" lon="11.733129108502284"><ele>518.0</ele><time>2026-05-02T13:30:24.001Z</time></trkpt><trkpt lat="43.13874267306328" lon="11.733028910262112"><ele>516.0</ele><time>2026-05-02T13:30:25.001Z</time></trkpt><trkpt lat="43.13856672550415" lon="11.732938068236326"><ele>514.0</ele><time>2026-05-02T13:30:26.001Z</time></trkpt><trkpt lat="43.13838101173123" lon="11.732847759274547"><ele>513.6666666666667</ele><time>2026-05-02T13:30:27.001Z</time></trkpt><trkpt lat="43.138193974854076" lon="11.732743280778"><ele>513.3333333333334</ele><time>2026-05-02T13:30:28.001Z</time></trkpt><trkpt lat="43.13801798912631" lon="11.732642625484043"><ele>513.0</ele><time>2026-05-02T13:30:29.001Z</time></trkpt><trkpt lat="43.137849515607506" lon="11.73253405156965"><ele>513.0</ele><time>2026-05-02T13:30:30.001Z</time></trkpt><trkpt lat="43.13770099674955" lon="11.732367997499843"><ele>513.0</ele><time>2026-05-02T13:30:31.001Z</time></trkpt><trkpt lat="43.13753677647392" lon="11.73220769050844"><ele>513.0</ele><time>2026-05-02T13:30:32.001Z</time></trkpt><trkpt lat="43.137392790397726" lon="11.732027355518463"><ele>509.0</ele><time>2026-05-02T13:30:33.001Z</time></trkpt><trkpt lat="43.13726886442591" lon="11.731849836294229"><ele>505.0</ele><time>2026-05-02T13:30:34.001Z</time></trkpt><trkpt lat="43.137182097500265" lon="11.731649506377495"><ele>501.0</ele><time>2026-05-02T13:30:35.001Z</time></trkpt><trkpt lat="43.13709462362419" lon="11.73144333581977"><ele>501.0</ele><time>2026-05-02T13:30:36.001Z</time></trkpt><trkpt lat="43.137039362625664" lon="11.731211720128963"><ele>501.0</ele><time>2026-05-02T13:30:37.001Z</time></trkpt><trkpt lat="43.13699689062914" lon="11.730996153851912"><ele>501.0</ele><time>2026-05-02T13:30:38.001Z</time></trkpt><trkpt lat="43.13694640031105" lon="11.730812370857157"><ele>501.75</ele><time>2026-05-02T13:30:39.001Z</time></trkpt><trkpt lat="43.13687949720843" lon="11.73066095196445"><ele>502.5</ele><time>2026-05-02T13:30:40.001Z</time></trkpt><trkpt lat="43.13678953328791" lon="11.730550979739842"><ele>503.25</ele><time>2026-05-02T13:30:41.001Z</time></trkpt><trkpt lat="43.1366701988227" lon="11.730481826253609"><ele>504.0</ele><time>2026-05-02T13:30:42.001Z</time></trkpt><trkpt lat="43.13652303378734" lon="11.730447502877904"><ele>504.0</ele><time>2026-05-02T13:30:43.001Z</time></trkpt><trkpt lat="43.13635263362685" lon="11.730439076609814"><ele>504.0</ele><time>2026-05-02T13:30:44.001Z</time></trkpt><trkpt lat="43.13616678276692" lon="11.730438340642747"><ele>504.0</ele><time>2026-05-02T13:30:45.001Z</time></trkpt><trkpt lat="43.135977186970955" lon="11.730425806960477"><ele>504.0</ele><time>2026-05-02T13:30:46.001Z</time></trkpt><trkpt lat="43.13579702126258" lon="11.730401263677287"><ele>504.0</ele><time>2026-05-02T13:30:47.001Z</time></trkpt><trkpt lat="43.13562479534024" lon="11.730357590208365"><ele>504.0</ele><time>2026-05-02T13:30:48.001Z</time></trkpt><trkpt lat="43.13545922070304" lon="11.730287451144783"><ele>507.66666666666663</ele><time>2026-05-02T13:30:49.001Z</time></trkpt><trkpt lat="43.13530798362714" lon="11.730206890984311"><ele>511.3333333333333</ele><time>2026-05-02T13:30:50.001Z</time></trkpt><trkpt lat="43.1351655400539" lon="11.730121356097364"><ele>515.0</ele><time>2026-05-02T13:30:51.001Z</time></trkpt><trkpt lat="43.13503012691434" lon="11.730023546342071"><ele>515.0</ele><time>2026-05-02T13:30:52.001Z</time></trkpt><trkpt lat="43.134890932749464" lon="11.729918714667132"><ele>515.0</ele><time>2026-05-02T13:30:53.001Z</time></trkpt><trkpt lat="43.13475024489804" lon="11.729833694674156"><ele>515.0</ele><time>2026-05-02T13:30:54.001Z</time></trkpt><trkpt lat="43.13461568113303" lon="11.72975008975783"><ele>513.0</ele><time>2026-05-02T13:30:55.001Z</time></trkpt><trkpt lat="43.13448646802865" lon="11.729659959494352"><ele>511.0</ele><time>2026-05-02T13:30:56.001Z</time></trkpt><trkpt lat="43.13436027152086" lon="11.729571097694507"><ele>509.0</ele><time>2026-05-02T13:30:57.001Z</time></trkpt><trkpt lat="43.134231702980316" lon="11.729503863956644"><ele>507.0</ele><time>2026-05-02T13:30:58.001Z</time></trkpt><trkpt lat="43.13409337916836" lon="11.729479031814694"><ele>508.66666666666663</ele><time>2026-05-02T13:30:59.001Z</time></trkpt><trkpt lat="43.13393902160984" lon="11.729500148990283"><ele>510.3333333333333</ele><time>2026-05-02T13:31:00.001Z</time></trkpt><trkpt lat="43.133778409388434" lon="11.729558334913651"><ele>512.0</ele><time>2026-05-02T13:31:01.001Z</time></trkpt><trkpt lat="43.13361807039618" lon="11.729634575951525"><ele>512.0</ele><time>2026-05-02T13:31:02.001Z</time></trkpt><trkpt lat="43.13346002046011" lon="11.729722933639602"><ele>512.0</ele><time>2026-05-02T13:31:03.001Z</time></trkpt><trkpt lat="43.13332146990968" lon="11.729808657003726"><ele>512.0</ele><time>2026-05-02T13:31:04.001Z</time></trkpt><trkpt lat="43.13320257545291" lon="11.729890654200526"><ele>513.75</ele><time>2026-05-02T13:31:05.001Z</time></trkpt><trkpt lat="43.13307350012024" lon="11.72994219780182"><ele>515.5</ele><time>2026-05-02T13:31:06.001Z</time></trkpt><trkpt lat="43.13292270395553" lon="11.729944468759129"><ele>517.25</ele><time>2026-05-02T13:31:07.001Z</time></trkpt><trkpt lat="43.13276787910898" lon="11.72988722136453"><ele>519.0</ele><time>2026-05-02T13:31:08.001Z</time></trkpt><trkpt lat="43.13261588265278" lon="11.729772158141328"><ele>519.0</ele><time>2026-05-02T13:31:09.001Z</time></trkpt><trkpt lat="43.13245882195857" lon="11.72962582987257"><ele>519.0</ele><time>2026-05-02T13:31:10.001Z</time></trkpt><trkpt lat="43.13228922463375" lon="11.729476328657483"><ele>519.0</ele><time>2026-05-02T13:31:11.001Z</time></trkpt><trkpt lat="43.132109946302734" lon="11.729345937645283"><ele>519.6666666666666</ele><time>2026-05-02T13:31:12.001Z</time></trkpt><trkpt lat="43.131928072403774" lon="11.729238545790425"><ele>520.3333333333333</ele><time>2026-05-02T13:31:13.001Z</time></trkpt><trkpt lat="43.131753679724326" lon="11.729150224387569"><ele>521.0</ele><time>2026-05-02T13:31:14.001Z</time></trkpt><trkpt lat="43.1315908740213" lon="11.729037542473122"><ele>521.3333333333333</ele><time>2026-05-02T13:31:15.001Z</time></trkpt><trkpt lat="43.13144168994465" lon="11.728876779033323"><ele>521.6666666666666</ele><time>2026-05-02T13:31:16.001Z</time></trkpt><trkpt lat="43.13131165711864" lon="11.728693628999558"><ele>522.0</ele><time>2026-05-02T13:31:17.001Z</time></trkpt><trkpt lat="43.131197490046596" lon="11.728527579762744"><ele>521.3333333333334</ele><time>2026-05-02T13:31:18.001Z</time></trkpt><trkpt lat="43.13108341855406" lon="11.728386228873164"><ele>520.6666666666667</ele><time>2026-05-02T13:31:19.001Z</time></trkpt><trkpt lat="43.13096092169672" lon="11.72827936140319"><ele>520.0</ele><time>2026-05-02T13:31:20.001Z</time></trkpt><trkpt lat="43.130817059765555" lon="11.728189880308433"><ele>518.0</ele><time>2026-05-02T13:31:21.001Z</time></trkpt><trkpt lat="43.13063166117571" lon="11.728127077337794"><ele>516.0</ele><time>2026-05-02T13:31:22.001Z</time></trkpt><trkpt lat="43.130426691265306" lon="11.728083278363835"><ele>514.0</ele><time>2026-05-02T13:31:23.001Z</time></trkpt><trkpt lat="43.130216779878054" lon="11.728043752688404"><ele>514.0</ele><time>2026-05-02T13:31:24.001Z</time></trkpt><trkpt lat="43.13001966523165" lon="11.728005131058131"><ele>514.0</ele><time>2026-05-02T13:31:25.001Z</time></trkpt><trkpt lat="43.1298388576671" lon="11.727965914260064"><ele>514.0</ele><time>2026-05-02T13:31:26.001Z</time></trkpt><trkpt lat="43.129671015489734" lon="11.727934954323517"><ele>514.3333333333334</ele><time>2026-05-02T13:31:27.001Z</time></trkpt><trkpt lat="43.12950436919549" lon="11.727926960677019"><ele>514.6666666666666</ele><time>2026-05-02T13:31:28.001Z</time></trkpt><trkpt lat="43.129328660690675" lon="11.72795826089386"><ele>515.0</ele><time>2026-05-02T13:31:29.001Z</time></trkpt><trkpt lat="43.12915163708827" lon="11.727987943637164"><ele>513.5</ele><time>2026-05-02T13:31:30.001Z</time></trkpt><trkpt lat="43.128992664005466" lon="11.72803131582157"><ele>512.0</ele><time>2026-05-02T13:31:31.001Z</time></trkpt><trkpt lat="43.12884701498048" lon="11.728065959717123"><ele>510.5</ele><time>2026-05-02T13:31:32.001Z</time></trkpt><trkpt lat="43.12871419283282" lon="11.728073911985698"><ele>509.0</ele><time>2026-05-02T13:31:33.001Z</time></trkpt><trkpt lat="43.12859239517008" lon="11.72803740733658"><ele>509.0</ele><time>2026-05-02T13:31:34.001Z</time></trkpt><trkpt lat="43.1284849164449" lon="11.727953601961744"><ele>509.0</ele><time>2026-05-02T13:31:35.001Z</time></trkpt><trkpt lat="43.12841278067393" lon="11.727818099663251"><ele>509.0</ele><time>2026-05-02T13:31:36.001Z</time></trkpt><trkpt lat="43.1283668539539" lon="11.727643621131978"><ele>509.0</ele><time>2026-05-02T13:31:37.001Z</time></trkpt><trkpt lat="43.128339424456065" lon="11.727434533484422"><ele>507.66666666666663</ele><time>2026-05-02T13:31:38.001Z</time></trkpt><trkpt lat="43.128318830167444" lon="11.727217989509473"><ele>506.33333333333337</ele><time>2026-05-02T13:31:39.001Z</time></trkpt><trkpt lat="43.12828207812085" lon="11.7269975554898"><ele>505.0</ele><time>2026-05-02T13:31:40.001Z</time></trkpt><trkpt lat="43.12823077210146" lon="11.726780242128546"><ele>503.0</ele><time>2026-05-02T13:31:41.001Z</time></trkpt><trkpt lat="43.1281547842147" lon="11.726566623801533"><ele>501.0</ele><time>2026-05-02T13:31:42.001Z</time></trkpt><trkpt lat="43.12803879186004" lon="11.726373921708992"><ele>499.0</ele><time>2026-05-02T13:31:43.001Z</time></trkpt><trkpt lat="43.12789886991397" lon="11.726202845038213"><ele>499.33333333333337</ele><time>2026-05-02T13:31:44.001Z</time></trkpt><trkpt lat="43.127725214776085" lon="11.72605044066637"><ele>499.66666666666663</ele><time>2026-05-02T13:31:45Z</time></trkpt><trkpt lat="43.1275242553807" lon="11.725929156097791"><ele>500.0</ele><time>2026-05-02T13:31:46Z</time></trkpt><trkpt lat="43.12730919115304" lon="11.725812254694901"><ele>502.5</ele><time>2026-05-02T13:31:47.001Z</time></trkpt><trkpt lat="43.12708341995398" lon="11.725685862218302"><ele>505.0</ele><time>2026-05-02T13:31:48Z</time></trkpt><trkpt lat="43.12685582324481" lon="11.725552071847133"><ele>505.0</ele><time>2026-05-02T13:31:49Z</time></trkpt><trkpt lat="43.126641353567024" lon="11.725422265898256"><ele>505.0</ele><time>2026-05-02T13:31:50Z</time></trkpt><trkpt lat="43.126446497994564" lon="11.725294665313333"><ele>502.6666666666667</ele><time>2026-05-02T13:31:51Z</time></trkpt><trkpt lat="43.126263572014196" lon="11.725173300162272"><ele>500.33333333333337</ele><time>2026-05-02T13:31:52Z</time></trkpt><trkpt lat="43.12609534602572" lon="11.725060881644382"><ele>498.0</ele><time>2026-05-02T13:31:53Z</time></trkpt><trkpt lat="43.12593705992956" lon="11.724960774189055"><ele>498.0</ele><time>2026-05-02T13:31:54Z</time></trkpt><trkpt lat="43.125785901654694" lon="11.724857635092484"><ele>498.0</ele><time>2026-05-02T13:31:55Z</time></trkpt><trkpt lat="43.125642574776066" lon="11.724732171622458"><ele>498.0</ele><time>2026-05-02T13:31:56Z</time></trkpt><trkpt lat="43.12552472173513" lon="11.724565913098694"><ele>497.0</ele><time>2026-05-02T13:31:57Z</time></trkpt><trkpt lat="43.12540261885016" lon="11.72444404266545"><ele>496.0</ele><time>2026-05-02T13:31:58Z</time></trkpt><trkpt lat="43.12529082932365" lon="11.724319366079671"><ele>495.0</ele><time>2026-05-02T13:31:59Z</time></trkpt><trkpt lat="43.125153123372804" lon="11.724231113059131"><ele>494.0</ele><time>2026-05-02T13:32:00Z</time></trkpt><trkpt lat="43.12497984802094" lon="11.724183227235484"><ele>490.66666666666663</ele><time>2026-05-02T13:32:01Z</time></trkpt><trkpt lat="43.124774778168145" lon="11.724162863422334"><ele>487.33333333333337</ele><time>2026-05-02T13:32:02Z</time></trkpt><trkpt lat="43.1245555430561" lon="11.724143062616754"><ele>484.0</ele><time>2026-05-02T13:32:03Z</time></trkpt><trkpt lat="43.124340181148725" lon="11.724125287429615"><ele>484.0</ele><time>2026-05-02T13:32:04Z</time></trkpt><trkpt lat="43.12414397666568" lon="11.724095022226452"><ele>484.0</ele><time>2026-05-02T13:32:05Z</time></trkpt><trkpt lat="43.12395043964722" lon="11.724062584157382"><ele>484.0</ele><time>2026-05-02T13:32:06Z</time></trkpt><trkpt lat="43.12377057122877" lon="11.724039004618861"><ele>481.6666666666667</ele><time>2026-05-02T13:32:07Z</time></trkpt><trkpt lat="43.12359973215025" lon="11.724017318080886"><ele>479.33333333333337</ele><time>2026-05-02T13:32:08Z</time></trkpt><trkpt lat="43.12343034831497" lon="11.72399572818055"><ele>477.0</ele><time>2026-05-02T13:32:09Z</time></trkpt><trkpt lat="43.12325172828469" lon="11.723977786911153"><ele>475.33333333333337</ele><time>2026-05-02T13:32:10.001Z</time></trkpt><trkpt lat="43.12305488027307" lon="11.723979994270836"><ele>473.6666666666667</ele><time>2026-05-02T13:32:11.001Z</time></trkpt><trkpt lat="43.12283903634225" lon="11.724011021316574"><ele>472.0</ele><time>2026-05-02T13:32:12.001Z</time></trkpt><trkpt lat="43.12260981176932" lon="11.724051696234314"><ele>471.0</ele><time>2026-05-02T13:32:13.001Z</time></trkpt><trkpt lat="43.12237570814264" lon="11.724088604616899"><ele>470.0</ele><time>2026-05-02T13:32:14.001Z</time></trkpt><trkpt lat="43.12214811792019" lon="11.724127832317162"><ele>470.0</ele><time>2026-05-02T13:32:15.001Z</time></trkpt><trkpt lat="43.121930811218014" lon="11.724163585569789"><ele>470.0</ele><time>2026-05-02T13:32:16.001Z</time></trkpt><trkpt lat="43.12172265356029" lon="11.724195519096124"><ele>470.0</ele><time>2026-05-02T13:32:17.001Z</time></trkpt><trkpt lat="43.12152239116753" lon="11.724228632011078"><ele>468.3333333333333</ele><time>2026-05-02T13:32:18.001Z</time></trkpt><trkpt lat="43.12130922248872" lon="11.724261868849977"><ele>466.66666666666663</ele><time>2026-05-02T13:32:19.001Z</time></trkpt><trkpt lat="43.12108262804352" lon="11.724296588372077"><ele>465.0</ele><time>2026-05-02T13:32:20.001Z</time></trkpt><trkpt lat="43.12084108826849" lon="11.724333055940424"><ele>463.0</ele><time>2026-05-02T13:32:21.001Z</time></trkpt><trkpt lat="43.120586025159554" lon="11.724365691795809"><ele>461.0</ele><time>2026-05-02T13:32:22.001Z</time></trkpt><trkpt lat="43.12032927359703" lon="11.72438781538202"><ele>461.0</ele><time>2026-05-02T13:32:23.001Z</time></trkpt><trkpt lat="43.12008737705381" lon="11.724395869681475"><ele>461.0</ele><time>2026-05-02T13:32:24.001Z</time></trkpt><trkpt lat="43.119864033143415" lon="11.724394375661474"><ele>461.3333333333333</ele><time>2026-05-02T13:32:25.001Z</time></trkpt><trkpt lat="43.11965595462161" lon="11.724389599050216"><ele>461.66666666666663</ele><time>2026-05-02T13:32:26.001Z</time></trkpt><trkpt lat="43.119461717637016" lon="11.724378056320557"><ele>462.0</ele><time>2026-05-02T13:32:27.001Z</time></trkpt><trkpt lat="43.119278485697315" lon="11.72434035374645"><ele>462.0</ele><time>2026-05-02T13:32:28.001Z</time></trkpt><trkpt lat="43.119102724866316" lon="11.724231187006913"><ele>462.0</ele><time>2026-05-02T13:32:29.001Z</time></trkpt><trkpt lat="43.11892357004222" lon="11.724135998785497"><ele>462.0</ele><time>2026-05-02T13:32:30.001Z</time></trkpt><trkpt lat="43.11876713190264" lon="11.72402373492042"><ele>464.33333333333337</ele><time>2026-05-02T13:32:31.001Z</time></trkpt><trkpt lat="43.118625171829024" lon="11.723934898817712"><ele>466.6666666666667</ele><time>2026-05-02T13:32:32.001Z</time></trkpt><trkpt lat="43.11848895323191" lon="11.723874516039071"><ele>469.0</ele><time>2026-05-02T13:32:33.001Z</time></trkpt><trkpt lat="43.11833153084598" lon="11.723822623051054"><ele>466.33333333333337</ele><time>2026-05-02T13:32:34.001Z</time></trkpt><trkpt lat="43.11813066929296" lon="11.723807924263523"><ele>463.66666666666663</ele><time>2026-05-02T13:32:35.001Z</time></trkpt><trkpt lat="43.11790389180429" lon="11.723808351419999"><ele>461.0</ele><time>2026-05-02T13:32:36.001Z</time></trkpt><trkpt lat="43.1176777753886" lon="11.723811870375354"><ele>461.0</ele><time>2026-05-02T13:32:37.001Z</time></trkpt><trkpt lat="43.11746427789601" lon="11.723800402115565"><ele>461.0</ele><time>2026-05-02T13:32:38.001Z</time></trkpt><trkpt lat="43.11726167566565" lon="11.723781105636967"><ele>461.0</ele><time>2026-05-02T13:32:39.001Z</time></trkpt><trkpt lat="43.1170653714332" lon="11.723756326966845"><ele>459.66666666666663</ele><time>2026-05-02T13:32:40.001Z</time></trkpt><trkpt lat="43.11685886425003" lon="11.723715667999436"><ele>458.33333333333337</ele><time>2026-05-02T13:32:41.001Z</time></trkpt><trkpt lat="43.11663212316267" lon="11.723640512697308"><ele>457.0</ele><time>2026-05-02T13:32:42.001Z</time></trkpt><trkpt lat="43.11640351464082" lon="11.723570757778793"><ele>457.0</ele><time>2026-05-02T13:32:43.001Z</time></trkpt><trkpt lat="43.116195258263296" lon="11.723405959539003"><ele>457.0</ele><time>2026-05-02T13:32:44.001Z</time></trkpt><trkpt lat="43.115992361518444" lon="11.72329857553448"><ele>457.0</ele><time>2026-05-02T13:32:45.001Z</time></trkpt><trkpt lat="43.11578068329753" lon="11.723226421804663"><ele>457.0</ele><time>2026-05-02T13:32:46.001Z</time></trkpt><trkpt lat="43.11555632791021" lon="11.723171817880313"><ele>457.0</ele><time>2026-05-02T13:32:47.001Z</time></trkpt><trkpt lat="43.11532302776423" lon="11.723114743648448"><ele>459.5</ele><time>2026-05-02T13:32:48.001Z</time></trkpt><trkpt lat="43.11509113759433" lon="11.723047493318383"><ele>462.0</ele><time>2026-05-02T13:32:49.001Z</time></trkpt><trkpt lat="43.11486122508431" lon="11.722978062919452"><ele>462.0</ele><time>2026-05-02T13:32:50.001Z</time></trkpt><trkpt lat="43.114644882763514" lon="11.722914495647487"><ele>462.0</ele><time>2026-05-02T13:32:51.001Z</time></trkpt><trkpt lat="43.1144414439358" lon="11.7228609176466"><ele>462.0</ele><time>2026-05-02T13:32:52.001Z</time></trkpt><trkpt lat="43.11425149832467" lon="11.722811971816512"><ele>462.0</ele><time>2026-05-02T13:32:53.001Z</time></trkpt><trkpt lat="43.11407898644336" lon="11.722758950205545"><ele>462.0</ele><time>2026-05-02T13:32:54.001Z</time></trkpt><trkpt lat="43.11391460149178" lon="11.722709978122143"><ele>462.0</ele><time>2026-05-02T13:32:55.001Z</time></trkpt><trkpt lat="43.11376428929309" lon="11.722670789215119"><ele>462.0</ele><time>2026-05-02T13:32:56.001Z</time></trkpt><trkpt lat="43.11361924099916" lon="11.722651888482169"><ele>462.0</ele><time>2026-05-02T13:32:57.001Z</time></trkpt><trkpt lat="43.11346756632814" lon="11.722703117720574"><ele>462.0</ele><time>2026-05-02T13:32:58.001Z</time></trkpt><trkpt lat="43.11329907762342" lon="11.722808192369921"><ele>462.0</ele><time>2026-05-02T13:32:59.001Z</time></trkpt><trkpt lat="43.113128824115435" lon="11.722940970257904"><ele>462.0</ele><time>2026-05-02T13:33:00.001Z</time></trkpt><trkpt lat="43.11296422058306" lon="11.723085696973891"><ele>462.0</ele><time>2026-05-02T13:33:01.001Z</time></trkpt><trkpt lat="43.11280854239266" lon="11.723250504929561"><ele>462.0</ele><time>2026-05-02T13:33:02.001Z</time></trkpt><trkpt lat="43.11266776209883" lon="11.723434508415616"><ele>462.0</ele><time>2026-05-02T13:33:03.001Z</time></trkpt><trkpt lat="43.112548655994246" lon="11.723619436402041"><ele>462.0</ele><time>2026-05-02T13:33:04.001Z</time></trkpt><trkpt lat="43.11245234653145" lon="11.723796927853016"><ele>462.5</ele><time>2026-05-02T13:33:05.001Z</time></trkpt><trkpt lat="43.11235884087629" lon="11.723954452109353"><ele>463.0</ele><time>2026-05-02T13:33:06.001Z</time></trkpt><trkpt lat="43.11226404942415" lon="11.724074168229317"><ele>463.5</ele><time>2026-05-02T13:33:07.001Z</time></trkpt><trkpt lat="43.11216707081889" lon="11.72416295168354"><ele>464.0</ele><time>2026-05-02T13:33:08.001Z</time></trkpt><trkpt lat="43.112042815642816" lon="11.724224213677422"><ele>464.0</ele><time>2026-05-02T13:33:09.001Z</time></trkpt><trkpt lat="43.11188293109039" lon="11.724278732671758"><ele>464.0</ele><time>2026-05-02T13:33:10.001Z</time></trkpt><trkpt lat="43.11170780419817" lon="11.724331246608058"><ele>464.0</ele><time>2026-05-02T13:33:11.001Z</time></trkpt><trkpt lat="43.11154114655547" lon="11.72437117895342"><ele>464.66666666666663</ele><time>2026-05-02T13:33:12.001Z</time></trkpt><trkpt lat="43.111388394043345" lon="11.72437104741613"><ele>465.33333333333337</ele><time>2026-05-02T13:33:13.001Z</time></trkpt><trkpt lat="43.11122345361724" lon="11.724328683001657"><ele>466.0</ele><time>2026-05-02T13:33:14.001Z</time></trkpt><trkpt lat="43.11104349811798" lon="11.724247031008115"><ele>466.0</ele><time>2026-05-02T13:33:15.001Z</time></trkpt><trkpt lat="43.11085559063817" lon="11.724167546127148"><ele>466.0</ele><time>2026-05-02T13:33:16.001Z</time></trkpt><trkpt lat="43.11069104137422" lon="11.724094440939384"><ele>466.0</ele><time>2026-05-02T13:33:17.001Z</time></trkpt><trkpt lat="43.11055741861982" lon="11.723995293811383"><ele>468.6666666666667</ele><time>2026-05-02T13:33:18.001Z</time></trkpt><trkpt lat="43.11044938499369" lon="11.723849429887325"><ele>471.33333333333337</ele><time>2026-05-02T13:33:19.001Z</time></trkpt><trkpt lat="43.11036692056602" lon="11.723656626632225"><ele>474.0</ele><time>2026-05-02T13:33:20.001Z</time></trkpt><trkpt lat="43.11028838983833" lon="11.723421333622557"><ele>474.33333333333337</ele><time>2026-05-02T13:33:21.001Z</time></trkpt><trkpt lat="43.11018797306043" lon="11.723164157868231"><ele>474.6666666666667</ele><time>2026-05-02T13:33:22.001Z</time></trkpt><trkpt lat="43.11007346325937" lon="11.722903797742385"><ele>475.0</ele><time>2026-05-02T13:33:23.001Z</time></trkpt><trkpt lat="43.10996908465658" lon="11.722630223250809"><ele>480.33333333333337</ele><time>2026-05-02T13:33:24.001Z</time></trkpt><trkpt lat="43.10987801077748" lon="11.722366617394382"><ele>485.66666666666663</ele><time>2026-05-02T13:33:25.001Z</time></trkpt><trkpt lat="43.109791740818466" lon="11.722113191288315"><ele>491.0</ele><time>2026-05-02T13:33:26.001Z</time></trkpt><trkpt lat="43.109700974499916" lon="11.721869430031814"><ele>491.0</ele><time>2026-05-02T13:33:27.001Z</time></trkpt><trkpt lat="43.109610856092395" lon="11.721651950053294"><ele>491.0</ele><time>2026-05-02T13:33:28.001Z</time></trkpt><trkpt lat="43.10952919934029" lon="11.72145846944491"><ele>491.0</ele><time>2026-05-02T13:33:29.001Z</time></trkpt><trkpt lat="43.10945659765456" lon="11.721297551143751"><ele>491.0</ele><time>2026-05-02T13:33:30.001Z</time></trkpt><trkpt lat="43.10937088639962" lon="11.721167347160451"><ele>491.0</ele><time>2026-05-02T13:33:31.001Z</time></trkpt><trkpt lat="43.10925924952465" lon="11.721075338757215"><ele>491.0</ele><time>2026-05-02T13:33:32.001Z</time></trkpt><trkpt lat="43.10911224662883" lon="11.721019398203223"><ele>491.0</ele><time>2026-05-02T13:33:33.001Z</time></trkpt><trkpt lat="43.108940077521346" lon="11.720973598322049"><ele>493.66666666666663</ele><time>2026-05-02T13:33:34.001Z</time></trkpt><trkpt lat="43.10878552690415" lon="11.720914390723374"><ele>496.33333333333337</ele><time>2026-05-02T13:33:35.001Z</time></trkpt><trkpt lat="43.10864514730262" lon="11.72079904007115"><ele>499.0</ele><time>2026-05-02T13:33:36.001Z</time></trkpt><trkpt lat="43.108509456332015" lon="11.720624673933438"><ele>499.0</ele><time>2026-05-02T13:33:37.001Z</time></trkpt><trkpt lat="43.108403192257" lon="11.72045288556085"><ele>499.0</ele><time>2026-05-02T13:33:38.001Z</time></trkpt><trkpt lat="43.10832010728517" lon="11.720301122885086"><ele>499.0</ele><time>2026-05-02T13:33:39.001Z</time></trkpt><trkpt lat="43.10824354231174" lon="11.720169190819982"><ele>499.0</ele><time>2026-05-02T13:33:40.001Z</time></trkpt><trkpt lat="43.10817040231836" lon="11.720054703616686"><ele>498.1666666666667</ele><time>2026-05-02T13:33:41.001Z</time></trkpt><trkpt lat="43.108109672235095" lon="11.719966048871168"><ele>497.33333333333337</ele><time>2026-05-02T13:33:42.001Z</time></trkpt><trkpt lat="43.10805677188504" lon="11.719898252488237"><ele>496.5</ele><time>2026-05-02T13:33:43.001Z</time></trkpt><trkpt lat="43.10797169865665" lon="11.719814864175058"><ele>495.66666666666663</ele><time>2026-05-02T13:33:45.001Z</time></trkpt><trkpt lat="43.10789589965278" lon="11.719826389924226"><ele>494.8333333333333</ele><time>2026-05-02T13:33:48.001Z</time></trkpt><trkpt lat="43.107873278925084" lon="11.719952239142051"><ele>494.0</ele><time>2026-05-02T13:33:52Z</time></trkpt><trkpt lat="43.10790984712082" lon="11.72003676912791"><ele>494.0</ele><time>2026-05-02T13:33:53Z</time></trkpt><trkpt lat="43.10797707104774" lon="11.720154040132915"><ele>494.0</ele><time>2026-05-02T13:33:54Z</time></trkpt><trkpt lat="43.10806450657957" lon="11.720305635004287"><ele>494.0</ele><time>2026-05-02T13:33:55Z</time></trkpt><trkpt lat="43.10816094387679" lon="11.720483561116465"><ele>494.0</ele><time>2026-05-02T13:33:56Z</time></trkpt><trkpt lat="43.10826137683398" lon="11.720672429365186"><ele>495.3333333333333</ele><time>2026-05-02T13:33:57Z</time></trkpt><trkpt lat="43.10836700669876" lon="11.720878819782705"><ele>496.66666666666663</ele><time>2026-05-02T13:33:58Z</time></trkpt><trkpt lat="43.108468662107796" lon="11.721097148595549"><ele>498.0</ele><time>2026-05-02T13:33:59Z</time></trkpt><trkpt lat="43.108556623654344" lon="11.721349984468489"><ele>498.0</ele><time>2026-05-02T13:34:00Z</time></trkpt><trkpt lat="43.10863474722308" lon="11.721623171391995"><ele>498.0</ele><time>2026-05-02T13:34:01Z</time></trkpt><trkpt lat="43.10870323745565" lon="11.721890797369861"><ele>498.0</ele><time>2026-05-02T13:34:02Z</time></trkpt><trkpt lat="43.10876061448585" lon="11.722137655040921"><ele>497.0</ele><time>2026-05-02T13:34:03Z</time></trkpt><trkpt lat="43.10881138374381" lon="11.722359335373001"><ele>496.0</ele><time>2026-05-02T13:34:04Z</time></trkpt><trkpt lat="43.108847845544815" lon="11.722560454059137"><ele>495.0</ele><time>2026-05-02T13:34:05Z</time></trkpt><trkpt lat="43.108864988485664" lon="11.722755327022002"><ele>494.25</ele><time>2026-05-02T13:34:06Z</time></trkpt><trkpt lat="43.10885472733411" lon="11.722946298987365"><ele>493.5</ele><time>2026-05-02T13:34:07Z</time></trkpt><trkpt lat="43.10882292209577" lon="11.723128966330114"><ele>492.75</ele><time>2026-05-02T13:34:08Z</time></trkpt><trkpt lat="43.108773024249" lon="11.723305931089072"><ele>492.0</ele><time>2026-05-02T13:34:09Z</time></trkpt><trkpt lat="43.10869467065525" lon="11.723479968875754"><ele>490.75</ele><time>2026-05-02T13:34:10Z</time></trkpt><trkpt lat="43.108596196992345" lon="11.723635785895503"><ele>489.5</ele><time>2026-05-02T13:34:11Z</time></trkpt><trkpt lat="43.10848904208201" lon="11.723754813402522"><ele>488.25</ele><time>2026-05-02T13:34:12Z</time></trkpt><trkpt lat="43.108372723412145" lon="11.723845906417202"><ele>487.0</ele><time>2026-05-02T13:34:13Z</time></trkpt><trkpt lat="43.108242113366416" lon="11.723911902505382"><ele>487.0</ele><time>2026-05-02T13:34:14Z</time></trkpt><trkpt lat="43.108104548045084" lon="11.723936679750949"><ele>487.0</ele><time>2026-05-02T13:34:15Z</time></trkpt><trkpt lat="43.10795276608958" lon="11.723950442203716"><ele>487.0</ele><time>2026-05-02T13:34:16Z</time></trkpt><trkpt lat="43.107781345271924" lon="11.723937960776901"><ele>487.0</ele><time>2026-05-02T13:34:17Z</time></trkpt><trkpt lat="43.107600202376965" lon="11.723931586377663"><ele>487.0</ele><time>2026-05-02T13:34:18Z</time></trkpt><trkpt lat="43.10740289470697" lon="11.723934949428816"><ele>487.0</ele><time>2026-05-02T13:34:19Z</time></trkpt><trkpt lat="43.10720414111206" lon="11.72393532858536"><ele>487.33333333333337</ele><time>2026-05-02T13:34:20Z</time></trkpt><trkpt lat="43.10701144053131" lon="11.723930580184973"><ele>487.66666666666663</ele><time>2026-05-02T13:34:21Z</time></trkpt><trkpt lat="43.106832130993325" lon="11.72392821612886"><ele>488.0</ele><time>2026-05-02T13:34:22.001Z</time></trkpt><trkpt lat="43.10666702890298" lon="11.723927022192601"><ele>488.5</ele><time>2026-05-02T13:34:23.001Z</time></trkpt><trkpt lat="43.10651465603336" lon="11.723924303382274"><ele>489.0</ele><time>2026-05-02T13:34:24.001Z</time></trkpt><trkpt lat="43.106369067165645" lon="11.723909204363181"><ele>489.5</ele><time>2026-05-02T13:34:25.001Z</time></trkpt><trkpt lat="43.10623554179795" lon="11.723869150300397"><ele>490.0</ele><time>2026-05-02T13:34:26.001Z</time></trkpt><trkpt lat="43.10611376870447" lon="11.723811670877554"><ele>490.0</ele><time>2026-05-02T13:34:27.001Z</time></trkpt><trkpt lat="43.105988631029135" lon="11.723745960054847"><ele>490.0</ele><time>2026-05-02T13:34:28.001Z</time></trkpt><trkpt lat="43.105857820891366" lon="11.723696425190433"><ele>490.0</ele><time>2026-05-02T13:34:29.001Z</time></trkpt><trkpt lat="43.1057062309474" lon="11.72371521455263"><ele>490.0</ele><time>2026-05-02T13:34:30.001Z</time></trkpt><trkpt lat="43.10556567322496" lon="11.723653812704804"><ele>490.25</ele><time>2026-05-02T13:34:31.001Z</time></trkpt><trkpt lat="43.10541661907885" lon="11.723582207323236"><ele>490.5</ele><time>2026-05-02T13:34:32.001Z</time></trkpt><trkpt lat="43.10526932023484" lon="11.723509980832395"><ele>490.75</ele><time>2026-05-02T13:34:33.001Z</time></trkpt><trkpt lat="43.105139702730035" lon="11.72345780089908"><ele>491.0</ele><time>2026-05-02T13:34:34.001Z</time></trkpt><trkpt lat="43.105014151034794" lon="11.723420359250794"><ele>490.0</ele><time>2026-05-02T13:34:35.001Z</time></trkpt><trkpt lat="43.10488183166228" lon="11.723405441865914"><ele>489.0</ele><time>2026-05-02T13:34:36.001Z</time></trkpt><trkpt lat="43.104725699922255" lon="11.72340925885418"><ele>488.0</ele><time>2026-05-02T13:34:37.001Z</time></trkpt><trkpt lat="43.1045324354051" lon="11.723421817928495"><ele>488.0</ele><time>2026-05-02T13:34:38.001Z</time></trkpt><trkpt lat="43.10431828911569" lon="11.72339604952898"><ele>488.0</ele><time>2026-05-02T13:34:39.001Z</time></trkpt><trkpt lat="43.10407538681505" lon="11.72340812714556"><ele>486.5</ele><time>2026-05-02T13:34:40.001Z</time></trkpt><trkpt lat="43.10380869831632" lon="11.72338219259478"><ele>485.0</ele><time>2026-05-02T13:34:41.001Z</time></trkpt><trkpt lat="43.10353034612001" lon="11.723375968404682"><ele>485.0</ele><time>2026-05-02T13:34:42.001Z</time></trkpt><trkpt lat="43.10326626285282" lon="11.723391836683442"><ele>485.0</ele><time>2026-05-02T13:34:43.001Z</time></trkpt><trkpt lat="43.103022538948295" lon="11.723402441662524"><ele>485.66666666666663</ele><time>2026-05-02T13:34:44.001Z</time></trkpt><trkpt lat="43.102803311739315" lon="11.723411869440426"><ele>486.33333333333337</ele><time>2026-05-02T13:34:45.001Z</time></trkpt><trkpt lat="43.102601441126865" lon="11.723424240061739"><ele>487.0</ele><time>2026-05-02T13:34:46.001Z</time></trkpt><trkpt lat="43.10242400996244" lon="11.723426930025894"><ele>487.5</ele><time>2026-05-02T13:34:47.001Z</time></trkpt><trkpt lat="43.10228347586157" lon="11.723436996526843"><ele>488.0</ele><time>2026-05-02T13:34:48.001Z</time></trkpt><trkpt lat="43.10216288756889" lon="11.72348789281951"><ele>488.5</ele><time>2026-05-02T13:34:49.001Z</time></trkpt><trkpt lat="43.10205067404676" lon="11.723588602495992"><ele>489.0</ele><time>2026-05-02T13:34:50.001Z</time></trkpt><trkpt lat="43.10195431710381" lon="11.723726384373997"><ele>487.0</ele><time>2026-05-02T13:34:51.001Z</time></trkpt><trkpt lat="43.10187576370294" lon="11.723893006318884"><ele>485.0</ele><time>2026-05-02T13:34:52.001Z</time></trkpt><trkpt lat="43.10179610703302" lon="11.72410218367341"><ele>483.0</ele><time>2026-05-02T13:34:53.001Z</time></trkpt><trkpt lat="43.10171034068463" lon="11.724345546974178"><ele>482.66666666666663</ele><time>2026-05-02T13:34:54.001Z</time></trkpt><trkpt lat="43.10162003052702" lon="11.724608195641226"><ele>482.3333333333333</ele><time>2026-05-02T13:34:55.001Z</time></trkpt><trkpt lat="43.10152667847994" lon="11.724878631100571"><ele>482.0</ele><time>2026-05-02T13:34:56.001Z</time></trkpt><trkpt lat="43.10144702796685" lon="11.725153008581445"><ele>488.0</ele><time>2026-05-02T13:34:57.001Z</time></trkpt><trkpt lat="43.10137355274153" lon="11.725443533424869"><ele>494.0</ele><time>2026-05-02T13:34:58.001Z</time></trkpt><trkpt lat="43.101312427988525" lon="11.725742191328234"><ele>494.0</ele><time>2026-05-02T13:34:59.001Z</time></trkpt><trkpt lat="43.10125896504423" lon="11.726034277354161"><ele>494.0</ele><time>2026-05-02T13:35:00.001Z</time></trkpt><trkpt lat="43.10120743925079" lon="11.726319083206175"><ele>494.0</ele><time>2026-05-02T13:35:01.001Z</time></trkpt><trkpt lat="43.10115605730277" lon="11.726579286199925"><ele>493.66666666666663</ele><time>2026-05-02T13:35:02.001Z</time></trkpt><trkpt lat="43.10110447541137" lon="11.726824068394178"><ele>493.33333333333337</ele><time>2026-05-02T13:35:03.001Z</time></trkpt><trkpt lat="43.10105049535443" lon="11.727067684167553"><ele>493.0</ele><time>2026-05-02T13:35:04.001Z</time></trkpt><trkpt lat="43.1009917916847" lon="11.727319091192946"><ele>493.0</ele><time>2026-05-02T13:35:05.001Z</time></trkpt><trkpt lat="43.1009072730533" lon="11.727562359530301"><ele>493.0</ele><time>2026-05-02T13:35:06.001Z</time></trkpt><trkpt lat="43.10082565121021" lon="11.727812048214753"><ele>493.0</ele><time>2026-05-02T13:35:07.001Z</time></trkpt><trkpt lat="43.10073625543498" lon="11.728056615187418"><ele>493.0</ele><time>2026-05-02T13:35:08.001Z</time></trkpt><trkpt lat="43.10065378205041" lon="11.728308454726603"><ele>493.0</ele><time>2026-05-02T13:35:09.001Z</time></trkpt><trkpt lat="43.10055799527917" lon="11.728524122093722"><ele>493.0</ele><time>2026-05-02T13:35:10.001Z</time></trkpt><trkpt lat="43.100462931087044" lon="11.72873122708621"><ele>491.6666666666667</ele><time>2026-05-02T13:35:11.001Z</time></trkpt><trkpt lat="43.100360734925104" lon="11.728954111447047"><ele>490.33333333333337</ele><time>2026-05-02T13:35:12.001Z</time></trkpt><trkpt lat="43.100252764219945" lon="11.729189946898698"><ele>489.0</ele><time>2026-05-02T13:35:13.001Z</time></trkpt><trkpt lat="43.10013641418078" lon="11.729431456126026"><ele>487.33333333333337</ele><time>2026-05-02T13:35:14.001Z</time></trkpt><trkpt lat="43.10001270871573" lon="11.729674895743639"><ele>485.6666666666667</ele><time>2026-05-02T13:35:15.001Z</time></trkpt><trkpt lat="43.09988641102476" lon="11.729918763268932"><ele>484.0</ele><time>2026-05-02T13:35:16.001Z</time></trkpt><trkpt lat="43.09975626070219" lon="11.730159759388735"><ele>483.0</ele><time>2026-05-02T13:35:17.001Z</time></trkpt><trkpt lat="43.09962735737086" lon="11.730392151122595"><ele>482.0</ele><time>2026-05-02T13:35:18.001Z</time></trkpt><trkpt lat="43.09950392186427" lon="11.730611626393072"><ele>481.0</ele><time>2026-05-02T13:35:19.001Z</time></trkpt><trkpt lat="43.099386401426194" lon="11.730816682662502"><ele>481.0</ele><time>2026-05-02T13:35:20.001Z</time></trkpt><trkpt lat="43.099273056328585" lon="11.731009959995577"><ele>481.0</ele><time>2026-05-02T13:35:21.001Z</time></trkpt><trkpt lat="43.09916613894748" lon="11.731191281398955"><ele>481.0</ele><time>2026-05-02T13:35:22.001Z</time></trkpt><trkpt lat="43.09906448567689" lon="11.73136604722324"><ele>481.0</ele><time>2026-05-02T13:35:23.001Z</time></trkpt><trkpt lat="43.098971275593286" lon="11.731531788128565"><ele>481.0</ele><time>2026-05-02T13:35:24.001Z</time></trkpt><trkpt lat="43.09887961640127" lon="11.731688035819422"><ele>481.0</ele><time>2026-05-02T13:35:25.001Z</time></trkpt><trkpt lat="43.098790485261574" lon="11.731846276398866"><ele>481.0</ele><time>2026-05-02T13:35:26.001Z</time></trkpt><trkpt lat="43.098710082178485" lon="11.731992085069916"><ele>483.0</ele><time>2026-05-02T13:35:27.001Z</time></trkpt><trkpt lat="43.09863282312339" lon="11.73213290650735"><ele>485.0</ele><time>2026-05-02T13:35:28.001Z</time></trkpt><trkpt lat="43.098562919326184" lon="11.732292117847404"><ele>487.0</ele><time>2026-05-02T13:35:29.001Z</time></trkpt><trkpt lat="43.09850373605574" lon="11.732473981068317"><ele>489.0</ele><time>2026-05-02T13:35:30.001Z</time></trkpt><trkpt lat="43.098458728568716" lon="11.732686488567523"><ele>490.0</ele><time>2026-05-02T13:35:31.001Z</time></trkpt><trkpt lat="43.098431198939906" lon="11.732922597109324"><ele>491.0</ele><time>2026-05-02T13:35:32.001Z</time></trkpt><trkpt lat="43.09841434456359" lon="11.733161485853403"><ele>492.0</ele><time>2026-05-02T13:35:33.001Z</time></trkpt><trkpt lat="43.09840403058896" lon="11.733383663852186"><ele>493.33333333333337</ele><time>2026-05-02T13:35:34.001Z</time></trkpt><trkpt lat="43.098393159592234" lon="11.73358449912237"><ele>494.6666666666667</ele><time>2026-05-02T13:35:35.001Z</time></trkpt><trkpt lat="43.09837766284495" lon="11.733783307225167"><ele>496.0</ele><time>2026-05-02T13:35:36.001Z</time></trkpt><trkpt lat="43.09835921299943" lon="11.733996422170156"><ele>496.0</ele><time>2026-05-02T13:35:37.001Z</time></trkpt><trkpt lat="43.09834907464799" lon="11.73420978179963"><ele>496.0</ele><time>2026-05-02T13:35:38.001Z</time></trkpt><trkpt lat="43.09832526927059" lon="11.73441503881707"><ele>496.0</ele><time>2026-05-02T13:35:39.001Z</time></trkpt><trkpt lat="43.098321048817006" lon="11.734611927107503"><ele>496.5</ele><time>2026-05-02T13:35:40.001Z</time></trkpt><trkpt lat="43.098327304606514" lon="11.73481816042554"><ele>497.0</ele><time>2026-05-02T13:35:41.001Z</time></trkpt><trkpt lat="43.09836733413977" lon="11.73500187057663"><ele>497.5</ele><time>2026-05-02T13:35:42.001Z</time></trkpt><trkpt lat="43.098395442249036" lon="11.735177669981569"><ele>498.0</ele><time>2026-05-02T13:35:43.001Z</time></trkpt><trkpt lat="43.098437531969445" lon="11.735361626313024"><ele>498.75</ele><time>2026-05-02T13:35:44.001Z</time></trkpt><trkpt lat="43.0984829374527" lon="11.735544068515534"><ele>499.5</ele><time>2026-05-02T13:35:45.001Z</time></trkpt><trkpt lat="43.098517581472514" lon="11.735715687369996"><ele>500.25</ele><time>2026-05-02T13:35:46.001Z</time></trkpt><trkpt lat="43.098516980405776" lon="11.735897328535012"><ele>501.0</ele><time>2026-05-02T13:35:47.001Z</time></trkpt><trkpt lat="43.0985298355124" lon="11.736073133030294"><ele>501.0</ele><time>2026-05-02T13:35:48.001Z</time></trkpt><trkpt lat="43.098521055762916" lon="11.736247640406434"><ele>501.0</ele><time>2026-05-02T13:35:49.001Z</time></trkpt><trkpt lat="43.09851641191279" lon="11.736423309259976"><ele>501.0</ele><time>2026-05-02T13:35:50.001Z</time></trkpt><trkpt lat="43.098527947884435" lon="11.7366032919128"><ele>501.0</ele><time>2026-05-02T13:35:51.001Z</time></trkpt><trkpt lat="43.09855017324416" lon="11.736789957364923"><ele>500.5</ele><time>2026-05-02T13:35:52.001Z</time></trkpt><trkpt lat="43.098569080781466" lon="11.736989755933353"><ele>500.0</ele><time>2026-05-02T13:35:53.001Z</time></trkpt><trkpt lat="43.09858424261788" lon="11.737189489648264"><ele>499.5</ele><time>2026-05-02T13:35:54.001Z</time></trkpt><trkpt lat="43.0985982127536" lon="11.737375540316746"><ele>499.0</ele><time>2026-05-02T13:35:55.001Z</time></trkpt><trkpt lat="43.09861406497671" lon="11.737560052854942"><ele>498.5</ele><time>2026-05-02T13:35:56.001Z</time></trkpt><trkpt lat="43.09864833385883" lon="11.737744728879848"><ele>498.0</ele><time>2026-05-02T13:35:57Z</time></trkpt><trkpt lat="43.09870749087548" lon="11.737920465385958"><ele>497.5</ele><time>2026-05-02T13:35:58Z</time></trkpt><trkpt lat="43.09877517066398" lon="11.738092462359988"><ele>497.0</ele><time>2026-05-02T13:35:59Z</time></trkpt><trkpt lat="43.098836253479824" lon="11.738275212507451"><ele>497.0</ele><time>2026-05-02T13:36:00Z</time></trkpt><trkpt lat="43.09888482036952" lon="11.73846109978649"><ele>497.0</ele><time>2026-05-02T13:36:01Z</time></trkpt><trkpt lat="43.098919074564776" lon="11.738640014992974"><ele>497.0</ele><time>2026-05-02T13:36:02Z</time></trkpt><trkpt lat="43.09893830824429" lon="11.7388186735331"><ele>497.0</ele><time>2026-05-02T13:36:03Z</time></trkpt><trkpt lat="43.09893253026789" lon="11.739007170559555"><ele>496.66666666666663</ele><time>2026-05-02T13:36:04Z</time></trkpt><trkpt lat="43.09889486487219" lon="11.739209465379236"><ele>496.33333333333337</ele><time>2026-05-02T13:36:05Z</time></trkpt><trkpt lat="43.09881170144806" lon="11.739402294970906"><ele>496.0</ele><time>2026-05-02T13:36:06Z</time></trkpt><trkpt lat="43.09875269215482" lon="11.739595888390719"><ele>496.0</ele><time>2026-05-02T13:36:07Z</time></trkpt><trkpt lat="43.09868683714165" lon="11.739766129195344"><ele>496.0</ele><time>2026-05-02T13:36:08Z</time></trkpt><trkpt lat="43.098643886254635" lon="11.73993624740846"><ele>496.0</ele><time>2026-05-02T13:36:09Z</time></trkpt><trkpt lat="43.09862368685301" lon="11.740116188996014"><ele>496.0</ele><time>2026-05-02T13:36:10Z</time></trkpt><trkpt lat="43.09863205713138" lon="11.74031087546852"><ele>496.0</ele><time>2026-05-02T13:36:11Z</time></trkpt><trkpt lat="43.09865226993033" lon="11.740504518884057"><ele>496.0</ele><time>2026-05-02T13:36:12Z</time></trkpt><trkpt lat="43.09867802374626" lon="11.74068811396986"><ele>496.0</ele><time>2026-05-02T13:36:13Z</time></trkpt><trkpt lat="43.098698343444966" lon="11.740853743326335"><ele>496.0</ele><time>2026-05-02T13:36:14Z</time></trkpt><trkpt lat="43.09871045928415" lon="11.740996170621251"><ele>496.4</ele><time>2026-05-02T13:36:15Z</time></trkpt><trkpt lat="43.098723069939744" lon="11.741136139473992"><ele>496.8</ele><time>2026-05-02T13:36:16Z</time></trkpt><trkpt lat="43.09874198109096" lon="11.741281135908068"><ele>497.19999999999993</ele><time>2026-05-02T13:36:17Z</time></trkpt><trkpt lat="43.09878262345971" lon="11.741419687714282"><ele>497.59999999999997</ele><time>2026-05-02T13:36:18Z</time></trkpt><trkpt lat="43.09885143834177" lon="11.741531470423936"><ele>498.0</ele><time>2026-05-02T13:36:19Z</time></trkpt><trkpt lat="43.098921204424016" lon="11.741603410217479"><ele>498.0</ele><time>2026-05-02T13:36:20Z</time></trkpt><trkpt lat="43.09898362928446" lon="11.741645302564267"><ele>498.0</ele><time>2026-05-02T13:36:21Z</time></trkpt><trkpt lat="43.099046961714045" lon="11.741670571196705"><ele>498.0</ele><time>2026-05-02T13:36:22Z</time></trkpt><trkpt lat="43.09911724869171" lon="11.741696245867697"><ele>498.0</ele><time>2026-05-02T13:36:23Z</time></trkpt><trkpt lat="43.09918940382372" lon="11.741720450079663"><ele>498.0</ele><time>2026-05-02T13:36:24Z</time></trkpt><trkpt lat="43.09926436104571" lon="11.741744733391311"><ele>498.0</ele><time>2026-05-02T13:36:25Z</time></trkpt><trkpt lat="43.09935475504783" lon="11.741777873126605"><ele>499.0</ele><time>2026-05-02T13:36:26Z</time></trkpt><trkpt lat="43.0994646482634" lon="11.741826613632892"><ele>500.0</ele><time>2026-05-02T13:36:27Z</time></trkpt><trkpt lat="43.099590662191126" lon="11.741902795753132"><ele>501.0</ele><time>2026-05-02T13:36:28Z</time></trkpt><trkpt lat="43.09971361900806" lon="11.742029751972579"><ele>502.0</ele><time>2026-05-02T13:36:29Z</time></trkpt><trkpt lat="43.09984101488303" lon="11.74216247708826"><ele>502.5</ele><time>2026-05-02T13:36:30Z</time></trkpt><trkpt lat="43.09996705887458" lon="11.742273691002127"><ele>503.0</ele><time>2026-05-02T13:36:31Z</time></trkpt><trkpt lat="43.10006427802652" lon="11.74239231858687"><ele>503.5</ele><time>2026-05-02T13:36:32Z</time></trkpt><trkpt lat="43.10015990052471" lon="11.742501065043133"><ele>504.0</ele><time>2026-05-02T13:36:33Z</time></trkpt><trkpt lat="43.100265905013984" lon="11.742617669643302"><ele>505.5</ele><time>2026-05-02T13:36:34Z</time></trkpt><trkpt lat="43.10037743103085" lon="11.74274101033582"><ele>507.0</ele><time>2026-05-02T13:36:35Z</time></trkpt><trkpt lat="43.10048106204066" lon="11.74285920732338"><ele>508.5</ele><time>2026-05-02T13:36:36Z</time></trkpt><trkpt lat="43.10058125944121" lon="11.742990015812653"><ele>510.0</ele><time>2026-05-02T13:36:37.001Z</time></trkpt><trkpt lat="43.100667992212195" lon="11.743144002078155"><ele>510.0</ele><time>2026-05-02T13:36:38.001Z</time></trkpt><trkpt lat="43.100734141913584" lon="11.7433197111721"><ele>510.0</ele><time>2026-05-02T13:36:39.001Z</time></trkpt><trkpt lat="43.100778489414886" lon="11.743509182310477"><ele>510.0</ele><time>2026-05-02T13:36:40.001Z</time></trkpt><trkpt lat="43.10078168063747" lon="11.743714620523866"><ele>510.0</ele><time>2026-05-02T13:36:41.001Z</time></trkpt><trkpt lat="43.100775295880716" lon="11.743926915781731"><ele>510.0</ele><time>2026-05-02T13:36:42.001Z</time></trkpt><trkpt lat="43.100773114048906" lon="11.744144892134564"><ele>510.0</ele><time>2026-05-02T13:36:43.001Z</time></trkpt><trkpt lat="43.10075720419808" lon="11.744355751434611"><ele>510.0</ele><time>2026-05-02T13:36:44.001Z</time></trkpt><trkpt lat="43.10074866191139" lon="11.74454920652698"><ele>510.0</ele><time>2026-05-02T13:36:45.001Z</time></trkpt><trkpt lat="43.10074161643396" lon="11.744731205605573"><ele>510.0</ele><time>2026-05-02T13:36:46.001Z</time></trkpt><trkpt lat="43.10073367051478" lon="11.744905002106831"><ele>510.0</ele><time>2026-05-02T13:36:47.001Z</time></trkpt><trkpt lat="43.10072522214982" lon="11.745063196947521"><ele>510.0</ele><time>2026-05-02T13:36:48.001Z</time></trkpt><trkpt lat="43.10071164693778" lon="11.7452036394714"><ele>509.6</ele><time>2026-05-02T13:36:49.001Z</time></trkpt><trkpt lat="43.10068147114892" lon="11.745335843817408"><ele>509.2</ele><time>2026-05-02T13:36:50.001Z</time></trkpt><trkpt lat="43.10062760937535" lon="11.74545969026944"><ele>508.79999999999995</ele><time>2026-05-02T13:36:51.001Z</time></trkpt><trkpt lat="43.10055102713928" lon="11.74555965144936"><ele>508.4</ele><time>2026-05-02T13:36:52.001Z</time></trkpt><trkpt lat="43.10045249115029" lon="11.745628317971342"><ele>508.0</ele><time>2026-05-02T13:36:53.001Z</time></trkpt><trkpt lat="43.10033269772847" lon="11.74566286576396"><ele>508.0</ele><time>2026-05-02T13:36:54.001Z</time></trkpt><trkpt lat="43.10020040441856" lon="11.74566668341948"><ele>508.0</ele><time>2026-05-02T13:36:55.001Z</time></trkpt><trkpt lat="43.100077676566144" lon="11.745665118345048"><ele>508.0</ele><time>2026-05-02T13:36:56.001Z</time></trkpt><trkpt lat="43.099964869400296" lon="11.745676835837045"><ele>508.0</ele><time>2026-05-02T13:36:57.001Z</time></trkpt><trkpt lat="43.09985261664817" lon="11.745705354511303"><ele>509.2</ele><time>2026-05-02T13:36:58.001Z</time></trkpt><trkpt lat="43.09975077872304" lon="11.745776647222115"><ele>510.4</ele><time>2026-05-02T13:36:59.001Z</time></trkpt><trkpt lat="43.09966099013097" lon="11.745875437252273"><ele>511.59999999999997</ele><time>2026-05-02T13:37:00.001Z</time></trkpt><trkpt lat="43.09959170462636" lon="11.745997883570709"><ele>512.8</ele><time>2026-05-02T13:37:01.001Z</time></trkpt><trkpt lat="43.099537327450754" lon="11.74612364422387"><ele>514.0</ele><time>2026-05-02T13:37:02.001Z</time></trkpt><trkpt lat="43.09949390383207" lon="11.746251864796381"><ele>514.25</ele><time>2026-05-02T13:37:03.001Z</time></trkpt><trkpt lat="43.09945048341291" lon="11.746391974043972"><ele>514.5</ele><time>2026-05-02T13:37:04.001Z</time></trkpt><trkpt lat="43.099406162062586" lon="11.74653826697395"><ele>514.75</ele><time>2026-05-02T13:37:05.001Z</time></trkpt><trkpt lat="43.09936061697421" lon="11.746682381569562"><ele>515.0</ele><time>2026-05-02T13:37:06.001Z</time></trkpt><trkpt lat="43.099309936538454" lon="11.746822015249439"><ele>515.75</ele><time>2026-05-02T13:37:07.001Z</time></trkpt><trkpt lat="43.09924919242604" lon="11.746952037095104"><ele>516.5</ele><time>2026-05-02T13:37:08.001Z</time></trkpt><trkpt lat="43.09917190392703" lon="11.747065601874882"><ele>517.25</ele><time>2026-05-02T13:37:09.001Z</time></trkpt><trkpt lat="43.09908048273472" lon="11.747159223310218"><ele>518.0</ele><time>2026-05-02T13:37:10.001Z</time></trkpt><trkpt lat="43.09898161198807" lon="11.74723648846122"><ele>518.0</ele><time>2026-05-02T13:37:11.001Z</time></trkpt><trkpt lat="43.09888675235865" lon="11.747313773835177"><ele>518.0</ele><time>2026-05-02T13:37:12.001Z</time></trkpt><trkpt lat="43.098795940810454" lon="11.747389913242905"><ele>518.0</ele><time>2026-05-02T13:37:13.001Z</time></trkpt><trkpt lat="43.09870926963148" lon="11.747463329443612"><ele>518.0</ele><time>2026-05-02T13:37:14.001Z</time></trkpt><trkpt lat="43.09861852153337" lon="11.74753783964767"><ele>518.0</ele><time>2026-05-02T13:37:15.001Z</time></trkpt><trkpt lat="43.09852145309668" lon="11.74761073422372"><ele>518.0</ele><time>2026-05-02T13:37:16.001Z</time></trkpt><trkpt lat="43.09842391326993" lon="11.747692504144883"><ele>518.0</ele><time>2026-05-02T13:37:17.001Z</time></trkpt><trkpt lat="43.09833077153596" lon="11.747782228899439"><ele>518.0</ele><time>2026-05-02T13:37:18.001Z</time></trkpt><trkpt lat="43.09824176053827" lon="11.747889497244524"><ele>518.0</ele><time>2026-05-02T13:37:19.001Z</time></trkpt><trkpt lat="43.098154141769555" lon="11.748003010141314"><ele>518.75</ele><time>2026-05-02T13:37:20.001Z</time></trkpt><trkpt lat="43.098061688719405" lon="11.748120294456156"><ele>519.5</ele><time>2026-05-02T13:37:21.001Z</time></trkpt><trkpt lat="43.097960609955564" lon="11.748228505904496"><ele>520.25</ele><time>2026-05-02T13:37:22.001Z</time></trkpt><trkpt lat="43.09783971788838" lon="11.74830383177509"><ele>521.0</ele><time>2026-05-02T13:37:23.001Z</time></trkpt><trkpt lat="43.09774739201535" lon="11.748410544301011"><ele>521.0</ele><time>2026-05-02T13:37:24.001Z</time></trkpt><trkpt lat="43.09765122020506" lon="11.748535652360705"><ele>521.0</ele><time>2026-05-02T13:37:25.001Z</time></trkpt><trkpt lat="43.09766295317532" lon="11.748626786247485"><ele>521.0</ele><time>2026-05-02T13:37:26.001Z</time></trkpt><trkpt lat="43.097593550455045" lon="11.748700937005879"><ele>521.0</ele><time>2026-05-02T13:37:27.001Z</time></trkpt><trkpt lat="43.097517765869426" lon="11.748758493236307"><ele>521.0</ele><time>2026-05-02T13:37:28.001Z</time></trkpt><trkpt lat="43.09742989047352" lon="11.748808658997751"><ele>518.2</ele><time>2026-05-02T13:37:29.001Z</time></trkpt><trkpt lat="43.09733155574275" lon="11.748848294424443"><ele>515.4000000000001</ele><time>2026-05-02T13:37:30.001Z</time></trkpt><trkpt lat="43.097226555713796" lon="11.748872560634295"><ele>512.6</ele><time>2026-05-02T13:37:31.001Z</time></trkpt><trkpt lat="43.09711509292635" lon="11.748882480331782"><ele>509.8</ele><time>2026-05-02T13:37:32.001Z</time></trkpt><trkpt lat="43.09699975744083" lon="11.748883153998868"><ele>507.0</ele><time>2026-05-02T13:37:33.001Z</time></trkpt><trkpt lat="43.096897940562464" lon="11.748873529506772"><ele>507.0</ele><time>2026-05-02T13:37:34.001Z</time></trkpt><trkpt lat="43.09680448707474" lon="11.7488659478474"><ele>507.00000000000006</ele><time>2026-05-02T13:37:35.001Z</time></trkpt><trkpt lat="43.09670519828508" lon="11.74886563924562"><ele>507.00000000000006</ele><time>2026-05-02T13:37:36.001Z</time></trkpt><trkpt lat="43.096601223142386" lon="11.748877046146347"><ele>507.0</ele><time>2026-05-02T13:37:37.001Z</time></trkpt><trkpt lat="43.0965001983101" lon="11.748910327347446"><ele>507.0</ele><time>2026-05-02T13:37:38.001Z</time></trkpt><trkpt lat="43.096400461642425" lon="11.748966991074479"><ele>507.8</ele><time>2026-05-02T13:37:39.001Z</time></trkpt><trkpt lat="43.09630526956238" lon="11.749035368081785"><ele>508.6</ele><time>2026-05-02T13:37:40.001Z</time></trkpt><trkpt lat="43.09620319564471" lon="11.749099558595281"><ele>509.40000000000003</ele><time>2026-05-02T13:37:41.001Z</time></trkpt><trkpt lat="43.096095657990034" lon="11.749149755197488"><ele>510.20000000000005</ele><time>2026-05-02T13:37:42.001Z</time></trkpt><trkpt lat="43.09599391736012" lon="11.749182181003968"><ele>511.0</ele><time>2026-05-02T13:37:43.001Z</time></trkpt><trkpt lat="43.095905244628156" lon="11.749213626161298"><ele>511.0</ele><time>2026-05-02T13:37:44.001Z</time></trkpt><trkpt lat="43.09581870050292" lon="11.749275132002872"><ele>511.0</ele><time>2026-05-02T13:37:45.001Z</time></trkpt><trkpt lat="43.095744415181535" lon="11.749379127861618"><ele>511.0</ele><time>2026-05-02T13:37:46.001Z</time></trkpt><trkpt lat="43.09569104358883" lon="11.749516925896314"><ele>511.0</ele><time>2026-05-02T13:37:47.001Z</time></trkpt><trkpt lat="43.09564763184303" lon="11.749657766930792"><ele>511.0</ele><time>2026-05-02T13:37:48.001Z</time></trkpt><trkpt lat="43.09560449214908" lon="11.749788281665413"><ele>511.0</ele><time>2026-05-02T13:37:49.001Z</time></trkpt><trkpt lat="43.09554571589899" lon="11.749890137236031"><ele>511.0</ele><time>2026-05-02T13:37:50.001Z</time></trkpt><trkpt lat="43.09545923663838" lon="11.749970579559209"><ele>511.0</ele><time>2026-05-02T13:37:51.001Z</time></trkpt><trkpt lat="43.095348171532514" lon="11.75003172183965"><ele>511.0</ele><time>2026-05-02T13:37:52.001Z</time></trkpt><trkpt lat="43.09523998672199" lon="11.75006340594653"><ele>511.0</ele><time>2026-05-02T13:37:53.001Z</time></trkpt><trkpt lat="43.095132419823955" lon="11.750090496585257"><ele>511.0</ele><time>2026-05-02T13:37:54.001Z</time></trkpt><trkpt lat="43.095024896333264" lon="11.75015328814409"><ele>511.0</ele><time>2026-05-02T13:37:55.001Z</time></trkpt><trkpt lat="43.094941123536344" lon="11.75025406627983"><ele>511.0</ele><time>2026-05-02T13:37:56.001Z</time></trkpt><trkpt lat="43.09486740403734" lon="11.750378585844299"><ele>511.0</ele><time>2026-05-02T13:37:57.001Z</time></trkpt><trkpt lat="43.09479717381923" lon="11.75050743650514"><ele>511.75</ele><time>2026-05-02T13:37:58.001Z</time></trkpt><trkpt lat="43.09472840096397" lon="11.750638752091104"><ele>512.5</ele><time>2026-05-02T13:37:59.001Z</time></trkpt><trkpt lat="43.09466459617374" lon="11.750773675205563"><ele>513.25</ele><time>2026-05-02T13:38:00.001Z</time></trkpt><trkpt lat="43.094613649623064" lon="11.750923397943213"><ele>514.0</ele><time>2026-05-02T13:38:01.001Z</time></trkpt><trkpt lat="43.09457617438746" lon="11.751083600105959"><ele>509.75</ele><time>2026-05-02T13:38:02.001Z</time></trkpt><trkpt lat="43.0945550089698" lon="11.751243241126513"><ele>505.5</ele><time>2026-05-02T13:38:03Z</time></trkpt><trkpt lat="43.09453459854835" lon="11.75139269473386"><ele>501.25</ele><time>2026-05-02T13:38:04Z</time></trkpt><trkpt lat="43.09449716647601" lon="11.751538753912088"><ele>497.0</ele><time>2026-05-02T13:38:05Z</time></trkpt><trkpt lat="43.09442985899595" lon="11.751673657838513"><ele>497.0</ele><time>2026-05-02T13:38:06Z</time></trkpt><trkpt lat="43.09433614567169" lon="11.751792544916963"><ele>497.0</ele><time>2026-05-02T13:38:07Z</time></trkpt><trkpt lat="43.094227730307715" lon="11.751879695363234"><ele>497.0</ele><time>2026-05-02T13:38:08Z</time></trkpt><trkpt lat="43.09410754069802" lon="11.751940800596858"><ele>497.0</ele><time>2026-05-02T13:38:09Z</time></trkpt><trkpt lat="43.09398385557532" lon="11.751987603862132"><ele>495.40000000000003</ele><time>2026-05-02T13:38:10Z</time></trkpt><trkpt lat="43.09386283442012" lon="11.752023368393052"><ele>493.80000000000007</ele><time>2026-05-02T13:38:11Z</time></trkpt><trkpt lat="43.09374473847733" lon="11.752050857571229"><ele>492.2</ele><time>2026-05-02T13:38:12Z</time></trkpt><trkpt lat="43.09364989879194" lon="11.752080051461062"><ele>490.6</ele><time>2026-05-02T13:38:13Z</time></trkpt><trkpt lat="43.09358333184948" lon="11.75210403402203"><ele>489.0</ele><time>2026-05-02T13:38:14Z</time></trkpt><trkpt lat="43.093493178034564" lon="11.752134435123962"><ele>489.0</ele><time>2026-05-02T13:38:16Z</time></trkpt><trkpt lat="43.093416743429025" lon="11.752171697162604"><ele>489.0</ele><time>2026-05-02T13:38:18Z</time></trkpt><trkpt lat="43.09331783236727" lon="11.752212529733292"><ele>489.0</ele><time>2026-05-02T13:38:20Z</time></trkpt><trkpt lat="43.093216241070074" lon="11.752269014456239"><ele>489.0</ele><time>2026-05-02T13:38:21Z</time></trkpt><trkpt lat="43.09308306472516" lon="11.752341280144567"><ele>489.0</ele><time>2026-05-02T13:38:22Z</time></trkpt><trkpt lat="43.09294242750434" lon="11.752412540523755"><ele>492.66666666666663</ele><time>2026-05-02T13:38:23Z</time></trkpt><trkpt lat="43.092806624032825" lon="11.752486844843782"><ele>496.3333333333333</ele><time>2026-05-02T13:38:24Z</time></trkpt><trkpt lat="43.092667247536326" lon="11.752576537460918"><ele>500.0</ele><time>2026-05-02T13:38:25Z</time></trkpt><trkpt lat="43.09252755507381" lon="11.752686047395471"><ele>497.66666666666663</ele><time>2026-05-02T13:38:26Z</time></trkpt><trkpt lat="43.09239539335624" lon="11.752805549331857"><ele>495.33333333333337</ele><time>2026-05-02T13:38:27Z</time></trkpt><trkpt lat="43.09226624756565" lon="11.752931726527615"><ele>493.0</ele><time>2026-05-02T13:38:28Z</time></trkpt><trkpt lat="43.09213788553637" lon="11.753058187327396"><ele>493.0</ele><time>2026-05-02T13:38:29Z</time></trkpt><trkpt lat="43.092011654517975" lon="11.753183695674098"><ele>493.0</ele><time>2026-05-02T13:38:30Z</time></trkpt><trkpt lat="43.09189400649501" lon="11.753297912317846"><ele>493.0</ele><time>2026-05-02T13:38:31Z</time></trkpt><trkpt lat="43.09180640417309" lon="11.753388238418685"><ele>493.0</ele><time>2026-05-02T13:38:32Z</time></trkpt><trkpt lat="43.091733784152666" lon="11.753479495039013"><ele>491.5</ele><time>2026-05-02T13:38:33Z</time></trkpt><trkpt lat="43.09165840989598" lon="11.753581589306311"><ele>490.0</ele><time>2026-05-02T13:38:34Z</time></trkpt><trkpt lat="43.091565310533774" lon="11.753694700395059"><ele>488.5</ele><time>2026-05-02T13:38:35Z</time></trkpt><trkpt lat="43.09145634124483" lon="11.75381744286789"><ele>487.0</ele><time>2026-05-02T13:38:36Z</time></trkpt><trkpt lat="43.09132673979985" lon="11.753930182379023"><ele>487.0</ele><time>2026-05-02T13:38:37Z</time></trkpt><trkpt lat="43.091174444965255" lon="11.754018228683936"><ele>487.0</ele><time>2026-05-02T13:38:38Z</time></trkpt><trkpt lat="43.091005403236196" lon="11.754074211761742"><ele>487.0</ele><time>2026-05-02T13:38:39Z</time></trkpt><trkpt lat="43.09082804376011" lon="11.754109951906937"><ele>488.6666666666667</ele><time>2026-05-02T13:38:40Z</time></trkpt><trkpt lat="43.09065083859905" lon="11.754137679265305"><ele>490.33333333333337</ele><time>2026-05-02T13:38:41Z</time></trkpt><trkpt lat="43.09047743872992" lon="11.754172703989706"><ele>492.0</ele><time>2026-05-02T13:38:42Z</time></trkpt><trkpt lat="43.09030645198192" lon="11.75421448065273"><ele>492.0</ele><time>2026-05-02T13:38:43Z</time></trkpt><trkpt lat="43.090140171597106" lon="11.754253379450153"><ele>492.0</ele><time>2026-05-02T13:38:44Z</time></trkpt><trkpt lat="43.08997640204829" lon="11.754299450686524"><ele>492.0</ele><time>2026-05-02T13:38:45Z</time></trkpt><trkpt lat="43.08982375405777" lon="11.754359901662673"><ele>491.66666666666663</ele><time>2026-05-02T13:38:46Z</time></trkpt><trkpt lat="43.08968318951738" lon="11.754440988400475"><ele>491.3333333333333</ele><time>2026-05-02T13:38:47Z</time></trkpt><trkpt lat="43.08955205108142" lon="11.754561042076743"><ele>491.0</ele><time>2026-05-02T13:38:48.001Z</time></trkpt><trkpt lat="43.08942533074336" lon="11.754713827562323"><ele>491.0</ele><time>2026-05-02T13:38:49.001Z</time></trkpt><trkpt lat="43.08931402224212" lon="11.754907685169535"><ele>491.0</ele><time>2026-05-02T13:38:50.001Z</time></trkpt><trkpt lat="43.08921216685268" lon="11.75512792396941"><ele>491.0</ele><time>2026-05-02T13:38:51.001Z</time></trkpt><trkpt lat="43.08910818760806" lon="11.755355140065392"><ele>491.3333333333333</ele><time>2026-05-02T13:38:52.001Z</time></trkpt><trkpt lat="43.08900198996109" lon="11.755577866138053"><ele>491.66666666666663</ele><time>2026-05-02T13:38:53.001Z</time></trkpt><trkpt lat="43.088901337658264" lon="11.755786955062543"><ele>492.0</ele><time>2026-05-02T13:38:54.001Z</time></trkpt><trkpt lat="43.08879635882696" lon="11.755977362470928"><ele>489.33333333333337</ele><time>2026-05-02T13:38:55.001Z</time></trkpt><trkpt lat="43.08869357844336" lon="11.756160262777033"><ele>486.6666666666667</ele><time>2026-05-02T13:38:56.001Z</time></trkpt><trkpt lat="43.088582868125236" lon="11.756336274516311"><ele>484.0</ele><time>2026-05-02T13:38:57.001Z</time></trkpt><trkpt lat="43.08846501707239" lon="11.756505228416612"><ele>484.0</ele><time>2026-05-02T13:38:58.001Z</time></trkpt><trkpt lat="43.088336075432146" lon="11.756661923088725"><ele>484.0</ele><time>2026-05-02T13:38:59.001Z</time></trkpt><trkpt lat="43.088202969244264" lon="11.756805901605244"><ele>484.0</ele><time>2026-05-02T13:39:00.001Z</time></trkpt><trkpt lat="43.08807001805352" lon="11.756941742229781"><ele>485.0</ele><time>2026-05-02T13:39:01.001Z</time></trkpt><trkpt lat="43.0879521172392" lon="11.75707529114632"><ele>486.0</ele><time>2026-05-02T13:39:02.001Z</time></trkpt><trkpt lat="43.08784340911935" lon="11.757200342080045"><ele>487.0</ele><time>2026-05-02T13:39:03.001Z</time></trkpt><trkpt lat="43.08774865689111" lon="11.757322688497865"><ele>488.0</ele><time>2026-05-02T13:39:04.001Z</time></trkpt><trkpt lat="43.08766972710413" lon="11.757459990371972"><ele>488.0</ele><time>2026-05-02T13:39:05.001Z</time></trkpt><trkpt lat="43.08756866589793" lon="11.75761816260359"><ele>488.0</ele><time>2026-05-02T13:39:06.001Z</time></trkpt><trkpt lat="43.08748422921334" lon="11.757782021961159"><ele>488.0</ele><time>2026-05-02T13:39:07.001Z</time></trkpt><trkpt lat="43.08739673833727" lon="11.757942018686311"><ele>488.0</ele><time>2026-05-02T13:39:08.001Z</time></trkpt><trkpt lat="43.08731658592159" lon="11.75809285850131"><ele>488.59999999999997</ele><time>2026-05-02T13:39:09.001Z</time></trkpt><trkpt lat="43.08724681214341" lon="11.758219082535147"><ele>489.19999999999993</ele><time>2026-05-02T13:39:10.001Z</time></trkpt><trkpt lat="43.08719161053741" lon="11.758334453568446"><ele>489.8</ele><time>2026-05-02T13:39:11.001Z</time></trkpt><trkpt lat="43.08713157837613" lon="11.758450348938046"><ele>490.4</ele><time>2026-05-02T13:39:12.001Z</time></trkpt><trkpt lat="43.087065161577115" lon="11.75856858469438"><ele>491.0</ele><time>2026-05-02T13:39:13.001Z</time></trkpt><trkpt lat="43.0869936701722" lon="11.758695394094545"><ele>491.0</ele><time>2026-05-02T13:39:14.001Z</time></trkpt><trkpt lat="43.08692091431667" lon="11.758824529870978"><ele>491.0</ele><time>2026-05-02T13:39:15.001Z</time></trkpt><trkpt lat="43.08685111582464" lon="11.758954285692276"><ele>491.0</ele><time>2026-05-02T13:39:16.001Z</time></trkpt><trkpt lat="43.08679272868489" lon="11.75907599476173"><ele>491.0</ele><time>2026-05-02T13:39:17.001Z</time></trkpt><trkpt lat="43.086744039664325" lon="11.759190102011607"><ele>491.0</ele><time>2026-05-02T13:39:18.001Z</time></trkpt><trkpt lat="43.086694598247576" lon="11.759316953546932"><ele>490.8</ele><time>2026-05-02T13:39:19.001Z</time></trkpt><trkpt lat="43.086640373165146" lon="11.759454902879355"><ele>490.6</ele><time>2026-05-02T13:39:20.001Z</time></trkpt><trkpt lat="43.08658843244665" lon="11.759598400650077"><ele>490.4</ele><time>2026-05-02T13:39:21.001Z</time></trkpt><trkpt lat="43.08655125130551" lon="11.759735647990686"><ele>490.2</ele><time>2026-05-02T13:39:22.001Z</time></trkpt><trkpt lat="43.086523361774766" lon="11.759873624006573"><ele>490.0</ele><time>2026-05-02T13:39:23.001Z</time></trkpt><trkpt lat="43.0865024318065" lon="11.760014218874316"><ele>490.0</ele><time>2026-05-02T13:39:24.001Z</time></trkpt><trkpt lat="43.086499272753734" lon="11.76016275956305"><ele>490.0</ele><time>2026-05-02T13:39:25.001Z</time></trkpt><trkpt lat="43.0865186959623" lon="11.760321916616947"><ele>490.0</ele><time>2026-05-02T13:39:26.001Z</time></trkpt><trkpt lat="43.08655239356817" lon="11.760482065011539"><ele>490.0</ele><time>2026-05-02T13:39:27.001Z</time></trkpt><trkpt lat="43.08659187326926" lon="11.760641060074045"><ele>490.0</ele><time>2026-05-02T13:39:28.001Z</time></trkpt><trkpt lat="43.086635096629024" lon="11.760816885560866"><ele>490.0</ele><time>2026-05-02T13:39:29.001Z</time></trkpt><trkpt lat="43.08668301073616" lon="11.761012067913422"><ele>490.0</ele><time>2026-05-02T13:39:30.001Z</time></trkpt><trkpt lat="43.086736024392046" lon="11.761222978741005"><ele>490.0</ele><time>2026-05-02T13:39:31.001Z</time></trkpt><trkpt lat="43.08679074380052" lon="11.761442042820994"><ele>490.0</ele><time>2026-05-02T13:39:32.001Z</time></trkpt><trkpt lat="43.08684208770327" lon="11.7616481619777"><ele>490.0</ele><time>2026-05-02T13:39:33.001Z</time></trkpt><trkpt lat="43.08689037559654" lon="11.761840471185698"><ele>490.0</ele><time>2026-05-02T13:39:34.001Z</time></trkpt><trkpt lat="43.08692085879475" lon="11.762034095355206"><ele>490.0</ele><time>2026-05-02T13:39:35.001Z</time></trkpt><trkpt lat="43.086939689003835" lon="11.762251166725532"><ele>490.0</ele><time>2026-05-02T13:39:36.001Z</time></trkpt><trkpt lat="43.0869250964829" lon="11.762492791802515"><ele>490.0</ele><time>2026-05-02T13:39:37.001Z</time></trkpt><trkpt lat="43.08692928185726" lon="11.762755462108709"><ele>490.0</ele><time>2026-05-02T13:39:38.001Z</time></trkpt><trkpt lat="43.08690903869801" lon="11.763029792858454"><ele>490.0</ele><time>2026-05-02T13:39:39.001Z</time></trkpt><trkpt lat="43.08688412735386" lon="11.763304592684353"><ele>490.0</ele><time>2026-05-02T13:39:40.001Z</time></trkpt><trkpt lat="43.086856538511995" lon="11.763558172128297"><ele>490.6666666666667</ele><time>2026-05-02T13:39:41.001Z</time></trkpt><trkpt lat="43.08682953483675" lon="11.763790595895205"><ele>491.33333333333337</ele><time>2026-05-02T13:39:42.001Z</time></trkpt><trkpt lat="43.086803769213304" lon="11.764006099088204"><ele>492.0</ele><time>2026-05-02T13:39:43.001Z</time></trkpt><trkpt lat="43.08677833838322" lon="11.76420594575726"><ele>493.0</ele><time>2026-05-02T13:39:44.001Z</time></trkpt><trkpt lat="43.08675478338454" lon="11.764388256090799"><ele>494.0</ele><time>2026-05-02T13:39:45.001Z</time></trkpt><trkpt lat="43.08673539866103" lon="11.76457502201667"><ele>495.0</ele><time>2026-05-02T13:39:46.001Z</time></trkpt><trkpt lat="43.086712945517114" lon="11.764773092268602"><ele>496.0</ele><time>2026-05-02T13:39:47.001Z</time></trkpt><trkpt lat="43.08668984692037" lon="11.764973273963612"><ele>496.0</ele><time>2026-05-02T13:39:48.001Z</time></trkpt><trkpt lat="43.08666979137484" lon="11.765167171224423"><ele>496.0</ele><time>2026-05-02T13:39:49.001Z</time></trkpt><trkpt lat="43.08665147113261" lon="11.76534761707648"><ele>496.0</ele><time>2026-05-02T13:39:50.001Z</time></trkpt><trkpt lat="43.08663394063724" lon="11.765532121210914"><ele>496.0</ele><time>2026-05-02T13:39:51.001Z</time></trkpt><trkpt lat="43.08661701137824" lon="11.765705607951046"><ele>496.20000000000005</ele><time>2026-05-02T13:39:52.001Z</time></trkpt><trkpt lat="43.08660183180035" lon="11.765863137942969"><ele>496.40000000000003</ele><time>2026-05-02T13:39:53.001Z</time></trkpt><trkpt lat="43.08658993157961" lon="11.766002234226516"><ele>496.6</ele><time>2026-05-02T13:39:54.001Z</time></trkpt><trkpt lat="43.086577425529946" lon="11.766125376292555"><ele>496.8</ele><time>2026-05-02T13:39:55.001Z</time></trkpt><trkpt lat="43.08656341466469" lon="11.766244268314958"><ele>497.0</ele><time>2026-05-02T13:39:56.001Z</time></trkpt><trkpt lat="43.08654953540032" lon="11.766389880608536"><ele>497.0</ele><time>2026-05-02T13:39:57.001Z</time></trkpt><trkpt lat="43.08653588989678" lon="11.766560564622779"><ele>497.0</ele><time>2026-05-02T13:39:58.001Z</time></trkpt><trkpt lat="43.086516603429246" lon="11.766747803444186"><ele>497.0</ele><time>2026-05-02T13:39:59.001Z</time></trkpt><trkpt lat="43.08649641104061" lon="11.766951281250504"><ele>497.0</ele><time>2026-05-02T13:40:00.001Z</time></trkpt><trkpt lat="43.08647592005127" lon="11.767161788057471"><ele>498.0</ele><time>2026-05-02T13:40:01.001Z</time></trkpt><trkpt lat="43.086452772039195" lon="11.767380336744381"><ele>499.0</ele><time>2026-05-02T13:40:02.001Z</time></trkpt><trkpt lat="43.08643161871082" lon="11.767577328390846"><ele>500.0</ele><time>2026-05-02T13:40:03.001Z</time></trkpt><trkpt lat="43.08641421457698" lon="11.767741797798875"><ele>501.0</ele><time>2026-05-02T13:40:04.001Z</time></trkpt><trkpt lat="43.08639887781729" lon="11.767888208599205"><ele>502.5</ele><time>2026-05-02T13:40:05.001Z</time></trkpt><trkpt lat="43.08638901700614" lon="11.7680353407311"><ele>504.0</ele><time>2026-05-02T13:40:06.001Z</time></trkpt><trkpt lat="43.086368080025544" lon="11.768196043608723"><ele>505.5</ele><time>2026-05-02T13:40:07.001Z</time></trkpt><trkpt lat="43.08635722453067" lon="11.768371796858931"><ele>507.0</ele><time>2026-05-02T13:40:08.001Z</time></trkpt><trkpt lat="43.08633973901273" lon="11.768551848255072"><ele>508.0</ele><time>2026-05-02T13:40:09Z</time></trkpt><trkpt lat="43.086323262305015" lon="11.768733395420872"><ele>509.0</ele><time>2026-05-02T13:40:10Z</time></trkpt><trkpt lat="43.08631553309157" lon="11.7689066049611"><ele>510.0</ele><time>2026-05-02T13:40:11Z</time></trkpt><trkpt lat="43.086315262374896" lon="11.769077317680171"><ele>511.0</ele><time>2026-05-02T13:40:12Z</time></trkpt><trkpt lat="43.08632294084828" lon="11.769252447327602"><ele>511.75</ele><time>2026-05-02T13:40:13Z</time></trkpt><trkpt lat="43.08634146920083" lon="11.769430430359318"><ele>512.5</ele><time>2026-05-02T13:40:14Z</time></trkpt><trkpt lat="43.08636685329763" lon="11.769612533397506"><ele>513.25</ele><time>2026-05-02T13:40:15Z</time></trkpt><trkpt lat="43.086392019820345" lon="11.769788911812526"><ele>514.0</ele><time>2026-05-02T13:40:16Z</time></trkpt><trkpt lat="43.08641225287519" lon="11.76995701469873"><ele>514.0</ele><time>2026-05-02T13:40:17Z</time></trkpt><trkpt lat="43.08643183042067" lon="11.770109075747305"><ele>514.0</ele><time>2026-05-02T13:40:18Z</time></trkpt><trkpt lat="43.08644229428948" lon="11.770249409624943"><ele>514.0</ele><time>2026-05-02T13:40:19Z</time></trkpt><trkpt lat="43.086452703851045" lon="11.770395725312882"><ele>514.0</ele><time>2026-05-02T13:40:20Z</time></trkpt><trkpt lat="43.086463369084456" lon="11.770543557218364"><ele>514.0</ele><time>2026-05-02T13:40:21Z</time></trkpt><trkpt lat="43.08647199865385" lon="11.770696893828532"><ele>515.5</ele><time>2026-05-02T13:40:22Z</time></trkpt><trkpt lat="43.08647875073718" lon="11.770861484088833"><ele>517.0</ele><time>2026-05-02T13:40:23Z</time></trkpt><trkpt lat="43.086486345922545" lon="11.771033326901222"><ele>518.5</ele><time>2026-05-02T13:40:24Z</time></trkpt><trkpt lat="43.086490517058586" lon="11.771210553285629"><ele>520.0</ele><time>2026-05-02T13:40:25Z</time></trkpt><trkpt lat="43.0864873173658" lon="11.771374104029396"><ele>521.0</ele><time>2026-05-02T13:40:26Z</time></trkpt><trkpt lat="43.08651356723463" lon="11.77151826012061"><ele>522.0</ele><time>2026-05-02T13:40:27Z</time></trkpt><trkpt lat="43.08653179221024" lon="11.771660275399444"><ele>523.0</ele><time>2026-05-02T13:40:28Z</time></trkpt><trkpt lat="43.08651055609798" lon="11.77180239595326"><ele>524.0</ele><time>2026-05-02T13:40:29Z</time></trkpt><trkpt lat="43.08651236122985" lon="11.771963363586435"><ele>525.0</ele><time>2026-05-02T13:40:30Z</time></trkpt><trkpt lat="43.08650392831878" lon="11.772133998260268"><ele>525.0</ele><time>2026-05-02T13:40:31Z</time></trkpt><trkpt lat="43.08649623524159" lon="11.772321116466985"><ele>525.0</ele><time>2026-05-02T13:40:32Z</time></trkpt><trkpt lat="43.08646779203215" lon="11.772507638144456"><ele>525.0</ele><time>2026-05-02T13:40:33Z</time></trkpt><trkpt lat="43.086454748851004" lon="11.772706413952793"><ele>525.0</ele><time>2026-05-02T13:40:34Z</time></trkpt><trkpt lat="43.0864619955221" lon="11.772916854794735"><ele>523.5</ele><time>2026-05-02T13:40:35Z</time></trkpt><trkpt lat="43.08649059217412" lon="11.773114821864446"><ele>522.0</ele><time>2026-05-02T13:40:36Z</time></trkpt><trkpt lat="43.08654477350853" lon="11.773341820620239"><ele>520.5</ele><time>2026-05-02T13:40:37Z</time></trkpt><trkpt lat="43.08651228840289" lon="11.773220848783255"><ele>519.0</ele><time>2026-05-02T13:40:38Z</time></trkpt><trkpt lat="43.0865616268243" lon="11.773366034394932"><ele>517.5</ele><time>2026-05-02T13:40:39Z</time></trkpt><trkpt lat="43.08659852381507" lon="11.773533253691816"><ele>516.0</ele><time>2026-05-02T13:40:40Z</time></trkpt><trkpt lat="43.086662757186375" lon="11.773709962316802"><ele>514.5</ele><time>2026-05-02T13:40:41Z</time></trkpt><trkpt lat="43.086721865173885" lon="11.77388263851323"><ele>513.0</ele><time>2026-05-02T13:40:42Z</time></trkpt><trkpt lat="43.08677538580728" lon="11.774028646477563"><ele>513.0</ele><time>2026-05-02T13:40:43Z</time></trkpt><trkpt lat="43.08682746206843" lon="11.774166915479203"><ele>513.0</ele><time>2026-05-02T13:40:44Z</time></trkpt><trkpt lat="43.08687258308151" lon="11.774298409177474"><ele>513.0</ele><time>2026-05-02T13:40:45Z</time></trkpt><trkpt lat="43.08691956492862" lon="11.77443483262307"><ele>513.0</ele><time>2026-05-02T13:40:46Z</time></trkpt><trkpt lat="43.086961808074236" lon="11.774556326410911"><ele>513.0</ele><time>2026-05-02T13:40:47Z</time></trkpt><trkpt lat="43.08698821986743" lon="11.774647104151576"><ele>512.1666666666666</ele><time>2026-05-02T13:40:48Z</time></trkpt><trkpt lat="43.08700977286833" lon="11.774777004403516"><ele>511.33333333333337</ele><time>2026-05-02T13:40:50Z</time></trkpt><trkpt lat="43.08702566310329" lon="11.774864855504822"><ele>510.5</ele><time>2026-05-02T13:40:52Z</time></trkpt><trkpt lat="43.08701296654087" lon="11.774964972247245"><ele>509.6666666666667</ele><time>2026-05-02T13:41:19.001Z</time></trkpt><trkpt lat="43.08708102358088" lon="11.775010473424413"><ele>508.83333333333337</ele><time>2026-05-02T13:44:27Z</time></trkpt><trkpt lat="43.08713294004265" lon="11.77513223448512"><ele>508.0</ele><time>2026-05-02T13:44:29Z</time></trkpt><trkpt lat="43.08714568884146" lon="11.775234698644693"><ele>507.59999999999997</ele><time>2026-05-02T13:44:30Z</time></trkpt><trkpt lat="43.087172991494" lon="11.775341813662624"><ele>507.19999999999993</ele><time>2026-05-02T13:44:31Z</time></trkpt><trkpt lat="43.0872054750508" lon="11.775452499056222"><ele>506.8</ele><time>2026-05-02T13:44:32Z</time></trkpt><trkpt lat="43.08723960514499" lon="11.775576823284696"><ele>506.4</ele><time>2026-05-02T13:44:33Z</time></trkpt><trkpt lat="43.08726663945208" lon="11.775709664768707"><ele>506.0</ele><time>2026-05-02T13:44:34Z</time></trkpt><trkpt lat="43.087278661101905" lon="11.775827125746348"><ele>505.99999999999994</ele><time>2026-05-02T13:44:35Z</time></trkpt><trkpt lat="43.087267819594395" lon="11.775929447330823"><ele>506.0</ele><time>2026-05-02T13:44:36Z</time></trkpt><trkpt lat="43.08723388643593" lon="11.776012700394475"><ele>506.0</ele><time>2026-05-02T13:44:37Z</time></trkpt><trkpt lat="43.08716598997195" lon="11.776090524658317"><ele>506.0</ele><time>2026-05-02T13:44:38Z</time></trkpt><trkpt lat="43.08707667429569" lon="11.776152624028073"><ele>505.99999999999994</ele><time>2026-05-02T13:44:39Z</time></trkpt><trkpt lat="43.086977762580005" lon="11.776222421145384"><ele>506.0</ele><time>2026-05-02T13:44:40Z</time></trkpt><trkpt lat="43.086879965953806" lon="11.776316720409076"><ele>505.5</ele><time>2026-05-02T13:44:41Z</time></trkpt><trkpt lat="43.08677034650177" lon="11.776406347778062"><ele>505.0</ele><time>2026-05-02T13:44:42Z</time></trkpt><trkpt lat="43.08665578831829" lon="11.776492918826927"><ele>504.5</ele><time>2026-05-02T13:44:43Z</time></trkpt><trkpt lat="43.08653827331037" lon="11.776568499429631"><ele>504.0</ele><time>2026-05-02T13:44:44Z</time></trkpt><trkpt lat="43.086466094886035" lon="11.77668561416931"><ele>504.75</ele><time>2026-05-02T13:44:45Z</time></trkpt><trkpt lat="43.086376510272" lon="11.776775781559657"><ele>505.5</ele><time>2026-05-02T13:44:46Z</time></trkpt><trkpt lat="43.08627227890451" lon="11.776891852567795"><ele>506.25</ele><time>2026-05-02T13:44:47Z</time></trkpt><trkpt lat="43.08616730123271" lon="11.777020282319203"><ele>507.0</ele><time>2026-05-02T13:44:48Z</time></trkpt><trkpt lat="43.086073286722524" lon="11.777139803423"><ele>507.0</ele><time>2026-05-02T13:44:49Z</time></trkpt><trkpt lat="43.0859870404532" lon="11.777239024919187"><ele>507.00000000000006</ele><time>2026-05-02T13:44:50Z</time></trkpt><trkpt lat="43.08590700239249" lon="11.777326189257534"><ele>507.00000000000006</ele><time>2026-05-02T13:44:51Z</time></trkpt><trkpt lat="43.08582382797302" lon="11.777410787211487"><ele>507.0</ele><time>2026-05-02T13:44:52Z</time></trkpt><trkpt lat="43.08573437885277" lon="11.777493054641235"><ele>507.0</ele><time>2026-05-02T13:44:53Z</time></trkpt><trkpt lat="43.0856349456958" lon="11.777576721123303"><ele>508.5</ele><time>2026-05-02T13:44:54Z</time></trkpt><trkpt lat="43.08552102535119" lon="11.777658579413444"><ele>510.0</ele><time>2026-05-02T13:44:55Z</time></trkpt><trkpt lat="43.0853982628717" lon="11.777745197503602"><ele>511.5</ele><time>2026-05-02T13:44:56Z</time></trkpt><trkpt lat="43.08526831172373" lon="11.777842626126624"><ele>513.0</ele><time>2026-05-02T13:44:57Z</time></trkpt><trkpt lat="43.085131275451324" lon="11.777949202548735"><ele>513.0</ele><time>2026-05-02T13:44:58Z</time></trkpt><trkpt lat="43.084997414284864" lon="11.778055154249536"><ele>513.0</ele><time>2026-05-02T13:44:59Z</time></trkpt><trkpt lat="43.08486404378629" lon="11.778166303814974"><ele>513.0</ele><time>2026-05-02T13:45:00Z</time></trkpt><trkpt lat="43.084733061856184" lon="11.778285037797595"><ele>512.6666666666666</ele><time>2026-05-02T13:45:01Z</time></trkpt><trkpt lat="43.084606473989986" lon="11.77840980924009"><ele>512.3333333333333</ele><time>2026-05-02T13:45:02Z</time></trkpt><trkpt lat="43.08448133169186" lon="11.778539131114254"><ele>512.0</ele><time>2026-05-02T13:45:03Z</time></trkpt><trkpt lat="43.08435614845947" lon="11.778671102872433"><ele>512.0</ele><time>2026-05-02T13:45:04Z</time></trkpt><trkpt lat="43.08423514351834" lon="11.778785434132045"><ele>512.0</ele><time>2026-05-02T13:45:05Z</time></trkpt><trkpt lat="43.08412280896211" lon="11.778887124227465"><ele>512.0</ele><time>2026-05-02T13:45:06Z</time></trkpt><trkpt lat="43.083996085446856" lon="11.778966637765508"><ele>512.0</ele><time>2026-05-02T13:45:07Z</time></trkpt><trkpt lat="43.083858597651776" lon="11.779021109238046"><ele>513.75</ele><time>2026-05-02T13:45:08Z</time></trkpt><trkpt lat="43.08371155644023" lon="11.779041079560562"><ele>515.5</ele><time>2026-05-02T13:45:09Z</time></trkpt><trkpt lat="43.08356418563605" lon="11.779033152987378"><ele>517.25</ele><time>2026-05-02T13:45:10Z</time></trkpt><trkpt lat="43.083422458394125" lon="11.779012917739596"><ele>519.0</ele><time>2026-05-02T13:45:11Z</time></trkpt><trkpt lat="43.08329242647552" lon="11.778992977937735"><ele>520.5</ele><time>2026-05-02T13:45:12Z</time></trkpt><trkpt lat="43.08317116320701" lon="11.778975215035052"><ele>522.0</ele><time>2026-05-02T13:45:13Z</time></trkpt><trkpt lat="43.08303994226918" lon="11.778967304126445"><ele>523.5</ele><time>2026-05-02T13:45:14Z</time></trkpt><trkpt lat="43.0829062691272" lon="11.778965992231548"><ele>525.0</ele><time>2026-05-02T13:45:15Z</time></trkpt><trkpt lat="43.08277215829082" lon="11.778980220986227"><ele>525.0</ele><time>2026-05-02T13:45:16Z</time></trkpt><trkpt lat="43.08264239995676" lon="11.77900256850081"><ele>525.0</ele><time>2026-05-02T13:45:17Z</time></trkpt><trkpt lat="43.08251559551237" lon="11.779030147309893"><ele>525.0</ele><time>2026-05-02T13:45:18Z</time></trkpt><trkpt lat="43.082390271451445" lon="11.779065829423876"><ele>525.0</ele><time>2026-05-02T13:45:19Z</time></trkpt><trkpt lat="43.08226964983655" lon="11.779115381191454"><ele>526.5</ele><time>2026-05-02T13:45:20Z</time></trkpt><trkpt lat="43.08215218006983" lon="11.779179673087981"><ele>528.0</ele><time>2026-05-02T13:45:21Z</time></trkpt><trkpt lat="43.082035490608945" lon="11.779260754446168"><ele>529.5</ele><time>2026-05-02T13:45:22Z</time></trkpt><trkpt lat="43.081919547042034" lon="11.77935598694695"><ele>531.0</ele><time>2026-05-02T13:45:23Z</time></trkpt><trkpt lat="43.08181176337884" lon="11.779468035269877"><ele>531.0</ele><time>2026-05-02T13:45:24Z</time></trkpt><trkpt lat="43.08170926886687" lon="11.779593714125701"><ele>531.0</ele><time>2026-05-02T13:45:25Z</time></trkpt><trkpt lat="43.0816157687639" lon="11.779733207012782"><ele>531.0</ele><time>2026-05-02T13:45:26Z</time></trkpt><trkpt lat="43.08152403607461" lon="11.779882264381794"><ele>531.0</ele><time>2026-05-02T13:45:27Z</time></trkpt><trkpt lat="43.081430555468245" lon="11.78003908232891"><ele>533.3333333333334</ele><time>2026-05-02T13:45:28Z</time></trkpt><trkpt lat="43.0813310311736" lon="11.780199931657936"><ele>535.6666666666667</ele><time>2026-05-02T13:45:29Z</time></trkpt><trkpt lat="43.08122214779655" lon="11.780354869631896"><ele>538.0</ele><time>2026-05-02T13:45:30Z</time></trkpt><trkpt lat="43.08111292350111" lon="11.78051104195845"><ele>538.0</ele><time>2026-05-02T13:45:31Z</time></trkpt><trkpt lat="43.08099690406889" lon="11.780652742628329"><ele>538.0</ele><time>2026-05-02T13:45:32Z</time></trkpt><trkpt lat="43.08088129584326" lon="11.780785602789656"><ele>538.0</ele><time>2026-05-02T13:45:33.001Z</time></trkpt><trkpt lat="43.080765352224866" lon="11.780892694156034"><ele>538.0</ele><time>2026-05-02T13:45:34.001Z</time></trkpt><trkpt lat="43.08065047652924" lon="11.78101124051653"><ele>537.75</ele><time>2026-05-02T13:45:35.001Z</time></trkpt><trkpt lat="43.08054166458361" lon="11.781124610672277"><ele>537.5</ele><time>2026-05-02T13:45:36.001Z</time></trkpt><trkpt lat="43.08043948172778" lon="11.781223631271635"><ele>537.25</ele><time>2026-05-02T13:45:37.001Z</time></trkpt><trkpt lat="43.080352891218" lon="11.781315856164468"><ele>537.0</ele><time>2026-05-02T13:45:38.001Z</time></trkpt><trkpt lat="43.080267461949596" lon="11.781406100383323"><ele>537.0</ele><time>2026-05-02T13:45:39.001Z</time></trkpt><trkpt lat="43.08017215380779" lon="11.781500197501781"><ele>537.0</ele><time>2026-05-02T13:45:40.001Z</time></trkpt><trkpt lat="43.08006682562319" lon="11.781604748168988"><ele>537.0</ele><time>2026-05-02T13:45:41.001Z</time></trkpt><trkpt lat="43.079953398835436" lon="11.781687871616633"><ele>537.0</ele><time>2026-05-02T13:45:42.001Z</time></trkpt><trkpt lat="43.07982789813268" lon="11.781757832999537"><ele>536.75</ele><time>2026-05-02T13:45:43.001Z</time></trkpt><trkpt lat="43.079690977988285" lon="11.781816007938843"><ele>536.5</ele><time>2026-05-02T13:45:44.001Z</time></trkpt><trkpt lat="43.07954857044229" lon="11.78186749785953"><ele>536.25</ele><time>2026-05-02T13:45:45.001Z</time></trkpt><trkpt lat="43.07940478346224" lon="11.78192091451497"><ele>536.0</ele><time>2026-05-02T13:45:46.001Z</time></trkpt><trkpt lat="43.0792679594523" lon="11.781973285092429"><ele>536.0</ele><time>2026-05-02T13:45:47.001Z</time></trkpt><trkpt lat="43.079141014748" lon="11.782019263015613"><ele>536.0</ele><time>2026-05-02T13:45:48.001Z</time></trkpt><trkpt lat="43.07901415019141" lon="11.782064268433517"><ele>536.0</ele><time>2026-05-02T13:45:49.001Z</time></trkpt><trkpt lat="43.078885987003254" lon="11.78211241352241"><ele>536.0</ele><time>2026-05-02T13:45:50.001Z</time></trkpt><trkpt lat="43.07875407970061" lon="11.782160153868714"><ele>537.75</ele><time>2026-05-02T13:45:51.001Z</time></trkpt><trkpt lat="43.07862138652667" lon="11.782213535775378"><ele>539.5</ele><time>2026-05-02T13:45:52.001Z</time></trkpt><trkpt lat="43.07849415390733" lon="11.78225932144818"><ele>541.25</ele><time>2026-05-02T13:45:53.001Z</time></trkpt><trkpt lat="43.07837755371222" lon="11.782299646011424"><ele>543.0</ele><time>2026-05-02T13:45:54.001Z</time></trkpt><trkpt lat="43.07825967410706" lon="11.782340107266018"><ele>544.75</ele><time>2026-05-02T13:45:55.001Z</time></trkpt><trkpt lat="43.07813549345317" lon="11.782382570293612"><ele>546.5</ele><time>2026-05-02T13:45:56.001Z</time></trkpt><trkpt lat="43.078011615729984" lon="11.782427832639929"><ele>548.25</ele><time>2026-05-02T13:45:57.001Z</time></trkpt><trkpt lat="43.07788810012141" lon="11.782477497109323"><ele>550.0</ele><time>2026-05-02T13:45:58.001Z</time></trkpt><trkpt lat="43.07776690437671" lon="11.782532552960085"><ele>550.0</ele><time>2026-05-02T13:45:59.001Z</time></trkpt><trkpt lat="43.07765187693457" lon="11.78260631759906"><ele>550.0</ele><time>2026-05-02T13:46:00.001Z</time></trkpt><trkpt lat="43.077543044544484" lon="11.78270448185648"><ele>550.0</ele><time>2026-05-02T13:46:01.001Z</time></trkpt><trkpt lat="43.0774446548672" lon="11.782828367753044"><ele>550.0</ele><time>2026-05-02T13:46:02.001Z</time></trkpt><trkpt lat="43.077354101232984" lon="11.782976036163776"><ele>552.5</ele><time>2026-05-02T13:46:03.001Z</time></trkpt><trkpt lat="43.07726707794823" lon="11.783129923080761"><ele>555.0</ele><time>2026-05-02T13:46:04.001Z</time></trkpt><trkpt lat="43.077177618161286" lon="11.783283461834145"><ele>557.5</ele><time>2026-05-02T13:46:05.001Z</time></trkpt><trkpt lat="43.07708752644316" lon="11.783440020310989"><ele>560.0</ele><time>2026-05-02T13:46:06.001Z</time></trkpt><trkpt lat="43.07699622153395" lon="11.783595395209392"><ele>560.0</ele><time>2026-05-02T13:46:07.001Z</time></trkpt><trkpt lat="43.076902082117996" lon="11.783752347301819"><ele>560.0</ele><time>2026-05-02T13:46:08.001Z</time></trkpt><trkpt lat="43.076806902133264" lon="11.783917431424182"><ele>560.0</ele><time>2026-05-02T13:46:09.001Z</time></trkpt><trkpt lat="43.07671449831469" lon="11.784084110868532"><ele>560.0</ele><time>2026-05-02T13:46:10.001Z</time></trkpt><trkpt lat="43.07663361083819" lon="11.78426191799736"><ele>560.0</ele><time>2026-05-02T13:46:11.001Z</time></trkpt><trkpt lat="43.07656429555055" lon="11.784432261201749"><ele>560.0</ele><time>2026-05-02T13:46:12.001Z</time></trkpt><trkpt lat="43.07650378871023" lon="11.784606632822147"><ele>560.0</ele><time>2026-05-02T13:46:13.001Z</time></trkpt><trkpt lat="43.076451098738715" lon="11.784785136189594"><ele>562.75</ele><time>2026-05-02T13:46:14.001Z</time></trkpt><trkpt lat="43.07639545614563" lon="11.784963240997874"><ele>565.5</ele><time>2026-05-02T13:46:15.001Z</time></trkpt><trkpt lat="43.076336033588014" lon="11.785149026511071"><ele>568.25</ele><time>2026-05-02T13:46:16.001Z</time></trkpt><trkpt lat="43.07627800075958" lon="11.785319059754377"><ele>571.0</ele><time>2026-05-02T13:46:17.001Z</time></trkpt><trkpt lat="43.07621566837416" lon="11.785481069956559"><ele>571.0</ele><time>2026-05-02T13:46:18.001Z</time></trkpt><trkpt lat="43.07613950410457" lon="11.785642851246468"><ele>571.0</ele><time>2026-05-02T13:46:19.001Z</time></trkpt><trkpt lat="43.07605530858607" lon="11.785804453453594"><ele>571.0</ele><time>2026-05-02T13:46:20.001Z</time></trkpt><trkpt lat="43.07597789025776" lon="11.785953304107487"><ele>571.0</ele><time>2026-05-02T13:46:21.001Z</time></trkpt><trkpt lat="43.075904661438024" lon="11.786096032972063"><ele>569.0</ele><time>2026-05-02T13:46:22.001Z</time></trkpt><trkpt lat="43.07582944742315" lon="11.786232949194389"><ele>567.0</ele><time>2026-05-02T13:46:23.001Z</time></trkpt><trkpt lat="43.07576051454028" lon="11.78635913583824"><ele>565.0</ele><time>2026-05-02T13:46:24.001Z</time></trkpt><trkpt lat="43.075694813850376" lon="11.78647342377549"><ele>563.0</ele><time>2026-05-02T13:46:25.001Z</time></trkpt><trkpt lat="43.07563305919593" lon="11.786589659579102"><ele>563.0</ele><time>2026-05-02T13:46:26.001Z</time></trkpt><trkpt lat="43.07557297507083" lon="11.786701544702627"><ele>563.0</ele><time>2026-05-02T13:46:27Z</time></trkpt><trkpt lat="43.075516718164984" lon="11.78680627539795"><ele>563.0</ele><time>2026-05-02T13:46:28Z</time></trkpt><trkpt lat="43.07545877578469" lon="11.78689349886327"><ele>563.0</ele><time>2026-05-02T13:46:29Z</time></trkpt><trkpt lat="43.07539166615266" lon="11.78697704561702"><ele>563.0</ele><time>2026-05-02T13:46:30Z</time></trkpt><trkpt lat="43.07531359512222" lon="11.78704772971711"><ele>561.8333333333333</ele><time>2026-05-02T13:46:31Z</time></trkpt><trkpt lat="43.07523301522191" lon="11.787099230000596"><ele>560.6666666666666</ele><time>2026-05-02T13:46:32Z</time></trkpt><trkpt lat="43.075147950005025" lon="11.787136949135025"><ele>559.5</ele><time>2026-05-02T13:46:33Z</time></trkpt><trkpt lat="43.075080292485794" lon="11.787166510623633"><ele>558.3333333333334</ele><time>2026-05-02T13:46:34Z</time></trkpt><trkpt lat="43.074986369992715" lon="11.787224807915573"><ele>557.1666666666667</ele><time>2026-05-02T13:46:36Z</time></trkpt><trkpt lat="43.074933649425354" lon="11.78727432753404"><ele>556.0</ele><time>2026-05-02T13:46:37Z</time></trkpt><trkpt lat="43.07486467068518" lon="11.787350224121987"><ele>552.5</ele><time>2026-05-02T13:46:38Z</time></trkpt><trkpt lat="43.07478399948406" lon="11.787451629401469"><ele>549.0</ele><time>2026-05-02T13:46:39Z</time></trkpt><trkpt lat="43.07470031501035" lon="11.78757723363343"><ele>545.5</ele><time>2026-05-02T13:46:40Z</time></trkpt><trkpt lat="43.074616694328704" lon="11.78772735688677"><ele>542.0</ele><time>2026-05-02T13:46:41Z</time></trkpt><trkpt lat="43.07453960318877" lon="11.787887157744356"><ele>542.0</ele><time>2026-05-02T13:46:42Z</time></trkpt><trkpt lat="43.074467704411205" lon="11.788027955383306"><ele>542.0</ele><time>2026-05-02T13:46:43Z</time></trkpt><trkpt lat="43.074400690912924" lon="11.78816282211209"><ele>542.0</ele><time>2026-05-02T13:46:44Z</time></trkpt><trkpt lat="43.07433645490907" lon="11.788293340110009"><ele>542.0</ele><time>2026-05-02T13:46:45Z</time></trkpt><trkpt lat="43.074289685223995" lon="11.788444752999816"><ele>541.75</ele><time>2026-05-02T13:46:46Z</time></trkpt><trkpt lat="43.07426606242304" lon="11.788617000337975"><ele>541.5</ele><time>2026-05-02T13:46:47Z</time></trkpt><trkpt lat="43.07427375569236" lon="11.7887963920613"><ele>541.25</ele><time>2026-05-02T13:46:48Z</time></trkpt><trkpt lat="43.0743102047463" lon="11.788969152871722"><ele>541.0</ele><time>2026-05-02T13:46:49Z</time></trkpt><trkpt lat="43.074377586758715" lon="11.789121478133897"><ele>541.0</ele><time>2026-05-02T13:46:50Z</time></trkpt><trkpt lat="43.07447598333371" lon="11.78926633306552"><ele>541.0</ele><time>2026-05-02T13:46:51Z</time></trkpt><trkpt lat="43.07459328534801" lon="11.789415705790129"><ele>541.0</ele><time>2026-05-02T13:46:52Z</time></trkpt><trkpt lat="43.07471347609426" lon="11.789575694349946"><ele>542.0</ele><time>2026-05-02T13:46:53Z</time></trkpt><trkpt lat="43.07483355470369" lon="11.789742859261136"><ele>543.0</ele><time>2026-05-02T13:46:54Z</time></trkpt><trkpt lat="43.074935136212325" lon="11.789910788054973"><ele>544.0</ele><time>2026-05-02T13:46:55Z</time></trkpt><trkpt lat="43.07501969317828" lon="11.790083545268576"><ele>543.25</ele><time>2026-05-02T13:46:56Z</time></trkpt><trkpt lat="43.075090418926024" lon="11.790248670581967"><ele>542.5</ele><time>2026-05-02T13:46:57Z</time></trkpt><trkpt lat="43.07514957657466" lon="11.790396031267148"><ele>541.75</ele><time>2026-05-02T13:46:58Z</time></trkpt><trkpt lat="43.07518282806798" lon="11.790533389523226"><ele>541.0</ele><time>2026-05-02T13:46:59Z</time></trkpt><trkpt lat="43.07517626357031" lon="11.79067598993495"><ele>541.0</ele><time>2026-05-02T13:47:00Z</time></trkpt><trkpt lat="43.075118888125225" lon="11.790805013410887"><ele>541.0</ele><time>2026-05-02T13:47:01Z</time></trkpt><trkpt lat="43.07500525270134" lon="11.790883831163564"><ele>541.0</ele><time>2026-05-02T13:47:02Z</time></trkpt><trkpt lat="43.07488415346937" lon="11.79099754940303"><ele>541.0</ele><time>2026-05-02T13:47:03Z</time></trkpt><trkpt lat="43.07472961850952" lon="11.791089429448574"><ele>540.3333333333334</ele><time>2026-05-02T13:47:04Z</time></trkpt><trkpt lat="43.07456890991608" lon="11.791202559420421"><ele>539.6666666666666</ele><time>2026-05-02T13:47:05Z</time></trkpt><trkpt lat="43.07441352495858" lon="11.791321481992386"><ele>539.0</ele><time>2026-05-02T13:47:06Z</time></trkpt><trkpt lat="43.074266224207115" lon="11.791427981413444"><ele>539.0</ele><time>2026-05-02T13:47:07Z</time></trkpt><trkpt lat="43.074122855977315" lon="11.79152426933324"><ele>539.0</ele><time>2026-05-02T13:47:08Z</time></trkpt><trkpt lat="43.073969320122615" lon="11.791611759809722"><ele>539.0</ele><time>2026-05-02T13:47:09Z</time></trkpt><trkpt lat="43.07380759104596" lon="11.7916861588781"><ele>534.3333333333333</ele><time>2026-05-02T13:47:10Z</time></trkpt><trkpt lat="43.07364740976591" lon="11.7917375864631"><ele>529.6666666666666</ele><time>2026-05-02T13:47:11Z</time></trkpt><trkpt lat="43.073497626195355" lon="11.791781969334663"><ele>525.0</ele><time>2026-05-02T13:47:12Z</time></trkpt><trkpt lat="43.073356603005735" lon="11.791824518857203"><ele>523.0</ele><time>2026-05-02T13:47:13Z</time></trkpt><trkpt lat="43.07322132610029" lon="11.791866417006919"><ele>521.0</ele><time>2026-05-02T13:47:14Z</time></trkpt><trkpt lat="43.07309234943236" lon="11.791916609683398"><ele>519.0</ele><time>2026-05-02T13:47:15Z</time></trkpt><trkpt lat="43.07296579723786" lon="11.791983848363815"><ele>517.0</ele><time>2026-05-02T13:47:16Z</time></trkpt><trkpt lat="43.072845186509504" lon="11.79207416688268"><ele>517.0</ele><time>2026-05-02T13:47:17Z</time></trkpt><trkpt lat="43.072746288684385" lon="11.792208284194178"><ele>517.0</ele><time>2026-05-02T13:47:18Z</time></trkpt><trkpt lat="43.07267549261074" lon="11.792356705536292"><ele>517.0</ele><time>2026-05-02T13:47:19Z</time></trkpt><trkpt lat="43.07262228465986" lon="11.792506090308606"><ele>517.0</ele><time>2026-05-02T13:47:20Z</time></trkpt><trkpt lat="43.07259657679146" lon="11.79270678522169"><ele>517.0</ele><time>2026-05-02T13:47:21Z</time></trkpt><trkpt lat="43.072592123055735" lon="11.792910882606604"><ele>517.0</ele><time>2026-05-02T13:47:22Z</time></trkpt><trkpt lat="43.07261769503919" lon="11.793133690625293"><ele>517.0</ele><time>2026-05-02T13:47:23Z</time></trkpt><trkpt lat="43.07266166290981" lon="11.793352669833462"><ele>513.3333333333334</ele><time>2026-05-02T13:47:24Z</time></trkpt><trkpt lat="43.07272389344102" lon="11.793549383787909"><ele>509.66666666666663</ele><time>2026-05-02T13:47:25Z</time></trkpt><trkpt lat="43.07279187077221" lon="11.793736657299604"><ele>506.0</ele><time>2026-05-02T13:47:26Z</time></trkpt><trkpt lat="43.0728887188098" lon="11.793915142658918"><ele>506.0</ele><time>2026-05-02T13:47:27Z</time></trkpt><trkpt lat="43.07302060411534" lon="11.794094226916322"><ele>506.0</ele><time>2026-05-02T13:47:28Z</time></trkpt><trkpt lat="43.07312796560769" lon="11.794215242869182"><ele>506.0</ele><time>2026-05-02T13:47:29Z</time></trkpt><trkpt lat="43.073256428507584" lon="11.794380371279741"><ele>506.0</ele><time>2026-05-02T13:47:30Z</time></trkpt><trkpt lat="43.07337068812379" lon="11.794534651414995"><ele>506.0</ele><time>2026-05-02T13:47:31Z</time></trkpt><trkpt lat="43.073492713776474" lon="11.794641257445832"><ele>506.0</ele><time>2026-05-02T13:47:32Z</time></trkpt><trkpt lat="43.07364717504287" lon="11.794697151949114"><ele>506.0</ele><time>2026-05-02T13:47:33Z</time></trkpt><trkpt lat="43.07382064505915" lon="11.794749033614314"><ele>506.0</ele><time>2026-05-02T13:47:34Z</time></trkpt><trkpt lat="43.07399329695134" lon="11.794804520235408"><ele>506.0</ele><time>2026-05-02T13:47:35Z</time></trkpt><trkpt lat="43.07416752429705" lon="11.79485777846608"><ele>507.0</ele><time>2026-05-02T13:47:36Z</time></trkpt><trkpt lat="43.07433432261802" lon="11.794911447806216"><ele>508.0</ele><time>2026-05-02T13:47:37Z</time></trkpt><trkpt lat="43.07449399236928" lon="11.79496596034946"><ele>509.0</ele><time>2026-05-02T13:47:38Z</time></trkpt><trkpt lat="43.07464076694143" lon="11.795024149639003"><ele>509.0</ele><time>2026-05-02T13:47:39Z</time></trkpt><trkpt lat="43.07477247054866" lon="11.79507541415273"><ele>509.0</ele><time>2026-05-02T13:47:40Z</time></trkpt><trkpt lat="43.074885514990086" lon="11.795156647809124"><ele>509.0</ele><time>2026-05-02T13:47:41Z</time></trkpt><trkpt lat="43.074973477537135" lon="11.795287092729348"><ele>509.0</ele><time>2026-05-02T13:47:42Z</time></trkpt><trkpt lat="43.07502202812891" lon="11.795431050303439"><ele>509.0</ele><time>2026-05-02T13:47:43Z</time></trkpt><trkpt lat="43.07505369013247" lon="11.795593626089087"><ele>509.0</ele><time>2026-05-02T13:47:44Z</time></trkpt><trkpt lat="43.0750586755554" lon="11.795775640428657"><ele>509.0</ele><time>2026-05-02T13:47:45Z</time></trkpt><trkpt lat="43.07500687044991" lon="11.795973396462996"><ele>509.0</ele><time>2026-05-02T13:47:46Z</time></trkpt><trkpt lat="43.07495215451967" lon="11.79621095850894"><ele>500.66666666666663</ele><time>2026-05-02T13:47:47Z</time></trkpt><trkpt lat="43.074896964908866" lon="11.796474697305129"><ele>492.33333333333337</ele><time>2026-05-02T13:47:48Z</time></trkpt><trkpt lat="43.07481904138752" lon="11.796736576657453"><ele>484.0</ele><time>2026-05-02T13:47:49.001Z</time></trkpt><trkpt lat="43.07477029741482" lon="11.796976195230737"><ele>482.33333333333337</ele><time>2026-05-02T13:47:50.001Z</time></trkpt><trkpt lat="43.074729486993135" lon="11.797208236688876"><ele>480.66666666666663</ele><time>2026-05-02T13:47:51.001Z</time></trkpt><trkpt lat="43.07470907187551" lon="11.79743190512439"><ele>479.0</ele><time>2026-05-02T13:47:52.001Z</time></trkpt><trkpt lat="43.074708323658385" lon="11.797651109583361"><ele>477.66666666666663</ele><time>2026-05-02T13:47:53.001Z</time></trkpt><trkpt lat="43.07473081075192" lon="11.797859790086395"><ele>476.33333333333337</ele><time>2026-05-02T13:47:54.001Z</time></trkpt><trkpt lat="43.074775222497024" lon="11.798080527209622"><ele>475.0</ele><time>2026-05-02T13:47:55.001Z</time></trkpt><trkpt lat="43.07484613217304" lon="11.798298507269608"><ele>477.0</ele><time>2026-05-02T13:47:56.001Z</time></trkpt><trkpt lat="43.07494294081109" lon="11.798517105584875"><ele>479.0</ele><time>2026-05-02T13:47:57.001Z</time></trkpt><trkpt lat="43.07505732394943" lon="11.798736191447146"><ele>481.0</ele><time>2026-05-02T13:47:58.001Z</time></trkpt><trkpt lat="43.07517590116182" lon="11.798958854123862"><ele>481.0</ele><time>2026-05-02T13:47:59.001Z</time></trkpt><trkpt lat="43.07528444661141" lon="11.79917994737221"><ele>481.0</ele><time>2026-05-02T13:48:00.001Z</time></trkpt><trkpt lat="43.07538796415506" lon="11.799408968294085"><ele>481.0</ele><time>2026-05-02T13:48:01.001Z</time></trkpt><trkpt lat="43.07547944311617" lon="11.799645823817544"><ele>478.33333333333337</ele><time>2026-05-02T13:48:02.001Z</time></trkpt><trkpt lat="43.07555032344721" lon="11.799882201645199"><ele>475.66666666666663</ele><time>2026-05-02T13:48:03.001Z</time></trkpt><trkpt lat="43.07561613051669" lon="11.800109078677597"><ele>473.0</ele><time>2026-05-02T13:48:04.001Z</time></trkpt><trkpt lat="43.07567431890665" lon="11.800307372227206"><ele>471.59999999999997</ele><time>2026-05-02T13:48:05.001Z</time></trkpt><trkpt lat="43.07572636678858" lon="11.800470114725831"><ele>470.19999999999993</ele><time>2026-05-02T13:48:06.001Z</time></trkpt><trkpt lat="43.07576748272089" lon="11.800617141697243"><ele>468.8</ele><time>2026-05-02T13:48:07.001Z</time></trkpt><trkpt lat="43.07576557762529" lon="11.800750584653333"><ele>467.4</ele><time>2026-05-02T13:48:08.001Z</time></trkpt><trkpt lat="43.075758208017106" lon="11.800872293088341"><ele>466.0</ele><time>2026-05-02T13:48:09.001Z</time></trkpt><trkpt lat="43.07569146839907" lon="11.800970883259827"><ele>466.0</ele><time>2026-05-02T13:48:10.001Z</time></trkpt><trkpt lat="43.075603684699246" lon="11.801022542178377"><ele>466.0</ele><time>2026-05-02T13:48:11.001Z</time></trkpt><trkpt lat="43.07551151578758" lon="11.801019655391087"><ele>466.0</ele><time>2026-05-02T13:48:12.001Z</time></trkpt><trkpt lat="43.0754154368454" lon="11.800949793476173"><ele>466.0</ele><time>2026-05-02T13:48:13.001Z</time></trkpt><trkpt lat="43.07532934221239" lon="11.800815852256537"><ele>466.0</ele><time>2026-05-02T13:48:14.001Z</time></trkpt><trkpt lat="43.075263767226666" lon="11.800633012050993"><ele>466.0</ele><time>2026-05-02T13:48:15.001Z</time></trkpt><trkpt lat="43.07519440773717" lon="11.800434501039103"><ele>466.0</ele><time>2026-05-02T13:48:16.001Z</time></trkpt><trkpt lat="43.07511266494223" lon="11.800241764331906"><ele>466.0</ele><time>2026-05-02T13:48:17.001Z</time></trkpt><trkpt lat="43.075036493691925" lon="11.800072007876638"><ele>465.5</ele><time>2026-05-02T13:48:18.001Z</time></trkpt><trkpt lat="43.07495961906409" lon="11.799924597373016"><ele>465.0</ele><time>2026-05-02T13:48:19.001Z</time></trkpt><trkpt lat="43.07486666836051" lon="11.799803806301416"><ele>464.5</ele><time>2026-05-02T13:48:20.001Z</time></trkpt><trkpt lat="43.074762071144725" lon="11.79971493082616"><ele>464.0</ele><time>2026-05-02T13:48:21.001Z</time></trkpt><trkpt lat="43.07463812329845" lon="11.799669837062865"><ele>464.0</ele><time>2026-05-02T13:48:22.001Z</time></trkpt><trkpt lat="43.07450129231269" lon="11.799665150482193"><ele>464.0</ele><time>2026-05-02T13:48:23.001Z</time></trkpt><trkpt lat="43.07435230657346" lon="11.7997025102525"><ele>464.0</ele><time>2026-05-02T13:48:24.001Z</time></trkpt><trkpt lat="43.074195769298086" lon="11.799769626693514"><ele>466.3333333333333</ele><time>2026-05-02T13:48:25.001Z</time></trkpt><trkpt lat="43.07403037531328" lon="11.799841445235076"><ele>468.66666666666663</ele><time>2026-05-02T13:48:26.001Z</time></trkpt><trkpt lat="43.0738702970672" lon="11.799912237839784"><ele>471.0</ele><time>2026-05-02T13:48:27.001Z</time></trkpt><trkpt lat="43.07372559968965" lon="11.79996857993379"><ele>471.0</ele><time>2026-05-02T13:48:28.001Z</time></trkpt><trkpt lat="43.07359313625131" lon="11.8000242117838"><ele>471.0</ele><time>2026-05-02T13:48:29.001Z</time></trkpt><trkpt lat="43.07347405860993" lon="11.80009302279444"><ele>471.0</ele><time>2026-05-02T13:48:30.001Z</time></trkpt><trkpt lat="43.07336567523787" lon="11.8001856918286"><ele>471.0</ele><time>2026-05-02T13:48:31.001Z</time></trkpt><trkpt lat="43.07327107793835" lon="11.800321956948247"><ele>474.66666666666663</ele><time>2026-05-02T13:48:32.001Z</time></trkpt><trkpt lat="43.07320421242675" lon="11.800492025849335"><ele>478.3333333333333</ele><time>2026-05-02T13:48:33Z</time></trkpt><trkpt lat="43.07315162416981" lon="11.800691471534057"><ele>482.0</ele><time>2026-05-02T13:48:34Z</time></trkpt><trkpt lat="43.07309266741413" lon="11.800903983285698"><ele>480.3333333333333</ele><time>2026-05-02T13:48:35Z</time></trkpt><trkpt lat="43.07302603211462" lon="11.801114485585744"><ele>478.66666666666663</ele><time>2026-05-02T13:48:36Z</time></trkpt><trkpt lat="43.07296492189029" lon="11.801304706462448"><ele>477.0</ele><time>2026-05-02T13:48:37Z</time></trkpt><trkpt lat="43.07290937836944" lon="11.801474681138009"><ele>477.0</ele><time>2026-05-02T13:48:38Z</time></trkpt><trkpt lat="43.07285367803337" lon="11.801638744806892"><ele>477.0</ele><time>2026-05-02T13:48:39Z</time></trkpt><trkpt lat="43.072803313898994" lon="11.801795419342191"><ele>477.0</ele><time>2026-05-02T13:48:40Z</time></trkpt><trkpt lat="43.072756474231724" lon="11.80194518423378"><ele>477.0</ele><time>2026-05-02T13:48:41Z</time></trkpt><trkpt lat="43.07270570880017" lon="11.802093081018507"><ele>477.0</ele><time>2026-05-02T13:48:42Z</time></trkpt><trkpt lat="43.072655364445254" lon="11.802249103849876"><ele>477.0</ele><time>2026-05-02T13:48:43Z</time></trkpt><trkpt lat="43.07260284322113" lon="11.80241313974542"><ele>477.0</ele><time>2026-05-02T13:48:44Z</time></trkpt><trkpt lat="43.07255107144637" lon="11.802575811409902"><ele>477.0</ele><time>2026-05-02T13:48:45Z</time></trkpt><trkpt lat="43.07250077762422" lon="11.802732355361652"><ele>478.0</ele><time>2026-05-02T13:48:46Z</time></trkpt><trkpt lat="43.072447432585946" lon="11.802885344531136"><ele>479.0</ele><time>2026-05-02T13:48:47Z</time></trkpt><trkpt lat="43.07239761824361" lon="11.803043925844133"><ele>480.0</ele><time>2026-05-02T13:48:48Z</time></trkpt><trkpt lat="43.07234581772697" lon="11.803197627923765"><ele>481.0</ele><time>2026-05-02T13:48:49Z</time></trkpt><trkpt lat="43.07229432958586" lon="11.803357878289598"><ele>482.0</ele><time>2026-05-02T13:48:50Z</time></trkpt><trkpt lat="43.07224002194046" lon="11.803511516948873"><ele>483.0</ele><time>2026-05-02T13:48:51Z</time></trkpt><trkpt lat="43.07218291386015" lon="11.803678936246996"><ele>484.0</ele><time>2026-05-02T13:48:52Z</time></trkpt><trkpt lat="43.07212443307387" lon="11.803848686974304"><ele>485.0</ele><time>2026-05-02T13:48:53Z</time></trkpt><trkpt lat="43.07206707610074" lon="11.804014182614901"><ele>485.0</ele><time>2026-05-02T13:48:54Z</time></trkpt><trkpt lat="43.07201139414543" lon="11.804177795373407"><ele>485.0</ele><time>2026-05-02T13:48:55Z</time></trkpt><trkpt lat="43.07196179898402" lon="11.804341351833266"><ele>485.0</ele><time>2026-05-02T13:48:56Z</time></trkpt><trkpt lat="43.0719112702572" lon="11.804491423455953"><ele>485.0</ele><time>2026-05-02T13:48:57Z</time></trkpt><trkpt lat="43.07186091596854" lon="11.804640226766073"><ele>485.25</ele><time>2026-05-02T13:48:58Z</time></trkpt><trkpt lat="43.071811253067395" lon="11.804786100042795"><ele>485.5</ele><time>2026-05-02T13:48:59Z</time></trkpt><trkpt lat="43.07176144710114" lon="11.804933399515571"><ele>485.75</ele><time>2026-05-02T13:49:00Z</time></trkpt><trkpt lat="43.07171185483222" lon="11.805081350304276"><ele>486.0</ele><time>2026-05-02T13:49:01Z</time></trkpt><trkpt lat="43.07166044160303" lon="11.805228256642721"><ele>486.4</ele><time>2026-05-02T13:49:02Z</time></trkpt><trkpt lat="43.071606188290744" lon="11.805368792672011"><ele>486.8</ele><time>2026-05-02T13:49:03Z</time></trkpt><trkpt lat="43.07155404185583" lon="11.805505272577943"><ele>487.19999999999993</ele><time>2026-05-02T13:49:04Z</time></trkpt><trkpt lat="43.07150391819427" lon="11.805630744012728"><ele>487.59999999999997</ele><time>2026-05-02T13:49:05Z</time></trkpt><trkpt lat="43.071448294748926" lon="11.805748500236591"><ele>488.0</ele><time>2026-05-02T13:49:06Z</time></trkpt><trkpt lat="43.07138644025068" lon="11.805889687036585"><ele>487.25</ele><time>2026-05-02T13:49:07Z</time></trkpt><trkpt lat="43.07131620767127" lon="11.806045019194244"><ele>486.5</ele><time>2026-05-02T13:49:08Z</time></trkpt><trkpt lat="43.071239683891086" lon="11.806200451010966"><ele>485.75</ele><time>2026-05-02T13:49:09Z</time></trkpt><trkpt lat="43.07117173870076" lon="11.806335290821263"><ele>485.0</ele><time>2026-05-02T13:49:10Z</time></trkpt><trkpt lat="43.071106112449066" lon="11.806443944156342"><ele>485.0</ele><time>2026-05-02T13:49:11Z</time></trkpt><trkpt lat="43.07104210002826" lon="11.806540562438226"><ele>485.0</ele><time>2026-05-02T13:49:12Z</time></trkpt><trkpt lat="43.07097388776048" lon="11.806625083242665"><ele>485.0</ele><time>2026-05-02T13:49:13Z</time></trkpt><trkpt lat="43.07089454916869" lon="11.806700336591511"><ele>485.0</ele><time>2026-05-02T13:49:14Z</time></trkpt><trkpt lat="43.070794249468875" lon="11.806776769561496"><ele>485.0</ele><time>2026-05-02T13:49:15Z</time></trkpt><trkpt lat="43.07068951833827" lon="11.806849649926784"><ele>484.75</ele><time>2026-05-02T13:49:16Z</time></trkpt><trkpt lat="43.07058610229276" lon="11.806918819246802"><ele>484.5</ele><time>2026-05-02T13:49:17Z</time></trkpt><trkpt lat="43.070478834080106" lon="11.806989700825046"><ele>484.25</ele><time>2026-05-02T13:49:18Z</time></trkpt><trkpt lat="43.07036782255913" lon="11.807070494178134"><ele>484.0</ele><time>2026-05-02T13:49:19Z</time></trkpt><trkpt lat="43.07023619612915" lon="11.807171287841214"><ele>484.0</ele><time>2026-05-02T13:49:20Z</time></trkpt><trkpt lat="43.070091414641055" lon="11.807286841130088"><ele>484.0</ele><time>2026-05-02T13:49:21Z</time></trkpt><trkpt lat="43.069944510217034" lon="11.807407801228052"><ele>484.0</ele><time>2026-05-02T13:49:22Z</time></trkpt><trkpt lat="43.06981618377086" lon="11.807524117359918"><ele>484.75</ele><time>2026-05-02T13:49:23Z</time></trkpt><trkpt lat="43.06969878810974" lon="11.807629238891966"><ele>485.5</ele><time>2026-05-02T13:49:24Z</time></trkpt><trkpt lat="43.069585228708995" lon="11.80772678697558"><ele>486.25</ele><time>2026-05-02T13:49:25Z</time></trkpt><trkpt lat="43.06947862894509" lon="11.807817121633908"><ele>487.0</ele><time>2026-05-02T13:49:26Z</time></trkpt><trkpt lat="43.0693740997817" lon="11.807907878518744"><ele>487.0</ele><time>2026-05-02T13:49:27Z</time></trkpt><trkpt lat="43.069272332624216" lon="11.80799857689573"><ele>487.0</ele><time>2026-05-02T13:49:28Z</time></trkpt><trkpt lat="43.06916882829214" lon="11.808084937320313"><ele>487.0</ele><time>2026-05-02T13:49:29Z</time></trkpt><trkpt lat="43.06906892162766" lon="11.808170805179941"><ele>487.0</ele><time>2026-05-02T13:49:30Z</time></trkpt><trkpt lat="43.06897788559666" lon="11.808252266778009"><ele>486.75</ele><time>2026-05-02T13:49:31Z</time></trkpt><trkpt lat="43.068876767090934" lon="11.808339809694544"><ele>486.5</ele><time>2026-05-02T13:49:32Z</time></trkpt><trkpt lat="43.06877788889979" lon="11.808425939150764"><ele>486.25</ele><time>2026-05-02T13:49:33Z</time></trkpt><trkpt lat="43.06868278498089" lon="11.808506824878501"><ele>486.0</ele><time>2026-05-02T13:49:34Z</time></trkpt><trkpt lat="43.06858904718526" lon="11.808582979561873"><ele>486.0</ele><time>2026-05-02T13:49:35Z</time></trkpt><trkpt lat="43.06848802338416" lon="11.808663679793911"><ele>486.0</ele><time>2026-05-02T13:49:36Z</time></trkpt><trkpt lat="43.06838693689273" lon="11.80874310445276"><ele>486.0</ele><time>2026-05-02T13:49:37Z</time></trkpt><trkpt lat="43.06828584982343" lon="11.808818596521453"><ele>486.0</ele><time>2026-05-02T13:49:38Z</time></trkpt><trkpt lat="43.06818127008553" lon="11.808891449524703"><ele>486.8</ele><time>2026-05-02T13:49:39Z</time></trkpt><trkpt lat="43.06807441454498" lon="11.80895674106629"><ele>487.6</ele><time>2026-05-02T13:49:40Z</time></trkpt><trkpt lat="43.067975382342176" lon="11.80901287758958"><ele>488.4</ele><time>2026-05-02T13:49:41Z</time></trkpt><trkpt lat="43.06788469065936" lon="11.809062375162362"><ele>489.2</ele><time>2026-05-02T13:49:42Z</time></trkpt><trkpt lat="43.06778774440868" lon="11.809111303747938"><ele>490.0</ele><time>2026-05-02T13:49:43Z</time></trkpt><trkpt lat="43.06768177819442" lon="11.809165974848685"><ele>490.0</ele><time>2026-05-02T13:49:44Z</time></trkpt><trkpt lat="43.06757451255694" lon="11.809220522436013"><ele>490.0</ele><time>2026-05-02T13:49:45Z</time></trkpt><trkpt lat="43.06746429630814" lon="11.809275147418791"><ele>490.0</ele><time>2026-05-02T13:49:46Z</time></trkpt><trkpt lat="43.067352945373365" lon="11.809327324183931"><ele>490.0</ele><time>2026-05-02T13:49:47.001Z</time></trkpt><trkpt lat="43.06723847634715" lon="11.809385010288729"><ele>489.25</ele><time>2026-05-02T13:49:48.001Z</time></trkpt><trkpt lat="43.067123341699656" lon="11.809441778321894"><ele>488.5</ele><time>2026-05-02T13:49:49.001Z</time></trkpt><trkpt lat="43.06700220189924" lon="11.809509083189973"><ele>487.75</ele><time>2026-05-02T13:49:50.001Z</time></trkpt><trkpt lat="43.0668877777564" lon="11.80958767755964"><ele>487.0</ele><time>2026-05-02T13:49:51.001Z</time></trkpt><trkpt lat="43.06677689386173" lon="11.809676795151631"><ele>487.0</ele><time>2026-05-02T13:49:52.001Z</time></trkpt><trkpt lat="43.06667022539547" lon="11.80977474458314"><ele>487.0</ele><time>2026-05-02T13:49:53.001Z</time></trkpt><trkpt lat="43.066565942426166" lon="11.809884257845477"><ele>487.0</ele><time>2026-05-02T13:49:54.001Z</time></trkpt><trkpt lat="43.06645804870264" lon="11.809997304947704"><ele>487.0</ele><time>2026-05-02T13:49:55.001Z</time></trkpt><trkpt lat="43.06635403714521" lon="11.810103339497752"><ele>487.25</ele><time>2026-05-02T13:49:56.001Z</time></trkpt><trkpt lat="43.066249527238206" lon="11.810211627384527"><ele>487.5</ele><time>2026-05-02T13:49:57.001Z</time></trkpt><trkpt lat="43.06613687959757" lon="11.810327622219434"><ele>487.75</ele><time>2026-05-02T13:49:58.001Z</time></trkpt><trkpt lat="43.06603170878994" lon="11.810437929505063"><ele>488.0</ele><time>2026-05-02T13:49:59.001Z</time></trkpt><trkpt lat="43.065932571933196" lon="11.810534042637448"><ele>488.0</ele><time>2026-05-02T13:50:00.001Z</time></trkpt><trkpt lat="43.06583496130377" lon="11.81062705768668"><ele>488.0</ele><time>2026-05-02T13:50:01.001Z</time></trkpt><trkpt lat="43.065732052933434" lon="11.810716190841019"><ele>488.0</ele><time>2026-05-02T13:50:02.001Z</time></trkpt><trkpt lat="43.065633503958225" lon="11.810834044138971"><ele>488.0</ele><time>2026-05-02T13:50:03.001Z</time></trkpt><trkpt lat="43.06552871838841" lon="11.81093895703657"><ele>486.25</ele><time>2026-05-02T13:50:04.001Z</time></trkpt><trkpt lat="43.06541927130367" lon="11.811043486077413"><ele>484.5</ele><time>2026-05-02T13:50:05.001Z</time></trkpt><trkpt lat="43.065318069270454" lon="11.81114563469131"><ele>482.75</ele><time>2026-05-02T13:50:06.001Z</time></trkpt><trkpt lat="43.065220902757254" lon="11.811242154005571"><ele>481.0</ele><time>2026-05-02T13:50:07.001Z</time></trkpt><trkpt lat="43.06513042131773" lon="11.811332578553337"><ele>481.0</ele><time>2026-05-02T13:50:08.001Z</time></trkpt><trkpt lat="43.065035357792325" lon="11.811425960874775"><ele>481.0</ele><time>2026-05-02T13:50:09.001Z</time></trkpt><trkpt lat="43.064940066448564" lon="11.811526032485622"><ele>481.0</ele><time>2026-05-02T13:50:10.001Z</time></trkpt><trkpt lat="43.064854509348145" lon="11.811641232802186"><ele>481.0</ele><time>2026-05-02T13:50:11.001Z</time></trkpt><trkpt lat="43.064781744542906" lon="11.811778093499116"><ele>487.75</ele><time>2026-05-02T13:50:12.001Z</time></trkpt><trkpt lat="43.06474128948785" lon="11.81193184641502"><ele>494.5</ele><time>2026-05-02T13:50:13.001Z</time></trkpt><trkpt lat="43.06472876904639" lon="11.812116001394804"><ele>501.25</ele><time>2026-05-02T13:50:14.001Z</time></trkpt><trkpt lat="43.064744652634154" lon="11.812300345178006"><ele>508.0</ele><time>2026-05-02T13:50:15.001Z</time></trkpt><trkpt lat="43.06479264513884" lon="11.812468628085872"><ele>508.0</ele><time>2026-05-02T13:50:16.001Z</time></trkpt><trkpt lat="43.064865396094895" lon="11.812630727332733"><ele>508.0</ele><time>2026-05-02T13:50:17.001Z</time></trkpt><trkpt lat="43.0649514014" lon="11.81278250773976"><ele>508.0</ele><time>2026-05-02T13:50:18.001Z</time></trkpt><trkpt lat="43.06504277393614" lon="11.812899916784975"><ele>508.0</ele><time>2026-05-02T13:50:19.001Z</time></trkpt><trkpt lat="43.0651341803185" lon="11.813002932674664"><ele>503.2</ele><time>2026-05-02T13:50:20.001Z</time></trkpt><trkpt lat="43.065224088946465" lon="11.813103254115633"><ele>498.4</ele><time>2026-05-02T13:50:21.001Z</time></trkpt><trkpt lat="43.065303193070655" lon="11.813225692576694"><ele>493.59999999999997</ele><time>2026-05-02T13:50:22.001Z</time></trkpt><trkpt lat="43.065357873836746" lon="11.813347573247865"><ele>488.79999999999995</ele><time>2026-05-02T13:50:23.001Z</time></trkpt><trkpt lat="43.06539508396673" lon="11.81348430468365"><ele>484.0</ele><time>2026-05-02T13:50:24.001Z</time></trkpt><trkpt lat="43.06541218577067" lon="11.813640735294962"><ele>483.6</ele><time>2026-05-02T13:50:25.001Z</time></trkpt><trkpt lat="43.065412558810465" lon="11.81378843129074"><ele>483.2</ele><time>2026-05-02T13:50:26.001Z</time></trkpt><trkpt lat="43.065395185105395" lon="11.813928862961124"><ele>482.80000000000007</ele><time>2026-05-02T13:50:27.001Z</time></trkpt><trkpt lat="43.0653622319351" lon="11.814067135075064"><ele>482.40000000000003</ele><time>2026-05-02T13:50:28.001Z</time></trkpt><trkpt lat="43.06531134198292" lon="11.814204630005642"><ele>482.0</ele><time>2026-05-02T13:50:29.001Z</time></trkpt><trkpt lat="43.06523984357737" lon="11.814331956653586"><ele>480.40000000000003</ele><time>2026-05-02T13:50:30.001Z</time></trkpt><trkpt lat="43.06515567168184" lon="11.81444941504984"><ele>478.80000000000007</ele><time>2026-05-02T13:50:31.001Z</time></trkpt><trkpt lat="43.06506952032489" lon="11.814544747257607"><ele>477.2</ele><time>2026-05-02T13:50:32.001Z</time></trkpt><trkpt lat="43.06498213161881" lon="11.814633075720556"><ele>475.6</ele><time>2026-05-02T13:50:33.001Z</time></trkpt><trkpt lat="43.06489981215839" lon="11.814728756994233"><ele>474.0</ele><time>2026-05-02T13:50:34.001Z</time></trkpt><trkpt lat="43.06482575783352" lon="11.814834516509842"><ele>477.4</ele><time>2026-05-02T13:50:35.001Z</time></trkpt><trkpt lat="43.06475783603354" lon="11.814947468557161"><ele>480.79999999999995</ele><time>2026-05-02T13:50:36.001Z</time></trkpt><trkpt lat="43.064698878853974" lon="11.815073318697175"><ele>484.20000000000005</ele><time>2026-05-02T13:50:37.001Z</time></trkpt><trkpt lat="43.06465747456843" lon="11.815211114630221"><ele>487.6</ele><time>2026-05-02T13:50:38Z</time></trkpt><trkpt lat="43.06463475847592" lon="11.815347061353883"><ele>491.0</ele><time>2026-05-02T13:50:39Z</time></trkpt><trkpt lat="43.06461451888669" lon="11.815496186748272"><ele>491.25</ele><time>2026-05-02T13:50:40Z</time></trkpt><trkpt lat="43.064604751149616" lon="11.815660009869054"><ele>491.5</ele><time>2026-05-02T13:50:41Z</time></trkpt><trkpt lat="43.06461097316473" lon="11.815836280388561"><ele>491.75</ele><time>2026-05-02T13:50:42Z</time></trkpt><trkpt lat="43.064629194853836" lon="11.816018989017579"><ele>492.0</ele><time>2026-05-02T13:50:43Z</time></trkpt><trkpt lat="43.06465395382361" lon="11.816199704582818"><ele>492.0</ele><time>2026-05-02T13:50:44Z</time></trkpt><trkpt lat="43.06468169201557" lon="11.816379907301291"><ele>492.0</ele><time>2026-05-02T13:50:45Z</time></trkpt><trkpt lat="43.06470725829328" lon="11.81656154745901"><ele>492.0</ele><time>2026-05-02T13:50:46Z</time></trkpt><trkpt lat="43.06473393402856" lon="11.816738945493121"><ele>492.0</ele><time>2026-05-02T13:50:47Z</time></trkpt><trkpt lat="43.06475617857117" lon="11.816912448739613"><ele>492.0</ele><time>2026-05-02T13:50:48Z</time></trkpt><trkpt lat="43.06476594829265" lon="11.817075098685761"><ele>492.0</ele><time>2026-05-02T13:50:49Z</time></trkpt><trkpt lat="43.064759660636476" lon="11.817240436077642"><ele>492.0</ele><time>2026-05-02T13:50:50Z</time></trkpt><trkpt lat="43.064729310403635" lon="11.817414373928546"><ele>492.0</ele><time>2026-05-02T13:50:51Z</time></trkpt><trkpt lat="43.06466283895579" lon="11.817562729577396"><ele>489.75</ele><time>2026-05-02T13:50:52Z</time></trkpt><trkpt lat="43.0645963172556" lon="11.817706744234545"><ele>487.5</ele><time>2026-05-02T13:50:53Z</time></trkpt><trkpt lat="43.06450964790784" lon="11.817832360417833"><ele>485.25</ele><time>2026-05-02T13:50:54Z</time></trkpt><trkpt lat="43.06440975212887" lon="11.817934427185346"><ele>483.0</ele><time>2026-05-02T13:50:55Z</time></trkpt><trkpt lat="43.06429269473762" lon="11.81801364796173"><ele>483.0</ele><time>2026-05-02T13:50:56Z</time></trkpt><trkpt lat="43.06415598300753" lon="11.81808128570278"><ele>483.0</ele><time>2026-05-02T13:50:57Z</time></trkpt><trkpt lat="43.06399393040264" lon="11.818098800551107"><ele>483.0</ele><time>2026-05-02T13:50:58Z</time></trkpt><trkpt lat="43.06383754088738" lon="11.81808818085109"><ele>479.0</ele><time>2026-05-02T13:50:59Z</time></trkpt><trkpt lat="43.06368620364688" lon="11.818022737486714"><ele>475.0</ele><time>2026-05-02T13:51:00Z</time></trkpt><trkpt lat="43.06354107546651" lon="11.817935348590671"><ele>471.0</ele><time>2026-05-02T13:51:01Z</time></trkpt><trkpt lat="43.063392425454914" lon="11.817824061989764"><ele>469.0</ele><time>2026-05-02T13:51:02Z</time></trkpt><trkpt lat="43.063240198199686" lon="11.817715375438636"><ele>467.0</ele><time>2026-05-02T13:51:03Z</time></trkpt><trkpt lat="43.06307918568173" lon="11.817607209358624"><ele>465.0</ele><time>2026-05-02T13:51:04Z</time></trkpt><trkpt lat="43.06292244192815" lon="11.817506056734285"><ele>468.66666666666663</ele><time>2026-05-02T13:51:05Z</time></trkpt><trkpt lat="43.062764818675056" lon="11.817416738165475"><ele>472.3333333333333</ele><time>2026-05-02T13:51:06Z</time></trkpt><trkpt lat="43.062606856851296" lon="11.817339914107885"><ele>476.0</ele><time>2026-05-02T13:51:07Z</time></trkpt><trkpt lat="43.06244284948921" lon="11.817271364161886"><ele>476.0</ele><time>2026-05-02T13:51:08Z</time></trkpt><trkpt lat="43.062278175519864" lon="11.817215691006929"><ele>476.0</ele><time>2026-05-02T13:51:09Z</time></trkpt><trkpt lat="43.06211031942226" lon="11.817165755351924"><ele>476.0</ele><time>2026-05-02T13:51:10Z</time></trkpt><trkpt lat="43.061932490398036" lon="11.817114524828028"><ele>476.0</ele><time>2026-05-02T13:51:11Z</time></trkpt><trkpt lat="43.06175477001526" lon="11.817074943617037"><ele>476.0</ele><time>2026-05-02T13:51:12Z</time></trkpt><trkpt lat="43.06158211609081" lon="11.81706158249003"><ele>476.0</ele><time>2026-05-02T13:51:13Z</time></trkpt><trkpt lat="43.06140212987565" lon="11.81707345251016"><ele>476.66666666666663</ele><time>2026-05-02T13:51:14Z</time></trkpt><trkpt lat="43.06121392442207" lon="11.817099141159412"><ele>477.33333333333337</ele><time>2026-05-02T13:51:15Z</time></trkpt><trkpt lat="43.06103692406938" lon="11.817132167386875"><ele>478.0</ele><time>2026-05-02T13:51:16Z</time></trkpt><trkpt lat="43.06087419043186" lon="11.817165551229296"><ele>478.0</ele><time>2026-05-02T13:51:17Z</time></trkpt><trkpt lat="43.06072770912468" lon="11.817203210136546"><ele>478.0</ele><time>2026-05-02T13:51:18Z</time></trkpt><trkpt lat="43.06059629033773" lon="11.817229721778094"><ele>478.0</ele><time>2026-05-02T13:51:19Z</time></trkpt><trkpt lat="43.060472297547875" lon="11.81725055565051"><ele>478.0</ele><time>2026-05-02T13:51:20Z</time></trkpt><trkpt lat="43.06033988828174" lon="11.817277025320971"><ele>478.0</ele><time>2026-05-02T13:51:21Z</time></trkpt><trkpt lat="43.0602160976785" lon="11.817290414065347"><ele>478.0</ele><time>2026-05-02T13:51:22Z</time></trkpt><trkpt lat="43.06010129917944" lon="11.8172750201515"><ele>478.0</ele><time>2026-05-02T13:51:23Z</time></trkpt><trkpt lat="43.05998112599428" lon="11.817214296551747"><ele>478.0</ele><time>2026-05-02T13:51:24Z</time></trkpt><trkpt lat="43.05987791678275" lon="11.817112788393572"><ele>479.0</ele><time>2026-05-02T13:51:25Z</time></trkpt><trkpt lat="43.059792867780516" lon="11.816965231955821"><ele>480.0</ele><time>2026-05-02T13:51:26Z</time></trkpt><trkpt lat="43.059703265635676" lon="11.816772904600759"><ele>481.0</ele><time>2026-05-02T13:51:27Z</time></trkpt><trkpt lat="43.05960899467642" lon="11.816584432001429"><ele>483.0</ele><time>2026-05-02T13:51:28Z</time></trkpt><trkpt lat="43.059525787393305" lon="11.816423614865974"><ele>485.0</ele><time>2026-05-02T13:51:29Z</time></trkpt><trkpt lat="43.059452383916934" lon="11.816287212025832"><ele>487.0</ele><time>2026-05-02T13:51:30Z</time></trkpt><trkpt lat="43.05937939476866" lon="11.816172827560413"><ele>489.0</ele><time>2026-05-02T13:51:31Z</time></trkpt><trkpt lat="43.05930399469907" lon="11.816075527093705"><ele>489.0</ele><time>2026-05-02T13:51:32Z</time></trkpt><trkpt lat="43.05921092356527" lon="11.816000097054813"><ele>489.0</ele><time>2026-05-02T13:51:33Z</time></trkpt><trkpt lat="43.059094976731856" lon="11.815960350453151"><ele>489.0</ele><time>2026-05-02T13:51:34Z</time></trkpt><trkpt lat="43.058969583990624" lon="11.815960329028918"><ele>489.0</ele><time>2026-05-02T13:51:35Z</time></trkpt><trkpt lat="43.05884490852251" lon="11.816004408417808"><ele>491.75</ele><time>2026-05-02T13:51:36Z</time></trkpt><trkpt lat="43.05871957704797" lon="11.816073183745736"><ele>494.5</ele><time>2026-05-02T13:51:37Z</time></trkpt><trkpt lat="43.05860695261045" lon="11.816150912138253"><ele>497.25</ele><time>2026-05-02T13:51:38Z</time></trkpt><trkpt lat="43.05851162735718" lon="11.81621239651653"><ele>500.0</ele><time>2026-05-02T13:51:39Z</time></trkpt><trkpt lat="43.058415936313246" lon="11.816270556762921"><ele>500.0</ele><time>2026-05-02T13:51:40Z</time></trkpt><trkpt lat="43.058320865961036" lon="11.816347568616658"><ele>500.0</ele><time>2026-05-02T13:51:41Z</time></trkpt><trkpt lat="43.05823980240514" lon="11.816457080226519"><ele>500.0</ele><time>2026-05-02T13:51:42Z</time></trkpt><trkpt lat="43.05818846538648" lon="11.816601090411833"><ele>500.0</ele><time>2026-05-02T13:51:43Z</time></trkpt><trkpt lat="43.05817648396876" lon="11.816772390072579"><ele>507.3333333333333</ele><time>2026-05-02T13:51:44Z</time></trkpt><trkpt lat="43.058183628164464" lon="11.816965513835571"><ele>514.6666666666666</ele><time>2026-05-02T13:51:45Z</time></trkpt><trkpt lat="43.05820574673514" lon="11.817179936105548"><ele>522.0</ele><time>2026-05-02T13:51:46Z</time></trkpt><trkpt lat="43.05823436346045" lon="11.817393255417311"><ele>522.0</ele><time>2026-05-02T13:51:47Z</time></trkpt><trkpt lat="43.058277279747756" lon="11.81759828643896"><ele>522.0</ele><time>2026-05-02T13:51:48Z</time></trkpt><trkpt lat="43.05833794614794" lon="11.817800596701591"><ele>522.0</ele><time>2026-05-02T13:51:49Z</time></trkpt><trkpt lat="43.05840743179033" lon="11.818000392165565"><ele>518.0</ele><time>2026-05-02T13:51:50Z</time></trkpt><trkpt lat="43.058474638017536" lon="11.818193575673206"><ele>514.0</ele><time>2026-05-02T13:51:51Z</time></trkpt><trkpt lat="43.05853845028389" lon="11.818387777881338"><ele>510.0</ele><time>2026-05-02T13:51:52.001Z</time></trkpt><trkpt lat="43.05860178445592" lon="11.818575744367195"><ele>510.0</ele><time>2026-05-02T13:51:53.001Z</time></trkpt><trkpt lat="43.05867284854254" lon="11.818752575634022"><ele>510.0</ele><time>2026-05-02T13:51:54.001Z</time></trkpt><trkpt lat="43.05874766571345" lon="11.818923052166575"><ele>510.0</ele><time>2026-05-02T13:51:55.001Z</time></trkpt><trkpt lat="43.058815573916895" lon="11.819085715731934"><ele>510.0</ele><time>2026-05-02T13:51:56.001Z</time></trkpt><trkpt lat="43.058870206317216" lon="11.819254676933506"><ele>510.5</ele><time>2026-05-02T13:51:57.001Z</time></trkpt><trkpt lat="43.058882791294266" lon="11.819449857657514"><ele>511.0</ele><time>2026-05-02T13:51:58.001Z</time></trkpt><trkpt lat="43.058898344216296" lon="11.819644736475723"><ele>511.5</ele><time>2026-05-02T13:51:59.001Z</time></trkpt><trkpt lat="43.05890748412739" lon="11.819820145026872"><ele>512.0</ele><time>2026-05-02T13:52:00.001Z</time></trkpt><trkpt lat="43.058910163709484" lon="11.819978725663095"><ele>512.0</ele><time>2026-05-02T13:52:01.001Z</time></trkpt><trkpt lat="43.05892584458883" lon="11.820133103179534"><ele>512.0</ele><time>2026-05-02T13:52:02.001Z</time></trkpt><trkpt lat="43.05891605182212" lon="11.82027668463141"><ele>512.0</ele><time>2026-05-02T13:52:03.001Z</time></trkpt><trkpt lat="43.05889842390782" lon="11.820409594617384"><ele>512.0</ele><time>2026-05-02T13:52:04.001Z</time></trkpt><trkpt lat="43.05886154881326" lon="11.820537695598047"><ele>512.0</ele><time>2026-05-02T13:52:05.001Z</time></trkpt><trkpt lat="43.05883313037544" lon="11.820645543905352"><ele>511.16666666666663</ele><time>2026-05-02T13:52:06.001Z</time></trkpt><trkpt lat="43.05877379996387" lon="11.820739613817885"><ele>510.3333333333333</ele><time>2026-05-02T13:52:07.001Z</time></trkpt><trkpt lat="43.05869769962954" lon="11.820797704010257"><ele>509.5</ele><time>2026-05-02T13:52:08.001Z</time></trkpt><trkpt lat="43.058618801672736" lon="11.82079765570351"><ele>508.66666666666663</ele><time>2026-05-02T13:52:09.001Z</time></trkpt><trkpt lat="43.0585529042256" lon="11.82083874404742"><ele>507.8333333333333</ele><time>2026-05-02T13:52:10.001Z</time></trkpt><trkpt lat="43.05846952747941" lon="11.820848677268556"><ele>507.0</ele><time>2026-05-02T13:52:11.001Z</time></trkpt><trkpt lat="43.05839922217608" lon="11.82089087983656"><ele>507.0</ele><time>2026-05-02T13:52:12.001Z</time></trkpt><trkpt lat="43.058355830997215" lon="11.820970704772563"><ele>507.0</ele><time>2026-05-02T13:52:13.001Z</time></trkpt><trkpt lat="43.058352464654384" lon="11.821076235499405"><ele>507.0</ele><time>2026-05-02T13:52:14.001Z</time></trkpt><trkpt lat="43.058381801035715" lon="11.821189883070394"><ele>507.0</ele><time>2026-05-02T13:52:15.001Z</time></trkpt><trkpt lat="43.058446774567564" lon="11.82128448492428"><ele>507.0</ele><time>2026-05-02T13:52:16.001Z</time></trkpt><trkpt lat="43.05852675941595" lon="11.821347232584253"><ele>507.0</ele><time>2026-05-02T13:52:17.001Z</time></trkpt><trkpt lat="43.05860553503561" lon="11.821398679930406"><ele>505.0</ele><time>2026-05-02T13:52:18.001Z</time></trkpt><trkpt lat="43.05867156235189" lon="11.8214543755831"><ele>503.0</ele><time>2026-05-02T13:52:19.001Z</time></trkpt><trkpt lat="43.05872025911271" lon="11.821532479328337"><ele>501.0</ele><time>2026-05-02T13:52:20.001Z</time></trkpt><trkpt lat="43.058735030661865" lon="11.821631730156016"><ele>499.0</ele><time>2026-05-02T13:52:21.001Z</time></trkpt><trkpt lat="43.0587129243055" lon="11.821732399986386"><ele>497.0</ele><time>2026-05-02T13:52:22.001Z</time></trkpt><trkpt lat="43.058662916704414" lon="11.821808146881217"><ele>495.0</ele><time>2026-05-02T13:52:23.001Z</time></trkpt><trkpt lat="43.058585554798974" lon="11.821869162949438"><ele>493.1666666666667</ele><time>2026-05-02T13:52:24.001Z</time></trkpt><trkpt lat="43.05849290983889" lon="11.821910847115971"><ele>491.33333333333337</ele><time>2026-05-02T13:52:25.001Z</time></trkpt><trkpt lat="43.05839517862111" lon="11.8219307986587"><ele>489.5</ele><time>2026-05-02T13:52:26.001Z</time></trkpt><trkpt lat="43.05831724566556" lon="11.821961730867029"><ele>487.6666666666667</ele><time>2026-05-02T13:52:27.001Z</time></trkpt><trkpt lat="43.05825220801429" lon="11.822013208151853"><ele>485.83333333333337</ele><time>2026-05-02T13:52:28.001Z</time></trkpt><trkpt lat="43.058195210015" lon="11.8220843565709"><ele>484.0</ele><time>2026-05-02T13:52:29.001Z</time></trkpt><trkpt lat="43.05815487068657" lon="11.82217535842704"><ele>484.00000000000006</ele><time>2026-05-02T13:52:30.001Z</time></trkpt><trkpt lat="43.058138121633" lon="11.82228314243359"><ele>484.0</ele><time>2026-05-02T13:52:31.001Z</time></trkpt><trkpt lat="43.05814184965558" lon="11.822390013633084"><ele>484.0</ele><time>2026-05-02T13:52:32.001Z</time></trkpt><trkpt lat="43.05817319385138" lon="11.822483457016205"><ele>484.0</ele><time>2026-05-02T13:52:33.001Z</time></trkpt><trkpt lat="43.058229022319054" lon="11.822565381892085"><ele>484.00000000000006</ele><time>2026-05-02T13:52:34.001Z</time></trkpt><trkpt lat="43.05830908246786" lon="11.8226254696424"><ele>484.0</ele><time>2026-05-02T13:52:35.001Z</time></trkpt><trkpt lat="43.058379688165154" lon="11.822672340218695"><ele>482.4</ele><time>2026-05-02T13:52:36.001Z</time></trkpt><trkpt lat="43.05844448002511" lon="11.822720046430668"><ele>480.79999999999995</ele><time>2026-05-02T13:52:37.001Z</time></trkpt><trkpt lat="43.05850137775508" lon="11.822768505649123"><ele>479.20000000000005</ele><time>2026-05-02T13:52:38.001Z</time></trkpt><trkpt lat="43.05858664494796" lon="11.82289113565392"><ele>477.6</ele><time>2026-05-02T13:52:40.001Z</time></trkpt><trkpt lat="43.0586034603436" lon="11.823048045291527"><ele>476.0</ele><time>2026-05-02T13:52:42.001Z</time></trkpt><trkpt lat="43.0585158328672" lon="11.823147744262245"><ele>475.99999999999994</ele><time>2026-05-02T13:52:44Z</time></trkpt><trkpt lat="43.058422794262114" lon="11.823179240429814"><ele>476.0</ele><time>2026-05-02T13:52:45Z</time></trkpt><trkpt lat="43.05833456685337" lon="11.823185595269873"><ele>476.0</ele><time>2026-05-02T13:52:46Z</time></trkpt><trkpt lat="43.05825568577554" lon="11.82319153599321"><ele>476.0</ele><time>2026-05-02T13:52:47Z</time></trkpt><trkpt lat="43.058172312521464" lon="11.823204124908978"><ele>475.99999999999994</ele><time>2026-05-02T13:52:48Z</time></trkpt><trkpt lat="43.058089195314125" lon="11.823238928849303"><ele>476.0</ele><time>2026-05-02T13:52:49Z</time></trkpt><trkpt lat="43.0580104291702" lon="11.823304811477454"><ele>474.3333333333333</ele><time>2026-05-02T13:52:50Z</time></trkpt><trkpt lat="43.05795247666032" lon="11.823395172527963"><ele>472.66666666666663</ele><time>2026-05-02T13:52:51Z</time></trkpt><trkpt lat="43.05791855140223" lon="11.823497389591537"><ele>471.0</ele><time>2026-05-02T13:52:52Z</time></trkpt><trkpt lat="43.057882314826834" lon="11.82359102054966"><ele>469.33333333333337</ele><time>2026-05-02T13:52:53Z</time></trkpt><trkpt lat="43.0578585077904" lon="11.823687853727849"><ele>467.6666666666667</ele><time>2026-05-02T13:52:54Z</time></trkpt><trkpt lat="43.057851874857604" lon="11.823780332440037"><ele>466.0</ele><time>2026-05-02T13:52:55Z</time></trkpt><trkpt lat="43.057875163604" lon="11.82386571330198"><ele>464.6666666666667</ele><time>2026-05-02T13:52:56Z</time></trkpt><trkpt lat="43.05792697305942" lon="11.823937405050843"><ele>463.33333333333337</ele><time>2026-05-02T13:52:57Z</time></trkpt><trkpt lat="43.05799358169156" lon="11.823981694044479"><ele>462.0</ele><time>2026-05-02T13:52:58Z</time></trkpt><trkpt lat="43.05806779636397" lon="11.824011549214013"><ele>460.66666666666663</ele><time>2026-05-02T13:52:59Z</time></trkpt><trkpt lat="43.05813816345491" lon="11.824056431235645"><ele>459.3333333333333</ele><time>2026-05-02T13:53:00Z</time></trkpt><trkpt lat="43.05819643461392" lon="11.82412766073722"><ele>458.0</ele><time>2026-05-02T13:53:01Z</time></trkpt><trkpt lat="43.05823336205633" lon="11.824219360598274"><ele>456.99999999999994</ele><time>2026-05-02T13:53:02Z</time></trkpt><trkpt lat="43.05824888417855" lon="11.824325379341472"><ele>456.0</ele><time>2026-05-02T13:53:03Z</time></trkpt><trkpt lat="43.05824841447307" lon="11.824427294393484"><ele>455.0</ele><time>2026-05-02T13:53:04Z</time></trkpt><trkpt lat="43.05823907583939" lon="11.824535984758686"><ele>454.0</ele><time>2026-05-02T13:53:05Z</time></trkpt><trkpt lat="43.05822904745489" lon="11.824636531115612"><ele>452.99999999999994</ele><time>2026-05-02T13:53:06Z</time></trkpt><trkpt lat="43.05821746634796" lon="11.824745538491369"><ele>452.0</ele><time>2026-05-02T13:53:07Z</time></trkpt><trkpt lat="43.05819473096477" lon="11.824845890175745"><ele>451.99999999999994</ele><time>2026-05-02T13:53:08Z</time></trkpt><trkpt lat="43.0581591744319" lon="11.824939284438875"><ele>452.0</ele><time>2026-05-02T13:53:09Z</time></trkpt><trkpt lat="43.05810861145701" lon="11.825014689596362"><ele>452.0</ele><time>2026-05-02T13:53:10Z</time></trkpt><trkpt lat="43.05803677070343" lon="11.825047017718662"><ele>452.0</ele><time>2026-05-02T13:53:11Z</time></trkpt><trkpt lat="43.05795528288899" lon="11.825047233368135"><ele>451.99999999999994</ele><time>2026-05-02T13:53:12Z</time></trkpt><trkpt lat="43.057866502321524" lon="11.825019841402256"><ele>452.0</ele><time>2026-05-02T13:53:13Z</time></trkpt><trkpt lat="43.0577983373217" lon="11.824989222971091"><ele>452.0</ele><time>2026-05-02T13:53:14Z</time></trkpt><trkpt lat="43.05772917626633" lon="11.824938733519117"><ele>452.0</ele><time>2026-05-02T13:53:15Z</time></trkpt><trkpt lat="43.057673969883474" lon="11.824878281780425"><ele>452.0</ele><time>2026-05-02T13:53:16Z</time></trkpt><trkpt lat="43.05762348431423" lon="11.824823542438455"><ele>452.0</ele><time>2026-05-02T13:53:17Z</time></trkpt><trkpt lat="43.057574760281035" lon="11.824768544073171"><ele>452.0</ele><time>2026-05-02T13:53:18Z</time></trkpt><trkpt lat="43.05752427845451" lon="11.824704272910816"><ele>452.0</ele><time>2026-05-02T13:53:19Z</time></trkpt><trkpt lat="43.05747903042272" lon="11.824632483808958"><ele>452.0</ele><time>2026-05-02T13:53:20Z</time></trkpt><trkpt lat="43.05743402047965" lon="11.824551102917596"><ele>451.99999999999994</ele><time>2026-05-02T13:53:21Z</time></trkpt><trkpt lat="43.05739732915613" lon="11.824479998389721"><ele>452.0</ele><time>2026-05-02T13:53:22Z</time></trkpt><trkpt lat="43.05736101070437" lon="11.824402217704094"><ele>452.0</ele><time>2026-05-02T13:53:23Z</time></trkpt><trkpt lat="43.057293959889655" lon="11.82425861719341"><ele>452.0</ele><time>2026-05-02T13:53:25Z</time></trkpt><trkpt lat="43.05726105871845" lon="11.824183533026824"><ele>451.99999999999994</ele><time>2026-05-02T13:53:26Z</time></trkpt><trkpt lat="43.057205153121274" lon="11.824057483953482"><ele>452.0</ele><time>2026-05-02T13:53:28Z</time></trkpt><trkpt lat="43.05714991929919" lon="11.823948670735895"><ele>452.0</ele><time>2026-05-02T13:53:30Z</time></trkpt><trkpt lat="43.05712069873974" lon="11.823842893810763"><ele>452.00000000000006</ele><time>2026-05-02T13:53:31Z</time></trkpt><trkpt lat="43.05704948063696" lon="11.823674373476685"><ele>452.00000000000006</ele><time>2026-05-02T13:53:33.001Z</time></trkpt><trkpt lat="43.05699914888018" lon="11.823560703490186"><ele>452.0</ele><time>2026-05-02T13:53:34.001Z</time></trkpt><trkpt lat="43.05693860161556" lon="11.823429142408028"><ele>452.0</ele><time>2026-05-02T13:53:35.001Z</time></trkpt><trkpt lat="43.05688178827827" lon="11.823293257042561"><ele>452.75</ele><time>2026-05-02T13:53:36.001Z</time></trkpt><trkpt lat="43.05682414579544" lon="11.823154629103351"><ele>453.5</ele><time>2026-05-02T13:53:37.001Z</time></trkpt><trkpt lat="43.0567699543039" lon="11.823014754780448"><ele>454.25</ele><time>2026-05-02T13:53:38.001Z</time></trkpt><trkpt lat="43.05671517593451" lon="11.822872448742025"><ele>455.0</ele><time>2026-05-02T13:53:39.001Z</time></trkpt><trkpt lat="43.056658536535444" lon="11.822730871687565"><ele>456.5</ele><time>2026-05-02T13:53:40.001Z</time></trkpt><trkpt lat="43.0566199017773" lon="11.822576684425513"><ele>458.0</ele><time>2026-05-02T13:53:41.001Z</time></trkpt><trkpt lat="43.05655741098677" lon="11.822440171532369"><ele>459.5</ele><time>2026-05-02T13:53:42.001Z</time></trkpt><trkpt lat="43.05650550260108" lon="11.82230161226865"><ele>461.0</ele><time>2026-05-02T13:53:43.001Z</time></trkpt><trkpt lat="43.05645749521193" lon="11.822175427396925"><ele>460.99999999999994</ele><time>2026-05-02T13:53:44.001Z</time></trkpt><trkpt lat="43.05640272087999" lon="11.822072691267243"><ele>461.0</ele><time>2026-05-02T13:53:45.001Z</time></trkpt><trkpt lat="43.05633667650752" lon="11.821994741560603"><ele>461.0</ele><time>2026-05-02T13:53:46.001Z</time></trkpt><trkpt lat="43.0562651636419" lon="11.821952797858094"><ele>461.0</ele><time>2026-05-02T13:53:47.001Z</time></trkpt><trkpt lat="43.056174275503565" lon="11.82195510256693"><ele>460.99999999999994</ele><time>2026-05-02T13:53:48.001Z</time></trkpt><trkpt lat="43.056093930929066" lon="11.821991577802475"><ele>461.0</ele><time>2026-05-02T13:53:49.001Z</time></trkpt><trkpt lat="43.05601955624079" lon="11.822068918004955"><ele>461.0</ele><time>2026-05-02T13:53:50.001Z</time></trkpt><trkpt lat="43.05594418846194" lon="11.822152176459559"><ele>461.0</ele><time>2026-05-02T13:53:51.001Z</time></trkpt><trkpt lat="43.055861654921124" lon="11.822209739346619"><ele>461.0</ele><time>2026-05-02T13:53:52.001Z</time></trkpt><trkpt lat="43.05577292363941" lon="11.822280400523375"><ele>461.0</ele><time>2026-05-02T13:53:53.001Z</time></trkpt><trkpt lat="43.05568135645887" lon="11.822351344694985"><ele>461.0</ele><time>2026-05-02T13:53:54.001Z</time></trkpt><trkpt lat="43.05559197236554" lon="11.822423608900682"><ele>462.6</ele><time>2026-05-02T13:53:55.001Z</time></trkpt><trkpt lat="43.05550069408321" lon="11.822471063390894"><ele>464.20000000000005</ele><time>2026-05-02T13:53:56.001Z</time></trkpt><trkpt lat="43.05540958209931" lon="11.822550064025936"><ele>465.79999999999995</ele><time>2026-05-02T13:53:57.001Z</time></trkpt><trkpt lat="43.05531976460196" lon="11.822630457223315"><ele>467.4</ele><time>2026-05-02T13:53:58.001Z</time></trkpt><trkpt lat="43.0552234533175" lon="11.822703363355762"><ele>469.0</ele><time>2026-05-02T13:53:59.001Z</time></trkpt><trkpt lat="43.055126363476475" lon="11.822780010753103"><ele>467.2</ele><time>2026-05-02T13:54:00.001Z</time></trkpt><trkpt lat="43.055032221339104" lon="11.822854718005711"><ele>465.4</ele><time>2026-05-02T13:54:01.001Z</time></trkpt><trkpt lat="43.05493688185636" lon="11.822925079707678"><ele>463.6</ele><time>2026-05-02T13:54:02.001Z</time></trkpt><trkpt lat="43.05483726040411" lon="11.822997347798589"><ele>461.8</ele><time>2026-05-02T13:54:03.001Z</time></trkpt><trkpt lat="43.05474726701889" lon="11.823049861874717"><ele>460.0</ele><time>2026-05-02T13:54:04.001Z</time></trkpt><trkpt lat="43.054644414501404" lon="11.823102191813083"><ele>460.0</ele><time>2026-05-02T13:54:05.001Z</time></trkpt><trkpt lat="43.0545451039111" lon="11.823146063476191"><ele>460.0</ele><time>2026-05-02T13:54:06.001Z</time></trkpt><trkpt lat="43.05443863877964" lon="11.823180489534378"><ele>460.0</ele><time>2026-05-02T13:54:07.001Z</time></trkpt><trkpt lat="43.05432892287852" lon="11.823201661880695"><ele>460.0</ele><time>2026-05-02T13:54:08.001Z</time></trkpt><trkpt lat="43.054232805312736" lon="11.823188241681555"><ele>460.0</ele><time>2026-05-02T13:54:09.001Z</time></trkpt><trkpt lat="43.05412911902778" lon="11.823193607017545"><ele>458.8</ele><time>2026-05-02T13:54:10.001Z</time></trkpt><trkpt lat="43.0540141487992" lon="11.823198005938313"><ele>457.6</ele><time>2026-05-02T13:54:11.001Z</time></trkpt><trkpt lat="43.05390246108031" lon="11.823185012870377"><ele>456.4</ele><time>2026-05-02T13:54:12.001Z</time></trkpt><trkpt lat="43.05379135994795" lon="11.823175775604087"><ele>455.2</ele><time>2026-05-02T13:54:13.001Z</time></trkpt><trkpt lat="43.05368886206254" lon="11.823156533544127"><ele>454.0</ele><time>2026-05-02T13:54:14.001Z</time></trkpt><trkpt lat="43.05358722614931" lon="11.823122905858535"><ele>454.0</ele><time>2026-05-02T13:54:15.001Z</time></trkpt><trkpt lat="43.053489509242105" lon="11.823071312677275"><ele>454.0</ele><time>2026-05-02T13:54:16.001Z</time></trkpt><trkpt lat="43.05340544666345" lon="11.8229932691028"><ele>454.0</ele><time>2026-05-02T13:54:17.001Z</time></trkpt><trkpt lat="43.05333860231718" lon="11.822871257714166"><ele>454.0</ele><time>2026-05-02T13:54:18.001Z</time></trkpt><trkpt lat="43.053265195113276" lon="11.822762591424503"><ele>454.0</ele><time>2026-05-02T13:54:19.001Z</time></trkpt><trkpt lat="43.05319289358595" lon="11.822659395196071"><ele>454.0</ele><time>2026-05-02T13:54:20.001Z</time></trkpt><trkpt lat="43.053115191235094" lon="11.822562714616453"><ele>454.0</ele><time>2026-05-02T13:54:21.001Z</time></trkpt><trkpt lat="43.05303889517821" lon="11.822464868856398"><ele>454.0</ele><time>2026-05-02T13:54:22.001Z</time></trkpt><trkpt lat="43.05296448262119" lon="11.822361707438002"><ele>454.0</ele><time>2026-05-02T13:54:23.001Z</time></trkpt><trkpt lat="43.05288593950591" lon="11.822267027979048"><ele>454.0</ele><time>2026-05-02T13:54:24.001Z</time></trkpt><trkpt lat="43.052805752235564" lon="11.822173245427459"><ele>454.0</ele><time>2026-05-02T13:54:25.001Z</time></trkpt><trkpt lat="43.05272157669189" lon="11.822074032069814"><ele>454.0</ele><time>2026-05-02T13:54:26.001Z</time></trkpt><trkpt lat="43.05264536426648" lon="11.821975902121704"><ele>454.0</ele><time>2026-05-02T13:54:27.001Z</time></trkpt><trkpt lat="43.05256156921984" lon="11.821881917588383"><ele>454.0</ele><time>2026-05-02T13:54:28.001Z</time></trkpt><trkpt lat="43.05248383653064" lon="11.821791010122771"><ele>454.0</ele><time>2026-05-02T13:54:29.001Z</time></trkpt><trkpt lat="43.052399710300776" lon="11.821705328843974"><ele>454.25</ele><time>2026-05-02T13:54:30.001Z</time></trkpt><trkpt lat="43.05231430646446" lon="11.821600156115064"><ele>454.5</ele><time>2026-05-02T13:54:31.001Z</time></trkpt><trkpt lat="43.05221642866681" lon="11.821497031692568"><ele>454.75</ele><time>2026-05-02T13:54:32.001Z</time></trkpt><trkpt lat="43.05211607141124" lon="11.821396657342232"><ele>455.0</ele><time>2026-05-02T13:54:33.001Z</time></trkpt><trkpt lat="43.05200514446141" lon="11.821283612565768"><ele>455.0</ele><time>2026-05-02T13:54:34.001Z</time></trkpt><trkpt lat="43.051902629549275" lon="11.821172760376966"><ele>455.0</ele><time>2026-05-02T13:54:35.001Z</time></trkpt><trkpt lat="43.05181006880988" lon="11.82108112632309"><ele>455.0</ele><time>2026-05-02T13:54:36.001Z</time></trkpt><trkpt lat="43.05172900117739" lon="11.821001919095767"><ele>455.0</ele><time>2026-05-02T13:54:37.001Z</time></trkpt><trkpt lat="43.051653110300364" lon="11.820930075666666"><ele>455.0</ele><time>2026-05-02T13:54:38.001Z</time></trkpt><trkpt lat="43.05158638985249" lon="11.82087441267472"><ele>456.2</ele><time>2026-05-02T13:54:39.001Z</time></trkpt><trkpt lat="43.05152922522952" lon="11.820837937154328"><ele>457.4</ele><time>2026-05-02T13:54:40.001Z</time></trkpt><trkpt lat="43.05141604506567" lon="11.820767696449344"><ele>458.6</ele><time>2026-05-02T13:54:42.001Z</time></trkpt><trkpt lat="43.05133730412181" lon="11.820699486294878"><ele>459.8</ele><time>2026-05-02T13:54:43.001Z</time></trkpt><trkpt lat="43.05125769836729" lon="11.820651668318597"><ele>461.0</ele><time>2026-05-02T13:54:44.001Z</time></trkpt><trkpt lat="43.05113348775967" lon="11.820585849950383"><ele>461.0</ele><time>2026-05-02T13:54:46.001Z</time></trkpt><trkpt lat="43.05103291493583" lon="11.820537033124678"><ele>461.0</ele><time>2026-05-02T13:54:47.001Z</time></trkpt><trkpt lat="43.05091779099246" lon="11.820485207369561"><ele>461.0</ele><time>2026-05-02T13:54:48.001Z</time></trkpt><trkpt lat="43.05081726412244" lon="11.820440304926395"><ele>461.0</ele><time>2026-05-02T13:54:49.001Z</time></trkpt><trkpt lat="43.05074532407674" lon="11.820425375513853"><ele>461.0</ele><time>2026-05-02T13:54:50Z</time></trkpt><trkpt lat="43.05062961383544" lon="11.820366412512099"><ele>459.4</ele><time>2026-05-02T13:54:52Z</time></trkpt><trkpt lat="43.05052582672225" lon="11.820321598365572"><ele>457.8</ele><time>2026-05-02T13:54:54Z</time></trkpt><trkpt lat="43.050419192631786" lon="11.8202761032065"><ele>456.19999999999993</ele><time>2026-05-02T13:54:56Z</time></trkpt><trkpt lat="43.05030470706442" lon="11.820222064200513"><ele>454.59999999999997</ele><time>2026-05-02T13:54:58Z</time></trkpt><trkpt lat="43.05022877530128" lon="11.820191272907598"><ele>453.0</ele><time>2026-05-02T13:54:59Z</time></trkpt><trkpt lat="43.050162625881015" lon="11.820163473729131"><ele>453.0</ele><time>2026-05-02T13:55:00Z</time></trkpt><trkpt lat="43.05009118182485" lon="11.820126534180826"><ele>452.99999999999994</ele><time>2026-05-02T13:55:01Z</time></trkpt><trkpt lat="43.050018311298125" lon="11.820078911663137"><ele>452.99999999999994</ele><time>2026-05-02T13:55:02Z</time></trkpt><trkpt lat="43.04994341974035" lon="11.820025625468672"><ele>453.0</ele><time>2026-05-02T13:55:03Z</time></trkpt><trkpt lat="43.04985799305101" lon="11.819972547511497"><ele>453.0</ele><time>2026-05-02T13:55:04Z</time></trkpt><trkpt lat="43.04975451369784" lon="11.81986679986485"><ele>453.0</ele><time>2026-05-02T13:55:05Z</time></trkpt><trkpt lat="43.04963650006641" lon="11.819773897981358"><ele>453.0</ele><time>2026-05-02T13:55:06Z</time></trkpt><trkpt lat="43.04952863728922" lon="11.819698399503535"><ele>453.0</ele><time>2026-05-02T13:55:07Z</time></trkpt><trkpt lat="43.0494333522659" lon="11.819649827490444"><ele>453.0</ele><time>2026-05-02T13:55:08Z</time></trkpt><trkpt lat="43.0493493449701" lon="11.819591509808955"><ele>453.0</ele><time>2026-05-02T13:55:09Z</time></trkpt><trkpt lat="43.049272292920136" lon="11.819527069737306"><ele>452.99999999999994</ele><time>2026-05-02T13:55:10Z</time></trkpt><trkpt lat="43.04918530618052" lon="11.819479341504314"><ele>452.99999999999994</ele><time>2026-05-02T13:55:11Z</time></trkpt><trkpt lat="43.04909824063672" lon="11.819411407816634"><ele>453.0</ele><time>2026-05-02T13:55:12Z</time></trkpt><trkpt lat="43.04899915395075" lon="11.81935159130602"><ele>453.0</ele><time>2026-05-02T13:55:13Z</time></trkpt><trkpt lat="43.04889983877833" lon="11.819293121482904"><ele>453.0</ele><time>2026-05-02T13:55:14Z</time></trkpt><trkpt lat="43.04880562603039" lon="11.819241852275999"><ele>453.0</ele><time>2026-05-02T13:55:15Z</time></trkpt><trkpt lat="43.04871962716874" lon="11.819194405537116"><ele>453.0</ele><time>2026-05-02T13:55:16Z</time></trkpt><trkpt lat="43.04864323749503" lon="11.819149149669414"><ele>453.0</ele><time>2026-05-02T13:55:17Z</time></trkpt><trkpt lat="43.04857100548173" lon="11.81911142365321"><ele>453.0</ele><time>2026-05-02T13:55:18Z</time></trkpt><trkpt lat="43.04850072811535" lon="11.819075456218142"><ele>453.0</ele><time>2026-05-02T13:55:19Z</time></trkpt><trkpt lat="43.048439244066" lon="11.819022061317481"><ele>452.99999999999994</ele><time>2026-05-02T13:55:20Z</time></trkpt><trkpt lat="43.048372172985935" lon="11.819009179796263"><ele>453.0</ele><time>2026-05-02T13:55:21Z</time></trkpt><trkpt lat="43.04830683767335" lon="11.818974358248525"><ele>452.99999999999994</ele><time>2026-05-02T13:55:22Z</time></trkpt><trkpt lat="43.048246168121196" lon="11.81893852724936"><ele>452.99999999999994</ele><time>2026-05-02T13:55:23Z</time></trkpt><trkpt lat="43.04817712320304" lon="11.818902569995485"><ele>453.0</ele><time>2026-05-02T13:55:24Z</time></trkpt><trkpt lat="43.048104527934974" lon="11.818863378361627"><ele>452.99999999999994</ele><time>2026-05-02T13:55:25Z</time></trkpt><trkpt lat="43.048036449662554" lon="11.818824456436314"><ele>452.99999999999994</ele><time>2026-05-02T13:55:26Z</time></trkpt><trkpt lat="43.04796727646663" lon="11.818787656692662"><ele>452.5</ele><time>2026-05-02T13:55:27Z</time></trkpt><trkpt lat="43.04790079210417" lon="11.818750123961406"><ele>452.0</ele><time>2026-05-02T13:55:28Z</time></trkpt><trkpt lat="43.04783997993372" lon="11.81872051428159"><ele>451.5</ele><time>2026-05-02T13:55:29Z</time></trkpt><trkpt lat="43.04777553871886" lon="11.818685630088087"><ele>451.0</ele><time>2026-05-02T13:55:30Z</time></trkpt><trkpt lat="43.04771358956698" lon="11.818657374928547"><ele>450.5</ele><time>2026-05-02T13:55:31Z</time></trkpt><trkpt lat="43.04759146815475" lon="11.818629323225718"><ele>450.0</ele><time>2026-05-02T13:55:33Z</time></trkpt><trkpt lat="43.04752702774397" lon="11.818604822720756"><ele>450.00000000000006</ele><time>2026-05-02T13:55:34.001Z</time></trkpt><trkpt lat="43.04746817626596" lon="11.818563276018907"><ele>450.0</ele><time>2026-05-02T13:55:35.001Z</time></trkpt><trkpt lat="43.04741498147721" lon="11.818512479239551"><ele>450.00000000000006</ele><time>2026-05-02T13:55:36.001Z</time></trkpt><trkpt lat="43.047354640959355" lon="11.818460601299527"><ele>450.00000000000006</ele><time>2026-05-02T13:55:37.001Z</time></trkpt><trkpt lat="43.04729093960447" lon="11.81841261529655"><ele>450.0</ele><time>2026-05-02T13:55:38.001Z</time></trkpt><trkpt lat="43.04722352192753" lon="11.81835624764881"><ele>450.00000000000006</ele><time>2026-05-02T13:55:39.001Z</time></trkpt><trkpt lat="43.047143713741995" lon="11.81828500788116"><ele>450.00000000000006</ele><time>2026-05-02T13:55:40.001Z</time></trkpt><trkpt lat="43.047048473625466" lon="11.818203506811304"><ele>451.0</ele><time>2026-05-02T13:55:41.001Z</time></trkpt><trkpt lat="43.04694343032503" lon="11.81809961161095"><ele>452.0</ele><time>2026-05-02T13:55:42.001Z</time></trkpt><trkpt lat="43.04684007271742" lon="11.817957215400323"><ele>453.0</ele><time>2026-05-02T13:55:43.001Z</time></trkpt><trkpt lat="43.046738296298315" lon="11.817801239732566"><ele>454.0</ele><time>2026-05-02T13:55:44.001Z</time></trkpt><trkpt lat="43.04663682176071" lon="11.817656539945228"><ele>453.6</ele><time>2026-05-02T13:55:45.001Z</time></trkpt><trkpt lat="43.04654612524032" lon="11.817532466696948"><ele>453.2</ele><time>2026-05-02T13:55:46.001Z</time></trkpt><trkpt lat="43.04647252047981" lon="11.817427373678974"><ele>452.80000000000007</ele><time>2026-05-02T13:55:47.001Z</time></trkpt><trkpt lat="43.04641415037652" lon="11.817330387938286"><ele>452.40000000000003</ele><time>2026-05-02T13:55:48.001Z</time></trkpt><trkpt lat="43.04635641471765" lon="11.817224189763586"><ele>452.0</ele><time>2026-05-02T13:55:49.001Z</time></trkpt><trkpt lat="43.04628976960092" lon="11.817075060248651"><ele>452.0</ele><time>2026-05-02T13:55:50.001Z</time></trkpt><trkpt lat="43.04622791337206" lon="11.816920342071272"><ele>452.0</ele><time>2026-05-02T13:55:51.001Z</time></trkpt><trkpt lat="43.04617235452835" lon="11.816785775586368"><ele>452.0</ele><time>2026-05-02T13:55:52.001Z</time></trkpt><trkpt lat="43.046124390197235" lon="11.816654889668099"><ele>452.0</ele><time>2026-05-02T13:55:53.001Z</time></trkpt><trkpt lat="43.04607167352283" lon="11.816535292137667"><ele>454.3333333333333</ele><time>2026-05-02T13:55:54.001Z</time></trkpt><trkpt lat="43.046022186315014" lon="11.81642799743461"><ele>456.66666666666663</ele><time>2026-05-02T13:55:55.001Z</time></trkpt><trkpt lat="43.04597053951526" lon="11.816335328652658"><ele>459.0</ele><time>2026-05-02T13:55:56.001Z</time></trkpt><trkpt lat="43.04593362736587" lon="11.81624001311935"><ele>461.33333333333337</ele><time>2026-05-02T13:55:57.001Z</time></trkpt><trkpt lat="43.04588776119604" lon="11.816151658007053"><ele>463.6666666666667</ele><time>2026-05-02T13:55:58.001Z</time></trkpt><trkpt lat="43.045838843818885" lon="11.816056807344923"><ele>466.0</ele><time>2026-05-02T13:55:59.001Z</time></trkpt><trkpt lat="43.045796623840495" lon="11.81596682624574"><ele>466.50000000000006</ele><time>2026-05-02T13:56:00.001Z</time></trkpt><trkpt lat="43.04575094264753" lon="11.815885730139705"><ele>467.0</ele><time>2026-05-02T13:56:01.001Z</time></trkpt><trkpt lat="43.04570501006134" lon="11.815802870687"><ele>467.5</ele><time>2026-05-02T13:56:02.001Z</time></trkpt><trkpt lat="43.04564801871889" lon="11.815706470527333"><ele>468.0</ele><time>2026-05-02T13:56:04.001Z</time></trkpt><trkpt lat="43.04558869232669" lon="11.815617205912476"><ele>468.50000000000006</ele><time>2026-05-02T13:56:07.001Z</time></trkpt><trkpt lat="43.045519598444585" lon="11.815501126029114"><ele>469.0</ele><time>2026-05-02T13:56:09.001Z</time></trkpt><trkpt lat="43.04548235120653" lon="11.815420573112851"><ele>469.00000000000006</ele><time>2026-05-02T13:56:10.001Z</time></trkpt><trkpt lat="43.045439745027004" lon="11.815339018927606"><ele>469.0</ele><time>2026-05-02T13:56:11.001Z</time></trkpt><trkpt lat="43.045395871054275" lon="11.81525916035838"><ele>469.0</ele><time>2026-05-02T13:56:12.001Z</time></trkpt><trkpt lat="43.045349701361936" lon="11.815183719821697"><ele>469.0</ele><time>2026-05-02T13:56:13.001Z</time></trkpt><trkpt lat="43.04529713676521" lon="11.8151033890756"><ele>469.00000000000006</ele><time>2026-05-02T13:56:14.001Z</time></trkpt><trkpt lat="43.04524690244497" lon="11.815025704089049"><ele>469.0</ele><time>2026-05-02T13:56:15.001Z</time></trkpt><trkpt lat="43.04519279913102" lon="11.814941353460569"><ele>468.7142857142857</ele><time>2026-05-02T13:56:16.001Z</time></trkpt><trkpt lat="43.04514184421116" lon="11.81486060942278"><ele>468.42857142857144</ele><time>2026-05-02T13:56:17.001Z</time></trkpt><trkpt lat="43.04509507047623" lon="11.814786545799192"><ele>468.1428571428571</ele><time>2026-05-02T13:56:18.001Z</time></trkpt><trkpt lat="43.04504764604914" lon="11.814710537377232"><ele>467.85714285714283</ele><time>2026-05-02T13:56:19.001Z</time></trkpt><trkpt lat="43.04499726110692" lon="11.814637235460186"><ele>467.57142857142856</ele><time>2026-05-02T13:56:20.001Z</time></trkpt><trkpt lat="43.04495263770975" lon="11.81456780089447"><ele>467.2857142857142</ele><time>2026-05-02T13:56:21.001Z</time></trkpt><trkpt lat="43.044906044995685" lon="11.814502396635799"><ele>466.99999999999994</ele><time>2026-05-02T13:56:22.001Z</time></trkpt><trkpt lat="43.04482739008178" lon="11.814388449411112"><ele>467.0</ele><time>2026-05-02T13:56:24.001Z</time></trkpt><trkpt lat="43.04476079355175" lon="11.81427254569214"><ele>467.00000000000006</ele><time>2026-05-02T13:56:26.001Z</time></trkpt><trkpt lat="43.0446695245227" lon="11.814192318132019"><ele>467.00000000000006</ele><time>2026-05-02T13:56:28.001Z</time></trkpt><trkpt lat="43.04456175767201" lon="11.814238543476547"><ele>467.0</ele><time>2026-05-02T13:56:30.001Z</time></trkpt><trkpt lat="43.044499345262366" lon="11.814285627167072"><ele>467.0</ele><time>2026-05-02T13:56:31.001Z</time></trkpt><trkpt lat="43.04442589966842" lon="11.814338576530263"><ele>466.99999999999994</ele><time>2026-05-02T13:56:32.001Z</time></trkpt><trkpt lat="43.044359061761526" lon="11.81438123665386"><ele>467.0</ele><time>2026-05-02T13:56:33.001Z</time></trkpt><trkpt lat="43.04429738943211" lon="11.814421924595024"><ele>467.0</ele><time>2026-05-02T13:56:34.001Z</time></trkpt><trkpt lat="43.044180735462504" lon="11.814493395108492"><ele>467.0</ele><time>2026-05-02T13:56:36.001Z</time></trkpt><trkpt lat="43.04411968460783" lon="11.814527773268605"><ele>466.99999999999994</ele><time>2026-05-02T13:56:37.001Z</time></trkpt><trkpt lat="43.04405741818095" lon="11.814570863044143"><ele>467.0</ele><time>2026-05-02T13:56:38.001Z</time></trkpt><trkpt lat="43.044000906545904" lon="11.814615245252494"><ele>466.8333333333333</ele><time>2026-05-02T13:56:39.001Z</time></trkpt><trkpt lat="43.04393701862066" lon="11.814657866822023"><ele>466.66666666666663</ele><time>2026-05-02T13:56:40.001Z</time></trkpt><trkpt lat="43.04387939302172" lon="11.814705918062968"><ele>466.5</ele><time>2026-05-02T13:56:41.001Z</time></trkpt><trkpt lat="43.043813729361176" lon="11.814751170045195"><ele>466.33333333333337</ele><time>2026-05-02T13:56:42.001Z</time></trkpt><trkpt lat="43.04374885042745" lon="11.814801863944794"><ele>466.1666666666667</ele><time>2026-05-02T13:56:43.001Z</time></trkpt><trkpt lat="43.04368085506723" lon="11.81484995686166"><ele>466.0</ele><time>2026-05-02T13:56:44.001Z</time></trkpt><trkpt lat="43.04359282323858" lon="11.814908035745916"><ele>466.0</ele><time>2026-05-02T13:56:45.001Z</time></trkpt><trkpt lat="43.0435085599308" lon="11.814968871282352"><ele>466.0</ele><time>2026-05-02T13:56:46.001Z</time></trkpt><trkpt lat="43.043420848987466" lon="11.815030558356527"><ele>466.0</ele><time>2026-05-02T13:56:47.001Z</time></trkpt><trkpt lat="43.0433282178997" lon="11.815093040721274"><ele>466.0</ele><time>2026-05-02T13:56:48.001Z</time></trkpt><trkpt lat="43.043248907598226" lon="11.81515030601296"><ele>466.0</ele><time>2026-05-02T13:56:49.001Z</time></trkpt><trkpt lat="43.04317284947843" lon="11.815198444976375"><ele>464.0</ele><time>2026-05-02T13:56:50.001Z</time></trkpt><trkpt lat="43.04308808561529" lon="11.815257023937926"><ele>462.0</ele><time>2026-05-02T13:56:51.001Z</time></trkpt><trkpt lat="43.04299321029158" lon="11.815325206009437"><ele>460.0</ele><time>2026-05-02T13:56:52.001Z</time></trkpt><trkpt lat="43.042878170165885" lon="11.815399555233208"><ele>458.0</ele><time>2026-05-02T13:56:53.001Z</time></trkpt><trkpt lat="43.042753349709805" lon="11.815477776989939"><ele>458.0</ele><time>2026-05-02T13:56:54.001Z</time></trkpt><trkpt lat="43.04262733915719" lon="11.81555530392821"><ele>458.0</ele><time>2026-05-02T13:56:55.001Z</time></trkpt><trkpt lat="43.042508226104225" lon="11.815636202049483"><ele>458.0</ele><time>2026-05-02T13:56:56Z</time></trkpt><trkpt lat="43.04239129960575" lon="11.815716379345046"><ele>458.0</ele><time>2026-05-02T13:56:57Z</time></trkpt><trkpt lat="43.04227249727842" lon="11.815796746955737"><ele>459.25</ele><time>2026-05-02T13:56:58.001Z</time></trkpt><trkpt lat="43.04215121902005" lon="11.815879737255734"><ele>460.5</ele><time>2026-05-02T13:56:59Z</time></trkpt><trkpt lat="43.04203145064915" lon="11.815958468307663"><ele>461.75</ele><time>2026-05-02T13:57:00Z</time></trkpt><trkpt lat="43.041914324043056" lon="11.816037010335762"><ele>463.0</ele><time>2026-05-02T13:57:01Z</time></trkpt><trkpt lat="43.04180236462882" lon="11.816109894103327"><ele>460.59999999999997</ele><time>2026-05-02T13:57:02Z</time></trkpt><trkpt lat="43.04170675006671" lon="11.81617780533226"><ele>458.19999999999993</ele><time>2026-05-02T13:57:03Z</time></trkpt><trkpt lat="43.04161446971155" lon="11.816242158525428"><ele>455.8</ele><time>2026-05-02T13:57:04Z</time></trkpt><trkpt lat="43.04153743602937" lon="11.81629907810389"><ele>453.4</ele><time>2026-05-02T13:57:05Z</time></trkpt><trkpt lat="43.04147855572186" lon="11.816359273578735"><ele>451.0</ele><time>2026-05-02T13:57:06Z</time></trkpt><trkpt lat="43.041433841260826" lon="11.816524097296663"><ele>451.0</ele><time>2026-05-02T13:57:08Z</time></trkpt><trkpt lat="43.04145600761296" lon="11.816618601973376"><ele>451.0</ele><time>2026-05-02T13:57:09Z</time></trkpt><trkpt lat="43.041502342421325" lon="11.81673925862399"><ele>451.0</ele><time>2026-05-02T13:57:10Z</time></trkpt><trkpt lat="43.0415605228581" lon="11.816886076906686"><ele>451.0</ele><time>2026-05-02T13:57:11Z</time></trkpt><trkpt lat="43.04162579004459" lon="11.817054757097178"><ele>451.0</ele><time>2026-05-02T13:57:12Z</time></trkpt><trkpt lat="43.04169215562745" lon="11.81722322112501"><ele>449.0</ele><time>2026-05-02T13:57:13Z</time></trkpt><trkpt lat="43.041757522443184" lon="11.817403721776133"><ele>447.0</ele><time>2026-05-02T13:57:14Z</time></trkpt><trkpt lat="43.04182396851479" lon="11.817583120936224"><ele>445.0</ele><time>2026-05-02T13:57:15Z</time></trkpt><trkpt lat="43.04188553233316" lon="11.817748990910959"><ele>443.0</ele><time>2026-05-02T13:57:16Z</time></trkpt><trkpt lat="43.04194272627351" lon="11.817903782693724"><ele>442.2</ele><time>2026-05-02T13:57:17Z</time></trkpt><trkpt lat="43.04199075813151" lon="11.818048470178676"><ele>441.4</ele><time>2026-05-02T13:57:18Z</time></trkpt><trkpt lat="43.042022877851544" lon="11.818193371843149"><ele>440.59999999999997</ele><time>2026-05-02T13:57:19Z</time></trkpt><trkpt lat="43.04202610106401" lon="11.818337093871355"><ele>439.79999999999995</ele><time>2026-05-02T13:57:20Z</time></trkpt><trkpt lat="43.04200421491549" lon="11.81848143893953"><ele>439.0</ele><time>2026-05-02T13:57:21Z</time></trkpt><trkpt lat="43.042021497043415" lon="11.818619259424919"><ele>438.2</ele><time>2026-05-02T13:57:22Z</time></trkpt><trkpt lat="43.041916717242835" lon="11.818748705357159"><ele>437.4</ele><time>2026-05-02T13:57:23Z</time></trkpt><trkpt lat="43.041859322579676" lon="11.818851659080133"><ele>436.6</ele><time>2026-05-02T13:57:24Z</time></trkpt><trkpt lat="43.041796642207096" lon="11.818939835044645"><ele>435.8</ele><time>2026-05-02T13:57:25.001Z</time></trkpt><trkpt lat="43.04173338888571" lon="11.819008425128143"><ele>435.0</ele><time>2026-05-02T13:57:26.001Z</time></trkpt><trkpt lat="43.04164006789635" lon="11.819080369222059"><ele>436.00000000000006</ele><time>2026-05-02T13:57:28.001Z</time></trkpt><trkpt lat="43.04157081852698" lon="11.819133879845289"><ele>437.0</ele><time>2026-05-02T13:57:30.001Z</time></trkpt><trkpt lat="43.04149869645686" lon="11.819152432614048"><ele>438.0</ele><time>2026-05-02T13:57:31.001Z</time></trkpt><trkpt lat="43.04143402861792" lon="11.819201235112192"><ele>439.0</ele><time>2026-05-02T13:57:32.001Z</time></trkpt><trkpt lat="43.04136512200493" lon="11.819227035648986"><ele>440.0</ele><time>2026-05-02T13:57:33.001Z</time></trkpt><trkpt lat="43.04130057435711" lon="11.819243605581095"><ele>441.00000000000006</ele><time>2026-05-02T13:57:34.001Z</time></trkpt><trkpt lat="43.04122800185495" lon="11.819256614706708"><ele>442.0</ele><time>2026-05-02T13:57:35.001Z</time></trkpt><trkpt lat="43.041109668521756" lon="11.819268504512959"><ele>442.0</ele><time>2026-05-02T13:57:37.001Z</time></trkpt><trkpt lat="43.041036880724924" lon="11.819268464468566"><ele>442.00000000000006</ele><time>2026-05-02T13:57:38.001Z</time></trkpt><trkpt lat="43.040960963816644" lon="11.819260474216202"><ele>442.00000000000006</ele><time>2026-05-02T13:57:39.001Z</time></trkpt><trkpt lat="43.04087650745113" lon="11.819249136134593"><ele>442.0</ele><time>2026-05-02T13:57:40.001Z</time></trkpt><trkpt lat="43.0407734857048" lon="11.819198693425305"><ele>442.0</ele><time>2026-05-02T13:57:41.001Z</time></trkpt><trkpt lat="43.04065393761809" lon="11.819142925207133"><ele>444.25</ele><time>2026-05-02T13:57:42.001Z</time></trkpt><trkpt lat="43.040528800653306" lon="11.819077543562873"><ele>446.5</ele><time>2026-05-02T13:57:43.001Z</time></trkpt><trkpt lat="43.04039911119442" lon="11.818998621352403"><ele>448.75</ele><time>2026-05-02T13:57:44.001Z</time></trkpt><trkpt lat="43.0402485474685" lon="11.818920992581667"><ele>451.0</ele><time>2026-05-02T13:57:45.001Z</time></trkpt><trkpt lat="43.04010245313964" lon="11.818826038091535"><ele>452.5</ele><time>2026-05-02T13:57:46.001Z</time></trkpt><trkpt lat="43.039959605545576" lon="11.818731962019484"><ele>454.0</ele><time>2026-05-02T13:57:47.001Z</time></trkpt><trkpt lat="43.03983327973319" lon="11.818657209224767"><ele>455.5</ele><time>2026-05-02T13:57:48.001Z</time></trkpt><trkpt lat="43.03972757946393" lon="11.818588218806347"><ele>457.0</ele><time>2026-05-02T13:57:49.001Z</time></trkpt><trkpt lat="43.03963423966851" lon="11.818532747771755"><ele>457.00000000000006</ele><time>2026-05-02T13:57:50.001Z</time></trkpt><trkpt lat="43.03954866010829" lon="11.81848712430713"><ele>457.0</ele><time>2026-05-02T13:57:51.001Z</time></trkpt><trkpt lat="43.03947484925959" lon="11.818448147890393"><ele>457.0</ele><time>2026-05-02T13:57:52.001Z</time></trkpt><trkpt lat="43.03940882683705" lon="11.818440834086594"><ele>457.0</ele><time>2026-05-02T13:57:53.001Z</time></trkpt><trkpt lat="43.03933884915221" lon="11.818477248594593"><ele>457.00000000000006</ele><time>2026-05-02T13:57:54.001Z</time></trkpt><trkpt lat="43.03927210910853" lon="11.818554094080392"><ele>457.0</ele><time>2026-05-02T13:57:55.001Z</time></trkpt><trkpt lat="43.039230486306884" lon="11.818663646256713"><ele>457.0</ele><time>2026-05-02T13:57:56.001Z</time></trkpt><trkpt lat="43.0392015060388" lon="11.818797204402948"><ele>457.0</ele><time>2026-05-02T13:57:57.001Z</time></trkpt><trkpt lat="43.03916086789258" lon="11.818951597558778"><ele>457.0</ele><time>2026-05-02T13:57:58.001Z</time></trkpt><trkpt lat="43.03910815915204" lon="11.819114628013622"><ele>457.0</ele><time>2026-05-02T13:57:59.001Z</time></trkpt><trkpt lat="43.03904678498844" lon="11.819283983103178"><ele>460.0</ele><time>2026-05-02T13:58:00.001Z</time></trkpt><trkpt lat="43.03898929394438" lon="11.819450695680594"><ele>463.0</ele><time>2026-05-02T13:58:01.001Z</time></trkpt><trkpt lat="43.03893154784474" lon="11.819605286572369"><ele>466.0</ele><time>2026-05-02T13:58:02.001Z</time></trkpt><trkpt lat="43.03887819978568" lon="11.819756564359423"><ele>469.0</ele><time>2026-05-02T13:58:03.001Z</time></trkpt><trkpt lat="43.03880503993748" lon="11.819880692987171"><ele>469.00000000000006</ele><time>2026-05-02T13:58:04.001Z</time></trkpt><trkpt lat="43.038740167684" lon="11.820003895411755"><ele>469.0</ele><time>2026-05-02T13:58:05.001Z</time></trkpt><trkpt lat="43.03868958227899" lon="11.820122376732522"><ele>469.0</ele><time>2026-05-02T13:58:06.001Z</time></trkpt><trkpt lat="43.03861923924767" lon="11.82018521143381"><ele>469.0</ele><time>2026-05-02T13:58:07.001Z</time></trkpt><trkpt lat="43.03857720777891" lon="11.820270003653915"><ele>469.00000000000006</ele><time>2026-05-02T13:58:08.001Z</time></trkpt><trkpt lat="43.038529877199" lon="11.820335497364033"><ele>469.0</ele><time>2026-05-02T13:58:09.001Z</time></trkpt><trkpt lat="43.038455892437014" lon="11.820439029742733"><ele>467.6</ele><time>2026-05-02T13:58:11.001Z</time></trkpt><trkpt lat="43.038397552542975" lon="11.820525743788261"><ele>466.2</ele><time>2026-05-02T13:58:13.001Z</time></trkpt><trkpt lat="43.03831419176606" lon="11.8206441352034"><ele>464.80000000000007</ele><time>2026-05-02T13:58:16.001Z</time></trkpt><trkpt lat="43.03824987114011" lon="11.820724134125854"><ele>463.40000000000003</ele><time>2026-05-02T13:58:17.001Z</time></trkpt><trkpt lat="43.03816898365987" lon="11.820840826121477"><ele>462.0</ele><time>2026-05-02T13:58:18.001Z</time></trkpt><trkpt lat="43.03810309643613" lon="11.820926016803275"><ele>464.25</ele><time>2026-05-02T13:58:19.001Z</time></trkpt><trkpt lat="43.038015756028194" lon="11.821064535709064"><ele>466.5</ele><time>2026-05-02T13:58:20.001Z</time></trkpt><trkpt lat="43.037904149570664" lon="11.821200725739324"><ele>468.75</ele><time>2026-05-02T13:58:21.001Z</time></trkpt><trkpt lat="43.03780124499642" lon="11.821353235487738"><ele>471.0</ele><time>2026-05-02T13:58:22.001Z</time></trkpt><trkpt lat="43.03771264883351" lon="11.821505864240285"><ele>471.0</ele><time>2026-05-02T13:58:23.001Z</time></trkpt><trkpt lat="43.037621338973025" lon="11.821626287967286"><ele>471.0</ele><time>2026-05-02T13:58:24.001Z</time></trkpt><trkpt lat="43.037541448279036" lon="11.821736860371567"><ele>471.0</ele><time>2026-05-02T13:58:25.001Z</time></trkpt><trkpt lat="43.03747445255864" lon="11.821842104971589"><ele>471.0</ele><time>2026-05-02T13:58:26.001Z</time></trkpt><trkpt lat="43.03740731446461" lon="11.821942354170302"><ele>471.0</ele><time>2026-05-02T13:58:27.001Z</time></trkpt><trkpt lat="43.03733939349397" lon="11.822046235242826"><ele>472.8</ele><time>2026-05-02T13:58:28.001Z</time></trkpt><trkpt lat="43.03727074750494" lon="11.82215283849958"><ele>474.6</ele><time>2026-05-02T13:58:29.001Z</time></trkpt><trkpt lat="43.03721228961688" lon="11.822264398247231"><ele>476.4</ele><time>2026-05-02T13:58:30.001Z</time></trkpt><trkpt lat="43.03715773612073" lon="11.82238368301944"><ele>478.2</ele><time>2026-05-02T13:58:31.001Z</time></trkpt><trkpt lat="43.03711296375605" lon="11.82250930211334"><ele>480.0</ele><time>2026-05-02T13:58:32.001Z</time></trkpt><trkpt lat="43.03707017337475" lon="11.822641491654931"><ele>479.6</ele><time>2026-05-02T13:58:33.001Z</time></trkpt><trkpt lat="43.037031465143315" lon="11.822777714601882"><ele>479.2</ele><time>2026-05-02T13:58:34.001Z</time></trkpt><trkpt lat="43.037003196237926" lon="11.822918372661134"><ele>478.79999999999995</ele><time>2026-05-02T13:58:35.001Z</time></trkpt><trkpt lat="43.03698756223143" lon="11.823060705440684"><ele>478.4</ele><time>2026-05-02T13:58:36.001Z</time></trkpt><trkpt lat="43.0369913075172" lon="11.823208415125256"><ele>478.0</ele><time>2026-05-02T13:58:37.001Z</time></trkpt><trkpt lat="43.03699998632575" lon="11.823362973073726"><ele>477.25</ele><time>2026-05-02T13:58:38.001Z</time></trkpt><trkpt lat="43.03700690706775" lon="11.823517604301465"><ele>476.5</ele><time>2026-05-02T13:58:39.001Z</time></trkpt><trkpt lat="43.037015947861455" lon="11.8236780000809"><ele>475.75</ele><time>2026-05-02T13:58:40.001Z</time></trkpt><trkpt lat="43.03702306354179" lon="11.823834535997644"><ele>475.0</ele><time>2026-05-02T13:58:41.001Z</time></trkpt><trkpt lat="43.03702322197995" lon="11.823982081982967"><ele>475.0</ele><time>2026-05-02T13:58:42.001Z</time></trkpt><trkpt lat="43.03700984493085" lon="11.824133324449125"><ele>475.0</ele><time>2026-05-02T13:58:43.001Z</time></trkpt><trkpt lat="43.03697902651967" lon="11.82428301244698"><ele>475.0</ele><time>2026-05-02T13:58:44.001Z</time></trkpt><trkpt lat="43.03694792620143" lon="11.824435269314765"><ele>475.0</ele><time>2026-05-02T13:58:45.001Z</time></trkpt><trkpt lat="43.036912038681145" lon="11.824596021084602"><ele>473.75</ele><time>2026-05-02T13:58:46.001Z</time></trkpt><trkpt lat="43.03687584601276" lon="11.824763399255367"><ele>472.5</ele><time>2026-05-02T13:58:47.001Z</time></trkpt><trkpt lat="43.03684757147861" lon="11.824920949005206"><ele>471.25</ele><time>2026-05-02T13:58:48.001Z</time></trkpt><trkpt lat="43.036820671917646" lon="11.825076678191675"><ele>470.0</ele><time>2026-05-02T13:58:49.001Z</time></trkpt><trkpt lat="43.036795466216255" lon="11.825223145836107"><ele>469.4</ele><time>2026-05-02T13:58:50.001Z</time></trkpt><trkpt lat="43.036772819098424" lon="11.825363612967154"><ele>468.8</ele><time>2026-05-02T13:58:51.001Z</time></trkpt><trkpt lat="43.03674390840548" lon="11.82549407259806"><ele>468.20000000000005</ele><time>2026-05-02T13:58:52.001Z</time></trkpt><trkpt lat="43.036710909669125" lon="11.82560798877986"><ele>467.6</ele><time>2026-05-02T13:58:53.001Z</time></trkpt><trkpt lat="43.036678343372095" lon="11.825738084563632"><ele>467.0</ele><time>2026-05-02T13:58:54.001Z</time></trkpt><trkpt lat="43.036652598457856" lon="11.825888512580844"><ele>466.6</ele><time>2026-05-02T13:58:55.001Z</time></trkpt><trkpt lat="43.03664330382894" lon="11.826036400077665"><ele>466.20000000000005</ele><time>2026-05-02T13:58:56.001Z</time></trkpt><trkpt lat="43.036647014791306" lon="11.826169471647752"><ele>465.8</ele><time>2026-05-02T13:58:57.001Z</time></trkpt><trkpt lat="43.03666333707356" lon="11.826289567471534"><ele>465.4</ele><time>2026-05-02T13:58:58.001Z</time></trkpt><trkpt lat="43.036693225561535" lon="11.826395161391337"><ele>465.0</ele><time>2026-05-02T13:58:59.001Z</time></trkpt><trkpt lat="43.03674396434607" lon="11.826494599793238"><ele>465.0</ele><time>2026-05-02T13:59:00.001Z</time></trkpt><trkpt lat="43.03679858816712" lon="11.82660693464482"><ele>465.0</ele><time>2026-05-02T13:59:01.001Z</time></trkpt><trkpt lat="43.03683963941366" lon="11.826745178006483"><ele>465.0</ele><time>2026-05-02T13:59:02.001Z</time></trkpt><trkpt lat="43.03686271816665" lon="11.826922941186563"><ele>465.0</ele><time>2026-05-02T13:59:03.001Z</time></trkpt><trkpt lat="43.036882965694964" lon="11.82711423222854"><ele>464.0</ele><time>2026-05-02T13:59:04.001Z</time></trkpt><trkpt lat="43.036910244634605" lon="11.82731618534166"><ele>463.0</ele><time>2026-05-02T13:59:05.001Z</time></trkpt><trkpt lat="43.036946757085346" lon="11.827533285484996"><ele>462.0</ele><time>2026-05-02T13:59:06.001Z</time></trkpt><trkpt lat="43.036992364962366" lon="11.827756872594284"><ele>461.33333333333337</ele><time>2026-05-02T13:59:07.001Z</time></trkpt><trkpt lat="43.037041812742785" lon="11.82798637767579"><ele>460.6666666666667</ele><time>2026-05-02T13:59:08.001Z</time></trkpt><trkpt lat="43.03709163985109" lon="11.828222334365776"><ele>460.0</ele><time>2026-05-02T13:59:09.001Z</time></trkpt><trkpt lat="43.03714072594289" lon="11.828447597186374"><ele>460.33333333333337</ele><time>2026-05-02T13:59:10.001Z</time></trkpt><trkpt lat="43.037187581383336" lon="11.82865918255511"><ele>460.66666666666663</ele><time>2026-05-02T13:59:11Z</time></trkpt><trkpt lat="43.03722749152539" lon="11.828864137455426"><ele>461.0</ele><time>2026-05-02T13:59:12Z</time></trkpt><trkpt lat="43.03725607240794" lon="11.82907392771239"><ele>461.0</ele><time>2026-05-02T13:59:13Z</time></trkpt><trkpt lat="43.03726520714474" lon="11.829292839537004"><ele>461.0</ele><time>2026-05-02T13:59:14Z</time></trkpt><trkpt lat="43.037249480626144" lon="11.8295331551048"><ele>461.0</ele><time>2026-05-02T13:59:15Z</time></trkpt><trkpt lat="43.03721246458019" lon="11.829784353104891"><ele>459.3333333333333</ele><time>2026-05-02T13:59:16Z</time></trkpt><trkpt lat="43.03716651816641" lon="11.8300355324784"><ele>457.66666666666663</ele><time>2026-05-02T13:59:17Z</time></trkpt><trkpt lat="43.037118889441395" lon="11.830267090705505"><ele>456.0</ele><time>2026-05-02T13:59:18Z</time></trkpt><trkpt lat="43.037063410047814" lon="11.830482721236505"><ele>454.66666666666663</ele><time>2026-05-02T13:59:19Z</time></trkpt><trkpt lat="43.03698697109937" lon="11.83068989808587"><ele>453.3333333333333</ele><time>2026-05-02T13:59:20Z</time></trkpt><trkpt lat="43.03688314077058" lon="11.830880721769285"><ele>452.0</ele><time>2026-05-02T13:59:21Z</time></trkpt><trkpt lat="43.03677671033449" lon="11.831067715755836"><ele>450.3333333333333</ele><time>2026-05-02T13:59:22Z</time></trkpt><trkpt lat="43.0366868568047" lon="11.831264454706595"><ele>448.66666666666663</ele><time>2026-05-02T13:59:23Z</time></trkpt><trkpt lat="43.03662616723587" lon="11.831480549408726"><ele>447.0</ele><time>2026-05-02T13:59:24Z</time></trkpt><trkpt lat="43.03658772637896" lon="11.83170940306238"><ele>450.0</ele><time>2026-05-02T13:59:25Z</time></trkpt><trkpt lat="43.03656394230137" lon="11.831924421349962"><ele>453.0</ele><time>2026-05-02T13:59:26Z</time></trkpt><trkpt lat="43.03656348696634" lon="11.832130101618793"><ele>456.0</ele><time>2026-05-02T13:59:27Z</time></trkpt><trkpt lat="43.03658531745171" lon="11.832330304316743"><ele>453.5</ele><time>2026-05-02T13:59:28Z</time></trkpt><trkpt lat="43.03664231625985" lon="11.83251302506935"><ele>451.0</ele><time>2026-05-02T13:59:29.001Z</time></trkpt><trkpt lat="43.03671203461486" lon="11.83269214256999"><ele>448.5</ele><time>2026-05-02T13:59:30.001Z</time></trkpt><trkpt lat="43.0367749364357" lon="11.832875804396148"><ele>446.0</ele><time>2026-05-02T13:59:31.001Z</time></trkpt><trkpt lat="43.03682320937023" lon="11.833062754704473"><ele>446.0</ele><time>2026-05-02T13:59:32.001Z</time></trkpt><trkpt lat="43.03684241040792" lon="11.833248003311683"><ele>446.0</ele><time>2026-05-02T13:59:33.001Z</time></trkpt><trkpt lat="43.03683220693722" lon="11.833435972925683"><ele>446.0</ele><time>2026-05-02T13:59:34.001Z</time></trkpt><trkpt lat="43.03678040234183" lon="11.833628900708844"><ele>446.0</ele><time>2026-05-02T13:59:35.001Z</time></trkpt><trkpt lat="43.03674628307568" lon="11.833825725359596"><ele>446.0</ele><time>2026-05-02T13:59:36.001Z</time></trkpt><trkpt lat="43.03668744931827" lon="11.833993692101599"><ele>446.0</ele><time>2026-05-02T13:59:37.001Z</time></trkpt><trkpt lat="43.03662204499439" lon="11.834149296064995"><ele>446.0</ele><time>2026-05-02T13:59:38.001Z</time></trkpt><trkpt lat="43.03655039780557" lon="11.834286820520834"><ele>446.0</ele><time>2026-05-02T13:59:39.001Z</time></trkpt><trkpt lat="43.03646277396383" lon="11.8343958118519"><ele>445.0</ele><time>2026-05-02T13:59:40.001Z</time></trkpt><trkpt lat="43.03635695009073" lon="11.834489307054861"><ele>444.0</ele><time>2026-05-02T13:59:41.001Z</time></trkpt><trkpt lat="43.03623486817819" lon="11.834581709938535"><ele>443.0</ele><time>2026-05-02T13:59:42.001Z</time></trkpt><trkpt lat="43.03610099637028" lon="11.834672849677073"><ele>442.0</ele><time>2026-05-02T13:59:43.001Z</time></trkpt><trkpt lat="43.035973462684886" lon="11.834757420685747"><ele>442.0</ele><time>2026-05-02T13:59:44.001Z</time></trkpt><trkpt lat="43.03585977705914" lon="11.834825535213293"><ele>442.0</ele><time>2026-05-02T13:59:45.001Z</time></trkpt><trkpt lat="43.035748203297835" lon="11.834872672304204"><ele>442.0</ele><time>2026-05-02T13:59:46.001Z</time></trkpt><trkpt lat="43.035612701748356" lon="11.834910576940514"><ele>442.0</ele><time>2026-05-02T13:59:47.001Z</time></trkpt><trkpt lat="43.0354531168898" lon="11.834931755237992"><ele>440.33333333333337</ele><time>2026-05-02T13:59:48.001Z</time></trkpt><trkpt lat="43.03526668220124" lon="11.834959700120065"><ele>438.66666666666663</ele><time>2026-05-02T13:59:49.001Z</time></trkpt><trkpt lat="43.035074603588974" lon="11.834989834315664"><ele>437.0</ele><time>2026-05-02T13:59:50.001Z</time></trkpt><trkpt lat="43.034884197286885" lon="11.83502019264165"><ele>434.66666666666663</ele><time>2026-05-02T13:59:51.001Z</time></trkpt><trkpt lat="43.03469992283094" lon="11.835051974944546"><ele>432.33333333333337</ele><time>2026-05-02T13:59:52.001Z</time></trkpt><trkpt lat="43.03452623253229" lon="11.835076937494085"><ele>430.0</ele><time>2026-05-02T13:59:53.001Z</time></trkpt><trkpt lat="43.034363320732666" lon="11.835092503717794"><ele>430.0</ele><time>2026-05-02T13:59:54.001Z</time></trkpt><trkpt lat="43.03421249537128" lon="11.835088689551853"><ele>430.0</ele><time>2026-05-02T13:59:55.001Z</time></trkpt><trkpt lat="43.03405653133952" lon="11.835056390000071"><ele>430.0</ele><time>2026-05-02T13:59:56.001Z</time></trkpt><trkpt lat="43.033892749576026" lon="11.835006698518237"><ele>427.33333333333337</ele><time>2026-05-02T13:59:57.001Z</time></trkpt><trkpt lat="43.033729175863265" lon="11.83492934162924"><ele>424.66666666666663</ele><time>2026-05-02T13:59:58.001Z</time></trkpt><trkpt lat="43.03358451188426" lon="11.834837814082464"><ele>422.0</ele><time>2026-05-02T13:59:59.001Z</time></trkpt><trkpt lat="43.03345090409402" lon="11.834754166034601"><ele>422.0</ele><time>2026-05-02T14:00:00.001Z</time></trkpt><trkpt lat="43.03332396010558" lon="11.834676449080344"><ele>422.0</ele><time>2026-05-02T14:00:01.001Z</time></trkpt><trkpt lat="43.03320609807496" lon="11.83459285763499"><ele>422.0</ele><time>2026-05-02T14:00:02.001Z</time></trkpt><trkpt lat="43.03309925370085" lon="11.83448646503798"><ele>422.0</ele><time>2026-05-02T14:00:03.001Z</time></trkpt><trkpt lat="43.032987520148346" lon="11.83433263425142"><ele>420.0</ele><time>2026-05-02T14:00:04.001Z</time></trkpt><trkpt lat="43.03288352325323" lon="11.834145985123131"><ele>418.0</ele><time>2026-05-02T14:00:05.001Z</time></trkpt><trkpt lat="43.03279373904155" lon="11.833961469346107"><ele>416.0</ele><time>2026-05-02T14:00:06.001Z</time></trkpt><trkpt lat="43.03270122857587" lon="11.833800738139605"><ele>416.0</ele><time>2026-05-02T14:00:07.001Z</time></trkpt><trkpt lat="43.032599471501555" lon="11.8336647375084"><ele>416.0</ele><time>2026-05-02T14:00:08.001Z</time></trkpt><trkpt lat="43.032482375378095" lon="11.833557575119345"><ele>416.0</ele><time>2026-05-02T14:00:09.001Z</time></trkpt><trkpt lat="43.03234893851322" lon="11.833494980251922"><ele>416.0</ele><time>2026-05-02T14:00:10.001Z</time></trkpt><trkpt lat="43.032211919680705" lon="11.833482472577382"><ele>412.3333333333333</ele><time>2026-05-02T14:00:11.001Z</time></trkpt><trkpt lat="43.0320750379125" lon="11.833530615370089"><ele>408.66666666666663</ele><time>2026-05-02T14:00:12.001Z</time></trkpt><trkpt lat="43.0319369880892" lon="11.833608173056058"><ele>405.0</ele><time>2026-05-02T14:00:13.001Z</time></trkpt><trkpt lat="43.03179678003783" lon="11.833717972885582"><ele>405.0</ele><time>2026-05-02T14:00:14.001Z</time></trkpt><trkpt lat="43.031667410960544" lon="11.833860602779852"><ele>405.0</ele><time>2026-05-02T14:00:15.001Z</time></trkpt><trkpt lat="43.03152920960534" lon="11.833957039851926"><ele>405.0</ele><time>2026-05-02T14:00:16.001Z</time></trkpt><trkpt lat="43.03140654612998" lon="11.834050346579463"><ele>403.75</ele><time>2026-05-02T14:00:17.001Z</time></trkpt><trkpt lat="43.03129476716569" lon="11.834103183882398"><ele>402.5</ele><time>2026-05-02T14:00:18.001Z</time></trkpt><trkpt lat="43.031170614533856" lon="11.834104120866186"><ele>401.25</ele><time>2026-05-02T14:00:19.001Z</time></trkpt><trkpt lat="43.0310432710889" lon="11.834053536432135"><ele>400.0</ele><time>2026-05-02T14:00:20.001Z</time></trkpt><trkpt lat="43.03087013946404" lon="11.83397211886553"><ele>396.6666666666667</ele><time>2026-05-02T14:00:21.001Z</time></trkpt><trkpt lat="43.03068287472078" lon="11.833900048950508"><ele>393.33333333333337</ele><time>2026-05-02T14:00:22.001Z</time></trkpt><trkpt lat="43.0305048953409" lon="11.83380792171672"><ele>390.0</ele><time>2026-05-02T14:00:23.001Z</time></trkpt><trkpt lat="43.03032599794432" lon="11.833721725727116"><ele>390.0</ele><time>2026-05-02T14:00:24.001Z</time></trkpt><trkpt lat="43.03014774797565" lon="11.833636513901263"><ele>390.0</ele><time>2026-05-02T14:00:25.001Z</time></trkpt><trkpt lat="43.02998452387648" lon="11.833556353469099"><ele>390.0</ele><time>2026-05-02T14:00:26.001Z</time></trkpt><trkpt lat="43.0298079504231" lon="11.833471357895105"><ele>390.66666666666663</ele><time>2026-05-02T14:00:27.001Z</time></trkpt><trkpt lat="43.029622001208274" lon="11.833387264158594"><ele>391.3333333333333</ele><time>2026-05-02T14:00:28.001Z</time></trkpt><trkpt lat="43.029445621879496" lon="11.833300718508054"><ele>392.0</ele><time>2026-05-02T14:00:29.001Z</time></trkpt><trkpt lat="43.029286050997854" lon="11.833221242418096"><ele>391.75</ele><time>2026-05-02T14:00:30.001Z</time></trkpt><trkpt lat="43.02913558221007" lon="11.833145140630805"><ele>391.5</ele><time>2026-05-02T14:00:31.001Z</time></trkpt><trkpt lat="43.028995026905136" lon="11.833076305114824"><ele>391.25</ele><time>2026-05-02T14:00:32.001Z</time></trkpt><trkpt lat="43.028864023157205" lon="11.833011258978313"><ele>391.0</ele><time>2026-05-02T14:00:33.001Z</time></trkpt><trkpt lat="43.028734136831176" lon="11.832961792850911"><ele>391.0</ele><time>2026-05-02T14:00:34.001Z</time></trkpt><trkpt lat="43.028604867380224" lon="11.832914703441851"><ele>391.0</ele><time>2026-05-02T14:00:35.001Z</time></trkpt><trkpt lat="43.02846340679376" lon="11.832897417824741"><ele>391.0</ele><time>2026-05-02T14:00:36.001Z</time></trkpt><trkpt lat="43.028308524887294" lon="11.832924137146097"><ele>391.0</ele><time>2026-05-02T14:00:37.001Z</time></trkpt><trkpt lat="43.02815613805128" lon="11.832990340444647"><ele>390.33333333333337</ele><time>2026-05-02T14:00:38.001Z</time></trkpt><trkpt lat="43.02800184599274" lon="11.833062985755678"><ele>389.66666666666663</ele><time>2026-05-02T14:00:39.001Z</time></trkpt><trkpt lat="43.02785951194952" lon="11.833146500570153"><ele>389.0</ele><time>2026-05-02T14:00:40.001Z</time></trkpt><trkpt lat="43.02772951334098" lon="11.833250997506"><ele>389.0</ele><time>2026-05-02T14:00:41.001Z</time></trkpt><trkpt lat="43.02759965807596" lon="11.833401363031992"><ele>389.0</ele><time>2026-05-02T14:00:42.001Z</time></trkpt><trkpt lat="43.02747296272191" lon="11.83359199369034"><ele>389.0</ele><time>2026-05-02T14:00:43.001Z</time></trkpt><trkpt lat="43.02734873233866" lon="11.833796127142428"><ele>388.0</ele><time>2026-05-02T14:00:44.001Z</time></trkpt><trkpt lat="43.027223827248186" lon="11.834003771387987"><ele>387.0</ele><time>2026-05-02T14:00:45.001Z</time></trkpt><trkpt lat="43.027101022446466" lon="11.834198846664982"><ele>386.0</ele><time>2026-05-02T14:00:46.001Z</time></trkpt><trkpt lat="43.02699040195108" lon="11.834367450676044"><ele>386.0</ele><time>2026-05-02T14:00:47.001Z</time></trkpt><trkpt lat="43.02688627559172" lon="11.834519522277429"><ele>386.0</ele><time>2026-05-02T14:00:48.001Z</time></trkpt><trkpt lat="43.026786700114116" lon="11.834659614949064"><ele>386.0</ele><time>2026-05-02T14:00:49.001Z</time></trkpt><trkpt lat="43.02669268076105" lon="11.834799326830572"><ele>386.0</ele><time>2026-05-02T14:00:50.001Z</time></trkpt><trkpt lat="43.026611325140564" lon="11.834922577253767"><ele>387.75</ele><time>2026-05-02T14:00:51.001Z</time></trkpt><trkpt lat="43.02654970458055" lon="11.835044881642887"><ele>389.5</ele><time>2026-05-02T14:00:52.001Z</time></trkpt><trkpt lat="43.02651689446096" lon="11.835186853609082"><ele>391.25</ele><time>2026-05-02T14:00:53.001Z</time></trkpt><trkpt lat="43.02652472047785" lon="11.83535173904436"><ele>393.0</ele><time>2026-05-02T14:00:54.001Z</time></trkpt><trkpt lat="43.02657387827028" lon="11.835519438432316"><ele>393.33333333333337</ele><time>2026-05-02T14:00:55.001Z</time></trkpt><trkpt lat="43.026652356918746" lon="11.835693707131744"><ele>393.6666666666667</ele><time>2026-05-02T14:00:56.001Z</time></trkpt><trkpt lat="43.026751296392376" lon="11.835886161064042"><ele>394.0</ele><time>2026-05-02T14:00:57.001Z</time></trkpt><trkpt lat="43.02684842581976" lon="11.836081465616088"><ele>397.33333333333337</ele><time>2026-05-02T14:00:58.001Z</time></trkpt><trkpt lat="43.026946761859946" lon="11.836295793903362"><ele>400.66666666666663</ele><time>2026-05-02T14:00:59.001Z</time></trkpt><trkpt lat="43.02704397780574" lon="11.836506191055106"><ele>404.0</ele><time>2026-05-02T14:01:00.001Z</time></trkpt><trkpt lat="43.0271257073347" lon="11.836693536390356"><ele>406.0</ele><time>2026-05-02T14:01:01.001Z</time></trkpt><trkpt lat="43.027202515576555" lon="11.8368742690434"><ele>408.0</ele><time>2026-05-02T14:01:02.001Z</time></trkpt><trkpt lat="43.0272736874107" lon="11.83704564538392"><ele>410.0</ele><time>2026-05-02T14:01:03.001Z</time></trkpt><trkpt lat="43.027344966466956" lon="11.83720463950479"><ele>412.0</ele><time>2026-05-02T14:01:04.001Z</time></trkpt><trkpt lat="43.02740862321681" lon="11.837342955411774"><ele>412.00000000000006</ele><time>2026-05-02T14:01:05.001Z</time></trkpt><trkpt lat="43.02745001900966" lon="11.837470656985744"><ele>412.0</ele><time>2026-05-02T14:01:06.001Z</time></trkpt><trkpt lat="43.02744742430345" lon="11.837583646873654"><ele>412.0</ele><time>2026-05-02T14:01:07Z</time></trkpt><trkpt lat="43.02740428488436" lon="11.837670534715205"><ele>412.0</ele><time>2026-05-02T14:01:08Z</time></trkpt><trkpt lat="43.02732751485616" lon="11.837723201863328"><ele>412.00000000000006</ele><time>2026-05-02T14:01:09Z</time></trkpt><trkpt lat="43.02723337097321" lon="11.837722836510867"><ele>412.0</ele><time>2026-05-02T14:01:10Z</time></trkpt><trkpt lat="43.02713762670317" lon="11.837660016350481"><ele>412.0</ele><time>2026-05-02T14:01:11Z</time></trkpt><trkpt lat="43.027027532559266" lon="11.837538514253543"><ele>412.0</ele><time>2026-05-02T14:01:12Z</time></trkpt><trkpt lat="43.026898254096324" lon="11.837388005739685"><ele>412.0</ele><time>2026-05-02T14:01:13Z</time></trkpt><trkpt lat="43.02674795289104" lon="11.837248011263956"><ele>415.0</ele><time>2026-05-02T14:01:14Z</time></trkpt><trkpt lat="43.02659619268973" lon="11.837109904390044"><ele>418.0</ele><time>2026-05-02T14:01:15Z</time></trkpt><trkpt lat="43.02646231393455" lon="11.836984202012417"><ele>421.0</ele><time>2026-05-02T14:01:16Z</time></trkpt><trkpt lat="43.02633960920191" lon="11.83688886301001"><ele>421.0</ele><time>2026-05-02T14:01:17Z</time></trkpt><trkpt lat="43.02621322623091" lon="11.836825413939199"><ele>421.0</ele><time>2026-05-02T14:01:18Z</time></trkpt><trkpt lat="43.02608918726765" lon="11.836785532687559"><ele>421.0</ele><time>2026-05-02T14:01:19Z</time></trkpt><trkpt lat="43.02597668168556" lon="11.836778838189133"><ele>421.0</ele><time>2026-05-02T14:01:20Z</time></trkpt><trkpt lat="43.025877540361215" lon="11.836809780615146"><ele>420.75</ele><time>2026-05-02T14:01:21Z</time></trkpt><trkpt lat="43.0257734139431" lon="11.836893257142421"><ele>420.5</ele><time>2026-05-02T14:01:22Z</time></trkpt><trkpt lat="43.02566419015564" lon="11.83702881911145"><ele>420.25</ele><time>2026-05-02T14:01:23Z</time></trkpt><trkpt lat="43.02553645482846" lon="11.837203315877321"><ele>420.0</ele><time>2026-05-02T14:01:24Z</time></trkpt><trkpt lat="43.025392019068505" lon="11.837373462821066"><ele>420.0</ele><time>2026-05-02T14:01:25Z</time></trkpt><trkpt lat="43.02524278810334" lon="11.837532534790103"><ele>420.0</ele><time>2026-05-02T14:01:26Z</time></trkpt><trkpt lat="43.02508941688561" lon="11.837658830162564"><ele>420.0</ele><time>2026-05-02T14:01:27Z</time></trkpt><trkpt lat="43.024918402513016" lon="11.837777909360462"><ele>424.0</ele><time>2026-05-02T14:01:28Z</time></trkpt><trkpt lat="43.02471999697664" lon="11.83785854060559"><ele>428.0</ele><time>2026-05-02T14:01:29Z</time></trkpt><trkpt lat="43.024513583761" lon="11.837975734980125"><ele>432.0</ele><time>2026-05-02T14:01:30Z</time></trkpt><trkpt lat="43.02429373136148" lon="11.83807113451444"><ele>433.0</ele><time>2026-05-02T14:01:31Z</time></trkpt><trkpt lat="43.02407769000548" lon="11.838178799776003"><ele>434.0</ele><time>2026-05-02T14:01:32Z</time></trkpt><trkpt lat="43.02386303944874" lon="11.838284042459957"><ele>434.0</ele><time>2026-05-02T14:01:33Z</time></trkpt><trkpt lat="43.02365300195644" lon="11.838380965717118"><ele>434.0</ele><time>2026-05-02T14:01:34Z</time></trkpt><trkpt lat="43.023448436552655" lon="11.838471518421054"><ele>434.0</ele><time>2026-05-02T14:01:35Z</time></trkpt><trkpt lat="43.023256249004795" lon="11.83856066929949"><ele>438.3333333333333</ele><time>2026-05-02T14:01:36Z</time></trkpt><trkpt lat="43.02306867732699" lon="11.83864907904292"><ele>442.66666666666663</ele><time>2026-05-02T14:01:37Z</time></trkpt><trkpt lat="43.02289216498652" lon="11.838736269114019"><ele>447.0</ele><time>2026-05-02T14:01:38Z</time></trkpt><trkpt lat="43.02272975218509" lon="11.838817108453615"><ele>447.0</ele><time>2026-05-02T14:01:39Z</time></trkpt><trkpt lat="43.02256498362215" lon="11.838898267238061"><ele>447.0</ele><time>2026-05-02T14:01:40Z</time></trkpt><trkpt lat="43.02239175475746" lon="11.838985257871654"><ele>447.0</ele><time>2026-05-02T14:01:41Z</time></trkpt><trkpt lat="43.02221624651328" lon="11.839066896221192"><ele>448.0</ele><time>2026-05-02T14:01:42Z</time></trkpt><trkpt lat="43.022048749602725" lon="11.839138572614942"><ele>449.0</ele><time>2026-05-02T14:01:43Z</time></trkpt><trkpt lat="43.021888006618184" lon="11.839195986099492"><ele>450.0</ele><time>2026-05-02T14:01:44Z</time></trkpt><trkpt lat="43.02172403806227" lon="11.839224740222608"><ele>451.0</ele><time>2026-05-02T14:01:45Z</time></trkpt><trkpt lat="43.02155616650728" lon="11.839220807968552"><ele>452.0</ele><time>2026-05-02T14:01:46Z</time></trkpt><trkpt lat="43.02140972454825" lon="11.839187656278584"><ele>453.0</ele><time>2026-05-02T14:01:47Z</time></trkpt><trkpt lat="43.021276550588794" lon="11.839160522873327"><ele>453.0</ele><time>2026-05-02T14:01:48Z</time></trkpt><trkpt lat="43.021143786078625" lon="11.839166156594493"><ele>453.0</ele><time>2026-05-02T14:01:49Z</time></trkpt><trkpt lat="43.02100171367772" lon="11.83923009911353"><ele>453.0</ele><time>2026-05-02T14:01:50Z</time></trkpt><trkpt lat="43.0208498994388" lon="11.839341881087194"><ele>458.66666666666663</ele><time>2026-05-02T14:01:51Z</time></trkpt><trkpt lat="43.02068304591608" lon="11.839436499190747"><ele>464.3333333333333</ele><time>2026-05-02T14:01:52Z</time></trkpt><trkpt lat="43.02050988940047" lon="11.83949450167592"><ele>470.0</ele><time>2026-05-02T14:01:53Z</time></trkpt><trkpt lat="43.02033121965971" lon="11.83952630808248"><ele>470.0</ele><time>2026-05-02T14:01:54.001Z</time></trkpt><trkpt lat="43.02014650126408" lon="11.839545093318963"><ele>470.0</ele><time>2026-05-02T14:01:55.001Z</time></trkpt><trkpt lat="43.01996263174387" lon="11.839551078950922"><ele>470.0</ele><time>2026-05-02T14:01:56.001Z</time></trkpt><trkpt lat="43.01979238627423" lon="11.839543950725545"><ele>470.66666666666663</ele><time>2026-05-02T14:01:57.001Z</time></trkpt><trkpt lat="43.019623013627985" lon="11.839532926768877"><ele>471.33333333333337</ele><time>2026-05-02T14:01:58.001Z</time></trkpt><trkpt lat="43.019440707139026" lon="11.839558722421227"><ele>472.0</ele><time>2026-05-02T14:01:59.001Z</time></trkpt><trkpt lat="43.01924735535809" lon="11.83962011596559"><ele>473.0</ele><time>2026-05-02T14:02:00.001Z</time></trkpt><trkpt lat="43.019055451233484" lon="11.839694129261252"><ele>474.0</ele><time>2026-05-02T14:02:01.001Z</time></trkpt><trkpt lat="43.0188786975357" lon="11.839759770962162"><ele>475.0</ele><time>2026-05-02T14:02:02.001Z</time></trkpt><trkpt lat="43.01871706527816" lon="11.839806506663178"><ele>475.0</ele><time>2026-05-02T14:02:03.001Z</time></trkpt><trkpt lat="43.018563294211894" lon="11.839827994001128"><ele>475.0</ele><time>2026-05-02T14:02:04.001Z</time></trkpt><trkpt lat="43.01840338306974" lon="11.839817676644783"><ele>475.0</ele><time>2026-05-02T14:02:05.001Z</time></trkpt><trkpt lat="43.018228743248976" lon="11.839765270474338"><ele>477.6666666666667</ele><time>2026-05-02T14:02:06.001Z</time></trkpt><trkpt lat="43.01805197203422" lon="11.839682066447441"><ele>480.33333333333337</ele><time>2026-05-02T14:02:07.001Z</time></trkpt><trkpt lat="43.017870449053596" lon="11.839594387554094"><ele>483.0</ele><time>2026-05-02T14:02:08.001Z</time></trkpt><trkpt lat="43.01768790797431" lon="11.839526002101225"><ele>483.0</ele><time>2026-05-02T14:02:09.001Z</time></trkpt><trkpt lat="43.01750658926381" lon="11.839481846523052"><ele>483.0</ele><time>2026-05-02T14:02:10.001Z</time></trkpt><trkpt lat="43.01731309344427" lon="11.83945798269508"><ele>483.0</ele><time>2026-05-02T14:02:11.001Z</time></trkpt><trkpt lat="43.017119753908766" lon="11.839450416775428"><ele>483.66666666666663</ele><time>2026-05-02T14:02:12.001Z</time></trkpt><trkpt lat="43.01693239553707" lon="11.839449617664696"><ele>484.3333333333333</ele><time>2026-05-02T14:02:13.001Z</time></trkpt><trkpt lat="43.01675711532029" lon="11.83945432011614"><ele>485.0</ele><time>2026-05-02T14:02:14.001Z</time></trkpt><trkpt lat="43.01657960881732" lon="11.839457612340066"><ele>486.0</ele><time>2026-05-02T14:02:15.001Z</time></trkpt><trkpt lat="43.016401315746286" lon="11.839461825387222"><ele>487.0</ele><time>2026-05-02T14:02:16.001Z</time></trkpt><trkpt lat="43.016206778101015" lon="11.839476802748038"><ele>488.0</ele><time>2026-05-02T14:02:17.001Z</time></trkpt><trkpt lat="43.01599982824369" lon="11.83951333974133"><ele>489.3333333333333</ele><time>2026-05-02T14:02:18.001Z</time></trkpt><trkpt lat="43.01579274070381" lon="11.839564492128929"><ele>490.66666666666663</ele><time>2026-05-02T14:02:19.001Z</time></trkpt><trkpt lat="43.015589567411524" lon="11.839611685517161"><ele>492.0</ele><time>2026-05-02T14:02:20.001Z</time></trkpt><trkpt lat="43.01539290235016" lon="11.839654307907576"><ele>492.0</ele><time>2026-05-02T14:02:21.001Z</time></trkpt><trkpt lat="43.015207547529144" lon="11.839687252831778"><ele>492.0</ele><time>2026-05-02T14:02:22.001Z</time></trkpt><trkpt lat="43.01501440455723" lon="11.839721183304299"><ele>492.0</ele><time>2026-05-02T14:02:23.001Z</time></trkpt><trkpt lat="43.01483091291688" lon="11.839755862796357"><ele>495.33333333333337</ele><time>2026-05-02T14:02:24.001Z</time></trkpt><trkpt lat="43.01467035758982" lon="11.839798194276423"><ele>498.6666666666667</ele><time>2026-05-02T14:02:25.001Z</time></trkpt><trkpt lat="43.01452764618526" lon="11.839854841556113"><ele>502.0</ele><time>2026-05-02T14:02:26.001Z</time></trkpt><trkpt lat="43.01439756007766" lon="11.83993187576104"><ele>502.0</ele><time>2026-05-02T14:02:27.001Z</time></trkpt><trkpt lat="43.01426729703357" lon="11.840058310021242"><ele>502.0</ele><time>2026-05-02T14:02:28.001Z</time></trkpt><trkpt lat="43.01415536137711" lon="11.840223437411078"><ele>502.0</ele><time>2026-05-02T14:02:29.001Z</time></trkpt><trkpt lat="43.014058157800015" lon="11.840392337299644"><ele>501.5</ele><time>2026-05-02T14:02:30.001Z</time></trkpt><trkpt lat="43.01397098327422" lon="11.840524038498081"><ele>501.0</ele><time>2026-05-02T14:02:31.001Z</time></trkpt><trkpt lat="43.013872969824284" lon="11.840605941698481"><ele>500.5</ele><time>2026-05-02T14:02:32.001Z</time></trkpt><trkpt lat="43.01375999816463" lon="11.840640677473512"><ele>500.0</ele><time>2026-05-02T14:02:33.001Z</time></trkpt><trkpt lat="43.01363723839467" lon="11.840619770612305"><ele>500.0</ele><time>2026-05-02T14:02:34.001Z</time></trkpt><trkpt lat="43.01350113385134" lon="11.840550397265357"><ele>500.0</ele><time>2026-05-02T14:02:35.001Z</time></trkpt><trkpt lat="43.013344986159126" lon="11.840449781281409"><ele>500.0</ele><time>2026-05-02T14:02:36.001Z</time></trkpt><trkpt lat="43.01316979343142" lon="11.840342278197278"><ele>501.66666666666663</ele><time>2026-05-02T14:02:37.001Z</time></trkpt><trkpt lat="43.01298777027029" lon="11.84023515036969"><ele>503.33333333333337</ele><time>2026-05-02T14:02:38.001Z</time></trkpt><trkpt lat="43.01280745576172" lon="11.840127038900919"><ele>505.0</ele><time>2026-05-02T14:02:39.001Z</time></trkpt><trkpt lat="43.012650452073665" lon="11.840027628419785"><ele>507.5</ele><time>2026-05-02T14:02:40.001Z</time></trkpt><trkpt lat="43.01251073606404" lon="11.8399373970661"><ele>510.0</ele><time>2026-05-02T14:02:41.001Z</time></trkpt><trkpt lat="43.01238484705319" lon="11.839858804486449"><ele>512.5</ele><time>2026-05-02T14:02:42.001Z</time></trkpt><trkpt lat="43.0122691852549" lon="11.839796462022699"><ele>515.0</ele><time>2026-05-02T14:02:43.001Z</time></trkpt><trkpt lat="43.01214890841203" lon="11.839746483569007"><ele>516.0</ele><time>2026-05-02T14:02:44.001Z</time></trkpt><trkpt lat="43.012022319188006" lon="11.839744541630674"><ele>517.0</ele><time>2026-05-02T14:02:45.001Z</time></trkpt><trkpt lat="43.011892780280895" lon="11.839787054844896"><ele>518.0</ele><time>2026-05-02T14:02:46.001Z</time></trkpt><trkpt lat="43.01177159371557" lon="11.839862850947004"><ele>519.0</ele><time>2026-05-02T14:02:47.001Z</time></trkpt><trkpt lat="43.01165246004291" lon="11.839991970415396"><ele>520.3333333333334</ele><time>2026-05-02T14:02:48.001Z</time></trkpt><trkpt lat="43.01154270460109" lon="11.840153124440432"><ele>521.6666666666667</ele><time>2026-05-02T14:02:49.001Z</time></trkpt><trkpt lat="43.011428172090206" lon="11.840349281489347"><ele>523.0</ele><time>2026-05-02T14:02:50.001Z</time></trkpt><trkpt lat="43.01132441909252" lon="11.840559973690755"><ele>523.0</ele><time>2026-05-02T14:02:51.001Z</time></trkpt><trkpt lat="43.01121598419286" lon="11.840775827795902"><ele>523.0</ele><time>2026-05-02T14:02:52.001Z</time></trkpt><trkpt lat="43.01110457310913" lon="11.84100649420219"><ele>523.0</ele><time>2026-05-02T14:02:53.001Z</time></trkpt><trkpt lat="43.01099046853925" lon="11.841242443548758"><ele>522.0</ele><time>2026-05-02T14:02:54.001Z</time></trkpt><trkpt lat="43.010891677833996" lon="11.841478058900513"><ele>521.0</ele><time>2026-05-02T14:02:55.001Z</time></trkpt><trkpt lat="43.010785018812086" lon="11.84169954279248"><ele>520.0</ele><time>2026-05-02T14:02:56.001Z</time></trkpt><trkpt lat="43.010677050840535" lon="11.841917306018432"><ele>520.0</ele><time>2026-05-02T14:02:57.001Z</time></trkpt><trkpt lat="43.0105519901127" lon="11.84214246496592"><ele>520.0</ele><time>2026-05-02T14:02:58.001Z</time></trkpt><trkpt lat="43.01041743423857" lon="11.842377271049049"><ele>520.0</ele><time>2026-05-02T14:02:59.001Z</time></trkpt><trkpt lat="43.01027269694177" lon="11.842621802720608"><ele>517.5</ele><time>2026-05-02T14:03:00.001Z</time></trkpt><trkpt lat="43.010124434176234" lon="11.84287364853355"><ele>515.0</ele><time>2026-05-02T14:03:01.001Z</time></trkpt><trkpt lat="43.00997635351059" lon="11.843130758252704"><ele>515.0</ele><time>2026-05-02T14:03:02.001Z</time></trkpt><trkpt lat="43.009829884243615" lon="11.843388503861682"><ele>515.0</ele><time>2026-05-02T14:03:03.001Z</time></trkpt><trkpt lat="43.009683926901445" lon="11.843648329078862"><ele>515.0</ele><time>2026-05-02T14:03:04.001Z</time></trkpt><trkpt lat="43.00954187414431" lon="11.843909455177325"><ele>515.0</ele><time>2026-05-02T14:03:05.001Z</time></trkpt><trkpt lat="43.00940457871424" lon="11.844160238702791"><ele>515.0</ele><time>2026-05-02T14:03:06.001Z</time></trkpt><trkpt lat="43.00927486985494" lon="11.844417574826643"><ele>515.0</ele><time>2026-05-02T14:03:07.001Z</time></trkpt><trkpt lat="43.00915955902157" lon="11.844664956404113"><ele>515.0</ele><time>2026-05-02T14:03:08.001Z</time></trkpt><trkpt lat="43.0090449295583" lon="11.844908703551374"><ele>515.6666666666666</ele><time>2026-05-02T14:03:09.001Z</time></trkpt><trkpt lat="43.00893048599918" lon="11.845145266007782"><ele>516.3333333333334</ele><time>2026-05-02T14:03:10.001Z</time></trkpt><trkpt lat="43.008810394297605" lon="11.845388227897548"><ele>517.0</ele><time>2026-05-02T14:03:11.001Z</time></trkpt><trkpt lat="43.008689578715774" lon="11.845644261352199"><ele>517.0</ele><time>2026-05-02T14:03:12.001Z</time></trkpt><trkpt lat="43.00856727077461" lon="11.845895398736705"><ele>517.0</ele><time>2026-05-02T14:03:13Z</time></trkpt><trkpt lat="43.00845151741093" lon="11.846139503636167"><ele>517.0</ele><time>2026-05-02T14:03:14Z</time></trkpt><trkpt lat="43.008341716591694" lon="11.846362076526818"><ele>517.6666666666667</ele><time>2026-05-02T14:03:15Z</time></trkpt><trkpt lat="43.00823610603064" lon="11.846567587560429"><ele>518.3333333333334</ele><time>2026-05-02T14:03:16Z</time></trkpt><trkpt lat="43.008143372839804" lon="11.846770226463295"><ele>519.0</ele><time>2026-05-02T14:03:17Z</time></trkpt><trkpt lat="43.00805388662313" lon="11.84696198578589"><ele>519.0</ele><time>2026-05-02T14:03:18Z</time></trkpt><trkpt lat="43.0079689473338" lon="11.847133652068216"><ele>519.0</ele><time>2026-05-02T14:03:19Z</time></trkpt><trkpt lat="43.00789025452516" lon="11.847296552395594"><ele>519.0</ele><time>2026-05-02T14:03:20Z</time></trkpt><trkpt lat="43.007803528715485" lon="11.847469140363872"><ele>519.0</ele><time>2026-05-02T14:03:21Z</time></trkpt><trkpt lat="43.007711942047955" lon="11.847663361788037"><ele>518.25</ele><time>2026-05-02T14:03:22Z</time></trkpt><trkpt lat="43.00762402496085" lon="11.847848535562289"><ele>517.5</ele><time>2026-05-02T14:03:23Z</time></trkpt><trkpt lat="43.007542527972255" lon="11.848011196337017"><ele>516.75</ele><time>2026-05-02T14:03:24Z</time></trkpt><trkpt lat="43.00746763010346" lon="11.848158836525993"><ele>516.0</ele><time>2026-05-02T14:03:25Z</time></trkpt><trkpt lat="43.00738868008313" lon="11.848293489630413"><ele>516.25</ele><time>2026-05-02T14:03:26Z</time></trkpt><trkpt lat="43.00729998736031" lon="11.848423817706683"><ele>516.5</ele><time>2026-05-02T14:03:27Z</time></trkpt><trkpt lat="43.007204933088495" lon="11.848562232049257"><ele>516.75</ele><time>2026-05-02T14:03:28Z</time></trkpt><trkpt lat="43.00709602563713" lon="11.848722461807776"><ele>517.0</ele><time>2026-05-02T14:03:29Z</time></trkpt><trkpt lat="43.00695929891395" lon="11.848886443195866"><ele>517.0</ele><time>2026-05-02T14:03:30Z</time></trkpt><trkpt lat="43.00681477826905" lon="11.849086044456428"><ele>517.0</ele><time>2026-05-02T14:03:31Z</time></trkpt><trkpt lat="43.00666437661688" lon="11.84931584406395"><ele>517.0</ele><time>2026-05-02T14:03:32Z</time></trkpt><trkpt lat="43.00650042711511" lon="11.84953978465749"><ele>516.0</ele><time>2026-05-02T14:03:33Z</time></trkpt><trkpt lat="43.00634363039399" lon="11.849765209497416"><ele>515.0</ele><time>2026-05-02T14:03:34Z</time></trkpt><trkpt lat="43.00617432343245" lon="11.850000550137297"><ele>513.5</ele><time>2026-05-02T14:03:35Z</time></trkpt><trkpt lat="43.00600235230478" lon="11.850230309045308"><ele>512.0</ele><time>2026-05-02T14:03:36Z</time></trkpt><trkpt lat="43.0058378543013" lon="11.850446631702432"><ele>514.5</ele><time>2026-05-02T14:03:37Z</time></trkpt><trkpt lat="43.00567546367662" lon="11.850666631985261"><ele>517.0</ele><time>2026-05-02T14:03:38Z</time></trkpt><trkpt lat="43.00551877158956" lon="11.850882793560721"><ele>513.6666666666667</ele><time>2026-05-02T14:03:39Z</time></trkpt><trkpt lat="43.00535971278582" lon="11.851097666013018"><ele>510.33333333333337</ele><time>2026-05-02T14:03:40Z</time></trkpt><trkpt lat="43.00520669991488" lon="11.85131497732241"><ele>507.0</ele><time>2026-05-02T14:03:41Z</time></trkpt><trkpt lat="43.00505888378647" lon="11.85152373584158"><ele>509.0</ele><time>2026-05-02T14:03:42Z</time></trkpt><trkpt lat="43.004924605708005" lon="11.851724709691862"><ele>511.0</ele><time>2026-05-02T14:03:43Z</time></trkpt><trkpt lat="43.00479618086183" lon="11.85191380342873"><ele>513.0</ele><time>2026-05-02T14:03:44Z</time></trkpt><trkpt lat="43.00467623111056" lon="11.852089742353757"><ele>513.0</ele><time>2026-05-02T14:03:45Z</time></trkpt><trkpt lat="43.004565074606695" lon="11.852249807929919"><ele>513.0</ele><time>2026-05-02T14:03:46Z</time></trkpt><trkpt lat="43.00445455218298" lon="11.852393737500568"><ele>513.0</ele><time>2026-05-02T14:03:47Z</time></trkpt><trkpt lat="43.004338401875486" lon="11.852513538498746"><ele>513.0</ele><time>2026-05-02T14:03:48Z</time></trkpt><trkpt lat="43.00418289112285" lon="11.85262048788432"><ele>513.0</ele><time>2026-05-02T14:03:49Z</time></trkpt><trkpt lat="43.00398580462806" lon="11.852689809460395"><ele>513.0</ele><time>2026-05-02T14:03:50Z</time></trkpt><trkpt lat="43.00378122132117" lon="11.852756589071417"><ele>513.3333333333334</ele><time>2026-05-02T14:03:51Z</time></trkpt><trkpt lat="43.00358269796447" lon="11.852836822483873"><ele>513.6666666666667</ele><time>2026-05-02T14:03:52Z</time></trkpt><trkpt lat="43.003393406852645" lon="11.852916130147495"><ele>514.0</ele><time>2026-05-02T14:03:53Z</time></trkpt><trkpt lat="43.00321995795474" lon="11.852997182699283"><ele>516.3333333333334</ele><time>2026-05-02T14:03:54Z</time></trkpt><trkpt lat="43.003064971516615" lon="11.853079211473343"><ele>518.6666666666666</ele><time>2026-05-02T14:03:55Z</time></trkpt><trkpt lat="43.00293474812974" lon="11.853188763746514"><ele>521.0</ele><time>2026-05-02T14:03:56Z</time></trkpt><trkpt lat="43.00281795863962" lon="11.853313741235066"><ele>521.0</ele><time>2026-05-02T14:03:57Z</time></trkpt><trkpt lat="43.00271295454336" lon="11.853430143488316"><ele>521.0</ele><time>2026-05-02T14:03:58Z</time></trkpt><trkpt lat="43.002611171176845" lon="11.853532538444085"><ele>521.0</ele><time>2026-05-02T14:03:59Z</time></trkpt><trkpt lat="43.00248373996331" lon="11.85358237797974"><ele>521.0</ele><time>2026-05-02T14:04:00Z</time></trkpt><trkpt lat="43.0023337071333" lon="11.853593294118202"><ele>522.6666666666666</ele><time>2026-05-02T14:04:01Z</time></trkpt><trkpt lat="43.00215965800431" lon="11.853605705032637"><ele>524.3333333333334</ele><time>2026-05-02T14:04:02Z</time></trkpt><trkpt lat="43.001969340463305" lon="11.853632915749854"><ele>526.0</ele><time>2026-05-02T14:04:03Z</time></trkpt><trkpt lat="43.00178034949143" lon="11.853634486090035"><ele>528.3333333333334</ele><time>2026-05-02T14:04:04Z</time></trkpt><trkpt lat="43.00160681017981" lon="11.85363518203766"><ele>530.6666666666666</ele><time>2026-05-02T14:04:05Z</time></trkpt><trkpt lat="43.00143768530737" lon="11.85364337413337"><ele>533.0</ele><time>2026-05-02T14:04:06Z</time></trkpt><trkpt lat="43.00127293780372" lon="11.853649296131811"><ele>533.0</ele><time>2026-05-02T14:04:07Z</time></trkpt><trkpt lat="43.00112548375826" lon="11.853655245689378"><ele>533.0</ele><time>2026-05-02T14:04:08Z</time></trkpt><trkpt lat="43.00099400189437" lon="11.853663522091841"><ele>533.0</ele><time>2026-05-02T14:04:09Z</time></trkpt><trkpt lat="43.00087801863195" lon="11.8536807973799"><ele>533.0</ele><time>2026-05-02T14:04:10Z</time></trkpt><trkpt lat="43.00076761721539" lon="11.853709292793111"><ele>536.5</ele><time>2026-05-02T14:04:11Z</time></trkpt><trkpt lat="43.0006793196682" lon="11.853771311367996"><ele>540.0</ele><time>2026-05-02T14:04:12Z</time></trkpt><trkpt lat="43.0005950627461" lon="11.853867519788484"><ele>543.5</ele><time>2026-05-02T14:04:13Z</time></trkpt><trkpt lat="43.00052851961128" lon="11.854005324333638"><ele>547.0</ele><time>2026-05-02T14:04:14Z</time></trkpt><trkpt lat="43.00046421903622" lon="11.85417761204602"><ele>546.0</ele><time>2026-05-02T14:04:15Z</time></trkpt><trkpt lat="43.00040379686895" lon="11.85435587805554"><ele>545.0</ele><time>2026-05-02T14:04:16Z</time></trkpt><trkpt lat="43.00034920413609" lon="11.854503573915077"><ele>544.0</ele><time>2026-05-02T14:04:17Z</time></trkpt><trkpt lat="43.00028480924647" lon="11.85462856025918"><ele>543.0</ele><time>2026-05-02T14:04:18Z</time></trkpt><trkpt lat="43.000182696865245" lon="11.854697599121389"><ele>543.0</ele><time>2026-05-02T14:04:19.001Z</time></trkpt><trkpt lat="43.00006282023188" lon="11.854765860669492"><ele>543.0</ele><time>2026-05-02T14:04:20.001Z</time></trkpt><trkpt lat="42.99991288342862" lon="11.854856867660096"><ele>543.0</ele><time>2026-05-02T14:04:21.001Z</time></trkpt><trkpt lat="42.999758576468615" lon="11.854956915133656"><ele>543.0</ele><time>2026-05-02T14:04:22.001Z</time></trkpt><trkpt lat="42.99959403208925" lon="11.855059718181524"><ele>543.0</ele><time>2026-05-02T14:04:23.001Z</time></trkpt><trkpt lat="42.99944136027155" lon="11.855149822337731"><ele>543.0</ele><time>2026-05-02T14:04:24.001Z</time></trkpt><trkpt lat="42.999311603179805" lon="11.855229477681757"><ele>544.25</ele><time>2026-05-02T14:04:25.001Z</time></trkpt><trkpt lat="42.999190234982954" lon="11.855304243917725"><ele>545.5</ele><time>2026-05-02T14:04:26.001Z</time></trkpt><trkpt lat="42.99907403386824" lon="11.855375921747438"><ele>546.75</ele><time>2026-05-02T14:04:27.001Z</time></trkpt><trkpt lat="42.99895104523149" lon="11.855445561593115"><ele>548.0</ele><time>2026-05-02T14:04:28.001Z</time></trkpt><trkpt lat="42.99883530472908" lon="11.855506046495938"><ele>548.0</ele><time>2026-05-02T14:04:29.001Z</time></trkpt><trkpt lat="42.99872522599033" lon="11.855572322125635"><ele>548.0</ele><time>2026-05-02T14:04:30.001Z</time></trkpt><trkpt lat="42.99861551635736" lon="11.855652558061497"><ele>548.0</ele><time>2026-05-02T14:04:31.001Z</time></trkpt><trkpt lat="42.99849699459913" lon="11.855759127615473"><ele>548.0</ele><time>2026-05-02T14:04:32.001Z</time></trkpt><trkpt lat="42.99838417760376" lon="11.855887369314068"><ele>547.75</ele><time>2026-05-02T14:04:33.001Z</time></trkpt><trkpt lat="42.998269667464754" lon="11.856022029727233"><ele>547.5</ele><time>2026-05-02T14:04:34.001Z</time></trkpt><trkpt lat="42.998163796324576" lon="11.856155487147172"><ele>547.25</ele><time>2026-05-02T14:04:35.001Z</time></trkpt><trkpt lat="42.998071294855826" lon="11.856290694069857"><ele>547.0</ele><time>2026-05-02T14:04:36.001Z</time></trkpt><trkpt lat="42.998005262173876" lon="11.856443095669404"><ele>547.0</ele><time>2026-05-02T14:04:37.001Z</time></trkpt><trkpt lat="42.99796958157536" lon="11.856606487980555"><ele>547.0</ele><time>2026-05-02T14:04:38.001Z</time></trkpt><trkpt lat="42.997956401018" lon="11.856770759726066"><ele>547.0</ele><time>2026-05-02T14:04:39.001Z</time></trkpt><trkpt lat="42.997973051416764" lon="11.85694231303409"><ele>547.0</ele><time>2026-05-02T14:04:40.001Z</time></trkpt><trkpt lat="42.99800662809004" lon="11.857161333805694"><ele>545.0</ele><time>2026-05-02T14:04:41.001Z</time></trkpt><trkpt lat="42.998056942618234" lon="11.857396720726694"><ele>543.0</ele><time>2026-05-02T14:04:42.001Z</time></trkpt><trkpt lat="42.99811648419391" lon="11.857632810703771"><ele>541.0</ele><time>2026-05-02T14:04:43.001Z</time></trkpt><trkpt lat="42.998176109917615" lon="11.857863909609485"><ele>540.3333333333334</ele><time>2026-05-02T14:04:44.001Z</time></trkpt><trkpt lat="42.99823616526424" lon="11.858091907707921"><ele>539.6666666666666</ele><time>2026-05-02T14:04:45.001Z</time></trkpt><trkpt lat="42.99829581440224" lon="11.858314939368773"><ele>539.0</ele><time>2026-05-02T14:04:46.001Z</time></trkpt><trkpt lat="42.99835158861295" lon="11.858538608797637"><ele>535.0</ele><time>2026-05-02T14:04:47.001Z</time></trkpt><trkpt lat="42.998401141829206" lon="11.858753778294586"><ele>531.0</ele><time>2026-05-02T14:04:48.001Z</time></trkpt><trkpt lat="42.99844554102221" lon="11.85895855426763"><ele>527.0</ele><time>2026-05-02T14:04:49.001Z</time></trkpt><trkpt lat="42.998483331098974" lon="11.859168574241906"><ele>526.75</ele><time>2026-05-02T14:04:50.001Z</time></trkpt><trkpt lat="42.99851273785164" lon="11.859376782413747"><ele>526.5</ele><time>2026-05-02T14:04:51.001Z</time></trkpt><trkpt lat="42.99853213185062" lon="11.859571014171651"><ele>526.25</ele><time>2026-05-02T14:04:52.001Z</time></trkpt><trkpt lat="42.998538295196624" lon="11.859749882533942"><ele>526.0</ele><time>2026-05-02T14:04:53.001Z</time></trkpt><trkpt lat="42.99852279653291" lon="11.859921909968357"><ele>526.0</ele><time>2026-05-02T14:04:54.001Z</time></trkpt><trkpt lat="42.99848337456539" lon="11.860080943196937"><ele>526.0</ele><time>2026-05-02T14:04:55.001Z</time></trkpt><trkpt lat="42.99843108355053" lon="11.860227733527866"><ele>526.0</ele><time>2026-05-02T14:04:56.001Z</time></trkpt><trkpt lat="42.99836982265251" lon="11.860360962151193"><ele>526.0</ele><time>2026-05-02T14:04:57.001Z</time></trkpt><trkpt lat="42.998286951301935" lon="11.860480142546507"><ele>526.5</ele><time>2026-05-02T14:04:58.001Z</time></trkpt><trkpt lat="42.99818490264089" lon="11.860595202584278"><ele>527.0</ele><time>2026-05-02T14:04:59.001Z</time></trkpt><trkpt lat="42.99807037854119" lon="11.86068371808652"><ele>527.5</ele><time>2026-05-02T14:05:00.001Z</time></trkpt><trkpt lat="42.99794904823728" lon="11.860761958611727"><ele>528.0</ele><time>2026-05-02T14:05:01.001Z</time></trkpt><trkpt lat="42.99782974326205" lon="11.860838579987792"><ele>528.0</ele><time>2026-05-02T14:05:02.001Z</time></trkpt><trkpt lat="42.997713848055476" lon="11.860912903964158"><ele>528.0</ele><time>2026-05-02T14:05:03.001Z</time></trkpt><trkpt lat="42.99760300636493" lon="11.860981247038033"><ele>528.0</ele><time>2026-05-02T14:05:04.001Z</time></trkpt><trkpt lat="42.997499013391696" lon="11.861044416630007"><ele>528.0</ele><time>2026-05-02T14:05:05.001Z</time></trkpt><trkpt lat="42.99740583677289" lon="11.861105484466753"><ele>527.6666666666666</ele><time>2026-05-02T14:05:06.001Z</time></trkpt><trkpt lat="42.997319472412386" lon="11.86116306342327"><ele>527.3333333333334</ele><time>2026-05-02T14:05:07.001Z</time></trkpt><trkpt lat="42.99723797308585" lon="11.861216461275374"><ele>527.0</ele><time>2026-05-02T14:05:08.001Z</time></trkpt><trkpt lat="42.99716274927032" lon="11.861263911207661"><ele>526.6666666666667</ele><time>2026-05-02T14:05:09.001Z</time></trkpt><trkpt lat="42.99708628713002" lon="11.861314369683276"><ele>526.3333333333334</ele><time>2026-05-02T14:05:10.001Z</time></trkpt><trkpt lat="42.99700627830956" lon="11.861364109433373"><ele>526.0</ele><time>2026-05-02T14:05:11.001Z</time></trkpt><trkpt lat="42.996920250069316" lon="11.861412582206066"><ele>526.0</ele><time>2026-05-02T14:05:12.001Z</time></trkpt><trkpt lat="42.99683149673265" lon="11.861465366826154"><ele>526.0</ele><time>2026-05-02T14:05:13.001Z</time></trkpt><trkpt lat="42.99674038907057" lon="11.861520311678756"><ele>526.0</ele><time>2026-05-02T14:05:14.001Z</time></trkpt><trkpt lat="42.99664475460741" lon="11.861579907040309"><ele>526.0</ele><time>2026-05-02T14:05:15.001Z</time></trkpt><trkpt lat="42.99654933771034" lon="11.861641479825428"><ele>526.0</ele><time>2026-05-02T14:05:16.001Z</time></trkpt><trkpt lat="42.99645251271368" lon="11.86170430963521"><ele>525.8</ele><time>2026-05-02T14:05:17.001Z</time></trkpt><trkpt lat="42.99636022007408" lon="11.861761149016468"><ele>525.6</ele><time>2026-05-02T14:05:18Z</time></trkpt><trkpt lat="42.99627239872286" lon="11.861818200117138"><ele>525.4</ele><time>2026-05-02T14:05:19Z</time></trkpt><trkpt lat="42.99618989696107" lon="11.861868917410025"><ele>525.2</ele><time>2026-05-02T14:05:20Z</time></trkpt><trkpt lat="42.996112896884995" lon="11.8619175064067"><ele>525.0</ele><time>2026-05-02T14:05:21Z</time></trkpt><trkpt lat="42.99603949429548" lon="11.861963868982983"><ele>525.2</ele><time>2026-05-02T14:05:22Z</time></trkpt><trkpt lat="42.99597363046377" lon="11.862000169292154"><ele>525.4</ele><time>2026-05-02T14:05:23Z</time></trkpt><trkpt lat="42.99589464531067" lon="11.862050967327075"><ele>525.6</ele><time>2026-05-02T14:05:24Z</time></trkpt><trkpt lat="42.995799790318614" lon="11.862113049153937"><ele>525.8</ele><time>2026-05-02T14:05:25Z</time></trkpt><trkpt lat="42.995696577892645" lon="11.86217542531307"><ele>526.0</ele><time>2026-05-02T14:05:26Z</time></trkpt><trkpt lat="42.99559365792644" lon="11.862238491123845"><ele>526.0</ele><time>2026-05-02T14:05:27Z</time></trkpt><trkpt lat="42.995486491695466" lon="11.862309294265426"><ele>526.0</ele><time>2026-05-02T14:05:28Z</time></trkpt><trkpt lat="42.99536593133284" lon="11.862384721873061"><ele>526.0</ele><time>2026-05-02T14:05:29Z</time></trkpt><trkpt lat="42.99524835923845" lon="11.862460986828786"><ele>526.0</ele><time>2026-05-02T14:05:30Z</time></trkpt><trkpt lat="42.99513108094342" lon="11.862547986259607"><ele>526.25</ele><time>2026-05-02T14:05:31Z</time></trkpt><trkpt lat="42.995012785010836" lon="11.862626488504954"><ele>526.5</ele><time>2026-05-02T14:05:32Z</time></trkpt><trkpt lat="42.99489349103082" lon="11.862697243599479"><ele>526.75</ele><time>2026-05-02T14:05:33Z</time></trkpt><trkpt lat="42.99478112180148" lon="11.862774614937807"><ele>527.0</ele><time>2026-05-02T14:05:34Z</time></trkpt><trkpt lat="42.99467544844964" lon="11.862843054629048"><ele>527.4</ele><time>2026-05-02T14:05:35Z</time></trkpt><trkpt lat="42.994571344487355" lon="11.862907022996756"><ele>527.8000000000001</ele><time>2026-05-02T14:05:36Z</time></trkpt><trkpt lat="42.994473006236504" lon="11.862970887499314"><ele>528.2</ele><time>2026-05-02T14:05:37Z</time></trkpt><trkpt lat="42.99437588521952" lon="11.863035829248506"><ele>528.6</ele><time>2026-05-02T14:05:38Z</time></trkpt><trkpt lat="42.9942859322464" lon="11.8630973908005"><ele>529.0</ele><time>2026-05-02T14:05:39Z</time></trkpt><trkpt lat="42.99420246687415" lon="11.863147239496731"><ele>528.6</ele><time>2026-05-02T14:05:40Z</time></trkpt><trkpt lat="42.994135442272785" lon="11.863193847074573"><ele>528.2</ele><time>2026-05-02T14:05:41Z</time></trkpt><trkpt lat="42.99407439662751" lon="11.86323407899882"><ele>527.8000000000001</ele><time>2026-05-02T14:05:42Z</time></trkpt><trkpt lat="42.993973077992166" lon="11.863299720851172"><ele>527.4</ele><time>2026-05-02T14:05:44Z</time></trkpt><trkpt lat="42.99384977409665" lon="11.863375427507318"><ele>527.0</ele><time>2026-05-02T14:05:46Z</time></trkpt><trkpt lat="42.993767221034666" lon="11.863425244620739"><ele>527.2</ele><time>2026-05-02T14:05:47Z</time></trkpt><trkpt lat="42.99367906102822" lon="11.863482276957159"><ele>527.4000000000001</ele><time>2026-05-02T14:05:48Z</time></trkpt><trkpt lat="42.99358825125806" lon="11.863540656295486"><ele>527.5999999999999</ele><time>2026-05-02T14:05:49Z</time></trkpt><trkpt lat="42.99349439456794" lon="11.863599251636588"><ele>527.8</ele><time>2026-05-02T14:05:50Z</time></trkpt><trkpt lat="42.99340093992696" lon="11.86365563282094"><ele>528.0</ele><time>2026-05-02T14:05:51Z</time></trkpt><trkpt lat="42.993309926009175" lon="11.863712851180685"><ele>528.0</ele><time>2026-05-02T14:05:52Z</time></trkpt><trkpt lat="42.99321612853107" lon="11.863774266563803"><ele>528.0</ele><time>2026-05-02T14:05:53Z</time></trkpt><trkpt lat="42.99312483340079" lon="11.863832680841552"><ele>528.0</ele><time>2026-05-02T14:05:54Z</time></trkpt><trkpt lat="42.99303059494003" lon="11.863889328968012"><ele>528.0</ele><time>2026-05-02T14:05:55Z</time></trkpt><trkpt lat="42.99293448146506" lon="11.86395101571105"><ele>528.0</ele><time>2026-05-02T14:05:56Z</time></trkpt><trkpt lat="42.99283944260501" lon="11.864011005316781"><ele>528.0</ele><time>2026-05-02T14:05:57Z</time></trkpt><trkpt lat="42.992743073818716" lon="11.864074655022055"><ele>528.0</ele><time>2026-05-02T14:05:58Z</time></trkpt><trkpt lat="42.992654254182405" lon="11.864130958819771"><ele>528.0</ele><time>2026-05-02T14:05:59Z</time></trkpt><trkpt lat="42.992569406796235" lon="11.864184051874988"><ele>528.0</ele><time>2026-05-02T14:06:00Z</time></trkpt><trkpt lat="42.99247658355285" lon="11.864248183688346"><ele>528.0</ele><time>2026-05-02T14:06:01Z</time></trkpt><trkpt lat="42.992378261831" lon="11.864310150467338"><ele>527.8</ele><time>2026-05-02T14:06:02Z</time></trkpt><trkpt lat="42.992286376039246" lon="11.86436500062344"><ele>527.5999999999999</ele><time>2026-05-02T14:06:03Z</time></trkpt><trkpt lat="42.992190135018234" lon="11.864408151095374"><ele>527.4000000000001</ele><time>2026-05-02T14:06:04Z</time></trkpt><trkpt lat="42.99208948004869" lon="11.864424913260835"><ele>527.2</ele><time>2026-05-02T14:06:05Z</time></trkpt><trkpt lat="42.99198880519278" lon="11.864419561384707"><ele>527.0</ele><time>2026-05-02T14:06:06Z</time></trkpt><trkpt lat="42.991888562262425" lon="11.86439637366297"><ele>527.0</ele><time>2026-05-02T14:06:07Z</time></trkpt><trkpt lat="42.99179604657184" lon="11.864339682172316"><ele>527.0</ele><time>2026-05-02T14:06:08Z</time></trkpt><trkpt lat="42.99170741673156" lon="11.864271399912212"><ele>527.0</ele><time>2026-05-02T14:06:09Z</time></trkpt><trkpt lat="42.991614970215096" lon="11.864206946118138"><ele>527.0</ele><time>2026-05-02T14:06:10Z</time></trkpt><trkpt lat="42.991529545081164" lon="11.86413325051296"><ele>527.0</ele><time>2026-05-02T14:06:11Z</time></trkpt><trkpt lat="42.99145073262516" lon="11.864073266137922"><ele>528.2</ele><time>2026-05-02T14:06:12Z</time></trkpt><trkpt lat="42.991364017627056" lon="11.864023831258509"><ele>529.4000000000001</ele><time>2026-05-02T14:06:13Z</time></trkpt><trkpt lat="42.991274749843015" lon="11.863994465013958"><ele>530.5999999999999</ele><time>2026-05-02T14:06:14Z</time></trkpt><trkpt lat="42.99118124874284" lon="11.863997171499674"><ele>531.8</ele><time>2026-05-02T14:06:15Z</time></trkpt><trkpt lat="42.99109380972039" lon="11.864026505920858"><ele>533.0</ele><time>2026-05-02T14:06:16Z</time></trkpt><trkpt lat="42.99100859776742" lon="11.86406377712938"><ele>533.0</ele><time>2026-05-02T14:06:17Z</time></trkpt><trkpt lat="42.99092393171465" lon="11.864156293033579"><ele>533.0</ele><time>2026-05-02T14:06:18Z</time></trkpt><trkpt lat="42.99083481168821" lon="11.864254083960867"><ele>533.0</ele><time>2026-05-02T14:06:19Z</time></trkpt><trkpt lat="42.990756112769354" lon="11.86434971225832"><ele>533.0</ele><time>2026-05-02T14:06:20Z</time></trkpt><trkpt lat="42.99069395054929" lon="11.864449695604643"><ele>533.0</ele><time>2026-05-02T14:06:21Z</time></trkpt><trkpt lat="42.99061985676003" lon="11.864531261339792"><ele>533.6</ele><time>2026-05-02T14:06:22Z</time></trkpt><trkpt lat="42.99054583441962" lon="11.864617726004337"><ele>534.1999999999999</ele><time>2026-05-02T14:06:23Z</time></trkpt><trkpt lat="42.99046546599233" lon="11.864703233358533"><ele>534.8</ele><time>2026-05-02T14:06:24Z</time></trkpt><trkpt lat="42.990392110957586" lon="11.864777600867288"><ele>535.4</ele><time>2026-05-02T14:06:25Z</time></trkpt><trkpt lat="42.99032285765922" lon="11.864856366833719"><ele>536.0</ele><time>2026-05-02T14:06:26Z</time></trkpt><trkpt lat="42.99025485726785" lon="11.864929590355946"><ele>536.0</ele><time>2026-05-02T14:06:27Z</time></trkpt><trkpt lat="42.99018870279366" lon="11.864995038367963"><ele>536.0</ele><time>2026-05-02T14:06:28Z</time></trkpt><trkpt lat="42.99011719140292" lon="11.865064202225904"><ele>536.0</ele><time>2026-05-02T14:06:29Z</time></trkpt><trkpt lat="42.99004363360218" lon="11.865126362947517"><ele>536.0</ele><time>2026-05-02T14:06:30Z</time></trkpt><trkpt lat="42.98996365024192" lon="11.86518854489525"><ele>536.0</ele><time>2026-05-02T14:06:31Z</time></trkpt><trkpt lat="42.98988135845559" lon="11.865257342570887"><ele>536.0</ele><time>2026-05-02T14:06:32.001Z</time></trkpt><trkpt lat="42.98980745609767" lon="11.865321621871338"><ele>537.3333333333333</ele><time>2026-05-02T14:06:33.001Z</time></trkpt><trkpt lat="42.9897423914582" lon="11.865382889014358"><ele>538.6666666666666</ele><time>2026-05-02T14:06:34.001Z</time></trkpt><trkpt lat="42.989683759303915" lon="11.86545450200122"><ele>540.0</ele><time>2026-05-02T14:06:35.001Z</time></trkpt><trkpt lat="42.989626421454005" lon="11.865550480691619"><ele>541.3333333333334</ele><time>2026-05-02T14:06:36.001Z</time></trkpt><trkpt lat="42.98957885971025" lon="11.865657118326803"><ele>542.6666666666667</ele><time>2026-05-02T14:06:37.001Z</time></trkpt><trkpt lat="42.98953775462175" lon="11.865757481548371"><ele>544.0</ele><time>2026-05-02T14:06:38.001Z</time></trkpt><trkpt lat="42.98949608782271" lon="11.865857668266425"><ele>545.1666666666667</ele><time>2026-05-02T14:06:39.001Z</time></trkpt><trkpt lat="42.98946298326796" lon="11.865950188013537"><ele>546.3333333333334</ele><time>2026-05-02T14:06:40.001Z</time></trkpt><trkpt lat="42.98941068267901" lon="11.866076624055099"><ele>547.5</ele><time>2026-05-02T14:06:42.001Z</time></trkpt><trkpt lat="42.989369087087184" lon="11.866176475541526"><ele>548.6666666666666</ele><time>2026-05-02T14:06:44.001Z</time></trkpt><trkpt lat="42.98933488286166" lon="11.866252394609255"><ele>549.8333333333333</ele><time>2026-05-02T14:06:46.001Z</time></trkpt><trkpt lat="42.989276916539836" lon="11.866336939426187"><ele>551.0</ele><time>2026-05-02T14:06:49.001Z</time></trkpt><trkpt lat="42.98918323078935" lon="11.866308137471302"><ele>547.6</ele><time>2026-05-02T14:06:52.001Z</time></trkpt><trkpt lat="42.98912886328157" lon="11.866174649668492"><ele>544.2</ele><time>2026-05-02T14:06:54.001Z</time></trkpt><trkpt lat="42.98910511897315" lon="11.866080637945961"><ele>540.8</ele><time>2026-05-02T14:06:55.001Z</time></trkpt><trkpt lat="42.989085706646385" lon="11.865990328107566"><ele>537.4</ele><time>2026-05-02T14:06:56.001Z</time></trkpt><trkpt lat="42.989064175168636" lon="11.865857543198652"><ele>534.0</ele><time>2026-05-02T14:06:58.001Z</time></trkpt><trkpt lat="42.98903110890592" lon="11.865714951716015"><ele>534.0</ele><time>2026-05-02T14:07:00.001Z</time></trkpt><trkpt lat="42.98900634939022" lon="11.865608178658222"><ele>534.0</ele><time>2026-05-02T14:07:02.001Z</time></trkpt><trkpt lat="42.98897718445794" lon="11.865473538418223"><ele>534.0</ele><time>2026-05-02T14:07:04.001Z</time></trkpt><trkpt lat="42.98895428649574" lon="11.865360869142778"><ele>534.0</ele><time>2026-05-02T14:07:06.001Z</time></trkpt><trkpt lat="42.988793980633645" lon="11.865302188289322"><ele>534.0</ele><time>2026-05-02T14:07:09.001Z</time></trkpt><trkpt lat="42.98868849595205" lon="11.865282842722989"><ele>534.0</ele><time>2026-05-02T14:07:11.001Z</time></trkpt><trkpt lat="42.98858316528013" lon="11.865269325523304"><ele>534.0</ele><time>2026-05-02T14:07:13.001Z</time></trkpt><trkpt lat="42.98851672927026" lon="11.86526149136976"><ele>534.0</ele><time>2026-05-02T14:07:14.001Z</time></trkpt><trkpt lat="42.98845401512683" lon="11.865252412446"><ele>534.0</ele><time>2026-05-02T14:07:15.001Z</time></trkpt><trkpt lat="42.9883372470538" lon="11.865229869107363"><ele>534.0</ele><time>2026-05-02T14:07:17.001Z</time></trkpt><trkpt lat="42.98823767850395" lon="11.865201739643569"><ele>533.6666666666666</ele><time>2026-05-02T14:07:19.001Z</time></trkpt><trkpt lat="42.9881384235566" lon="11.865152200781822"><ele>533.3333333333334</ele><time>2026-05-02T14:07:21.001Z</time></trkpt><trkpt lat="42.98804708250898" lon="11.865092243927858"><ele>533.0</ele><time>2026-05-02T14:07:23.001Z</time></trkpt><trkpt lat="42.987972376832644" lon="11.865029110236657"><ele>532.6666666666667</ele><time>2026-05-02T14:07:25Z</time></trkpt><trkpt lat="42.98791146223463" lon="11.86498939239735"><ele>532.3333333333334</ele><time>2026-05-02T14:07:27Z</time></trkpt><trkpt lat="42.98782972013179" lon="11.864951850796931"><ele>532.0</ele><time>2026-05-02T14:07:29Z</time></trkpt><trkpt lat="42.98774813963405" lon="11.864980237425899"><ele>532.0</ele><time>2026-05-02T14:07:31Z</time></trkpt><trkpt lat="42.9877053756378" lon="11.86507616620867"><ele>532.0</ele><time>2026-05-02T14:07:33Z</time></trkpt><trkpt lat="42.98768765832798" lon="11.865173046602406"><ele>532.0</ele><time>2026-05-02T14:07:34Z</time></trkpt><trkpt lat="42.98764495766285" lon="11.86531408491102"><ele>532.0</ele><time>2026-05-02T14:07:35Z</time></trkpt><trkpt lat="42.987568385450544" lon="11.865470844622909"><ele>532.0</ele><time>2026-05-02T14:07:36Z</time></trkpt><trkpt lat="42.98747606292038" lon="11.865652048556965"><ele>531.3333333333334</ele><time>2026-05-02T14:07:37Z</time></trkpt><trkpt lat="42.98739350000418" lon="11.8658468162894"><ele>530.6666666666666</ele><time>2026-05-02T14:07:38Z</time></trkpt><trkpt lat="42.987331652346924" lon="11.866039746783434"><ele>530.0</ele><time>2026-05-02T14:07:39Z</time></trkpt><trkpt lat="42.98730016671541" lon="11.866225244670439"><ele>529.5</ele><time>2026-05-02T14:07:40Z</time></trkpt><trkpt lat="42.98729880813334" lon="11.866417297632326"><ele>529.0</ele><time>2026-05-02T14:07:41Z</time></trkpt><trkpt lat="42.987306120341636" lon="11.866617714500089"><ele>528.5</ele><time>2026-05-02T14:07:42Z</time></trkpt><trkpt lat="42.98735897965505" lon="11.866811943522858"><ele>528.0</ele><time>2026-05-02T14:07:43Z</time></trkpt><trkpt lat="42.987431642462795" lon="11.866994800916796"><ele>528.0</ele><time>2026-05-02T14:07:44Z</time></trkpt><trkpt lat="42.98748454626315" lon="11.867171221240186"><ele>528.0</ele><time>2026-05-02T14:07:45Z</time></trkpt><trkpt lat="42.98752711639633" lon="11.867336302892868"><ele>528.0</ele><time>2026-05-02T14:07:46Z</time></trkpt><trkpt lat="42.98755675816278" lon="11.867485859427962"><ele>528.0</ele><time>2026-05-02T14:07:47Z</time></trkpt><trkpt lat="42.98756975929235" lon="11.867621235567297"><ele>528.0</ele><time>2026-05-02T14:07:48Z</time></trkpt><trkpt lat="42.98758334298972" lon="11.867768578090029"><ele>528.0</ele><time>2026-05-02T14:07:49Z</time></trkpt><trkpt lat="42.98759721646815" lon="11.867948220692359"><ele>528.0</ele><time>2026-05-02T14:07:50Z</time></trkpt><trkpt lat="42.987615936689345" lon="11.86813982968863"><ele>528.0</ele><time>2026-05-02T14:07:51Z</time></trkpt><trkpt lat="42.98765273797007" lon="11.868365525161943"><ele>528.0</ele><time>2026-05-02T14:07:52Z</time></trkpt><trkpt lat="42.98767271204571" lon="11.868581768297723"><ele>528.0</ele><time>2026-05-02T14:07:53Z</time></trkpt><trkpt lat="42.987691852264504" lon="11.86878644603584"><ele>528.0</ele><time>2026-05-02T14:07:54Z</time></trkpt><trkpt lat="42.98770722149762" lon="11.868971815359025"><ele>528.0</ele><time>2026-05-02T14:07:55Z</time></trkpt><trkpt lat="42.987704137527295" lon="11.869145937601912"><ele>527.6</ele><time>2026-05-02T14:07:56Z</time></trkpt><trkpt lat="42.9877160881108" lon="11.869305763899531"><ele>527.1999999999999</ele><time>2026-05-02T14:07:57Z</time></trkpt><trkpt lat="42.987727127254736" lon="11.869450408210119"><ele>526.8</ele><time>2026-05-02T14:07:58Z</time></trkpt><trkpt lat="42.98773564178955" lon="11.869583297118885"><ele>526.4</ele><time>2026-05-02T14:07:59Z</time></trkpt><trkpt lat="42.98775281461583" lon="11.869697641899078"><ele>526.0</ele><time>2026-05-02T14:08:00Z</time></trkpt><trkpt lat="42.987735287628226" lon="11.86981180376005"><ele>526.0</ele><time>2026-05-02T14:08:01Z</time></trkpt><trkpt lat="42.98770008062566" lon="11.869936232891455"><ele>526.0</ele><time>2026-05-02T14:08:02Z</time></trkpt><trkpt lat="42.98763306833543" lon="11.870042934801086"><ele>526.0</ele><time>2026-05-02T14:08:03Z</time></trkpt><trkpt lat="42.98754046100474" lon="11.870124153125344"><ele>526.0</ele><time>2026-05-02T14:08:04Z</time></trkpt><trkpt lat="42.98742240494186" lon="11.870186353016017"><ele>526.0</ele><time>2026-05-02T14:08:05Z</time></trkpt><trkpt lat="42.987284481416665" lon="11.870210348508445"><ele>524.6666666666667</ele><time>2026-05-02T14:08:06Z</time></trkpt><trkpt lat="42.987123119826926" lon="11.870177328231208"><ele>523.3333333333334</ele><time>2026-05-02T14:08:07Z</time></trkpt><trkpt lat="42.986956406340894" lon="11.870196290930592"><ele>522.0</ele><time>2026-05-02T14:08:08Z</time></trkpt><trkpt lat="42.986802036107804" lon="11.870184770291521"><ele>521.75</ele><time>2026-05-02T14:08:09Z</time></trkpt><trkpt lat="42.98664349173454" lon="11.87018316047839"><ele>521.5</ele><time>2026-05-02T14:08:10Z</time></trkpt><trkpt lat="42.98649728838804" lon="11.870179059787503"><ele>521.25</ele><time>2026-05-02T14:08:11Z</time></trkpt><trkpt lat="42.98636105458273" lon="11.870177268496555"><ele>521.0</ele><time>2026-05-02T14:08:12Z</time></trkpt><trkpt lat="42.986230410724886" lon="11.870177184717916"><ele>521.0</ele><time>2026-05-02T14:08:13Z</time></trkpt><trkpt lat="42.986064600900626" lon="11.8701854980691"><ele>521.0</ele><time>2026-05-02T14:08:14Z</time></trkpt><trkpt lat="42.98588162557562" lon="11.870202017045996"><ele>521.0</ele><time>2026-05-02T14:08:15Z</time></trkpt><trkpt lat="42.98568835599949" lon="11.870222577565274"><ele>520.6666666666666</ele><time>2026-05-02T14:08:16Z</time></trkpt><trkpt lat="42.985494950938964" lon="11.870246881109491"><ele>520.3333333333334</ele><time>2026-05-02T14:08:17Z</time></trkpt><trkpt lat="42.98530636298712" lon="11.870265753388532"><ele>520.0</ele><time>2026-05-02T14:08:18Z</time></trkpt><trkpt lat="42.98511645823688" lon="11.870285483431795"><ele>521.0</ele><time>2026-05-02T14:08:19Z</time></trkpt><trkpt lat="42.98493144864651" lon="11.870310693050484"><ele>522.0</ele><time>2026-05-02T14:08:20Z</time></trkpt><trkpt lat="42.98474703651909" lon="11.870335179900508"><ele>523.0</ele><time>2026-05-02T14:08:21Z</time></trkpt><trkpt lat="42.98455874480145" lon="11.870355830828247"><ele>523.0</ele><time>2026-05-02T14:08:22Z</time></trkpt><trkpt lat="42.98438083065306" lon="11.87037461026337"><ele>523.0</ele><time>2026-05-02T14:08:23Z</time></trkpt><trkpt lat="42.98421619622299" lon="11.870366966956022"><ele>523.0</ele><time>2026-05-02T14:08:24Z</time></trkpt><trkpt lat="42.98405397837356" lon="11.87029475250429"><ele>522.6666666666667</ele><time>2026-05-02T14:08:25Z</time></trkpt><trkpt lat="42.98387506569138" lon="11.870189468553576"><ele>522.3333333333334</ele><time>2026-05-02T14:08:26Z</time></trkpt><trkpt lat="42.98368102587479" lon="11.87007668408285"><ele>522.0</ele><time>2026-05-02T14:08:27Z</time></trkpt><trkpt lat="42.9834815362304" lon="11.86997456963151"><ele>522.6666666666666</ele><time>2026-05-02T14:08:28Z</time></trkpt><trkpt lat="42.983303958916814" lon="11.869852735775902"><ele>523.3333333333333</ele><time>2026-05-02T14:08:29Z</time></trkpt><trkpt lat="42.98315471864018" lon="11.869696039556402"><ele>524.0</ele><time>2026-05-02T14:08:30Z</time></trkpt><trkpt lat="42.98300999732048" lon="11.869535404128179"><ele>524.0</ele><time>2026-05-02T14:08:31Z</time></trkpt><trkpt lat="42.98285342387228" lon="11.869353799711213"><ele>524.0</ele><time>2026-05-02T14:08:32Z</time></trkpt><trkpt lat="42.98270843095995" lon="11.869144176120328"><ele>524.0</ele><time>2026-05-02T14:08:33Z</time></trkpt><trkpt lat="42.98256643412489" lon="11.86893175802713"><ele>525.3333333333333</ele><time>2026-05-02T14:08:34Z</time></trkpt><trkpt lat="42.982446742755876" lon="11.86872162244194"><ele>526.6666666666666</ele><time>2026-05-02T14:08:35Z</time></trkpt><trkpt lat="42.982357533338835" lon="11.86851794503842"><ele>528.0</ele><time>2026-05-02T14:08:36Z</time></trkpt><trkpt lat="42.98227818692721" lon="11.868336274513174"><ele>528.6666666666666</ele><time>2026-05-02T14:08:37Z</time></trkpt><trkpt lat="42.98218894951939" lon="11.868159997380229"><ele>529.3333333333333</ele><time>2026-05-02T14:08:38Z</time></trkpt><trkpt lat="42.98207002728416" lon="11.867983439412454"><ele>530.0</ele><time>2026-05-02T14:08:39Z</time></trkpt><trkpt lat="42.98192156027124" lon="11.867820278442048"><ele>530.0</ele><time>2026-05-02T14:08:40Z</time></trkpt><trkpt lat="42.9817751238768" lon="11.867672399211864"><ele>530.0</ele><time>2026-05-02T14:08:41Z</time></trkpt><trkpt lat="42.98164500402716" lon="11.867552834148988"><ele>530.0</ele><time>2026-05-02T14:08:42Z</time></trkpt><trkpt lat="42.981519093997036" lon="11.867454267011633"><ele>532.6666666666666</ele><time>2026-05-02T14:08:43.001Z</time></trkpt><trkpt lat="42.981387017307355" lon="11.867386083315825"><ele>535.3333333333334</ele><time>2026-05-02T14:08:44.001Z</time></trkpt><trkpt lat="42.981233006217764" lon="11.867345109599228"><ele>538.0</ele><time>2026-05-02T14:08:45.001Z</time></trkpt><trkpt lat="42.981059923992206" lon="11.867302975347368"><ele>538.0</ele><time>2026-05-02T14:08:46.001Z</time></trkpt><trkpt lat="42.98087461926127" lon="11.867258912057181"><ele>538.0</ele><time>2026-05-02T14:08:47.001Z</time></trkpt><trkpt lat="42.98068586416334" lon="11.867199398964637"><ele>538.0</ele><time>2026-05-02T14:08:48.001Z</time></trkpt><trkpt lat="42.98050093667482" lon="11.867129616530374"><ele>539.3333333333334</ele><time>2026-05-02T14:08:49.001Z</time></trkpt><trkpt lat="42.98032493249323" lon="11.867093024721008"><ele>540.6666666666666</ele><time>2026-05-02T14:08:50.001Z</time></trkpt><trkpt lat="42.98017704728621" lon="11.866900267163352"><ele>542.0</ele><time>2026-05-02T14:08:51.001Z</time></trkpt><trkpt lat="42.98002955194489" lon="11.866737519330279"><ele>543.3333333333333</ele><time>2026-05-02T14:08:52.001Z</time></trkpt><trkpt lat="42.97990392250044" lon="11.866547109125541"><ele>544.6666666666666</ele><time>2026-05-02T14:08:53.001Z</time></trkpt><trkpt lat="42.979796060048045" lon="11.86633788679825"><ele>546.0</ele><time>2026-05-02T14:08:54.001Z</time></trkpt><trkpt lat="42.97971275359814" lon="11.866117052551534"><ele>547.3333333333334</ele><time>2026-05-02T14:08:55.001Z</time></trkpt><trkpt lat="42.979648197812516" lon="11.865874375400352"><ele>548.6666666666667</ele><time>2026-05-02T14:08:56.001Z</time></trkpt><trkpt lat="42.97959379181542" lon="11.865614545595482"><ele>550.0</ele><time>2026-05-02T14:08:57.001Z</time></trkpt><trkpt lat="42.97953923633138" lon="11.865343364484012"><ele>550.3333333333334</ele><time>2026-05-02T14:08:58.001Z</time></trkpt><trkpt lat="42.97947347071493" lon="11.865079996834305"><ele>550.6666666666666</ele><time>2026-05-02T14:08:59.001Z</time></trkpt><trkpt lat="42.97941816175854" lon="11.864844363210995"><ele>551.0</ele><time>2026-05-02T14:09:00.001Z</time></trkpt><trkpt lat="42.9793785462701" lon="11.864636262090364"><ele>551.0</ele><time>2026-05-02T14:09:01.001Z</time></trkpt><trkpt lat="42.979368083266834" lon="11.864448352190283"><ele>551.0</ele><time>2026-05-02T14:09:02.001Z</time></trkpt><trkpt lat="42.97938054626112" lon="11.86427370890445"><ele>551.0</ele><time>2026-05-02T14:09:03.001Z</time></trkpt><trkpt lat="42.97943536545401" lon="11.864091592045234"><ele>551.0</ele><time>2026-05-02T14:09:04.001Z</time></trkpt><trkpt lat="42.979519947036465" lon="11.863927390651153"><ele>550.8</ele><time>2026-05-02T14:09:05.001Z</time></trkpt><trkpt lat="42.97963436497773" lon="11.863816500400596"><ele>550.6</ele><time>2026-05-02T14:09:06.001Z</time></trkpt><trkpt lat="42.97971053765185" lon="11.863705756232818"><ele>550.4</ele><time>2026-05-02T14:09:07.001Z</time></trkpt><trkpt lat="42.97976864693635" lon="11.863608805637847"><ele>550.2</ele><time>2026-05-02T14:09:08.001Z</time></trkpt><trkpt lat="42.97979005209564" lon="11.863505694539164"><ele>550.0</ele><time>2026-05-02T14:09:09.001Z</time></trkpt><trkpt lat="42.97978702792468" lon="11.863400790023881"><ele>551.6</ele><time>2026-05-02T14:09:10.001Z</time></trkpt><trkpt lat="42.97975283579316" lon="11.863295937097462"><ele>553.2</ele><time>2026-05-02T14:09:11.001Z</time></trkpt><trkpt lat="42.97968684519417" lon="11.863199710258584"><ele>554.8</ele><time>2026-05-02T14:09:12.001Z</time></trkpt><trkpt lat="42.97958954282593" lon="11.863138804635177"><ele>556.4</ele><time>2026-05-02T14:09:13.001Z</time></trkpt><trkpt lat="42.97948134856722" lon="11.863129344329712"><ele>558.0</ele><time>2026-05-02T14:09:14.001Z</time></trkpt><trkpt lat="42.97938355155538" lon="11.863183164549286"><ele>558.0</ele><time>2026-05-02T14:09:15.001Z</time></trkpt><trkpt lat="42.97930215304585" lon="11.863286850583068"><ele>558.0</ele><time>2026-05-02T14:09:16.001Z</time></trkpt><trkpt lat="42.97922734398982" lon="11.863430839306309"><ele>558.0</ele><time>2026-05-02T14:09:17.001Z</time></trkpt><trkpt lat="42.979131217604355" lon="11.86359012794941"><ele>558.0</ele><time>2026-05-02T14:09:18.001Z</time></trkpt><trkpt lat="42.97900635241008" lon="11.863762145311789"><ele>560.0</ele><time>2026-05-02T14:09:19.001Z</time></trkpt><trkpt lat="42.978862735468276" lon="11.863931463181666"><ele>562.0</ele><time>2026-05-02T14:09:20.001Z</time></trkpt><trkpt lat="42.97873030255428" lon="11.86408689056707"><ele>564.0</ele><time>2026-05-02T14:09:21.001Z</time></trkpt><trkpt lat="42.978622070056915" lon="11.86422314467801"><ele>563.75</ele><time>2026-05-02T14:09:22.001Z</time></trkpt><trkpt lat="42.97852013073314" lon="11.8643367644851"><ele>563.5</ele><time>2026-05-02T14:09:23.001Z</time></trkpt><trkpt lat="42.97842281020317" lon="11.864420305799353"><ele>563.25</ele><time>2026-05-02T14:09:24.001Z</time></trkpt><trkpt lat="42.97831220748431" lon="11.864455777273303"><ele>563.0</ele><time>2026-05-02T14:09:25.001Z</time></trkpt><trkpt lat="42.978192293501884" lon="11.864439427131929"><ele>563.0</ele><time>2026-05-02T14:09:26.001Z</time></trkpt><trkpt lat="42.97806909207566" lon="11.864366263650089"><ele>563.0</ele><time>2026-05-02T14:09:27.001Z</time></trkpt><trkpt lat="42.977936347089475" lon="11.864249218920872"><ele>563.0</ele><time>2026-05-02T14:09:28.001Z</time></trkpt><trkpt lat="42.97779433348329" lon="11.864102091463321"><ele>566.0</ele><time>2026-05-02T14:09:29.001Z</time></trkpt><trkpt lat="42.97764998064396" lon="11.863967909585416"><ele>569.0</ele><time>2026-05-02T14:09:30Z</time></trkpt><trkpt lat="42.97751761347334" lon="11.863866834836612"><ele>572.0</ele><time>2026-05-02T14:09:31Z</time></trkpt><trkpt lat="42.977408181930926" lon="11.86377841746939"><ele>574.0</ele><time>2026-05-02T14:09:32Z</time></trkpt><trkpt lat="42.97730542314965" lon="11.863718347269945"><ele>576.0</ele><time>2026-05-02T14:09:33Z</time></trkpt><trkpt lat="42.9771995104297" lon="11.863707916691999"><ele>578.0</ele><time>2026-05-02T14:09:34Z</time></trkpt><trkpt lat="42.977086412269976" lon="11.863760670148157"><ele>580.0</ele><time>2026-05-02T14:09:35Z</time></trkpt><trkpt lat="42.9769815497463" lon="11.86386600605545"><ele>580.0</ele><time>2026-05-02T14:09:36Z</time></trkpt><trkpt lat="42.97688202236019" lon="11.864025389825954"><ele>580.0</ele><time>2026-05-02T14:09:37Z</time></trkpt><trkpt lat="42.97678511250866" lon="11.864212135766465"><ele>580.0</ele><time>2026-05-02T14:09:38Z</time></trkpt><trkpt lat="42.976670349843964" lon="11.864359380903934"><ele>580.25</ele><time>2026-05-02T14:09:39Z</time></trkpt><trkpt lat="42.97658481758986" lon="11.864504150108175"><ele>580.5</ele><time>2026-05-02T14:09:40Z</time></trkpt><trkpt lat="42.9764687854285" lon="11.864596229054976"><ele>580.75</ele><time>2026-05-02T14:09:41Z</time></trkpt><trkpt lat="42.97632619067746" lon="11.864648368715674"><ele>581.0</ele><time>2026-05-02T14:09:42Z</time></trkpt><trkpt lat="42.976158414056634" lon="11.864657961673247"><ele>581.0</ele><time>2026-05-02T14:09:43Z</time></trkpt><trkpt lat="42.97598237243982" lon="11.864661713071603"><ele>581.0</ele><time>2026-05-02T14:09:44Z</time></trkpt><trkpt lat="42.97582210356765" lon="11.86466453416112"><ele>581.0</ele><time>2026-05-02T14:09:45Z</time></trkpt><trkpt lat="42.97567756542763" lon="11.864671045454411"><ele>582.0</ele><time>2026-05-02T14:09:46Z</time></trkpt><trkpt lat="42.97553918564217" lon="11.864682026251408"><ele>583.0</ele><time>2026-05-02T14:09:47Z</time></trkpt><trkpt lat="42.97540501293713" lon="11.864692635128355"><ele>584.0</ele><time>2026-05-02T14:09:48Z</time></trkpt><trkpt lat="42.97526397997455" lon="11.864698984992394"><ele>585.0</ele><time>2026-05-02T14:09:49Z</time></trkpt><trkpt lat="42.975121968509875" lon="11.86471010649287"><ele>586.5</ele><time>2026-05-02T14:09:50Z</time></trkpt><trkpt lat="42.974983909551" lon="11.864714141187266"><ele>588.0</ele><time>2026-05-02T14:09:51Z</time></trkpt><trkpt lat="42.97486362069813" lon="11.864709982512858"><ele>589.5</ele><time>2026-05-02T14:09:52Z</time></trkpt><trkpt lat="42.97474842566636" lon="11.864674376872713"><ele>591.0</ele><time>2026-05-02T14:09:53Z</time></trkpt><trkpt lat="42.97462766171564" lon="11.864600844408589"><ele>591.0</ele><time>2026-05-02T14:09:54Z</time></trkpt><trkpt lat="42.9745236566499" lon="11.864457529677022"><ele>591.0</ele><time>2026-05-02T14:09:55Z</time></trkpt><trkpt lat="42.97440075384091" lon="11.864297016727765"><ele>591.0</ele><time>2026-05-02T14:09:56Z</time></trkpt><trkpt lat="42.97428835006396" lon="11.864088271722823"><ele>598.3333333333334</ele><time>2026-05-02T14:09:57Z</time></trkpt><trkpt lat="42.97417160766801" lon="11.863896377423178"><ele>605.6666666666667</ele><time>2026-05-02T14:09:58Z</time></trkpt><trkpt lat="42.974059505164156" lon="11.863744260130105"><ele>613.0</ele><time>2026-05-02T14:09:59Z</time></trkpt><trkpt lat="42.973922363911456" lon="11.863623872427949"><ele>613.0</ele><time>2026-05-02T14:10:00Z</time></trkpt><trkpt lat="42.97375266399954" lon="11.863513944687682"><ele>613.0</ele><time>2026-05-02T14:10:01Z</time></trkpt><trkpt lat="42.97355992434709" lon="11.863412653684568"><ele>613.0</ele><time>2026-05-02T14:10:02Z</time></trkpt><trkpt lat="42.97336923698612" lon="11.863287955495347"><ele>618.6666666666667</ele><time>2026-05-02T14:10:03Z</time></trkpt><trkpt lat="42.97320539776494" lon="11.863146194545163"><ele>624.3333333333334</ele><time>2026-05-02T14:10:04Z</time></trkpt><trkpt lat="42.973052447841106" lon="11.86300844033888"><ele>630.0</ele><time>2026-05-02T14:10:05Z</time></trkpt><trkpt lat="42.972908887391114" lon="11.86287694067393"><ele>630.0</ele><time>2026-05-02T14:10:06Z</time></trkpt><trkpt lat="42.9727708279808" lon="11.862760602236047"><ele>630.0</ele><time>2026-05-02T14:10:07Z</time></trkpt><trkpt lat="42.972630230931976" lon="11.862658573408408"><ele>630.0</ele><time>2026-05-02T14:10:08Z</time></trkpt><trkpt lat="42.97246823210969" lon="11.862571903129506"><ele>633.6666666666666</ele><time>2026-05-02T14:10:09Z</time></trkpt><trkpt lat="42.972290367506105" lon="11.862515158150181"><ele>637.3333333333333</ele><time>2026-05-02T14:10:10Z</time></trkpt><trkpt lat="42.9721012257586" lon="11.862478159340245"><ele>641.0</ele><time>2026-05-02T14:10:11Z</time></trkpt><trkpt lat="42.971909362823936" lon="11.862446817285392"><ele>641.0</ele><time>2026-05-02T14:10:12Z</time></trkpt><trkpt lat="42.97172007347454" lon="11.862408545261516"><ele>641.0</ele><time>2026-05-02T14:10:13Z</time></trkpt><trkpt lat="42.97153440614539" lon="11.862364486300823"><ele>641.0</ele><time>2026-05-02T14:10:14Z</time></trkpt><trkpt lat="42.971350579286934" lon="11.862304535175419"><ele>642.0</ele><time>2026-05-02T14:10:15Z</time></trkpt><trkpt lat="42.97117412783214" lon="11.862234709243351"><ele>643.0</ele><time>2026-05-02T14:10:16Z</time></trkpt><trkpt lat="42.97101996735213" lon="11.862166848653688"><ele>644.0</ele><time>2026-05-02T14:10:17Z</time></trkpt><trkpt lat="42.9708832887312" lon="11.862102825586376"><ele>644.8000000000001</ele><time>2026-05-02T14:10:18Z</time></trkpt><trkpt lat="42.9707644269723" lon="11.862048212465556"><ele>645.6</ele><time>2026-05-02T14:10:19Z</time></trkpt><trkpt lat="42.970665806970544" lon="11.861990068551782"><ele>646.4</ele><time>2026-05-02T14:10:20Z</time></trkpt><trkpt lat="42.970586419311054" lon="11.861906181035243"><ele>647.2</ele><time>2026-05-02T14:10:21Z</time></trkpt><trkpt lat="42.97053786726054" lon="11.861777780475965"><ele>648.0</ele><time>2026-05-02T14:10:22Z</time></trkpt><trkpt lat="42.970537964215104" lon="11.861625917151146"><ele>648.0</ele><time>2026-05-02T14:10:23Z</time></trkpt><trkpt lat="42.97056071689874" lon="11.861472003564657"><ele>648.0</ele><time>2026-05-02T14:10:24Z</time></trkpt><trkpt lat="42.970614139490664" lon="11.861292312968489"><ele>648.0</ele><time>2026-05-02T14:10:25Z</time></trkpt><trkpt lat="42.9706800592748" lon="11.861055617184673"><ele>648.0</ele><time>2026-05-02T14:10:26Z</time></trkpt><trkpt lat="42.97076335468485" lon="11.860812156951404"><ele>648.0</ele><time>2026-05-02T14:10:27Z</time></trkpt><trkpt lat="42.970837175968505" lon="11.860565854555418"><ele>648.0</ele><time>2026-05-02T14:10:28Z</time></trkpt><trkpt lat="42.970902691408504" lon="11.86033261510608"><ele>648.0</ele><time>2026-05-02T14:10:29Z</time></trkpt><trkpt lat="42.97096409644721" lon="11.860113912158582"><ele>654.0</ele><time>2026-05-02T14:10:30Z</time></trkpt><trkpt lat="42.9710150134749" lon="11.859907533553683"><ele>660.0</ele><time>2026-05-02T14:10:31Z</time></trkpt><trkpt lat="42.97104247584736" lon="11.859693628986722"><ele>666.0</ele><time>2026-05-02T14:10:32Z</time></trkpt><trkpt lat="42.97103739871544" lon="11.859452878425559"><ele>666.3333333333334</ele><time>2026-05-02T14:10:33Z</time></trkpt><trkpt lat="42.971016463562975" lon="11.859191682369556"><ele>666.6666666666667</ele><time>2026-05-02T14:10:34Z</time></trkpt><trkpt lat="42.970997382262794" lon="11.858918130349803"><ele>667.0</ele><time>2026-05-02T14:10:35Z</time></trkpt><trkpt lat="42.970987000731064" lon="11.858651175156"><ele>670.0</ele><time>2026-05-02T14:10:36Z</time></trkpt><trkpt lat="42.97097857387717" lon="11.858414628802795"><ele>673.0</ele><time>2026-05-02T14:10:37Z</time></trkpt><trkpt lat="42.97096693345223" lon="11.858194923244255"><ele>676.0</ele><time>2026-05-02T14:10:38Z</time></trkpt><trkpt lat="42.9709512559759" lon="11.858004775784527"><ele>676.0</ele><time>2026-05-02T14:10:39Z</time></trkpt><trkpt lat="42.97093192968983" lon="11.857828070524171"><ele>676.0</ele><time>2026-05-02T14:10:40Z</time></trkpt><trkpt lat="42.97088886952936" lon="11.857676071620283"><ele>676.0</ele><time>2026-05-02T14:10:41Z</time></trkpt><trkpt lat="42.97081831102761" lon="11.857536065594541"><ele>676.0</ele><time>2026-05-02T14:10:42Z</time></trkpt><trkpt lat="42.97072906830016" lon="11.857397088148835"><ele>672.25</ele><time>2026-05-02T14:10:43Z</time></trkpt><trkpt lat="42.97062417205758" lon="11.85724371807917"><ele>668.5</ele><time>2026-05-02T14:10:44Z</time></trkpt><trkpt lat="42.97052838084435" lon="11.857128605659774"><ele>664.75</ele><time>2026-05-02T14:10:45Z</time></trkpt><trkpt lat="42.970418987242866" lon="11.857009157112008"><ele>661.0</ele><time>2026-05-02T14:10:46Z</time></trkpt><trkpt lat="42.97031466578779" lon="11.856890974935459"><ele>660.3333333333334</ele><time>2026-05-02T14:10:47Z</time></trkpt><trkpt lat="42.97020809705778" lon="11.856775352939586"><ele>659.6666666666666</ele><time>2026-05-02T14:10:48Z</time></trkpt><trkpt lat="42.97008901012547" lon="11.85664080389474"><ele>659.0</ele><time>2026-05-02T14:10:49Z</time></trkpt><trkpt lat="42.96994264467865" lon="11.856473657425555"><ele>659.0</ele><time>2026-05-02T14:10:50.001Z</time></trkpt><trkpt lat="42.96978386433633" lon="11.85629283503573"><ele>659.0</ele><time>2026-05-02T14:10:51.001Z</time></trkpt><trkpt lat="42.96961924753199" lon="11.8561034847405"><ele>659.0</ele><time>2026-05-02T14:10:52.001Z</time></trkpt><trkpt lat="42.9694474054869" lon="11.855911871356874"><ele>659.0</ele><time>2026-05-02T14:10:53.001Z</time></trkpt><trkpt lat="42.96928674960991" lon="11.855731537500198"><ele>659.0</ele><time>2026-05-02T14:10:54.001Z</time></trkpt><trkpt lat="42.96910919441658" lon="11.855570123725885"><ele>659.0</ele><time>2026-05-02T14:10:55.001Z</time></trkpt><trkpt lat="42.96889947250474" lon="11.855429143953137"><ele>659.0</ele><time>2026-05-02T14:10:56.001Z</time></trkpt><trkpt lat="42.968682200842046" lon="11.85530798731121"><ele>659.0</ele><time>2026-05-02T14:10:57.001Z</time></trkpt><trkpt lat="42.968476621381704" lon="11.855202238300231"><ele>660.3333333333333</ele><time>2026-05-02T14:10:58.001Z</time></trkpt><trkpt lat="42.96828584800062" lon="11.855104579394837"><ele>661.6666666666666</ele><time>2026-05-02T14:10:59.001Z</time></trkpt><trkpt lat="42.968084325226584" lon="11.855016368243449"><ele>663.0</ele><time>2026-05-02T14:11:00.001Z</time></trkpt><trkpt lat="42.96788421865412" lon="11.854890583418824"><ele>663.0</ele><time>2026-05-02T14:11:01.001Z</time></trkpt><trkpt lat="42.967641530560016" lon="11.854945523029066"><ele>663.0</ele><time>2026-05-02T14:11:02.001Z</time></trkpt><trkpt lat="42.96744080348688" lon="11.854920485581912"><ele>663.0</ele><time>2026-05-02T14:11:03.001Z</time></trkpt><trkpt lat="42.967259756727316" lon="11.85488610138634"><ele>662.6666666666666</ele><time>2026-05-02T14:11:04.001Z</time></trkpt><trkpt lat="42.96708780340978" lon="11.854834787520204"><ele>662.3333333333333</ele><time>2026-05-02T14:11:05.001Z</time></trkpt><trkpt lat="42.96691933614807" lon="11.854746951187856"><ele>662.0</ele><time>2026-05-02T14:11:06.001Z</time></trkpt><trkpt lat="42.96676203172378" lon="11.85461310646098"><ele>660.6666666666666</ele><time>2026-05-02T14:11:07.001Z</time></trkpt><trkpt lat="42.96660246164613" lon="11.854454888333226"><ele>659.3333333333334</ele><time>2026-05-02T14:11:08.001Z</time></trkpt><trkpt lat="42.96645073468196" lon="11.854301335363413"><ele>658.0</ele><time>2026-05-02T14:11:09.001Z</time></trkpt><trkpt lat="42.9663053104433" lon="11.854169380856952"><ele>658.0</ele><time>2026-05-02T14:11:10.001Z</time></trkpt><trkpt lat="42.96618184139333" lon="11.85405690739088"><ele>658.0</ele><time>2026-05-02T14:11:11.001Z</time></trkpt><trkpt lat="42.96607184845372" lon="11.853961785829496"><ele>658.0</ele><time>2026-05-02T14:11:12.001Z</time></trkpt><trkpt lat="42.96596739679347" lon="11.85389319972327"><ele>658.0</ele><time>2026-05-02T14:11:13.001Z</time></trkpt><trkpt lat="42.9658576180836" lon="11.853883707067007"><ele>658.3333333333334</ele><time>2026-05-02T14:11:14.001Z</time></trkpt><trkpt lat="42.965730103301205" lon="11.853929251989914"><ele>658.6666666666666</ele><time>2026-05-02T14:11:15.001Z</time></trkpt><trkpt lat="42.965597262920284" lon="11.854041261663129"><ele>659.0</ele><time>2026-05-02T14:11:16.001Z</time></trkpt><trkpt lat="42.96546416325393" lon="11.854190789978723"><ele>662.3333333333333</ele><time>2026-05-02T14:11:17.001Z</time></trkpt><trkpt lat="42.965350015253875" lon="11.854321374842039"><ele>665.6666666666666</ele><time>2026-05-02T14:11:18.001Z</time></trkpt><trkpt lat="42.965211070263045" lon="11.85435805913298"><ele>669.0</ele><time>2026-05-02T14:11:19.001Z</time></trkpt><trkpt lat="42.965052212798476" lon="11.854343024810444"><ele>667.6666666666666</ele><time>2026-05-02T14:11:20.001Z</time></trkpt><trkpt lat="42.96487473724836" lon="11.854298316159449"><ele>666.3333333333333</ele><time>2026-05-02T14:11:21.001Z</time></trkpt><trkpt lat="42.96470191930872" lon="11.854255831455438"><ele>665.0</ele><time>2026-05-02T14:11:22.001Z</time></trkpt><trkpt lat="42.964553156112856" lon="11.854223451399797"><ele>662.0</ele><time>2026-05-02T14:11:23.001Z</time></trkpt><trkpt lat="42.96441886368901" lon="11.854165276315287"><ele>659.0</ele><time>2026-05-02T14:11:24.001Z</time></trkpt><trkpt lat="42.96428403132843" lon="11.854051316103597"><ele>656.0</ele><time>2026-05-02T14:11:25.001Z</time></trkpt><trkpt lat="42.964160033816725" lon="11.853889254633586"><ele>656.0</ele><time>2026-05-02T14:11:26.001Z</time></trkpt><trkpt lat="42.96405549139362" lon="11.853733699881099"><ele>656.0</ele><time>2026-05-02T14:11:27.001Z</time></trkpt><trkpt lat="42.9639486837221" lon="11.853614828097184"><ele>656.0</ele><time>2026-05-02T14:11:28.001Z</time></trkpt><trkpt lat="42.96383667791019" lon="11.853524639136209"><ele>656.0</ele><time>2026-05-02T14:11:29.001Z</time></trkpt><trkpt lat="42.96369131472489" lon="11.853477898812507"><ele>656.0</ele><time>2026-05-02T14:11:30.001Z</time></trkpt><trkpt lat="42.96354283106278" lon="11.853474413803285"><ele>656.0</ele><time>2026-05-02T14:11:31.001Z</time></trkpt><trkpt lat="42.963405723301804" lon="11.853473818814535"><ele>656.0</ele><time>2026-05-02T14:11:32.001Z</time></trkpt><trkpt lat="42.963268143608026" lon="11.853415110487944"><ele>656.0</ele><time>2026-05-02T14:11:33.001Z</time></trkpt><trkpt lat="42.96312887171944" lon="11.853281596736313"><ele>653.3333333333333</ele><time>2026-05-02T14:11:34.001Z</time></trkpt><trkpt lat="42.96301587254749" lon="11.85308798368656"><ele>650.6666666666666</ele><time>2026-05-02T14:11:35.001Z</time></trkpt><trkpt lat="42.9629006135301" lon="11.852903123970956"><ele>648.0</ele><time>2026-05-02T14:11:36Z</time></trkpt><trkpt lat="42.96273926834176" lon="11.852754794739228"><ele>648.0</ele><time>2026-05-02T14:11:37Z</time></trkpt><trkpt lat="42.962544469988835" lon="11.85264117070302"><ele>648.0</ele><time>2026-05-02T14:11:38Z</time></trkpt><trkpt lat="42.96235337270517" lon="11.852518417768467"><ele>648.0</ele><time>2026-05-02T14:11:39Z</time></trkpt><trkpt lat="42.96216682639966" lon="11.852361416670623"><ele>646.3333333333334</ele><time>2026-05-02T14:11:40Z</time></trkpt><trkpt lat="42.96199039375768" lon="11.852181478313934"><ele>644.6666666666667</ele><time>2026-05-02T14:11:41Z</time></trkpt><trkpt lat="42.961826876166654" lon="11.852013513576676"><ele>643.0</ele><time>2026-05-02T14:11:42Z</time></trkpt><trkpt lat="42.96166961478509" lon="11.85186003151063"><ele>640.6666666666667</ele><time>2026-05-02T14:11:43Z</time></trkpt><trkpt lat="42.961519911740616" lon="11.851713858330486"><ele>638.3333333333334</ele><time>2026-05-02T14:11:44Z</time></trkpt><trkpt lat="42.96137805132469" lon="11.85156946484811"><ele>636.0</ele><time>2026-05-02T14:11:45Z</time></trkpt><trkpt lat="42.96125092025165" lon="11.85144150751815"><ele>636.0</ele><time>2026-05-02T14:11:46Z</time></trkpt><trkpt lat="42.96111984919283" lon="11.851329750830114"><ele>636.0</ele><time>2026-05-02T14:11:47Z</time></trkpt><trkpt lat="42.96095690791436" lon="11.851229956705946"><ele>636.0</ele><time>2026-05-02T14:11:48Z</time></trkpt><trkpt lat="42.96077522913419" lon="11.851158857883071"><ele>641.3333333333334</ele><time>2026-05-02T14:11:49Z</time></trkpt><trkpt lat="42.96058580601101" lon="11.851090292342876"><ele>646.6666666666667</ele><time>2026-05-02T14:11:50Z</time></trkpt><trkpt lat="42.96041898064719" lon="11.851028185632886"><ele>652.0</ele><time>2026-05-02T14:11:51Z</time></trkpt><trkpt lat="42.9602599567077" lon="11.850968901362396"><ele>653.0</ele><time>2026-05-02T14:11:52Z</time></trkpt><trkpt lat="42.96011341561572" lon="11.850919394270221"><ele>654.0</ele><time>2026-05-02T14:11:53Z</time></trkpt><trkpt lat="42.9599831969595" lon="11.8508878297881"><ele>655.0</ele><time>2026-05-02T14:11:54Z</time></trkpt><trkpt lat="42.959846139833076" lon="11.85090789512436"><ele>656.0</ele><time>2026-05-02T14:11:55Z</time></trkpt><trkpt lat="42.95970815556829" lon="11.850995823704563"><ele>656.0</ele><time>2026-05-02T14:11:56Z</time></trkpt><trkpt lat="42.9595772998262" lon="11.851138473336624"><ele>656.0</ele><time>2026-05-02T14:11:57Z</time></trkpt><trkpt lat="42.9594535408553" lon="11.851326681702"><ele>656.0</ele><time>2026-05-02T14:11:58Z</time></trkpt><trkpt lat="42.95932541959381" lon="11.851513738659111"><ele>657.6666666666666</ele><time>2026-05-02T14:11:59Z</time></trkpt><trkpt lat="42.95919585288463" lon="11.851663582415126"><ele>659.3333333333334</ele><time>2026-05-02T14:12:00Z</time></trkpt><trkpt lat="42.95905399182846" lon="11.851772487782602"><ele>661.0</ele><time>2026-05-02T14:12:01Z</time></trkpt><trkpt lat="42.958890366547536" lon="11.851854010347106"><ele>661.0</ele><time>2026-05-02T14:12:02Z</time></trkpt><trkpt lat="42.95872476220691" lon="11.851922215241515"><ele>661.0</ele><time>2026-05-02T14:12:03Z</time></trkpt><trkpt lat="42.95854544424611" lon="11.852013525577108"><ele>661.0</ele><time>2026-05-02T14:12:04Z</time></trkpt><trkpt lat="42.95837476215993" lon="11.85215173751378"><ele>655.0</ele><time>2026-05-02T14:12:05Z</time></trkpt><trkpt lat="42.95822605081367" lon="11.852288375383011"><ele>649.0</ele><time>2026-05-02T14:12:06Z</time></trkpt><trkpt lat="42.9580976314894" lon="11.852428117026959"><ele>643.0</ele><time>2026-05-02T14:12:07Z</time></trkpt><trkpt lat="42.95798147759818" lon="11.85255841200206"><ele>649.3333333333334</ele><time>2026-05-02T14:12:08Z</time></trkpt><trkpt lat="42.95786335092197" lon="11.852646954091488"><ele>655.6666666666666</ele><time>2026-05-02T14:12:09Z</time></trkpt><trkpt lat="42.95771607643732" lon="11.85267897680642"><ele>662.0</ele><time>2026-05-02T14:12:10Z</time></trkpt><trkpt lat="42.957549114973766" lon="11.85268509151694"><ele>658.6666666666666</ele><time>2026-05-02T14:12:11Z</time></trkpt><trkpt lat="42.95737642102671" lon="11.852719975971693"><ele>655.3333333333334</ele><time>2026-05-02T14:12:12Z</time></trkpt><trkpt lat="42.95720718648842" lon="11.852793295502059"><ele>652.0</ele><time>2026-05-02T14:12:13Z</time></trkpt><trkpt lat="42.957038423095284" lon="11.852900053190938"><ele>652.0</ele><time>2026-05-02T14:12:14Z</time></trkpt><trkpt lat="42.95689446541619" lon="11.85299684277069"><ele>652.0</ele><time>2026-05-02T14:12:15Z</time></trkpt><trkpt lat="42.956754901005624" lon="11.85308212839893"><ele>652.0</ele><time>2026-05-02T14:12:16Z</time></trkpt><trkpt lat="42.95661738712523" lon="11.85313921816436"><ele>649.75</ele><time>2026-05-02T14:12:17Z</time></trkpt><trkpt lat="42.95647738585105" lon="11.85316728700523"><ele>647.5</ele><time>2026-05-02T14:12:18Z</time></trkpt><trkpt lat="42.956338657758046" lon="11.853141227503956"><ele>645.25</ele><time>2026-05-02T14:12:19Z</time></trkpt><trkpt lat="42.956196318480345" lon="11.85306480185312"><ele>643.0</ele><time>2026-05-02T14:12:20Z</time></trkpt><trkpt lat="42.956064859072" lon="11.852960049293873"><ele>643.0</ele><time>2026-05-02T14:12:21Z</time></trkpt><trkpt lat="42.95595613699449" lon="11.852873161607054"><ele>643.0</ele><time>2026-05-02T14:12:22Z</time></trkpt><trkpt lat="42.95583227996476" lon="11.852823524216847"><ele>643.0</ele><time>2026-05-02T14:12:23Z</time></trkpt><trkpt lat="42.95568279368795" lon="11.852833023200139"><ele>643.0</ele><time>2026-05-02T14:12:24Z</time></trkpt><trkpt lat="42.955523238712466" lon="11.852893917937052"><ele>643.6666666666667</ele><time>2026-05-02T14:12:25Z</time></trkpt><trkpt lat="42.95536388900401" lon="11.852963376640085"><ele>644.3333333333334</ele><time>2026-05-02T14:12:26Z</time></trkpt><trkpt lat="42.955204622074234" lon="11.853006367956496"><ele>645.0</ele><time>2026-05-02T14:12:27Z</time></trkpt><trkpt lat="42.95504388510766" lon="11.853011666253199"><ele>645.3333333333334</ele><time>2026-05-02T14:12:28Z</time></trkpt><trkpt lat="42.95487779360767" lon="11.85298851123156"><ele>645.6666666666667</ele><time>2026-05-02T14:12:29Z</time></trkpt><trkpt lat="42.95470063551179" lon="11.852945907574517"><ele>646.0</ele><time>2026-05-02T14:12:30Z</time></trkpt><trkpt lat="42.95452493515109" lon="11.852906406885593"><ele>646.0</ele><time>2026-05-02T14:12:31Z</time></trkpt><trkpt lat="42.95437113816852" lon="11.852857846698335"><ele>646.0</ele><time>2026-05-02T14:12:32Z</time></trkpt><trkpt lat="42.95422363952081" lon="11.85277131598443"><ele>646.0</ele><time>2026-05-02T14:12:33Z</time></trkpt><trkpt lat="42.954075932216895" lon="11.852666798493683"><ele>639.6666666666667</ele><time>2026-05-02T14:12:34Z</time></trkpt><trkpt lat="42.95392230248059" lon="11.852579845641046"><ele>633.3333333333334</ele><time>2026-05-02T14:12:35Z</time></trkpt><trkpt lat="42.95375552389378" lon="11.85253714504719"><ele>627.0</ele><time>2026-05-02T14:12:36Z</time></trkpt><trkpt lat="42.95358926969651" lon="11.852501452479125"><ele>627.0</ele><time>2026-05-02T14:12:37Z</time></trkpt><trkpt lat="42.953437504401855" lon="11.852475617130928"><ele>627.0</ele><time>2026-05-02T14:12:38Z</time></trkpt><trkpt lat="42.95328436573663" lon="11.852468616299394"><ele>627.0</ele><time>2026-05-02T14:12:39Z</time></trkpt><trkpt lat="42.95311972905117" lon="11.852503434952988"><ele>626.0</ele><time>2026-05-02T14:12:40Z</time></trkpt><trkpt lat="42.95296475489175" lon="11.852567564146774"><ele>625.0</ele><time>2026-05-02T14:12:41Z</time></trkpt><trkpt lat="42.95281990917236" lon="11.852608256788395"><ele>624.0</ele><time>2026-05-02T14:12:42Z</time></trkpt><trkpt lat="42.95268002448063" lon="11.852599537433619"><ele>624.0</ele><time>2026-05-02T14:12:43Z</time></trkpt><trkpt lat="42.952549738451054" lon="11.852554348871724"><ele>624.0</ele><time>2026-05-02T14:12:44Z</time></trkpt><trkpt lat="42.952433180859146" lon="11.852524253676881"><ele>624.0</ele><time>2026-05-02T14:12:45Z</time></trkpt><trkpt lat="42.952326284986164" lon="11.852545895164246"><ele>624.0</ele><time>2026-05-02T14:12:46Z</time></trkpt><trkpt lat="42.95223874687699" lon="11.85263173942078"><ele>628.5</ele><time>2026-05-02T14:12:47Z</time></trkpt><trkpt lat="42.95216794848739" lon="11.852770273180598"><ele>633.0</ele><time>2026-05-02T14:12:48Z</time></trkpt><trkpt lat="42.952102558365134" lon="11.852922803796416"><ele>637.5</ele><time>2026-05-02T14:12:49Z</time></trkpt><trkpt lat="42.95202826609642" lon="11.853029079075723"><ele>642.0</ele><time>2026-05-02T14:12:50Z</time></trkpt><trkpt lat="42.9519373476074" lon="11.853074796212713"><ele>642.0</ele><time>2026-05-02T14:12:51Z</time></trkpt><trkpt lat="42.951836583374835" lon="11.853063314054179"><ele>642.0</ele><time>2026-05-02T14:12:52Z</time></trkpt><trkpt lat="42.95173187893035" lon="11.852998300450134"><ele>642.0</ele><time>2026-05-02T14:12:53Z</time></trkpt><trkpt lat="42.95166426712494" lon="11.85286241623287"><ele>642.0</ele><time>2026-05-02T14:12:54Z</time></trkpt><trkpt lat="42.95158242932294" lon="11.852739049017453"><ele>636.0</ele><time>2026-05-02T14:12:55Z</time></trkpt><trkpt lat="42.95150594142697" lon="11.85260153768305"><ele>630.0</ele><time>2026-05-02T14:12:56Z</time></trkpt><trkpt lat="42.951409590437834" lon="11.852506546117827"><ele>624.0</ele><time>2026-05-02T14:12:57Z</time></trkpt><trkpt lat="42.95129588786283" lon="11.852450963974496"><ele>618.0</ele><time>2026-05-02T14:12:58Z</time></trkpt><trkpt lat="42.951179400407945" lon="11.852432385603608"><ele>618.0</ele><time>2026-05-02T14:12:59Z</time></trkpt><trkpt lat="42.95106018859607" lon="11.852433884323975"><ele>618.0</ele><time>2026-05-02T14:13:00Z</time></trkpt><trkpt lat="42.95093384140515" lon="11.852463818421606"><ele>618.0</ele><time>2026-05-02T14:13:01Z</time></trkpt><trkpt lat="42.95080145493745" lon="11.852542670831399"><ele>618.0</ele><time>2026-05-02T14:13:02Z</time></trkpt><trkpt lat="42.95068530110447" lon="11.852661747993343"><ele>621.25</ele><time>2026-05-02T14:13:03Z</time></trkpt><trkpt lat="42.950581970106896" lon="11.85275941408608"><ele>624.5</ele><time>2026-05-02T14:13:04Z</time></trkpt><trkpt lat="42.95047856075256" lon="11.852831562263301"><ele>627.75</ele><time>2026-05-02T14:13:05Z</time></trkpt><trkpt lat="42.95037610035504" lon="11.852874179776657"><ele>631.0</ele><time>2026-05-02T14:13:06Z</time></trkpt><trkpt lat="42.950271718513434" lon="11.852885434239404"><ele>631.0</ele><time>2026-05-02T14:13:07Z</time></trkpt><trkpt lat="42.95015139538737" lon="11.852866961295803"><ele>631.0</ele><time>2026-05-02T14:13:08Z</time></trkpt><trkpt lat="42.95001079029571" lon="11.85282638060397"><ele>631.0</ele><time>2026-05-02T14:13:09Z</time></trkpt><trkpt lat="42.949886053534016" lon="11.852767703570752"><ele>631.0</ele><time>2026-05-02T14:13:10Z</time></trkpt><trkpt lat="42.94977863530068" lon="11.852711947634207"><ele>630.0</ele><time>2026-05-02T14:13:11.001Z</time></trkpt><trkpt lat="42.94966855493613" lon="11.852666063883964"><ele>629.0</ele><time>2026-05-02T14:13:12.001Z</time></trkpt><trkpt lat="42.949559358621" lon="11.852624965938563"><ele>628.0</ele><time>2026-05-02T14:13:13.001Z</time></trkpt><trkpt lat="42.94945612521615" lon="11.852593836488323"><ele>627.0</ele><time>2026-05-02T14:13:14.001Z</time></trkpt><trkpt lat="42.9493543161093" lon="11.852560023227"><ele>626.0</ele><time>2026-05-02T14:13:15.001Z</time></trkpt><trkpt lat="42.949255561611764" lon="11.852513730953113"><ele>625.5</ele><time>2026-05-02T14:13:16.001Z</time></trkpt><trkpt lat="42.949147978213986" lon="11.852439541311252"><ele>625.0</ele><time>2026-05-02T14:13:17.001Z</time></trkpt><trkpt lat="42.949034092836456" lon="11.85232294858194"><ele>624.5</ele><time>2026-05-02T14:13:18.001Z</time></trkpt><trkpt lat="42.948924478702864" lon="11.852180197110455"><ele>624.0</ele><time>2026-05-02T14:13:19.001Z</time></trkpt><trkpt lat="42.948834778856295" lon="11.852050664782299"><ele>624.0</ele><time>2026-05-02T14:13:20.001Z</time></trkpt><trkpt lat="42.94874593481147" lon="11.851935617685228"><ele>624.0</ele><time>2026-05-02T14:13:21.001Z</time></trkpt><trkpt lat="42.948645560569325" lon="11.851829052922476"><ele>624.0</ele><time>2026-05-02T14:13:22.001Z</time></trkpt><trkpt lat="42.94852930361947" lon="11.85174879008188"><ele>624.0</ele><time>2026-05-02T14:13:23.001Z</time></trkpt><trkpt lat="42.948400298678855" lon="11.851699423933539"><ele>624.5</ele><time>2026-05-02T14:13:24.001Z</time></trkpt><trkpt lat="42.948267171024945" lon="11.851671434543885"><ele>625.0</ele><time>2026-05-02T14:13:25.001Z</time></trkpt><trkpt lat="42.94812329095588" lon="11.85165884188152"><ele>625.5</ele><time>2026-05-02T14:13:26.001Z</time></trkpt><trkpt lat="42.94798575731017" lon="11.851657930600972"><ele>626.0</ele><time>2026-05-02T14:13:27.001Z</time></trkpt><trkpt lat="42.94786316114413" lon="11.851656804754267"><ele>626.0</ele><time>2026-05-02T14:13:28.001Z</time></trkpt><trkpt lat="42.94775463347412" lon="11.851651374385723"><ele>626.0</ele><time>2026-05-02T14:13:29.001Z</time></trkpt><trkpt lat="42.947644640853625" lon="11.851624065805284"><ele>626.0</ele><time>2026-05-02T14:13:30.001Z</time></trkpt><trkpt lat="42.94753201507972" lon="11.851559728517584"><ele>626.0</ele><time>2026-05-02T14:13:31.001Z</time></trkpt><trkpt lat="42.94743573099843" lon="11.851450017140108"><ele>626.5</ele><time>2026-05-02T14:13:32.001Z</time></trkpt><trkpt lat="42.94735171810161" lon="11.851297403089779"><ele>627.0</ele><time>2026-05-02T14:13:33.001Z</time></trkpt><trkpt lat="42.94727304887813" lon="11.85112688666691"><ele>627.5</ele><time>2026-05-02T14:13:34.001Z</time></trkpt><trkpt lat="42.94718848160433" lon="11.85097264237312"><ele>628.0</ele><time>2026-05-02T14:13:35.001Z</time></trkpt><trkpt lat="42.94711351330649" lon="11.850837821095615"><ele>626.6</ele><time>2026-05-02T14:13:36.001Z</time></trkpt><trkpt lat="42.94704090886828" lon="11.850707804638207"><ele>625.1999999999999</ele><time>2026-05-02T14:13:37.001Z</time></trkpt><trkpt lat="42.946969523042625" lon="11.850582227502558"><ele>623.8</ele><time>2026-05-02T14:13:38.001Z</time></trkpt><trkpt lat="42.946906144302694" lon="11.850466776761404"><ele>622.4</ele><time>2026-05-02T14:13:39.001Z</time></trkpt><trkpt lat="42.94684642606979" lon="11.850366313074638"><ele>621.0</ele><time>2026-05-02T14:13:40.001Z</time></trkpt><trkpt lat="42.94677474550591" lon="11.850277536603505"><ele>622.6</ele><time>2026-05-02T14:13:41.001Z</time></trkpt><trkpt lat="42.946681871" lon="11.850226197152402"><ele>624.2</ele><time>2026-05-02T14:13:42Z</time></trkpt><trkpt lat="42.9465824753737" lon="11.850233067124076"><ele>625.8</ele><time>2026-05-02T14:13:43Z</time></trkpt><trkpt lat="42.94649540183677" lon="11.850255076425805"><ele>627.4</ele><time>2026-05-02T14:13:44Z</time></trkpt><trkpt lat="42.946410265097356" lon="11.850372363945358"><ele>629.0</ele><time>2026-05-02T14:13:45Z</time></trkpt><trkpt lat="42.94632648662166" lon="11.850471943734089"><ele>629.0</ele><time>2026-05-02T14:13:46Z</time></trkpt><trkpt lat="42.94624647148831" lon="11.850558821434637"><ele>629.0</ele><time>2026-05-02T14:13:47Z</time></trkpt><trkpt lat="42.94615974336935" lon="11.850623895433804"><ele>629.0</ele><time>2026-05-02T14:13:48Z</time></trkpt><trkpt lat="42.94606570587976" lon="11.850669183806712"><ele>629.0</ele><time>2026-05-02T14:13:49Z</time></trkpt><trkpt lat="42.94596577404839" lon="11.8506860106968"><ele>629.0</ele><time>2026-05-02T14:13:50Z</time></trkpt><trkpt lat="42.945865498322206" lon="11.85065501808463"><ele>631.25</ele><time>2026-05-02T14:13:51Z</time></trkpt><trkpt lat="42.94576933568836" lon="11.850581793874612"><ele>633.5</ele><time>2026-05-02T14:13:52Z</time></trkpt><trkpt lat="42.94567422740442" lon="11.850471247616754"><ele>635.75</ele><time>2026-05-02T14:13:53Z</time></trkpt><trkpt lat="42.94558783015601" lon="11.85033125808075"><ele>638.0</ele><time>2026-05-02T14:13:54Z</time></trkpt><trkpt lat="42.94550001180129" lon="11.850193014386466"><ele>635.5</ele><time>2026-05-02T14:13:55Z</time></trkpt><trkpt lat="42.94540428413836" lon="11.850062701877683"><ele>633.0</ele><time>2026-05-02T14:13:56Z</time></trkpt><trkpt lat="42.945306023928055" lon="11.849926415339132"><ele>630.5</ele><time>2026-05-02T14:13:57Z</time></trkpt><trkpt lat="42.94520982846311" lon="11.849780605330471"><ele>628.0</ele><time>2026-05-02T14:13:58Z</time></trkpt><trkpt lat="42.94511345722921" lon="11.8496301216716"><ele>628.5</ele><time>2026-05-02T14:13:59Z</time></trkpt><trkpt lat="42.9450343343278" lon="11.849482600126596"><ele>629.0</ele><time>2026-05-02T14:14:00Z</time></trkpt><trkpt lat="42.9449685265736" lon="11.849330083340787"><ele>629.5</ele><time>2026-05-02T14:14:01Z</time></trkpt><trkpt lat="42.94490632881568" lon="11.84917487603015"><ele>630.0</ele><time>2026-05-02T14:14:02Z</time></trkpt><trkpt lat="42.94483304962895" lon="11.849039430712816"><ele>630.0</ele><time>2026-05-02T14:14:03Z</time></trkpt><trkpt lat="42.9447409223231" lon="11.848945700067027"><ele>630.0</ele><time>2026-05-02T14:14:04Z</time></trkpt><trkpt lat="42.94463485562318" lon="11.848893166173841"><ele>630.0</ele><time>2026-05-02T14:14:05Z</time></trkpt><trkpt lat="42.94451582818465" lon="11.848880801837067"><ele>630.0</ele><time>2026-05-02T14:14:06Z</time></trkpt><trkpt lat="42.9443962712585" lon="11.848914012741073"><ele>630.0</ele><time>2026-05-02T14:14:07Z</time></trkpt><trkpt lat="42.944285929483435" lon="11.848997481358905"><ele>630.0</ele><time>2026-05-02T14:14:08Z</time></trkpt><trkpt lat="42.94419258181575" lon="11.849128527738005"><ele>630.0</ele><time>2026-05-02T14:14:09Z</time></trkpt><trkpt lat="42.944119736118715" lon="11.849283910467388"><ele>630.0</ele><time>2026-05-02T14:14:10Z</time></trkpt><trkpt lat="42.94405169363566" lon="11.849432198991558"><ele>633.75</ele><time>2026-05-02T14:14:11Z</time></trkpt><trkpt lat="42.94397784897475" lon="11.849566821070377"><ele>637.5</ele><time>2026-05-02T14:14:12Z</time></trkpt><trkpt lat="42.94389962629321" lon="11.849677951486424"><ele>641.25</ele><time>2026-05-02T14:14:13Z</time></trkpt><trkpt lat="42.94380596316435" lon="11.84976755842617"><ele>645.0</ele><time>2026-05-02T14:14:14Z</time></trkpt><trkpt lat="42.943692272934435" lon="11.849829863495014"><ele>645.0</ele><time>2026-05-02T14:14:15Z</time></trkpt><trkpt lat="42.943569510533045" lon="11.849857360008084"><ele>645.0</ele><time>2026-05-02T14:14:16Z</time></trkpt><trkpt lat="42.94344068717613" lon="11.849846021621254"><ele>645.0</ele><time>2026-05-02T14:14:17Z</time></trkpt><trkpt lat="42.94331322774439" lon="11.849802590554768"><ele>645.0</ele><time>2026-05-02T14:14:18Z</time></trkpt><trkpt lat="42.94319430254792" lon="11.849726757204563"><ele>644.25</ele><time>2026-05-02T14:14:19Z</time></trkpt><trkpt lat="42.9430818242339" lon="11.849643715468433"><ele>643.5</ele><time>2026-05-02T14:14:20Z</time></trkpt><trkpt lat="42.942970805997774" lon="11.849573825327239"><ele>642.75</ele><time>2026-05-02T14:14:21Z</time></trkpt><trkpt lat="42.942857236691566" lon="11.84950124905542"><ele>642.0</ele><time>2026-05-02T14:14:22Z</time></trkpt><trkpt lat="42.94273619351872" lon="11.849447811931041"><ele>642.0</ele><time>2026-05-02T14:14:23Z</time></trkpt><trkpt lat="42.942607672008556" lon="11.849435297381484"><ele>642.0</ele><time>2026-05-02T14:14:24Z</time></trkpt><trkpt lat="42.94247020577833" lon="11.849456994353746"><ele>642.0</ele><time>2026-05-02T14:14:25Z</time></trkpt><trkpt lat="42.942329251744" lon="11.849510662041457"><ele>642.0</ele><time>2026-05-02T14:14:26Z</time></trkpt><trkpt lat="42.94218992856146" lon="11.849586268134203"><ele>643.0</ele><time>2026-05-02T14:14:27Z</time></trkpt><trkpt lat="42.94205211216508" lon="11.849661754851569"><ele>644.0</ele><time>2026-05-02T14:14:28Z</time></trkpt><trkpt lat="42.941906627615104" lon="11.849740813400956"><ele>645.0</ele><time>2026-05-02T14:14:29Z</time></trkpt><trkpt lat="42.94176926561995" lon="11.849806696395277"><ele>645.25</ele><time>2026-05-02T14:14:30Z</time></trkpt><trkpt lat="42.94165077467334" lon="11.8498646147819"><ele>645.5</ele><time>2026-05-02T14:14:31Z</time></trkpt><trkpt lat="42.941544567855935" lon="11.849917694705281"><ele>645.75</ele><time>2026-05-02T14:14:32Z</time></trkpt><trkpt lat="42.94143393707362" lon="11.84996017284517"><ele>646.0</ele><time>2026-05-02T14:14:33Z</time></trkpt><trkpt lat="42.94131595092391" lon="11.849982128938466"><ele>646.0</ele><time>2026-05-02T14:14:34Z</time></trkpt><trkpt lat="42.94119244808517" lon="11.84995393278694"><ele>646.0</ele><time>2026-05-02T14:14:35Z</time></trkpt><trkpt lat="42.941068882267075" lon="11.849870694342568"><ele>646.0</ele><time>2026-05-02T14:14:36Z</time></trkpt><trkpt lat="42.94096931204294" lon="11.849779046755712"><ele>646.0</ele><time>2026-05-02T14:14:37Z</time></trkpt><trkpt lat="42.940864039086485" lon="11.849716370532226"><ele>647.0</ele><time>2026-05-02T14:14:38Z</time></trkpt><trkpt lat="42.940741783603166" lon="11.84969376428548"><ele>648.0</ele><time>2026-05-02T14:14:39Z</time></trkpt><trkpt lat="42.940611556319695" lon="11.849694574799651"><ele>649.0</ele><time>2026-05-02T14:14:40Z</time></trkpt><trkpt lat="42.940487950382405" lon="11.849713243274529"><ele>650.0</ele><time>2026-05-02T14:14:41Z</time></trkpt><trkpt lat="42.9403745403443" lon="11.849719456132782"><ele>650.0</ele><time>2026-05-02T14:14:42Z</time></trkpt><trkpt lat="42.94026548806401" lon="11.84970221180436"><ele>650.0</ele><time>2026-05-02T14:14:43Z</time></trkpt><trkpt lat="42.94017016743098" lon="11.849645656176312"><ele>650.0</ele><time>2026-05-02T14:14:44Z</time></trkpt><trkpt lat="42.94009544310034" lon="11.849563988297609"><ele>650.0</ele><time>2026-05-02T14:14:45Z</time></trkpt><trkpt lat="42.94004299113431" lon="11.849480377868446"><ele>650.0</ele><time>2026-05-02T14:14:46Z</time></trkpt><trkpt lat="42.94001025449568" lon="11.849406619585803"><ele>650.0</ele><time>2026-05-02T14:14:47Z</time></trkpt><trkpt lat="42.93995166347573" lon="11.849240801215531"><ele>650.0</ele><time>2026-05-02T14:14:49Z</time></trkpt><trkpt lat="42.93991110334877" lon="11.849118233837705"><ele>650.0</ele><time>2026-05-02T14:14:50Z</time></trkpt><trkpt lat="42.93985548579553" lon="11.848969720545702"><ele>650.0</ele><time>2026-05-02T14:14:51Z</time></trkpt><trkpt lat="42.93979375223105" lon="11.848799694488713"><ele>650.0</ele><time>2026-05-02T14:14:52Z</time></trkpt><trkpt lat="42.939733355250844" lon="11.848639424622062"><ele>650.0</ele><time>2026-05-02T14:14:53Z</time></trkpt><trkpt lat="42.93968386550481" lon="11.848490732236291"><ele>650.0</ele><time>2026-05-02T14:14:54Z</time></trkpt><trkpt lat="42.939628811224935" lon="11.848360637088348"><ele>650.0</ele><time>2026-05-02T14:14:55Z</time></trkpt><trkpt lat="42.939541680332894" lon="11.848250540254007"><ele>649.75</ele><time>2026-05-02T14:14:56Z</time></trkpt><trkpt lat="42.9394268968369" lon="11.848181426833074"><ele>649.5</ele><time>2026-05-02T14:14:57Z</time></trkpt><trkpt lat="42.939280677665955" lon="11.848152385281502"><ele>649.25</ele><time>2026-05-02T14:14:58Z</time></trkpt><trkpt lat="42.93910766153771" lon="11.848154369591976"><ele>649.0</ele><time>2026-05-02T14:14:59Z</time></trkpt><trkpt lat="42.938931784078356" lon="11.848157435218985"><ele>649.0</ele><time>2026-05-02T14:15:00Z</time></trkpt><trkpt lat="42.93882165459627" lon="11.848159502734843"><ele>649.0</ele><time>2026-05-02T14:15:01Z</time></trkpt><trkpt lat="42.938679230199256" lon="11.848129837340492"><ele>649.0</ele><time>2026-05-02T14:15:02Z</time></trkpt><trkpt lat="42.938555074579945" lon="11.848016897035464"><ele>649.0</ele><time>2026-05-02T14:15:03Z</time></trkpt><trkpt lat="42.93842937643395" lon="11.847877839961887"><ele>650.6666666666667</ele><time>2026-05-02T14:15:04Z</time></trkpt><trkpt lat="42.93829299978893" lon="11.84775261094715"><ele>652.3333333333334</ele><time>2026-05-02T14:15:05Z</time></trkpt><trkpt lat="42.938171893353186" lon="11.847643383134637"><ele>654.0</ele><time>2026-05-02T14:15:06Z</time></trkpt><trkpt lat="42.93803508886232" lon="11.847575093489684"><ele>649.6666666666666</ele><time>2026-05-02T14:15:07Z</time></trkpt><trkpt lat="42.93786695222535" lon="11.8475424668411"><ele>645.3333333333333</ele><time>2026-05-02T14:15:08Z</time></trkpt><trkpt lat="42.9376771958389" lon="11.84753196089359"><ele>641.0</ele><time>2026-05-02T14:15:09Z</time></trkpt><trkpt lat="42.937487814704724" lon="11.847516496418361"><ele>640.6666666666666</ele><time>2026-05-02T14:15:10Z</time></trkpt><trkpt lat="42.937308291877464" lon="11.847491663832571"><ele>640.3333333333334</ele><time>2026-05-02T14:15:11Z</time></trkpt><trkpt lat="42.937125429653" lon="11.847450424936593"><ele>640.0</ele><time>2026-05-02T14:15:12Z</time></trkpt><trkpt lat="42.93695255058089" lon="11.8473989677296"><ele>640.0</ele><time>2026-05-02T14:15:13Z</time></trkpt><trkpt lat="42.936799759396486" lon="11.847312247687293"><ele>640.0</ele><time>2026-05-02T14:15:14Z</time></trkpt><trkpt lat="42.93665982560571" lon="11.847185917073654"><ele>640.0</ele><time>2026-05-02T14:15:15Z</time></trkpt><trkpt lat="42.93650139476017" lon="11.847021626229308"><ele>640.6666666666667</ele><time>2026-05-02T14:15:16Z</time></trkpt><trkpt lat="42.93632540359298" lon="11.846843638959456"><ele>641.3333333333334</ele><time>2026-05-02T14:15:17Z</time></trkpt><trkpt lat="42.9361431048329" lon="11.846674377257896"><ele>642.0</ele><time>2026-05-02T14:15:18Z</time></trkpt><trkpt lat="42.93595106035279" lon="11.846509326784707"><ele>641.0</ele><time>2026-05-02T14:15:19Z</time></trkpt><trkpt lat="42.93576037117941" lon="11.846347470887546"><ele>640.0</ele><time>2026-05-02T14:15:20Z</time></trkpt><trkpt lat="42.93556980370457" lon="11.846192655044412"><ele>639.0</ele><time>2026-05-02T14:15:21Z</time></trkpt><trkpt lat="42.935378054244325" lon="11.846039912279188"><ele>636.6666666666666</ele><time>2026-05-02T14:15:22Z</time></trkpt><trkpt lat="42.93518898772546" lon="11.845898018565812"><ele>634.3333333333333</ele><time>2026-05-02T14:15:23Z</time></trkpt><trkpt lat="42.93501399665342" lon="11.84576872398316"><ele>632.0</ele><time>2026-05-02T14:15:24Z</time></trkpt><trkpt lat="42.93484777704718" lon="11.845641281002063"><ele>632.0</ele><time>2026-05-02T14:15:25Z</time></trkpt><trkpt lat="42.934690095819086" lon="11.845523221500185"><ele>632.0</ele><time>2026-05-02T14:15:26Z</time></trkpt><trkpt lat="42.93455325114044" lon="11.845423292337959"><ele>632.0</ele><time>2026-05-02T14:15:27Z</time></trkpt><trkpt lat="42.93443921497689" lon="11.845337595444407"><ele>632.0</ele><time>2026-05-02T14:15:28.001Z</time></trkpt><trkpt lat="42.93433229877485" lon="11.845253946933578"><ele>632.0</ele><time>2026-05-02T14:15:29.001Z</time></trkpt><trkpt lat="42.93424533736755" lon="11.845147507555366"><ele>632.0</ele><time>2026-05-02T14:15:30.001Z</time></trkpt><trkpt lat="42.93419869812533" lon="11.844990785694488"><ele>632.0</ele><time>2026-05-02T14:15:31.001Z</time></trkpt><trkpt lat="42.93418112439606" lon="11.844819948476257"><ele>628.3333333333333</ele><time>2026-05-02T14:15:32.001Z</time></trkpt><trkpt lat="42.934180422678274" lon="11.844599430604617"><ele>624.6666666666666</ele><time>2026-05-02T14:15:33.001Z</time></trkpt><trkpt lat="42.934183788032605" lon="11.84434937364588"><ele>621.0</ele><time>2026-05-02T14:15:34.001Z</time></trkpt><trkpt lat="42.934182034390474" lon="11.844074924694414"><ele>620.3333333333334</ele><time>2026-05-02T14:15:35.001Z</time></trkpt><trkpt lat="42.93418167071338" lon="11.843794346482818"><ele>619.6666666666667</ele><time>2026-05-02T14:15:36.001Z</time></trkpt><trkpt lat="42.93417659217964" lon="11.84351120838929"><ele>619.0</ele><time>2026-05-02T14:15:37.001Z</time></trkpt><trkpt lat="42.934161277130535" lon="11.843233519795273"><ele>617.6666666666667</ele><time>2026-05-02T14:15:38.001Z</time></trkpt><trkpt lat="42.93414005053537" lon="11.842981217108106"><ele>616.3333333333334</ele><time>2026-05-02T14:15:39.001Z</time></trkpt><trkpt lat="42.9341148853824" lon="11.84274814116141"><ele>615.0</ele><time>2026-05-02T14:15:40.001Z</time></trkpt><trkpt lat="42.93409161296508" lon="11.842531423389477"><ele>613.25</ele><time>2026-05-02T14:15:41.001Z</time></trkpt><trkpt lat="42.934068106139456" lon="11.842323298499313"><ele>611.5</ele><time>2026-05-02T14:15:42.001Z</time></trkpt><trkpt lat="42.93403447862433" lon="11.842126930965021"><ele>609.75</ele><time>2026-05-02T14:15:43.001Z</time></trkpt><trkpt lat="42.93398765632794" lon="11.841940734049233"><ele>608.0</ele><time>2026-05-02T14:15:44.001Z</time></trkpt><trkpt lat="42.93393592728568" lon="11.8417638046478"><ele>606.25</ele><time>2026-05-02T14:15:45.001Z</time></trkpt><trkpt lat="42.93386507454935" lon="11.841581159848984"><ele>604.5</ele><time>2026-05-02T14:15:46.001Z</time></trkpt><trkpt lat="42.93378833602639" lon="11.841401746237"><ele>602.75</ele><time>2026-05-02T14:15:47.001Z</time></trkpt><trkpt lat="42.93371838076681" lon="11.841240563224872"><ele>601.0</ele><time>2026-05-02T14:15:48Z</time></trkpt><trkpt lat="42.93365245054954" lon="11.841084551714184"><ele>599.25</ele><time>2026-05-02T14:15:49Z</time></trkpt><trkpt lat="42.933588823520346" lon="11.840934052436497"><ele>597.5</ele><time>2026-05-02T14:15:50Z</time></trkpt><trkpt lat="42.933531140329436" lon="11.840786006997634"><ele>595.75</ele><time>2026-05-02T14:15:51Z</time></trkpt><trkpt lat="42.93347358954242" lon="11.840647258669062"><ele>594.0</ele><time>2026-05-02T14:15:52Z</time></trkpt><trkpt lat="42.93341506918242" lon="11.840500867268148"><ele>595.5</ele><time>2026-05-02T14:15:53Z</time></trkpt><trkpt lat="42.93334170570015" lon="11.84032393723815"><ele>597.0</ele><time>2026-05-02T14:15:54Z</time></trkpt><trkpt lat="42.93326423182809" lon="11.840138695411312"><ele>598.5</ele><time>2026-05-02T14:15:55Z</time></trkpt><trkpt lat="42.933199496784574" lon="11.839971220578304"><ele>600.0</ele><time>2026-05-02T14:15:56Z</time></trkpt><trkpt lat="42.93314240664018" lon="11.83982475986541"><ele>600.0</ele><time>2026-05-02T14:15:57Z</time></trkpt><trkpt lat="42.933099508720915" lon="11.839684596026895"><ele>600.0</ele><time>2026-05-02T14:15:58Z</time></trkpt><trkpt lat="42.93307836798431" lon="11.839547157732904"><ele>600.0</ele><time>2026-05-02T14:15:59Z</time></trkpt><trkpt lat="42.93305846716914" lon="11.839407128952756"><ele>600.0</ele><time>2026-05-02T14:16:00Z</time></trkpt><trkpt lat="42.93304726174745" lon="11.839275467088054"><ele>600.0</ele><time>2026-05-02T14:16:01Z</time></trkpt><trkpt lat="42.93304405426788" lon="11.839148173915346"><ele>598.6</ele><time>2026-05-02T14:16:02Z</time></trkpt><trkpt lat="42.93304345509512" lon="11.839017441389707"><ele>597.2</ele><time>2026-05-02T14:16:03Z</time></trkpt><trkpt lat="42.93304921895993" lon="11.838873049617542"><ele>595.8</ele><time>2026-05-02T14:16:04Z</time></trkpt><trkpt lat="42.93307203943474" lon="11.838718365000112"><ele>594.4</ele><time>2026-05-02T14:16:05Z</time></trkpt><trkpt lat="42.93310563200136" lon="11.83854689788848"><ele>593.0</ele><time>2026-05-02T14:16:06Z</time></trkpt><trkpt lat="42.93315883347624" lon="11.838350412149847"><ele>591.0</ele><time>2026-05-02T14:16:07Z</time></trkpt><trkpt lat="42.933222492179226" lon="11.838138701562206"><ele>589.0</ele><time>2026-05-02T14:16:08Z</time></trkpt><trkpt lat="42.93329321308279" lon="11.837922648927357"><ele>587.0</ele><time>2026-05-02T14:16:09Z</time></trkpt><trkpt lat="42.933356765427526" lon="11.837718305332258"><ele>580.75</ele><time>2026-05-02T14:16:10Z</time></trkpt><trkpt lat="42.93340721911805" lon="11.83751487784937"><ele>574.5</ele><time>2026-05-02T14:16:11Z</time></trkpt><trkpt lat="42.933435639874425" lon="11.837317694369707"><ele>568.25</ele><time>2026-05-02T14:16:12Z</time></trkpt><trkpt lat="42.93344151375775" lon="11.837123347979775"><ele>562.0</ele><time>2026-05-02T14:16:13Z</time></trkpt><trkpt lat="42.93343774999" lon="11.836925458685512"><ele>560.5</ele><time>2026-05-02T14:16:14Z</time></trkpt><trkpt lat="42.93342958527208" lon="11.83673193504205"><ele>559.0</ele><time>2026-05-02T14:16:15Z</time></trkpt><trkpt lat="42.93341158258825" lon="11.836552215937518"><ele>557.5</ele><time>2026-05-02T14:16:16Z</time></trkpt><trkpt lat="42.93336912079487" lon="11.836390545085461"><ele>556.0</ele><time>2026-05-02T14:16:17Z</time></trkpt><trkpt lat="42.93329650472176" lon="11.83624276800067"><ele>559.5</ele><time>2026-05-02T14:16:18Z</time></trkpt><trkpt lat="42.93320635018183" lon="11.836100461172839"><ele>563.0</ele><time>2026-05-02T14:16:19Z</time></trkpt><trkpt lat="42.93311859409083" lon="11.835961019518791"><ele>566.5</ele><time>2026-05-02T14:16:20Z</time></trkpt><trkpt lat="42.9330372062826" lon="11.835821545400865"><ele>570.0</ele><time>2026-05-02T14:16:21Z</time></trkpt><trkpt lat="42.93296864903118" lon="11.835700281280083"><ele>570.0</ele><time>2026-05-02T14:16:22Z</time></trkpt><trkpt lat="42.93290112456691" lon="11.835621013551895"><ele>570.0</ele><time>2026-05-02T14:16:23Z</time></trkpt><trkpt lat="42.932827995418236" lon="11.835586354430108"><ele>570.0</ele><time>2026-05-02T14:16:24Z</time></trkpt><trkpt lat="42.932737125029014" lon="11.835596130047744"><ele>570.0</ele><time>2026-05-02T14:16:25Z</time></trkpt><trkpt lat="42.93264462686535" lon="11.835650934116709"><ele>570.0</ele><time>2026-05-02T14:16:26Z</time></trkpt><trkpt lat="42.932578444593844" lon="11.835733055718698"><ele>570.0</ele><time>2026-05-02T14:16:27Z</time></trkpt><trkpt lat="42.9325518720874" lon="11.835850994485575"><ele>570.5</ele><time>2026-05-02T14:16:28Z</time></trkpt><trkpt lat="42.932555172802054" lon="11.83600583420043"><ele>571.0</ele><time>2026-05-02T14:16:29Z</time></trkpt><trkpt lat="42.93257138488423" lon="11.836179695734588"><ele>571.5</ele><time>2026-05-02T14:16:30Z</time></trkpt><trkpt lat="42.93258822523362" lon="11.836362188104227"><ele>572.0</ele><time>2026-05-02T14:16:31Z</time></trkpt><trkpt lat="42.932600008390764" lon="11.836550107412652"><ele>573.75</ele><time>2026-05-02T14:16:32Z</time></trkpt><trkpt lat="42.93261264567794" lon="11.836734760341168"><ele>575.5</ele><time>2026-05-02T14:16:33Z</time></trkpt><trkpt lat="42.93261807663377" lon="11.83690841664251"><ele>577.25</ele><time>2026-05-02T14:16:34Z</time></trkpt><trkpt lat="42.93262813332842" lon="11.837071036184447"><ele>579.0</ele><time>2026-05-02T14:16:35Z</time></trkpt><trkpt lat="42.932627115474176" lon="11.837224990120006"><ele>578.6</ele><time>2026-05-02T14:16:36Z</time></trkpt><trkpt lat="42.93260782470032" lon="11.837369051685155"><ele>578.2</ele><time>2026-05-02T14:16:37Z</time></trkpt><trkpt lat="42.93256270272997" lon="11.837504059136748"><ele>577.8000000000001</ele><time>2026-05-02T14:16:38Z</time></trkpt><trkpt lat="42.93249974324319" lon="11.837628868517472"><ele>577.4</ele><time>2026-05-02T14:16:39Z</time></trkpt><trkpt lat="42.932418671703445" lon="11.837737629921483"><ele>577.0</ele><time>2026-05-02T14:16:40Z</time></trkpt><trkpt lat="42.93231869547564" lon="11.837837239200912"><ele>577.0</ele><time>2026-05-02T14:16:41Z</time></trkpt><trkpt lat="42.932211029234345" lon="11.837941730663486"><ele>577.0</ele><time>2026-05-02T14:16:42Z</time></trkpt><trkpt lat="42.93209156517612" lon="11.838041660814755"><ele>577.0</ele><time>2026-05-02T14:16:43Z</time></trkpt><trkpt lat="42.9319477447671" lon="11.838118682450121"><ele>577.0</ele><time>2026-05-02T14:16:44Z</time></trkpt><trkpt lat="42.93179281647521" lon="11.838179075650668"><ele>573.5</ele><time>2026-05-02T14:16:45Z</time></trkpt><trkpt lat="42.931649908353165" lon="11.838236626740674"><ele>570.0</ele><time>2026-05-02T14:16:46Z</time></trkpt><trkpt lat="42.93153190874591" lon="11.838288164316177"><ele>566.5</ele><time>2026-05-02T14:16:47Z</time></trkpt><trkpt lat="42.93142439918436" lon="11.838317556495085"><ele>563.0</ele><time>2026-05-02T14:16:48Z</time></trkpt><trkpt lat="42.93131666897256" lon="11.838305972027037"><ele>563.0</ele><time>2026-05-02T14:16:49Z</time></trkpt><trkpt lat="42.93119423409203" lon="11.838256391323354"><ele>563.0</ele><time>2026-05-02T14:16:50Z</time></trkpt><trkpt lat="42.93106738261591" lon="11.838188803651066"><ele>563.0</ele><time>2026-05-02T14:16:51Z</time></trkpt><trkpt lat="42.9309421020058" lon="11.83813293626613"><ele>563.0</ele><time>2026-05-02T14:16:52Z</time></trkpt><trkpt lat="42.93081081662123" lon="11.838117806566428"><ele>561.6666666666666</ele><time>2026-05-02T14:16:53Z</time></trkpt><trkpt lat="42.93066540733343" lon="11.83814597868184"><ele>560.3333333333334</ele><time>2026-05-02T14:16:54Z</time></trkpt><trkpt lat="42.93050443076933" lon="11.838218452798188"><ele>559.0</ele><time>2026-05-02T14:16:55Z</time></trkpt><trkpt lat="42.93033707914423" lon="11.838299480275737"><ele>559.0</ele><time>2026-05-02T14:16:56Z</time></trkpt><trkpt lat="42.93017017012021" lon="11.838369716133283"><ele>559.0</ele><time>2026-05-02T14:16:57Z</time></trkpt><trkpt lat="42.93001461790614" lon="11.838429884523588"><ele>559.0</ele><time>2026-05-02T14:16:58Z</time></trkpt><trkpt lat="42.92986789776803" lon="11.838487547334882"><ele>558.5</ele><time>2026-05-02T14:16:59Z</time></trkpt><trkpt lat="42.9297371551507" lon="11.838550325186118"><ele>558.0</ele><time>2026-05-02T14:17:00Z</time></trkpt><trkpt lat="42.92962411209655" lon="11.83862435444198"><ele>557.5</ele><time>2026-05-02T14:17:01Z</time></trkpt><trkpt lat="42.92952205101789" lon="11.838728016919276"><ele>557.0</ele><time>2026-05-02T14:17:02Z</time></trkpt><trkpt lat="42.929425806258664" lon="11.838857231392373"><ele>557.0</ele><time>2026-05-02T14:17:03Z</time></trkpt><trkpt lat="42.92934769308331" lon="11.839015063406418"><ele>557.0</ele><time>2026-05-02T14:17:04Z</time></trkpt><trkpt lat="42.92929306718849" lon="11.839203579318372"><ele>557.0</ele><time>2026-05-02T14:17:05Z</time></trkpt><trkpt lat="42.92925527694837" lon="11.839392325049024"><ele>557.0</ele><time>2026-05-02T14:17:06Z</time></trkpt><trkpt lat="42.929218997470684" lon="11.839551134547703"><ele>553.8000000000001</ele><time>2026-05-02T14:17:07Z</time></trkpt><trkpt lat="42.92916809395338" lon="11.839683101136755"><ele>550.6</ele><time>2026-05-02T14:17:08Z</time></trkpt><trkpt lat="42.929090034969605" lon="11.839784464305765"><ele>547.4000000000001</ele><time>2026-05-02T14:17:09Z</time></trkpt><trkpt lat="42.928982675000434" lon="11.839831538486171"><ele>544.2</ele><time>2026-05-02T14:17:10Z</time></trkpt><trkpt lat="42.92887743304466" lon="11.839885224970287"><ele>541.0</ele><time>2026-05-02T14:17:11Z</time></trkpt><trkpt lat="42.928764318177016" lon="11.83986781879184"><ele>541.0</ele><time>2026-05-02T14:17:12Z</time></trkpt><trkpt lat="42.92865860660782" lon="11.839809974924243"><ele>541.0</ele><time>2026-05-02T14:17:13Z</time></trkpt><trkpt lat="42.92857031375628" lon="11.839715242543383"><ele>541.0</ele><time>2026-05-02T14:17:14Z</time></trkpt><trkpt lat="42.9285124296605" lon="11.839572647386015"><ele>541.0</ele><time>2026-05-02T14:17:15Z</time></trkpt><trkpt lat="42.92844380506413" lon="11.839423723853834"><ele>541.0</ele><time>2026-05-02T14:17:16Z</time></trkpt><trkpt lat="42.9284059586148" lon="11.839265206364017"><ele>541.0</ele><time>2026-05-02T14:17:17Z</time></trkpt><trkpt lat="42.92836245120981" lon="11.839139517835948"><ele>541.0</ele><time>2026-05-02T14:17:18Z</time></trkpt><trkpt lat="42.92830222010077" lon="11.839062605337572"><ele>541.0</ele><time>2026-05-02T14:17:19Z</time></trkpt><trkpt lat="42.92821889320783" lon="11.839008456589411"><ele>541.0</ele><time>2026-05-02T14:17:20Z</time></trkpt><trkpt lat="42.92811247912089" lon="11.838973785475439"><ele>539.5</ele><time>2026-05-02T14:17:21Z</time></trkpt><trkpt lat="42.9280054060964" lon="11.838986767177074"><ele>538.0</ele><time>2026-05-02T14:17:22Z</time></trkpt><trkpt lat="42.92789758662119" lon="11.839049180429523"><ele>536.5</ele><time>2026-05-02T14:17:23Z</time></trkpt><trkpt lat="42.927792660162865" lon="11.8391480056989"><ele>535.0</ele><time>2026-05-02T14:17:24Z</time></trkpt><trkpt lat="42.92768301958181" lon="11.839262995964221"><ele>536.5</ele><time>2026-05-02T14:17:25Z</time></trkpt><trkpt lat="42.92756911180576" lon="11.839373400560934"><ele>538.0</ele><time>2026-05-02T14:17:26Z</time></trkpt><trkpt lat="42.92745425440229" lon="11.839479205878458"><ele>539.5</ele><time>2026-05-02T14:17:27Z</time></trkpt><trkpt lat="42.92733347282598" lon="11.839594203493531"><ele>541.0</ele><time>2026-05-02T14:17:28Z</time></trkpt><trkpt lat="42.92720525405739" lon="11.839716860160252"><ele>541.3333333333334</ele><time>2026-05-02T14:17:29Z</time></trkpt><trkpt lat="42.92706936999929" lon="11.839850762685039"><ele>541.6666666666666</ele><time>2026-05-02T14:17:30Z</time></trkpt><trkpt lat="42.926937777193466" lon="11.83997841935724"><ele>542.0</ele><time>2026-05-02T14:17:31Z</time></trkpt><trkpt lat="42.926825122257235" lon="11.840083758218555"><ele>543.6</ele><time>2026-05-02T14:17:32Z</time></trkpt><trkpt lat="42.92673199699635" lon="11.840161395624284"><ele>545.2</ele><time>2026-05-02T14:17:33Z</time></trkpt><trkpt lat="42.92665134329597" lon="11.84021222068219"><ele>546.8</ele><time>2026-05-02T14:17:34Z</time></trkpt><trkpt lat="42.92657786281824" lon="11.84020537454987"><ele>548.4</ele><time>2026-05-02T14:17:35Z</time></trkpt><trkpt lat="42.92649969716315" lon="11.840157694845537"><ele>550.0</ele><time>2026-05-02T14:17:36Z</time></trkpt><trkpt lat="42.92642027575601" lon="11.840068088500866"><ele>550.4</ele><time>2026-05-02T14:17:37Z</time></trkpt><trkpt lat="42.92636661689313" lon="11.839951889102831"><ele>550.8</ele><time>2026-05-02T14:17:38Z</time></trkpt><trkpt lat="42.926358623628104" lon="11.839820742228833"><ele>551.2</ele><time>2026-05-02T14:17:39Z</time></trkpt><trkpt lat="42.926389859071875" lon="11.839683695606409"><ele>551.6</ele><time>2026-05-02T14:17:40Z</time></trkpt><trkpt lat="42.92646729934159" lon="11.839556005857768"><ele>552.0</ele><time>2026-05-02T14:17:41.001Z</time></trkpt><trkpt lat="42.92653966779741" lon="11.839377913808791"><ele>552.6666666666666</ele><time>2026-05-02T14:17:42.001Z</time></trkpt><trkpt lat="42.92661940423652" lon="11.839170902371917"><ele>553.3333333333333</ele><time>2026-05-02T14:17:43.001Z</time></trkpt><trkpt lat="42.92668120606193" lon="11.838937093698544"><ele>554.0</ele><time>2026-05-02T14:17:44.001Z</time></trkpt><trkpt lat="42.92673406867418" lon="11.838726358500548"><ele>553.6</ele><time>2026-05-02T14:17:45.001Z</time></trkpt><trkpt lat="42.926781870692935" lon="11.838553796303431"><ele>553.2</ele><time>2026-05-02T14:17:46.001Z</time></trkpt><trkpt lat="42.92682043155017" lon="11.838410950806844"><ele>552.8000000000001</ele><time>2026-05-02T14:17:47.001Z</time></trkpt><trkpt lat="42.92684287101264" lon="11.838305123103451"><ele>552.4</ele><time>2026-05-02T14:17:48.001Z</time></trkpt><trkpt lat="42.92683406595991" lon="11.838167888952885"><ele>552.0</ele><time>2026-05-02T14:17:50.001Z</time></trkpt><trkpt lat="42.926781199935576" lon="11.838070664201194"><ele>553.2</ele><time>2026-05-02T14:19:46Z</time></trkpt><trkpt lat="42.926684146410075" lon="11.837980096095444"><ele>554.4000000000001</ele><time>2026-05-02T14:19:48Z</time></trkpt><trkpt lat="42.92661478922143" lon="11.837932991501065"><ele>555.5999999999999</ele><time>2026-05-02T14:19:49Z</time></trkpt><trkpt lat="42.92653525614241" lon="11.837894299672381"><ele>556.8</ele><time>2026-05-02T14:19:50Z</time></trkpt><trkpt lat="42.926449617754265" lon="11.837853114417758"><ele>558.0</ele><time>2026-05-02T14:19:51Z</time></trkpt><trkpt lat="42.92635501437335" lon="11.837810066489363"><ele>558.0</ele><time>2026-05-02T14:19:52Z</time></trkpt><trkpt lat="42.92625286911555" lon="11.83776191066203"><ele>558.0</ele><time>2026-05-02T14:19:53Z</time></trkpt><trkpt lat="42.92614554341827" lon="11.837711125239988"><ele>558.0</ele><time>2026-05-02T14:19:54Z</time></trkpt><trkpt lat="42.92604065252436" lon="11.837658481884269"><ele>558.0</ele><time>2026-05-02T14:19:55Z</time></trkpt><trkpt lat="42.92594565769034" lon="11.837604625544579"><ele>558.0</ele><time>2026-05-02T14:19:56Z</time></trkpt><trkpt lat="42.925860399906135" lon="11.837524587329497"><ele>560.8</ele><time>2026-05-02T14:19:57Z</time></trkpt><trkpt lat="42.9257933370243" lon="11.837416442954535"><ele>563.5999999999999</ele><time>2026-05-02T14:19:58Z</time></trkpt><trkpt lat="42.92575431575056" lon="11.837281208675002"><ele>566.4000000000001</ele><time>2026-05-02T14:19:59Z</time></trkpt><trkpt lat="42.92574720640974" lon="11.837142476049754"><ele>569.2</ele><time>2026-05-02T14:20:00Z</time></trkpt><trkpt lat="42.925768645398634" lon="11.836991427127042"><ele>572.0</ele><time>2026-05-02T14:20:01Z</time></trkpt><trkpt lat="42.92580327336626" lon="11.836815437008694"><ele>573.0</ele><time>2026-05-02T14:20:02Z</time></trkpt><trkpt lat="42.92583780531008" lon="11.836612869111146"><ele>574.0</ele><time>2026-05-02T14:20:03Z</time></trkpt><trkpt lat="42.92586847805308" lon="11.836397790563522"><ele>575.0</ele><time>2026-05-02T14:20:04Z</time></trkpt><trkpt lat="42.92589008414005" lon="11.83616593218126"><ele>571.6666666666666</ele><time>2026-05-02T14:20:05Z</time></trkpt><trkpt lat="42.92590511358853" lon="11.83593334856416"><ele>568.3333333333334</ele><time>2026-05-02T14:20:06Z</time></trkpt><trkpt lat="42.925914010037864" lon="11.835727677462401"><ele>565.0</ele><time>2026-05-02T14:20:07Z</time></trkpt><trkpt lat="42.92591365730423" lon="11.835541472499097"><ele>568.25</ele><time>2026-05-02T14:20:08Z</time></trkpt><trkpt lat="42.92589186468886" lon="11.835375990040477"><ele>571.5</ele><time>2026-05-02T14:20:09Z</time></trkpt><trkpt lat="42.925838830423466" lon="11.835225657360102"><ele>574.75</ele><time>2026-05-02T14:20:10Z</time></trkpt><trkpt lat="42.925753500847" lon="11.835093924944308"><ele>578.0</ele><time>2026-05-02T14:20:11Z</time></trkpt><trkpt lat="42.92564699642284" lon="11.83496567039395"><ele>578.0</ele><time>2026-05-02T14:20:12Z</time></trkpt><trkpt lat="42.925550154673545" lon="11.83485002856138"><ele>578.0</ele><time>2026-05-02T14:20:13Z</time></trkpt><trkpt lat="42.925469416906836" lon="11.834753951222535"><ele>578.0</ele><time>2026-05-02T14:20:14Z</time></trkpt><trkpt lat="42.9253814680513" lon="11.834659557799341"><ele>578.0</ele><time>2026-05-02T14:20:15Z</time></trkpt><trkpt lat="42.92526786422368" lon="11.8345846564505"><ele>578.0</ele><time>2026-05-02T14:20:16Z</time></trkpt><trkpt lat="42.92514493955847" lon="11.834553560152246"><ele>578.0</ele><time>2026-05-02T14:20:17Z</time></trkpt><trkpt lat="42.92501401944311" lon="11.834527523270111"><ele>578.0</ele><time>2026-05-02T14:20:18Z</time></trkpt><trkpt lat="42.92485774046555" lon="11.8345792227033"><ele>578.0</ele><time>2026-05-02T14:20:19Z</time></trkpt><trkpt lat="42.924713837552005" lon="11.83461809447402"><ele>580.4</ele><time>2026-05-02T14:20:20Z</time></trkpt><trkpt lat="42.92460507313207" lon="11.83468181683377"><ele>582.8</ele><time>2026-05-02T14:20:21Z</time></trkpt><trkpt lat="42.92452831909456" lon="11.834778578271337"><ele>585.2</ele><time>2026-05-02T14:20:22Z</time></trkpt><trkpt lat="42.9244783288864" lon="11.834909452604583"><ele>587.6</ele><time>2026-05-02T14:20:23Z</time></trkpt><trkpt lat="42.92446313129066" lon="11.835067745903205"><ele>590.0</ele><time>2026-05-02T14:20:24Z</time></trkpt><trkpt lat="42.92448067585407" lon="11.835233700747613"><ele>590.0</ele><time>2026-05-02T14:20:25Z</time></trkpt><trkpt lat="42.92453161220051" lon="11.835414178572838"><ele>590.0</ele><time>2026-05-02T14:20:26Z</time></trkpt><trkpt lat="42.92459148990441" lon="11.835618222885152"><ele>590.0</ele><time>2026-05-02T14:20:27Z</time></trkpt><trkpt lat="42.92458630291269" lon="11.835822566341585"><ele>590.6666666666666</ele><time>2026-05-02T14:20:28Z</time></trkpt><trkpt lat="42.92457007873802" lon="11.836029185796164"><ele>591.3333333333334</ele><time>2026-05-02T14:20:29Z</time></trkpt><trkpt lat="42.92456381869296" lon="11.836244869478834"><ele>592.0</ele><time>2026-05-02T14:20:30Z</time></trkpt><trkpt lat="42.924543571923756" lon="11.836462119235309"><ele>592.0</ele><time>2026-05-02T14:20:31Z</time></trkpt><trkpt lat="42.9245138724874" lon="11.836652313804105"><ele>592.0</ele><time>2026-05-02T14:20:32Z</time></trkpt><trkpt lat="42.92448807094996" lon="11.836803949043341"><ele>592.0</ele><time>2026-05-02T14:20:33Z</time></trkpt><trkpt lat="42.924452668326985" lon="11.836936132884102"><ele>592.0</ele><time>2026-05-02T14:20:34Z</time></trkpt><trkpt lat="42.92438900594823" lon="11.837034096605347"><ele>591.0</ele><time>2026-05-02T14:20:35Z</time></trkpt><trkpt lat="42.92431853054204" lon="11.837133503728701"><ele>590.0</ele><time>2026-05-02T14:20:36Z</time></trkpt><trkpt lat="42.92420888119868" lon="11.83713378594668"><ele>589.0</ele><time>2026-05-02T14:20:37Z</time></trkpt><trkpt lat="42.924115602355066" lon="11.837109789714487"><ele>588.0</ele><time>2026-05-02T14:20:38Z</time></trkpt><trkpt lat="42.92400867858769" lon="11.83706286312996"><ele>587.0</ele><time>2026-05-02T14:20:39Z</time></trkpt><trkpt lat="42.92391919274117" lon="11.83693647862722"><ele>592.0</ele><time>2026-05-02T14:20:40Z</time></trkpt><trkpt lat="42.92389509274226" lon="11.83677590660219"><ele>597.0</ele><time>2026-05-02T14:20:41Z</time></trkpt><trkpt lat="42.923883786516576" lon="11.836608846540917"><ele>602.0</ele><time>2026-05-02T14:20:42Z</time></trkpt><trkpt lat="42.92389556581653" lon="11.836418407300753"><ele>607.0</ele><time>2026-05-02T14:20:43Z</time></trkpt><trkpt lat="42.92390076825695" lon="11.836192060011982"><ele>606.0</ele><time>2026-05-02T14:20:44Z</time></trkpt><trkpt lat="42.92391128791051" lon="11.835963603380781"><ele>605.0</ele><time>2026-05-02T14:20:45Z</time></trkpt><trkpt lat="42.92390088383002" lon="11.8357755017164"><ele>604.0</ele><time>2026-05-02T14:20:46Z</time></trkpt><trkpt lat="42.92386216765491" lon="11.83562154465061"><ele>603.0</ele><time>2026-05-02T14:20:47Z</time></trkpt><trkpt lat="42.92377964082479" lon="11.835502893571782"><ele>603.0</ele><time>2026-05-02T14:20:48Z</time></trkpt><trkpt lat="42.92368133731909" lon="11.835393579048961"><ele>603.0</ele><time>2026-05-02T14:20:49Z</time></trkpt><trkpt lat="42.92357187804948" lon="11.835322908579654"><ele>603.0</ele><time>2026-05-02T14:20:50Z</time></trkpt><trkpt lat="42.92345589494406" lon="11.835291590092696"><ele>603.0</ele><time>2026-05-02T14:20:51Z</time></trkpt><trkpt lat="42.923321931256325" lon="11.835291039494319"><ele>606.6666666666666</ele><time>2026-05-02T14:20:52Z</time></trkpt><trkpt lat="42.9231702022158" lon="11.835322414533207"><ele>610.3333333333333</ele><time>2026-05-02T14:20:53Z</time></trkpt><trkpt lat="42.92300559844559" lon="11.83536700906023"><ele>614.0</ele><time>2026-05-02T14:20:54Z</time></trkpt><trkpt lat="42.92284569945146" lon="11.83538603800374"><ele>614.0</ele><time>2026-05-02T14:20:55Z</time></trkpt><trkpt lat="42.92269732940437" lon="11.835360066413557"><ele>614.0</ele><time>2026-05-02T14:20:56Z</time></trkpt><trkpt lat="42.92253969648784" lon="11.835289616041695"><ele>614.0</ele><time>2026-05-02T14:20:57Z</time></trkpt><trkpt lat="42.92237569471875" lon="11.835185064274738"><ele>615.0</ele><time>2026-05-02T14:20:58Z</time></trkpt><trkpt lat="42.92220811622546" lon="11.835054558447187"><ele>616.0</ele><time>2026-05-02T14:20:59Z</time></trkpt><trkpt lat="42.922049719436586" lon="11.834908293260337"><ele>617.0</ele><time>2026-05-02T14:21:00Z</time></trkpt><trkpt lat="42.92191521437726" lon="11.834763519552242"><ele>617.0</ele><time>2026-05-02T14:21:01Z</time></trkpt><trkpt lat="42.92180625554566" lon="11.834597456086346"><ele>617.0</ele><time>2026-05-02T14:21:02Z</time></trkpt><trkpt lat="42.921713183055104" lon="11.834403567290112"><ele>617.0</ele><time>2026-05-02T14:21:03Z</time></trkpt><trkpt lat="42.92160877100235" lon="11.834209298134045"><ele>619.3333333333333</ele><time>2026-05-02T14:21:04Z</time></trkpt><trkpt lat="42.92147720641451" lon="11.834031324537413"><ele>621.6666666666666</ele><time>2026-05-02T14:21:05Z</time></trkpt><trkpt lat="42.92132627281038" lon="11.833884212435507"><ele>624.0</ele><time>2026-05-02T14:21:06Z</time></trkpt><trkpt lat="42.92118074179575" lon="11.833749933411907"><ele>624.0</ele><time>2026-05-02T14:21:07Z</time></trkpt><trkpt lat="42.92105955468252" lon="11.833610146864931"><ele>624.0</ele><time>2026-05-02T14:21:08Z</time></trkpt><trkpt lat="42.92095167014063" lon="11.833446963805157"><ele>624.0</ele><time>2026-05-02T14:21:09Z</time></trkpt><trkpt lat="42.92084351051213" lon="11.833248988661724"><ele>626.3333333333334</ele><time>2026-05-02T14:21:10Z</time></trkpt><trkpt lat="42.920756537713885" lon="11.83303400479376"><ele>628.6666666666667</ele><time>2026-05-02T14:21:11Z</time></trkpt><trkpt lat="42.92069948011408" lon="11.83280320477609"><ele>631.0</ele><time>2026-05-02T14:21:12Z</time></trkpt><trkpt lat="42.92066814461791" lon="11.832558322496194"><ele>631.0</ele><time>2026-05-02T14:21:13Z</time></trkpt><trkpt lat="42.92065944197476" lon="11.832325504874044"><ele>631.0</ele><time>2026-05-02T14:21:14Z</time></trkpt><trkpt lat="42.92065977323928" lon="11.832112290301582"><ele>631.0</ele><time>2026-05-02T14:21:15Z</time></trkpt><trkpt lat="42.92064208793137" lon="11.831912345950183"><ele>631.3333333333334</ele><time>2026-05-02T14:21:16Z</time></trkpt><trkpt lat="42.92058260546683" lon="11.831706356305803"><ele>631.6666666666666</ele><time>2026-05-02T14:21:17Z</time></trkpt><trkpt lat="42.92049768353814" lon="11.83149498825862"><ele>632.0</ele><time>2026-05-02T14:21:18Z</time></trkpt><trkpt lat="42.92042255402905" lon="11.831295553218803"><ele>632.0</ele><time>2026-05-02T14:21:19Z</time></trkpt><trkpt lat="42.92035196342714" lon="11.831122870729446"><ele>632.0</ele><time>2026-05-02T14:21:20Z</time></trkpt><trkpt lat="42.920287037312235" lon="11.830973411063525"><ele>632.0</ele><time>2026-05-02T14:21:21Z</time></trkpt><trkpt lat="42.92021386988832" lon="11.83085241234757"><ele>632.0</ele><time>2026-05-02T14:21:22Z</time></trkpt><trkpt lat="42.92010363862242" lon="11.830764315196083"><ele>636.3333333333333</ele><time>2026-05-02T14:21:23Z</time></trkpt><trkpt lat="42.91996588081558" lon="11.830721114985256"><ele>640.6666666666666</ele><time>2026-05-02T14:21:24Z</time></trkpt><trkpt lat="42.91979494655103" lon="11.83070062263659"><ele>645.0</ele><time>2026-05-02T14:21:25Z</time></trkpt><trkpt lat="42.91960681561361" lon="11.830677785102008"><ele>645.0</ele><time>2026-05-02T14:21:26Z</time></trkpt><trkpt lat="42.919421647722" lon="11.830641297595434"><ele>645.0</ele><time>2026-05-02T14:21:27Z</time></trkpt><trkpt lat="42.91925344208363" lon="11.830604176090281"><ele>645.0</ele><time>2026-05-02T14:21:28Z</time></trkpt><trkpt lat="42.91910765262084" lon="11.830562379492225"><ele>646.0</ele><time>2026-05-02T14:21:29Z</time></trkpt><trkpt lat="42.9189675925511" lon="11.830493110160969"><ele>647.0</ele><time>2026-05-02T14:21:30Z</time></trkpt><trkpt lat="42.91884185861394" lon="11.830374223414038"><ele>648.0</ele><time>2026-05-02T14:21:31Z</time></trkpt><trkpt lat="42.91871529422933" lon="11.830199554289395"><ele>647.6666666666666</ele><time>2026-05-02T14:21:32Z</time></trkpt><trkpt lat="42.918571768583135" lon="11.830000553776609"><ele>647.3333333333333</ele><time>2026-05-02T14:21:33Z</time></trkpt><trkpt lat="42.91841603760857" lon="11.829797302662094"><ele>647.0</ele><time>2026-05-02T14:21:34Z</time></trkpt><trkpt lat="42.91826663367017" lon="11.829612646212038"><ele>646.6666666666666</ele><time>2026-05-02T14:21:35Z</time></trkpt><trkpt lat="42.9181279080694" lon="11.829437467986951"><ele>646.3333333333334</ele><time>2026-05-02T14:21:36Z</time></trkpt><trkpt lat="42.918002592756864" lon="11.82926879451518"><ele>646.0</ele><time>2026-05-02T14:21:37Z</time></trkpt><trkpt lat="42.91789556218284" lon="11.829098746358369"><ele>648.6666666666667</ele><time>2026-05-02T14:21:38Z</time></trkpt><trkpt lat="42.91781835172624" lon="11.828907535144895"><ele>651.3333333333334</ele><time>2026-05-02T14:21:39Z</time></trkpt><trkpt lat="42.91776740359138" lon="11.828683127606451"><ele>654.0</ele><time>2026-05-02T14:21:40Z</time></trkpt><trkpt lat="42.9177225673038" lon="11.828435461369564"><ele>654.0</ele><time>2026-05-02T14:21:41Z</time></trkpt><trkpt lat="42.917671512077725" lon="11.828180698452655"><ele>654.0</ele><time>2026-05-02T14:21:42Z</time></trkpt><trkpt lat="42.91760834085849" lon="11.827908462923789"><ele>654.0</ele><time>2026-05-02T14:21:43Z</time></trkpt><trkpt lat="42.91753086040431" lon="11.827628263815312"><ele>652.0</ele><time>2026-05-02T14:21:44Z</time></trkpt><trkpt lat="42.91743720294057" lon="11.82733812936537"><ele>650.0</ele><time>2026-05-02T14:21:45Z</time></trkpt><trkpt lat="42.917334123453045" lon="11.827064758898926"><ele>650.0</ele><time>2026-05-02T14:21:46Z</time></trkpt><trkpt lat="42.91723467537454" lon="11.826819684653076"><ele>650.0</ele><time>2026-05-02T14:21:47Z</time></trkpt><trkpt lat="42.91713860364448" lon="11.8265865009627"><ele>650.0</ele><time>2026-05-02T14:21:48Z</time></trkpt><trkpt lat="42.9170506126197" lon="11.82638290595627"><ele>649.75</ele><time>2026-05-02T14:21:49Z</time></trkpt><trkpt lat="42.91696202465842" lon="11.826215844707384"><ele>649.5</ele><time>2026-05-02T14:21:50Z</time></trkpt><trkpt lat="42.91685620732546" lon="11.826082714689708"><ele>649.25</ele><time>2026-05-02T14:21:51Z</time></trkpt><trkpt lat="42.91672588127524" lon="11.825993492211309"><ele>649.0</ele><time>2026-05-02T14:21:52Z</time></trkpt><trkpt lat="42.916573345576936" lon="11.82594332921589"><ele>652.3333333333334</ele><time>2026-05-02T14:21:53Z</time></trkpt><trkpt lat="42.91640140722739" lon="11.825913275502714"><ele>655.6666666666666</ele><time>2026-05-02T14:21:54Z</time></trkpt><trkpt lat="42.91624029583259" lon="11.825877024936062"><ele>659.0</ele><time>2026-05-02T14:21:55Z</time></trkpt><trkpt lat="42.91610796692359" lon="11.825827365992412"><ele>659.0</ele><time>2026-05-02T14:21:56Z</time></trkpt><trkpt lat="42.91599355672856" lon="11.825750881464979"><ele>659.0</ele><time>2026-05-02T14:21:57Z</time></trkpt><trkpt lat="42.91589127781798" lon="11.825624783923248"><ele>659.0</ele><time>2026-05-02T14:21:58Z</time></trkpt><trkpt lat="42.91581204363237" lon="11.825440874541156"><ele>659.0</ele><time>2026-05-02T14:21:59Z</time></trkpt><trkpt lat="42.91575731393752" lon="11.825218698382448"><ele>660.3333333333333</ele><time>2026-05-02T14:22:00Z</time></trkpt><trkpt lat="42.915719588952136" lon="11.824989055413845"><ele>661.6666666666666</ele><time>2026-05-02T14:22:01Z</time></trkpt><trkpt lat="42.915662697817574" lon="11.824794775847383"><ele>663.0</ele><time>2026-05-02T14:22:02Z</time></trkpt><trkpt lat="42.91556747943373" lon="11.824610112244082"><ele>663.0</ele><time>2026-05-02T14:22:03Z</time></trkpt><trkpt lat="42.91542781848816" lon="11.8244304185984"><ele>663.0</ele><time>2026-05-02T14:22:04Z</time></trkpt><trkpt lat="42.9152631785885" lon="11.82424589045053"><ele>663.0</ele><time>2026-05-02T14:22:05Z</time></trkpt><trkpt lat="42.91508841806593" lon="11.824059232985022"><ele>663.3333333333334</ele><time>2026-05-02T14:22:06Z</time></trkpt><trkpt lat="42.914911938629544" lon="11.823876495862788"><ele>663.6666666666667</ele><time>2026-05-02T14:22:07Z</time></trkpt><trkpt lat="42.91474703976091" lon="11.823705161351976"><ele>664.0</ele><time>2026-05-02T14:22:08Z</time></trkpt><trkpt lat="42.914594618039125" lon="11.823555798944742"><ele>665.3333333333334</ele><time>2026-05-02T14:22:09Z</time></trkpt><trkpt lat="42.91444426244702" lon="11.823438165663841"><ele>666.6666666666666</ele><time>2026-05-02T14:22:10Z</time></trkpt><trkpt lat="42.91428102529351" lon="11.8233665766952"><ele>668.0</ele><time>2026-05-02T14:22:11Z</time></trkpt><trkpt lat="42.91411496852321" lon="11.823330778688078"><ele>668.0</ele><time>2026-05-02T14:22:12Z</time></trkpt><trkpt lat="42.91395637733534" lon="11.823278667701846"><ele>668.0</ele><time>2026-05-02T14:22:13Z</time></trkpt><trkpt lat="42.91381077649864" lon="11.82316414622778"><ele>668.0</ele><time>2026-05-02T14:22:14Z</time></trkpt><trkpt lat="42.913675168745705" lon="11.823014311218065"><ele>668.0</ele><time>2026-05-02T14:22:15Z</time></trkpt><trkpt lat="42.91353114690772" lon="11.822864551105637"><ele>668.0</ele><time>2026-05-02T14:22:16Z</time></trkpt><trkpt lat="42.91338052178761" lon="11.822732935551205"><ele>668.0</ele><time>2026-05-02T14:22:17Z</time></trkpt><trkpt lat="42.913235442738916" lon="11.822629856611272"><ele>669.5</ele><time>2026-05-02T14:22:18Z</time></trkpt><trkpt lat="42.913093636814835" lon="11.822545345166477"><ele>671.0</ele><time>2026-05-02T14:22:19Z</time></trkpt><trkpt lat="42.9129662493006" lon="11.822466678916738"><ele>672.5</ele><time>2026-05-02T14:22:20Z</time></trkpt><trkpt lat="42.91286287411415" lon="11.822378084657428"><ele>674.0</ele><time>2026-05-02T14:22:21Z</time></trkpt><trkpt lat="42.91278050974202" lon="11.82226290863937"><ele>674.0</ele><time>2026-05-02T14:22:22Z</time></trkpt><trkpt lat="42.912737332430744" lon="11.822113758168012"><ele>674.0</ele><time>2026-05-02T14:22:23Z</time></trkpt><trkpt lat="42.91272898318984" lon="11.821951219091671"><ele>674.0</ele><time>2026-05-02T14:22:24Z</time></trkpt><trkpt lat="42.91276058515962" lon="11.821787851058033"><ele>674.0</ele><time>2026-05-02T14:22:25Z</time></trkpt><trkpt lat="42.91283171582654" lon="11.821633996433556"><ele>674.75</ele><time>2026-05-02T14:22:26Z</time></trkpt><trkpt lat="42.9129516225715" lon="11.821531978595411"><ele>675.5</ele><time>2026-05-02T14:22:27Z</time></trkpt><trkpt lat="42.9130609295419" lon="11.821400215410808"><ele>676.25</ele><time>2026-05-02T14:22:28Z</time></trkpt><trkpt lat="42.91316746864144" lon="11.821294936965701"><ele>677.0</ele><time>2026-05-02T14:22:29Z</time></trkpt><trkpt lat="42.91324781364628" lon="11.821163946291238"><ele>677.0</ele><time>2026-05-02T14:22:30Z</time></trkpt><trkpt lat="42.91330475035684" lon="11.820998311181091"><ele>677.0</ele><time>2026-05-02T14:22:31Z</time></trkpt><trkpt lat="42.913332676930885" lon="11.820797610483407"><ele>677.0</ele><time>2026-05-02T14:22:32Z</time></trkpt><trkpt lat="42.91333426166469" lon="11.820557523381634"><ele>675.3333333333333</ele><time>2026-05-02T14:22:33Z</time></trkpt><trkpt lat="42.91333072775219" lon="11.820294607027753"><ele>673.6666666666666</ele><time>2026-05-02T14:22:34Z</time></trkpt><trkpt lat="42.91332958058377" lon="11.8200161993097"><ele>672.0</ele><time>2026-05-02T14:22:35Z</time></trkpt><trkpt lat="42.9133254712072" lon="11.819727913238168"><ele>670.3333333333334</ele><time>2026-05-02T14:22:36Z</time></trkpt><trkpt lat="42.91332809185845" lon="11.819446553296988"><ele>668.6666666666667</ele><time>2026-05-02T14:22:37Z</time></trkpt><trkpt lat="42.9133355325276" lon="11.81918876876841"><ele>667.0</ele><time>2026-05-02T14:22:38Z</time></trkpt><trkpt lat="42.913339016525576" lon="11.818940318338141"><ele>666.0</ele><time>2026-05-02T14:22:39Z</time></trkpt><trkpt lat="42.91333870051389" lon="11.818701394170096"><ele>665.0</ele><time>2026-05-02T14:22:40Z</time></trkpt><trkpt lat="42.91334232926344" lon="11.818476844219578"><ele>664.0</ele><time>2026-05-02T14:22:41Z</time></trkpt><trkpt lat="42.913355218634756" lon="11.818271289582077"><ele>662.5</ele><time>2026-05-02T14:22:42Z</time></trkpt><trkpt lat="42.913384782003696" lon="11.818081140492552"><ele>661.0</ele><time>2026-05-02T14:22:43Z</time></trkpt><trkpt lat="42.913440656542065" lon="11.817886268230705"><ele>659.5</ele><time>2026-05-02T14:22:44Z</time></trkpt><trkpt lat="42.91349685494287" lon="11.81769387542419"><ele>658.0</ele><time>2026-05-02T14:22:45Z</time></trkpt><trkpt lat="42.913527964211475" lon="11.817493309802432"><ele>665.3333333333334</ele><time>2026-05-02T14:22:46Z</time></trkpt><trkpt lat="42.91354993078331" lon="11.817273051096354"><ele>672.6666666666666</ele><time>2026-05-02T14:22:47Z</time></trkpt><trkpt lat="42.91358066193324" lon="11.817050554187109"><ele>680.0</ele><time>2026-05-02T14:22:48Z</time></trkpt><trkpt lat="42.91360353704424" lon="11.816845865810198"><ele>679.25</ele><time>2026-05-02T14:22:49Z</time></trkpt><trkpt lat="42.913595903079596" lon="11.81666482869588"><ele>678.5</ele><time>2026-05-02T14:22:50Z</time></trkpt><trkpt lat="42.913554582278465" lon="11.816503006929493"><ele>677.75</ele><time>2026-05-02T14:22:51Z</time></trkpt><trkpt lat="42.9134839212894" lon="11.81634668314051"><ele>677.0</ele><time>2026-05-02T14:22:52Z</time></trkpt><trkpt lat="42.91337908846248" lon="11.816178125097768"><ele>670.3333333333333</ele><time>2026-05-02T14:22:53Z</time></trkpt><trkpt lat="42.9132727027987" lon="11.815999288881589"><ele>663.6666666666666</ele><time>2026-05-02T14:22:54Z</time></trkpt><trkpt lat="42.91318136666806" lon="11.81581916900304"><ele>657.0</ele><time>2026-05-02T14:22:55Z</time></trkpt><trkpt lat="42.91312787758502" lon="11.815637934420844"><ele>657.0</ele><time>2026-05-02T14:22:56Z</time></trkpt><trkpt lat="42.91311535066202" lon="11.815450933236985"><ele>657.0</ele><time>2026-05-02T14:22:57Z</time></trkpt><trkpt lat="42.91311483510605" lon="11.8152317203214"><ele>657.0</ele><time>2026-05-02T14:22:58Z</time></trkpt><trkpt lat="42.913114008640534" lon="11.815005758313726"><ele>657.5</ele><time>2026-05-02T14:22:59Z</time></trkpt><trkpt lat="42.913108880256765" lon="11.81480314896518"><ele>658.0</ele><time>2026-05-02T14:23:00Z</time></trkpt><trkpt lat="42.91310083581092" lon="11.814620373033113"><ele>658.5</ele><time>2026-05-02T14:23:01Z</time></trkpt><trkpt lat="42.91308323101051" lon="11.814457567465212"><ele>659.0</ele><time>2026-05-02T14:23:02Z</time></trkpt><trkpt lat="42.91304117562665" lon="11.814303178893788"><ele>656.75</ele><time>2026-05-02T14:23:03Z</time></trkpt><trkpt lat="42.912956652966336" lon="11.814169493601835"><ele>654.5</ele><time>2026-05-02T14:23:04Z</time></trkpt><trkpt lat="42.91283793295476" lon="11.814045669208948"><ele>652.25</ele><time>2026-05-02T14:23:05Z</time></trkpt><trkpt lat="42.91269259366226" lon="11.813925530152641"><ele>650.0</ele><time>2026-05-02T14:23:06Z</time></trkpt><trkpt lat="42.9125211798023" lon="11.81380671766389"><ele>648.0</ele><time>2026-05-02T14:23:07Z</time></trkpt><trkpt lat="42.91233754747929" lon="11.813679037241375"><ele>646.0</ele><time>2026-05-02T14:23:08Z</time></trkpt><trkpt lat="42.91216435643961" lon="11.813555005828471"><ele>644.0</ele><time>2026-05-02T14:23:09Z</time></trkpt><trkpt lat="42.91199913528003" lon="11.813453964907696"><ele>642.0</ele><time>2026-05-02T14:23:10Z</time></trkpt><trkpt lat="42.91182689326342" lon="11.813387976113658"><ele>640.0</ele><time>2026-05-02T14:23:11Z</time></trkpt><trkpt lat="42.91164617873881" lon="11.813350759155238"><ele>638.0</ele><time>2026-05-02T14:23:12Z</time></trkpt><trkpt lat="42.91146299737813" lon="11.813313167289039"><ele>638.0</ele><time>2026-05-02T14:23:13Z</time></trkpt><trkpt lat="42.91130140179504" lon="11.813248244406328"><ele>638.0</ele><time>2026-05-02T14:23:14Z</time></trkpt><trkpt lat="42.91115721734907" lon="11.813142147125884"><ele>638.0</ele><time>2026-05-02T14:23:15Z</time></trkpt><trkpt lat="42.91103132649665" lon="11.812992394962633"><ele>638.0</ele><time>2026-05-02T14:23:16Z</time></trkpt><trkpt lat="42.91094530483377" lon="11.812783219160927"><ele>638.0</ele><time>2026-05-02T14:23:17Z</time></trkpt><trkpt lat="42.91084027671368" lon="11.812561054157598"><ele>638.0</ele><time>2026-05-02T14:23:18Z</time></trkpt><trkpt lat="42.910736537904114" lon="11.812289728353397"><ele>635.0</ele><time>2026-05-02T14:23:19Z</time></trkpt><trkpt lat="42.91061589782836" lon="11.812008839835007"><ele>632.0</ele><time>2026-05-02T14:23:20Z</time></trkpt><trkpt lat="42.910488395012734" lon="11.811722372252952"><ele>629.3333333333333</ele><time>2026-05-02T14:23:21Z</time></trkpt><trkpt lat="42.910369552235615" lon="11.811459656660086"><ele>626.6666666666666</ele><time>2026-05-02T14:23:22Z</time></trkpt><trkpt lat="42.91025242658603" lon="11.811216578508441"><ele>624.0</ele><time>2026-05-02T14:23:23Z</time></trkpt><trkpt lat="42.910127470335226" lon="11.811005732258362"><ele>625.3333333333334</ele><time>2026-05-02T14:23:24Z</time></trkpt><trkpt lat="42.91000239165651" lon="11.810824971167829"><ele>626.6666666666667</ele><time>2026-05-02T14:23:25Z</time></trkpt><trkpt lat="42.90987588151384" lon="11.810659839623497"><ele>628.0</ele><time>2026-05-02T14:23:26Z</time></trkpt><trkpt lat="42.90975971874844" lon="11.810495155141131"><ele>628.0</ele><time>2026-05-02T14:23:27Z</time></trkpt><trkpt lat="42.90965920249015" lon="11.810311601233188"><ele>628.0</ele><time>2026-05-02T14:23:28Z</time></trkpt><trkpt lat="42.90956939291539" lon="11.810106810892057"><ele>628.0</ele><time>2026-05-02T14:23:29Z</time></trkpt><trkpt lat="42.9094777473527" lon="11.809892010040056"><ele>625.0</ele><time>2026-05-02T14:23:30Z</time></trkpt><trkpt lat="42.90938297015948" lon="11.80967661985332"><ele>622.0</ele><time>2026-05-02T14:23:31Z</time></trkpt><trkpt lat="42.909296428925785" lon="11.809456795591212"><ele>619.0</ele><time>2026-05-02T14:23:32Z</time></trkpt><trkpt lat="42.909233865815985" lon="11.809230225985178"><ele>619.0</ele><time>2026-05-02T14:23:33Z</time></trkpt><trkpt lat="42.90919535584226" lon="11.808997143882126"><ele>619.0</ele><time>2026-05-02T14:23:34Z</time></trkpt><trkpt lat="42.90914829544921" lon="11.808779642483081"><ele>619.0</ele><time>2026-05-02T14:23:35Z</time></trkpt><trkpt lat="42.90910269355575" lon="11.808568386732176"><ele>619.5</ele><time>2026-05-02T14:23:36Z</time></trkpt><trkpt lat="42.90905670521284" lon="11.808369225202185"><ele>620.0</ele><time>2026-05-02T14:23:37Z</time></trkpt><trkpt lat="42.909000635718805" lon="11.808191712776615"><ele>620.5</ele><time>2026-05-02T14:23:38Z</time></trkpt><trkpt lat="42.908934257923605" lon="11.808042439703907"><ele>621.0</ele><time>2026-05-02T14:23:39Z</time></trkpt><trkpt lat="42.90884158481204" lon="11.807931585690175"><ele>621.0</ele><time>2026-05-02T14:23:40Z</time></trkpt><trkpt lat="42.90871437002266" lon="11.807844457098692"><ele>621.0</ele><time>2026-05-02T14:23:41Z</time></trkpt><trkpt lat="42.90855753541732" lon="11.807753982627554"><ele>621.0</ele><time>2026-05-02T14:23:42Z</time></trkpt><trkpt lat="42.90838728158948" lon="11.807661087852944"><ele>619.0</ele><time>2026-05-02T14:23:43Z</time></trkpt><trkpt lat="42.90820974527418" lon="11.807540135092372"><ele>617.0</ele><time>2026-05-02T14:23:44Z</time></trkpt><trkpt lat="42.908029323465726" lon="11.807391315449404"><ele>615.0</ele><time>2026-05-02T14:23:45Z</time></trkpt><trkpt lat="42.90785404492797" lon="11.80723734265921"><ele>615.0</ele><time>2026-05-02T14:23:46Z</time></trkpt><trkpt lat="42.90768908745197" lon="11.807096723099846"><ele>615.0</ele><time>2026-05-02T14:23:47Z</time></trkpt><trkpt lat="42.90753363433838" lon="11.806966626209979"><ele>615.0</ele><time>2026-05-02T14:23:48Z</time></trkpt><trkpt lat="42.907382335135225" lon="11.80683735584102"><ele>612.0</ele><time>2026-05-02T14:23:49Z</time></trkpt><trkpt lat="42.907249675646995" lon="11.80671206038465"><ele>609.0</ele><time>2026-05-02T14:23:50Z</time></trkpt><trkpt lat="42.907136010304086" lon="11.806573199026902"><ele>606.0</ele><time>2026-05-02T14:23:51Z</time></trkpt><trkpt lat="42.90704739539815" lon="11.806400689302157"><ele>606.0</ele><time>2026-05-02T14:23:52Z</time></trkpt><trkpt lat="42.9069834742607" lon="11.806194542640622"><ele>606.0</ele><time>2026-05-02T14:23:53Z</time></trkpt><trkpt lat="42.90693202305315" lon="11.805969708574475"><ele>606.0</ele><time>2026-05-02T14:23:54Z</time></trkpt><trkpt lat="42.90687422770927" lon="11.805752627610463"><ele>605.0</ele><time>2026-05-02T14:23:55Z</time></trkpt><trkpt lat="42.90680003830676" lon="11.805538113039344"><ele>604.0</ele><time>2026-05-02T14:23:56Z</time></trkpt><trkpt lat="42.906702745304365" lon="11.805324988965841"><ele>603.0</ele><time>2026-05-02T14:23:57Z</time></trkpt><trkpt lat="42.90658637729429" lon="11.805128909878372"><ele>600.6666666666666</ele><time>2026-05-02T14:23:58Z</time></trkpt><trkpt lat="42.90646824524281" lon="11.804955697527841"><ele>598.3333333333333</ele><time>2026-05-02T14:23:59Z</time></trkpt><trkpt lat="42.90635521953507" lon="11.80480103016058"><ele>596.0</ele><time>2026-05-02T14:24:00Z</time></trkpt><trkpt lat="42.90624498102147" lon="11.804672156908369"><ele>596.0</ele><time>2026-05-02T14:24:01Z</time></trkpt><trkpt lat="42.906107983589465" lon="11.804579177868087"><ele>596.0</ele><time>2026-05-02T14:24:02Z</time></trkpt><trkpt lat="42.90592196008666" lon="11.804523286871017"><ele>596.0</ele><time>2026-05-02T14:24:03Z</time></trkpt><trkpt lat="42.905720174173624" lon="11.804463463705266"><ele>596.6666666666666</ele><time>2026-05-02T14:24:04Z</time></trkpt><trkpt lat="42.90551301459609" lon="11.804411196494724"><ele>597.3333333333334</ele><time>2026-05-02T14:24:05Z</time></trkpt><trkpt lat="42.90530179247873" lon="11.804346298642292"><ele>598.0</ele><time>2026-05-02T14:24:06Z</time></trkpt><trkpt lat="42.90509356058667" lon="11.804284878586142"><ele>598.0</ele><time>2026-05-02T14:24:07Z</time></trkpt><trkpt lat="42.9048874370892" lon="11.80421840541217"><ele>598.0</ele><time>2026-05-02T14:24:08Z</time></trkpt><trkpt lat="42.90468629282347" lon="11.804150058536433"><ele>598.0</ele><time>2026-05-02T14:24:09Z</time></trkpt><trkpt lat="42.904493678202584" lon="11.804061324700053"><ele>598.0</ele><time>2026-05-02T14:24:10Z</time></trkpt><trkpt lat="42.90430239480171" lon="11.80395354400246"><ele>598.0</ele><time>2026-05-02T14:24:11Z</time></trkpt><trkpt lat="42.90412007416835" lon="11.803862487285853"><ele>598.0</ele><time>2026-05-02T14:24:12Z</time></trkpt><trkpt lat="42.90396094705296" lon="11.803781163615634"><ele>598.3333333333334</ele><time>2026-05-02T14:24:13Z</time></trkpt><trkpt lat="42.90380837476585" lon="11.803686107878448"><ele>598.6666666666666</ele><time>2026-05-02T14:24:14Z</time></trkpt><trkpt lat="42.90367255969733" lon="11.803565393243677"><ele>599.0</ele><time>2026-05-02T14:24:15Z</time></trkpt><trkpt lat="42.903537736402924" lon="11.803379299525846"><ele>597.5</ele><time>2026-05-02T14:24:16Z</time></trkpt><trkpt lat="42.90336203038203" lon="11.803213207757798"><ele>596.0</ele><time>2026-05-02T14:24:17Z</time></trkpt><trkpt lat="42.90316005568582" lon="11.803030518234337"><ele>596.0</ele><time>2026-05-02T14:24:18Z</time></trkpt><trkpt lat="42.90293028614727" lon="11.802863005857303"><ele>596.0</ele><time>2026-05-02T14:24:19Z</time></trkpt><trkpt lat="42.90270175803542" lon="11.80269044920936"><ele>596.0</ele><time>2026-05-02T14:24:20Z</time></trkpt><trkpt lat="42.9024916054599" lon="11.80252044154483"><ele>596.0</ele><time>2026-05-02T14:24:21Z</time></trkpt><trkpt lat="42.90230077076234" lon="11.802364768021723"><ele>596.0</ele><time>2026-05-02T14:24:22Z</time></trkpt><trkpt lat="42.902123393240345" lon="11.802223605952744"><ele>596.0</ele><time>2026-05-02T14:24:23Z</time></trkpt><trkpt lat="42.90195892878011" lon="11.80209415242316"><ele>596.0</ele><time>2026-05-02T14:24:24Z</time></trkpt><trkpt lat="42.90181775850703" lon="11.801968405820787"><ele>596.3333333333333</ele><time>2026-05-02T14:24:25Z</time></trkpt><trkpt lat="42.90169651255557" lon="11.801830814925344"><ele>596.6666666666666</ele><time>2026-05-02T14:24:26Z</time></trkpt><trkpt lat="42.90158899826927" lon="11.80167456513541"><ele>597.0</ele><time>2026-05-02T14:24:27Z</time></trkpt><trkpt lat="42.90149139257218" lon="11.801504907492953"><ele>597.0</ele><time>2026-05-02T14:24:28Z</time></trkpt><trkpt lat="42.90140384369652" lon="11.801353069188067"><ele>597.0</ele><time>2026-05-02T14:24:29Z</time></trkpt><trkpt lat="42.90130523086785" lon="11.801198356616926"><ele>597.0</ele><time>2026-05-02T14:24:30Z</time></trkpt><trkpt lat="42.90119104212562" lon="11.801063878994226"><ele>597.0</ele><time>2026-05-02T14:24:31Z</time></trkpt><trkpt lat="42.90104065859843" lon="11.800960480863834"><ele>597.6666666666666</ele><time>2026-05-02T14:24:32Z</time></trkpt><trkpt lat="42.9008709416309" lon="11.800886914066151"><ele>598.3333333333333</ele><time>2026-05-02T14:24:33Z</time></trkpt><trkpt lat="42.90071890250075" lon="11.80078799180317"><ele>599.0</ele><time>2026-05-02T14:24:34Z</time></trkpt><trkpt lat="42.900560850125295" lon="11.80077302251393"><ele>599.0</ele><time>2026-05-02T14:24:35Z</time></trkpt><trkpt lat="42.90043501765791" lon="11.80070733509538"><ele>599.0</ele><time>2026-05-02T14:24:36Z</time></trkpt><trkpt lat="42.90032612360936" lon="11.800616033839756"><ele>599.0</ele><time>2026-05-02T14:24:37Z</time></trkpt><trkpt lat="42.90023085191243" lon="11.800481662963271"><ele>599.0</ele><time>2026-05-02T14:24:38Z</time></trkpt><trkpt lat="42.9001566125397" lon="11.800308789110439"><ele>599.3333333333333</ele><time>2026-05-02T14:24:39Z</time></trkpt><trkpt lat="42.90010106198076" lon="11.800113896853974"><ele>599.6666666666666</ele><time>2026-05-02T14:24:40Z</time></trkpt><trkpt lat="42.90005448172761" lon="11.799893056242391"><ele>600.0</ele><time>2026-05-02T14:24:41Z</time></trkpt><trkpt lat="42.900003749798785" lon="11.799667260782414"><ele>600.75</ele><time>2026-05-02T14:24:42Z</time></trkpt><trkpt lat="42.89993749133259" lon="11.799467977286843"><ele>601.5</ele><time>2026-05-02T14:24:43Z</time></trkpt><trkpt lat="42.89985796825135" lon="11.799305728838592"><ele>602.25</ele><time>2026-05-02T14:24:44Z</time></trkpt><trkpt lat="42.89976918150006" lon="11.799169587948011"><ele>603.0</ele><time>2026-05-02T14:24:45Z</time></trkpt><trkpt lat="42.89966910428119" lon="11.79904078067047"><ele>604.0</ele><time>2026-05-02T14:24:46Z</time></trkpt><trkpt lat="42.89955100721322" lon="11.798920783328425"><ele>605.0</ele><time>2026-05-02T14:24:47Z</time></trkpt><trkpt lat="42.89940939467338" lon="11.798788867934423"><ele>606.0</ele><time>2026-05-02T14:24:48Z</time></trkpt><trkpt lat="42.899249002853665" lon="11.79864164758406"><ele>608.3333333333334</ele><time>2026-05-02T14:24:49Z</time></trkpt><trkpt lat="42.89907493225862" lon="11.798484611186447"><ele>610.6666666666667</ele><time>2026-05-02T14:24:50Z</time></trkpt><trkpt lat="42.898896549873335" lon="11.798321782981635"><ele>613.0</ele><time>2026-05-02T14:24:51Z</time></trkpt><trkpt lat="42.898713609874605" lon="11.798152413019306"><ele>613.0</ele><time>2026-05-02T14:24:52Z</time></trkpt><trkpt lat="42.89853295579666" lon="11.797989465551446"><ele>613.0</ele><time>2026-05-02T14:24:53Z</time></trkpt><trkpt lat="42.898354674552515" lon="11.797829955485032"><ele>613.0</ele><time>2026-05-02T14:24:54Z</time></trkpt><trkpt lat="42.898191350925444" lon="11.797680104929237"><ele>613.6666666666667</ele><time>2026-05-02T14:24:55Z</time></trkpt><trkpt lat="42.89804287886275" lon="11.79754655948296"><ele>614.3333333333334</ele><time>2026-05-02T14:24:56Z</time></trkpt><trkpt lat="42.89790714491584" lon="11.797418537375988"><ele>615.0</ele><time>2026-05-02T14:24:57Z</time></trkpt><trkpt lat="42.89778565519713" lon="11.797288452341599"><ele>615.0</ele><time>2026-05-02T14:24:58Z</time></trkpt><trkpt lat="42.897679694339026" lon="11.797137760512426"><ele>615.0</ele><time>2026-05-02T14:24:59Z</time></trkpt><trkpt lat="42.897596307794885" lon="11.796957848875447"><ele>615.0</ele><time>2026-05-02T14:25:00Z</time></trkpt><trkpt lat="42.89753158792717" lon="11.796738113758684"><ele>615.6666666666666</ele><time>2026-05-02T14:25:01Z</time></trkpt><trkpt lat="42.8974849808074" lon="11.79648420038148"><ele>616.3333333333333</ele><time>2026-05-02T14:25:02Z</time></trkpt><trkpt lat="42.89744708907776" lon="11.796214398669647"><ele>617.0</ele><time>2026-05-02T14:25:03Z</time></trkpt><trkpt lat="42.897408053784105" lon="11.795971008194364"><ele>618.25</ele><time>2026-05-02T14:25:04Z</time></trkpt><trkpt lat="42.89736883876851" lon="11.795759997299326"><ele>619.5</ele><time>2026-05-02T14:25:05Z</time></trkpt><trkpt lat="42.89733657347455" lon="11.795576320739006"><ele>620.75</ele><time>2026-05-02T14:25:06Z</time></trkpt><trkpt lat="42.89730821064365" lon="11.795411049152076"><ele>622.0</ele><time>2026-05-02T14:25:07Z</time></trkpt><trkpt lat="42.89729900241693" lon="11.795268559093198"><ele>623.75</ele><time>2026-05-02T14:25:08Z</time></trkpt><trkpt lat="42.89732318336578" lon="11.795148362834576"><ele>625.5</ele><time>2026-05-02T14:25:09Z</time></trkpt><trkpt lat="42.897387206465275" lon="11.795042866056843"><ele>627.25</ele><time>2026-05-02T14:25:10Z</time></trkpt><trkpt lat="42.897500403962276" lon="11.794985637093626"><ele>629.0</ele><time>2026-05-02T14:25:11Z</time></trkpt><trkpt lat="42.89763621643097" lon="11.794939604265455"><ele>630.6666666666666</ele><time>2026-05-02T14:25:12Z</time></trkpt><trkpt lat="42.89779292139897" lon="11.794890517640514"><ele>632.3333333333334</ele><time>2026-05-02T14:25:13Z</time></trkpt><trkpt lat="42.897961339228914" lon="11.794823420833003"><ele>634.0</ele><time>2026-05-02T14:25:14Z</time></trkpt><trkpt lat="42.89812729188386" lon="11.794769892427887"><ele>634.0</ele><time>2026-05-02T14:25:15Z</time></trkpt><trkpt lat="42.89827895080019" lon="11.794720779323645"><ele>634.0</ele><time>2026-05-02T14:25:16Z</time></trkpt><trkpt lat="42.8984097016221" lon="11.79467676240735"><ele>634.0</ele><time>2026-05-02T14:25:17Z</time></trkpt><trkpt lat="42.89851506548429" lon="11.794620854186823"><ele>634.0</ele><time>2026-05-02T14:25:18Z</time></trkpt><trkpt lat="42.89861022431205" lon="11.794529760943123"><ele>635.0</ele><time>2026-05-02T14:25:19Z</time></trkpt><trkpt lat="42.898686151467004" lon="11.79439492467627"><ele>636.0</ele><time>2026-05-02T14:25:20Z</time></trkpt><trkpt lat="42.89873174166132" lon="11.794226607383573"><ele>637.0</ele><time>2026-05-02T14:25:21Z</time></trkpt><trkpt lat="42.89874709603942" lon="11.794060320015268"><ele>638.0</ele><time>2026-05-02T14:25:22Z</time></trkpt><trkpt lat="42.898726484635404" lon="11.793902810450728"><ele>640.3333333333333</ele><time>2026-05-02T14:25:23Z</time></trkpt><trkpt lat="42.89866515151549" lon="11.793733183720619"><ele>642.6666666666666</ele><time>2026-05-02T14:25:24Z</time></trkpt><trkpt lat="42.898569594416344" lon="11.793547252579609"><ele>645.0</ele><time>2026-05-02T14:25:25Z</time></trkpt><trkpt lat="42.89845757923634" lon="11.79334149270131"><ele>645.0</ele><time>2026-05-02T14:25:26Z</time></trkpt><trkpt lat="42.898349193677404" lon="11.793114199729002"><ele>645.0</ele><time>2026-05-02T14:25:27Z</time></trkpt><trkpt lat="42.898241704065" lon="11.79286802819895"><ele>645.0</ele><time>2026-05-02T14:25:28Z</time></trkpt><trkpt lat="42.8981285341284" lon="11.792626918591276"><ele>646.6666666666666</ele><time>2026-05-02T14:25:29Z</time></trkpt><trkpt lat="42.89801665521471" lon="11.792391350751469"><ele>648.3333333333333</ele><time>2026-05-02T14:25:30Z</time></trkpt><trkpt lat="42.89791788937138" lon="11.792177137814848"><ele>650.0</ele><time>2026-05-02T14:25:31Z</time></trkpt><trkpt lat="42.8978311241293" lon="11.791989519967988"><ele>651.3333333333333</ele><time>2026-05-02T14:25:32Z</time></trkpt><trkpt lat="42.89775436419995" lon="11.791806314469607"><ele>652.6666666666666</ele><time>2026-05-02T14:25:33Z</time></trkpt><trkpt lat="42.897693530504604" lon="11.791599358267657"><ele>654.0</ele><time>2026-05-02T14:25:34Z</time></trkpt><trkpt lat="42.897683441274594" lon="11.791359725638536"><ele>654.0</ele><time>2026-05-02T14:25:35Z</time></trkpt><trkpt lat="42.89765804596463" lon="11.791118783035504"><ele>654.0</ele><time>2026-05-02T14:25:36Z</time></trkpt><trkpt lat="42.89763096740945" lon="11.790868642578301"><ele>654.0</ele><time>2026-05-02T14:25:37Z</time></trkpt><trkpt lat="42.89757818759701" lon="11.790622096375229"><ele>658.0</ele><time>2026-05-02T14:25:38Z</time></trkpt><trkpt lat="42.89752294305053" lon="11.790367782785776"><ele>662.0</ele><time>2026-05-02T14:25:39Z</time></trkpt><trkpt lat="42.897471416118286" lon="11.79011832409852"><ele>666.0</ele><time>2026-05-02T14:25:40Z</time></trkpt><trkpt lat="42.89741534322348" lon="11.789864940957749"><ele>666.6666666666666</ele><time>2026-05-02T14:25:41Z</time></trkpt><trkpt lat="42.8973644243441" lon="11.78963327663767"><ele>667.3333333333333</ele><time>2026-05-02T14:25:42Z</time></trkpt><trkpt lat="42.8973103096932" lon="11.789423465879956"><ele>668.0</ele><time>2026-05-02T14:25:43Z</time></trkpt><trkpt lat="42.89724535999616" lon="11.789223393741937"><ele>668.0</ele><time>2026-05-02T14:25:44Z</time></trkpt><trkpt lat="42.89715488959603" lon="11.789016604816334"><ele>668.0</ele><time>2026-05-02T14:25:45Z</time></trkpt><trkpt lat="42.89704213635976" lon="11.788812995025705"><ele>668.0</ele><time>2026-05-02T14:25:46Z</time></trkpt><trkpt lat="42.89691803882146" lon="11.788611609926553"><ele>669.3333333333333</ele><time>2026-05-02T14:25:47Z</time></trkpt><trkpt lat="42.89679713749155" lon="11.788418208245421"><ele>670.6666666666666</ele><time>2026-05-02T14:25:48Z</time></trkpt><trkpt lat="42.896686467165914" lon="11.788237910774747"><ele>672.0</ele><time>2026-05-02T14:25:49Z</time></trkpt><trkpt lat="42.896582910923705" lon="11.78805379191249"><ele>672.0</ele><time>2026-05-02T14:25:50Z</time></trkpt><trkpt lat="42.89647469550574" lon="11.787868076255746"><ele>672.0</ele><time>2026-05-02T14:25:51Z</time></trkpt><trkpt lat="42.89635125815841" lon="11.78767779216716"><ele>672.0</ele><time>2026-05-02T14:25:52Z</time></trkpt><trkpt lat="42.89621270177899" lon="11.787488479190252"><ele>675.0</ele><time>2026-05-02T14:25:53Z</time></trkpt><trkpt lat="42.896040797289274" lon="11.787296224987312"><ele>678.0</ele><time>2026-05-02T14:25:54Z</time></trkpt><trkpt lat="42.8958548124762" lon="11.787103319905528"><ele>678.0</ele><time>2026-05-02T14:25:55Z</time></trkpt><trkpt lat="42.89567815305054" lon="11.78691480125813"><ele>678.0</ele><time>2026-05-02T14:25:56Z</time></trkpt><trkpt lat="42.89551731170102" lon="11.786737393337024"><ele>678.0</ele><time>2026-05-02T14:25:57Z</time></trkpt><trkpt lat="42.89536936326682" lon="11.78657103735863"><ele>679.0</ele><time>2026-05-02T14:25:58Z</time></trkpt><trkpt lat="42.89523470354975" lon="11.786431721511663"><ele>680.0</ele><time>2026-05-02T14:25:59Z</time></trkpt><trkpt lat="42.895116830682184" lon="11.78628550886143"><ele>681.0</ele><time>2026-05-02T14:26:00Z</time></trkpt><trkpt lat="42.894974102619884" lon="11.78614367796983"><ele>681.0</ele><time>2026-05-02T14:26:01Z</time></trkpt><trkpt lat="42.894828776687625" lon="11.786026335511412"><ele>681.0</ele><time>2026-05-02T14:26:02Z</time></trkpt><trkpt lat="42.8946673079762" lon="11.785929969152713"><ele>681.0</ele><time>2026-05-02T14:26:03Z</time></trkpt><trkpt lat="42.89448226860246" lon="11.785848216810427"><ele>676.3333333333334</ele><time>2026-05-02T14:26:04Z</time></trkpt><trkpt lat="42.894279430729014" lon="11.785779487131444"><ele>671.6666666666667</ele><time>2026-05-02T14:26:05Z</time></trkpt><trkpt lat="42.894089036525685" lon="11.785719850048006"><ele>667.0</ele><time>2026-05-02T14:26:06Z</time></trkpt><trkpt lat="42.89391380135875" lon="11.785661842654875"><ele>667.0</ele><time>2026-05-02T14:26:07Z</time></trkpt><trkpt lat="42.893747285092964" lon="11.785595108328948"><ele>667.0</ele><time>2026-05-02T14:26:08Z</time></trkpt><trkpt lat="42.89359852041969" lon="11.785506008363106"><ele>667.0</ele><time>2026-05-02T14:26:09Z</time></trkpt><trkpt lat="42.89346009599638" lon="11.78538217642511"><ele>665.6666666666667</ele><time>2026-05-02T14:26:10Z</time></trkpt><trkpt lat="42.893331590223895" lon="11.785215129498898"><ele>664.3333333333334</ele><time>2026-05-02T14:26:11Z</time></trkpt><trkpt lat="42.89322593081567" lon="11.78502361278767"><ele>663.0</ele><time>2026-05-02T14:26:12Z</time></trkpt><trkpt lat="42.893142478185254" lon="11.784809255119383"><ele>661.3333333333334</ele><time>2026-05-02T14:26:13Z</time></trkpt><trkpt lat="42.893079606963006" lon="11.784579916284624"><ele>659.6666666666667</ele><time>2026-05-02T14:26:14Z</time></trkpt><trkpt lat="42.89304214725382" lon="11.78432896787302"><ele>658.0</ele><time>2026-05-02T14:26:15Z</time></trkpt><trkpt lat="42.893033001981145" lon="11.784060481177285"><ele>658.0</ele><time>2026-05-02T14:26:16Z</time></trkpt><trkpt lat="42.89304613485579" lon="11.783772234704989"><ele>658.0</ele><time>2026-05-02T14:26:17Z</time></trkpt><trkpt lat="42.89305759631802" lon="11.78347405446965"><ele>658.0</ele><time>2026-05-02T14:26:18Z</time></trkpt><trkpt lat="42.893059348187016" lon="11.783185610590664"><ele>660.6666666666667</ele><time>2026-05-02T14:26:19Z</time></trkpt><trkpt lat="42.89305976222372" lon="11.782918398477985"><ele>663.3333333333334</ele><time>2026-05-02T14:26:20Z</time></trkpt><trkpt lat="42.89306291037024" lon="11.782664223047247"><ele>666.0</ele><time>2026-05-02T14:26:21Z</time></trkpt><trkpt lat="42.89305991523099" lon="11.78241163987624"><ele>667.0</ele><time>2026-05-02T14:26:22Z</time></trkpt><trkpt lat="42.8930415787063" lon="11.78216798294056"><ele>668.0</ele><time>2026-05-02T14:26:23Z</time></trkpt><trkpt lat="42.89299964372772" lon="11.781931620596778"><ele>669.0</ele><time>2026-05-02T14:26:24Z</time></trkpt><trkpt lat="42.8929403505772" lon="11.781709905914372"><ele>670.6666666666666</ele><time>2026-05-02T14:26:25Z</time></trkpt><trkpt lat="42.892856494995165" lon="11.781499720015665"><ele>672.3333333333333</ele><time>2026-05-02T14:26:26Z</time></trkpt><trkpt lat="42.89274524568954" lon="11.781296435605839"><ele>674.0</ele><time>2026-05-02T14:26:27Z</time></trkpt><trkpt lat="42.89261549853162" lon="11.781114859627332"><ele>676.0</ele><time>2026-05-02T14:26:28Z</time></trkpt><trkpt lat="42.89246715078177" lon="11.780932725111304"><ele>678.0</ele><time>2026-05-02T14:26:29Z</time></trkpt><trkpt lat="42.89231930008122" lon="11.780744875897367"><ele>680.0</ele><time>2026-05-02T14:26:30Z</time></trkpt><trkpt lat="42.89217962631774" lon="11.78055609662083"><ele>680.0</ele><time>2026-05-02T14:26:31Z</time></trkpt><trkpt lat="42.89205120976189" lon="11.780383102472195"><ele>680.0</ele><time>2026-05-02T14:26:32Z</time></trkpt><trkpt lat="42.89193493720163" lon="11.78022617854759"><ele>680.0</ele><time>2026-05-02T14:26:33Z</time></trkpt><trkpt lat="42.89182633699234" lon="11.780055207266232"><ele>681.0</ele><time>2026-05-02T14:26:34Z</time></trkpt><trkpt lat="42.89172459347679" lon="11.779844488494636"><ele>682.0</ele><time>2026-05-02T14:26:35Z</time></trkpt><trkpt lat="42.89163245965707" lon="11.779622067788768"><ele>683.0</ele><time>2026-05-02T14:26:36Z</time></trkpt><trkpt lat="42.89154033583884" lon="11.779413683553255"><ele>684.5</ele><time>2026-05-02T14:26:37Z</time></trkpt><trkpt lat="42.89145110265552" lon="11.779225073892787"><ele>686.0</ele><time>2026-05-02T14:26:38Z</time></trkpt><trkpt lat="42.89137306506776" lon="11.779052562560768"><ele>687.5</ele><time>2026-05-02T14:26:39Z</time></trkpt><trkpt lat="42.89130708110671" lon="11.778895491394897"><ele>689.0</ele><time>2026-05-02T14:26:40Z</time></trkpt><trkpt lat="42.89125887369013" lon="11.778746949918794"><ele>689.0</ele><time>2026-05-02T14:26:41Z</time></trkpt><trkpt lat="42.89122890158355" lon="11.778580607560304"><ele>689.0</ele><time>2026-05-02T14:26:42Z</time></trkpt><trkpt lat="42.89121817663383" lon="11.778407322210802"><ele>689.0</ele><time>2026-05-02T14:26:43Z</time></trkpt><trkpt lat="42.89123551957439" lon="11.77823049129289"><ele>689.0</ele><time>2026-05-02T14:26:44Z</time></trkpt><trkpt lat="42.89127821946138" lon="11.778059155564323"><ele>690.25</ele><time>2026-05-02T14:26:45Z</time></trkpt><trkpt lat="42.89133568452754" lon="11.777904495214441"><ele>691.5</ele><time>2026-05-02T14:26:46Z</time></trkpt><trkpt lat="42.89142438316613" lon="11.777752780191195"><ele>692.75</ele><time>2026-05-02T14:26:47Z</time></trkpt><trkpt lat="42.89154477309685" lon="11.777602890702223"><ele>694.0</ele><time>2026-05-02T14:26:48Z</time></trkpt><trkpt lat="42.89167832609113" lon="11.777439558986346"><ele>698.3333333333334</ele><time>2026-05-02T14:26:49Z</time></trkpt><trkpt lat="42.891825394579435" lon="11.777267693195368"><ele>702.6666666666666</ele><time>2026-05-02T14:26:50Z</time></trkpt><trkpt lat="42.8919805928534" lon="11.777087767125536"><ele>707.0</ele><time>2026-05-02T14:26:51Z</time></trkpt><trkpt lat="42.89213561944558" lon="11.776905667635676"><ele>705.6666666666666</ele><time>2026-05-02T14:26:52Z</time></trkpt><trkpt lat="42.89229244259571" lon="11.776722943953557"><ele>704.3333333333334</ele><time>2026-05-02T14:26:53Z</time></trkpt><trkpt lat="42.89244058634512" lon="11.776557660269194"><ele>703.0</ele><time>2026-05-02T14:26:54Z</time></trkpt><trkpt lat="42.89258627525746" lon="11.776389838401096"><ele>706.6666666666667</ele><time>2026-05-02T14:26:55Z</time></trkpt><trkpt lat="42.89272605136659" lon="11.77622397082443"><ele>710.3333333333334</ele><time>2026-05-02T14:26:56Z</time></trkpt><trkpt lat="42.892860336674914" lon="11.776061575914484"><ele>714.0</ele><time>2026-05-02T14:26:57Z</time></trkpt><trkpt lat="42.89298770466605" lon="11.775910802718327"><ele>714.0</ele><time>2026-05-02T14:26:58Z</time></trkpt><trkpt lat="42.893102611441115" lon="11.775775301913018"><ele>714.0</ele><time>2026-05-02T14:26:59Z</time></trkpt><trkpt lat="42.89321015015951" lon="11.775662456199775"><ele>714.0</ele><time>2026-05-02T14:27:00Z</time></trkpt><trkpt lat="42.89331670821403" lon="11.77556199448849"><ele>714.0</ele><time>2026-05-02T14:27:01Z</time></trkpt><trkpt lat="42.89344064528778" lon="11.775483740154304"><ele>716.75</ele><time>2026-05-02T14:27:02Z</time></trkpt><trkpt lat="42.89355581631506" lon="11.775388943537532"><ele>719.5</ele><time>2026-05-02T14:27:03Z</time></trkpt><trkpt lat="42.89366651754242" lon="11.775312550483928"><ele>722.25</ele><time>2026-05-02T14:27:04Z</time></trkpt><trkpt lat="42.893759411321085" lon="11.7752512526011"><ele>725.0</ele><time>2026-05-02T14:27:05Z</time></trkpt><trkpt lat="42.893837998022725" lon="11.775196408286854"><ele>723.4</ele><time>2026-05-02T14:27:06Z</time></trkpt><trkpt lat="42.89390680597733" lon="11.775148710766286"><ele>721.8</ele><time>2026-05-02T14:27:07Z</time></trkpt><trkpt lat="42.893972386877856" lon="11.775117068653119"><ele>720.2</ele><time>2026-05-02T14:27:08Z</time></trkpt><trkpt lat="42.89405309736267" lon="11.775061664463971"><ele>718.6</ele><time>2026-05-02T14:27:10Z</time></trkpt><trkpt lat="42.893903595524044" lon="11.774903785814383"><ele>717.0</ele><time>2026-05-02T14:27:14Z</time></trkpt><trkpt lat="42.89383697681884" lon="11.774928187478691"><ele>717.0</ele><time>2026-05-02T14:27:15Z</time></trkpt><trkpt lat="42.89374880224749" lon="11.774978531365091"><ele>717.0</ele><time>2026-05-02T14:27:16Z</time></trkpt><trkpt lat="42.8936423346935" lon="11.775051198640881"><ele>717.0</ele><time>2026-05-02T14:27:17Z</time></trkpt><trkpt lat="42.89352442217918" lon="11.775127130762437"><ele>717.0</ele><time>2026-05-02T14:27:18Z</time></trkpt><trkpt lat="42.89339291163148" lon="11.775214124497442"><ele>716.25</ele><time>2026-05-02T14:27:19Z</time></trkpt><trkpt lat="42.89325626771006" lon="11.775299805285451"><ele>715.5</ele><time>2026-05-02T14:27:20Z</time></trkpt><trkpt lat="42.89313330394302" lon="11.775364214339211"><ele>714.75</ele><time>2026-05-02T14:27:21Z</time></trkpt><trkpt lat="42.8930306397207" lon="11.775410480292427"><ele>714.0</ele><time>2026-05-02T14:27:22Z</time></trkpt><trkpt lat="42.89293840503685" lon="11.775434550256387"><ele>714.0</ele><time>2026-05-02T14:27:23Z</time></trkpt><trkpt lat="42.8928501942517" lon="11.775419312143903"><ele>714.0</ele><time>2026-05-02T14:27:24Z</time></trkpt><trkpt lat="42.892766422430626" lon="11.775360458651996"><ele>714.0</ele><time>2026-05-02T14:27:25Z</time></trkpt><trkpt lat="42.89270761381025" lon="11.775258654858488"><ele>714.0</ele><time>2026-05-02T14:27:26Z</time></trkpt><trkpt lat="42.892691630889644" lon="11.775133357910324"><ele>714.0</ele><time>2026-05-02T14:27:27Z</time></trkpt><trkpt lat="42.89270761985501" lon="11.774990758186568"><ele>712.0</ele><time>2026-05-02T14:27:28Z</time></trkpt><trkpt lat="42.89278223391905" lon="11.774863885886582"><ele>710.0</ele><time>2026-05-02T14:27:29Z</time></trkpt><trkpt lat="42.892868661994825" lon="11.774735602882947"><ele>708.0</ele><time>2026-05-02T14:27:30Z</time></trkpt><trkpt lat="42.89297498206218" lon="11.774649768550438"><ele>706.0</ele><time>2026-05-02T14:27:31Z</time></trkpt><trkpt lat="42.89308695853729" lon="11.774606495703628"><ele>706.0</ele><time>2026-05-02T14:27:32Z</time></trkpt><trkpt lat="42.893219172910484" lon="11.774545967980737"><ele>706.0</ele><time>2026-05-02T14:27:33Z</time></trkpt><trkpt lat="42.89332792053346" lon="11.77450674075472"><ele>706.0</ele><time>2026-05-02T14:27:34Z</time></trkpt><trkpt lat="42.89342180950993" lon="11.77443192563625"><ele>706.0</ele><time>2026-05-02T14:27:35Z</time></trkpt><trkpt lat="42.893508131076196" lon="11.774330915524219"><ele>707.0</ele><time>2026-05-02T14:27:36Z</time></trkpt><trkpt lat="42.89357714419067" lon="11.774187250488747"><ele>708.0</ele><time>2026-05-02T14:27:37Z</time></trkpt><trkpt lat="42.89363000310563" lon="11.774028980458915"><ele>709.0</ele><time>2026-05-02T14:27:38Z</time></trkpt><trkpt lat="42.89365507104261" lon="11.773851083542047"><ele>710.0</ele><time>2026-05-02T14:27:39Z</time></trkpt><trkpt lat="42.8936494697165" lon="11.773663195411928"><ele>710.25</ele><time>2026-05-02T14:27:40Z</time></trkpt><trkpt lat="42.89361532154617" lon="11.773483276135387"><ele>710.5</ele><time>2026-05-02T14:27:41Z</time></trkpt><trkpt lat="42.89355142307268" lon="11.773309888988607"><ele>710.75</ele><time>2026-05-02T14:27:42Z</time></trkpt><trkpt lat="42.893456652609174" lon="11.77314747400512"><ele>711.0</ele><time>2026-05-02T14:27:43Z</time></trkpt><trkpt lat="42.893333104909026" lon="11.772997224013158"><ele>706.6666666666666</ele><time>2026-05-02T14:27:44Z</time></trkpt><trkpt lat="42.89318903063117" lon="11.772863000196358"><ele>702.3333333333333</ele><time>2026-05-02T14:27:45Z</time></trkpt><trkpt lat="42.89303860957949" lon="11.772710785826245"><ele>698.0</ele><time>2026-05-02T14:27:46Z</time></trkpt><trkpt lat="42.892883298078004" lon="11.77253981858734"><ele>698.0</ele><time>2026-05-02T14:27:47Z</time></trkpt><trkpt lat="42.892726947836124" lon="11.772362367357339"><ele>698.0</ele><time>2026-05-02T14:27:48Z</time></trkpt><trkpt lat="42.8925702155747" lon="11.772188606089664"><ele>698.0</ele><time>2026-05-02T14:27:49Z</time></trkpt><trkpt lat="42.89241844992321" lon="11.77201214378878"><ele>694.0</ele><time>2026-05-02T14:27:50Z</time></trkpt><trkpt lat="42.89226934730186" lon="11.771843244513155"><ele>690.0</ele><time>2026-05-02T14:27:51Z</time></trkpt><trkpt lat="42.89211060874535" lon="11.771677527712566"><ele>686.0</ele><time>2026-05-02T14:27:52Z</time></trkpt><trkpt lat="42.89196124529204" lon="11.771502074506255"><ele>686.0</ele><time>2026-05-02T14:27:53Z</time></trkpt><trkpt lat="42.89180538703251" lon="11.77134454780736"><ele>686.0</ele><time>2026-05-02T14:27:54Z</time></trkpt><trkpt lat="42.891655368998016" lon="11.771177538287477"><ele>686.0</ele><time>2026-05-02T14:27:55Z</time></trkpt><trkpt lat="42.89150775907216" lon="11.7710067988288"><ele>684.6666666666666</ele><time>2026-05-02T14:27:56Z</time></trkpt><trkpt lat="42.891357687376804" lon="11.770839054069851"><ele>683.3333333333334</ele><time>2026-05-02T14:27:57Z</time></trkpt><trkpt lat="42.89120581698406" lon="11.77067237060025"><ele>682.0</ele><time>2026-05-02T14:27:58Z</time></trkpt><trkpt lat="42.891060364138426" lon="11.77050798816017"><ele>678.3333333333334</ele><time>2026-05-02T14:27:59Z</time></trkpt><trkpt lat="42.89091573994754" lon="11.770352383987879"><ele>674.6666666666666</ele><time>2026-05-02T14:28:00Z</time></trkpt><trkpt lat="42.89077837569309" lon="11.770200391992205"><ele>671.0</ele><time>2026-05-02T14:28:01Z</time></trkpt><trkpt lat="42.89063666612972" lon="11.7700548368345"><ele>671.0</ele><time>2026-05-02T14:28:02Z</time></trkpt><trkpt lat="42.890481899277496" lon="11.769928494335694"><ele>671.0</ele><time>2026-05-02T14:28:03Z</time></trkpt><trkpt lat="42.89031594798795" lon="11.769835766736241"><ele>671.0</ele><time>2026-05-02T14:28:04Z</time></trkpt><trkpt lat="42.89014788867338" lon="11.769749999831435"><ele>666.3333333333333</ele><time>2026-05-02T14:28:05Z</time></trkpt><trkpt lat="42.889968761857496" lon="11.769641759064214"><ele>661.6666666666666</ele><time>2026-05-02T14:28:06Z</time></trkpt><trkpt lat="42.889791793929625" lon="11.769532471141714"><ele>657.0</ele><time>2026-05-02T14:28:07Z</time></trkpt><trkpt lat="42.88961824130358" lon="11.769422616572175"><ele>656.6666666666666</ele><time>2026-05-02T14:28:08Z</time></trkpt><trkpt lat="42.889446002809876" lon="11.769316096099558"><ele>656.3333333333333</ele><time>2026-05-02T14:28:09Z</time></trkpt><trkpt lat="42.88928615401509" lon="11.76920859161399"><ele>656.0</ele><time>2026-05-02T14:28:10Z</time></trkpt><trkpt lat="42.88914278836335" lon="11.76909536872075"><ele>656.0</ele><time>2026-05-02T14:28:11Z</time></trkpt><trkpt lat="42.88902839601819" lon="11.768976586129686"><ele>656.0</ele><time>2026-05-02T14:28:12Z</time></trkpt><trkpt lat="42.88893996812362" lon="11.768847326824627"><ele>656.0</ele><time>2026-05-02T14:28:13Z</time></trkpt><trkpt lat="42.88887655352914" lon="11.768695948975449"><ele>656.0</ele><time>2026-05-02T14:28:14Z</time></trkpt><trkpt lat="42.88884327560551" lon="11.768522288541073"><ele>657.3333333333333</ele><time>2026-05-02T14:28:15Z</time></trkpt><trkpt lat="42.88882498394622" lon="11.768332594915796"><ele>658.6666666666666</ele><time>2026-05-02T14:28:16Z</time></trkpt><trkpt lat="42.88884241883007" lon="11.768079593328288"><ele>660.0</ele><time>2026-05-02T14:28:17Z</time></trkpt><trkpt lat="42.888859370225546" lon="11.767823232009217"><ele>658.0</ele><time>2026-05-02T14:28:18Z</time></trkpt><trkpt lat="42.88886033759022" lon="11.76758941258048"><ele>656.0</ele><time>2026-05-02T14:28:19Z</time></trkpt><trkpt lat="42.88885837329767" lon="11.767366383726168"><ele>654.0</ele><time>2026-05-02T14:28:20Z</time></trkpt><trkpt lat="42.88886010883662" lon="11.76716056192545"><ele>654.0</ele><time>2026-05-02T14:28:21Z</time></trkpt><trkpt lat="42.88885881547884" lon="11.766968141217893"><ele>654.0</ele><time>2026-05-02T14:28:22Z</time></trkpt><trkpt lat="42.88883514256166" lon="11.766786575583899"><ele>654.0</ele><time>2026-05-02T14:28:23Z</time></trkpt><trkpt lat="42.888770246490594" lon="11.766626121469706"><ele>654.0</ele><time>2026-05-02T14:28:24Z</time></trkpt><trkpt lat="42.88867190065157" lon="11.766484493226779"><ele>651.6666666666666</ele><time>2026-05-02T14:28:25Z</time></trkpt><trkpt lat="42.88851962972914" lon="11.766383869243258"><ele>649.3333333333333</ele><time>2026-05-02T14:28:26Z</time></trkpt><trkpt lat="42.88837978690855" lon="11.766230478565165"><ele>647.0</ele><time>2026-05-02T14:28:27Z</time></trkpt><trkpt lat="42.88822137061222" lon="11.766070885706474"><ele>644.3333333333333</ele><time>2026-05-02T14:28:28Z</time></trkpt><trkpt lat="42.88806333159034" lon="11.765908365334761"><ele>641.6666666666666</ele><time>2026-05-02T14:28:29Z</time></trkpt><trkpt lat="42.88791380708031" lon="11.76574639295556"><ele>639.0</ele><time>2026-05-02T14:28:30Z</time></trkpt><trkpt lat="42.88777094961607" lon="11.765594965313468"><ele>639.0</ele><time>2026-05-02T14:28:31Z</time></trkpt><trkpt lat="42.88762909841817" lon="11.765450587251399"><ele>639.0</ele><time>2026-05-02T14:28:32Z</time></trkpt><trkpt lat="42.88749079152279" lon="11.765313549484697"><ele>639.0</ele><time>2026-05-02T14:28:33Z</time></trkpt><trkpt lat="42.887350168914985" lon="11.76518625251418"><ele>636.6666666666666</ele><time>2026-05-02T14:28:34Z</time></trkpt><trkpt lat="42.88719982496598" lon="11.76506713787034"><ele>634.3333333333333</ele><time>2026-05-02T14:28:35Z</time></trkpt><trkpt lat="42.88704704598806" lon="11.764950785796314"><ele>632.0</ele><time>2026-05-02T14:28:36Z</time></trkpt><trkpt lat="42.88690293236584" lon="11.764839607937772"><ele>632.0</ele><time>2026-05-02T14:28:37Z</time></trkpt><trkpt lat="42.88676232589454" lon="11.764724378877366"><ele>632.0</ele><time>2026-05-02T14:28:38Z</time></trkpt><trkpt lat="42.886629962168655" lon="11.76460158331885"><ele>632.0</ele><time>2026-05-02T14:28:39Z</time></trkpt><trkpt lat="42.886512134694456" lon="11.764478432299006"><ele>629.75</ele><time>2026-05-02T14:28:40Z</time></trkpt><trkpt lat="42.88641949804558" lon="11.764334078764719"><ele>627.5</ele><time>2026-05-02T14:28:41Z</time></trkpt><trkpt lat="42.88635127106694" lon="11.76416840170066"><ele>625.25</ele><time>2026-05-02T14:28:42Z</time></trkpt><trkpt lat="42.88630079278292" lon="11.763984261544513"><ele>623.0</ele><time>2026-05-02T14:28:43Z</time></trkpt><trkpt lat="42.886278825247494" lon="11.763778260114965"><ele>623.0</ele><time>2026-05-02T14:28:44Z</time></trkpt><trkpt lat="42.886273816639935" lon="11.763574302079368"><ele>623.0</ele><time>2026-05-02T14:28:45Z</time></trkpt><trkpt lat="42.88626358336408" lon="11.763387612232417"><ele>623.0</ele><time>2026-05-02T14:28:46Z</time></trkpt><trkpt lat="42.88622775768193" lon="11.763223431367603"><ele>623.0</ele><time>2026-05-02T14:28:47Z</time></trkpt><trkpt lat="42.88615903334114" lon="11.763085343425775"><ele>622.0</ele><time>2026-05-02T14:28:48Z</time></trkpt><trkpt lat="42.88606474110899" lon="11.762984379078203"><ele>621.0</ele><time>2026-05-02T14:28:49Z</time></trkpt><trkpt lat="42.88595786495797" lon="11.762927284493863"><ele>620.0</ele><time>2026-05-02T14:28:50Z</time></trkpt><trkpt lat="42.88584560782722" lon="11.76291750989386"><ele>619.0</ele><time>2026-05-02T14:28:51Z</time></trkpt><trkpt lat="42.88573067246517" lon="11.762952245747304"><ele>616.75</ele><time>2026-05-02T14:28:52Z</time></trkpt><trkpt lat="42.885634791330205" lon="11.763030325978072"><ele>614.5</ele><time>2026-05-02T14:28:53Z</time></trkpt><trkpt lat="42.88555715271916" lon="11.763145268971606"><ele>612.25</ele><time>2026-05-02T14:28:54Z</time></trkpt><trkpt lat="42.885500537987504" lon="11.76328994974457"><ele>610.0</ele><time>2026-05-02T14:28:55Z</time></trkpt><trkpt lat="42.88548084959577" lon="11.763445420089388"><ele>609.3333333333334</ele><time>2026-05-02T14:28:56Z</time></trkpt><trkpt lat="42.88549375529339" lon="11.763621614040012"><ele>608.6666666666666</ele><time>2026-05-02T14:28:57Z</time></trkpt><trkpt lat="42.88552374171723" lon="11.763829742657514"><ele>608.0</ele><time>2026-05-02T14:28:58Z</time></trkpt><trkpt lat="42.885553584051074" lon="11.76406481543488"><ele>608.0</ele><time>2026-05-02T14:28:59Z</time></trkpt><trkpt lat="42.885562378982726" lon="11.764323215464144"><ele>608.0</ele><time>2026-05-02T14:29:00Z</time></trkpt><trkpt lat="42.88558706923767" lon="11.76458327690572"><ele>608.0</ele><time>2026-05-02T14:29:01Z</time></trkpt><trkpt lat="42.88561146572988" lon="11.764840244143114"><ele>605.6666666666666</ele><time>2026-05-02T14:29:02Z</time></trkpt><trkpt lat="42.885634758555476" lon="11.765083500292835"><ele>603.3333333333334</ele><time>2026-05-02T14:29:03Z</time></trkpt><trkpt lat="42.88565725220231" lon="11.765317755903713"><ele>601.0</ele><time>2026-05-02T14:29:04Z</time></trkpt><trkpt lat="42.885677925924846" lon="11.765537391405775"><ele>599.75</ele><time>2026-05-02T14:29:05Z</time></trkpt><trkpt lat="42.8856970553155" lon="11.765740620061282"><ele>598.5</ele><time>2026-05-02T14:29:06Z</time></trkpt><trkpt lat="42.8857149157959" lon="11.765932218203659"><ele>597.25</ele><time>2026-05-02T14:29:07Z</time></trkpt><trkpt lat="42.88572645002131" lon="11.766113429526966"><ele>596.0</ele><time>2026-05-02T14:29:08Z</time></trkpt><trkpt lat="42.885721778257235" lon="11.766278054896999"><ele>595.75</ele><time>2026-05-02T14:29:09Z</time></trkpt><trkpt lat="42.88569247781993" lon="11.766438726739759"><ele>595.5</ele><time>2026-05-02T14:29:10Z</time></trkpt><trkpt lat="42.88563316171087" lon="11.766608559078708"><ele>595.25</ele><time>2026-05-02T14:29:11Z</time></trkpt><trkpt lat="42.88554786499635" lon="11.766793331835341"><ele>595.0</ele><time>2026-05-02T14:29:12Z</time></trkpt><trkpt lat="42.885467249024394" lon="11.767002935759798"><ele>595.0</ele><time>2026-05-02T14:29:13Z</time></trkpt><trkpt lat="42.88537293208874" lon="11.767205889537598"><ele>595.0</ele><time>2026-05-02T14:29:14Z</time></trkpt><trkpt lat="42.8852805336861" lon="11.767405458851066"><ele>595.0</ele><time>2026-05-02T14:29:15Z</time></trkpt><trkpt lat="42.885194434820065" lon="11.767591802896316"><ele>595.6666666666667</ele><time>2026-05-02T14:29:16Z</time></trkpt><trkpt lat="42.885117667442955" lon="11.767772783409455"><ele>596.3333333333334</ele><time>2026-05-02T14:29:17Z</time></trkpt><trkpt lat="42.88505755321134" lon="11.767966048095655"><ele>597.0</ele><time>2026-05-02T14:29:18Z</time></trkpt><trkpt lat="42.885018002394425" lon="11.768197205452125"><ele>592.0</ele><time>2026-05-02T14:29:19Z</time></trkpt><trkpt lat="42.884992004826" lon="11.768447810718895"><ele>587.0</ele><time>2026-05-02T14:29:20Z</time></trkpt><trkpt lat="42.88494920352778" lon="11.768680836330216"><ele>582.0</ele><time>2026-05-02T14:29:21Z</time></trkpt><trkpt lat="42.88492077036604" lon="11.76890306368223"><ele>582.0</ele><time>2026-05-02T14:29:22Z</time></trkpt><trkpt lat="42.88489414908154" lon="11.769104797624795"><ele>582.0</ele><time>2026-05-02T14:29:23Z</time></trkpt><trkpt lat="42.88487107634958" lon="11.76928822673649"><ele>582.0</ele><time>2026-05-02T14:29:24Z</time></trkpt><trkpt lat="42.88484915956481" lon="11.769452051315376"><ele>582.0</ele><time>2026-05-02T14:29:25Z</time></trkpt><trkpt lat="42.88481482810206" lon="11.76960398405352"><ele>581.4</ele><time>2026-05-02T14:29:26Z</time></trkpt><trkpt lat="42.88477128683495" lon="11.769736878869658"><ele>580.8000000000001</ele><time>2026-05-02T14:29:27Z</time></trkpt><trkpt lat="42.884681083006484" lon="11.769824901714387"><ele>580.2</ele><time>2026-05-02T14:29:28Z</time></trkpt><trkpt lat="42.8845751699472" lon="11.769864404756278"><ele>579.6</ele><time>2026-05-02T14:29:29Z</time></trkpt><trkpt lat="42.88445827280426" lon="11.769859173902242"><ele>579.0</ele><time>2026-05-02T14:29:30Z</time></trkpt><trkpt lat="42.88434575971312" lon="11.769811204333552"><ele>575.75</ele><time>2026-05-02T14:29:31Z</time></trkpt><trkpt lat="42.88425564712225" lon="11.769716237060456"><ele>572.5</ele><time>2026-05-02T14:29:32Z</time></trkpt><trkpt lat="42.88418859076149" lon="11.769579479618542"><ele>569.25</ele><time>2026-05-02T14:29:33Z</time></trkpt><trkpt lat="42.884149103709035" lon="11.769415736333224"><ele>566.0</ele><time>2026-05-02T14:29:34Z</time></trkpt><trkpt lat="42.88416424070377" lon="11.76924130434021"><ele>566.0</ele><time>2026-05-02T14:29:35Z</time></trkpt><trkpt lat="42.88417790028031" lon="11.769057880094103"><ele>566.0</ele><time>2026-05-02T14:29:36Z</time></trkpt><trkpt lat="42.884213756348004" lon="11.768874104068257"><ele>566.0</ele><time>2026-05-02T14:29:37Z</time></trkpt><trkpt lat="42.8842389849638" lon="11.768708241743948"><ele>566.0</ele><time>2026-05-02T14:29:38Z</time></trkpt><trkpt lat="42.88424801123528" lon="11.768542252775141"><ele>565.6666666666666</ele><time>2026-05-02T14:29:39Z</time></trkpt><trkpt lat="42.88422986945564" lon="11.768368542161442"><ele>565.3333333333334</ele><time>2026-05-02T14:29:40Z</time></trkpt><trkpt lat="42.884160443673615" lon="11.768188279830072"><ele>565.0</ele><time>2026-05-02T14:29:41Z</time></trkpt><trkpt lat="42.884045396295036" lon="11.767996797153451"><ele>565.0</ele><time>2026-05-02T14:29:42Z</time></trkpt><trkpt lat="42.883907573398865" lon="11.767788340788371"><ele>565.0</ele><time>2026-05-02T14:29:43Z</time></trkpt><trkpt lat="42.883791576706436" lon="11.76758032874724"><ele>565.0</ele><time>2026-05-02T14:29:44Z</time></trkpt><trkpt lat="42.8836839591441" lon="11.767387942834928"><ele>565.3333333333334</ele><time>2026-05-02T14:29:45Z</time></trkpt><trkpt lat="42.88357552150771" lon="11.76720702671958"><ele>565.6666666666666</ele><time>2026-05-02T14:29:46Z</time></trkpt><trkpt lat="42.88347919467682" lon="11.767034221326439"><ele>566.0</ele><time>2026-05-02T14:29:47Z</time></trkpt><trkpt lat="42.88338715202952" lon="11.766873416824648"><ele>563.5</ele><time>2026-05-02T14:29:48Z</time></trkpt><trkpt lat="42.88330364949216" lon="11.76671839026795"><ele>561.0</ele><time>2026-05-02T14:29:49Z</time></trkpt><trkpt lat="42.883240348818916" lon="11.766560634049721"><ele>558.5</ele><time>2026-05-02T14:29:50Z</time></trkpt><trkpt lat="42.883202838764134" lon="11.766399931147932"><ele>556.0</ele><time>2026-05-02T14:29:51Z</time></trkpt><trkpt lat="42.883193970742724" lon="11.766229942125976"><ele>556.0</ele><time>2026-05-02T14:29:52Z</time></trkpt><trkpt lat="42.88321852102716" lon="11.766046062770206"><ele>556.0</ele><time>2026-05-02T14:29:53Z</time></trkpt><trkpt lat="42.88327028575352" lon="11.76586292948965"><ele>556.0</ele><time>2026-05-02T14:29:54Z</time></trkpt><trkpt lat="42.883317892003475" lon="11.765700132957242"><ele>556.0</ele><time>2026-05-02T14:29:55Z</time></trkpt><trkpt lat="42.88335133039473" lon="11.765542344196302"><ele>556.0</ele><time>2026-05-02T14:29:56Z</time></trkpt><trkpt lat="42.88335703322435" lon="11.765374103694255"><ele>556.0</ele><time>2026-05-02T14:29:57Z</time></trkpt><trkpt lat="42.883395613444385" lon="11.765245649242337"><ele>556.0</ele><time>2026-05-02T14:29:58Z</time></trkpt><trkpt lat="42.883368112649684" lon="11.76510538041185"><ele>556.0</ele><time>2026-05-02T14:29:59Z</time></trkpt><trkpt lat="42.88331017886923" lon="11.764989550530972"><ele>556.0</ele><time>2026-05-02T14:30:00Z</time></trkpt><trkpt lat="42.88322505402718" lon="11.76490557012449"><ele>556.0</ele><time>2026-05-02T14:30:01Z</time></trkpt><trkpt lat="42.88312013134876" lon="11.764858400892532"><ele>556.0</ele><time>2026-05-02T14:30:02Z</time></trkpt><trkpt lat="42.88300058688343" lon="11.76486256572725"><ele>556.0</ele><time>2026-05-02T14:30:03Z</time></trkpt><trkpt lat="42.8828894200323" lon="11.76492238486737"><ele>556.0</ele><time>2026-05-02T14:30:04Z</time></trkpt><trkpt lat="42.88279151650952" lon="11.765030161801386"><ele>556.0</ele><time>2026-05-02T14:30:05Z</time></trkpt><trkpt lat="42.882722939088616" lon="11.765150048866632"><ele>556.0</ele><time>2026-05-02T14:30:06Z</time></trkpt><trkpt lat="42.88268980500455" lon="11.765303823560382"><ele>556.0</ele><time>2026-05-02T14:30:07Z</time></trkpt><trkpt lat="42.88267277479278" lon="11.765467540929157"><ele>556.0</ele><time>2026-05-02T14:30:08Z</time></trkpt><trkpt lat="42.88267390941518" lon="11.765742687785577"><ele>556.0</ele><time>2026-05-02T14:30:09Z</time></trkpt><trkpt lat="42.88265323600335" lon="11.766012656147568"><ele>556.0</ele><time>2026-05-02T14:30:10Z</time></trkpt><trkpt lat="42.8826359321134" lon="11.766272429545076"><ele>556.0</ele><time>2026-05-02T14:30:11Z</time></trkpt><trkpt lat="42.88259901344642" lon="11.766511674787708"><ele>552.0</ele><time>2026-05-02T14:30:12Z</time></trkpt><trkpt lat="42.88259547627993" lon="11.76673403696985"><ele>548.0</ele><time>2026-05-02T14:30:13Z</time></trkpt><trkpt lat="42.882579049501246" lon="11.76695775630648"><ele>544.0</ele><time>2026-05-02T14:30:14Z</time></trkpt><trkpt lat="42.882578479509256" lon="11.767172257982692"><ele>546.6666666666667</ele><time>2026-05-02T14:30:15Z</time></trkpt><trkpt lat="42.88261502743831" lon="11.767391570853933"><ele>549.3333333333334</ele><time>2026-05-02T14:30:16Z</time></trkpt><trkpt lat="42.88267701442486" lon="11.767603071227214"><ele>552.0</ele><time>2026-05-02T14:30:17Z</time></trkpt><trkpt lat="42.88274075925264" lon="11.767791318861242"><ele>552.0</ele><time>2026-05-02T14:30:18Z</time></trkpt><trkpt lat="42.88277671012366" lon="11.767971147378324"><ele>552.0</ele><time>2026-05-02T14:30:19Z</time></trkpt><trkpt lat="42.882805748968224" lon="11.76814402872204"><ele>552.0</ele><time>2026-05-02T14:30:20Z</time></trkpt><trkpt lat="42.88279666841715" lon="11.768290041094927"><ele>552.0</ele><time>2026-05-02T14:30:21Z</time></trkpt><trkpt lat="42.88276158884802" lon="11.768423163047132"><ele>551.75</ele><time>2026-05-02T14:30:22Z</time></trkpt><trkpt lat="42.88271070852431" lon="11.768559498716156"><ele>551.5</ele><time>2026-05-02T14:30:23Z</time></trkpt><trkpt lat="42.882633633628856" lon="11.768662564026288"><ele>551.25</ele><time>2026-05-02T14:30:24Z</time></trkpt><trkpt lat="42.88253173506724" lon="11.768748580452105"><ele>551.0</ele><time>2026-05-02T14:30:25Z</time></trkpt><trkpt lat="42.882412315401126" lon="11.768780928710123"><ele>549.0</ele><time>2026-05-02T14:30:26Z</time></trkpt><trkpt lat="42.88229194884344" lon="11.768794617814104"><ele>547.0</ele><time>2026-05-02T14:30:27Z</time></trkpt><trkpt lat="42.882177573165364" lon="11.768734022763244"><ele>545.0</ele><time>2026-05-02T14:30:28Z</time></trkpt><trkpt lat="42.88206054970995" lon="11.768638789340294"><ele>543.0</ele><time>2026-05-02T14:30:29Z</time></trkpt><trkpt lat="42.881974567775046" lon="11.768491798797317"><ele>543.0</ele><time>2026-05-02T14:30:30Z</time></trkpt><trkpt lat="42.881904793938645" lon="11.76831078227301"><ele>543.0</ele><time>2026-05-02T14:30:31Z</time></trkpt><trkpt lat="42.88184721280759" lon="11.76810126799548"><ele>543.0</ele><time>2026-05-02T14:30:32Z</time></trkpt><trkpt lat="42.88178653092779" lon="11.767882832031052"><ele>539.3333333333334</ele><time>2026-05-02T14:30:33Z</time></trkpt><trkpt lat="42.8817338121192" lon="11.767655883058667"><ele>535.6666666666667</ele><time>2026-05-02T14:30:34Z</time></trkpt><trkpt lat="42.88168753942022" lon="11.767430562316555"><ele>532.0</ele><time>2026-05-02T14:30:35Z</time></trkpt><trkpt lat="42.88164756816275" lon="11.767215417908476"><ele>532.0</ele><time>2026-05-02T14:30:36Z</time></trkpt><trkpt lat="42.881610471676595" lon="11.767011748541526"><ele>532.0</ele><time>2026-05-02T14:30:37Z</time></trkpt><trkpt lat="42.881573865419064" lon="11.76681621039071"><ele>532.0</ele><time>2026-05-02T14:30:38Z</time></trkpt><trkpt lat="42.88153631449889" lon="11.76662923114585"><ele>532.0</ele><time>2026-05-02T14:30:39Z</time></trkpt><trkpt lat="42.88148379544865" lon="11.766457170497354"><ele>532.0</ele><time>2026-05-02T14:30:40Z</time></trkpt><trkpt lat="42.88139998810354" lon="11.76630084984572"><ele>532.0</ele><time>2026-05-02T14:30:41Z</time></trkpt><trkpt lat="42.88128667271619" lon="11.766162094905395"><ele>532.0</ele><time>2026-05-02T14:30:42Z</time></trkpt><trkpt lat="42.88116626766534" lon="11.766049495178434"><ele>532.0</ele><time>2026-05-02T14:30:43Z</time></trkpt><trkpt lat="42.881051216705025" lon="11.765944785261603"><ele>532.5</ele><time>2026-05-02T14:30:44Z</time></trkpt><trkpt lat="42.88095132758474" lon="11.765825809320743"><ele>533.0</ele><time>2026-05-02T14:30:45Z</time></trkpt><trkpt lat="42.88087521180716" lon="11.765683565568938"><ele>533.5</ele><time>2026-05-02T14:30:46Z</time></trkpt><trkpt lat="42.88082975156448" lon="11.76551325875379"><ele>534.0</ele><time>2026-05-02T14:30:47Z</time></trkpt><trkpt lat="42.8808132330198" lon="11.765317353949978"><ele>529.0</ele><time>2026-05-02T14:30:48Z</time></trkpt><trkpt lat="42.880818256048485" lon="11.76509818968111"><ele>524.0</ele><time>2026-05-02T14:30:49Z</time></trkpt><trkpt lat="42.88083552850021" lon="11.764867059397345"><ele>519.0</ele><time>2026-05-02T14:30:50Z</time></trkpt><trkpt lat="42.88085502869134" lon="11.764649817642663"><ele>519.0</ele><time>2026-05-02T14:30:51Z</time></trkpt><trkpt lat="42.88086514147615" lon="11.76444835447394"><ele>519.0</ele><time>2026-05-02T14:30:52Z</time></trkpt><trkpt lat="42.88085808762187" lon="11.764243033837536"><ele>519.0</ele><time>2026-05-02T14:30:53Z</time></trkpt><trkpt lat="42.88082747971876" lon="11.764028310237844"><ele>518.6666666666666</ele><time>2026-05-02T14:30:54Z</time></trkpt><trkpt lat="42.88078686472188" lon="11.763803733260803"><ele>518.3333333333333</ele><time>2026-05-02T14:30:55Z</time></trkpt><trkpt lat="42.88073726653998" lon="11.763567415955583"><ele>518.0</ele><time>2026-05-02T14:30:56Z</time></trkpt><trkpt lat="42.880687957237065" lon="11.763304689529875"><ele>517.3333333333333</ele><time>2026-05-02T14:30:57Z</time></trkpt><trkpt lat="42.88063644913086" lon="11.76303767407565"><ele>516.6666666666666</ele><time>2026-05-02T14:30:58Z</time></trkpt><trkpt lat="42.880578147555774" lon="11.762776454494844"><ele>516.0</ele><time>2026-05-02T14:30:59Z</time></trkpt><trkpt lat="42.88052126884469" lon="11.762524839506025"><ele>515.6666666666666</ele><time>2026-05-02T14:31:00Z</time></trkpt><trkpt lat="42.88046234225315" lon="11.762289419416243"><ele>515.3333333333333</ele><time>2026-05-02T14:31:01Z</time></trkpt><trkpt lat="42.880404518154926" lon="11.76207491696847"><ele>515.0</ele><time>2026-05-02T14:31:02Z</time></trkpt><trkpt lat="42.880350336703046" lon="11.76185979042085"><ele>515.0</ele><time>2026-05-02T14:31:03Z</time></trkpt><trkpt lat="42.88030283848754" lon="11.7616606985079"><ele>515.0</ele><time>2026-05-02T14:31:04Z</time></trkpt><trkpt lat="42.88025531912979" lon="11.761460749960708"><ele>515.0</ele><time>2026-05-02T14:31:05Z</time></trkpt><trkpt lat="42.88021094237362" lon="11.76125683107893"><ele>515.0</ele><time>2026-05-02T14:31:06Z</time></trkpt><trkpt lat="42.88016865725135" lon="11.761039497546815"><ele>515.0</ele><time>2026-05-02T14:31:07Z</time></trkpt><trkpt lat="42.88012792729073" lon="11.760800129506181"><ele>515.0</ele><time>2026-05-02T14:31:08Z</time></trkpt><trkpt lat="42.880086499357034" lon="11.760538559854753"><ele>510.0</ele><time>2026-05-02T14:31:09Z</time></trkpt><trkpt lat="42.88004580918537" lon="11.760271849152502"><ele>505.0</ele><time>2026-05-02T14:31:10Z</time></trkpt><trkpt lat="42.8800159430793" lon="11.760031239027562"><ele>500.0</ele><time>2026-05-02T14:31:11Z</time></trkpt><trkpt lat="42.87998345209468" lon="11.75981433752438"><ele>499.25</ele><time>2026-05-02T14:31:12Z</time></trkpt><trkpt lat="42.879952344872066" lon="11.759605239396214"><ele>498.5</ele><time>2026-05-02T14:31:13Z</time></trkpt><trkpt lat="42.87992532601046" lon="11.759414534594553"><ele>497.75</ele><time>2026-05-02T14:31:14Z</time></trkpt><trkpt lat="42.87990052884519" lon="11.759240317879438"><ele>497.0</ele><time>2026-05-02T14:31:15Z</time></trkpt><trkpt lat="42.87987990973698" lon="11.759077485772652"><ele>495.75</ele><time>2026-05-02T14:31:16Z</time></trkpt><trkpt lat="42.87986033675106" lon="11.758927230222636"><ele>494.5</ele><time>2026-05-02T14:31:17Z</time></trkpt><trkpt lat="42.87984851756744" lon="11.758772666359219"><ele>493.25</ele><time>2026-05-02T14:31:18Z</time></trkpt><trkpt lat="42.87985347285892" lon="11.758608803741206"><ele>492.0</ele><time>2026-05-02T14:31:19Z</time></trkpt><trkpt lat="42.87988261170491" lon="11.758435220195025"><ele>491.25</ele><time>2026-05-02T14:31:20Z</time></trkpt><trkpt lat="42.87993061851909" lon="11.75825666914273"><ele>490.5</ele><time>2026-05-02T14:31:21Z</time></trkpt><trkpt lat="42.87997887212931" lon="11.758082872948883"><ele>489.75</ele><time>2026-05-02T14:31:22Z</time></trkpt><trkpt lat="42.88002233800363" lon="11.757922570540108"><ele>489.0</ele><time>2026-05-02T14:31:23Z</time></trkpt><trkpt lat="42.88005930231664" lon="11.757767720726198"><ele>487.79999999999995</ele><time>2026-05-02T14:31:24Z</time></trkpt><trkpt lat="42.88008994704621" lon="11.757621305347481"><ele>486.59999999999997</ele><time>2026-05-02T14:31:25Z</time></trkpt><trkpt lat="42.88009753732484" lon="11.757471637987724"><ele>485.4</ele><time>2026-05-02T14:31:26Z</time></trkpt><trkpt lat="42.88007725296694" lon="11.757324845873597"><ele>484.2</ele><time>2026-05-02T14:31:27Z</time></trkpt><trkpt lat="42.88002919524169" lon="11.757181565007903"><ele>483.0</ele><time>2026-05-02T14:31:28Z</time></trkpt><trkpt lat="42.87996058099794" lon="11.757046102521892"><ele>483.0</ele><time>2026-05-02T14:31:29Z</time></trkpt><trkpt lat="42.87988619588808" lon="11.756920983322852"><ele>483.0</ele><time>2026-05-02T14:31:30Z</time></trkpt><trkpt lat="42.87981443627969" lon="11.756788867205753"><ele>483.0</ele><time>2026-05-02T14:31:31Z</time></trkpt><trkpt lat="42.879747396522156" lon="11.756659365889268"><ele>483.0</ele><time>2026-05-02T14:31:32Z</time></trkpt><trkpt lat="42.879689755998164" lon="11.75653898044412"><ele>483.0</ele><time>2026-05-02T14:31:33Z</time></trkpt><trkpt lat="42.87964821901075" lon="11.756413529516335"><ele>482.99999999999994</ele><time>2026-05-02T14:31:34Z</time></trkpt><trkpt lat="42.87962892088361" lon="11.756276209532713"><ele>482.99999999999994</ele><time>2026-05-02T14:31:35Z</time></trkpt><trkpt lat="42.87962789627595" lon="11.756115203657561"><ele>483.0</ele><time>2026-05-02T14:31:36Z</time></trkpt><trkpt lat="42.87964358520191" lon="11.755942486833167"><ele>483.0</ele><time>2026-05-02T14:31:37Z</time></trkpt><trkpt lat="42.87966940275282" lon="11.75577746644975"><ele>481.75</ele><time>2026-05-02T14:31:38Z</time></trkpt><trkpt lat="42.87969253089259" lon="11.755622124220608"><ele>480.5</ele><time>2026-05-02T14:31:39Z</time></trkpt><trkpt lat="42.879711563355656" lon="11.75545920245784"><ele>479.25</ele><time>2026-05-02T14:31:40Z</time></trkpt><trkpt lat="42.879734372571875" lon="11.755296558666204"><ele>478.0</ele><time>2026-05-02T14:31:41Z</time></trkpt><trkpt lat="42.87977804852473" lon="11.755146601395637"><ele>477.4</ele><time>2026-05-02T14:31:42Z</time></trkpt><trkpt lat="42.879840857774944" lon="11.755010067352778"><ele>476.79999999999995</ele><time>2026-05-02T14:31:43Z</time></trkpt><trkpt lat="42.87990418282245" lon="11.754884190644047"><ele>476.2</ele><time>2026-05-02T14:31:44Z</time></trkpt><trkpt lat="42.87995369601791" lon="11.754755657150445"><ele>475.6</ele><time>2026-05-02T14:31:45Z</time></trkpt><trkpt lat="42.87997998246396" lon="11.754617782603642"><ele>475.0</ele><time>2026-05-02T14:31:46Z</time></trkpt><trkpt lat="42.879969843763774" lon="11.75446940890563"><ele>473.6</ele><time>2026-05-02T14:31:47Z</time></trkpt><trkpt lat="42.87991833575909" lon="11.754340837714635"><ele>472.2</ele><time>2026-05-02T14:31:48Z</time></trkpt><trkpt lat="42.87983620863174" lon="11.754250794712101"><ele>470.79999999999995</ele><time>2026-05-02T14:31:49Z</time></trkpt><trkpt lat="42.879741183721976" lon="11.754192196264276"><ele>469.4</ele><time>2026-05-02T14:31:50Z</time></trkpt><trkpt lat="42.87963684300144" lon="11.754180239871602"><ele>468.0</ele><time>2026-05-02T14:31:51Z</time></trkpt><trkpt lat="42.879529166972794" lon="11.754218675523765"><ele>468.0</ele><time>2026-05-02T14:31:52Z</time></trkpt><trkpt lat="42.87942566870519" lon="11.7542973866972"><ele>468.0</ele><time>2026-05-02T14:31:53Z</time></trkpt><trkpt lat="42.879315448425" lon="11.754420627233323"><ele>468.0</ele><time>2026-05-02T14:31:54Z</time></trkpt><trkpt lat="42.87916217417267" lon="11.7545391436558"><ele>468.0</ele><time>2026-05-02T14:31:55Z</time></trkpt><trkpt lat="42.87899456366183" lon="11.754691255940672"><ele>466.33333333333337</ele><time>2026-05-02T14:31:56Z</time></trkpt><trkpt lat="42.87883522647455" lon="11.754837681009747"><ele>464.6666666666667</ele><time>2026-05-02T14:31:57Z</time></trkpt><trkpt lat="42.87869152783966" lon="11.75498156266027"><ele>463.0</ele><time>2026-05-02T14:31:58Z</time></trkpt><trkpt lat="42.87854081227705" lon="11.755114134645316"><ele>461.33333333333337</ele><time>2026-05-02T14:31:59Z</time></trkpt><trkpt lat="42.878402185847754" lon="11.755245389279043"><ele>459.66666666666663</ele><time>2026-05-02T14:32:00Z</time></trkpt><trkpt lat="42.87827355784387" lon="11.75538361317712"><ele>458.0</ele><time>2026-05-02T14:32:01Z</time></trkpt><trkpt lat="42.878160156282085" lon="11.755528542851527"><ele>458.0</ele><time>2026-05-02T14:32:02Z</time></trkpt><trkpt lat="42.878056898822656" lon="11.755683487313762"><ele>458.0</ele><time>2026-05-02T14:32:03Z</time></trkpt><trkpt lat="42.87796055598686" lon="11.755851832840229"><ele>458.0</ele><time>2026-05-02T14:32:04Z</time></trkpt><trkpt lat="42.87787318483413" lon="11.756016850087363"><ele>458.25</ele><time>2026-05-02T14:32:05Z</time></trkpt><trkpt lat="42.8777871120231" lon="11.756168489156726"><ele>458.5</ele><time>2026-05-02T14:32:06Z</time></trkpt><trkpt lat="42.87770537823192" lon="11.75630529557708"><ele>458.75</ele><time>2026-05-02T14:32:07Z</time></trkpt><trkpt lat="42.877635205739765" lon="11.756424870027734"><ele>459.0</ele><time>2026-05-02T14:32:08Z</time></trkpt><trkpt lat="42.877588074936575" lon="11.756559785932643"><ele>457.5</ele><time>2026-05-02T14:32:09Z</time></trkpt><trkpt lat="42.87756403511268" lon="11.75671710463219"><ele>456.0</ele><time>2026-05-02T14:32:10Z</time></trkpt><trkpt lat="42.8775656335904" lon="11.756890567257125"><ele>454.5</ele><time>2026-05-02T14:32:11Z</time></trkpt><trkpt lat="42.87760095368052" lon="11.757081692498346"><ele>453.0</ele><time>2026-05-02T14:32:12Z</time></trkpt><trkpt lat="42.8776546951192" lon="11.757271862862082"><ele>453.0</ele><time>2026-05-02T14:32:13Z</time></trkpt><trkpt lat="42.87768955347382" lon="11.757452691205517"><ele>453.0</ele><time>2026-05-02T14:32:14Z</time></trkpt><trkpt lat="42.87771458891506" lon="11.75763906866481"><ele>453.0</ele><time>2026-05-02T14:32:15Z</time></trkpt><trkpt lat="42.87771925505932" lon="11.757839372129725"><ele>453.0</ele><time>2026-05-02T14:32:16Z</time></trkpt><trkpt lat="42.87769370935858" lon="11.758032116854555"><ele>452.66666666666663</ele><time>2026-05-02T14:32:17Z</time></trkpt><trkpt lat="42.87765539971466" lon="11.758223005961291"><ele>452.3333333333333</ele><time>2026-05-02T14:32:18Z</time></trkpt><trkpt lat="42.877609684802756" lon="11.758433290950641"><ele>452.0</ele><time>2026-05-02T14:32:19Z</time></trkpt><trkpt lat="42.877576424785694" lon="11.758635015110487"><ele>448.3333333333333</ele><time>2026-05-02T14:32:20Z</time></trkpt><trkpt lat="42.877490975721706" lon="11.758814719639952"><ele>444.66666666666663</ele><time>2026-05-02T14:32:21Z</time></trkpt><trkpt lat="42.87738964304891" lon="11.75901102036555"><ele>441.0</ele><time>2026-05-02T14:32:22Z</time></trkpt><trkpt lat="42.87726554888287" lon="11.759225535931733"><ele>442.33333333333337</ele><time>2026-05-02T14:32:23Z</time></trkpt><trkpt lat="42.87713751913742" lon="11.759443168065623"><ele>443.6666666666667</ele><time>2026-05-02T14:32:24Z</time></trkpt><trkpt lat="42.877029541040415" lon="11.759664398462812"><ele>445.0</ele><time>2026-05-02T14:32:25Z</time></trkpt><trkpt lat="42.87692329855799" lon="11.759854265694178"><ele>445.0</ele><time>2026-05-02T14:32:26Z</time></trkpt><trkpt lat="42.87682777527545" lon="11.760044238240427"><ele>445.0</ele><time>2026-05-02T14:32:27Z</time></trkpt><trkpt lat="42.87674319216476" lon="11.760242216850637"><ele>445.0</ele><time>2026-05-02T14:32:28Z</time></trkpt><trkpt lat="42.876675986347394" lon="11.76044151499772"><ele>442.25</ele><time>2026-05-02T14:32:29Z</time></trkpt><trkpt lat="42.876617441422404" lon="11.760623833473007"><ele>439.5</ele><time>2026-05-02T14:32:30Z</time></trkpt><trkpt lat="42.876561477536356" lon="11.760777935939466"><ele>436.75</ele><time>2026-05-02T14:32:31Z</time></trkpt><trkpt lat="42.8764952621022" lon="11.760899804403259"><ele>434.0</ele><time>2026-05-02T14:32:32Z</time></trkpt><trkpt lat="42.8764100008097" lon="11.760985538795401"><ele>434.0</ele><time>2026-05-02T14:32:33Z</time></trkpt><trkpt lat="42.8763027913162" lon="11.761003815955016"><ele>434.0</ele><time>2026-05-02T14:32:34Z</time></trkpt><trkpt lat="42.87619797851276" lon="11.76100286856844"><ele>434.0</ele><time>2026-05-02T14:32:35Z</time></trkpt><trkpt lat="42.87609765631563" lon="11.760909582068672"><ele>434.0</ele><time>2026-05-02T14:32:36Z</time></trkpt><trkpt lat="42.87602520060066" lon="11.760777109247345"><ele>434.0</ele><time>2026-05-02T14:32:37Z</time></trkpt><trkpt lat="42.875993579762245" lon="11.760628818363642"><ele>434.0</ele><time>2026-05-02T14:32:38Z</time></trkpt><trkpt lat="42.875995415137865" lon="11.760470402786318"><ele>434.0</ele><time>2026-05-02T14:32:39Z</time></trkpt><trkpt lat="42.876055019683406" lon="11.760313815200611"><ele>434.0</ele><time>2026-05-02T14:32:40Z</time></trkpt><trkpt lat="42.876111329690026" lon="11.760128915938944"><ele>432.75</ele><time>2026-05-02T14:32:41Z</time></trkpt><trkpt lat="42.876177012713484" lon="11.75997003538836"><ele>431.5</ele><time>2026-05-02T14:32:42Z</time></trkpt><trkpt lat="42.876228200896335" lon="11.759811285365421"><ele>430.25</ele><time>2026-05-02T14:32:43Z</time></trkpt><trkpt lat="42.876250792818205" lon="11.759634285238764"><ele>429.0</ele><time>2026-05-02T14:32:44Z</time></trkpt><trkpt lat="42.876235206471534" lon="11.759430807512894"><ele>428.0</ele><time>2026-05-02T14:32:45Z</time></trkpt><trkpt lat="42.87617984443333" lon="11.75920268586976"><ele>427.0</ele><time>2026-05-02T14:32:46Z</time></trkpt><trkpt lat="42.8760978687618" lon="11.758944687922536"><ele>426.0</ele><time>2026-05-02T14:32:47Z</time></trkpt><trkpt lat="42.876005370151745" lon="11.758666389661162"><ele>418.0</ele><time>2026-05-02T14:32:48Z</time></trkpt><trkpt lat="42.875912145199656" lon="11.758375888772004"><ele>410.0</ele><time>2026-05-02T14:32:49Z</time></trkpt><trkpt lat="42.875827686651235" lon="11.75810060837284"><ele>410.0</ele><time>2026-05-02T14:32:50Z</time></trkpt><trkpt lat="42.87574777925721" lon="11.75783044177396"><ele>410.0</ele><time>2026-05-02T14:32:51Z</time></trkpt><trkpt lat="42.875671133170734" lon="11.757577533742463"><ele>410.0</ele><time>2026-05-02T14:32:52Z</time></trkpt><trkpt lat="42.87559451768613" lon="11.757328942349137"><ele>410.66666666666663</ele><time>2026-05-02T14:32:53Z</time></trkpt><trkpt lat="42.87552499457229" lon="11.757083867622569"><ele>411.33333333333337</ele><time>2026-05-02T14:32:54Z</time></trkpt><trkpt lat="42.87546032619166" lon="11.756839896921482"><ele>412.0</ele><time>2026-05-02T14:32:55Z</time></trkpt><trkpt lat="42.87540964395542" lon="11.756572751731412"><ele>412.33333333333337</ele><time>2026-05-02T14:32:56Z</time></trkpt><trkpt lat="42.87538062747267" lon="11.756307682717654"><ele>412.66666666666663</ele><time>2026-05-02T14:32:57Z</time></trkpt><trkpt lat="42.875357112703284" lon="11.756052056199817"><ele>413.0</ele><time>2026-05-02T14:32:58Z</time></trkpt><trkpt lat="42.87533916802469" lon="11.755813109356861"><ele>412.3333333333333</ele><time>2026-05-02T14:32:59Z</time></trkpt><trkpt lat="42.87533179233267" lon="11.755585973133353"><ele>411.66666666666663</ele><time>2026-05-02T14:33:00Z</time></trkpt><trkpt lat="42.87534475091467" lon="11.75535554048404"><ele>411.0</ele><time>2026-05-02T14:33:01Z</time></trkpt><trkpt lat="42.875384532443455" lon="11.755099273683841"><ele>410.33333333333337</ele><time>2026-05-02T14:33:02Z</time></trkpt><trkpt lat="42.87543763231704" lon="11.754822514698926"><ele>409.6666666666667</ele><time>2026-05-02T14:33:03Z</time></trkpt><trkpt lat="42.87548247836918" lon="11.75452393155506"><ele>409.0</ele><time>2026-05-02T14:33:04Z</time></trkpt><trkpt lat="42.87553007131613" lon="11.754219341006399"><ele>408.0</ele><time>2026-05-02T14:33:05Z</time></trkpt><trkpt lat="42.87557578226509" lon="11.753920819783561"><ele>407.0</ele><time>2026-05-02T14:33:06Z</time></trkpt><trkpt lat="42.87562903203023" lon="11.7536547114191"><ele>406.0</ele><time>2026-05-02T14:33:07Z</time></trkpt><trkpt lat="42.875685022125005" lon="11.753328212336404"><ele>403.6666666666667</ele><time>2026-05-02T14:33:08Z</time></trkpt><trkpt lat="42.875732731109736" lon="11.753044470646966"><ele>401.33333333333337</ele><time>2026-05-02T14:33:09Z</time></trkpt><trkpt lat="42.87578216771559" lon="11.752756852462568"><ele>399.0</ele><time>2026-05-02T14:33:10Z</time></trkpt><trkpt lat="42.87582797681093" lon="11.75249211555614"><ele>399.33333333333337</ele><time>2026-05-02T14:33:11Z</time></trkpt><trkpt lat="42.87586752911671" lon="11.7522462041362"><ele>399.6666666666667</ele><time>2026-05-02T14:33:12Z</time></trkpt><trkpt lat="42.87590700433027" lon="11.752007550180052"><ele>400.0</ele><time>2026-05-02T14:33:13Z</time></trkpt><trkpt lat="42.87594439964527" lon="11.751787534760243"><ele>400.0</ele><time>2026-05-02T14:33:14Z</time></trkpt><trkpt lat="42.875987163134795" lon="11.751575279616846"><ele>400.0</ele><time>2026-05-02T14:33:15Z</time></trkpt><trkpt lat="42.87601811841323" lon="11.751370285100295"><ele>400.0</ele><time>2026-05-02T14:33:16Z</time></trkpt><trkpt lat="42.87602707820716" lon="11.751155846140021"><ele>397.6666666666667</ele><time>2026-05-02T14:33:17Z</time></trkpt><trkpt lat="42.87599845491732" lon="11.750900653335062"><ele>395.33333333333337</ele><time>2026-05-02T14:33:18Z</time></trkpt><trkpt lat="42.8759377565997" lon="11.750646529068169"><ele>393.0</ele><time>2026-05-02T14:33:19Z</time></trkpt><trkpt lat="42.87587597941133" lon="11.750389927813314"><ele>390.66666666666663</ele><time>2026-05-02T14:33:20Z</time></trkpt><trkpt lat="42.87581401877814" lon="11.75011587767166"><ele>388.3333333333333</ele><time>2026-05-02T14:33:21Z</time></trkpt><trkpt lat="42.87575365676066" lon="11.749836127423036"><ele>386.0</ele><time>2026-05-02T14:33:22Z</time></trkpt><trkpt lat="42.87569021985358" lon="11.749545066954985"><ele>386.0</ele><time>2026-05-02T14:33:23Z</time></trkpt><trkpt lat="42.87561016969911" lon="11.749251006579469"><ele>386.0</ele><time>2026-05-02T14:33:24Z</time></trkpt><trkpt lat="42.87552640681859" lon="11.74895659593349"><ele>386.0</ele><time>2026-05-02T14:33:25Z</time></trkpt><trkpt lat="42.87544175505901" lon="11.748665999277385"><ele>386.0</ele><time>2026-05-02T14:33:26Z</time></trkpt><trkpt lat="42.87536263726556" lon="11.748378509943352"><ele>386.66666666666663</ele><time>2026-05-02T14:33:27Z</time></trkpt><trkpt lat="42.87528513789599" lon="11.748093896092172"><ele>387.33333333333337</ele><time>2026-05-02T14:33:28Z</time></trkpt><trkpt lat="42.87520730875763" lon="11.747813738890246"><ele>388.0</ele><time>2026-05-02T14:33:29Z</time></trkpt><trkpt lat="42.87513268376661" lon="11.74753654848122"><ele>385.33333333333337</ele><time>2026-05-02T14:33:30Z</time></trkpt><trkpt lat="42.87506243431906" lon="11.74727165932686"><ele>382.6666666666667</ele><time>2026-05-02T14:33:31Z</time></trkpt><trkpt lat="42.87499243346115" lon="11.747015352771962"><ele>380.0</ele><time>2026-05-02T14:33:32Z</time></trkpt><trkpt lat="42.87492389714045" lon="11.746770126684915"><ele>380.0</ele><time>2026-05-02T14:33:33Z</time></trkpt><trkpt lat="42.87485969213233" lon="11.746530735664393"><ele>380.0</ele><time>2026-05-02T14:33:34Z</time></trkpt><trkpt lat="42.87479658978815" lon="11.746291221378147"><ele>380.0</ele><time>2026-05-02T14:33:35Z</time></trkpt><trkpt lat="42.87473152967116" lon="11.746050583560395"><ele>379.0</ele><time>2026-05-02T14:33:36Z</time></trkpt><trkpt lat="42.87466316168036" lon="11.745803962961395"><ele>378.0</ele><time>2026-05-02T14:33:37Z</time></trkpt><trkpt lat="42.874593029811656" lon="11.74554753127235"><ele>377.0</ele><time>2026-05-02T14:33:38Z</time></trkpt><trkpt lat="42.87452391607423" lon="11.745291524583067"><ele>377.0</ele><time>2026-05-02T14:33:39Z</time></trkpt><trkpt lat="42.874452750628684" lon="11.745024998299852"><ele>377.0</ele><time>2026-05-02T14:33:40Z</time></trkpt><trkpt lat="42.87437880108551" lon="11.744755742542049"><ele>377.0</ele><time>2026-05-02T14:33:41Z</time></trkpt><trkpt lat="42.87430525498042" lon="11.744479400772153"><ele>376.0</ele><time>2026-05-02T14:33:42Z</time></trkpt><trkpt lat="42.874234738575126" lon="11.744214033777116"><ele>375.0</ele><time>2026-05-02T14:33:43Z</time></trkpt><trkpt lat="42.87416972566297" lon="11.743962021704089"><ele>374.0</ele><time>2026-05-02T14:33:44Z</time></trkpt><trkpt lat="42.87410349853232" lon="11.743713440955348"><ele>373.0</ele><time>2026-05-02T14:33:45Z</time></trkpt><trkpt lat="42.87403590408333" lon="11.74346958714806"><ele>372.0</ele><time>2026-05-02T14:33:46Z</time></trkpt><trkpt lat="42.87396613151743" lon="11.743223608644438"><ele>371.0</ele><time>2026-05-02T14:33:47Z</time></trkpt><trkpt lat="42.87388811788966" lon="11.742976502140282"><ele>371.0</ele><time>2026-05-02T14:33:48Z</time></trkpt><trkpt lat="42.8738018857818" lon="11.74273500611515"><ele>371.0</ele><time>2026-05-02T14:33:49Z</time></trkpt><trkpt lat="42.87371108713599" lon="11.742509329138805"><ele>371.0</ele><time>2026-05-02T14:33:50Z</time></trkpt><trkpt lat="42.87362347380592" lon="11.742292443798975"><ele>371.0</ele><time>2026-05-02T14:33:51Z</time></trkpt><trkpt lat="42.873537035802805" lon="11.742092466242058"><ele>371.0</ele><time>2026-05-02T14:33:52Z</time></trkpt><trkpt lat="42.873452975863884" lon="11.741906708090303"><ele>371.0</ele><time>2026-05-02T14:33:53Z</time></trkpt><trkpt lat="42.873354626956676" lon="11.741742311829839"><ele>369.6666666666667</ele><time>2026-05-02T14:33:54Z</time></trkpt><trkpt lat="42.87322904609452" lon="11.741601860045899"><ele>368.3333333333333</ele><time>2026-05-02T14:33:55Z</time></trkpt><trkpt lat="42.873070233608" lon="11.74147601772247"><ele>367.0</ele><time>2026-05-02T14:33:56Z</time></trkpt><trkpt lat="42.87289310178994" lon="11.741363589176027"><ele>367.0</ele><time>2026-05-02T14:33:57Z</time></trkpt><trkpt lat="42.872710306617726" lon="11.741254967392038"><ele>367.0</ele><time>2026-05-02T14:33:58Z</time></trkpt><trkpt lat="42.87253648234794" lon="11.741141040533082"><ele>367.0</ele><time>2026-05-02T14:33:59Z</time></trkpt><trkpt lat="42.872376505356485" lon="11.741026648966772"><ele>366.3333333333333</ele><time>2026-05-02T14:34:00Z</time></trkpt><trkpt lat="42.87222456240474" lon="11.740926370541336"><ele>365.6666666666667</ele><time>2026-05-02T14:34:01Z</time></trkpt><trkpt lat="42.87207660245654" lon="11.740849696975811"><ele>365.0</ele><time>2026-05-02T14:34:02Z</time></trkpt><trkpt lat="42.871925956589266" lon="11.740811526060634"><ele>365.0</ele><time>2026-05-02T14:34:03Z</time></trkpt><trkpt lat="42.87177774785103" lon="11.740821402043753"><ele>365.0</ele><time>2026-05-02T14:34:04Z</time></trkpt><trkpt lat="42.871630980065675" lon="11.74087506856131"><ele>365.0</ele><time>2026-05-02T14:34:05Z</time></trkpt><trkpt lat="42.87147556427579" lon="11.740952068639263"><ele>365.6666666666667</ele><time>2026-05-02T14:34:06Z</time></trkpt><trkpt lat="42.871314703072976" lon="11.741032176986078"><ele>366.3333333333333</ele><time>2026-05-02T14:34:07Z</time></trkpt><trkpt lat="42.87115716477596" lon="11.741101357772147"><ele>367.0</ele><time>2026-05-02T14:34:08Z</time></trkpt><trkpt lat="42.87101879136512" lon="11.741157316849574"><ele>368.0</ele><time>2026-05-02T14:34:09Z</time></trkpt><trkpt lat="42.870902126570655" lon="11.741204311552151"><ele>369.0</ele><time>2026-05-02T14:34:10Z</time></trkpt><trkpt lat="42.870809961120386" lon="11.741234736637939"><ele>370.0</ele><time>2026-05-02T14:34:11Z</time></trkpt><trkpt lat="42.87074224951894" lon="11.741248122138204"><ele>371.0</ele><time>2026-05-02T14:34:12Z</time></trkpt><trkpt lat="42.87066856775606" lon="11.741210206540083"><ele>372.0</ele><time>2026-05-02T14:34:14Z</time></trkpt><trkpt lat="42.87061750505779" lon="11.741098979579336"><ele>369.75</ele><time>2026-05-02T14:34:15Z</time></trkpt><trkpt lat="42.870565341494995" lon="11.740968607265158"><ele>367.5</ele><time>2026-05-02T14:34:16Z</time></trkpt><trkpt lat="42.87052170056299" lon="11.740801729624154"><ele>365.25</ele><time>2026-05-02T14:34:17Z</time></trkpt><trkpt lat="42.87048602039229" lon="11.740614033726809"><ele>363.0</ele><time>2026-05-02T14:34:18Z</time></trkpt><trkpt lat="42.87045564230953" lon="11.74042868833472"><ele>363.0</ele><time>2026-05-02T14:34:19Z</time></trkpt><trkpt lat="42.87042868907208" lon="11.740267793561827"><ele>363.0</ele><time>2026-05-02T14:34:20Z</time></trkpt><trkpt lat="42.8704225703878" lon="11.740118554647742"><ele>363.0</ele><time>2026-05-02T14:34:21Z</time></trkpt><trkpt lat="42.870439846015735" lon="11.739954918589186"><ele>363.0</ele><time>2026-05-02T14:34:22Z</time></trkpt><trkpt lat="42.87048056459884" lon="11.739803228619863"><ele>363.25</ele><time>2026-05-02T14:34:23Z</time></trkpt><trkpt lat="42.87055248378706" lon="11.739680727322861"><ele>363.5</ele><time>2026-05-02T14:34:24Z</time></trkpt><trkpt lat="42.87065612840065" lon="11.739572205682629"><ele>363.75</ele><time>2026-05-02T14:34:25Z</time></trkpt><trkpt lat="42.87079456697048" lon="11.739479617918386"><ele>364.0</ele><time>2026-05-02T14:34:26Z</time></trkpt><trkpt lat="42.870952138740726" lon="11.739406945604731"><ele>365.66666666666663</ele><time>2026-05-02T14:34:27Z</time></trkpt><trkpt lat="42.87111044391492" lon="11.739327065399491"><ele>367.3333333333333</ele><time>2026-05-02T14:34:28Z</time></trkpt><trkpt lat="42.87125400959899" lon="11.739213788064239"><ele>369.0</ele><time>2026-05-02T14:34:29Z</time></trkpt><trkpt lat="42.87138190588214" lon="11.739073231798264"><ele>369.0</ele><time>2026-05-02T14:34:30Z</time></trkpt><trkpt lat="42.87149900945659" lon="11.738907068301291"><ele>369.0</ele><time>2026-05-02T14:34:31Z</time></trkpt><trkpt lat="42.87160176489263" lon="11.738704330755192"><ele>369.0</ele><time>2026-05-02T14:34:32Z</time></trkpt><trkpt lat="42.87170022426067" lon="11.73846406514044"><ele>368.3333333333333</ele><time>2026-05-02T14:34:33Z</time></trkpt><trkpt lat="42.87178893902071" lon="11.73819854705263"><ele>367.66666666666663</ele><time>2026-05-02T14:34:34Z</time></trkpt><trkpt lat="42.87188355956102" lon="11.737920349624513"><ele>367.0</ele><time>2026-05-02T14:34:35Z</time></trkpt><trkpt lat="42.87198490194177" lon="11.737633212325143"><ele>367.0</ele><time>2026-05-02T14:34:36Z</time></trkpt><trkpt lat="42.87208426494176" lon="11.737348132946776"><ele>367.0</ele><time>2026-05-02T14:34:37Z</time></trkpt><trkpt lat="42.87218754465131" lon="11.737059767451557"><ele>367.5</ele><time>2026-05-02T14:34:38Z</time></trkpt><trkpt lat="42.87229321432433" lon="11.736777092291847"><ele>368.0</ele><time>2026-05-02T14:34:39Z</time></trkpt><trkpt lat="42.8723991942372" lon="11.736495135303404"><ele>368.0</ele><time>2026-05-02T14:34:40Z</time></trkpt><trkpt lat="42.87250610845751" lon="11.736215562774943"><ele>368.0</ele><time>2026-05-02T14:34:41Z</time></trkpt><trkpt lat="42.87261473610483" lon="11.7359406293609"><ele>368.5</ele><time>2026-05-02T14:34:42Z</time></trkpt><trkpt lat="42.8727334045909" lon="11.735675341989168"><ele>369.0</ele><time>2026-05-02T14:34:43Z</time></trkpt><trkpt lat="42.872859055960596" lon="11.735418234483035"><ele>369.5</ele><time>2026-05-02T14:34:44Z</time></trkpt><trkpt lat="42.872988900366785" lon="11.735157547333511"><ele>370.0</ele><time>2026-05-02T14:34:45Z</time></trkpt><trkpt lat="42.87312378010441" lon="11.73489871032594"><ele>370.0</ele><time>2026-05-02T14:34:46Z</time></trkpt><trkpt lat="42.873267967948046" lon="11.734648629618091"><ele>370.0</ele><time>2026-05-02T14:34:47Z</time></trkpt><trkpt lat="42.873421954117205" lon="11.734410003896496"><ele>373.0</ele><time>2026-05-02T14:34:48Z</time></trkpt><trkpt lat="42.87357848684946" lon="11.734176199010484"><ele>376.0</ele><time>2026-05-02T14:34:49Z</time></trkpt><trkpt lat="42.87374225569242" lon="11.733945774133145"><ele>376.0</ele><time>2026-05-02T14:34:50Z</time></trkpt><trkpt lat="42.87391072052859" lon="11.733718233617994"><ele>376.0</ele><time>2026-05-02T14:34:51Z</time></trkpt><trkpt lat="42.874082732867606" lon="11.733500352544564"><ele>376.5</ele><time>2026-05-02T14:34:52Z</time></trkpt><trkpt lat="42.87426642639441" lon="11.733292810102789"><ele>377.0</ele><time>2026-05-02T14:34:53Z</time></trkpt><trkpt lat="42.87445421587293" lon="11.733090923479987"><ele>377.0</ele><time>2026-05-02T14:34:54Z</time></trkpt><trkpt lat="42.874642559031976" lon="11.732893330084394"><ele>377.0</ele><time>2026-05-02T14:34:55Z</time></trkpt><trkpt lat="42.87483130145163" lon="11.732695531693286"><ele>377.0</ele><time>2026-05-02T14:34:56Z</time></trkpt><trkpt lat="42.87501715094323" lon="11.732497779802449"><ele>377.0</ele><time>2026-05-02T14:34:57Z</time></trkpt><trkpt lat="42.87520441274117" lon="11.732301530390137"><ele>378.5</ele><time>2026-05-02T14:34:58Z</time></trkpt><trkpt lat="42.87538736195127" lon="11.732107974816673"><ele>380.0</ele><time>2026-05-02T14:34:59Z</time></trkpt><trkpt lat="42.875568818128265" lon="11.731916471688557"><ele>381.5</ele><time>2026-05-02T14:35:00Z</time></trkpt><trkpt lat="42.875750354611014" lon="11.731725062084745"><ele>383.0</ele><time>2026-05-02T14:35:01Z</time></trkpt><trkpt lat="42.87592533530323" lon="11.731536628449586"><ele>382.5</ele><time>2026-05-02T14:35:02Z</time></trkpt><trkpt lat="42.876103087775554" lon="11.731343832857554"><ele>382.0</ele><time>2026-05-02T14:35:03Z</time></trkpt><trkpt lat="42.876281424443405" lon="11.731152904338382"><ele>385.0</ele><time>2026-05-02T14:35:04Z</time></trkpt><trkpt lat="42.876459863270505" lon="11.73096426891084"><ele>388.0</ele><time>2026-05-02T14:35:05Z</time></trkpt><trkpt lat="42.87663946544019" lon="11.730777795610306"><ele>387.6666666666667</ele><time>2026-05-02T14:35:06Z</time></trkpt><trkpt lat="42.87681569593218" lon="11.730588612578327"><ele>387.33333333333337</ele><time>2026-05-02T14:35:07Z</time></trkpt><trkpt lat="42.87699372225793" lon="11.730403348869357"><ele>387.0</ele><time>2026-05-02T14:35:08Z</time></trkpt><trkpt lat="42.87716944226611" lon="11.730215312612932"><ele>388.0</ele><time>2026-05-02T14:35:09Z</time></trkpt><trkpt lat="42.87734597909464" lon="11.730027424147515"><ele>389.0</ele><time>2026-05-02T14:35:10Z</time></trkpt><trkpt lat="42.87752589457172" lon="11.729837833790798"><ele>388.0</ele><time>2026-05-02T14:35:11Z</time></trkpt><trkpt lat="42.877700512898166" lon="11.729650237284165"><ele>387.0</ele><time>2026-05-02T14:35:12Z</time></trkpt><trkpt lat="42.87787474432288" lon="11.729468142795927"><ele>386.0</ele><time>2026-05-02T14:35:13Z</time></trkpt><trkpt lat="42.878053626864364" lon="11.729289092911753"><ele>386.0</ele><time>2026-05-02T14:35:14Z</time></trkpt><trkpt lat="42.87823001050943" lon="11.72911865013089"><ele>386.0</ele><time>2026-05-02T14:35:15Z</time></trkpt><trkpt lat="42.878406428876474" lon="11.728954096659649"><ele>386.0</ele><time>2026-05-02T14:35:16Z</time></trkpt><trkpt lat="42.878594286602805" lon="11.728797937023703"><ele>384.0</ele><time>2026-05-02T14:35:17Z</time></trkpt><trkpt lat="42.87879074633388" lon="11.728637160481359"><ele>382.0</ele><time>2026-05-02T14:35:18Z</time></trkpt><trkpt lat="42.878997619220314" lon="11.728485346494692"><ele>385.5</ele><time>2026-05-02T14:35:19Z</time></trkpt><trkpt lat="42.87921042182048" lon="11.728331704638238"><ele>389.0</ele><time>2026-05-02T14:35:20Z</time></trkpt><trkpt lat="42.87943022037548" lon="11.728184664284914"><ele>389.0</ele><time>2026-05-02T14:35:21Z</time></trkpt><trkpt lat="42.87965056609355" lon="11.72804438378923"><ele>389.0</ele><time>2026-05-02T14:35:22Z</time></trkpt><trkpt lat="42.87986603901038" lon="11.72791165055022"><ele>389.0</ele><time>2026-05-02T14:35:23Z</time></trkpt><trkpt lat="42.88006939191688" lon="11.727800448176266"><ele>389.0</ele><time>2026-05-02T14:35:24Z</time></trkpt><trkpt lat="42.880257058737236" lon="11.727708650491275"><ele>389.0</ele><time>2026-05-02T14:35:25Z</time></trkpt><trkpt lat="42.880429533186856" lon="11.727632667447011"><ele>392.0</ele><time>2026-05-02T14:35:26Z</time></trkpt><trkpt lat="42.88059280548266" lon="11.727563148690967"><ele>395.0</ele><time>2026-05-02T14:35:27Z</time></trkpt><trkpt lat="42.880750932793525" lon="11.727496109064349"><ele>398.0</ele><time>2026-05-02T14:35:28Z</time></trkpt><trkpt lat="42.88089436904986" lon="11.727431316139016"><ele>398.0</ele><time>2026-05-02T14:35:29Z</time></trkpt><trkpt lat="42.88102747806646" lon="11.727367289731532"><ele>398.0</ele><time>2026-05-02T14:35:30Z</time></trkpt><trkpt lat="42.88115970769231" lon="11.72730589636347"><ele>398.0</ele><time>2026-05-02T14:35:31Z</time></trkpt><trkpt lat="42.881288871378814" lon="11.727254536821674"><ele>398.0</ele><time>2026-05-02T14:35:32Z</time></trkpt><trkpt lat="42.88141059234003" lon="11.727206122047365"><ele>398.0</ele><time>2026-05-02T14:35:33Z</time></trkpt><trkpt lat="42.881518386317914" lon="11.727160248734082"><ele>398.0</ele><time>2026-05-02T14:35:34Z</time></trkpt><trkpt lat="42.8816093362793" lon="11.727122272833652"><ele>398.0</ele><time>2026-05-02T14:35:35Z</time></trkpt><trkpt lat="42.88168642041399" lon="11.727090009175319"><ele>398.0</ele><time>2026-05-02T14:35:36Z</time></trkpt><trkpt lat="42.88177260479428" lon="11.727052164705086"><ele>398.0</ele><time>2026-05-02T14:35:38Z</time></trkpt><trkpt lat="42.881875625401804" lon="11.727021031289972"><ele>400.0</ele><time>2026-05-02T14:35:51Z</time></trkpt><trkpt lat="42.88184515286728" lon="11.726795727660894"><ele>402.0</ele><time>2026-05-02T14:35:54Z</time></trkpt><trkpt lat="42.88171481364258" lon="11.72677210170897"><ele>404.0</ele><time>2026-05-02T14:35:56Z</time></trkpt><trkpt lat="42.88161873682819" lon="11.726809735826935"><ele>406.0</ele><time>2026-05-02T14:35:57Z</time></trkpt><trkpt lat="42.8815049351928" lon="11.726845217391496"><ele>406.25</ele><time>2026-05-02T14:35:58Z</time></trkpt><trkpt lat="42.881370622125154" lon="11.72686452764318"><ele>406.5</ele><time>2026-05-02T14:35:59Z</time></trkpt><trkpt lat="42.88124946614904" lon="11.72685562492986"><ele>406.75</ele><time>2026-05-02T14:36:00Z</time></trkpt><trkpt lat="42.88113727509362" lon="11.72682941797042"><ele>407.0</ele><time>2026-05-02T14:36:01Z</time></trkpt><trkpt lat="42.88105697050007" lon="11.726813285045196"><ele>407.0</ele><time>2026-05-02T14:36:02Z</time></trkpt><trkpt lat="42.88098886068321" lon="11.726724850262116"><ele>407.0</ele><time>2026-05-02T14:36:03Z</time></trkpt><trkpt lat="42.88095385720753" lon="11.726612279235926"><ele>407.0</ele><time>2026-05-02T14:36:04Z</time></trkpt><trkpt lat="42.88095951500099" lon="11.726499352531315"><ele>407.0</ele><time>2026-05-02T14:36:05Z</time></trkpt><trkpt lat="42.880982393878" lon="11.72634908940993"><ele>407.0</ele><time>2026-05-02T14:36:06Z</time></trkpt><trkpt lat="42.881026522265955" lon="11.726181346547271"><ele>410.5</ele><time>2026-05-02T14:36:07Z</time></trkpt><trkpt lat="42.881080546806636" lon="11.726001237327303"><ele>414.0</ele><time>2026-05-02T14:36:08Z</time></trkpt><trkpt lat="42.881148764725545" lon="11.72583838852522"><ele>417.5</ele><time>2026-05-02T14:36:09Z</time></trkpt><trkpt lat="42.88123720688215" lon="11.725713771617555"><ele>421.0</ele><time>2026-05-02T14:36:10Z</time></trkpt><trkpt lat="42.88137000317292" lon="11.725620920034423"><ele>421.0</ele><time>2026-05-02T14:36:11Z</time></trkpt><trkpt lat="42.88149833490301" lon="11.72553113753058"><ele>421.0</ele><time>2026-05-02T14:36:12Z</time></trkpt><trkpt lat="42.88164140156644" lon="11.725480578134544"><ele>421.0</ele><time>2026-05-02T14:36:13Z</time></trkpt><trkpt lat="42.88181002480981" lon="11.72542824654405"><ele>420.0</ele><time>2026-05-02T14:36:14Z</time></trkpt><trkpt lat="42.88199386420588" lon="11.725356088550242"><ele>419.0</ele><time>2026-05-02T14:36:15Z</time></trkpt><trkpt lat="42.8821925180811" lon="11.72530666863934"><ele>418.0</ele><time>2026-05-02T14:36:16Z</time></trkpt><trkpt lat="42.88239297054133" lon="11.725243944333137"><ele>423.6666666666667</ele><time>2026-05-02T14:36:17Z</time></trkpt><trkpt lat="42.882596050677684" lon="11.725186911641668"><ele>429.33333333333337</ele><time>2026-05-02T14:36:18Z</time></trkpt><trkpt lat="42.882789917113335" lon="11.725134218360292"><ele>435.0</ele><time>2026-05-02T14:36:19Z</time></trkpt><trkpt lat="42.882971494495756" lon="11.725075507939332"><ele>435.0</ele><time>2026-05-02T14:36:20Z</time></trkpt><trkpt lat="42.88313071170698" lon="11.725015413056033"><ele>435.0</ele><time>2026-05-02T14:36:21Z</time></trkpt><trkpt lat="42.883277562527844" lon="11.724950947962897"><ele>435.0</ele><time>2026-05-02T14:36:22Z</time></trkpt><trkpt lat="42.883409759858445" lon="11.72486236188606"><ele>432.75</ele><time>2026-05-02T14:36:23Z</time></trkpt><trkpt lat="42.88353627959284" lon="11.724774801430227"><ele>430.5</ele><time>2026-05-02T14:36:24Z</time></trkpt><trkpt lat="42.883652145248114" lon="11.724692471490998"><ele>428.25</ele><time>2026-05-02T14:36:25Z</time></trkpt><trkpt lat="42.88374038953354" lon="11.724617405245933"><ele>426.0</ele><time>2026-05-02T14:36:26Z</time></trkpt><trkpt lat="42.883810161414964" lon="11.724543406748438"><ele>426.0</ele><time>2026-05-02T14:36:27Z</time></trkpt><trkpt lat="42.88385374476883" lon="11.724459752301469"><ele>426.0</ele><time>2026-05-02T14:36:28Z</time></trkpt><trkpt lat="42.883864745107566" lon="11.724370552077042"><ele>426.0</ele><time>2026-05-02T14:36:29Z</time></trkpt><trkpt lat="42.883820494433614" lon="11.724289929367233"><ele>426.0</ele><time>2026-05-02T14:36:30Z</time></trkpt><trkpt lat="42.88376514839005" lon="11.72423775864401"><ele>426.0</ele><time>2026-05-02T14:36:31Z</time></trkpt><trkpt lat="42.883697490713544" lon="11.724192186002265"><ele>426.0</ele><time>2026-05-02T14:36:32Z</time></trkpt><trkpt lat="42.88356733342904" lon="11.724220644309046"><ele>435.0</ele><time>2026-05-02T14:36:33Z</time></trkpt><trkpt lat="42.883420110474766" lon="11.724226038680264"><ele>444.0</ele><time>2026-05-02T14:36:34Z</time></trkpt><trkpt lat="42.88324871242919" lon="11.72420561627838"><ele>453.0</ele><time>2026-05-02T14:36:35Z</time></trkpt><trkpt lat="42.8830625110374" lon="11.724151485139636"><ele>453.0</ele><time>2026-05-02T14:36:36Z</time></trkpt><trkpt lat="42.8828668083234" lon="11.72409470370419"><ele>453.0</ele><time>2026-05-02T14:36:37Z</time></trkpt><trkpt lat="42.8826737884226" lon="11.724046668220463"><ele>453.0</ele><time>2026-05-02T14:36:38Z</time></trkpt><trkpt lat="42.882504614612365" lon="11.724006640256995"><ele>454.0</ele><time>2026-05-02T14:36:39Z</time></trkpt><trkpt lat="42.88235739398754" lon="11.723969781347607"><ele>455.0</ele><time>2026-05-02T14:36:40Z</time></trkpt><trkpt lat="42.88222707274654" lon="11.723937804406562"><ele>456.0</ele><time>2026-05-02T14:36:41Z</time></trkpt><trkpt lat="42.88209428695474" lon="11.723900465892141"><ele>457.0</ele><time>2026-05-02T14:36:42Z</time></trkpt><trkpt lat="42.88194883922263" lon="11.723838325776256"><ele>457.0</ele><time>2026-05-02T14:36:43Z</time></trkpt><trkpt lat="42.881802605682665" lon="11.723742781741365"><ele>457.0</ele><time>2026-05-02T14:36:44Z</time></trkpt><trkpt lat="42.881657383071996" lon="11.72362962277759"><ele>457.0</ele><time>2026-05-02T14:36:45Z</time></trkpt><trkpt lat="42.88150661929872" lon="11.723512980524815"><ele>462.6666666666667</ele><time>2026-05-02T14:36:46Z</time></trkpt><trkpt lat="42.88134992577434" lon="11.723384955815035"><ele>468.33333333333337</ele><time>2026-05-02T14:36:47Z</time></trkpt><trkpt lat="42.88119571277401" lon="11.723237127883575"><ele>474.0</ele><time>2026-05-02T14:36:48Z</time></trkpt><trkpt lat="42.88104620144381" lon="11.723095039158125"><ele>472.0</ele><time>2026-05-02T14:36:49Z</time></trkpt><trkpt lat="42.88090082761857" lon="11.722954309622432"><ele>470.0</ele><time>2026-05-02T14:36:50Z</time></trkpt><trkpt lat="42.88075946240182" lon="11.722812864108567"><ele>468.0</ele><time>2026-05-02T14:36:51Z</time></trkpt><trkpt lat="42.880616795764524" lon="11.722668706000483"><ele>473.66666666666663</ele><time>2026-05-02T14:36:52Z</time></trkpt><trkpt lat="42.8804797406573" lon="11.722522418957382"><ele>479.3333333333333</ele><time>2026-05-02T14:36:53Z</time></trkpt><trkpt lat="42.880351270891865" lon="11.72238288831368"><ele>485.0</ele><time>2026-05-02T14:36:54Z</time></trkpt><trkpt lat="42.880232724967826" lon="11.722253198972863"><ele>485.0</ele><time>2026-05-02T14:36:55Z</time></trkpt><trkpt lat="42.88011632303253" lon="11.722146577868385"><ele>485.0</ele><time>2026-05-02T14:36:56Z</time></trkpt><trkpt lat="42.88000158108661" lon="11.722075107515419"><ele>485.0</ele><time>2026-05-02T14:36:57Z</time></trkpt><trkpt lat="42.87988367756669" lon="11.722053098110358"><ele>485.0</ele><time>2026-05-02T14:36:58Z</time></trkpt><trkpt lat="42.879749467061764" lon="11.722061687841054"><ele>483.66666666666663</ele><time>2026-05-02T14:36:59Z</time></trkpt><trkpt lat="42.8796021838091" lon="11.72210572614107"><ele>482.33333333333337</ele><time>2026-05-02T14:37:00Z</time></trkpt><trkpt lat="42.87944830661057" lon="11.722188449225898"><ele>481.0</ele><time>2026-05-02T14:37:01Z</time></trkpt><trkpt lat="42.87929926176319" lon="11.722302025626615"><ele>480.5</ele><time>2026-05-02T14:37:02Z</time></trkpt><trkpt lat="42.879174611070496" lon="11.722416793496167"><ele>480.0</ele><time>2026-05-02T14:37:03Z</time></trkpt><trkpt lat="42.87906680925673" lon="11.72253997282889"><ele>479.5</ele><time>2026-05-02T14:37:04Z</time></trkpt><trkpt lat="42.878969528461404" lon="11.722687920796467"><ele>479.0</ele><time>2026-05-02T14:37:05Z</time></trkpt><trkpt lat="42.878878225956136" lon="11.722869676458398"><ele>479.0</ele><time>2026-05-02T14:37:06Z</time></trkpt><trkpt lat="42.87879127185944" lon="11.723068908434673"><ele>479.0</ele><time>2026-05-02T14:37:07Z</time></trkpt><trkpt lat="42.8787176609064" lon="11.723243531643162"><ele>479.0</ele><time>2026-05-02T14:37:08Z</time></trkpt><trkpt lat="42.878649931949376" lon="11.723391264007438"><ele>479.0</ele><time>2026-05-02T14:37:09Z</time></trkpt><trkpt lat="42.87857168467804" lon="11.723525674133557"><ele>477.2</ele><time>2026-05-02T14:37:10Z</time></trkpt><trkpt lat="42.87848547219367" lon="11.723623734113131"><ele>475.4</ele><time>2026-05-02T14:37:11Z</time></trkpt><trkpt lat="42.878397622544185" lon="11.723682453087285"><ele>473.6</ele><time>2026-05-02T14:37:12Z</time></trkpt><trkpt lat="42.87831728244181" lon="11.723698134939276"><ele>471.8</ele><time>2026-05-02T14:37:13Z</time></trkpt><trkpt lat="42.87825478972871" lon="11.723674915621617"><ele>470.0</ele><time>2026-05-02T14:37:14Z</time></trkpt><trkpt lat="42.87819139786338" lon="11.723523272085634"><ele>475.4</ele><time>2026-05-02T14:37:16Z</time></trkpt><trkpt lat="42.87820518477094" lon="11.723415206295304"><ele>480.8</ele><time>2026-05-02T14:37:17Z</time></trkpt><trkpt lat="42.87825585960907" lon="11.72328729125804"><ele>486.20000000000005</ele><time>2026-05-02T14:37:18Z</time></trkpt><trkpt lat="42.87831283324512" lon="11.723141035158305"><ele>491.6</ele><time>2026-05-02T14:37:19Z</time></trkpt><trkpt lat="42.878344203322015" lon="11.722973694951406"><ele>497.0</ele><time>2026-05-02T14:37:20Z</time></trkpt><trkpt lat="42.87835936897191" lon="11.722802440728312"><ele>495.0</ele><time>2026-05-02T14:37:21Z</time></trkpt><trkpt lat="42.87838257522772" lon="11.722634911340766"><ele>493.0</ele><time>2026-05-02T14:37:22Z</time></trkpt><trkpt lat="42.878418542468395" lon="11.722473655832825"><ele>491.0</ele><time>2026-05-02T14:37:23Z</time></trkpt><trkpt lat="42.87846915989893" lon="11.72230442453835"><ele>489.0</ele><time>2026-05-02T14:37:24Z</time></trkpt><trkpt lat="42.87854694427119" lon="11.722127180108364"><ele>489.0</ele><time>2026-05-02T14:37:25Z</time></trkpt><trkpt lat="42.87863317776176" lon="11.721910821052331"><ele>489.0</ele><time>2026-05-02T14:37:26Z</time></trkpt><trkpt lat="42.87873203755084" lon="11.721660601070013"><ele>489.0</ele><time>2026-05-02T14:37:27Z</time></trkpt><trkpt lat="42.878814241696325" lon="11.72140275740384"><ele>493.33333333333337</ele><time>2026-05-02T14:37:28Z</time></trkpt><trkpt lat="42.87890451548345" lon="11.721180478474663"><ele>497.6666666666667</ele><time>2026-05-02T14:37:29Z</time></trkpt><trkpt lat="42.87898157369621" lon="11.720979131581313"><ele>502.0</ele><time>2026-05-02T14:37:30Z</time></trkpt><trkpt lat="42.87904829573576" lon="11.720801305385937"><ele>504.75</ele><time>2026-05-02T14:37:31Z</time></trkpt><trkpt lat="42.87911947591542" lon="11.720641026352189"><ele>507.5</ele><time>2026-05-02T14:37:32Z</time></trkpt><trkpt lat="42.879212189154615" lon="11.720513553789278"><ele>510.25</ele><time>2026-05-02T14:37:33Z</time></trkpt><trkpt lat="42.87934048385466" lon="11.720403744133584"><ele>513.0</ele><time>2026-05-02T14:37:34Z</time></trkpt><trkpt lat="42.87948659964469" lon="11.720352234234852"><ele>513.0</ele><time>2026-05-02T14:37:35Z</time></trkpt><trkpt lat="42.879622878838894" lon="11.720338510687222"><ele>513.0</ele><time>2026-05-02T14:37:36Z</time></trkpt><trkpt lat="42.87977839314871" lon="11.7203503733293"><ele>513.0</ele><time>2026-05-02T14:37:37Z</time></trkpt><trkpt lat="42.8799555243377" lon="11.720370639163093"><ele>515.0</ele><time>2026-05-02T14:37:38Z</time></trkpt><trkpt lat="42.88014074250377" lon="11.720384383578708"><ele>517.0</ele><time>2026-05-02T14:37:39Z</time></trkpt><trkpt lat="42.880321935440776" lon="11.720399121811734"><ele>519.0</ele><time>2026-05-02T14:37:40Z</time></trkpt><trkpt lat="42.880496753278756" lon="11.720460408630721"><ele>519.0</ele><time>2026-05-02T14:37:41Z</time></trkpt><trkpt lat="42.88067678780875" lon="11.720535678977381"><ele>519.0</ele><time>2026-05-02T14:37:42Z</time></trkpt><trkpt lat="42.8808623253948" lon="11.720547859186368"><ele>519.0</ele><time>2026-05-02T14:37:43Z</time></trkpt><trkpt lat="42.88103497393838" lon="11.720564060427112"><ele>523.0</ele><time>2026-05-02T14:37:44Z</time></trkpt><trkpt lat="42.881194192552634" lon="11.720586660429706"><ele>527.0</ele><time>2026-05-02T14:37:45Z</time></trkpt><trkpt lat="42.88134603597453" lon="11.720688679434337"><ele>531.0</ele><time>2026-05-02T14:37:46Z</time></trkpt><trkpt lat="42.88151178921738" lon="11.720768321373445"><ele>531.0</ele><time>2026-05-02T14:37:47Z</time></trkpt><trkpt lat="42.88167981538435" lon="11.720861444589273"><ele>531.0</ele><time>2026-05-02T14:37:48Z</time></trkpt><trkpt lat="42.881858850387616" lon="11.720918580911126"><ele>531.0</ele><time>2026-05-02T14:37:49Z</time></trkpt><trkpt lat="42.882026207713565" lon="11.720953148561462"><ele>531.0</ele><time>2026-05-02T14:37:50Z</time></trkpt><trkpt lat="42.88216824272822" lon="11.720982805936716"><ele>531.0</ele><time>2026-05-02T14:37:51Z</time></trkpt><trkpt lat="42.88229588797101" lon="11.721004843020076"><ele>531.0</ele><time>2026-05-02T14:37:52Z</time></trkpt><trkpt lat="42.88239958389796" lon="11.721003012383163"><ele>531.0</ele><time>2026-05-02T14:37:53Z</time></trkpt><trkpt lat="42.88248515338825" lon="11.720971616587637"><ele>531.0</ele><time>2026-05-02T14:37:54Z</time></trkpt><trkpt lat="42.88254104770989" lon="11.720905359915603"><ele>531.0</ele><time>2026-05-02T14:37:55Z</time></trkpt><trkpt lat="42.88257518378217" lon="11.720795526788761"><ele>531.0</ele><time>2026-05-02T14:37:56Z</time></trkpt><trkpt lat="42.88257938621815" lon="11.720663912982012"><ele>531.0</ele><time>2026-05-02T14:37:57Z</time></trkpt><trkpt lat="42.88254105888494" lon="11.720540869562926"><ele>531.0</ele><time>2026-05-02T14:37:58Z</time></trkpt><trkpt lat="42.882466633805905" lon="11.72042017414367"><ele>531.0</ele><time>2026-05-02T14:37:59Z</time></trkpt><trkpt lat="42.882358503991576" lon="11.720277391280904"><ele>531.0</ele><time>2026-05-02T14:38:00Z</time></trkpt><trkpt lat="42.88222842181018" lon="11.720108107928077"><ele>531.0</ele><time>2026-05-02T14:38:01Z</time></trkpt><trkpt lat="42.882086695806976" lon="11.719916884579543"><ele>530.3333333333334</ele><time>2026-05-02T14:38:02Z</time></trkpt><trkpt lat="42.88193166179035" lon="11.719721874510567"><ele>529.6666666666667</ele><time>2026-05-02T14:38:03Z</time></trkpt><trkpt lat="42.88177492390747" lon="11.719507301010019"><ele>529.0</ele><time>2026-05-02T14:38:04Z</time></trkpt><trkpt lat="42.88163642032976" lon="11.719271299562136"><ele>532.3333333333334</ele><time>2026-05-02T14:38:05Z</time></trkpt><trkpt lat="42.88151025035462" lon="11.719015265715882"><ele>535.6666666666666</ele><time>2026-05-02T14:38:06Z</time></trkpt><trkpt lat="42.8813906787283" lon="11.718765832647538"><ele>539.0</ele><time>2026-05-02T14:38:07Z</time></trkpt><trkpt lat="42.881276673748296" lon="11.718548397829235"><ele>539.0</ele><time>2026-05-02T14:38:08Z</time></trkpt><trkpt lat="42.881156667034226" lon="11.718353359650997"><ele>539.0</ele><time>2026-05-02T14:38:09Z</time></trkpt><trkpt lat="42.881026080907645" lon="11.718193632883116"><ele>539.0</ele><time>2026-05-02T14:38:10Z</time></trkpt><trkpt lat="42.88087683471122" lon="11.718048429765552"><ele>543.0</ele><time>2026-05-02T14:38:11Z</time></trkpt><trkpt lat="42.880731151208074" lon="11.717897372733814"><ele>547.0</ele><time>2026-05-02T14:38:12Z</time></trkpt><trkpt lat="42.88062066830781" lon="11.71772720484936"><ele>551.0</ele><time>2026-05-02T14:38:13Z</time></trkpt><trkpt lat="42.88054074989669" lon="11.717531439834358"><ele>551.0</ele><time>2026-05-02T14:38:14Z</time></trkpt><trkpt lat="42.880462970805226" lon="11.717342914105325"><ele>551.0</ele><time>2026-05-02T14:38:15Z</time></trkpt><trkpt lat="42.88037460155334" lon="11.717189070764702"><ele>551.0</ele><time>2026-05-02T14:38:16Z</time></trkpt><trkpt lat="42.88025484283954" lon="11.71705655111503"><ele>551.0</ele><time>2026-05-02T14:38:17Z</time></trkpt><trkpt lat="42.88010313421223" lon="11.716929273896756"><ele>551.0</ele><time>2026-05-02T14:38:18Z</time></trkpt><trkpt lat="42.87994059510461" lon="11.7167796124329"><ele>551.0</ele><time>2026-05-02T14:38:19Z</time></trkpt><trkpt lat="42.87979283044234" lon="11.716602115211023"><ele>554.3333333333333</ele><time>2026-05-02T14:38:20Z</time></trkpt><trkpt lat="42.87965041204958" lon="11.716423524501451"><ele>557.6666666666666</ele><time>2026-05-02T14:38:21Z</time></trkpt><trkpt lat="42.879515909300885" lon="11.71626601237419"><ele>561.0</ele><time>2026-05-02T14:38:22Z</time></trkpt><trkpt lat="42.87938806323497" lon="11.716127377423621"><ele>564.3333333333334</ele><time>2026-05-02T14:38:23Z</time></trkpt><trkpt lat="42.87927008311152" lon="11.716001561357176"><ele>567.6666666666667</ele><time>2026-05-02T14:38:24Z</time></trkpt><trkpt lat="42.87916703913468" lon="11.715851397231487"><ele>571.0</ele><time>2026-05-02T14:38:25Z</time></trkpt><trkpt lat="42.87907202570498" lon="11.715663617512206"><ele>571.0</ele><time>2026-05-02T14:38:26Z</time></trkpt><trkpt lat="42.87899728479403" lon="11.715455854911937"><ele>571.0</ele><time>2026-05-02T14:38:27Z</time></trkpt><trkpt lat="42.87894155055562" lon="11.715262494653146"><ele>571.0</ele><time>2026-05-02T14:38:28Z</time></trkpt><trkpt lat="42.8789138137046" lon="11.715090945529704"><ele>570.5</ele><time>2026-05-02T14:38:29Z</time></trkpt><trkpt lat="42.878910835033054" lon="11.714941320331043"><ele>570.0</ele><time>2026-05-02T14:38:30Z</time></trkpt><trkpt lat="42.87893796274148" lon="11.714792493997743"><ele>569.5</ele><time>2026-05-02T14:38:31Z</time></trkpt><trkpt lat="42.87900019104485" lon="11.71463983134138"><ele>569.0</ele><time>2026-05-02T14:38:32Z</time></trkpt><trkpt lat="42.879064786111655" lon="11.71448461565327"><ele>570.25</ele><time>2026-05-02T14:38:33Z</time></trkpt><trkpt lat="42.87910562908104" lon="11.714326627848612"><ele>571.5</ele><time>2026-05-02T14:38:34Z</time></trkpt><trkpt lat="42.87911477808061" lon="11.714148090281595"><ele>572.75</ele><time>2026-05-02T14:38:35Z</time></trkpt><trkpt lat="42.87908981154483" lon="11.713960897253036"><ele>574.0</ele><time>2026-05-02T14:38:36Z</time></trkpt><trkpt lat="42.87907296611458" lon="11.71380451164616"><ele>574.0</ele><time>2026-05-02T14:38:37Z</time></trkpt><trkpt lat="42.879081892979194" lon="11.713670274663734"><ele>574.0</ele><time>2026-05-02T14:38:38Z</time></trkpt><trkpt lat="42.87911931703301" lon="11.713557231358314"><ele>574.0</ele><time>2026-05-02T14:38:39Z</time></trkpt><trkpt lat="42.87920929387111" lon="11.713464435739994"><ele>574.0</ele><time>2026-05-02T14:38:40Z</time></trkpt><trkpt lat="42.87931114589458" lon="11.713371815905646"><ele>574.0</ele><time>2026-05-02T14:38:41Z</time></trkpt><trkpt lat="42.87940080956064" lon="11.713270794384137"><ele>571.5</ele><time>2026-05-02T14:38:42Z</time></trkpt><trkpt lat="42.87947170115795" lon="11.713164334075554"><ele>569.0</ele><time>2026-05-02T14:38:43Z</time></trkpt><trkpt lat="42.879522752888946" lon="11.713037891382102"><ele>566.5</ele><time>2026-05-02T14:38:44Z</time></trkpt><trkpt lat="42.87953473468302" lon="11.712886274798045"><ele>564.0</ele><time>2026-05-02T14:38:45Z</time></trkpt><trkpt lat="42.87951613821175" lon="11.712704950984769"><ele>564.0</ele><time>2026-05-02T14:38:46Z</time></trkpt><trkpt lat="42.879484986900955" lon="11.712502149800361"><ele>564.0</ele><time>2026-05-02T14:38:47Z</time></trkpt><trkpt lat="42.879472684996294" lon="11.71228625081008"><ele>564.0</ele><time>2026-05-02T14:38:48Z</time></trkpt><trkpt lat="42.87948561374964" lon="11.71208031529287"><ele>565.3333333333334</ele><time>2026-05-02T14:38:49Z</time></trkpt><trkpt lat="42.87947872402913" lon="11.711874105894841"><ele>566.6666666666667</ele><time>2026-05-02T14:38:50Z</time></trkpt><trkpt lat="42.87942897639239" lon="11.711669513317695"><ele>568.0</ele><time>2026-05-02T14:38:51Z</time></trkpt><trkpt lat="42.87935097752598" lon="11.711454396058956"><ele>575.6666666666667</ele><time>2026-05-02T14:38:52Z</time></trkpt><trkpt lat="42.87925770427527" lon="11.71123461187297"><ele>583.3333333333334</ele><time>2026-05-02T14:38:53Z</time></trkpt><trkpt lat="42.8791568901285" lon="11.71102386730648"><ele>591.0</ele><time>2026-05-02T14:38:54Z</time></trkpt><trkpt lat="42.87905392835704" lon="11.710827729024851"><ele>591.0</ele><time>2026-05-02T14:38:55Z</time></trkpt><trkpt lat="42.878963605660104" lon="11.710647427192077"><ele>591.0</ele><time>2026-05-02T14:38:56Z</time></trkpt><trkpt lat="42.87889289557575" lon="11.710472478180918"><ele>591.0</ele><time>2026-05-02T14:38:57Z</time></trkpt><trkpt lat="42.878845894798815" lon="11.710298147072171"><ele>591.0</ele><time>2026-05-02T14:38:58Z</time></trkpt><trkpt lat="42.87882600497437" lon="11.710126899240642"><ele>591.0</ele><time>2026-05-02T14:38:59Z</time></trkpt><trkpt lat="42.878844642899885" lon="11.709939563487252"><ele>591.0</ele><time>2026-05-02T14:39:00Z</time></trkpt><trkpt lat="42.878896112963865" lon="11.709736231372881"><ele>591.0</ele><time>2026-05-02T14:39:01Z</time></trkpt><trkpt lat="42.878927499270176" lon="11.70951209281003"><ele>592.6666666666666</ele><time>2026-05-02T14:39:02Z</time></trkpt><trkpt lat="42.87893166887641" lon="11.709267572978035"><ele>594.3333333333333</ele><time>2026-05-02T14:39:03Z</time></trkpt><trkpt lat="42.8789464306629" lon="11.709016940985826"><ele>596.0</ele><time>2026-05-02T14:39:04Z</time></trkpt><trkpt lat="42.878973211210386" lon="11.708777347260671"><ele>599.0</ele><time>2026-05-02T14:39:05Z</time></trkpt><trkpt lat="42.87901215699076" lon="11.708558981947128"><ele>602.0</ele><time>2026-05-02T14:39:06Z</time></trkpt><trkpt lat="42.87906651635366" lon="11.70834147745874"><ele>605.0</ele><time>2026-05-02T14:39:07Z</time></trkpt><trkpt lat="42.87913229531304" lon="11.708131061203783"><ele>605.0</ele><time>2026-05-02T14:39:08Z</time></trkpt><trkpt lat="42.87920415759748" lon="11.707934210448652"><ele>605.0</ele><time>2026-05-02T14:39:09Z</time></trkpt><trkpt lat="42.879255346845525" lon="11.707734745492795"><ele>605.0</ele><time>2026-05-02T14:39:10Z</time></trkpt><trkpt lat="42.87931692524508" lon="11.707550364877395"><ele>605.0</ele><time>2026-05-02T14:39:11Z</time></trkpt><trkpt lat="42.87936686872693" lon="11.707331248799093"><ele>605.0</ele><time>2026-05-02T14:39:12Z</time></trkpt><trkpt lat="42.87943902165507" lon="11.707096266312432"><ele>605.0</ele><time>2026-05-02T14:39:13Z</time></trkpt><trkpt lat="42.879540222302495" lon="11.706850345632057"><ele>606.6666666666666</ele><time>2026-05-02T14:39:14Z</time></trkpt><trkpt lat="42.87965438590684" lon="11.70659498517974"><ele>608.3333333333334</ele><time>2026-05-02T14:39:15Z</time></trkpt><trkpt lat="42.879773614875766" lon="11.706346893968893"><ele>610.0</ele><time>2026-05-02T14:39:16Z</time></trkpt><trkpt lat="42.87988933300814" lon="11.706085685080948"><ele>608.6666666666667</ele><time>2026-05-02T14:39:17Z</time></trkpt><trkpt lat="42.88000186659349" lon="11.705821924129058"><ele>607.3333333333334</ele><time>2026-05-02T14:39:18Z</time></trkpt><trkpt lat="42.880103420514196" lon="11.705594541120426"><ele>606.0</ele><time>2026-05-02T14:39:19Z</time></trkpt><trkpt lat="42.88019477880042" lon="11.705386245820879"><ele>609.0</ele><time>2026-05-02T14:39:20Z</time></trkpt><trkpt lat="42.88028091488208" lon="11.705196082546314"><ele>612.0</ele><time>2026-05-02T14:39:21Z</time></trkpt><trkpt lat="42.8803694152774" lon="11.705000076245934"><ele>615.0</ele><time>2026-05-02T14:39:22Z</time></trkpt><trkpt lat="42.880467327697126" lon="11.70479988598056"><ele>615.0</ele><time>2026-05-02T14:39:23Z</time></trkpt><trkpt lat="42.88056554956959" lon="11.70458828938429"><ele>615.0</ele><time>2026-05-02T14:39:24Z</time></trkpt><trkpt lat="42.88066580675175" lon="11.704358886205133"><ele>615.0</ele><time>2026-05-02T14:39:25Z</time></trkpt><trkpt lat="42.88076935399356" lon="11.704136844423436"><ele>614.6666666666666</ele><time>2026-05-02T14:39:26Z</time></trkpt><trkpt lat="42.880865759302516" lon="11.703933158967535"><ele>614.3333333333333</ele><time>2026-05-02T14:39:27Z</time></trkpt><trkpt lat="42.88094699374493" lon="11.703743485413225"><ele>614.0</ele><time>2026-05-02T14:39:28Z</time></trkpt><trkpt lat="42.881010506811805" lon="11.703545876768638"><ele>611.0</ele><time>2026-05-02T14:39:29Z</time></trkpt><trkpt lat="42.88104667581567" lon="11.703313003693047"><ele>608.0</ele><time>2026-05-02T14:39:30Z</time></trkpt><trkpt lat="42.88106364768715" lon="11.703069317585044"><ele>605.0</ele><time>2026-05-02T14:39:31Z</time></trkpt><trkpt lat="42.88108346342187" lon="11.702843168338042"><ele>608.0</ele><time>2026-05-02T14:39:32Z</time></trkpt><trkpt lat="42.881107951394405" lon="11.702632393838407"><ele>611.0</ele><time>2026-05-02T14:39:33Z</time></trkpt><trkpt lat="42.88113056864677" lon="11.702421400733247"><ele>614.0</ele><time>2026-05-02T14:39:34Z</time></trkpt><trkpt lat="42.88114987208221" lon="11.702190521716675"><ele>614.0</ele><time>2026-05-02T14:39:35Z</time></trkpt><trkpt lat="42.8811666514532" lon="11.701941854067917"><ele>614.0</ele><time>2026-05-02T14:39:36Z</time></trkpt><trkpt lat="42.88117807134621" lon="11.701679479633706"><ele>614.0</ele><time>2026-05-02T14:39:37Z</time></trkpt><trkpt lat="42.881181005070644" lon="11.701412605907816"><ele>614.0</ele><time>2026-05-02T14:39:38Z</time></trkpt><trkpt lat="42.88118000058771" lon="11.701160897953342"><ele>614.0</ele><time>2026-05-02T14:39:39Z</time></trkpt><trkpt lat="42.88117721846778" lon="11.700927950640006"><ele>614.0</ele><time>2026-05-02T14:39:40Z</time></trkpt><trkpt lat="42.881174313920226" lon="11.700710899180592"><ele>614.0</ele><time>2026-05-02T14:39:41Z</time></trkpt><trkpt lat="42.88117430581925" lon="11.700509030440521"><ele>614.0</ele><time>2026-05-02T14:39:42Z</time></trkpt><trkpt lat="42.88117517289302" lon="11.700315466005032"><ele>614.0</ele><time>2026-05-02T14:39:43Z</time></trkpt><trkpt lat="42.88117255269533" lon="11.700114824271303"><ele>614.0</ele><time>2026-05-02T14:39:44Z</time></trkpt><trkpt lat="42.88116272234265" lon="11.69989938302579"><ele>612.0</ele><time>2026-05-02T14:39:45Z</time></trkpt><trkpt lat="42.88113204615128" lon="11.699682196166744"><ele>610.0</ele><time>2026-05-02T14:39:46Z</time></trkpt><trkpt lat="42.88108901156024" lon="11.699461700797677"><ele>608.0</ele><time>2026-05-02T14:39:47Z</time></trkpt><trkpt lat="42.881035251280714" lon="11.699242489104542"><ele>606.25</ele><time>2026-05-02T14:39:48Z</time></trkpt><trkpt lat="42.88098567491135" lon="11.699033685854683"><ele>604.5</ele><time>2026-05-02T14:39:49Z</time></trkpt><trkpt lat="42.880943430455204" lon="11.69883835327117"><ele>602.75</ele><time>2026-05-02T14:39:50Z</time></trkpt><trkpt lat="42.880907657411676" lon="11.698655011054234"><ele>601.0</ele><time>2026-05-02T14:39:51Z</time></trkpt><trkpt lat="42.88087225400668" lon="11.698477740082291"><ele>604.75</ele><time>2026-05-02T14:39:52Z</time></trkpt><trkpt lat="42.88083835307853" lon="11.698308936022588"><ele>608.5</ele><time>2026-05-02T14:39:53Z</time></trkpt><trkpt lat="42.880806187291164" lon="11.698145052068032"><ele>612.25</ele><time>2026-05-02T14:39:54Z</time></trkpt><trkpt lat="42.880776742446706" lon="11.697995948274816"><ele>616.0</ele><time>2026-05-02T14:39:55Z</time></trkpt><trkpt lat="42.880733989764494" lon="11.697861325458929"><ele>615.2</ele><time>2026-05-02T14:39:56Z</time></trkpt><trkpt lat="42.88067657584599" lon="11.697746219677462"><ele>614.4000000000001</ele><time>2026-05-02T14:39:57Z</time></trkpt><trkpt lat="42.88060421647669" lon="11.697655402726427"><ele>613.6</ele><time>2026-05-02T14:39:58Z</time></trkpt><trkpt lat="42.880516628649346" lon="11.697604697141685"><ele>612.8000000000001</ele><time>2026-05-02T14:39:59Z</time></trkpt><trkpt lat="42.880418586150036" lon="11.697598123211138"><ele>612.0</ele><time>2026-05-02T14:40:00Z</time></trkpt><trkpt lat="42.88031987090066" lon="11.697645110740524"><ele>612.0</ele><time>2026-05-02T14:40:01Z</time></trkpt><trkpt lat="42.88021002732956" lon="11.697731348049638"><ele>612.0</ele><time>2026-05-02T14:40:02Z</time></trkpt><trkpt lat="42.88008363937993" lon="11.69783315038866"><ele>612.0</ele><time>2026-05-02T14:40:03Z</time></trkpt><trkpt lat="42.8799531110236" lon="11.697925976570371"><ele>612.0</ele><time>2026-05-02T14:40:04Z</time></trkpt><trkpt lat="42.87983095736089" lon="11.697990375786837"><ele>613.5</ele><time>2026-05-02T14:40:05Z</time></trkpt><trkpt lat="42.879697853267864" lon="11.697991661711027"><ele>615.0</ele><time>2026-05-02T14:40:06Z</time></trkpt><trkpt lat="42.87955105015581" lon="11.698002638784788"><ele>616.5</ele><time>2026-05-02T14:40:07Z</time></trkpt><trkpt lat="42.879384669103196" lon="11.697975306648257"><ele>618.0</ele><time>2026-05-02T14:40:08Z</time></trkpt><trkpt lat="42.87921195869831" lon="11.697947138005267"><ele>619.25</ele><time>2026-05-02T14:40:09Z</time></trkpt><trkpt lat="42.87906273636438" lon="11.697922338393427"><ele>620.5</ele><time>2026-05-02T14:40:10Z</time></trkpt><trkpt lat="42.87891782466858" lon="11.697881983797407"><ele>621.75</ele><time>2026-05-02T14:40:11Z</time></trkpt><trkpt lat="42.87878719886185" lon="11.697829906922218"><ele>623.0</ele><time>2026-05-02T14:40:12Z</time></trkpt><trkpt lat="42.87869596810147" lon="11.697759566136698"><ele>625.3333333333333</ele><time>2026-05-02T14:40:13Z</time></trkpt><trkpt lat="42.87865093729584" lon="11.697682600875854"><ele>627.6666666666666</ele><time>2026-05-02T14:40:14Z</time></trkpt><trkpt lat="42.878642188682484" lon="11.697592274028976"><ele>630.0</ele><time>2026-05-02T14:40:15Z</time></trkpt><trkpt lat="42.87865502047962" lon="11.69748020663135"><ele>632.3333333333334</ele><time>2026-05-02T14:40:16Z</time></trkpt><trkpt lat="42.87869816841124" lon="11.697350592070615"><ele>634.6666666666667</ele><time>2026-05-02T14:40:17Z</time></trkpt><trkpt lat="42.87878624812638" lon="11.697237830310547"><ele>637.0</ele><time>2026-05-02T14:40:18Z</time></trkpt><trkpt lat="42.8788705504337" lon="11.697101037118339"><ele>637.0</ele><time>2026-05-02T14:40:19Z</time></trkpt><trkpt lat="42.87895776086272" lon="11.69698087914539"><ele>637.0</ele><time>2026-05-02T14:40:20Z</time></trkpt><trkpt lat="42.87901396920997" lon="11.696889646312231"><ele>637.0</ele><time>2026-05-02T14:40:21Z</time></trkpt><trkpt lat="42.87905358345938" lon="11.696811891862847"><ele>637.0</ele><time>2026-05-02T14:40:22Z</time></trkpt><trkpt lat="42.87908324383045" lon="11.696723752265907"><ele>637.0</ele><time>2026-05-02T14:40:23Z</time></trkpt><trkpt lat="42.87909272807871" lon="11.696634414464148"><ele>637.0</ele><time>2026-05-02T14:40:24Z</time></trkpt><trkpt lat="42.879063855120634" lon="11.69654331063238"><ele>639.75</ele><time>2026-05-02T14:40:25Z</time></trkpt><trkpt lat="42.87899709111553" lon="11.696471777989512"><ele>642.5</ele><time>2026-05-02T14:40:26Z</time></trkpt><trkpt lat="42.87889470385762" lon="11.696421988453526"><ele>645.25</ele><time>2026-05-02T14:40:27Z</time></trkpt><trkpt lat="42.87875994362974" lon="11.696379965279622"><ele>648.0</ele><time>2026-05-02T14:40:28Z</time></trkpt><trkpt lat="42.87861483838443" lon="11.696330637554315"><ele>648.0</ele><time>2026-05-02T14:40:29Z</time></trkpt><trkpt lat="42.878501570342905" lon="11.696280803938683"><ele>648.0</ele><time>2026-05-02T14:40:30Z</time></trkpt><trkpt lat="42.878417372692965" lon="11.696231893108447"><ele>648.0</ele><time>2026-05-02T14:40:31Z</time></trkpt><trkpt lat="42.87835898445474" lon="11.696173476469673"><ele>648.0</ele><time>2026-05-02T14:40:32Z</time></trkpt><trkpt lat="42.87832552208516" lon="11.696088135972762"><ele>648.0</ele><time>2026-05-02T14:40:33Z</time></trkpt><trkpt lat="42.87833144100474" lon="11.695989485651541"><ele>648.0</ele><time>2026-05-02T14:40:34Z</time></trkpt><trkpt lat="42.878473987992514" lon="11.695886159430339"><ele>649.0</ele><time>2026-05-02T14:40:36Z</time></trkpt><trkpt lat="42.87856636120131" lon="11.695807554876353"><ele>650.0</ele><time>2026-05-02T14:40:37Z</time></trkpt><trkpt lat="42.87863200977901" lon="11.69573729605131"><ele>651.0</ele><time>2026-05-02T14:40:38Z</time></trkpt><trkpt lat="42.87866565001291" lon="11.695633950770997"><ele>652.0</ele><time>2026-05-02T14:40:39Z</time></trkpt><trkpt lat="42.87866654319666" lon="11.695501073498209"><ele>653.0</ele><time>2026-05-02T14:40:40Z</time></trkpt><trkpt lat="42.878637241790194" lon="11.695375698040097"><ele>653.0</ele><time>2026-05-02T14:40:41Z</time></trkpt><trkpt lat="42.878576476597715" lon="11.695268650243243"><ele>653.0</ele><time>2026-05-02T14:40:42Z</time></trkpt><trkpt lat="42.87849156183008" lon="11.69518659694565"><ele>653.0</ele><time>2026-05-02T14:40:43Z</time></trkpt><trkpt lat="42.87839452332876" lon="11.695150611238986"><ele>653.0</ele><time>2026-05-02T14:40:44Z</time></trkpt><trkpt lat="42.87827700854506" lon="11.695150923549905"><ele>653.0</ele><time>2026-05-02T14:40:45Z</time></trkpt><trkpt lat="42.87813818109316" lon="11.695174472336772"><ele>656.2</ele><time>2026-05-02T14:40:46Z</time></trkpt><trkpt lat="42.87800025121934" lon="11.6952060260707"><ele>659.4</ele><time>2026-05-02T14:40:47Z</time></trkpt><trkpt lat="42.87789251238579" lon="11.695226312646005"><ele>662.6</ele><time>2026-05-02T14:40:48Z</time></trkpt><trkpt lat="42.87780810716842" lon="11.695236791831762"><ele>665.8000000000001</ele><time>2026-05-02T14:40:49Z</time></trkpt><trkpt lat="42.877732740945596" lon="11.695230071606716"><ele>669.0</ele><time>2026-05-02T14:40:50Z</time></trkpt><trkpt lat="42.877672424739174" lon="11.695201986030028"><ele>669.0</ele><time>2026-05-02T14:40:51Z</time></trkpt><trkpt lat="42.877635328077375" lon="11.695026709077027"><ele>669.0</ele><time>2026-05-02T14:40:53Z</time></trkpt><trkpt lat="42.87767972758486" lon="11.694927028224495"><ele>669.0</ele><time>2026-05-02T14:40:54Z</time></trkpt><trkpt lat="42.877754566176144" lon="11.694827884519144"><ele>669.0</ele><time>2026-05-02T14:40:55Z</time></trkpt><trkpt lat="42.877828176414084" lon="11.694710099940249"><ele>669.0</ele><time>2026-05-02T14:40:56Z</time></trkpt><trkpt lat="42.877854486200185" lon="11.694607390053479"><ele>669.0</ele><time>2026-05-02T14:40:57Z</time></trkpt><trkpt lat="42.877843740354734" lon="11.694514720818427"><ele>669.0</ele><time>2026-05-02T14:40:58Z</time></trkpt><trkpt lat="42.87780138117817" lon="11.694417257944876"><ele>669.0</ele><time>2026-05-02T14:40:59Z</time></trkpt><trkpt lat="42.87772545681347" lon="11.694351298378882"><ele>669.0</ele><time>2026-05-02T14:41:00Z</time></trkpt><trkpt lat="42.87762301286553" lon="11.694294992224721"><ele>669.0</ele><time>2026-05-02T14:41:01Z</time></trkpt><trkpt lat="42.87754631561679" lon="11.694209930832344"><ele>674.0</ele><time>2026-05-02T14:41:02Z</time></trkpt><trkpt lat="42.877502855113384" lon="11.694066727725675"><ele>679.0</ele><time>2026-05-02T14:41:03Z</time></trkpt><trkpt lat="42.87746917143526" lon="11.69387666558874"><ele>684.0</ele><time>2026-05-02T14:41:04Z</time></trkpt><trkpt lat="42.87740774807044" lon="11.693682567358275"><ele>689.0</ele><time>2026-05-02T14:41:05Z</time></trkpt><trkpt lat="42.877316209971255" lon="11.693467009788248"><ele>691.3333333333333</ele><time>2026-05-02T14:41:06Z</time></trkpt><trkpt lat="42.87723692817007" lon="11.69323698058052"><ele>693.6666666666666</ele><time>2026-05-02T14:41:07Z</time></trkpt><trkpt lat="42.87717882297036" lon="11.693045868942544"><ele>696.0</ele><time>2026-05-02T14:41:08Z</time></trkpt><trkpt lat="42.877116338606164" lon="11.692910285475714"><ele>696.0</ele><time>2026-05-02T14:41:09Z</time></trkpt><trkpt lat="42.877028699545086" lon="11.692798520503194"><ele>696.0</ele><time>2026-05-02T14:41:10Z</time></trkpt><trkpt lat="42.87693088559258" lon="11.692690166804809"><ele>696.0</ele><time>2026-05-02T14:41:11Z</time></trkpt><trkpt lat="42.87687372239782" lon="11.692572821446465"><ele>696.0</ele><time>2026-05-02T14:41:12Z</time></trkpt><trkpt lat="42.87686011968814" lon="11.692428339165632"><ele>698.0</ele><time>2026-05-02T14:41:13Z</time></trkpt><trkpt lat="42.87687806476716" lon="11.692289911644687"><ele>700.0</ele><time>2026-05-02T14:41:14Z</time></trkpt><trkpt lat="42.876876294530106" lon="11.692202759917858"><ele>702.0</ele><time>2026-05-02T14:41:15Z</time></trkpt><trkpt lat="42.87677111477847" lon="11.692128641851438"><ele>704.0</ele><time>2026-05-02T14:41:17Z</time></trkpt><trkpt lat="42.87667876814032" lon="11.692162020841447"><ele>706.0</ele><time>2026-05-02T14:41:18Z</time></trkpt><trkpt lat="42.87658226669259" lon="11.692233746690608"><ele>707.3333333333334</ele><time>2026-05-02T14:41:19Z</time></trkpt><trkpt lat="42.87648118195871" lon="11.692320130863022"><ele>708.6666666666667</ele><time>2026-05-02T14:41:20Z</time></trkpt><trkpt lat="42.87637683043173" lon="11.692362671961398"><ele>710.0</ele><time>2026-05-02T14:41:21Z</time></trkpt><trkpt lat="42.87631320702009" lon="11.692415516038624"><ele>711.3333333333334</ele><time>2026-05-02T14:41:22Z</time></trkpt><trkpt lat="42.87624870593173" lon="11.692421242927523"><ele>712.6666666666666</ele><time>2026-05-02T14:41:23Z</time></trkpt><trkpt lat="42.87619571212908" lon="11.692365594195625"><ele>714.0</ele><time>2026-05-02T14:41:24Z</time></trkpt><trkpt lat="42.876160159500806" lon="11.692277401424143"><ele>714.0</ele><time>2026-05-02T14:41:25Z</time></trkpt><trkpt lat="42.87615844039588" lon="11.692186042432109"><ele>714.0</ele><time>2026-05-02T14:41:26Z</time></trkpt><trkpt lat="42.876186444511326" lon="11.692080490614071"><ele>714.0</ele><time>2026-05-02T14:41:27Z</time></trkpt><trkpt lat="42.87622695416211" lon="11.691937987772757"><ele>714.0</ele><time>2026-05-02T14:41:28Z</time></trkpt><trkpt lat="42.876260979731434" lon="11.69175493475522"><ele>714.0</ele><time>2026-05-02T14:41:29Z</time></trkpt><trkpt lat="42.87626771585909" lon="11.691552780378313"><ele>718.3333333333334</ele><time>2026-05-02T14:41:30Z</time></trkpt><trkpt lat="42.87624244053239" lon="11.691346903188032"><ele>722.6666666666667</ele><time>2026-05-02T14:41:31Z</time></trkpt><trkpt lat="42.87619873385468" lon="11.691139525336297"><ele>727.0</ele><time>2026-05-02T14:41:32Z</time></trkpt><trkpt lat="42.8761544165201" lon="11.690928067123386"><ele>728.5</ele><time>2026-05-02T14:41:33Z</time></trkpt><trkpt lat="42.876122025548824" lon="11.690748104984918"><ele>730.0</ele><time>2026-05-02T14:41:34Z</time></trkpt><trkpt lat="42.87609691121775" lon="11.690586817122048"><ele>731.5</ele><time>2026-05-02T14:41:35Z</time></trkpt><trkpt lat="42.87607937548815" lon="11.690436991692586"><ele>733.0</ele><time>2026-05-02T14:41:36Z</time></trkpt><trkpt lat="42.87609020204188" lon="11.690306954950483"><ele>734.25</ele><time>2026-05-02T14:41:37Z</time></trkpt><trkpt lat="42.87613854948954" lon="11.690177690383564"><ele>735.5</ele><time>2026-05-02T14:41:38Z</time></trkpt><trkpt lat="42.87619842989738" lon="11.690028304935028"><ele>736.75</ele><time>2026-05-02T14:41:39Z</time></trkpt><trkpt lat="42.876259806135344" lon="11.689846567879606"><ele>738.0</ele><time>2026-05-02T14:41:40Z</time></trkpt><trkpt lat="42.876306320081625" lon="11.689660883887838"><ele>738.0</ele><time>2026-05-02T14:41:41Z</time></trkpt><trkpt lat="42.87635245736037" lon="11.68947645993844"><ele>738.0</ele><time>2026-05-02T14:41:42Z</time></trkpt><trkpt lat="42.87640459859197" lon="11.68931080338349"><ele>738.0</ele><time>2026-05-02T14:41:43Z</time></trkpt><trkpt lat="42.87645450955285" lon="11.689174502557089"><ele>738.0</ele><time>2026-05-02T14:41:44Z</time></trkpt><trkpt lat="42.87649284420354" lon="11.689014328311906"><ele>740.75</ele><time>2026-05-02T14:41:45Z</time></trkpt><trkpt lat="42.87652360745729" lon="11.688821839182841"><ele>743.5</ele><time>2026-05-02T14:41:46Z</time></trkpt><trkpt lat="42.87654275377014" lon="11.688615088348056"><ele>746.25</ele><time>2026-05-02T14:41:47Z</time></trkpt><trkpt lat="42.87655386633144" lon="11.68842317383513"><ele>749.0</ele><time>2026-05-02T14:41:48Z</time></trkpt><trkpt lat="42.87656792864808" lon="11.688254797233474"><ele>751.0</ele><time>2026-05-02T14:41:49Z</time></trkpt><trkpt lat="42.87658327514495" lon="11.68808975006468"><ele>753.0</ele><time>2026-05-02T14:41:50Z</time></trkpt><trkpt lat="42.87660268844657" lon="11.687931160626887"><ele>755.0</ele><time>2026-05-02T14:41:51Z</time></trkpt><trkpt lat="42.87666534331788" lon="11.687800757592456"><ele>757.0</ele><time>2026-05-02T14:41:52Z</time></trkpt><trkpt lat="42.8767138767208" lon="11.687664936747993"><ele>758.4000000000001</ele><time>2026-05-02T14:41:53Z</time></trkpt><trkpt lat="42.876780889006156" lon="11.687549938170527"><ele>759.8000000000001</ele><time>2026-05-02T14:41:54Z</time></trkpt><trkpt lat="42.87682209610356" lon="11.687444474640031"><ele>761.2</ele><time>2026-05-02T14:41:55Z</time></trkpt><trkpt lat="42.87683627064078" lon="11.687332679589918"><ele>762.6</ele><time>2026-05-02T14:41:56Z</time></trkpt><trkpt lat="42.8768193525372" lon="11.687207337888546"><ele>764.0</ele><time>2026-05-02T14:41:57Z</time></trkpt><trkpt lat="42.8767663328272" lon="11.687083869039315"><ele>764.0</ele><time>2026-05-02T14:41:58Z</time></trkpt><trkpt lat="42.876688269924394" lon="11.686964590881203"><ele>764.0</ele><time>2026-05-02T14:41:59Z</time></trkpt><trkpt lat="42.876599455896674" lon="11.686834889528969"><ele>764.0</ele><time>2026-05-02T14:42:00Z</time></trkpt><trkpt lat="42.87651959148624" lon="11.68668551467999"><ele>764.0</ele><time>2026-05-02T14:42:01Z</time></trkpt><trkpt lat="42.8764431855252" lon="11.686513390562602"><ele>766.0</ele><time>2026-05-02T14:42:02Z</time></trkpt><trkpt lat="42.8763672154334" lon="11.686360255836162"><ele>768.0</ele><time>2026-05-02T14:42:03Z</time></trkpt><trkpt lat="42.87629436805656" lon="11.686228617300237"><ele>770.0</ele><time>2026-05-02T14:42:04Z</time></trkpt><trkpt lat="42.87624007226349" lon="11.686120041972533"><ele>772.0</ele><time>2026-05-02T14:42:05Z</time></trkpt><trkpt lat="42.876215870399086" lon="11.686016357035404"><ele>774.0</ele><time>2026-05-02T14:42:06Z</time></trkpt><trkpt lat="42.876205050423984" lon="11.685884416263464"><ele>776.25</ele><time>2026-05-02T14:42:07Z</time></trkpt><trkpt lat="42.87620695500919" lon="11.68570085072021"><ele>778.5</ele><time>2026-05-02T14:42:08Z</time></trkpt><trkpt lat="42.876206483338045" lon="11.685505937222493"><ele>780.75</ele><time>2026-05-02T14:42:09Z</time></trkpt><trkpt lat="42.876202371423204" lon="11.685316416690883"><ele>783.0</ele><time>2026-05-02T14:42:10Z</time></trkpt><trkpt lat="42.876198719580266" lon="11.685134753863137"><ele>783.75</ele><time>2026-05-02T14:42:11Z</time></trkpt><trkpt lat="42.87619781047284" lon="11.684957473327126"><ele>784.5</ele><time>2026-05-02T14:42:12Z</time></trkpt><trkpt lat="42.876201260061926" lon="11.684788873703317"><ele>785.25</ele><time>2026-05-02T14:42:13Z</time></trkpt><trkpt lat="42.8762085466654" lon="11.684621222127776"><ele>786.0</ele><time>2026-05-02T14:42:14Z</time></trkpt><trkpt lat="42.87620908145608" lon="11.684472418313"><ele>786.25</ele><time>2026-05-02T14:42:15Z</time></trkpt><trkpt lat="42.87624407481131" lon="11.68434478644846"><ele>786.5</ele><time>2026-05-02T14:42:16Z</time></trkpt><trkpt lat="42.87630781029585" lon="11.684201528741914"><ele>786.75</ele><time>2026-05-02T14:42:17Z</time></trkpt><trkpt lat="42.87638527215544" lon="11.684045928753601"><ele>787.0</ele><time>2026-05-02T14:42:18Z</time></trkpt><trkpt lat="42.87646660121179" lon="11.683883979077414"><ele>787.0</ele><time>2026-05-02T14:42:19Z</time></trkpt><trkpt lat="42.87654866569105" lon="11.68372056473523"><ele>787.0</ele><time>2026-05-02T14:42:20Z</time></trkpt><trkpt lat="42.87661581029433" lon="11.683544640364282"><ele>787.0</ele><time>2026-05-02T14:42:21Z</time></trkpt><trkpt lat="42.876699265849616" lon="11.683381993307218"><ele>787.0</ele><time>2026-05-02T14:42:22Z</time></trkpt><trkpt lat="42.87676820544648" lon="11.683221816214031"><ele>787.25</ele><time>2026-05-02T14:42:23Z</time></trkpt><trkpt lat="42.87682703668698" lon="11.683087332435747"><ele>787.5</ele><time>2026-05-02T14:42:24Z</time></trkpt><trkpt lat="42.87688827390777" lon="11.68294497639964"><ele>787.75</ele><time>2026-05-02T14:42:25Z</time></trkpt><trkpt lat="42.87694407917351" lon="11.682799983872751"><ele>788.0</ele><time>2026-05-02T14:42:26Z</time></trkpt><trkpt lat="42.87699887343783" lon="11.6826666064097"><ele>788.0</ele><time>2026-05-02T14:42:27Z</time></trkpt><trkpt lat="42.87704508608538" lon="11.682530955744987"><ele>788.0</ele><time>2026-05-02T14:42:28Z</time></trkpt><trkpt lat="42.87708256416052" lon="11.682418707742988"><ele>788.0</ele><time>2026-05-02T14:42:29Z</time></trkpt><trkpt lat="42.87711095434473" lon="11.682331013448533"><ele>788.0</ele><time>2026-05-02T14:42:30Z</time></trkpt><trkpt lat="42.877144560308395" lon="11.682178274530253"><ele>788.0</ele><time>2026-05-02T14:42:32Z</time></trkpt><trkpt lat="42.877169060692914" lon="11.682005763736077"><ele>789.8</ele><time>2026-05-02T14:42:34Z</time></trkpt><trkpt lat="42.87719525875252" lon="11.681880684085296"><ele>791.5999999999999</ele><time>2026-05-02T14:42:35Z</time></trkpt><trkpt lat="42.87723472173974" lon="11.681735554461717"><ele>793.4000000000001</ele><time>2026-05-02T14:42:36Z</time></trkpt><trkpt lat="42.877282496122994" lon="11.681590148319867"><ele>795.2</ele><time>2026-05-02T14:42:37Z</time></trkpt><trkpt lat="42.87734408188877" lon="11.68144891023311"><ele>797.0</ele><time>2026-05-02T14:42:38Z</time></trkpt><trkpt lat="42.877390029963586" lon="11.681303260267448"><ele>797.0</ele><time>2026-05-02T14:42:39Z</time></trkpt><trkpt lat="42.877420270687026" lon="11.681160006111067"><ele>797.0</ele><time>2026-05-02T14:42:40Z</time></trkpt><trkpt lat="42.87746499618732" lon="11.681024109248932"><ele>797.0</ele><time>2026-05-02T14:42:41Z</time></trkpt><trkpt lat="42.87750555297187" lon="11.680887303360038"><ele>797.0</ele><time>2026-05-02T14:42:42Z</time></trkpt><trkpt lat="42.877534835377816" lon="11.680743002914461"><ele>797.0</ele><time>2026-05-02T14:42:43Z</time></trkpt><trkpt lat="42.87754215982569" lon="11.680603379653212"><ele>798.4000000000001</ele><time>2026-05-02T14:42:44Z</time></trkpt><trkpt lat="42.87752844548964" lon="11.680477913234375"><ele>799.8000000000001</ele><time>2026-05-02T14:42:45Z</time></trkpt><trkpt lat="42.877498613745736" lon="11.680345956318446"><ele>801.2</ele><time>2026-05-02T14:42:46Z</time></trkpt><trkpt lat="42.87746063952535" lon="11.680210569010555"><ele>802.6</ele><time>2026-05-02T14:42:47Z</time></trkpt><trkpt lat="42.877425904010636" lon="11.680094988897713"><ele>804.0</ele><time>2026-05-02T14:42:48Z</time></trkpt><trkpt lat="42.8773943903736" lon="11.679983502505152"><ele>804.5</ele><time>2026-05-02T14:42:49Z</time></trkpt><trkpt lat="42.87736647651011" lon="11.679862726486219"><ele>805.0</ele><time>2026-05-02T14:42:50Z</time></trkpt><trkpt lat="42.8773473308824" lon="11.679735576708527"><ele>805.5</ele><time>2026-05-02T14:42:51Z</time></trkpt><trkpt lat="42.87734404169523" lon="11.679605931316157"><ele>806.0</ele><time>2026-05-02T14:42:52Z</time></trkpt><trkpt lat="42.87734964699713" lon="11.679485496079893"><ele>806.5</ele><time>2026-05-02T14:42:53Z</time></trkpt><trkpt lat="42.877361114051105" lon="11.67938344809255"><ele>807.0</ele><time>2026-05-02T14:42:54Z</time></trkpt><trkpt lat="42.877390551772535" lon="11.679199442934088"><ele>807.6666666666666</ele><time>2026-05-02T14:42:56Z</time></trkpt><trkpt lat="42.877434155560834" lon="11.679125081820555"><ele>808.3333333333333</ele><time>2026-05-02T14:42:57Z</time></trkpt><trkpt lat="42.877510427274565" lon="11.679052506725489"><ele>809.0</ele><time>2026-05-02T14:42:59Z</time></trkpt><trkpt lat="42.877576234236344" lon="11.679011912344082"><ele>809.6666666666666</ele><time>2026-05-02T14:43:02Z</time></trkpt><trkpt lat="42.87766168588441" lon="11.678964067691403"><ele>810.3333333333333</ele><time>2026-05-02T14:43:06Z</time></trkpt><trkpt lat="42.87777270874888" lon="11.678927106310525"><ele>811.0</ele><time>2026-05-02T14:43:08Z</time></trkpt><trkpt lat="42.87786998804242" lon="11.678859916018732"><ele>810.9999999999999</ele><time>2026-05-02T14:43:10Z</time></trkpt><trkpt lat="42.87792789865798" lon="11.678823074502194"><ele>811.0</ele><time>2026-05-02T14:43:11Z</time></trkpt><trkpt lat="42.87798682356486" lon="11.678790419464248"><ele>811.0</ele><time>2026-05-02T14:43:12Z</time></trkpt><trkpt lat="42.87810616608916" lon="11.678731195911094"><ele>811.0</ele><time>2026-05-02T14:43:14Z</time></trkpt><trkpt lat="42.87816601914035" lon="11.678702263648102"><ele>810.9999999999999</ele><time>2026-05-02T14:43:15Z</time></trkpt><trkpt lat="42.878268206020294" lon="11.678640407723867"><ele>811.0</ele><time>2026-05-02T14:43:17Z</time></trkpt><trkpt lat="42.87836645835101" lon="11.678585439846824"><ele>811.9999999999999</ele><time>2026-05-02T14:43:19Z</time></trkpt><trkpt lat="42.878449511126355" lon="11.678567497671988"><ele>813.0</ele><time>2026-05-02T14:43:21Z</time></trkpt><trkpt lat="42.87851615376988" lon="11.678575037332413"><ele>814.0</ele><time>2026-05-02T14:43:23Z</time></trkpt><trkpt lat="42.87858563345379" lon="11.678550982267426"><ele>815.0</ele><time>2026-05-02T14:43:25Z</time></trkpt><trkpt lat="42.878667247140754" lon="11.678480273572156"><ele>815.9999999999999</ele><time>2026-05-02T14:43:27Z</time></trkpt><trkpt lat="42.878741353737404" lon="11.67840838247468"><ele>817.0</ele><time>2026-05-02T14:43:29Z</time></trkpt><trkpt lat="42.878806533492714" lon="11.67833184351153"><ele>817.0</ele><time>2026-05-02T14:43:31Z</time></trkpt><trkpt lat="42.87886081459447" lon="11.678257258609202"><ele>817.0</ele><time>2026-05-02T14:43:33Z</time></trkpt><trkpt lat="42.87892390780544" lon="11.678163959917178"><ele>817.0</ele><time>2026-05-02T14:43:35Z</time></trkpt><trkpt lat="42.87900051700946" lon="11.678057629912313"><ele>817.0</ele><time>2026-05-02T14:43:37Z</time></trkpt><trkpt lat="42.879085044115115" lon="11.677939436936649"><ele>817.0</ele><time>2026-05-02T14:43:39Z</time></trkpt><trkpt lat="42.87916946337358" lon="11.677819386680197"><ele>816.9999999999999</ele><time>2026-05-02T14:43:41Z</time></trkpt><trkpt lat="42.879233055268145" lon="11.677714384520002"><ele>817.0</ele><time>2026-05-02T14:43:43Z</time></trkpt><trkpt lat="42.87928033349495" lon="11.677637796796242"><ele>817.0</ele><time>2026-05-02T14:43:45Z</time></trkpt><trkpt lat="42.87934000677399" lon="11.677563618011598"><ele>817.0</ele><time>2026-05-02T14:43:53Z</time></trkpt><trkpt lat="42.879384971889515" lon="11.677498918873196"><ele>816.9999999999999</ele><time>2026-05-02T14:43:55Z</time></trkpt><trkpt lat="42.87944401720829" lon="11.677398541966092"><ele>817.0</ele><time>2026-05-02T14:43:57Z</time></trkpt><trkpt lat="42.879500916117166" lon="11.677284421029043"><ele>818.0</ele><time>2026-05-02T14:43:59Z</time></trkpt><trkpt lat="42.87958929539001" lon="11.677228465432542"><ele>819.0</ele><time>2026-05-02T14:44:01Z</time></trkpt><trkpt lat="42.87967255425329" lon="11.677231606927167"><ele>820.0</ele><time>2026-05-02T14:44:03Z</time></trkpt><trkpt lat="42.87972858133357" lon="11.67712347992543"><ele>821.0</ele><time>2026-05-02T14:44:05Z</time></trkpt><trkpt lat="42.879798728410684" lon="11.677038629825237"><ele>822.0</ele><time>2026-05-02T14:44:08Z</time></trkpt><trkpt lat="42.879896454595325" lon="11.676965657976691"><ele>822.0</ele><time>2026-05-02T14:44:10Z</time></trkpt><trkpt lat="42.879964973732946" lon="11.676940374610455"><ele>822.0</ele><time>2026-05-02T14:44:11Z</time></trkpt><trkpt lat="42.880038398647194" lon="11.676899654563163"><ele>822.0</ele><time>2026-05-02T14:44:12Z</time></trkpt><trkpt lat="42.88011730615876" lon="11.67685075144486"><ele>822.0</ele><time>2026-05-02T14:44:13Z</time></trkpt><trkpt lat="42.880198668271504" lon="11.676835175842108"><ele>822.0</ele><time>2026-05-02T14:44:14Z</time></trkpt><trkpt lat="42.88029807484997" lon="11.676795641128288"><ele>822.0</ele><time>2026-05-02T14:44:15Z</time></trkpt><trkpt lat="42.88039732005005" lon="11.676749542116587"><ele>822.2</ele><time>2026-05-02T14:44:16Z</time></trkpt><trkpt lat="42.88049554667246" lon="11.676703456573371"><ele>822.4000000000001</ele><time>2026-05-02T14:44:17Z</time></trkpt><trkpt lat="42.88057840597621" lon="11.676668943923351"><ele>822.5999999999999</ele><time>2026-05-02T14:44:18Z</time></trkpt><trkpt lat="42.88066389896495" lon="11.67663312886734"><ele>822.8</ele><time>2026-05-02T14:44:19Z</time></trkpt><trkpt lat="42.880747361145865" lon="11.676596879586901"><ele>823.0</ele><time>2026-05-02T14:44:20Z</time></trkpt><trkpt lat="42.880831181741485" lon="11.676557128513412"><ele>823.0</ele><time>2026-05-02T14:44:21Z</time></trkpt><trkpt lat="42.88089705161518" lon="11.67651581353433"><ele>823.0</ele><time>2026-05-02T14:44:22Z</time></trkpt><trkpt lat="42.8809652202249" lon="11.676475924183903"><ele>823.0</ele><time>2026-05-02T14:44:23Z</time></trkpt><trkpt lat="42.881034943232045" lon="11.676437459874473"><ele>823.0</ele><time>2026-05-02T14:44:24Z</time></trkpt><trkpt lat="42.88110031125572" lon="11.676410567696864"><ele>823.0</ele><time>2026-05-02T14:44:25Z</time></trkpt><trkpt lat="42.8811665971593" lon="11.676383886469427"><ele>823.0</ele><time>2026-05-02T14:44:26Z</time></trkpt><trkpt lat="42.88124139684235" lon="11.67634028377179"><ele>823.0</ele><time>2026-05-02T14:44:27Z</time></trkpt><trkpt lat="42.88131143711619" lon="11.676303638225306"><ele>823.1428571428571</ele><time>2026-05-02T14:44:28Z</time></trkpt><trkpt lat="42.8813760150419" lon="11.676264382352942"><ele>823.2857142857143</ele><time>2026-05-02T14:44:29Z</time></trkpt><trkpt lat="42.88143860617109" lon="11.676227565769967"><ele>823.4285714285713</ele><time>2026-05-02T14:44:30Z</time></trkpt><trkpt lat="42.881497506906165" lon="11.676181110998707"><ele>823.5714285714286</ele><time>2026-05-02T14:44:31Z</time></trkpt><trkpt lat="42.8815683801367" lon="11.67616380284163"><ele>823.7142857142857</ele><time>2026-05-02T14:44:32Z</time></trkpt><trkpt lat="42.88159827182579" lon="11.676039993864958"><ele>823.8571428571428</ele><time>2026-05-02T14:44:33Z</time></trkpt><trkpt lat="42.88163295589402" lon="11.675966106633718"><ele>824.0</ele><time>2026-05-02T14:44:34Z</time></trkpt><trkpt lat="42.881659779609144" lon="11.675863802891095"><ele>824.75</ele><time>2026-05-02T14:44:36Z</time></trkpt><trkpt lat="42.88167575514986" lon="11.675661558774706"><ele>825.5</ele><time>2026-05-02T14:44:38Z</time></trkpt><trkpt lat="42.88166328215204" lon="11.67551993467823"><ele>826.25</ele><time>2026-05-02T14:44:39Z</time></trkpt><trkpt lat="42.88165736523395" lon="11.67536187030092"><ele>827.0</ele><time>2026-05-02T14:44:40Z</time></trkpt><trkpt lat="42.88164430380794" lon="11.67519488235702"><ele>827.25</ele><time>2026-05-02T14:44:41Z</time></trkpt><trkpt lat="42.88163944228086" lon="11.675020492916149"><ele>827.5</ele><time>2026-05-02T14:44:42Z</time></trkpt><trkpt lat="42.88164646808892" lon="11.674849912854512"><ele>827.75</ele><time>2026-05-02T14:44:43Z</time></trkpt><trkpt lat="42.88164939220122" lon="11.674668104711197"><ele>828.0</ele><time>2026-05-02T14:44:44Z</time></trkpt><trkpt lat="42.88163983599606" lon="11.67450084365621"><ele>828.5999999999999</ele><time>2026-05-02T14:44:45Z</time></trkpt><trkpt lat="42.88163250540083" lon="11.674341091536984"><ele>829.1999999999999</ele><time>2026-05-02T14:44:46Z</time></trkpt><trkpt lat="42.88163314689824" lon="11.674195045453203"><ele>829.8</ele><time>2026-05-02T14:44:47Z</time></trkpt><trkpt lat="42.881653936569236" lon="11.674076483094327"><ele>830.4</ele><time>2026-05-02T14:44:48Z</time></trkpt><trkpt lat="42.88168871484737" lon="11.673958908989825"><ele>831.0</ele><time>2026-05-02T14:44:49Z</time></trkpt><trkpt lat="42.88172830762964" lon="11.67386940182724"><ele>831.0</ele><time>2026-05-02T14:44:50Z</time></trkpt><trkpt lat="42.881822399337054" lon="11.673754122612717"><ele>831.0</ele><time>2026-05-02T14:44:52Z</time></trkpt><trkpt lat="42.88187231456798" lon="11.673687809101228"><ele>831.0</ele><time>2026-05-02T14:44:53Z</time></trkpt><trkpt lat="42.88192003990598" lon="11.673621237188101"><ele>831.0</ele><time>2026-05-02T14:44:54Z</time></trkpt><trkpt lat="42.88196851554685" lon="11.673555214067425"><ele>831.0</ele><time>2026-05-02T14:44:55Z</time></trkpt><trkpt lat="42.882021988986466" lon="11.67348785895511"><ele>831.0</ele><time>2026-05-02T14:44:56Z</time></trkpt><trkpt lat="42.88207482746456" lon="11.67341976662199"><ele>831.3333333333334</ele><time>2026-05-02T14:44:57Z</time></trkpt><trkpt lat="42.88212903516705" lon="11.67334675299085"><ele>831.6666666666667</ele><time>2026-05-02T14:44:58Z</time></trkpt><trkpt lat="42.88218451949602" lon="11.67327643612844"><ele>832.0</ele><time>2026-05-02T14:44:59Z</time></trkpt><trkpt lat="42.882238135968436" lon="11.673206800535118"><ele>832.3333333333334</ele><time>2026-05-02T14:45:00Z</time></trkpt><trkpt lat="42.88229134558561" lon="11.673137471887514"><ele>832.6666666666667</ele><time>2026-05-02T14:45:01Z</time></trkpt><trkpt lat="42.88234907375425" lon="11.673060025746675"><ele>833.0</ele><time>2026-05-02T14:45:02Z</time></trkpt><trkpt lat="42.88240777809499" lon="11.672987131641909"><ele>833.0000000000001</ele><time>2026-05-02T14:45:03Z</time></trkpt><trkpt lat="42.882467435684966" lon="11.672913704506925"><ele>833.0</ele><time>2026-05-02T14:45:04Z</time></trkpt><trkpt lat="42.88252537284661" lon="11.672842498160996"><ele>833.0</ele><time>2026-05-02T14:45:05Z</time></trkpt><trkpt lat="42.882571782498594" lon="11.672779808557747"><ele>833.0</ele><time>2026-05-02T14:45:06Z</time></trkpt><trkpt lat="42.882649666632176" lon="11.672671157684531"><ele>833.0000000000001</ele><time>2026-05-02T14:45:08Z</time></trkpt><trkpt lat="42.88269537797657" lon="11.67260831664256"><ele>833.0</ele><time>2026-05-02T14:45:09Z</time></trkpt><trkpt lat="42.882744653572566" lon="11.672541230547411"><ele>834.4</ele><time>2026-05-02T14:45:10Z</time></trkpt><trkpt lat="42.88279549408083" lon="11.672477425762715"><ele>835.8</ele><time>2026-05-02T14:45:11Z</time></trkpt><trkpt lat="42.88284635069349" lon="11.672407698183951"><ele>837.2</ele><time>2026-05-02T14:45:12Z</time></trkpt><trkpt lat="42.882917926662785" lon="11.672309404773761"><ele>838.6</ele><time>2026-05-02T14:45:13Z</time></trkpt><trkpt lat="42.883018005467875" lon="11.672232934275987"><ele>840.0</ele><time>2026-05-02T14:45:14Z</time></trkpt><trkpt lat="42.88312261253444" lon="11.672100126609395"><ele>840.0</ele><time>2026-05-02T14:45:15Z</time></trkpt><trkpt lat="42.88322831099947" lon="11.671956536039653"><ele>840.0</ele><time>2026-05-02T14:45:16Z</time></trkpt><trkpt lat="42.88332732225101" lon="11.671843354396556"><ele>840.0</ele><time>2026-05-02T14:45:17Z</time></trkpt><trkpt lat="42.88342605102113" lon="11.671722892878766"><ele>840.0</ele><time>2026-05-02T14:45:18Z</time></trkpt><trkpt lat="42.88353027407364" lon="11.67159533606267"><ele>841.5</ele><time>2026-05-02T14:45:19Z</time></trkpt><trkpt lat="42.8836391196559" lon="11.671461597958823"><ele>843.0</ele><time>2026-05-02T14:45:20Z</time></trkpt><trkpt lat="42.88375148761516" lon="11.671323762201935"><ele>844.5</ele><time>2026-05-02T14:45:21Z</time></trkpt><trkpt lat="42.88386037563769" lon="11.671186690332737"><ele>846.0</ele><time>2026-05-02T14:45:22Z</time></trkpt><trkpt lat="42.883964856669145" lon="11.67104977868881"><ele>846.5999999999999</ele><time>2026-05-02T14:45:23Z</time></trkpt><trkpt lat="42.88404934008508" lon="11.670917999512644"><ele>847.2</ele><time>2026-05-02T14:45:24Z</time></trkpt><trkpt lat="42.88411889799713" lon="11.670796206784894"><ele>847.8</ele><time>2026-05-02T14:45:25Z</time></trkpt><trkpt lat="42.88417143181704" lon="11.670683298443942"><ele>848.4000000000001</ele><time>2026-05-02T14:45:26Z</time></trkpt><trkpt lat="42.88421756916501" lon="11.670566346236226"><ele>849.0</ele><time>2026-05-02T14:45:27Z</time></trkpt><trkpt lat="42.88427558166713" lon="11.67043688500413"><ele>850.5</ele><time>2026-05-02T14:45:28Z</time></trkpt><trkpt lat="42.884356882126525" lon="11.670307086592677"><ele>852.0</ele><time>2026-05-02T14:45:29Z</time></trkpt><trkpt lat="42.88445073204519" lon="11.670210523236339"><ele>853.5</ele><time>2026-05-02T14:45:30Z</time></trkpt><trkpt lat="42.88455928351738" lon="11.670153072524949"><ele>855.0</ele><time>2026-05-02T14:45:31Z</time></trkpt><trkpt lat="42.884685371266" lon="11.670133183519026"><ele>855.75</ele><time>2026-05-02T14:45:32Z</time></trkpt><trkpt lat="42.88482425660934" lon="11.67012398395406"><ele>856.5</ele><time>2026-05-02T14:45:33Z</time></trkpt><trkpt lat="42.88495910073127" lon="11.670098440860004"><ele>857.25</ele><time>2026-05-02T14:45:34Z</time></trkpt><trkpt lat="42.88508859485847" lon="11.670076584615154"><ele>858.0</ele><time>2026-05-02T14:45:35Z</time></trkpt><trkpt lat="42.885201537005216" lon="11.670063676785002"><ele>858.2</ele><time>2026-05-02T14:45:36Z</time></trkpt><trkpt lat="42.885299408459225" lon="11.67004189610733"><ele>858.4</ele><time>2026-05-02T14:45:37Z</time></trkpt><trkpt lat="42.88540053397661" lon="11.670025359070552"><ele>858.6000000000001</ele><time>2026-05-02T14:45:38Z</time></trkpt><trkpt lat="42.885509110449256" lon="11.670011488697076"><ele>858.8000000000001</ele><time>2026-05-02T14:45:39Z</time></trkpt><trkpt lat="42.885622069385285" lon="11.669987370895898"><ele>859.0</ele><time>2026-05-02T14:45:40Z</time></trkpt><trkpt lat="42.885731218320856" lon="11.669957278905217"><ele>859.0</ele><time>2026-05-02T14:45:41Z</time></trkpt><trkpt lat="42.88583185474876" lon="11.669914712769392"><ele>859.0000000000001</ele><time>2026-05-02T14:45:42Z</time></trkpt><trkpt lat="42.885923984314076" lon="11.669847894002688"><ele>859.0000000000001</ele><time>2026-05-02T14:45:43Z</time></trkpt><trkpt lat="42.88600616559354" lon="11.669763447619514"><ele>859.0</ele><time>2026-05-02T14:45:44Z</time></trkpt><trkpt lat="42.88607199689939" lon="11.669652536549773"><ele>859.0</ele><time>2026-05-02T14:45:45Z</time></trkpt><trkpt lat="42.886122812391186" lon="11.669518872155631"><ele>856.5</ele><time>2026-05-02T14:45:46Z</time></trkpt><trkpt lat="42.886168394929705" lon="11.669363175978898"><ele>854.0</ele><time>2026-05-02T14:45:47Z</time></trkpt><trkpt lat="42.88620237921838" lon="11.669207323367392"><ele>851.5</ele><time>2026-05-02T14:45:48Z</time></trkpt><trkpt lat="42.88623157200652" lon="11.669061166403553"><ele>849.0</ele><time>2026-05-02T14:45:49Z</time></trkpt><trkpt lat="42.886263426595015" lon="11.668911744715057"><ele>849.0</ele><time>2026-05-02T14:45:50Z</time></trkpt><trkpt lat="42.88630082677762" lon="11.668765253857368"><ele>849.0</ele><time>2026-05-02T14:45:51Z</time></trkpt><trkpt lat="42.886345305789625" lon="11.66862659112092"><ele>849.0</ele><time>2026-05-02T14:45:52Z</time></trkpt><trkpt lat="42.886397599619265" lon="11.668500389879425"><ele>849.0</ele><time>2026-05-02T14:45:53Z</time></trkpt><trkpt lat="42.88645536716773" lon="11.668373038518471"><ele>849.0</ele><time>2026-05-02T14:45:54Z</time></trkpt><trkpt lat="42.8865204155542" lon="11.668256864924205"><ele>848.6</ele><time>2026-05-02T14:45:55Z</time></trkpt><trkpt lat="42.88658164687247" lon="11.668151192402865"><ele>848.2</ele><time>2026-05-02T14:45:56Z</time></trkpt><trkpt lat="42.88664327133246" lon="11.668043818039287"><ele>847.8000000000001</ele><time>2026-05-02T14:45:57Z</time></trkpt><trkpt lat="42.8867067788075" lon="11.667945581150644"><ele>847.4000000000001</ele><time>2026-05-02T14:45:58Z</time></trkpt><trkpt lat="42.88676945985395" lon="11.667855775652905"><ele>847.0</ele><time>2026-05-02T14:45:59Z</time></trkpt><trkpt lat="42.88683048013059" lon="11.667769058674079"><ele>848.8333333333333</ele><time>2026-05-02T14:46:00Z</time></trkpt><trkpt lat="42.88689748161579" lon="11.667681270613175"><ele>850.6666666666666</ele><time>2026-05-02T14:46:01Z</time></trkpt><trkpt lat="42.88696348067425" lon="11.667607667667449"><ele>852.5</ele><time>2026-05-02T14:46:02Z</time></trkpt><trkpt lat="42.887029898985865" lon="11.667546608583375"><ele>854.3333333333333</ele><time>2026-05-02T14:46:03Z</time></trkpt><trkpt lat="42.887092210499546" lon="11.667496497950143"><ele>856.1666666666666</ele><time>2026-05-02T14:46:04Z</time></trkpt><trkpt lat="42.887155664250535" lon="11.667454503976353"><ele>858.0</ele><time>2026-05-02T14:46:05Z</time></trkpt><trkpt lat="42.88725331942894" lon="11.667407095484924"><ele>858.0</ele><time>2026-05-02T14:46:07Z</time></trkpt><trkpt lat="42.88718844210411" lon="11.667271615324967"><ele>858.0</ele><time>2026-05-02T14:48:27Z</time></trkpt><trkpt lat="42.88724512776878" lon="11.66736804615896"><ele>858.0</ele><time>2026-05-02T14:48:31Z</time></trkpt><trkpt lat="42.88718815880037" lon="11.667238666474567"><ele>858.0</ele><time>2026-05-02T14:48:33Z</time></trkpt><trkpt lat="42.88722861003079" lon="11.667311564418506"><ele>858.0</ele><time>2026-05-02T14:48:38Z</time></trkpt><trkpt lat="42.887221595872255" lon="11.667205170883488"><ele>858.0</ele><time>2026-05-02T14:48:55Z</time></trkpt><trkpt lat="42.88727299972166" lon="11.667372274769956"><ele>858.0</ele><time>2026-05-02T14:48:59Z</time></trkpt><trkpt lat="42.88723401985991" lon="11.667473859294857"><ele>858.0</ele><time>2026-05-02T14:49:33Z</time></trkpt><trkpt lat="42.88721721892122" lon="11.667310677473125"><ele>858.0</ele><time>2026-05-02T14:49:38Z</time></trkpt><trkpt lat="42.88716011805406" lon="11.667251179787378"><ele>858.0</ele><time>2026-05-02T14:49:42Z</time></trkpt><trkpt lat="42.887218029554504" lon="11.667315686770884"><ele>858.0</ele><time>2026-05-02T15:04:46.001Z</time></trkpt><trkpt lat="42.88721420621778" lon="11.667439451546706"><ele>858.0</ele><time>2026-05-02T15:05:36.001Z</time></trkpt><trkpt lat="42.88723617776896" lon="11.667327472155796"><ele>858.0</ele><time>2026-05-02T15:05:37.001Z</time></trkpt><trkpt lat="42.88718904992587" lon="11.667264049909353"><ele>858.0</ele><time>2026-05-02T15:09:50.016Z</time></trkpt><trkpt lat="42.88722224698505" lon="11.667343500751837"><ele>858.0</ele><time>2026-05-02T15:09:54.015Z</time></trkpt><trkpt lat="42.88728090167945" lon="11.667406434847308"><ele>858.0</ele><time>2026-05-02T15:10:36.002Z</time></trkpt><trkpt lat="42.88737449477777" lon="11.667306928117956"><ele>858.0</ele><time>2026-05-02T15:13:10Z</time></trkpt><trkpt lat="42.88743013205994" lon="11.667260038992351"><ele>858.0</ele><time>2026-05-02T15:13:11Z</time></trkpt><trkpt lat="42.88748556502412" lon="11.667201058828589"><ele>858.0</ele><time>2026-05-02T15:13:12Z</time></trkpt><trkpt lat="42.88756768818432" lon="11.667155889455175"><ele>858.0</ele><time>2026-05-02T15:13:13Z</time></trkpt><trkpt lat="42.887648135958244" lon="11.667106808214326"><ele>858.0</ele><time>2026-05-02T15:13:14Z</time></trkpt><trkpt lat="42.887729978024986" lon="11.66706371739404"><ele>858.0</ele><time>2026-05-02T15:13:15Z</time></trkpt><trkpt lat="42.887823855794906" lon="11.667019115855165"><ele>858.5</ele><time>2026-05-02T15:13:16Z</time></trkpt><trkpt lat="42.88794048272082" lon="11.666989633024615"><ele>859.0</ele><time>2026-05-02T15:13:17Z</time></trkpt><trkpt lat="42.888037474443955" lon="11.666959980805915"><ele>859.5</ele><time>2026-05-02T15:13:18Z</time></trkpt><trkpt lat="42.88815038649548" lon="11.666943643836111"><ele>860.0</ele><time>2026-05-02T15:13:19Z</time></trkpt><trkpt lat="42.888275007269726" lon="11.666928567871475"><ele>861.2</ele><time>2026-05-02T15:13:20Z</time></trkpt><trkpt lat="42.888391016950344" lon="11.666910074408266"><ele>862.4</ele><time>2026-05-02T15:13:21Z</time></trkpt><trkpt lat="42.88848883678562" lon="11.666874864760082"><ele>863.5999999999999</ele><time>2026-05-02T15:13:22Z</time></trkpt><trkpt lat="42.88857556346611" lon="11.666828207875852"><ele>864.8</ele><time>2026-05-02T15:13:23Z</time></trkpt><trkpt lat="42.88865835099254" lon="11.66678716592874"><ele>866.0</ele><time>2026-05-02T15:13:24Z</time></trkpt><trkpt lat="42.888751938409015" lon="11.666759763577154"><ele>866.0</ele><time>2026-05-02T15:13:25Z</time></trkpt><trkpt lat="42.888839670310055" lon="11.666705739089007"><ele>865.9999999999999</ele><time>2026-05-02T15:13:26Z</time></trkpt><trkpt lat="42.88891470501052" lon="11.666620599736158"><ele>865.9999999999999</ele><time>2026-05-02T15:13:27Z</time></trkpt><trkpt lat="42.88899234261827" lon="11.666538524002574"><ele>866.0</ele><time>2026-05-02T15:13:28Z</time></trkpt><trkpt lat="42.889057040836605" lon="11.666443205087111"><ele>866.0</ele><time>2026-05-02T15:13:29Z</time></trkpt><trkpt lat="42.88912185733041" lon="11.666338076434974"><ele>866.0</ele><time>2026-05-02T15:13:30Z</time></trkpt><trkpt lat="42.88918948451342" lon="11.666238144693578"><ele>865.9999999999999</ele><time>2026-05-02T15:13:31Z</time></trkpt><trkpt lat="42.889261950257406" lon="11.66616264621322"><ele>865.9999999999999</ele><time>2026-05-02T15:13:32Z</time></trkpt><trkpt lat="42.88935086938531" lon="11.666109619164876"><ele>866.0</ele><time>2026-05-02T15:13:33Z</time></trkpt><trkpt lat="42.88946222762153" lon="11.666079339314619"><ele>866.0</ele><time>2026-05-02T15:13:34Z</time></trkpt><trkpt lat="42.8895795414446" lon="11.666066224880746"><ele>866.0</ele><time>2026-05-02T15:13:35Z</time></trkpt><trkpt lat="42.889696190735854" lon="11.66608355945423"><ele>866.0</ele><time>2026-05-02T15:13:36Z</time></trkpt><trkpt lat="42.88982010143139" lon="11.666136843519084"><ele>866.0</ele><time>2026-05-02T15:13:37Z</time></trkpt><trkpt lat="42.88995003387023" lon="11.666223362804406"><ele>866.0</ele><time>2026-05-02T15:13:38Z</time></trkpt><trkpt lat="42.8900858508565" lon="11.666323210855573"><ele>867.0</ele><time>2026-05-02T15:13:39Z</time></trkpt><trkpt lat="42.89022725862794" lon="11.66635649072521"><ele>868.0</ele><time>2026-05-02T15:13:40Z</time></trkpt><trkpt lat="42.89036868602292" lon="11.66643016909136"><ele>869.0</ele><time>2026-05-02T15:13:41Z</time></trkpt><trkpt lat="42.89051114352955" lon="11.666506944678606"><ele>870.0</ele><time>2026-05-02T15:13:42Z</time></trkpt><trkpt lat="42.89065492866248" lon="11.666579239913752"><ele>870.0</ele><time>2026-05-02T15:13:43Z</time></trkpt><trkpt lat="42.89080698782289" lon="11.666661908780988"><ele>870.0</ele><time>2026-05-02T15:13:44.001Z</time></trkpt><trkpt lat="42.89095607359655" lon="11.66674254876687"><ele>870.0</ele><time>2026-05-02T15:13:45.001Z</time></trkpt><trkpt lat="42.89110422891968" lon="11.666822945756747"><ele>871.3333333333333</ele><time>2026-05-02T15:13:46.001Z</time></trkpt><trkpt lat="42.891250223412584" lon="11.666899723537762"><ele>872.6666666666666</ele><time>2026-05-02T15:13:47.001Z</time></trkpt><trkpt lat="42.891403059682446" lon="11.666980741568036"><ele>874.0</ele><time>2026-05-02T15:13:48.001Z</time></trkpt><trkpt lat="42.89155714760081" lon="11.66706822354416"><ele>872.3333333333333</ele><time>2026-05-02T15:13:49.001Z</time></trkpt><trkpt lat="42.891718013677284" lon="11.66714842866718"><ele>870.6666666666667</ele><time>2026-05-02T15:13:50.001Z</time></trkpt><trkpt lat="42.891878528362824" lon="11.6672275449778"><ele>869.0</ele><time>2026-05-02T15:13:51.001Z</time></trkpt><trkpt lat="42.89203548188139" lon="11.66731684142747"><ele>869.0</ele><time>2026-05-02T15:13:52.001Z</time></trkpt><trkpt lat="42.892194279933065" lon="11.667394728875202"><ele>869.0</ele><time>2026-05-02T15:13:53.001Z</time></trkpt><trkpt lat="42.89235166086198" lon="11.667472530904787"><ele>869.0</ele><time>2026-05-02T15:13:54.001Z</time></trkpt><trkpt lat="42.89250524105974" lon="11.66755130926755"><ele>869.6666666666667</ele><time>2026-05-02T15:13:55.001Z</time></trkpt><trkpt lat="42.8926627533404" lon="11.667632765742312"><ele>870.3333333333333</ele><time>2026-05-02T15:13:56.001Z</time></trkpt><trkpt lat="42.892827674520596" lon="11.667704937217918"><ele>871.0</ele><time>2026-05-02T15:13:57.001Z</time></trkpt><trkpt lat="42.89298930503592" lon="11.667772428924458"><ele>869.0</ele><time>2026-05-02T15:13:58.001Z</time></trkpt><trkpt lat="42.893140236301846" lon="11.667831557460977"><ele>867.0</ele><time>2026-05-02T15:13:59.001Z</time></trkpt><trkpt lat="42.89329129755509" lon="11.667895099104886"><ele>865.0</ele><time>2026-05-02T15:14:00.001Z</time></trkpt><trkpt lat="42.893440009646476" lon="11.66796475033649"><ele>865.0</ele><time>2026-05-02T15:14:01.001Z</time></trkpt><trkpt lat="42.893580631897734" lon="11.66803738061072"><ele>865.0</ele><time>2026-05-02T15:14:02.001Z</time></trkpt><trkpt lat="42.89370046546818" lon="11.668096663871301"><ele>865.0</ele><time>2026-05-02T15:14:03.001Z</time></trkpt><trkpt lat="42.89381807702822" lon="11.668147895223173"><ele>865.0</ele><time>2026-05-02T15:14:04.001Z</time></trkpt><trkpt lat="42.893927922762586" lon="11.668197481351852"><ele>865.0</ele><time>2026-05-02T15:14:05.001Z</time></trkpt><trkpt lat="42.894043502822655" lon="11.66824884433692"><ele>865.0</ele><time>2026-05-02T15:14:06.001Z</time></trkpt><trkpt lat="42.8941752156481" lon="11.668302106940759"><ele>865.0</ele><time>2026-05-02T15:14:07.001Z</time></trkpt><trkpt lat="42.89432674867479" lon="11.668360539863059"><ele>865.0</ele><time>2026-05-02T15:14:08.001Z</time></trkpt><trkpt lat="42.89447895561614" lon="11.66842163408816"><ele>866.0</ele><time>2026-05-02T15:14:09.001Z</time></trkpt><trkpt lat="42.894630444586554" lon="11.668497419298435"><ele>867.0</ele><time>2026-05-02T15:14:10.001Z</time></trkpt><trkpt lat="42.89477752740284" lon="11.668552475691843"><ele>868.0</ele><time>2026-05-02T15:14:11.001Z</time></trkpt><trkpt lat="42.89491692891597" lon="11.668588184683502"><ele>868.0</ele><time>2026-05-02T15:14:12.001Z</time></trkpt><trkpt lat="42.89506580782858" lon="11.66859392056072"><ele>868.0</ele><time>2026-05-02T15:14:13.001Z</time></trkpt><trkpt lat="42.89523305014485" lon="11.66855924225213"><ele>868.0</ele><time>2026-05-02T15:14:14.001Z</time></trkpt><trkpt lat="42.89541077867352" lon="11.668494428495718"><ele>868.0</ele><time>2026-05-02T15:14:15.001Z</time></trkpt><trkpt lat="42.89559194124006" lon="11.668417366467144"><ele>868.0</ele><time>2026-05-02T15:14:16.001Z</time></trkpt><trkpt lat="42.89576158218796" lon="11.668346918815534"><ele>868.0</ele><time>2026-05-02T15:14:17.001Z</time></trkpt><trkpt lat="42.895914738302345" lon="11.668300646406346"><ele>868.3333333333333</ele><time>2026-05-02T15:14:18.001Z</time></trkpt><trkpt lat="42.89605871283848" lon="11.668277603773753"><ele>868.6666666666667</ele><time>2026-05-02T15:14:19.001Z</time></trkpt><trkpt lat="42.89620842534552" lon="11.668287842358506"><ele>869.0</ele><time>2026-05-02T15:14:20.001Z</time></trkpt><trkpt lat="42.89637339738186" lon="11.668318625902605"><ele>869.0</ele><time>2026-05-02T15:14:21.001Z</time></trkpt><trkpt lat="42.89655524808484" lon="11.668353134718519"><ele>869.0</ele><time>2026-05-02T15:14:22.001Z</time></trkpt><trkpt lat="42.896739598104205" lon="11.66838348619491"><ele>869.0</ele><time>2026-05-02T15:14:23.001Z</time></trkpt><trkpt lat="42.896929211933234" lon="11.668421014532361"><ele>871.3333333333334</ele><time>2026-05-02T15:14:24.001Z</time></trkpt><trkpt lat="42.89711978095272" lon="11.668460468857736"><ele>873.6666666666667</ele><time>2026-05-02T15:14:25.001Z</time></trkpt><trkpt lat="42.897313656898795" lon="11.668499921354263"><ele>876.0</ele><time>2026-05-02T15:14:26.001Z</time></trkpt><trkpt lat="42.897496536733804" lon="11.66854345815602"><ele>875.6666666666667</ele><time>2026-05-02T15:14:27.001Z</time></trkpt><trkpt lat="42.897662289261795" lon="11.668578346762686"><ele>875.3333333333334</ele><time>2026-05-02T15:14:28.001Z</time></trkpt><trkpt lat="42.897817491700955" lon="11.668613537735594"><ele>875.0</ele><time>2026-05-02T15:14:29.001Z</time></trkpt><trkpt lat="42.89796344133441" lon="11.668647459368977"><ele>875.0</ele><time>2026-05-02T15:14:30.001Z</time></trkpt><trkpt lat="42.89810946260404" lon="11.668658840247696"><ele>875.0</ele><time>2026-05-02T15:14:31.001Z</time></trkpt><trkpt lat="42.8982459278679" lon="11.668630653649961"><ele>875.0</ele><time>2026-05-02T15:14:32.001Z</time></trkpt><trkpt lat="42.89837483101442" lon="11.66855674892199"><ele>875.0</ele><time>2026-05-02T15:14:33.001Z</time></trkpt><trkpt lat="42.89850466688682" lon="11.668440088871122"><ele>874.3333333333334</ele><time>2026-05-02T15:14:34.001Z</time></trkpt><trkpt lat="42.898640492040684" lon="11.668297707333975"><ele>873.6666666666667</ele><time>2026-05-02T15:14:35.001Z</time></trkpt><trkpt lat="42.89878688120549" lon="11.668149163112135"><ele>873.0</ele><time>2026-05-02T15:14:36.001Z</time></trkpt><trkpt lat="42.898941141278456" lon="11.667995283730978"><ele>873.0</ele><time>2026-05-02T15:14:37.001Z</time></trkpt><trkpt lat="42.899096104530535" lon="11.667836220451369"><ele>873.0</ele><time>2026-05-02T15:14:38.001Z</time></trkpt><trkpt lat="42.89924680554237" lon="11.667683035085973"><ele>873.0</ele><time>2026-05-02T15:14:39.001Z</time></trkpt><trkpt lat="42.89938496627128" lon="11.667544894283875"><ele>873.0</ele><time>2026-05-02T15:14:40.001Z</time></trkpt><trkpt lat="42.899518492274055" lon="11.6674269946098"><ele>873.0</ele><time>2026-05-02T15:14:41.001Z</time></trkpt><trkpt lat="42.89965677677026" lon="11.667319316931687"><ele>873.0</ele><time>2026-05-02T15:14:42.001Z</time></trkpt><trkpt lat="42.89979312953823" lon="11.667242684913795"><ele>873.0</ele><time>2026-05-02T15:14:43.001Z</time></trkpt><trkpt lat="42.89993273429323" lon="11.667242319147693"><ele>873.0</ele><time>2026-05-02T15:14:44.001Z</time></trkpt><trkpt lat="42.90007360935259" lon="11.667226406591286"><ele>873.0</ele><time>2026-05-02T15:14:45.001Z</time></trkpt><trkpt lat="42.90022233568566" lon="11.667274876644267"><ele>873.0</ele><time>2026-05-02T15:14:46.001Z</time></trkpt><trkpt lat="42.90035681568739" lon="11.667377451566974"><ele>873.6666666666667</ele><time>2026-05-02T15:14:47.001Z</time></trkpt><trkpt lat="42.90048820417866" lon="11.667506030892481"><ele>874.3333333333334</ele><time>2026-05-02T15:14:48.001Z</time></trkpt><trkpt lat="42.90062252153649" lon="11.667610473286059"><ele>875.0</ele><time>2026-05-02T15:14:49.001Z</time></trkpt><trkpt lat="42.900738816169955" lon="11.66770165549506"><ele>875.0</ele><time>2026-05-02T15:14:50.001Z</time></trkpt><trkpt lat="42.90085761114503" lon="11.667760519288084"><ele>875.0</ele><time>2026-05-02T15:14:51.001Z</time></trkpt><trkpt lat="42.90098350019039" lon="11.6677711185367"><ele>875.0</ele><time>2026-05-02T15:14:52Z</time></trkpt><trkpt lat="42.901123759377214" lon="11.667733984577708"><ele>875.0</ele><time>2026-05-02T15:14:53Z</time></trkpt><trkpt lat="42.9012732912913" lon="11.667664594671091"><ele>876.0</ele><time>2026-05-02T15:14:54Z</time></trkpt><trkpt lat="42.90143150976393" lon="11.667598504968156"><ele>877.0</ele><time>2026-05-02T15:14:55Z</time></trkpt><trkpt lat="42.901593302222935" lon="11.667605307128103"><ele>878.0</ele><time>2026-05-02T15:14:56Z</time></trkpt><trkpt lat="42.90173690532306" lon="11.667603526186422"><ele>880.5</ele><time>2026-05-02T15:14:57Z</time></trkpt><trkpt lat="42.901864439865335" lon="11.667610205283271"><ele>883.0</ele><time>2026-05-02T15:14:58Z</time></trkpt><trkpt lat="42.90198690577439" lon="11.667636921614147"><ele>885.5</ele><time>2026-05-02T15:14:59Z</time></trkpt><trkpt lat="42.90210599592537" lon="11.667705760424596"><ele>888.0</ele><time>2026-05-02T15:15:00Z</time></trkpt><trkpt lat="42.90221082429272" lon="11.667834997609173"><ele>888.0</ele><time>2026-05-02T15:15:01Z</time></trkpt><trkpt lat="42.90231348136532" lon="11.668006642137811"><ele>888.0</ele><time>2026-05-02T15:15:02Z</time></trkpt><trkpt lat="42.9024071843893" lon="11.668184940367299"><ele>888.0</ele><time>2026-05-02T15:15:03Z</time></trkpt><trkpt lat="42.90249521241338" lon="11.66833582680941"><ele>888.0</ele><time>2026-05-02T15:15:04Z</time></trkpt><trkpt lat="42.902558700692516" lon="11.668479779792179"><ele>888.0</ele><time>2026-05-02T15:15:05Z</time></trkpt><trkpt lat="42.90262428721675" lon="11.668606280409723"><ele>888.0</ele><time>2026-05-02T15:15:06Z</time></trkpt><trkpt lat="42.90268898574731" lon="11.668713166982647"><ele>888.0</ele><time>2026-05-02T15:15:07Z</time></trkpt><trkpt lat="42.902766090801066" lon="11.668812015014861"><ele>888.0</ele><time>2026-05-02T15:15:08Z</time></trkpt><trkpt lat="42.90285769350863" lon="11.668886391860793"><ele>888.8</ele><time>2026-05-02T15:15:09Z</time></trkpt><trkpt lat="42.902952046393935" lon="11.668908981969869"><ele>889.5999999999999</ele><time>2026-05-02T15:15:10Z</time></trkpt><trkpt lat="42.90304663250107" lon="11.66887408010245"><ele>890.4000000000001</ele><time>2026-05-02T15:15:11Z</time></trkpt><trkpt lat="42.90313599513302" lon="11.668790903003604"><ele>891.2</ele><time>2026-05-02T15:15:12Z</time></trkpt><trkpt lat="42.90321070743833" lon="11.66866005935998"><ele>892.0</ele><time>2026-05-02T15:15:13Z</time></trkpt><trkpt lat="42.903281367751994" lon="11.668487003333306"><ele>892.0</ele><time>2026-05-02T15:15:14Z</time></trkpt><trkpt lat="42.90336228309902" lon="11.668288916159948"><ele>892.0</ele><time>2026-05-02T15:15:15Z</time></trkpt><trkpt lat="42.90346078394959" lon="11.668072439022605"><ele>892.0</ele><time>2026-05-02T15:15:16Z</time></trkpt><trkpt lat="42.90356400794611" lon="11.667848664445136"><ele>892.6666666666666</ele><time>2026-05-02T15:15:17Z</time></trkpt><trkpt lat="42.903661412423965" lon="11.667651407235207"><ele>893.3333333333333</ele><time>2026-05-02T15:15:18Z</time></trkpt><trkpt lat="42.90374919067365" lon="11.667483534645832"><ele>894.0</ele><time>2026-05-02T15:15:19Z</time></trkpt><trkpt lat="42.903833037388516" lon="11.667338793104879"><ele>894.0</ele><time>2026-05-02T15:15:20Z</time></trkpt><trkpt lat="42.90393846723007" lon="11.667251593294282"><ele>894.0</ele><time>2026-05-02T15:15:21Z</time></trkpt><trkpt lat="42.90404489052112" lon="11.667172012914259"><ele>894.0</ele><time>2026-05-02T15:15:22Z</time></trkpt><trkpt lat="42.90415136351567" lon="11.667072977362967"><ele>894.0</ele><time>2026-05-02T15:15:23Z</time></trkpt><trkpt lat="42.90426413014522" lon="11.667010167490844"><ele>896.0</ele><time>2026-05-02T15:15:24Z</time></trkpt><trkpt lat="42.90436584101229" lon="11.666958594892215"><ele>898.0000000000001</ele><time>2026-05-02T15:15:25Z</time></trkpt><trkpt lat="42.90447085933425" lon="11.66694435649647"><ele>900.0000000000001</ele><time>2026-05-02T15:15:26Z</time></trkpt><trkpt lat="42.9045709283568" lon="11.667025317328468"><ele>902.0</ele><time>2026-05-02T15:15:27Z</time></trkpt><trkpt lat="42.90468405263512" lon="11.667063466159528"><ele>904.0</ele><time>2026-05-02T15:15:28Z</time></trkpt><trkpt lat="42.90479254938688" lon="11.667127574015007"><ele>904.0</ele><time>2026-05-02T15:15:29Z</time></trkpt><trkpt lat="42.90487650140042" lon="11.667205040508442"><ele>904.0000000000001</ele><time>2026-05-02T15:15:30Z</time></trkpt><trkpt lat="42.90494355776868" lon="11.667284093462404"><ele>904.0000000000001</ele><time>2026-05-02T15:15:31Z</time></trkpt><trkpt lat="42.90500136699982" lon="11.66737582750057"><ele>904.0</ele><time>2026-05-02T15:15:32Z</time></trkpt><trkpt lat="42.90501732307569" lon="11.667515024130442"><ele>904.0</ele><time>2026-05-02T15:15:33Z</time></trkpt><trkpt lat="42.90498513710635" lon="11.667678900854783"><ele>904.0</ele><time>2026-05-02T15:15:34Z</time></trkpt><trkpt lat="42.9049610836895" lon="11.667849857054787"><ele>904.0</ele><time>2026-05-02T15:15:35Z</time></trkpt><trkpt lat="42.904948464061235" lon="11.668010119573344"><ele>904.0</ele><time>2026-05-02T15:15:36Z</time></trkpt><trkpt lat="42.90492448515968" lon="11.668161295063685"><ele>904.0</ele><time>2026-05-02T15:15:37Z</time></trkpt><trkpt lat="42.90490605052799" lon="11.668328311358227"><ele>904.0</ele><time>2026-05-02T15:15:38Z</time></trkpt><trkpt lat="42.90489598280025" lon="11.668493926054898"><ele>904.0000000000001</ele><time>2026-05-02T15:15:39Z</time></trkpt><trkpt lat="42.904897889799706" lon="11.668641048988391"><ele>904.0000000000001</ele><time>2026-05-02T15:15:40Z</time></trkpt><trkpt lat="42.90490846101852" lon="11.668781634751854"><ele>904.0</ele><time>2026-05-02T15:15:41Z</time></trkpt><trkpt lat="42.90493473856295" lon="11.6689051848729"><ele>904.0</ele><time>2026-05-02T15:15:42Z</time></trkpt><trkpt lat="42.90498600386583" lon="11.669015020590782"><ele>902.8000000000001</ele><time>2026-05-02T15:15:43Z</time></trkpt><trkpt lat="42.90506272471902" lon="11.669081124064217"><ele>901.6000000000001</ele><time>2026-05-02T15:15:44Z</time></trkpt><trkpt lat="42.90515441990098" lon="11.669112980301087"><ele>900.4</ele><time>2026-05-02T15:15:45Z</time></trkpt><trkpt lat="42.9052658296836" lon="11.669089462751577"><ele>899.2</ele><time>2026-05-02T15:15:46Z</time></trkpt><trkpt lat="42.90537877166174" lon="11.669024941362975"><ele>898.0</ele><time>2026-05-02T15:15:47Z</time></trkpt><trkpt lat="42.90549675017485" lon="11.668941893970619"><ele>898.0</ele><time>2026-05-02T15:15:48Z</time></trkpt><trkpt lat="42.90561625451082" lon="11.668890239232661"><ele>898.0</ele><time>2026-05-02T15:15:49Z</time></trkpt><trkpt lat="42.905738635515846" lon="11.66888861467955"><ele>898.0</ele><time>2026-05-02T15:15:50Z</time></trkpt><trkpt lat="42.905855298042205" lon="11.668926823979838"><ele>898.0</ele><time>2026-05-02T15:15:51Z</time></trkpt><trkpt lat="42.90596617262067" lon="11.66898222345284"><ele>898.4</ele><time>2026-05-02T15:15:52Z</time></trkpt><trkpt lat="42.9060661956756" lon="11.669036922228692"><ele>898.8</ele><time>2026-05-02T15:15:53Z</time></trkpt><trkpt lat="42.90616286847663" lon="11.669075965857685"><ele>899.2</ele><time>2026-05-02T15:15:54Z</time></trkpt><trkpt lat="42.906269963389946" lon="11.669066053282279"><ele>899.6</ele><time>2026-05-02T15:15:55Z</time></trkpt><trkpt lat="42.90639386599022" lon="11.669001753205386"><ele>900.0</ele><time>2026-05-02T15:15:56Z</time></trkpt><trkpt lat="42.906521481848614" lon="11.668916283562995"><ele>900.0</ele><time>2026-05-02T15:15:57Z</time></trkpt><trkpt lat="42.906628992138025" lon="11.668841040605118"><ele>900.0</ele><time>2026-05-02T15:15:58Z</time></trkpt><trkpt lat="42.906735274014686" lon="11.668783238357149"><ele>900.0</ele><time>2026-05-02T15:15:59Z</time></trkpt><trkpt lat="42.90685416167024" lon="11.668735449945308"><ele>900.0</ele><time>2026-05-02T15:16:00Z</time></trkpt><trkpt lat="42.90697896701281" lon="11.66869990685587"><ele>899.75</ele><time>2026-05-02T15:16:01Z</time></trkpt><trkpt lat="42.907099646076375" lon="11.668643325696138"><ele>899.5</ele><time>2026-05-02T15:16:02Z</time></trkpt><trkpt lat="42.90722190197737" lon="11.668565177023615"><ele>899.25</ele><time>2026-05-02T15:16:03Z</time></trkpt><trkpt lat="42.90733908716914" lon="11.668467732547839"><ele>899.0</ele><time>2026-05-02T15:16:04Z</time></trkpt><trkpt lat="42.907447451302566" lon="11.668364578252266"><ele>902.25</ele><time>2026-05-02T15:16:05Z</time></trkpt><trkpt lat="42.907548343244244" lon="11.668260484583996"><ele>905.5</ele><time>2026-05-02T15:16:06Z</time></trkpt><trkpt lat="42.90762876331494" lon="11.668155634027922"><ele>908.75</ele><time>2026-05-02T15:16:07Z</time></trkpt><trkpt lat="42.907686800533504" lon="11.668036825955706"><ele>912.0</ele><time>2026-05-02T15:16:08Z</time></trkpt><trkpt lat="42.907724163744625" lon="11.667893150470812"><ele>913.3333333333334</ele><time>2026-05-02T15:16:09Z</time></trkpt><trkpt lat="42.90775186505036" lon="11.667764112208822"><ele>914.6666666666667</ele><time>2026-05-02T15:16:10Z</time></trkpt><trkpt lat="42.90778272765846" lon="11.667670397488896"><ele>916.0</ele><time>2026-05-02T15:16:11Z</time></trkpt><trkpt lat="42.90783813141761" lon="11.667593521630252"><ele>917.3333333333334</ele><time>2026-05-02T15:16:12Z</time></trkpt><trkpt lat="42.90791070243253" lon="11.667555933715322"><ele>918.6666666666667</ele><time>2026-05-02T15:16:13Z</time></trkpt><trkpt lat="42.907994334873386" lon="11.66756279624831"><ele>920.0</ele><time>2026-05-02T15:16:14Z</time></trkpt><trkpt lat="42.90807245496662" lon="11.66760385960595"><ele>920.0</ele><time>2026-05-02T15:16:15Z</time></trkpt><trkpt lat="42.908138081298894" lon="11.667676648588625"><ele>920.0</ele><time>2026-05-02T15:16:16Z</time></trkpt><trkpt lat="42.908183282575585" lon="11.66777675239483"><ele>920.0</ele><time>2026-05-02T15:16:17Z</time></trkpt><trkpt lat="42.9082144296999" lon="11.667902368824803"><ele>920.0</ele><time>2026-05-02T15:16:18Z</time></trkpt><trkpt lat="42.90823797021659" lon="11.668043167193082"><ele>920.0</ele><time>2026-05-02T15:16:19Z</time></trkpt><trkpt lat="42.90825990189201" lon="11.668200200284781"><ele>918.5</ele><time>2026-05-02T15:16:20Z</time></trkpt><trkpt lat="42.908287048532635" lon="11.668381477862384"><ele>917.0</ele><time>2026-05-02T15:16:21Z</time></trkpt><trkpt lat="42.908321717342375" lon="11.668569584695268"><ele>915.5</ele><time>2026-05-02T15:16:22Z</time></trkpt><trkpt lat="42.90835632839182" lon="11.668742947267077"><ele>914.0</ele><time>2026-05-02T15:16:23Z</time></trkpt><trkpt lat="42.90839179126055" lon="11.668895075203872"><ele>915.75</ele><time>2026-05-02T15:16:24Z</time></trkpt><trkpt lat="42.90844597206736" lon="11.669033152116606"><ele>917.5</ele><time>2026-05-02T15:16:25Z</time></trkpt><trkpt lat="42.90852828075714" lon="11.669156366363241"><ele>919.25</ele><time>2026-05-02T15:16:26Z</time></trkpt><trkpt lat="42.90863753540432" lon="11.669262600668736"><ele>921.0</ele><time>2026-05-02T15:16:27Z</time></trkpt><trkpt lat="42.9087478364946" lon="11.669350959093608"><ele>921.0</ele><time>2026-05-02T15:16:28Z</time></trkpt><trkpt lat="42.908849991056606" lon="11.66942935677813"><ele>920.9999999999999</ele><time>2026-05-02T15:16:29Z</time></trkpt><trkpt lat="42.9089465045199" lon="11.669502762837096"><ele>920.9999999999999</ele><time>2026-05-02T15:16:30Z</time></trkpt><trkpt lat="42.90903220128139" lon="11.669577293843329"><ele>921.0</ele><time>2026-05-02T15:16:31Z</time></trkpt><trkpt lat="42.90910274647629" lon="11.669669503440586"><ele>921.0</ele><time>2026-05-02T15:16:32Z</time></trkpt><trkpt lat="42.9091516270833" lon="11.669794695569678"><ele>919.75</ele><time>2026-05-02T15:16:33Z</time></trkpt><trkpt lat="42.90916662767809" lon="11.669955690583791"><ele>918.5</ele><time>2026-05-02T15:16:34Z</time></trkpt><trkpt lat="42.90915916254515" lon="11.670124914131387"><ele>917.25</ele><time>2026-05-02T15:16:35.001Z</time></trkpt><trkpt lat="42.909149988350585" lon="11.67029199689561"><ele>916.0</ele><time>2026-05-02T15:16:36.001Z</time></trkpt><trkpt lat="42.90914450099322" lon="11.670440563650818"><ele>918.1999999999999</ele><time>2026-05-02T15:16:37.001Z</time></trkpt><trkpt lat="42.90913742758143" lon="11.670585229083947"><ele>920.3999999999999</ele><time>2026-05-02T15:16:38.001Z</time></trkpt><trkpt lat="42.909136283501915" lon="11.670720194910833"><ele>922.6</ele><time>2026-05-02T15:16:39.001Z</time></trkpt><trkpt lat="42.90916320060572" lon="11.670853366587806"><ele>924.8</ele><time>2026-05-02T15:16:40.001Z</time></trkpt><trkpt lat="42.90921243374085" lon="11.671008605942864"><ele>927.0</ele><time>2026-05-02T15:16:41.001Z</time></trkpt><trkpt lat="42.90930423873439" lon="11.67110161942221"><ele>925.2</ele><time>2026-05-02T15:16:42.001Z</time></trkpt><trkpt lat="42.909380925954835" lon="11.671195235119766"><ele>923.4000000000001</ele><time>2026-05-02T15:16:43.001Z</time></trkpt><trkpt lat="42.909451200281524" lon="11.671298530083375"><ele>921.5999999999999</ele><time>2026-05-02T15:16:44.001Z</time></trkpt><trkpt lat="42.9095011346695" lon="11.671431017889303"><ele>919.8</ele><time>2026-05-02T15:16:45.001Z</time></trkpt><trkpt lat="42.90951643195046" lon="11.671589640242532"><ele>918.0</ele><time>2026-05-02T15:16:46.001Z</time></trkpt><trkpt lat="42.90950381318982" lon="11.67174660959969"><ele>918.0</ele><time>2026-05-02T15:16:47.001Z</time></trkpt><trkpt lat="42.90945245107949" lon="11.671880023997716"><ele>918.0</ele><time>2026-05-02T15:16:48.001Z</time></trkpt><trkpt lat="42.90942129667752" lon="11.67204770119125"><ele>918.0</ele><time>2026-05-02T15:16:49.001Z</time></trkpt><trkpt lat="42.909359889243326" lon="11.672198769724648"><ele>918.0</ele><time>2026-05-02T15:16:50.001Z</time></trkpt><trkpt lat="42.90931921298399" lon="11.672340486879282"><ele>918.8</ele><time>2026-05-02T15:16:51.001Z</time></trkpt><trkpt lat="42.90928120592352" lon="11.672473683564453"><ele>919.5999999999999</ele><time>2026-05-02T15:16:52.001Z</time></trkpt><trkpt lat="42.909258456428965" lon="11.672603698922977"><ele>920.4000000000001</ele><time>2026-05-02T15:16:53.001Z</time></trkpt><trkpt lat="42.909216514216745" lon="11.672711178260442"><ele>921.2</ele><time>2026-05-02T15:16:54.001Z</time></trkpt><trkpt lat="42.90917116206935" lon="11.672825825579107"><ele>922.0</ele><time>2026-05-02T15:16:55.001Z</time></trkpt><trkpt lat="42.909128803911386" lon="11.672960614182866"><ele>916.4000000000001</ele><time>2026-05-02T15:16:56.001Z</time></trkpt><trkpt lat="42.90909500264497" lon="11.67311265737307"><ele>910.8000000000001</ele><time>2026-05-02T15:16:57.001Z</time></trkpt><trkpt lat="42.909089020998266" lon="11.67326229975588"><ele>905.2</ele><time>2026-05-02T15:16:58Z</time></trkpt><trkpt lat="42.90911060590588" lon="11.673400537671261"><ele>899.6</ele><time>2026-05-02T15:16:59Z</time></trkpt><trkpt lat="42.9091621210024" lon="11.673533242923133"><ele>894.0</ele><time>2026-05-02T15:17:00Z</time></trkpt><trkpt lat="42.909239454354825" lon="11.673673443625887"><ele>894.75</ele><time>2026-05-02T15:17:01Z</time></trkpt><trkpt lat="42.90932993103881" lon="11.673793066071088"><ele>895.5</ele><time>2026-05-02T15:17:02Z</time></trkpt><trkpt lat="42.90941752255413" lon="11.673899754710282"><ele>896.25</ele><time>2026-05-02T15:17:03Z</time></trkpt><trkpt lat="42.90947734409677" lon="11.674034051206796"><ele>897.0</ele><time>2026-05-02T15:17:04Z</time></trkpt><trkpt lat="42.909523672699784" lon="11.674174697886569"><ele>897.0</ele><time>2026-05-02T15:17:05Z</time></trkpt><trkpt lat="42.90957923887998" lon="11.674328054687779"><ele>897.0</ele><time>2026-05-02T15:17:06Z</time></trkpt><trkpt lat="42.90961083259522" lon="11.674498461801484"><ele>897.0</ele><time>2026-05-02T15:17:07Z</time></trkpt><trkpt lat="42.90962708157991" lon="11.674666024925084"><ele>897.0</ele><time>2026-05-02T15:17:08Z</time></trkpt><trkpt lat="42.90961896047221" lon="11.674834435081646"><ele>896.5</ele><time>2026-05-02T15:17:09Z</time></trkpt><trkpt lat="42.90959769353693" lon="11.674998525185808"><ele>896.0</ele><time>2026-05-02T15:17:10Z</time></trkpt><trkpt lat="42.90956183735365" lon="11.675153369076988"><ele>895.5</ele><time>2026-05-02T15:17:11Z</time></trkpt><trkpt lat="42.90953463176273" lon="11.675301840430281"><ele>895.0</ele><time>2026-05-02T15:17:12Z</time></trkpt><trkpt lat="42.90954139913179" lon="11.67546120556893"><ele>893.25</ele><time>2026-05-02T15:17:13Z</time></trkpt><trkpt lat="42.90958398216537" lon="11.675649558747601"><ele>891.5</ele><time>2026-05-02T15:17:14Z</time></trkpt><trkpt lat="42.909607826484645" lon="11.675842097715426"><ele>889.75</ele><time>2026-05-02T15:17:15Z</time></trkpt><trkpt lat="42.90963943153624" lon="11.676012982061389"><ele>888.0</ele><time>2026-05-02T15:17:16Z</time></trkpt><trkpt lat="42.909667839458905" lon="11.676200343122483"><ele>884.5</ele><time>2026-05-02T15:17:17Z</time></trkpt><trkpt lat="42.909688646276194" lon="11.676392659088293"><ele>881.0</ele><time>2026-05-02T15:17:18Z</time></trkpt><trkpt lat="42.909709206546" lon="11.676584946111486"><ele>877.5</ele><time>2026-05-02T15:17:19Z</time></trkpt><trkpt lat="42.909728416962" lon="11.676767070315101"><ele>874.0</ele><time>2026-05-02T15:17:20Z</time></trkpt><trkpt lat="42.909755884310364" lon="11.676941373801908"><ele>871.75</ele><time>2026-05-02T15:17:21Z</time></trkpt><trkpt lat="42.909765225515756" lon="11.6771185960755"><ele>869.5</ele><time>2026-05-02T15:17:22Z</time></trkpt><trkpt lat="42.909761132640945" lon="11.677310856590566"><ele>867.25</ele><time>2026-05-02T15:17:23Z</time></trkpt><trkpt lat="42.9097408750114" lon="11.677486261596224"><ele>865.0</ele><time>2026-05-02T15:17:24Z</time></trkpt><trkpt lat="42.9097207834008" lon="11.67765279387149"><ele>864.75</ele><time>2026-05-02T15:17:25Z</time></trkpt><trkpt lat="42.90970256778628" lon="11.677803395314951"><ele>864.5</ele><time>2026-05-02T15:17:26Z</time></trkpt><trkpt lat="42.90967822921012" lon="11.677966953034963"><ele>864.25</ele><time>2026-05-02T15:17:27Z</time></trkpt><trkpt lat="42.90966020225579" lon="11.67811623167296"><ele>864.0</ele><time>2026-05-02T15:17:28Z</time></trkpt><trkpt lat="42.90965237378116" lon="11.678267916063193"><ele>864.0</ele><time>2026-05-02T15:17:29Z</time></trkpt><trkpt lat="42.9096733333541" lon="11.678415590566617"><ele>864.0</ele><time>2026-05-02T15:17:30Z</time></trkpt><trkpt lat="42.90971340737845" lon="11.67856747237776"><ele>864.0</ele><time>2026-05-02T15:17:31Z</time></trkpt><trkpt lat="42.909772642388056" lon="11.678696932332235"><ele>864.0</ele><time>2026-05-02T15:17:32Z</time></trkpt><trkpt lat="42.90984614869975" lon="11.678834800104507"><ele>863.75</ele><time>2026-05-02T15:17:33Z</time></trkpt><trkpt lat="42.90993083784801" lon="11.678976916120657"><ele>863.5</ele><time>2026-05-02T15:17:34Z</time></trkpt><trkpt lat="42.91002089346835" lon="11.679137785718572"><ele>863.25</ele><time>2026-05-02T15:17:35Z</time></trkpt><trkpt lat="42.910099293208056" lon="11.679286020772247"><ele>863.0</ele><time>2026-05-02T15:17:36Z</time></trkpt><trkpt lat="42.91017861554222" lon="11.679439439873121"><ele>863.0</ele><time>2026-05-02T15:17:37Z</time></trkpt><trkpt lat="42.91025368021905" lon="11.679611931348424"><ele>863.0</ele><time>2026-05-02T15:17:38Z</time></trkpt><trkpt lat="42.91036168124529" lon="11.679779433204525"><ele>863.0</ele><time>2026-05-02T15:17:39Z</time></trkpt><trkpt lat="42.9104591113392" lon="11.679963208085887"><ele>863.0</ele><time>2026-05-02T15:17:40Z</time></trkpt><trkpt lat="42.91054371755133" lon="11.68015867782115"><ele>863.0</ele><time>2026-05-02T15:17:41Z</time></trkpt><trkpt lat="42.910641841895846" lon="11.680343381214675"><ele>863.0</ele><time>2026-05-02T15:17:42Z</time></trkpt><trkpt lat="42.91073472980983" lon="11.6805182278708"><ele>863.6666666666667</ele><time>2026-05-02T15:17:43Z</time></trkpt><trkpt lat="42.910833558438604" lon="11.680674888872936"><ele>864.3333333333333</ele><time>2026-05-02T15:17:44Z</time></trkpt><trkpt lat="42.91093370538939" lon="11.68085570382183"><ele>865.0</ele><time>2026-05-02T15:17:45Z</time></trkpt><trkpt lat="42.91103965963488" lon="11.681054279517161"><ele>863.6666666666666</ele><time>2026-05-02T15:17:46Z</time></trkpt><trkpt lat="42.9111293870393" lon="11.681261107033242"><ele>862.3333333333333</ele><time>2026-05-02T15:17:47Z</time></trkpt><trkpt lat="42.91124062221619" lon="11.681436187613878"><ele>861.0</ele><time>2026-05-02T15:17:48Z</time></trkpt><trkpt lat="42.911333918036455" lon="11.68161326524026"><ele>861.0</ele><time>2026-05-02T15:17:49Z</time></trkpt><trkpt lat="42.911406221141114" lon="11.681782202975821"><ele>861.0</ele><time>2026-05-02T15:17:50Z</time></trkpt><trkpt lat="42.911505990063574" lon="11.681937352414144"><ele>861.0</ele><time>2026-05-02T15:17:51Z</time></trkpt><trkpt lat="42.91158967029961" lon="11.682105830675495"><ele>861.0</ele><time>2026-05-02T15:17:52Z</time></trkpt><trkpt lat="42.91167514372608" lon="11.682268665608772"><ele>857.75</ele><time>2026-05-02T15:17:53Z</time></trkpt><trkpt lat="42.911764087752815" lon="11.682429951597934"><ele>854.5</ele><time>2026-05-02T15:17:54Z</time></trkpt><trkpt lat="42.911848384745596" lon="11.68259039408222"><ele>851.25</ele><time>2026-05-02T15:17:55Z</time></trkpt><trkpt lat="42.91192758561645" lon="11.682741145691516"><ele>848.0</ele><time>2026-05-02T15:17:56.001Z</time></trkpt><trkpt lat="42.91200673048478" lon="11.682891939618079"><ele>848.0</ele><time>2026-05-02T15:17:57.001Z</time></trkpt><trkpt lat="42.91208408546764" lon="11.683032895315149"><ele>848.0</ele><time>2026-05-02T15:17:58.001Z</time></trkpt><trkpt lat="42.9121636742012" lon="11.683184170977677"><ele>848.0</ele><time>2026-05-02T15:17:59.001Z</time></trkpt><trkpt lat="42.91224358659387" lon="11.68333580569716"><ele>848.0</ele><time>2026-05-02T15:18:00.001Z</time></trkpt><trkpt lat="42.91231486970539" lon="11.683478481539952"><ele>848.25</ele><time>2026-05-02T15:18:01.001Z</time></trkpt><trkpt lat="42.912383484854125" lon="11.683626170661464"><ele>848.5</ele><time>2026-05-02T15:18:02.001Z</time></trkpt><trkpt lat="42.91243968068088" lon="11.683782341477386"><ele>848.75</ele><time>2026-05-02T15:18:03.001Z</time></trkpt><trkpt lat="42.91246259447162" lon="11.68397738502154"><ele>849.0</ele><time>2026-05-02T15:18:04.001Z</time></trkpt><trkpt lat="42.91247883104755" lon="11.684170223273643"><ele>849.0</ele><time>2026-05-02T15:18:05.001Z</time></trkpt><trkpt lat="42.912486511611824" lon="11.68436833564974"><ele>849.0</ele><time>2026-05-02T15:18:06.001Z</time></trkpt><trkpt lat="42.91249044918023" lon="11.684583962472777"><ele>849.0</ele><time>2026-05-02T15:18:07.001Z</time></trkpt><trkpt lat="42.912491264981426" lon="11.684842880001765"><ele>847.0</ele><time>2026-05-02T15:18:08.001Z</time></trkpt><trkpt lat="42.91249223862317" lon="11.685133764705853"><ele>845.0</ele><time>2026-05-02T15:18:09.001Z</time></trkpt><trkpt lat="42.91250922259995" lon="11.68541766038686"><ele>843.0</ele><time>2026-05-02T15:18:10.001Z</time></trkpt><trkpt lat="42.912506376124085" lon="11.685676697298375"><ele>841.3333333333333</ele><time>2026-05-02T15:18:11.001Z</time></trkpt><trkpt lat="42.9125079964627" lon="11.685923307710937"><ele>839.6666666666666</ele><time>2026-05-02T15:18:12.001Z</time></trkpt><trkpt lat="42.91250826098037" lon="11.68616258242065"><ele>838.0</ele><time>2026-05-02T15:18:13.001Z</time></trkpt><trkpt lat="42.91251006454054" lon="11.68639538183892"><ele>835.6666666666666</ele><time>2026-05-02T15:18:14.001Z</time></trkpt><trkpt lat="42.91250865114613" lon="11.686618985224117"><ele>833.3333333333333</ele><time>2026-05-02T15:18:15.001Z</time></trkpt><trkpt lat="42.91250619274408" lon="11.68684009597471"><ele>831.0</ele><time>2026-05-02T15:18:16.001Z</time></trkpt><trkpt lat="42.91250548046645" lon="11.687051536514877"><ele>830.0</ele><time>2026-05-02T15:18:17.001Z</time></trkpt><trkpt lat="42.91250481113795" lon="11.687252227485894"><ele>829.0</ele><time>2026-05-02T15:18:18.001Z</time></trkpt><trkpt lat="42.91250726904027" lon="11.68743618022872"><ele>828.0</ele><time>2026-05-02T15:18:19.001Z</time></trkpt><trkpt lat="42.91251146721693" lon="11.687610873640821"><ele>827.0</ele><time>2026-05-02T15:18:20.001Z</time></trkpt><trkpt lat="42.91253938279879" lon="11.687782206100806"><ele>824.5</ele><time>2026-05-02T15:18:21.001Z</time></trkpt><trkpt lat="42.91260746939799" lon="11.68793379591386"><ele>822.0</ele><time>2026-05-02T15:18:22.001Z</time></trkpt><trkpt lat="42.91270078368273" lon="11.688054275064257"><ele>819.5</ele><time>2026-05-02T15:18:23.001Z</time></trkpt><trkpt lat="42.91281495010927" lon="11.688146075431806"><ele>817.0</ele><time>2026-05-02T15:18:24.001Z</time></trkpt><trkpt lat="42.912955860927234" lon="11.688218433708263"><ele>817.0</ele><time>2026-05-02T15:18:25.001Z</time></trkpt><trkpt lat="42.91311907881853" lon="11.68830813993084"><ele>817.0</ele><time>2026-05-02T15:18:26.001Z</time></trkpt><trkpt lat="42.91330832772033" lon="11.688411857374462"><ele>817.0</ele><time>2026-05-02T15:18:27.001Z</time></trkpt><trkpt lat="42.913513787923925" lon="11.688523813981913"><ele>814.6666666666666</ele><time>2026-05-02T15:18:28.001Z</time></trkpt><trkpt lat="42.91371188743791" lon="11.688614606172614"><ele>812.3333333333333</ele><time>2026-05-02T15:18:29.001Z</time></trkpt><trkpt lat="42.91389265920506" lon="11.688716809919926"><ele>810.0</ele><time>2026-05-02T15:18:30.001Z</time></trkpt><trkpt lat="42.91406461595997" lon="11.688808026559148"><ele>810.0</ele><time>2026-05-02T15:18:31.001Z</time></trkpt><trkpt lat="42.91422581186218" lon="11.68889783259091"><ele>810.0</ele><time>2026-05-02T15:18:32.001Z</time></trkpt><trkpt lat="42.91437954286182" lon="11.688981905943441"><ele>810.0</ele><time>2026-05-02T15:18:33.001Z</time></trkpt><trkpt lat="42.91451768670623" lon="11.68906678076662"><ele>806.75</ele><time>2026-05-02T15:18:34.001Z</time></trkpt><trkpt lat="42.91463821776858" lon="11.689172889864613"><ele>803.5</ele><time>2026-05-02T15:18:35.001Z</time></trkpt><trkpt lat="42.91472103513325" lon="11.689324648857419"><ele>800.25</ele><time>2026-05-02T15:18:36.001Z</time></trkpt><trkpt lat="42.91479036187312" lon="11.689509671858211"><ele>797.0</ele><time>2026-05-02T15:18:37.001Z</time></trkpt><trkpt lat="42.91485023125499" lon="11.689742261137216"><ele>795.0</ele><time>2026-05-02T15:18:38.001Z</time></trkpt><trkpt lat="42.91492584855166" lon="11.69001304018825"><ele>793.0</ele><time>2026-05-02T15:18:39.001Z</time></trkpt><trkpt lat="42.91499688431147" lon="11.690323180984137"><ele>789.0</ele><time>2026-05-02T15:18:40.001Z</time></trkpt><trkpt lat="42.91507647966505" lon="11.690653093068292"><ele>785.0</ele><time>2026-05-02T15:18:41.001Z</time></trkpt><trkpt lat="42.91515893752988" lon="11.690994529283724"><ele>783.0</ele><time>2026-05-02T15:18:42.001Z</time></trkpt><trkpt lat="42.915241626865225" lon="11.691325241179815"><ele>781.0</ele><time>2026-05-02T15:18:43.001Z</time></trkpt><trkpt lat="42.91532199316436" lon="11.691642331227117"><ele>781.5</ele><time>2026-05-02T15:18:44.001Z</time></trkpt><trkpt lat="42.91539606771795" lon="11.691949924418994"><ele>782.0</ele><time>2026-05-02T15:18:45.001Z</time></trkpt><trkpt lat="42.91546252718899" lon="11.692243834325915"><ele>782.0</ele><time>2026-05-02T15:18:46.001Z</time></trkpt><trkpt lat="42.915533199701876" lon="11.692540195803696"><ele>782.0</ele><time>2026-05-02T15:18:47.001Z</time></trkpt><trkpt lat="42.91560384181971" lon="11.692821941315598"><ele>782.0</ele><time>2026-05-02T15:18:48.001Z</time></trkpt><trkpt lat="42.91567095385479" lon="11.693092593610523"><ele>781.6666666666667</ele><time>2026-05-02T15:18:49.001Z</time></trkpt><trkpt lat="42.915736627894034" lon="11.693361609321947"><ele>781.3333333333333</ele><time>2026-05-02T15:18:50.001Z</time></trkpt><trkpt lat="42.91579865373749" lon="11.693617014074826"><ele>781.0</ele><time>2026-05-02T15:18:51.001Z</time></trkpt><trkpt lat="42.915860101892555" lon="11.693869507033774"><ele>775.0</ele><time>2026-05-02T15:18:52.001Z</time></trkpt><trkpt lat="42.915920744964495" lon="11.694096405886283"><ele>769.0</ele><time>2026-05-02T15:18:53.001Z</time></trkpt><trkpt lat="42.915976006760495" lon="11.694298434413959"><ele>763.0</ele><time>2026-05-02T15:18:54.001Z</time></trkpt><trkpt lat="42.91604914840435" lon="11.694469665704094"><ele>763.0</ele><time>2026-05-02T15:18:55.001Z</time></trkpt><trkpt lat="42.91615661239051" lon="11.694613710437997"><ele>763.0</ele><time>2026-05-02T15:18:56.001Z</time></trkpt><trkpt lat="42.916294029702414" lon="11.694721712608665"><ele>763.0</ele><time>2026-05-02T15:18:57.001Z</time></trkpt><trkpt lat="42.916447674364306" lon="11.694812652532043"><ele>763.0</ele><time>2026-05-02T15:18:58.001Z</time></trkpt><trkpt lat="42.9166176089085" lon="11.694905515481485"><ele>763.0</ele><time>2026-05-02T15:18:59.001Z</time></trkpt><trkpt lat="42.91678010350365" lon="11.69500955453872"><ele>763.0</ele><time>2026-05-02T15:19:00.001Z</time></trkpt><trkpt lat="42.916933404978536" lon="11.695108445441344"><ele>759.5</ele><time>2026-05-02T15:19:01.001Z</time></trkpt><trkpt lat="42.917061398417765" lon="11.695194078078723"><ele>756.0</ele><time>2026-05-02T15:19:02.001Z</time></trkpt><trkpt lat="42.91715835361809" lon="11.695279942079026"><ele>752.5</ele><time>2026-05-02T15:19:03.001Z</time></trkpt><trkpt lat="42.917234049355244" lon="11.695390291154602"><ele>749.0</ele><time>2026-05-02T15:19:04Z</time></trkpt><trkpt lat="42.91726510223983" lon="11.695549475115017"><ele>749.0</ele><time>2026-05-02T15:19:05Z</time></trkpt><trkpt lat="42.91728279463047" lon="11.695701334276277"><ele>749.0</ele><time>2026-05-02T15:19:06Z</time></trkpt><trkpt lat="42.91726371105116" lon="11.695868545386666"><ele>749.0</ele><time>2026-05-02T15:19:07Z</time></trkpt><trkpt lat="42.91722779290946" lon="11.696066712762159"><ele>749.0</ele><time>2026-05-02T15:19:08Z</time></trkpt><trkpt lat="42.917175505281584" lon="11.696296716158104"><ele>747.0</ele><time>2026-05-02T15:19:09Z</time></trkpt><trkpt lat="42.917132502942664" lon="11.696548514699828"><ele>745.0</ele><time>2026-05-02T15:19:10Z</time></trkpt><trkpt lat="42.91708541196449" lon="11.696770620307072"><ele>743.0</ele><time>2026-05-02T15:19:11Z</time></trkpt><trkpt lat="42.917044511157066" lon="11.69698077142418"><ele>740.3333333333333</ele><time>2026-05-02T15:19:12Z</time></trkpt><trkpt lat="42.91699429163767" lon="11.697181252682755"><ele>737.6666666666666</ele><time>2026-05-02T15:19:13Z</time></trkpt><trkpt lat="42.91698821233624" lon="11.69738578823851"><ele>735.0</ele><time>2026-05-02T15:19:14Z</time></trkpt><trkpt lat="42.916986613155956" lon="11.697595100151009"><ele>734.0</ele><time>2026-05-02T15:19:15Z</time></trkpt><trkpt lat="42.91701610187797" lon="11.697837817204112"><ele>733.0</ele><time>2026-05-02T15:19:16Z</time></trkpt><trkpt lat="42.9170674400215" lon="11.698106034930746"><ele>732.0</ele><time>2026-05-02T15:19:17Z</time></trkpt><trkpt lat="42.917119313802644" lon="11.698381182204756"><ele>730.3333333333334</ele><time>2026-05-02T15:19:18Z</time></trkpt><trkpt lat="42.91717314185779" lon="11.69864889087582"><ele>728.6666666666667</ele><time>2026-05-02T15:19:19Z</time></trkpt><trkpt lat="42.917231311034406" lon="11.69891318458411"><ele>727.0</ele><time>2026-05-02T15:19:20Z</time></trkpt><trkpt lat="42.91728213048759" lon="11.699165836100635"><ele>727.0</ele><time>2026-05-02T15:19:21Z</time></trkpt><trkpt lat="42.91732218302256" lon="11.699397851747303"><ele>727.0</ele><time>2026-05-02T15:19:22Z</time></trkpt><trkpt lat="42.91735436897709" lon="11.699596586859785"><ele>727.0</ele><time>2026-05-02T15:19:23Z</time></trkpt><trkpt lat="42.917380905969445" lon="11.699767364097951"><ele>728.0</ele><time>2026-05-02T15:19:24Z</time></trkpt><trkpt lat="42.91740814401856" lon="11.69992208193622"><ele>729.0</ele><time>2026-05-02T15:19:25Z</time></trkpt><trkpt lat="42.91745572167141" lon="11.700062999879261"><ele>730.0</ele><time>2026-05-02T15:19:26Z</time></trkpt><trkpt lat="42.9175291555444" lon="11.700170339989324"><ele>731.0</ele><time>2026-05-02T15:19:27Z</time></trkpt><trkpt lat="42.91763293144793" lon="11.700223873379702"><ele>732.0</ele><time>2026-05-02T15:19:28Z</time></trkpt><trkpt lat="42.91774358144727" lon="11.700240332895241"><ele>728.2</ele><time>2026-05-02T15:19:29Z</time></trkpt><trkpt lat="42.917846284211045" lon="11.700219025181237"><ele>724.4000000000001</ele><time>2026-05-02T15:19:30Z</time></trkpt><trkpt lat="42.917935530286364" lon="11.700141603787094"><ele>720.5999999999999</ele><time>2026-05-02T15:19:31Z</time></trkpt><trkpt lat="42.91801414839693" lon="11.700028244721304"><ele>716.8</ele><time>2026-05-02T15:19:32Z</time></trkpt><trkpt lat="42.91806517739179" lon="11.699883688022343"><ele>713.0</ele><time>2026-05-02T15:19:33Z</time></trkpt><trkpt lat="42.91807659893345" lon="11.699698144224127"><ele>713.0</ele><time>2026-05-02T15:19:34Z</time></trkpt><trkpt lat="42.91805898299898" lon="11.69949298470738"><ele>713.0</ele><time>2026-05-02T15:19:35Z</time></trkpt><trkpt lat="42.91803506419529" lon="11.699282708282158"><ele>713.0</ele><time>2026-05-02T15:19:36Z</time></trkpt><trkpt lat="42.9180258289102" lon="11.69908752709545"><ele>712.75</ele><time>2026-05-02T15:19:37Z</time></trkpt><trkpt lat="42.91803093111164" lon="11.698914672031783"><ele>712.5</ele><time>2026-05-02T15:19:38Z</time></trkpt><trkpt lat="42.91806421409929" lon="11.698763722153032"><ele>712.25</ele><time>2026-05-02T15:19:39Z</time></trkpt><trkpt lat="42.91813488869564" lon="11.698619218549634"><ele>712.0</ele><time>2026-05-02T15:19:40Z</time></trkpt><trkpt lat="42.91824431923739" lon="11.69847391864759"><ele>712.6666666666667</ele><time>2026-05-02T15:19:41Z</time></trkpt><trkpt lat="42.9183992004828" lon="11.6983240770094"><ele>713.3333333333334</ele><time>2026-05-02T15:19:42Z</time></trkpt><trkpt lat="42.91857899736884" lon="11.698160095764596"><ele>714.0</ele><time>2026-05-02T15:19:43Z</time></trkpt><trkpt lat="42.91876435174871" lon="11.697974700682488"><ele>710.6666666666666</ele><time>2026-05-02T15:19:44Z</time></trkpt><trkpt lat="42.9189443240134" lon="11.697797893879105"><ele>707.3333333333333</ele><time>2026-05-02T15:19:45Z</time></trkpt><trkpt lat="42.91911986007232" lon="11.697624836364346"><ele>704.0</ele><time>2026-05-02T15:19:46Z</time></trkpt><trkpt lat="42.919292575725855" lon="11.697458343313722"><ele>699.0</ele><time>2026-05-02T15:19:47Z</time></trkpt><trkpt lat="42.91946791699163" lon="11.69729352545651"><ele>694.0</ele><time>2026-05-02T15:19:48Z</time></trkpt><trkpt lat="42.91963617528176" lon="11.69713705857926"><ele>689.0</ele><time>2026-05-02T15:19:49Z</time></trkpt><trkpt lat="42.91979436833609" lon="11.696984186264213"><ele>690.6666666666666</ele><time>2026-05-02T15:19:50Z</time></trkpt><trkpt lat="42.91993680707931" lon="11.696832261440571"><ele>692.3333333333334</ele><time>2026-05-02T15:19:51Z</time></trkpt><trkpt lat="42.92005541676977" lon="11.696678464857033"><ele>694.0</ele><time>2026-05-02T15:19:52.001Z</time></trkpt><trkpt lat="42.92016242827503" lon="11.696530035149555"><ele>687.6666666666667</ele><time>2026-05-02T15:19:53.001Z</time></trkpt><trkpt lat="42.92026494485243" lon="11.696377003781183"><ele>681.3333333333334</ele><time>2026-05-02T15:19:54.001Z</time></trkpt><trkpt lat="42.92035030935718" lon="11.696211366869925"><ele>675.0</ele><time>2026-05-02T15:19:55.001Z</time></trkpt><trkpt lat="42.92041123305877" lon="11.696018730680148"><ele>675.0</ele><time>2026-05-02T15:19:56.001Z</time></trkpt><trkpt lat="42.92045549197462" lon="11.695806399620428"><ele>675.0</ele><time>2026-05-02T15:19:57.001Z</time></trkpt><trkpt lat="42.920490626442785" lon="11.695595999783482"><ele>675.0</ele><time>2026-05-02T15:19:58.001Z</time></trkpt><trkpt lat="42.920531975633445" lon="11.695408154320113"><ele>675.0</ele><time>2026-05-02T15:19:59.001Z</time></trkpt><trkpt lat="42.920591870954816" lon="11.695275098202025"><ele>675.0</ele><time>2026-05-02T15:20:00.001Z</time></trkpt><trkpt lat="42.92065941128248" lon="11.695169316283822"><ele>675.0</ele><time>2026-05-02T15:20:01.001Z</time></trkpt><trkpt lat="42.92075088627228" lon="11.695099054881627"><ele>675.0</ele><time>2026-05-02T15:20:02.001Z</time></trkpt><trkpt lat="42.92085912181834" lon="11.695066577834055"><ele>675.0</ele><time>2026-05-02T15:20:03.001Z</time></trkpt><trkpt lat="42.92096199384929" lon="11.695080386921092"><ele>672.4</ele><time>2026-05-02T15:20:04.001Z</time></trkpt><trkpt lat="42.921054046998016" lon="11.695128774038507"><ele>669.8</ele><time>2026-05-02T15:20:05.001Z</time></trkpt><trkpt lat="42.921125369412714" lon="11.69521453060914"><ele>667.2</ele><time>2026-05-02T15:20:06.001Z</time></trkpt><trkpt lat="42.921178020700346" lon="11.695308816714261"><ele>664.6</ele><time>2026-05-02T15:20:07.001Z</time></trkpt><trkpt lat="42.92117453888062" lon="11.695430444480465"><ele>662.0</ele><time>2026-05-02T15:20:08.001Z</time></trkpt><trkpt lat="42.92114759150094" lon="11.695611114245882"><ele>660.6666666666666</ele><time>2026-05-02T15:20:09.001Z</time></trkpt><trkpt lat="42.921122178805355" lon="11.695814611090631"><ele>659.3333333333334</ele><time>2026-05-02T15:20:10.001Z</time></trkpt><trkpt lat="42.92110310391893" lon="11.696036294647149"><ele>658.0</ele><time>2026-05-02T15:20:11.001Z</time></trkpt><trkpt lat="42.92107023905295" lon="11.696255394604892"><ele>655.6666666666667</ele><time>2026-05-02T15:20:12.001Z</time></trkpt><trkpt lat="42.921019712320415" lon="11.69647144082685"><ele>653.3333333333334</ele><time>2026-05-02T15:20:13.001Z</time></trkpt><trkpt lat="42.92097713322182" lon="11.69668272102445"><ele>651.0</ele><time>2026-05-02T15:20:14.001Z</time></trkpt><trkpt lat="42.920931264562874" lon="11.696892947111422"><ele>654.75</ele><time>2026-05-02T15:20:15.001Z</time></trkpt><trkpt lat="42.92088686356627" lon="11.697092232163039"><ele>658.5</ele><time>2026-05-02T15:20:16.001Z</time></trkpt><trkpt lat="42.92084486624505" lon="11.697282348706647"><ele>662.25</ele><time>2026-05-02T15:20:17.001Z</time></trkpt><trkpt lat="42.920822054845" lon="11.697456688165948"><ele>666.0</ele><time>2026-05-02T15:20:18.001Z</time></trkpt><trkpt lat="42.920789206860476" lon="11.697612855949217"><ele>665.4</ele><time>2026-05-02T15:20:19.001Z</time></trkpt><trkpt lat="42.92078321914593" lon="11.697755813673202"><ele>664.8</ele><time>2026-05-02T15:20:20.001Z</time></trkpt><trkpt lat="42.92080919329943" lon="11.697898806419904"><ele>664.1999999999999</ele><time>2026-05-02T15:20:21.001Z</time></trkpt><trkpt lat="42.92086307457545" lon="11.698035729453185"><ele>663.5999999999999</ele><time>2026-05-02T15:20:22.001Z</time></trkpt><trkpt lat="42.92093894387535" lon="11.698150222166781"><ele>663.0</ele><time>2026-05-02T15:20:23.001Z</time></trkpt><trkpt lat="42.92103655702993" lon="11.698230903972947"><ele>657.5</ele><time>2026-05-02T15:20:24.001Z</time></trkpt><trkpt lat="42.92115075657476" lon="11.69827415548122"><ele>652.0</ele><time>2026-05-02T15:20:25.001Z</time></trkpt><trkpt lat="42.92127078537302" lon="11.698277239244906"><ele>646.5</ele><time>2026-05-02T15:20:26.001Z</time></trkpt><trkpt lat="42.92138078581915" lon="11.698252203470858"><ele>641.0</ele><time>2026-05-02T15:20:27.001Z</time></trkpt><trkpt lat="42.921481285438794" lon="11.698178771420853"><ele>641.0</ele><time>2026-05-02T15:20:28.001Z</time></trkpt><trkpt lat="42.921568123967624" lon="11.698072017614685"><ele>641.0</ele><time>2026-05-02T15:20:29.001Z</time></trkpt><trkpt lat="42.92163908840822" lon="11.697937558729697"><ele>641.0</ele><time>2026-05-02T15:20:30.001Z</time></trkpt><trkpt lat="42.921677566157385" lon="11.697764939759882"><ele>641.0</ele><time>2026-05-02T15:20:31.001Z</time></trkpt><trkpt lat="42.921712475686796" lon="11.697597198145887"><ele>638.5</ele><time>2026-05-02T15:20:32.001Z</time></trkpt><trkpt lat="42.921757832805866" lon="11.697434049087738"><ele>636.0</ele><time>2026-05-02T15:20:33.001Z</time></trkpt><trkpt lat="42.921807986407416" lon="11.69727853869259"><ele>633.5</ele><time>2026-05-02T15:20:34.001Z</time></trkpt><trkpt lat="42.921853478217734" lon="11.697129449822343"><ele>631.0</ele><time>2026-05-02T15:20:35.001Z</time></trkpt><trkpt lat="42.921906213683975" lon="11.696984543535102"><ele>632.75</ele><time>2026-05-02T15:20:36.001Z</time></trkpt><trkpt lat="42.92197945483252" lon="11.696862364057413"><ele>634.5</ele><time>2026-05-02T15:20:37.001Z</time></trkpt><trkpt lat="42.922087709119175" lon="11.696762327738831"><ele>636.25</ele><time>2026-05-02T15:20:38.001Z</time></trkpt><trkpt lat="42.92220635238973" lon="11.69669495158942"><ele>638.0</ele><time>2026-05-02T15:20:39.001Z</time></trkpt><trkpt lat="42.92231330800658" lon="11.696624271921433"><ele>638.0</ele><time>2026-05-02T15:20:40.001Z</time></trkpt><trkpt lat="42.922427732018846" lon="11.69655493580896"><ele>638.0</ele><time>2026-05-02T15:20:41.001Z</time></trkpt><trkpt lat="42.922549296683854" lon="11.696477620360337"><ele>638.0</ele><time>2026-05-02T15:20:42.001Z</time></trkpt><trkpt lat="42.92267481306876" lon="11.696393894809965"><ele>638.0</ele><time>2026-05-02T15:20:43.001Z</time></trkpt><trkpt lat="42.922793205355525" lon="11.696313043383308"><ele>635.0</ele><time>2026-05-02T15:20:44.001Z</time></trkpt><trkpt lat="42.92290233873664" lon="11.696228390860993"><ele>632.0</ele><time>2026-05-02T15:20:45.001Z</time></trkpt><trkpt lat="42.92300175244084" lon="11.696134456059037"><ele>629.0</ele><time>2026-05-02T15:20:46.001Z</time></trkpt><trkpt lat="42.92308378194545" lon="11.696024478855707"><ele>626.0</ele><time>2026-05-02T15:20:47.001Z</time></trkpt><trkpt lat="42.92316829579567" lon="11.69590836924458"><ele>626.0</ele><time>2026-05-02T15:20:48.001Z</time></trkpt><trkpt lat="42.923258487313994" lon="11.695786348481093"><ele>626.0</ele><time>2026-05-02T15:20:49.001Z</time></trkpt><trkpt lat="42.9233555390009" lon="11.695653937962847"><ele>626.0</ele><time>2026-05-02T15:20:50.001Z</time></trkpt><trkpt lat="42.92345785498352" lon="11.695509700668845"><ele>626.0</ele><time>2026-05-02T15:20:51.001Z</time></trkpt><trkpt lat="42.92355806066637" lon="11.695368806919705"><ele>623.75</ele><time>2026-05-02T15:20:52.001Z</time></trkpt><trkpt lat="42.92366126039979" lon="11.695229151981499"><ele>621.5</ele><time>2026-05-02T15:20:53.001Z</time></trkpt><trkpt lat="42.923758946167936" lon="11.695097060853941"><ele>619.25</ele><time>2026-05-02T15:20:54.001Z</time></trkpt><trkpt lat="42.92385509888139" lon="11.694960782547831"><ele>617.0</ele><time>2026-05-02T15:20:55.001Z</time></trkpt><trkpt lat="42.92395231963522" lon="11.694824374785554"><ele>617.0</ele><time>2026-05-02T15:20:56.001Z</time></trkpt><trkpt lat="42.92405160016828" lon="11.694681590255582"><ele>617.0</ele><time>2026-05-02T15:20:57.001Z</time></trkpt><trkpt lat="42.92415212976797" lon="11.69454009282108"><ele>617.0</ele><time>2026-05-02T15:20:58.001Z</time></trkpt><trkpt lat="42.924244466634825" lon="11.694408035338599"><ele>617.0</ele><time>2026-05-02T15:20:59.001Z</time></trkpt><trkpt lat="42.92433257973106" lon="11.694288162693569"><ele>614.75</ele><time>2026-05-02T15:21:00.001Z</time></trkpt><trkpt lat="42.92442053228923" lon="11.694178915623567"><ele>612.5</ele><time>2026-05-02T15:21:01.001Z</time></trkpt><trkpt lat="42.924515983734835" lon="11.694101735451225"><ele>610.25</ele><time>2026-05-02T15:21:02.001Z</time></trkpt><trkpt lat="42.92462533502274" lon="11.694052114446913"><ele>608.0</ele><time>2026-05-02T15:21:03.001Z</time></trkpt><trkpt lat="42.92473606864281" lon="11.694029871858195"><ele>608.0</ele><time>2026-05-02T15:21:04.001Z</time></trkpt><trkpt lat="42.924846226303785" lon="11.694045172715063"><ele>608.0</ele><time>2026-05-02T15:21:05.001Z</time></trkpt><trkpt lat="42.924953040798464" lon="11.694090821678882"><ele>608.0</ele><time>2026-05-02T15:21:06.001Z</time></trkpt><trkpt lat="42.92504682125502" lon="11.694193206081254"><ele>608.0</ele><time>2026-05-02T15:21:07.001Z</time></trkpt><trkpt lat="42.92513594049709" lon="11.694294905393631"><ele>604.75</ele><time>2026-05-02T15:21:08.001Z</time></trkpt><trkpt lat="42.925205105826734" lon="11.694423544160971"><ele>601.5</ele><time>2026-05-02T15:21:09.001Z</time></trkpt><trkpt lat="42.92525545482015" lon="11.694567673209447"><ele>598.25</ele><time>2026-05-02T15:21:10Z</time></trkpt><trkpt lat="42.92527947571676" lon="11.694720201089444"><ele>595.0</ele><time>2026-05-02T15:21:11Z</time></trkpt><trkpt lat="42.92527832252285" lon="11.694873833684712"><ele>595.0</ele><time>2026-05-02T15:21:12Z</time></trkpt><trkpt lat="42.92524851733001" lon="11.695039570151845"><ele>595.0</ele><time>2026-05-02T15:21:13Z</time></trkpt><trkpt lat="42.925197989838935" lon="11.695227689977541"><ele>595.0</ele><time>2026-05-02T15:21:14Z</time></trkpt><trkpt lat="42.92515257904744" lon="11.695431837548274"><ele>595.0</ele><time>2026-05-02T15:21:15Z</time></trkpt><trkpt lat="42.92508442076194" lon="11.695629432006278"><ele>595.6666666666667</ele><time>2026-05-02T15:21:16Z</time></trkpt><trkpt lat="42.92502266740983" lon="11.69583505374995"><ele>596.3333333333334</ele><time>2026-05-02T15:21:17Z</time></trkpt><trkpt lat="42.92496208225759" lon="11.696036914445989"><ele>597.0</ele><time>2026-05-02T15:21:18Z</time></trkpt><trkpt lat="42.92490243369195" lon="11.696227603332977"><ele>594.75</ele><time>2026-05-02T15:21:19Z</time></trkpt><trkpt lat="42.92484372047015" lon="11.696414763105881"><ele>592.5</ele><time>2026-05-02T15:21:20Z</time></trkpt><trkpt lat="42.924794029011444" lon="11.69659636835684"><ele>590.25</ele><time>2026-05-02T15:21:21Z</time></trkpt><trkpt lat="42.9247462879678" lon="11.696768666299004"><ele>588.0</ele><time>2026-05-02T15:21:22Z</time></trkpt><trkpt lat="42.92471430628211" lon="11.696928727103202"><ele>588.0</ele><time>2026-05-02T15:21:23Z</time></trkpt><trkpt lat="42.92470814298364" lon="11.697096102123538"><ele>588.0</ele><time>2026-05-02T15:21:24Z</time></trkpt><trkpt lat="42.924739917911076" lon="11.697271594257506"><ele>588.0</ele><time>2026-05-02T15:21:25Z</time></trkpt><trkpt lat="42.924802714516154" lon="11.697447949935638"><ele>588.0</ele><time>2026-05-02T15:21:26Z</time></trkpt><trkpt lat="42.924892040569105" lon="11.69761298206671"><ele>588.0</ele><time>2026-05-02T15:21:27Z</time></trkpt><trkpt lat="42.9250025982394" lon="11.69778925544221"><ele>588.0</ele><time>2026-05-02T15:21:28Z</time></trkpt><trkpt lat="42.925115688620515" lon="11.697947939606605"><ele>588.0</ele><time>2026-05-02T15:21:29Z</time></trkpt><trkpt lat="42.92520782688063" lon="11.698130809702265"><ele>583.0</ele><time>2026-05-02T15:21:30Z</time></trkpt><trkpt lat="42.925310186191915" lon="11.698294003988822"><ele>578.0</ele><time>2026-05-02T15:21:31Z</time></trkpt><trkpt lat="42.925422450553945" lon="11.698438166923117"><ele>573.0</ele><time>2026-05-02T15:21:32Z</time></trkpt><trkpt lat="42.925519880456186" lon="11.698595228356787"><ele>573.0</ele><time>2026-05-02T15:21:33Z</time></trkpt><trkpt lat="42.925619653438524" lon="11.698753390240757"><ele>573.0</ele><time>2026-05-02T15:21:34Z</time></trkpt><trkpt lat="42.92571607830348" lon="11.698910570666122"><ele>573.0</ele><time>2026-05-02T15:21:35Z</time></trkpt><trkpt lat="42.92581522763949" lon="11.699067339087328"><ele>571.5</ele><time>2026-05-02T15:21:36Z</time></trkpt><trkpt lat="42.92591219151435" lon="11.699224945665568"><ele>570.0</ele><time>2026-05-02T15:21:37Z</time></trkpt><trkpt lat="42.92599474488604" lon="11.699394683488144"><ele>568.5</ele><time>2026-05-02T15:21:38Z</time></trkpt><trkpt lat="42.92608663416416" lon="11.699545381006583"><ele>567.0</ele><time>2026-05-02T15:21:39Z</time></trkpt><trkpt lat="42.926176833287045" lon="11.699692909920408"><ele>566.5</ele><time>2026-05-02T15:21:40Z</time></trkpt><trkpt lat="42.92628041284271" lon="11.699818692767389"><ele>566.0</ele><time>2026-05-02T15:21:41Z</time></trkpt><trkpt lat="42.926364807748946" lon="11.699955991778685"><ele>565.5</ele><time>2026-05-02T15:21:42Z</time></trkpt><trkpt lat="42.926442164004825" lon="11.700082665473888"><ele>565.0</ele><time>2026-05-02T15:21:43Z</time></trkpt><trkpt lat="42.92649542099791" lon="11.700208195116616"><ele>564.6666666666667</ele><time>2026-05-02T15:21:44Z</time></trkpt><trkpt lat="42.92654445443331" lon="11.70030454115889"><ele>564.3333333333334</ele><time>2026-05-02T15:21:45Z</time></trkpt><trkpt lat="42.926586954835656" lon="11.70039318352986"><ele>564.0</ele><time>2026-05-02T15:21:46Z</time></trkpt><trkpt lat="42.92661569466278" lon="11.700482697487768"><ele>563.6666666666666</ele><time>2026-05-02T15:21:47Z</time></trkpt><trkpt lat="42.926651649882594" lon="11.700582692708805"><ele>563.3333333333333</ele><time>2026-05-02T15:21:48Z</time></trkpt><trkpt lat="42.926699525228614" lon="11.700680840368184"><ele>563.0</ele><time>2026-05-02T15:21:49Z</time></trkpt><trkpt lat="42.9267186492037" lon="11.70079070982273"><ele>562.8333333333333</ele><time>2026-05-02T15:21:50.001Z</time></trkpt><trkpt lat="42.926750503085565" lon="11.70088710151518"><ele>562.6666666666666</ele><time>2026-05-02T15:21:51.001Z</time></trkpt><trkpt lat="42.92680038618064" lon="11.700980014141045"><ele>562.5</ele><time>2026-05-02T15:21:52.001Z</time></trkpt><trkpt lat="42.92683364751614" lon="11.701092627294978"><ele>562.3333333333334</ele><time>2026-05-02T15:21:53.001Z</time></trkpt><trkpt lat="42.92686933404601" lon="11.701200357737374"><ele>562.1666666666667</ele><time>2026-05-02T15:21:54.001Z</time></trkpt><trkpt lat="42.92690718981361" lon="11.70131059756747"><ele>562.0</ele><time>2026-05-02T15:21:55.001Z</time></trkpt><trkpt lat="42.92695144427056" lon="11.701425269263627"><ele>560.4</ele><time>2026-05-02T15:21:56.001Z</time></trkpt><trkpt lat="42.92701036661593" lon="11.701548386830138"><ele>558.8000000000001</ele><time>2026-05-02T15:21:57.001Z</time></trkpt><trkpt lat="42.9270730973428" lon="11.7016477331908"><ele>557.2</ele><time>2026-05-02T15:21:58.001Z</time></trkpt><trkpt lat="42.92714830210638" lon="11.701728164113884"><ele>555.6</ele><time>2026-05-02T15:21:59.001Z</time></trkpt><trkpt lat="42.92722930580314" lon="11.701805058961275"><ele>554.0</ele><time>2026-05-02T15:22:00.001Z</time></trkpt><trkpt lat="42.92731481108038" lon="11.701864191070396"><ele>554.0</ele><time>2026-05-02T15:22:01.001Z</time></trkpt><trkpt lat="42.927402901365845" lon="11.701901442816414"><ele>554.0</ele><time>2026-05-02T15:22:02.001Z</time></trkpt><trkpt lat="42.92749542520337" lon="11.701923487644786"><ele>554.0</ele><time>2026-05-02T15:22:03.001Z</time></trkpt><trkpt lat="42.92758459379849" lon="11.701931524014581"><ele>554.0</ele><time>2026-05-02T15:22:04.001Z</time></trkpt><trkpt lat="42.92765996768325" lon="11.701963033953025"><ele>554.0</ele><time>2026-05-02T15:22:05.001Z</time></trkpt><trkpt lat="42.92774279646424" lon="11.7019601773038"><ele>554.0</ele><time>2026-05-02T15:22:06.001Z</time></trkpt><trkpt lat="42.9278421653293" lon="11.701981308487094"><ele>551.6666666666666</ele><time>2026-05-02T15:22:07.001Z</time></trkpt><trkpt lat="42.92794013696498" lon="11.70198956695937"><ele>549.3333333333333</ele><time>2026-05-02T15:22:08.001Z</time></trkpt><trkpt lat="42.92801786207379" lon="11.701969091730211"><ele>547.0</ele><time>2026-05-02T15:22:09.001Z</time></trkpt><trkpt lat="42.92808580738067" lon="11.701931066849696"><ele>544.6666666666666</ele><time>2026-05-02T15:22:10.001Z</time></trkpt><trkpt lat="42.92814326255722" lon="11.70187092843632"><ele>542.3333333333334</ele><time>2026-05-02T15:22:11.001Z</time></trkpt><trkpt lat="42.92819838142515" lon="11.701785545242904"><ele>540.0</ele><time>2026-05-02T15:22:12.001Z</time></trkpt><trkpt lat="42.928250857182526" lon="11.701676799281197"><ele>540.0</ele><time>2026-05-02T15:22:13.001Z</time></trkpt><trkpt lat="42.92830526717712" lon="11.701537675295667"><ele>540.0</ele><time>2026-05-02T15:22:14.001Z</time></trkpt><trkpt lat="42.92836156613321" lon="11.70138723634561"><ele>540.0</ele><time>2026-05-02T15:22:15.001Z</time></trkpt><trkpt lat="42.92842091072497" lon="11.701232772407728"><ele>540.0</ele><time>2026-05-02T15:22:16.001Z</time></trkpt><trkpt lat="42.928479865219295" lon="11.701073153632548"><ele>536.0</ele><time>2026-05-02T15:22:17.001Z</time></trkpt><trkpt lat="42.928542775333845" lon="11.700926860822731"><ele>532.0</ele><time>2026-05-02T15:22:18.001Z</time></trkpt><trkpt lat="42.928602831562884" lon="11.700782127144718"><ele>528.0</ele><time>2026-05-02T15:22:19.001Z</time></trkpt><trkpt lat="42.9286599041131" lon="11.700646533276247"><ele>524.0</ele><time>2026-05-02T15:22:20.001Z</time></trkpt><trkpt lat="42.928718356224834" lon="11.700505197997149"><ele>524.0</ele><time>2026-05-02T15:22:21.001Z</time></trkpt><trkpt lat="42.9287773866018" lon="11.700360370905917"><ele>524.0</ele><time>2026-05-02T15:22:22.001Z</time></trkpt><trkpt lat="42.92883780359459" lon="11.700210740353"><ele>524.0</ele><time>2026-05-02T15:22:23.001Z</time></trkpt><trkpt lat="42.9288959156717" lon="11.70006594278933"><ele>524.0</ele><time>2026-05-02T15:22:24.001Z</time></trkpt><trkpt lat="42.9289529839684" lon="11.699912039388472"><ele>526.0</ele><time>2026-05-02T15:22:25.001Z</time></trkpt><trkpt lat="42.92900570465892" lon="11.6997484565181"><ele>528.0</ele><time>2026-05-02T15:22:26.001Z</time></trkpt><trkpt lat="42.92905653109623" lon="11.699577634899047"><ele>530.0</ele><time>2026-05-02T15:22:27.001Z</time></trkpt><trkpt lat="42.92910254227556" lon="11.699403853996047"><ele>532.0</ele><time>2026-05-02T15:22:28.001Z</time></trkpt><trkpt lat="42.92914845029448" lon="11.699232520793707"><ele>533.5</ele><time>2026-05-02T15:22:29.001Z</time></trkpt><trkpt lat="42.929198310298005" lon="11.699058597751236"><ele>535.0</ele><time>2026-05-02T15:22:30.001Z</time></trkpt><trkpt lat="42.929244302868454" lon="11.698880354796705"><ele>536.5</ele><time>2026-05-02T15:22:31.001Z</time></trkpt><trkpt lat="42.92928750681538" lon="11.698703418541726"><ele>538.0</ele><time>2026-05-02T15:22:32.001Z</time></trkpt><trkpt lat="42.92932837971612" lon="11.698514497706293"><ele>531.75</ele><time>2026-05-02T15:22:33.001Z</time></trkpt><trkpt lat="42.92936489287287" lon="11.698321658570789"><ele>525.5</ele><time>2026-05-02T15:22:34.001Z</time></trkpt><trkpt lat="42.929396132478246" lon="11.698137725586498"><ele>519.25</ele><time>2026-05-02T15:22:35.001Z</time></trkpt><trkpt lat="42.92942153862514" lon="11.697960141879797"><ele>513.0</ele><time>2026-05-02T15:22:36.001Z</time></trkpt><trkpt lat="42.929445028667025" lon="11.697782183789323"><ele>513.25</ele><time>2026-05-02T15:22:37.001Z</time></trkpt><trkpt lat="42.929468902463114" lon="11.69760429215192"><ele>513.5</ele><time>2026-05-02T15:22:38.001Z</time></trkpt><trkpt lat="42.929485111869596" lon="11.697436195031315"><ele>513.75</ele><time>2026-05-02T15:22:39.001Z</time></trkpt><trkpt lat="42.929489765674596" lon="11.697272114310053"><ele>514.0</ele><time>2026-05-02T15:22:40.001Z</time></trkpt><trkpt lat="42.92947181838239" lon="11.697116163992803"><ele>514.0</ele><time>2026-05-02T15:22:41.001Z</time></trkpt><trkpt lat="42.9294439627772" lon="11.696967536525344"><ele>514.0</ele><time>2026-05-02T15:22:42.001Z</time></trkpt><trkpt lat="42.929416746713024" lon="11.696832509244555"><ele>514.0</ele><time>2026-05-02T15:22:43.001Z</time></trkpt><trkpt lat="42.929401193019444" lon="11.696701422245342"><ele>514.0</ele><time>2026-05-02T15:22:44.001Z</time></trkpt><trkpt lat="42.92940895719167" lon="11.69657654954812"><ele>514.0</ele><time>2026-05-02T15:22:45.001Z</time></trkpt><trkpt lat="42.92943639804684" lon="11.696473451163351"><ele>514.3333333333334</ele><time>2026-05-02T15:22:46.001Z</time></trkpt><trkpt lat="42.929484723086276" lon="11.696393322928564"><ele>514.6666666666667</ele><time>2026-05-02T15:22:47.001Z</time></trkpt><trkpt lat="42.92955243344515" lon="11.696326697096413"><ele>515.0</ele><time>2026-05-02T15:22:48.001Z</time></trkpt><trkpt lat="42.92963757957375" lon="11.696295800350322"><ele>515.3333333333334</ele><time>2026-05-02T15:22:49.001Z</time></trkpt><trkpt lat="42.92973179818029" lon="11.69629854627149"><ele>515.6666666666666</ele><time>2026-05-02T15:22:50.001Z</time></trkpt><trkpt lat="42.929824357184685" lon="11.696344919838301"><ele>516.0</ele><time>2026-05-02T15:22:51.001Z</time></trkpt><trkpt lat="42.929916896672175" lon="11.696413282806503"><ele>516.0</ele><time>2026-05-02T15:22:52.001Z</time></trkpt><trkpt lat="42.93001019808251" lon="11.696546780753454"><ele>516.0</ele><time>2026-05-02T15:22:53.001Z</time></trkpt><trkpt lat="42.930107174706116" lon="11.69666954699766"><ele>516.0</ele><time>2026-05-02T15:22:54.001Z</time></trkpt><trkpt lat="42.93019906935678" lon="11.696789717081213"><ele>516.0</ele><time>2026-05-02T15:22:55.001Z</time></trkpt><trkpt lat="42.9302897633148" lon="11.69690831691645"><ele>516.0</ele><time>2026-05-02T15:22:56.001Z</time></trkpt><trkpt lat="42.93037725928224" lon="11.69702273422138"><ele>516.0</ele><time>2026-05-02T15:22:57.001Z</time></trkpt><trkpt lat="42.93044913647206" lon="11.69714874202768"><ele>516.0</ele><time>2026-05-02T15:22:58.001Z</time></trkpt><trkpt lat="42.930504938086834" lon="11.697289229187733"><ele>516.0</ele><time>2026-05-02T15:22:59.001Z</time></trkpt><trkpt lat="42.93053834755802" lon="11.697437924265774"><ele>516.0</ele><time>2026-05-02T15:23:00.001Z</time></trkpt><trkpt lat="42.930556223899536" lon="11.69760509844462"><ele>516.0</ele><time>2026-05-02T15:23:01.001Z</time></trkpt><trkpt lat="42.930582379771856" lon="11.697782687980595"><ele>516.0</ele><time>2026-05-02T15:23:02.001Z</time></trkpt><trkpt lat="42.93058542367494" lon="11.69795543449382"><ele>516.0</ele><time>2026-05-02T15:23:03.001Z</time></trkpt><trkpt lat="42.93060049719648" lon="11.698128201880317"><ele>513.25</ele><time>2026-05-02T15:23:04.001Z</time></trkpt><trkpt lat="42.93063583847246" lon="11.698321673798006"><ele>510.5</ele><time>2026-05-02T15:23:05.001Z</time></trkpt><trkpt lat="42.93069114316895" lon="11.69851629971996"><ele>507.75</ele><time>2026-05-02T15:23:06.001Z</time></trkpt><trkpt lat="42.930749449962285" lon="11.698694353480107"><ele>505.0</ele><time>2026-05-02T15:23:07.001Z</time></trkpt><trkpt lat="42.93080027635284" lon="11.698872033646982"><ele>504.75</ele><time>2026-05-02T15:23:08.001Z</time></trkpt><trkpt lat="42.930857633741645" lon="11.699027607815598"><ele>504.5</ele><time>2026-05-02T15:23:09.001Z</time></trkpt><trkpt lat="42.93089982226917" lon="11.699167202227045"><ele>504.25</ele><time>2026-05-02T15:23:10.001Z</time></trkpt><trkpt lat="42.93094979846381" lon="11.69930287124219"><ele>504.0</ele><time>2026-05-02T15:23:11.001Z</time></trkpt><trkpt lat="42.93101173778035" lon="11.699447468775553"><ele>501.75</ele><time>2026-05-02T15:23:12.001Z</time></trkpt><trkpt lat="42.93108544877404" lon="11.699582994967715"><ele>499.5</ele><time>2026-05-02T15:23:13.001Z</time></trkpt><trkpt lat="42.931163515409224" lon="11.699699316137552"><ele>497.25</ele><time>2026-05-02T15:23:14.001Z</time></trkpt><trkpt lat="42.93123908554516" lon="11.69982131695101"><ele>495.0</ele><time>2026-05-02T15:23:15.001Z</time></trkpt><trkpt lat="42.931326344849374" lon="11.699945524489287"><ele>495.0</ele><time>2026-05-02T15:23:16Z</time></trkpt><trkpt lat="42.931417841695165" lon="11.700080281898314"><ele>495.0</ele><time>2026-05-02T15:23:17Z</time></trkpt><trkpt lat="42.93151174038993" lon="11.700218519401837"><ele>495.0</ele><time>2026-05-02T15:23:18Z</time></trkpt><trkpt lat="42.93160532723374" lon="11.700360856431512"><ele>495.0</ele><time>2026-05-02T15:23:19Z</time></trkpt><trkpt lat="42.93170064448323" lon="11.700508680814279"><ele>495.0</ele><time>2026-05-02T15:23:20Z</time></trkpt><trkpt lat="42.9317758940872" lon="11.700684993720412"><ele>495.0</ele><time>2026-05-02T15:23:21Z</time></trkpt><trkpt lat="42.93186498121565" lon="11.700852923695253"><ele>495.0</ele><time>2026-05-02T15:23:22Z</time></trkpt><trkpt lat="42.931952237374475" lon="11.70101740228356"><ele>491.5</ele><time>2026-05-02T15:23:23Z</time></trkpt><trkpt lat="42.932041567118375" lon="11.70117703887883"><ele>488.0</ele><time>2026-05-02T15:23:24Z</time></trkpt><trkpt lat="42.932140266245604" lon="11.701309017114674"><ele>484.5</ele><time>2026-05-02T15:23:25Z</time></trkpt><trkpt lat="42.932230416515885" lon="11.701436215039536"><ele>481.0</ele><time>2026-05-02T15:23:26Z</time></trkpt><trkpt lat="42.93233772705829" lon="11.701544681645549"><ele>481.0</ele><time>2026-05-02T15:23:27Z</time></trkpt><trkpt lat="42.93246045208777" lon="11.701623685153763"><ele>481.0</ele><time>2026-05-02T15:23:28Z</time></trkpt><trkpt lat="42.93259824611127" lon="11.70167555440151"><ele>481.0</ele><time>2026-05-02T15:23:29Z</time></trkpt><trkpt lat="42.93274804327554" lon="11.701704041023815"><ele>481.0</ele><time>2026-05-02T15:23:30Z</time></trkpt><trkpt lat="42.93289210370987" lon="11.701682996129861"><ele>480.0</ele><time>2026-05-02T15:23:31Z</time></trkpt><trkpt lat="42.933037012246864" lon="11.701649010135037"><ele>479.0</ele><time>2026-05-02T15:23:32Z</time></trkpt><trkpt lat="42.933185694599786" lon="11.701581422808038"><ele>478.0</ele><time>2026-05-02T15:23:33Z</time></trkpt><trkpt lat="42.933323833119665" lon="11.701503799776484"><ele>476.25</ele><time>2026-05-02T15:23:34Z</time></trkpt><trkpt lat="42.93345196693849" lon="11.70142926041857"><ele>474.5</ele><time>2026-05-02T15:23:35Z</time></trkpt><trkpt lat="42.93357043732967" lon="11.701363267182417"><ele>472.75</ele><time>2026-05-02T15:23:36Z</time></trkpt><trkpt lat="42.93368672738695" lon="11.7013146080385"><ele>471.0</ele><time>2026-05-02T15:23:37Z</time></trkpt><trkpt lat="42.9338032727392" lon="11.701293694129248"><ele>471.0</ele><time>2026-05-02T15:23:38Z</time></trkpt><trkpt lat="42.93391596111323" lon="11.701331647726516"><ele>471.0</ele><time>2026-05-02T15:23:39Z</time></trkpt><trkpt lat="42.93404426338622" lon="11.701336184961312"><ele>471.0</ele><time>2026-05-02T15:23:40Z</time></trkpt><trkpt lat="42.93417178843525" lon="11.701365233855835"><ele>471.0</ele><time>2026-05-02T15:23:41Z</time></trkpt><trkpt lat="42.93429931984411" lon="11.701382416071482"><ele>470.25</ele><time>2026-05-02T15:23:42Z</time></trkpt><trkpt lat="42.93442994304879" lon="11.701408185890601"><ele>469.5</ele><time>2026-05-02T15:23:43Z</time></trkpt><trkpt lat="42.93456370392956" lon="11.701450710372134"><ele>468.75</ele><time>2026-05-02T15:23:44Z</time></trkpt><trkpt lat="42.93470244423386" lon="11.701455754785615"><ele>468.0</ele><time>2026-05-02T15:23:45Z</time></trkpt><trkpt lat="42.93483375235643" lon="11.701484455867119"><ele>468.0</ele><time>2026-05-02T15:23:46Z</time></trkpt><trkpt lat="42.93495676968332" lon="11.701514158438645"><ele>468.0</ele><time>2026-05-02T15:23:47Z</time></trkpt><trkpt lat="42.93508260465934" lon="11.701548081942208"><ele>468.0</ele><time>2026-05-02T15:23:48Z</time></trkpt><trkpt lat="42.93520270106505" lon="11.701588552132433"><ele>468.0</ele><time>2026-05-02T15:23:49Z</time></trkpt><trkpt lat="42.9353131288321" lon="11.701646059595078"><ele>468.25</ele><time>2026-05-02T15:23:50Z</time></trkpt><trkpt lat="42.93540857071008" lon="11.701758819032257"><ele>468.5</ele><time>2026-05-02T15:23:51Z</time></trkpt><trkpt lat="42.935505976062515" lon="11.701869424903032"><ele>468.75</ele><time>2026-05-02T15:23:52Z</time></trkpt><trkpt lat="42.935585428970846" lon="11.701997369975865"><ele>469.0</ele><time>2026-05-02T15:23:53Z</time></trkpt><trkpt lat="42.935643467423226" lon="11.702143033140572"><ele>469.0</ele><time>2026-05-02T15:23:54Z</time></trkpt><trkpt lat="42.935689070852625" lon="11.702297720436944"><ele>469.0</ele><time>2026-05-02T15:23:55Z</time></trkpt><trkpt lat="42.93570806190232" lon="11.702472962703249"><ele>469.0</ele><time>2026-05-02T15:23:56Z</time></trkpt><trkpt lat="42.935717335783416" lon="11.702665372735373"><ele>469.0</ele><time>2026-05-02T15:23:57Z</time></trkpt><trkpt lat="42.93572380896554" lon="11.702860512423499"><ele>467.0</ele><time>2026-05-02T15:23:58Z</time></trkpt><trkpt lat="42.93573106444586" lon="11.703079235367992"><ele>465.0</ele><time>2026-05-02T15:23:59Z</time></trkpt><trkpt lat="42.93573764579665" lon="11.70327763607803"><ele>463.0</ele><time>2026-05-02T15:24:00Z</time></trkpt><trkpt lat="42.935744297086785" lon="11.703478145084011"><ele>460.6666666666667</ele><time>2026-05-02T15:24:01.001Z</time></trkpt><trkpt lat="42.935766890670045" lon="11.703687195128195"><ele>458.33333333333337</ele><time>2026-05-02T15:24:02.001Z</time></trkpt><trkpt lat="42.935774573817305" lon="11.703910436779124"><ele>456.0</ele><time>2026-05-02T15:24:03.001Z</time></trkpt><trkpt lat="42.935779592037534" lon="11.704120893770455"><ele>456.0</ele><time>2026-05-02T15:24:04.001Z</time></trkpt><trkpt lat="42.935786293247645" lon="11.70432004981793"><ele>456.0</ele><time>2026-05-02T15:24:05.001Z</time></trkpt><trkpt lat="42.93579264122105" lon="11.70452009787481"><ele>456.0</ele><time>2026-05-02T15:24:06.001Z</time></trkpt><trkpt lat="42.9357966865987" lon="11.704719196915768"><ele>456.0</ele><time>2026-05-02T15:24:07.001Z</time></trkpt><trkpt lat="42.935805490454406" lon="11.704926770333374"><ele>455.25</ele><time>2026-05-02T15:24:08.001Z</time></trkpt><trkpt lat="42.93581661976301" lon="11.705138850590151"><ele>454.5</ele><time>2026-05-02T15:24:09.001Z</time></trkpt><trkpt lat="42.93584010124191" lon="11.705332299316341"><ele>453.75</ele><time>2026-05-02T15:24:10.001Z</time></trkpt><trkpt lat="42.93586706780335" lon="11.70552221447706"><ele>453.0</ele><time>2026-05-02T15:24:11.001Z</time></trkpt><trkpt lat="42.935905256634605" lon="11.705699226805017"><ele>452.5</ele><time>2026-05-02T15:24:12.001Z</time></trkpt><trkpt lat="42.93595986524494" lon="11.705867366522838"><ele>452.0</ele><time>2026-05-02T15:24:13.001Z</time></trkpt><trkpt lat="42.936032442186665" lon="11.706019652013604"><ele>451.5</ele><time>2026-05-02T15:24:14.001Z</time></trkpt><trkpt lat="42.93612771505572" lon="11.706165476909376"><ele>451.0</ele><time>2026-05-02T15:24:15.001Z</time></trkpt><trkpt lat="42.9362552123237" lon="11.706288380296334"><ele>451.0</ele><time>2026-05-02T15:24:16.001Z</time></trkpt><trkpt lat="42.93636788024334" lon="11.706401875684339"><ele>451.0</ele><time>2026-05-02T15:24:17.001Z</time></trkpt><trkpt lat="42.93646921118784" lon="11.70651700448014"><ele>451.0</ele><time>2026-05-02T15:24:18.001Z</time></trkpt><trkpt lat="42.93653947099729" lon="11.706667809416212"><ele>451.0</ele><time>2026-05-02T15:24:19.001Z</time></trkpt><trkpt lat="42.936613182915416" lon="11.706833859030954"><ele>449.5</ele><time>2026-05-02T15:24:20.001Z</time></trkpt><trkpt lat="42.93666648259554" lon="11.707020159542068"><ele>448.0</ele><time>2026-05-02T15:24:21.001Z</time></trkpt><trkpt lat="42.936691426258285" lon="11.707210509175798"><ele>446.5</ele><time>2026-05-02T15:24:22.001Z</time></trkpt><trkpt lat="42.93670363012196" lon="11.707414206367583"><ele>445.0</ele><time>2026-05-02T15:24:23.001Z</time></trkpt><trkpt lat="42.93672437297634" lon="11.707621112808745"><ele>449.0</ele><time>2026-05-02T15:24:24.001Z</time></trkpt><trkpt lat="42.93672957618378" lon="11.707845371188565"><ele>453.0</ele><time>2026-05-02T15:24:25.001Z</time></trkpt><trkpt lat="42.93673436849481" lon="11.708067323649153"><ele>457.0</ele><time>2026-05-02T15:24:26.001Z</time></trkpt><trkpt lat="42.93674014831139" lon="11.708295171541156"><ele>457.0</ele><time>2026-05-02T15:24:27.001Z</time></trkpt><trkpt lat="42.93674735749563" lon="11.708530654794247"><ele>457.0</ele><time>2026-05-02T15:24:28.001Z</time></trkpt><trkpt lat="42.93676015340206" lon="11.708787126473238"><ele>457.0</ele><time>2026-05-02T15:24:29.001Z</time></trkpt><trkpt lat="42.93677608765187" lon="11.709069478307779"><ele>456.0</ele><time>2026-05-02T15:24:30.001Z</time></trkpt><trkpt lat="42.93678093541642" lon="11.709369773330042"><ele>455.0</ele><time>2026-05-02T15:24:31.001Z</time></trkpt><trkpt lat="42.93675824268849" lon="11.709653605651487"><ele>454.0</ele><time>2026-05-02T15:24:32.001Z</time></trkpt><trkpt lat="42.93677200285135" lon="11.709915979155797"><ele>453.33333333333337</ele><time>2026-05-02T15:24:33.001Z</time></trkpt><trkpt lat="42.936774106558886" lon="11.710162614743776"><ele>452.66666666666663</ele><time>2026-05-02T15:24:34.001Z</time></trkpt><trkpt lat="42.93677816835566" lon="11.710393398714071"><ele>452.0</ele><time>2026-05-02T15:24:35.001Z</time></trkpt><trkpt lat="42.936781380864325" lon="11.710608162180636"><ele>450.5</ele><time>2026-05-02T15:24:36.001Z</time></trkpt><trkpt lat="42.93678668302692" lon="11.710799578842943"><ele>449.0</ele><time>2026-05-02T15:24:37.001Z</time></trkpt><trkpt lat="42.93680050054319" lon="11.710975886048116"><ele>447.5</ele><time>2026-05-02T15:24:38.001Z</time></trkpt><trkpt lat="42.93682902242669" lon="11.71113481014442"><ele>446.0</ele><time>2026-05-02T15:24:39.001Z</time></trkpt><trkpt lat="42.93688338355738" lon="11.711283285853106"><ele>442.0</ele><time>2026-05-02T15:24:40.001Z</time></trkpt><trkpt lat="42.936964259585906" lon="11.71140279557453"><ele>438.0</ele><time>2026-05-02T15:24:41.001Z</time></trkpt><trkpt lat="42.937065603022305" lon="11.711491439787672"><ele>434.0</ele><time>2026-05-02T15:24:42.001Z</time></trkpt><trkpt lat="42.93719363344478" lon="11.711553259171888"><ele>430.0</ele><time>2026-05-02T15:24:43.001Z</time></trkpt><trkpt lat="42.937358093203336" lon="11.711592039144039"><ele>429.33333333333337</ele><time>2026-05-02T15:24:44.001Z</time></trkpt><trkpt lat="42.93755473817723" lon="11.711643637526812"><ele>428.66666666666663</ele><time>2026-05-02T15:24:45.001Z</time></trkpt><trkpt lat="42.93775784567036" lon="11.711711346672688"><ele>428.0</ele><time>2026-05-02T15:24:46.001Z</time></trkpt><trkpt lat="42.93794202745296" lon="11.711780575888069"><ele>428.0</ele><time>2026-05-02T15:24:47.001Z</time></trkpt><trkpt lat="42.938105307966055" lon="11.71183371263302"><ele>428.0</ele><time>2026-05-02T15:24:48.001Z</time></trkpt><trkpt lat="42.93826257402783" lon="11.711870489932728"><ele>428.0</ele><time>2026-05-02T15:24:49.001Z</time></trkpt><trkpt lat="42.938427382347015" lon="11.711882464552598"><ele>426.66666666666663</ele><time>2026-05-02T15:24:50.001Z</time></trkpt><trkpt lat="42.93859135727603" lon="11.711862936693759"><ele>425.33333333333337</ele><time>2026-05-02T15:24:51.001Z</time></trkpt><trkpt lat="42.93876728510901" lon="11.711811309261524"><ele>424.0</ele><time>2026-05-02T15:24:52.001Z</time></trkpt><trkpt lat="42.93896561748936" lon="11.711717031094341"><ele>424.0</ele><time>2026-05-02T15:24:53.001Z</time></trkpt><trkpt lat="42.939170493942605" lon="11.711611521646587"><ele>424.0</ele><time>2026-05-02T15:24:54.001Z</time></trkpt><trkpt lat="42.93936282380649" lon="11.7115104775261"><ele>424.0</ele><time>2026-05-02T15:24:55.001Z</time></trkpt><trkpt lat="42.93953863061753" lon="11.711418936654633"><ele>421.33333333333337</ele><time>2026-05-02T15:24:56.001Z</time></trkpt><trkpt lat="42.939703927617096" lon="11.711324053270518"><ele>418.66666666666663</ele><time>2026-05-02T15:24:57.001Z</time></trkpt><trkpt lat="42.93987640710688" lon="11.711223923156375"><ele>416.0</ele><time>2026-05-02T15:24:58.001Z</time></trkpt><trkpt lat="42.940043673123895" lon="11.711120731752908"><ele>416.0</ele><time>2026-05-02T15:24:59.001Z</time></trkpt><trkpt lat="42.94019494264775" lon="11.711009590320817"><ele>416.0</ele><time>2026-05-02T15:25:00.001Z</time></trkpt><trkpt lat="42.94033229779815" lon="11.71089164917697"><ele>416.0</ele><time>2026-05-02T15:25:01.001Z</time></trkpt><trkpt lat="42.940455449917636" lon="11.710784905750419"><ele>416.0</ele><time>2026-05-02T15:25:02.001Z</time></trkpt><trkpt lat="42.94056159615911" lon="11.710702838772972"><ele>416.0</ele><time>2026-05-02T15:25:03.001Z</time></trkpt><trkpt lat="42.940656620608266" lon="11.71065064208184"><ele>416.0</ele><time>2026-05-02T15:25:04.001Z</time></trkpt><trkpt lat="42.94074068515969" lon="11.710637860082164"><ele>416.0</ele><time>2026-05-02T15:25:05.001Z</time></trkpt><trkpt lat="42.94081535717143" lon="11.710660269387082"><ele>416.0</ele><time>2026-05-02T15:25:06.001Z</time></trkpt><trkpt lat="42.94088235637574" lon="11.710708776731014"><ele>415.16666666666663</ele><time>2026-05-02T15:25:07.001Z</time></trkpt><trkpt lat="42.94095075971737" lon="11.710785670431303"><ele>414.3333333333333</ele><time>2026-05-02T15:25:09.001Z</time></trkpt><trkpt lat="42.94100534152802" lon="11.710854809981193"><ele>413.5</ele><time>2026-05-02T15:25:13.001Z</time></trkpt><trkpt lat="42.94106584138408" lon="11.710927313582529"><ele>412.66666666666663</ele><time>2026-05-02T15:25:15.001Z</time></trkpt><trkpt lat="42.94116724637645" lon="11.71092320563104"><ele>411.8333333333333</ele><time>2026-05-02T15:25:16.001Z</time></trkpt><trkpt lat="42.941268066300275" lon="11.710893079125933"><ele>411.0</ele><time>2026-05-02T15:25:17.001Z</time></trkpt><trkpt lat="42.94137963490456" lon="11.71085676718674"><ele>411.0</ele><time>2026-05-02T15:25:18.001Z</time></trkpt><trkpt lat="42.941510530493886" lon="11.710846599965452"><ele>411.0</ele><time>2026-05-02T15:25:19.001Z</time></trkpt><trkpt lat="42.94165294917772" lon="11.71081058770918"><ele>411.0</ele><time>2026-05-02T15:25:20.001Z</time></trkpt><trkpt lat="42.94182391437101" lon="11.710779380823249"><ele>411.0</ele><time>2026-05-02T15:25:21.001Z</time></trkpt><trkpt lat="42.94202395751207" lon="11.710741653228633"><ele>408.0</ele><time>2026-05-02T15:25:22Z</time></trkpt><trkpt lat="42.94224988159365" lon="11.71070227417694"><ele>405.0</ele><time>2026-05-02T15:25:23Z</time></trkpt><trkpt lat="42.94249654803423" lon="11.710660615072358"><ele>405.0</ele><time>2026-05-02T15:25:24Z</time></trkpt><trkpt lat="42.94275645974418" lon="11.710618707605843"><ele>405.0</ele><time>2026-05-02T15:25:25Z</time></trkpt><trkpt lat="42.94302077039039" lon="11.71056065051667"><ele>405.0</ele><time>2026-05-02T15:25:26Z</time></trkpt><trkpt lat="42.943284850508846" lon="11.710520911744847"><ele>405.0</ele><time>2026-05-02T15:25:27Z</time></trkpt><trkpt lat="42.943543638785094" lon="11.710479989761861"><ele>404.0</ele><time>2026-05-02T15:25:28Z</time></trkpt><trkpt lat="42.943797970723594" lon="11.710442509282293"><ele>403.0</ele><time>2026-05-02T15:25:29Z</time></trkpt><trkpt lat="42.94405450075574" lon="11.710397820421715"><ele>401.5</ele><time>2026-05-02T15:25:30Z</time></trkpt><trkpt lat="42.94430493444754" lon="11.710351340332457"><ele>400.0</ele><time>2026-05-02T15:25:31Z</time></trkpt><trkpt lat="42.94456039551837" lon="11.710304596983786"><ele>400.0</ele><time>2026-05-02T15:25:32Z</time></trkpt><trkpt lat="42.94481558716029" lon="11.710248311685856"><ele>400.0</ele><time>2026-05-02T15:25:33Z</time></trkpt><trkpt lat="42.94507430529997" lon="11.71017313495594"><ele>400.0</ele><time>2026-05-02T15:25:34Z</time></trkpt><trkpt lat="42.94532905051557" lon="11.710074514232637"><ele>400.0</ele><time>2026-05-02T15:25:35Z</time></trkpt><trkpt lat="42.945584287742946" lon="11.709962298566893"><ele>400.0</ele><time>2026-05-02T15:25:36Z</time></trkpt><trkpt lat="42.945840875691225" lon="11.709833128186828"><ele>400.0</ele><time>2026-05-02T15:25:37Z</time></trkpt><trkpt lat="42.94608735022243" lon="11.70970221215347"><ele>399.0</ele><time>2026-05-02T15:25:38Z</time></trkpt><trkpt lat="42.946316066147354" lon="11.709586550892272"><ele>398.0</ele><time>2026-05-02T15:25:39Z</time></trkpt><trkpt lat="42.94653990729714" lon="11.70947051568089"><ele>398.0</ele><time>2026-05-02T15:25:40Z</time></trkpt><trkpt lat="42.946749432314924" lon="11.709364190846939"><ele>398.0</ele><time>2026-05-02T15:25:41Z</time></trkpt><trkpt lat="42.946951068417114" lon="11.709262787963588"><ele>398.0</ele><time>2026-05-02T15:25:42Z</time></trkpt><trkpt lat="42.947152132050626" lon="11.709163526719683"><ele>398.0</ele><time>2026-05-02T15:25:43Z</time></trkpt><trkpt lat="42.94735783519501" lon="11.709061051312384"><ele>398.0</ele><time>2026-05-02T15:25:44Z</time></trkpt><trkpt lat="42.94756185451894" lon="11.708955884185302"><ele>398.0</ele><time>2026-05-02T15:25:45Z</time></trkpt><trkpt lat="42.94776616936928" lon="11.708850654370922"><ele>397.66666666666663</ele><time>2026-05-02T15:25:46Z</time></trkpt><trkpt lat="42.947969471496535" lon="11.708747867557632"><ele>397.33333333333337</ele><time>2026-05-02T15:25:47Z</time></trkpt><trkpt lat="42.94817737163407" lon="11.708643459302898"><ele>397.0</ele><time>2026-05-02T15:25:48Z</time></trkpt><trkpt lat="42.94838830183985" lon="11.708542376834423"><ele>397.0</ele><time>2026-05-02T15:25:49Z</time></trkpt><trkpt lat="42.9486028007112" lon="11.70844041560013"><ele>397.0</ele><time>2026-05-02T15:25:50Z</time></trkpt><trkpt lat="42.94882167588086" lon="11.708342467699405"><ele>397.0</ele><time>2026-05-02T15:25:51Z</time></trkpt><trkpt lat="42.94904617434595" lon="11.708249122975554"><ele>397.0</ele><time>2026-05-02T15:25:52Z</time></trkpt><trkpt lat="42.949273771657516" lon="11.708157721595086"><ele>396.0</ele><time>2026-05-02T15:25:53Z</time></trkpt><trkpt lat="42.94950040068178" lon="11.708072928845208"><ele>395.0</ele><time>2026-05-02T15:25:54Z</time></trkpt><trkpt lat="42.94972698409624" lon="11.708000610522767"><ele>395.0</ele><time>2026-05-02T15:25:55Z</time></trkpt><trkpt lat="42.94995477865629" lon="11.70794396772372"><ele>395.0</ele><time>2026-05-02T15:25:56Z</time></trkpt><trkpt lat="42.95018705732652" lon="11.707898134276213"><ele>393.5</ele><time>2026-05-02T15:25:57Z</time></trkpt><trkpt lat="42.95042106094026" lon="11.70785166965595"><ele>392.0</ele><time>2026-05-02T15:25:58Z</time></trkpt><trkpt lat="42.950654327363544" lon="11.70780558390665"><ele>391.5</ele><time>2026-05-02T15:25:59Z</time></trkpt><trkpt lat="42.95088805637656" lon="11.707760578976032"><ele>391.0</ele><time>2026-05-02T15:26:00Z</time></trkpt><trkpt lat="42.951123603008455" lon="11.70771540873022"><ele>395.0</ele><time>2026-05-02T15:26:01Z</time></trkpt><trkpt lat="42.951364377281195" lon="11.707671390680623"><ele>399.0</ele><time>2026-05-02T15:26:02Z</time></trkpt><trkpt lat="42.95160543493295" lon="11.707629285317458"><ele>396.5</ele><time>2026-05-02T15:26:03Z</time></trkpt><trkpt lat="42.95185004678155" lon="11.707586873901167"><ele>394.0</ele><time>2026-05-02T15:26:04Z</time></trkpt><trkpt lat="42.952098514422765" lon="11.707544275614044"><ele>394.0</ele><time>2026-05-02T15:26:05Z</time></trkpt><trkpt lat="42.95234631339631" lon="11.707500984127487"><ele>394.0</ele><time>2026-05-02T15:26:06Z</time></trkpt><trkpt lat="42.95259460696087" lon="11.707458925430734"><ele>391.0</ele><time>2026-05-02T15:26:07Z</time></trkpt><trkpt lat="42.952841588085896" lon="11.707414229576695"><ele>388.0</ele><time>2026-05-02T15:26:08Z</time></trkpt><trkpt lat="42.953087084951036" lon="11.707369943556834"><ele>388.0</ele><time>2026-05-02T15:26:09Z</time></trkpt><trkpt lat="42.953328257012664" lon="11.707328393875464"><ele>388.0</ele><time>2026-05-02T15:26:10Z</time></trkpt><trkpt lat="42.9535669360372" lon="11.707286572831682"><ele>386.5</ele><time>2026-05-02T15:26:11Z</time></trkpt><trkpt lat="42.95380317860529" lon="11.707246384481968"><ele>385.0</ele><time>2026-05-02T15:26:12Z</time></trkpt><trkpt lat="42.95403656205404" lon="11.707203585478682"><ele>384.0</ele><time>2026-05-02T15:26:13Z</time></trkpt><trkpt lat="42.95427181519114" lon="11.707159851769402"><ele>383.0</ele><time>2026-05-02T15:26:14.001Z</time></trkpt><trkpt lat="42.9545043177379" lon="11.707118561495822"><ele>383.0</ele><time>2026-05-02T15:26:15.001Z</time></trkpt><trkpt lat="42.95473917959069" lon="11.707077928241539"><ele>383.0</ele><time>2026-05-02T15:26:16.001Z</time></trkpt><trkpt lat="42.954973391726874" lon="11.707038797476251"><ele>382.0</ele><time>2026-05-02T15:26:17.001Z</time></trkpt><trkpt lat="42.95520898342369" lon="11.706999698192798"><ele>381.0</ele><time>2026-05-02T15:26:18.001Z</time></trkpt><trkpt lat="42.955447173758294" lon="11.706958772517321"><ele>381.0</ele><time>2026-05-02T15:26:19.001Z</time></trkpt><trkpt lat="42.95568623704692" lon="11.706916640681804"><ele>381.0</ele><time>2026-05-02T15:26:20.001Z</time></trkpt><trkpt lat="42.9559259592823" lon="11.706873337731583"><ele>384.0</ele><time>2026-05-02T15:26:21.001Z</time></trkpt><trkpt lat="42.95616739885429" lon="11.706832098381739"><ele>387.0</ele><time>2026-05-02T15:26:22.001Z</time></trkpt><trkpt lat="42.95641639356921" lon="11.706788587458005"><ele>387.0</ele><time>2026-05-02T15:26:23.001Z</time></trkpt><trkpt lat="42.95666081023072" lon="11.706744948773668"><ele>387.0</ele><time>2026-05-02T15:26:24.001Z</time></trkpt><trkpt lat="42.95690779150326" lon="11.706698141161905"><ele>385.5</ele><time>2026-05-02T15:26:25.001Z</time></trkpt><trkpt lat="42.9571561763168" lon="11.706656209435792"><ele>384.0</ele><time>2026-05-02T15:26:26.001Z</time></trkpt><trkpt lat="42.95740461416366" lon="11.706611700237536"><ele>382.5</ele><time>2026-05-02T15:26:27.001Z</time></trkpt><trkpt lat="42.9576503909208" lon="11.70656721274043"><ele>381.0</ele><time>2026-05-02T15:26:28.001Z</time></trkpt><trkpt lat="42.957898523236416" lon="11.706526164530022"><ele>381.0</ele><time>2026-05-02T15:26:29.001Z</time></trkpt><trkpt lat="42.95814569174364" lon="11.7064859060984"><ele>381.0</ele><time>2026-05-02T15:26:30.001Z</time></trkpt><trkpt lat="42.95838852884916" lon="11.706441470561712"><ele>379.0</ele><time>2026-05-02T15:26:31.001Z</time></trkpt><trkpt lat="42.958630447404815" lon="11.706396975824282"><ele>377.0</ele><time>2026-05-02T15:26:32.001Z</time></trkpt><trkpt lat="42.95887394863981" lon="11.706352962106779"><ele>377.0</ele><time>2026-05-02T15:26:33.001Z</time></trkpt><trkpt lat="42.95911779915135" lon="11.706309119050404"><ele>377.0</ele><time>2026-05-02T15:26:34.001Z</time></trkpt><trkpt lat="42.959361323563215" lon="11.706269040388142"><ele>376.5</ele><time>2026-05-02T15:26:35.001Z</time></trkpt><trkpt lat="42.95960479340797" lon="11.706234496516364"><ele>376.0</ele><time>2026-05-02T15:26:36.001Z</time></trkpt><trkpt lat="42.959847437746085" lon="11.706203304047682"><ele>374.5</ele><time>2026-05-02T15:26:37.001Z</time></trkpt><trkpt lat="42.9600930471807" lon="11.70616946032227"><ele>373.0</ele><time>2026-05-02T15:26:38.001Z</time></trkpt><trkpt lat="42.960340365686804" lon="11.706141759714177"><ele>373.0</ele><time>2026-05-02T15:26:39.001Z</time></trkpt><trkpt lat="42.96059230091347" lon="11.706115279859803"><ele>373.0</ele><time>2026-05-02T15:26:40.001Z</time></trkpt><trkpt lat="42.960832693875666" lon="11.706088464926037"><ele>376.5</ele><time>2026-05-02T15:26:41.001Z</time></trkpt><trkpt lat="42.96107859328182" lon="11.70606225403853"><ele>380.0</ele><time>2026-05-02T15:26:42.001Z</time></trkpt><trkpt lat="42.96132240442043" lon="11.706039016385782"><ele>380.0</ele><time>2026-05-02T15:26:43.001Z</time></trkpt><trkpt lat="42.96156939256696" lon="11.706023870153308"><ele>380.0</ele><time>2026-05-02T15:26:44.001Z</time></trkpt><trkpt lat="42.96181565679823" lon="11.706004750274692"><ele>378.0</ele><time>2026-05-02T15:26:45.001Z</time></trkpt><trkpt lat="42.96206252086308" lon="11.705990683362712"><ele>376.0</ele><time>2026-05-02T15:26:46.001Z</time></trkpt><trkpt lat="42.96230831341661" lon="11.705980631391393"><ele>375.0</ele><time>2026-05-02T15:26:47.001Z</time></trkpt><trkpt lat="42.9625582943296" lon="11.705966852276774"><ele>374.0</ele><time>2026-05-02T15:26:48.001Z</time></trkpt><trkpt lat="42.96280794069772" lon="11.705956215469326"><ele>374.0</ele><time>2026-05-02T15:26:49.001Z</time></trkpt><trkpt lat="42.963059415570704" lon="11.705946541662476"><ele>374.0</ele><time>2026-05-02T15:26:50.001Z</time></trkpt><trkpt lat="42.963312999949224" lon="11.705939901841093"><ele>372.5</ele><time>2026-05-02T15:26:51.001Z</time></trkpt><trkpt lat="42.96356289313134" lon="11.705929148614926"><ele>371.0</ele><time>2026-05-02T15:26:52.001Z</time></trkpt><trkpt lat="42.96381676366129" lon="11.705918026874695"><ele>371.0</ele><time>2026-05-02T15:26:53.001Z</time></trkpt><trkpt lat="42.96406848192948" lon="11.705912437286036"><ele>371.0</ele><time>2026-05-02T15:26:54.001Z</time></trkpt><trkpt lat="42.96432290416372" lon="11.705904360619252"><ele>371.5</ele><time>2026-05-02T15:26:55.001Z</time></trkpt><trkpt lat="42.9645758421428" lon="11.705894607814406"><ele>372.0</ele><time>2026-05-02T15:26:56.001Z</time></trkpt><trkpt lat="42.9648261984591" lon="11.705882504733086"><ele>372.5</ele><time>2026-05-02T15:26:57.001Z</time></trkpt><trkpt lat="42.96507864106717" lon="11.705872014047738"><ele>373.0</ele><time>2026-05-02T15:26:58.001Z</time></trkpt><trkpt lat="42.96533211658048" lon="11.705866123405203"><ele>373.0</ele><time>2026-05-02T15:26:59.001Z</time></trkpt><trkpt lat="42.965582420294" lon="11.705857340078689"><ele>373.0</ele><time>2026-05-02T15:27:00.001Z</time></trkpt><trkpt lat="42.96583436131215" lon="11.705852062283506"><ele>371.0</ele><time>2026-05-02T15:27:01.001Z</time></trkpt><trkpt lat="42.96608461955209" lon="11.70585063591271"><ele>369.0</ele><time>2026-05-02T15:27:02.001Z</time></trkpt><trkpt lat="42.966332171973" lon="11.70583935360286"><ele>369.0</ele><time>2026-05-02T15:27:03.001Z</time></trkpt><trkpt lat="42.9665773403502" lon="11.70582719891902"><ele>369.0</ele><time>2026-05-02T15:27:04.001Z</time></trkpt><trkpt lat="42.9668249859032" lon="11.705818893751596"><ele>369.0</ele><time>2026-05-02T15:27:05.001Z</time></trkpt><trkpt lat="42.96707128185948" lon="11.705809157995656"><ele>369.0</ele><time>2026-05-02T15:27:06.001Z</time></trkpt><trkpt lat="42.96731763139463" lon="11.705797358592221"><ele>367.5</ele><time>2026-05-02T15:27:07.001Z</time></trkpt><trkpt lat="42.96755956951511" lon="11.705790016533236"><ele>366.0</ele><time>2026-05-02T15:27:08.001Z</time></trkpt><trkpt lat="42.9678028023988" lon="11.705776088349843"><ele>366.0</ele><time>2026-05-02T15:27:09.001Z</time></trkpt><trkpt lat="42.968042594028624" lon="11.705772624623501"><ele>366.0</ele><time>2026-05-02T15:27:10.001Z</time></trkpt><trkpt lat="42.968283687929784" lon="11.705761945553554"><ele>365.5</ele><time>2026-05-02T15:27:11.001Z</time></trkpt><trkpt lat="42.968520840907246" lon="11.705750786709674"><ele>365.0</ele><time>2026-05-02T15:27:12.001Z</time></trkpt><trkpt lat="42.96876090213936" lon="11.705742206344915"><ele>365.0</ele><time>2026-05-02T15:27:13.001Z</time></trkpt><trkpt lat="42.96900248015769" lon="11.70573871061429"><ele>365.0</ele><time>2026-05-02T15:27:14.001Z</time></trkpt><trkpt lat="42.96924407448577" lon="11.705731393772044"><ele>364.5</ele><time>2026-05-02T15:27:15.001Z</time></trkpt><trkpt lat="42.96948490494699" lon="11.705729666994266"><ele>364.0</ele><time>2026-05-02T15:27:16.001Z</time></trkpt><trkpt lat="42.96972811484862" lon="11.705734317160568"><ele>364.0</ele><time>2026-05-02T15:27:17.001Z</time></trkpt><trkpt lat="42.96997109417569" lon="11.70574814158629"><ele>364.0</ele><time>2026-05-02T15:27:18.001Z</time></trkpt><trkpt lat="42.97021565749262" lon="11.705761774132005"><ele>363.5</ele><time>2026-05-02T15:27:19.001Z</time></trkpt><trkpt lat="42.97045636719815" lon="11.705787634704102"><ele>363.0</ele><time>2026-05-02T15:27:20.001Z</time></trkpt><trkpt lat="42.9707053944425" lon="11.705807176451891"><ele>361.5</ele><time>2026-05-02T15:27:21.001Z</time></trkpt><trkpt lat="42.97094876506654" lon="11.705828525130459"><ele>360.0</ele><time>2026-05-02T15:27:22.001Z</time></trkpt><trkpt lat="42.971179173726" lon="11.705864065324937"><ele>360.0</ele><time>2026-05-02T15:27:23.001Z</time></trkpt><trkpt lat="42.971402041591666" lon="11.705909306005065"><ele>360.0</ele><time>2026-05-02T15:27:24.001Z</time></trkpt><trkpt lat="42.97165656169086" lon="11.705890413954407"><ele>361.0</ele><time>2026-05-02T15:27:25.001Z</time></trkpt><trkpt lat="42.97190308297512" lon="11.70592944371034"><ele>362.0</ele><time>2026-05-02T15:27:26.001Z</time></trkpt><trkpt lat="42.972140246124226" lon="11.705958995968725"><ele>362.0</ele><time>2026-05-02T15:27:27.001Z</time></trkpt><trkpt lat="42.972383027419525" lon="11.705974921634372"><ele>362.0</ele><time>2026-05-02T15:27:28Z</time></trkpt><trkpt lat="42.97262367708183" lon="11.706002864889411"><ele>362.0</ele><time>2026-05-02T15:27:29Z</time></trkpt><trkpt lat="42.97286540671076" lon="11.706025218526586"><ele>362.0</ele><time>2026-05-02T15:27:30Z</time></trkpt><trkpt lat="42.973108054400996" lon="11.70604969411666"><ele>362.0</ele><time>2026-05-02T15:27:31Z</time></trkpt><trkpt lat="42.97335223754802" lon="11.706071904673598"><ele>362.0</ele><time>2026-05-02T15:27:32Z</time></trkpt><trkpt lat="42.9735951620165" lon="11.706096422122943"><ele>357.5</ele><time>2026-05-02T15:27:33Z</time></trkpt><trkpt lat="42.97383582768737" lon="11.706120775900542"><ele>353.0</ele><time>2026-05-02T15:27:34Z</time></trkpt><trkpt lat="42.974080784960975" lon="11.706148179977921"><ele>353.5</ele><time>2026-05-02T15:27:35Z</time></trkpt><trkpt lat="42.97430244226587" lon="11.706169625726487"><ele>354.0</ele><time>2026-05-02T15:27:36Z</time></trkpt><trkpt lat="42.97453860837889" lon="11.706193873558517"><ele>354.0</ele><time>2026-05-02T15:27:37Z</time></trkpt><trkpt lat="42.97477896335713" lon="11.706212374894228"><ele>354.0</ele><time>2026-05-02T15:27:38Z</time></trkpt><trkpt lat="42.97501423886728" lon="11.706233141601526"><ele>353.5</ele><time>2026-05-02T15:27:39Z</time></trkpt><trkpt lat="42.97525650883384" lon="11.706251466437667"><ele>353.0</ele><time>2026-05-02T15:27:40Z</time></trkpt><trkpt lat="42.97549160619557" lon="11.706278236991"><ele>353.0</ele><time>2026-05-02T15:27:41Z</time></trkpt><trkpt lat="42.97572960627257" lon="11.706308884233332"><ele>353.0</ele><time>2026-05-02T15:27:42Z</time></trkpt><trkpt lat="42.9759714340568" lon="11.706337507121901"><ele>352.5</ele><time>2026-05-02T15:27:43Z</time></trkpt><trkpt lat="42.97621304843568" lon="11.706361886691004"><ele>352.0</ele><time>2026-05-02T15:27:44Z</time></trkpt><trkpt lat="42.9764525046602" lon="11.706380724429449"><ele>352.0</ele><time>2026-05-02T15:27:45Z</time></trkpt><trkpt lat="42.97669472012393" lon="11.706402094809802"><ele>352.0</ele><time>2026-05-02T15:27:46Z</time></trkpt><trkpt lat="42.97693350205589" lon="11.7064267504364"><ele>352.0</ele><time>2026-05-02T15:27:47Z</time></trkpt><trkpt lat="42.977167748007886" lon="11.706450257734774"><ele>352.0</ele><time>2026-05-02T15:27:48Z</time></trkpt><trkpt lat="42.97740184960245" lon="11.706471949556258"><ele>351.0</ele><time>2026-05-02T15:27:49Z</time></trkpt><trkpt lat="42.977640177449956" lon="11.70648049048451"><ele>350.0</ele><time>2026-05-02T15:27:50Z</time></trkpt><trkpt lat="42.97787447023076" lon="11.706484733244874"><ele>350.0</ele><time>2026-05-02T15:27:51Z</time></trkpt><trkpt lat="42.97811378916561" lon="11.706469588371807"><ele>350.0</ele><time>2026-05-02T15:27:52Z</time></trkpt><trkpt lat="42.97834882300793" lon="11.706446090628162"><ele>351.0</ele><time>2026-05-02T15:27:53Z</time></trkpt><trkpt lat="42.978580050511226" lon="11.706405827738362"><ele>352.0</ele><time>2026-05-02T15:27:54Z</time></trkpt><trkpt lat="42.978799053725204" lon="11.706352635699849"><ele>352.0</ele><time>2026-05-02T15:27:55Z</time></trkpt><trkpt lat="42.97900672286101" lon="11.706287184175807"><ele>352.0</ele><time>2026-05-02T15:27:56Z</time></trkpt><trkpt lat="42.97921290742106" lon="11.706212872829008"><ele>352.0</ele><time>2026-05-02T15:27:57Z</time></trkpt><trkpt lat="42.979420667520344" lon="11.70613286503653"><ele>353.0</ele><time>2026-05-02T15:27:58Z</time></trkpt><trkpt lat="42.97962842816734" lon="11.70604601318385"><ele>354.0</ele><time>2026-05-02T15:27:59Z</time></trkpt><trkpt lat="42.97983317014893" lon="11.705957289989234"><ele>355.0</ele><time>2026-05-02T15:28:00Z</time></trkpt><trkpt lat="42.980037103076626" lon="11.705842362046804"><ele>355.0</ele><time>2026-05-02T15:28:01Z</time></trkpt><trkpt lat="42.980239872009065" lon="11.705707959040803"><ele>355.0</ele><time>2026-05-02T15:28:02Z</time></trkpt><trkpt lat="42.980440754793534" lon="11.705554589152255"><ele>355.0</ele><time>2026-05-02T15:28:03Z</time></trkpt><trkpt lat="42.98063739479833" lon="11.705393595534765"><ele>355.0</ele><time>2026-05-02T15:28:04Z</time></trkpt><trkpt lat="42.980831671368925" lon="11.705217670643542"><ele>352.0</ele><time>2026-05-02T15:28:05Z</time></trkpt><trkpt lat="42.98102235184279" lon="11.705022969162805"><ele>349.0</ele><time>2026-05-02T15:28:06Z</time></trkpt><trkpt lat="42.981207152897994" lon="11.704813862609008"><ele>349.0</ele><time>2026-05-02T15:28:07Z</time></trkpt><trkpt lat="42.98138572768804" lon="11.704585122893302"><ele>349.0</ele><time>2026-05-02T15:28:08Z</time></trkpt><trkpt lat="42.98155865528009" lon="11.70434834963335"><ele>347.5</ele><time>2026-05-02T15:28:09Z</time></trkpt><trkpt lat="42.98172946072415" lon="11.704097915986994"><ele>346.0</ele><time>2026-05-02T15:28:10Z</time></trkpt><trkpt lat="42.9818955593685" lon="11.703841920954826"><ele>347.5</ele><time>2026-05-02T15:28:11Z</time></trkpt><trkpt lat="42.98205420756606" lon="11.703576864535117"><ele>349.0</ele><time>2026-05-02T15:28:12Z</time></trkpt><trkpt lat="42.98220167260029" lon="11.703305307402555"><ele>349.0</ele><time>2026-05-02T15:28:13Z</time></trkpt><trkpt lat="42.982333600138055" lon="11.70302440105046"><ele>349.0</ele><time>2026-05-02T15:28:14Z</time></trkpt><trkpt lat="42.9824543304511" lon="11.702742354323691"><ele>345.5</ele><time>2026-05-02T15:28:15Z</time></trkpt><trkpt lat="42.98257206025138" lon="11.70245208839089"><ele>342.0</ele><time>2026-05-02T15:28:16Z</time></trkpt><trkpt lat="42.98268499338543" lon="11.702159527890487"><ele>340.0</ele><time>2026-05-02T15:28:17Z</time></trkpt><trkpt lat="42.982797097431444" lon="11.701865303147661"><ele>338.0</ele><time>2026-05-02T15:28:18Z</time></trkpt><trkpt lat="42.98290757604932" lon="11.701563000021471"><ele>338.0</ele><time>2026-05-02T15:28:19Z</time></trkpt><trkpt lat="42.98301726521359" lon="11.701261976380207"><ele>338.0</ele><time>2026-05-02T15:28:20Z</time></trkpt><trkpt lat="42.983126384445605" lon="11.70096773009761"><ele>336.5</ele><time>2026-05-02T15:28:21Z</time></trkpt><trkpt lat="42.98323699930409" lon="11.700671147317044"><ele>335.0</ele><time>2026-05-02T15:28:22Z</time></trkpt><trkpt lat="42.98335039105141" lon="11.700372373762432"><ele>338.0</ele><time>2026-05-02T15:28:23Z</time></trkpt><trkpt lat="42.983468592538856" lon="11.70006644581093"><ele>341.0</ele><time>2026-05-02T15:28:24Z</time></trkpt><trkpt lat="42.98359174254855" lon="11.699758923556825"><ele>341.0</ele><time>2026-05-02T15:28:25Z</time></trkpt><trkpt lat="42.98372630511246" lon="11.699449753764611"><ele>341.0</ele><time>2026-05-02T15:28:26Z</time></trkpt><trkpt lat="42.98386289691864" lon="11.699147799301269"><ele>336.5</ele><time>2026-05-02T15:28:27Z</time></trkpt><trkpt lat="42.983995725289" lon="11.69885912171157"><ele>332.0</ele><time>2026-05-02T15:28:28Z</time></trkpt><trkpt lat="42.98413063344074" lon="11.69858418362234"><ele>329.5</ele><time>2026-05-02T15:28:29Z</time></trkpt><trkpt lat="42.98427070083698" lon="11.698312204755643"><ele>327.0</ele><time>2026-05-02T15:28:30Z</time></trkpt><trkpt lat="42.98441482821903" lon="11.698040125037622"><ele>327.0</ele><time>2026-05-02T15:28:31Z</time></trkpt><trkpt lat="42.984562581857325" lon="11.697771338385646"><ele>327.0</ele><time>2026-05-02T15:28:32Z</time></trkpt><trkpt lat="42.98470683318915" lon="11.697517101156"><ele>323.5</ele><time>2026-05-02T15:28:33Z</time></trkpt><trkpt lat="42.984850330423306" lon="11.697267277121961"><ele>320.0</ele><time>2026-05-02T15:28:34.001Z</time></trkpt><trkpt lat="42.9849946037995" lon="11.697022262581996"><ele>320.33333333333337</ele><time>2026-05-02T15:28:35.001Z</time></trkpt><trkpt lat="42.985135527666735" lon="11.696788818725267"><ele>320.6666666666667</ele><time>2026-05-02T15:28:36.001Z</time></trkpt><trkpt lat="42.985270785300315" lon="11.696571814691609"><ele>321.0</ele><time>2026-05-02T15:28:37.001Z</time></trkpt><trkpt lat="42.9854039495632" lon="11.696366932691996"><ele>321.0</ele><time>2026-05-02T15:28:38.001Z</time></trkpt><trkpt lat="42.985533214149704" lon="11.696169336996219"><ele>321.0</ele><time>2026-05-02T15:28:39.001Z</time></trkpt><trkpt lat="42.985661756959374" lon="11.695978375845689"><ele>321.0</ele><time>2026-05-02T15:28:40.001Z</time></trkpt><trkpt lat="42.985794089882546" lon="11.695786971462073"><ele>321.3333333333333</ele><time>2026-05-02T15:28:41.001Z</time></trkpt><trkpt lat="42.985929072139406" lon="11.695593926659825"><ele>321.66666666666663</ele><time>2026-05-02T15:28:42.001Z</time></trkpt><trkpt lat="42.98606573782228" lon="11.695393344647782"><ele>322.0</ele><time>2026-05-02T15:28:43.001Z</time></trkpt><trkpt lat="42.98620175403662" lon="11.695191033746369"><ele>322.0</ele><time>2026-05-02T15:28:44.001Z</time></trkpt><trkpt lat="42.986339635185864" lon="11.694986604668859"><ele>322.0</ele><time>2026-05-02T15:28:45.001Z</time></trkpt><trkpt lat="42.98648427215601" lon="11.694779107243242"><ele>322.0</ele><time>2026-05-02T15:28:46.001Z</time></trkpt><trkpt lat="42.98663259640515" lon="11.694565896113417"><ele>322.66666666666663</ele><time>2026-05-02T15:28:47.001Z</time></trkpt><trkpt lat="42.98678380404637" lon="11.69434201950931"><ele>323.3333333333333</ele><time>2026-05-02T15:28:48.001Z</time></trkpt><trkpt lat="42.98693597282138" lon="11.694123636250655"><ele>324.0</ele><time>2026-05-02T15:28:49.001Z</time></trkpt><trkpt lat="42.98708952812561" lon="11.693904208178962"><ele>324.0</ele><time>2026-05-02T15:28:50.001Z</time></trkpt><trkpt lat="42.987238545609074" lon="11.693695973210536"><ele>324.0</ele><time>2026-05-02T15:28:51.001Z</time></trkpt><trkpt lat="42.987386173585506" lon="11.69348753654806"><ele>324.0</ele><time>2026-05-02T15:28:52.001Z</time></trkpt><trkpt lat="42.98753256754889" lon="11.69328295219033"><ele>324.6666666666667</ele><time>2026-05-02T15:28:53.001Z</time></trkpt><trkpt lat="42.98768258815352" lon="11.693068168480279"><ele>325.33333333333337</ele><time>2026-05-02T15:28:54.001Z</time></trkpt><trkpt lat="42.987830743611546" lon="11.69285179348362"><ele>326.0</ele><time>2026-05-02T15:28:55.001Z</time></trkpt><trkpt lat="42.987977047237045" lon="11.692640005375516"><ele>324.6666666666667</ele><time>2026-05-02T15:28:56.001Z</time></trkpt><trkpt lat="42.98812173110821" lon="11.692432099752814"><ele>323.3333333333333</ele><time>2026-05-02T15:28:57.001Z</time></trkpt><trkpt lat="42.988264731461555" lon="11.69223160222019"><ele>322.0</ele><time>2026-05-02T15:28:58.001Z</time></trkpt><trkpt lat="42.98840202313847" lon="11.692040132411034"><ele>320.66666666666663</ele><time>2026-05-02T15:28:59.001Z</time></trkpt><trkpt lat="42.988534657237516" lon="11.69185034154178"><ele>319.3333333333333</ele><time>2026-05-02T15:29:00.001Z</time></trkpt><trkpt lat="42.9886688155623" lon="11.691662173255207"><ele>318.0</ele><time>2026-05-02T15:29:01.001Z</time></trkpt><trkpt lat="42.98880291199126" lon="11.69147234810369"><ele>318.0</ele><time>2026-05-02T15:29:02.001Z</time></trkpt><trkpt lat="42.98893732480081" lon="11.691283640359451"><ele>318.0</ele><time>2026-05-02T15:29:03.001Z</time></trkpt><trkpt lat="42.989069676253656" lon="11.69109694922184"><ele>318.0</ele><time>2026-05-02T15:29:04.001Z</time></trkpt><trkpt lat="42.98920161546356" lon="11.6909177669979"><ele>316.6666666666667</ele><time>2026-05-02T15:29:05.001Z</time></trkpt><trkpt lat="42.98932649823689" lon="11.690737187969692"><ele>315.33333333333337</ele><time>2026-05-02T15:29:06.001Z</time></trkpt><trkpt lat="42.98944924082989" lon="11.690564711344251"><ele>314.0</ele><time>2026-05-02T15:29:07.001Z</time></trkpt><trkpt lat="42.98957906491579" lon="11.69038126288114"><ele>312.6666666666667</ele><time>2026-05-02T15:29:08.001Z</time></trkpt><trkpt lat="42.98970604962463" lon="11.690194008590028"><ele>311.3333333333333</ele><time>2026-05-02T15:29:09.001Z</time></trkpt><trkpt lat="42.989834266564515" lon="11.69001409104669"><ele>310.0</ele><time>2026-05-02T15:29:10.001Z</time></trkpt><trkpt lat="42.98996264473442" lon="11.68983575272653"><ele>309.66666666666663</ele><time>2026-05-02T15:29:11.001Z</time></trkpt><trkpt lat="42.99008954879211" lon="11.689658693519865"><ele>309.3333333333333</ele><time>2026-05-02T15:29:12.001Z</time></trkpt><trkpt lat="42.99021483925656" lon="11.689483188430646"><ele>309.0</ele><time>2026-05-02T15:29:13.001Z</time></trkpt><trkpt lat="42.99033108555332" lon="11.689322310822762"><ele>309.0</ele><time>2026-05-02T15:29:14.001Z</time></trkpt><trkpt lat="42.99043512694052" lon="11.689183118288893"><ele>309.0</ele><time>2026-05-02T15:29:15.001Z</time></trkpt><trkpt lat="42.99052811689318" lon="11.689050508050311"><ele>309.0</ele><time>2026-05-02T15:29:16.001Z</time></trkpt><trkpt lat="42.99061162528112" lon="11.688911200669056"><ele>309.0</ele><time>2026-05-02T15:29:17.001Z</time></trkpt><trkpt lat="42.990674415864106" lon="11.688746903754268"><ele>308.5</ele><time>2026-05-02T15:29:18.001Z</time></trkpt><trkpt lat="42.99070823600212" lon="11.688560438614752"><ele>308.0</ele><time>2026-05-02T15:29:19.001Z</time></trkpt><trkpt lat="42.990712627798594" lon="11.688360194235061"><ele>307.5</ele><time>2026-05-02T15:29:20.001Z</time></trkpt><trkpt lat="42.99070936098084" lon="11.68816764669471"><ele>307.0</ele><time>2026-05-02T15:29:21.001Z</time></trkpt><trkpt lat="42.990711682699136" lon="11.687994412426564"><ele>307.0</ele><time>2026-05-02T15:29:22.001Z</time></trkpt><trkpt lat="42.990717084681094" lon="11.687836221771672"><ele>307.0</ele><time>2026-05-02T15:29:23.001Z</time></trkpt><trkpt lat="42.99072571148624" lon="11.687695053238418"><ele>307.0</ele><time>2026-05-02T15:29:24.001Z</time></trkpt><trkpt lat="42.99074927547356" lon="11.687562303583968"><ele>307.0</ele><time>2026-05-02T15:29:25.001Z</time></trkpt><trkpt lat="42.990801272858775" lon="11.687427378709495"><ele>307.0</ele><time>2026-05-02T15:29:26.001Z</time></trkpt><trkpt lat="42.99086911781834" lon="11.687304548276279"><ele>306.75</ele><time>2026-05-02T15:29:27.001Z</time></trkpt><trkpt lat="42.99095326552266" lon="11.687211777011479"><ele>306.5</ele><time>2026-05-02T15:29:28.001Z</time></trkpt><trkpt lat="42.99105854688734" lon="11.687138923329144"><ele>306.25</ele><time>2026-05-02T15:29:29.001Z</time></trkpt><trkpt lat="42.991182469718716" lon="11.687085405579174"><ele>306.0</ele><time>2026-05-02T15:29:30.001Z</time></trkpt><trkpt lat="42.991324198984714" lon="11.6870535280372"><ele>306.0</ele><time>2026-05-02T15:29:31.001Z</time></trkpt><trkpt lat="42.99147606574286" lon="11.687016976702433"><ele>306.0</ele><time>2026-05-02T15:29:32.001Z</time></trkpt><trkpt lat="42.991656718557074" lon="11.686965754825739"><ele>306.0</ele><time>2026-05-02T15:29:33.001Z</time></trkpt><trkpt lat="42.991869764805735" lon="11.686900414055252"><ele>308.5</ele><time>2026-05-02T15:29:34Z</time></trkpt><trkpt lat="42.99211597927172" lon="11.686848054946065"><ele>311.0</ele><time>2026-05-02T15:29:35Z</time></trkpt><trkpt lat="42.99237811253317" lon="11.68680631419407"><ele>309.5</ele><time>2026-05-02T15:29:36Z</time></trkpt><trkpt lat="42.99264044558209" lon="11.686759631369538"><ele>308.0</ele><time>2026-05-02T15:29:37Z</time></trkpt><trkpt lat="42.992881085247305" lon="11.68670295679683"><ele>308.0</ele><time>2026-05-02T15:29:38Z</time></trkpt><trkpt lat="42.99310129707168" lon="11.68664754184749"><ele>308.0</ele><time>2026-05-02T15:29:39Z</time></trkpt><trkpt lat="42.99330944183039" lon="11.68659099924011"><ele>308.0</ele><time>2026-05-02T15:29:40Z</time></trkpt><trkpt lat="42.99350563938724" lon="11.686522288012352"><ele>306.5</ele><time>2026-05-02T15:29:41Z</time></trkpt><trkpt lat="42.993702946028854" lon="11.686406462103571"><ele>305.0</ele><time>2026-05-02T15:29:42Z</time></trkpt><trkpt lat="42.99390614333226" lon="11.686245464552288"><ele>304.5</ele><time>2026-05-02T15:29:43Z</time></trkpt><trkpt lat="42.99412314140634" lon="11.686067273042978"><ele>304.0</ele><time>2026-05-02T15:29:44Z</time></trkpt><trkpt lat="42.99435835882991" lon="11.685893162275"><ele>304.0</ele><time>2026-05-02T15:29:45Z</time></trkpt><trkpt lat="42.99459955775633" lon="11.685714868982544"><ele>304.0</ele><time>2026-05-02T15:29:46Z</time></trkpt><trkpt lat="42.99484789409102" lon="11.6855253637554"><ele>304.5</ele><time>2026-05-02T15:29:47Z</time></trkpt><trkpt lat="42.995091339004944" lon="11.685336157534952"><ele>305.0</ele><time>2026-05-02T15:29:48Z</time></trkpt><trkpt lat="42.9953163707593" lon="11.685164625670645"><ele>305.0</ele><time>2026-05-02T15:29:49Z</time></trkpt><trkpt lat="42.99552728144942" lon="11.685006159627788"><ele>305.0</ele><time>2026-05-02T15:29:50Z</time></trkpt><trkpt lat="42.99572549982799" lon="11.684859231603216"><ele>304.0</ele><time>2026-05-02T15:29:51Z</time></trkpt><trkpt lat="42.99590436550088" lon="11.684720659018879"><ele>303.0</ele><time>2026-05-02T15:29:52Z</time></trkpt><trkpt lat="42.99606786593936" lon="11.684587657487253"><ele>302.0</ele><time>2026-05-02T15:29:53Z</time></trkpt><trkpt lat="42.99621495872194" lon="11.684459159065598"><ele>303.25</ele><time>2026-05-02T15:29:54Z</time></trkpt><trkpt lat="42.996340321405036" lon="11.684317814283585"><ele>304.5</ele><time>2026-05-02T15:29:55Z</time></trkpt><trkpt lat="42.99644025484604" lon="11.68417446767775"><ele>305.75</ele><time>2026-05-02T15:29:56Z</time></trkpt><trkpt lat="42.996510411758486" lon="11.684020635628107"><ele>307.0</ele><time>2026-05-02T15:29:57Z</time></trkpt><trkpt lat="42.996571915831986" lon="11.683863630273141"><ele>307.0</ele><time>2026-05-02T15:29:58Z</time></trkpt><trkpt lat="42.996653181511164" lon="11.683716571176987"><ele>307.0</ele><time>2026-05-02T15:29:59Z</time></trkpt><trkpt lat="42.996753389799494" lon="11.68361195203366"><ele>307.0</ele><time>2026-05-02T15:30:00Z</time></trkpt><trkpt lat="42.996884054106296" lon="11.683548578998542"><ele>307.0</ele><time>2026-05-02T15:30:01Z</time></trkpt><trkpt lat="42.997040553203774" lon="11.683515809099806"><ele>308.0</ele><time>2026-05-02T15:30:02Z</time></trkpt><trkpt lat="42.99720651420719" lon="11.683519011513498"><ele>309.0</ele><time>2026-05-02T15:30:03Z</time></trkpt><trkpt lat="42.99737938912189" lon="11.683545294599906"><ele>310.0</ele><time>2026-05-02T15:30:04Z</time></trkpt><trkpt lat="42.99756055242477" lon="11.683572009179581"><ele>310.3333333333333</ele><time>2026-05-02T15:30:05Z</time></trkpt><trkpt lat="42.99774712241004" lon="11.683586725972198"><ele>310.6666666666667</ele><time>2026-05-02T15:30:06Z</time></trkpt><trkpt lat="42.99793081162953" lon="11.683598340933766"><ele>311.0</ele><time>2026-05-02T15:30:07Z</time></trkpt><trkpt lat="42.99811582748403" lon="11.683611171686499"><ele>311.0</ele><time>2026-05-02T15:30:08Z</time></trkpt><trkpt lat="42.99830352106649" lon="11.683622490365801"><ele>311.0</ele><time>2026-05-02T15:30:09Z</time></trkpt><trkpt lat="42.99849370400855" lon="11.683624457167403"><ele>311.0</ele><time>2026-05-02T15:30:10Z</time></trkpt><trkpt lat="42.99868868974807" lon="11.683630048431029"><ele>311.6666666666667</ele><time>2026-05-02T15:30:11Z</time></trkpt><trkpt lat="42.99887450832397" lon="11.683630702286013"><ele>312.3333333333333</ele><time>2026-05-02T15:30:12Z</time></trkpt><trkpt lat="42.99905093412391" lon="11.683634038560044"><ele>313.0</ele><time>2026-05-02T15:30:13Z</time></trkpt><trkpt lat="42.999220565519195" lon="11.683638791661268"><ele>313.5</ele><time>2026-05-02T15:30:14Z</time></trkpt><trkpt lat="42.99937882350743" lon="11.68364074829692"><ele>314.0</ele><time>2026-05-02T15:30:15Z</time></trkpt><trkpt lat="42.999529100683674" lon="11.683633255150504"><ele>314.5</ele><time>2026-05-02T15:30:16Z</time></trkpt><trkpt lat="42.999665108969" lon="11.683615741526536"><ele>315.0</ele><time>2026-05-02T15:30:17Z</time></trkpt><trkpt lat="42.99981119010533" lon="11.683592507959174"><ele>316.5</ele><time>2026-05-02T15:30:18Z</time></trkpt><trkpt lat="42.9999383208285" lon="11.68350842841631"><ele>318.0</ele><time>2026-05-02T15:30:19Z</time></trkpt><trkpt lat="43.00006690931179" lon="11.683397315253915"><ele>319.5</ele><time>2026-05-02T15:30:20Z</time></trkpt><trkpt lat="43.00018258893285" lon="11.683298909506105"><ele>321.0</ele><time>2026-05-02T15:30:21Z</time></trkpt><trkpt lat="43.000295359006095" lon="11.6831958983033"><ele>321.0</ele><time>2026-05-02T15:30:22Z</time></trkpt><trkpt lat="43.00041785728444" lon="11.683079192190853"><ele>321.0</ele><time>2026-05-02T15:30:23Z</time></trkpt><trkpt lat="43.00055214764031" lon="11.682950817048168"><ele>321.0</ele><time>2026-05-02T15:30:24Z</time></trkpt><trkpt lat="43.00069703820812" lon="11.68282102553421"><ele>320.0</ele><time>2026-05-02T15:30:25Z</time></trkpt><trkpt lat="43.0008512195469" lon="11.682687884525079"><ele>319.0</ele><time>2026-05-02T15:30:26Z</time></trkpt><trkpt lat="43.00100700457887" lon="11.68255287886326"><ele>318.0</ele><time>2026-05-02T15:30:27Z</time></trkpt><trkpt lat="43.00115179213721" lon="11.68241627811891"><ele>318.0</ele><time>2026-05-02T15:30:28Z</time></trkpt><trkpt lat="43.00129111412849" lon="11.68227458579792"><ele>318.0</ele><time>2026-05-02T15:30:29Z</time></trkpt><trkpt lat="43.00142847090383" lon="11.682120303139296"><ele>318.0</ele><time>2026-05-02T15:30:30Z</time></trkpt><trkpt lat="43.00156251312188" lon="11.681947293215448"><ele>315.0</ele><time>2026-05-02T15:30:31Z</time></trkpt><trkpt lat="43.00169226480503" lon="11.681751263960505"><ele>312.0</ele><time>2026-05-02T15:30:32Z</time></trkpt><trkpt lat="43.001808359205334" lon="11.681522706122067"><ele>309.0</ele><time>2026-05-02T15:30:33Z</time></trkpt><trkpt lat="43.00191407138983" lon="11.681268534127613"><ele>308.5</ele><time>2026-05-02T15:30:34Z</time></trkpt><trkpt lat="43.00201607493576" lon="11.680993185036181"><ele>308.0</ele><time>2026-05-02T15:30:35Z</time></trkpt><trkpt lat="43.00212755459386" lon="11.680707493639645"><ele>308.0</ele><time>2026-05-02T15:30:36Z</time></trkpt><trkpt lat="43.00223777762748" lon="11.680412732046143"><ele>308.0</ele><time>2026-05-02T15:30:37Z</time></trkpt><trkpt lat="43.002364046913144" lon="11.680126669453673"><ele>307.5</ele><time>2026-05-02T15:30:38Z</time></trkpt><trkpt lat="43.002498560245655" lon="11.679823330638616"><ele>307.0</ele><time>2026-05-02T15:30:39Z</time></trkpt><trkpt lat="43.00264369718028" lon="11.679518000067079"><ele>307.5</ele><time>2026-05-02T15:30:40Z</time></trkpt><trkpt lat="43.00279361712752" lon="11.679212416502684"><ele>308.0</ele><time>2026-05-02T15:30:41Z</time></trkpt><trkpt lat="43.00294036860129" lon="11.678904913229665"><ele>308.5</ele><time>2026-05-02T15:30:42.001Z</time></trkpt><trkpt lat="43.0030842293327" lon="11.678592250469675"><ele>309.0</ele><time>2026-05-02T15:30:43.001Z</time></trkpt><trkpt lat="43.00322569240408" lon="11.67827877960006"><ele>309.5</ele><time>2026-05-02T15:30:44.001Z</time></trkpt><trkpt lat="43.00335818588424" lon="11.677950250066388"><ele>310.0</ele><time>2026-05-02T15:30:45.001Z</time></trkpt><trkpt lat="43.00347556427041" lon="11.677613749422372"><ele>310.0</ele><time>2026-05-02T15:30:46.001Z</time></trkpt><trkpt lat="43.00358114805254" lon="11.677274697213997"><ele>310.0</ele><time>2026-05-02T15:30:47.001Z</time></trkpt><trkpt lat="43.00367363623077" lon="11.676927385179182"><ele>311.0</ele><time>2026-05-02T15:30:48.001Z</time></trkpt><trkpt lat="43.00375117032348" lon="11.6765894873695"><ele>312.0</ele><time>2026-05-02T15:30:49.001Z</time></trkpt><trkpt lat="43.003824173894394" lon="11.6762540587674"><ele>311.5</ele><time>2026-05-02T15:30:50.001Z</time></trkpt><trkpt lat="43.00389774716075" lon="11.675939862738694"><ele>311.0</ele><time>2026-05-02T15:30:51.001Z</time></trkpt><trkpt lat="43.00395939617953" lon="11.67564590231283"><ele>311.0</ele><time>2026-05-02T15:30:52.001Z</time></trkpt><trkpt lat="43.00401046211989" lon="11.675365157889786"><ele>311.0</ele><time>2026-05-02T15:30:53.001Z</time></trkpt><trkpt lat="43.00406608802654" lon="11.675107112479287"><ele>311.0</ele><time>2026-05-02T15:30:54.001Z</time></trkpt><trkpt lat="43.00412886956376" lon="11.67487289278234"><ele>312.33333333333337</ele><time>2026-05-02T15:30:55.001Z</time></trkpt><trkpt lat="43.00423363976985" lon="11.674673412324648"><ele>313.6666666666667</ele><time>2026-05-02T15:30:56.001Z</time></trkpt><trkpt lat="43.004323958207195" lon="11.674473496296896"><ele>315.0</ele><time>2026-05-02T15:30:57.001Z</time></trkpt><trkpt lat="43.004429471211495" lon="11.674309137635674"><ele>315.25</ele><time>2026-05-02T15:30:58.001Z</time></trkpt><trkpt lat="43.004524134043784" lon="11.674167603220862"><ele>315.5</ele><time>2026-05-02T15:30:59.001Z</time></trkpt><trkpt lat="43.00463940560703" lon="11.674045371594218"><ele>315.75</ele><time>2026-05-02T15:31:00.001Z</time></trkpt><trkpt lat="43.004757238608036" lon="11.673912952206923"><ele>316.0</ele><time>2026-05-02T15:31:01.001Z</time></trkpt><trkpt lat="43.004875682415054" lon="11.673774464276724"><ele>316.0</ele><time>2026-05-02T15:31:02.001Z</time></trkpt><trkpt lat="43.004989610546545" lon="11.67359405796389"><ele>316.0</ele><time>2026-05-02T15:31:03.001Z</time></trkpt><trkpt lat="43.00511743351153" lon="11.673387875811459"><ele>316.0</ele><time>2026-05-02T15:31:04.001Z</time></trkpt><trkpt lat="43.00525636189951" lon="11.673163555411262"><ele>316.5</ele><time>2026-05-02T15:31:05.001Z</time></trkpt><trkpt lat="43.00540714528485" lon="11.672932673022487"><ele>317.0</ele><time>2026-05-02T15:31:06.001Z</time></trkpt><trkpt lat="43.00557658585017" lon="11.67271034783055"><ele>315.5</ele><time>2026-05-02T15:31:07.001Z</time></trkpt><trkpt lat="43.00576553272448" lon="11.672503207609711"><ele>314.0</ele><time>2026-05-02T15:31:08.001Z</time></trkpt><trkpt lat="43.005962156736324" lon="11.672305897948627"><ele>314.0</ele><time>2026-05-02T15:31:09.001Z</time></trkpt><trkpt lat="43.006163312552786" lon="11.672121349877855"><ele>314.0</ele><time>2026-05-02T15:31:10.001Z</time></trkpt><trkpt lat="43.006364755310926" lon="11.671943759576603"><ele>315.5</ele><time>2026-05-02T15:31:11.001Z</time></trkpt><trkpt lat="43.00655936873787" lon="11.67175804991335"><ele>317.0</ele><time>2026-05-02T15:31:12.001Z</time></trkpt><trkpt lat="43.00674615893402" lon="11.671558426197432"><ele>319.0</ele><time>2026-05-02T15:31:13.001Z</time></trkpt><trkpt lat="43.00692446855339" lon="11.671354273169088"><ele>321.0</ele><time>2026-05-02T15:31:14.001Z</time></trkpt><trkpt lat="43.00708767733002" lon="11.671156594141415"><ele>322.0</ele><time>2026-05-02T15:31:15.001Z</time></trkpt><trkpt lat="43.007236715689636" lon="11.670973635732958"><ele>323.0</ele><time>2026-05-02T15:31:16.001Z</time></trkpt><trkpt lat="43.00737258016725" lon="11.670814027864163"><ele>324.0</ele><time>2026-05-02T15:31:17.001Z</time></trkpt><trkpt lat="43.007491566137055" lon="11.670664991085157"><ele>325.0</ele><time>2026-05-02T15:31:18.001Z</time></trkpt><trkpt lat="43.00758677059802" lon="11.670507255462367"><ele>326.0</ele><time>2026-05-02T15:31:19.001Z</time></trkpt><trkpt lat="43.00767032196409" lon="11.670318138156745"><ele>327.0</ele><time>2026-05-02T15:31:20.001Z</time></trkpt><trkpt lat="43.00774491873872" lon="11.670097781710487"><ele>327.3333333333333</ele><time>2026-05-02T15:31:21.001Z</time></trkpt><trkpt lat="43.0078111551575" lon="11.669863576140772"><ele>327.66666666666663</ele><time>2026-05-02T15:31:22.001Z</time></trkpt><trkpt lat="43.00786774518979" lon="11.669630423129304"><ele>328.0</ele><time>2026-05-02T15:31:23.001Z</time></trkpt><trkpt lat="43.00792172144162" lon="11.669400216349779"><ele>328.0</ele><time>2026-05-02T15:31:24.001Z</time></trkpt><trkpt lat="43.0079876810925" lon="11.669184789787524"><ele>328.0</ele><time>2026-05-02T15:31:25.001Z</time></trkpt><trkpt lat="43.00807947365438" lon="11.668990543840938"><ele>328.0</ele><time>2026-05-02T15:31:26.001Z</time></trkpt><trkpt lat="43.00820927731269" lon="11.668823138286685"><ele>324.0</ele><time>2026-05-02T15:31:27.001Z</time></trkpt><trkpt lat="43.00835334441935" lon="11.668660633807963"><ele>320.0</ele><time>2026-05-02T15:31:28.001Z</time></trkpt><trkpt lat="43.008500021828354" lon="11.668490378538854"><ele>316.0</ele><time>2026-05-02T15:31:29.001Z</time></trkpt><trkpt lat="43.00864511637867" lon="11.668316765806864"><ele>314.66666666666663</ele><time>2026-05-02T15:31:30.001Z</time></trkpt><trkpt lat="43.00879731899475" lon="11.668128851542157"><ele>313.3333333333333</ele><time>2026-05-02T15:31:31.001Z</time></trkpt><trkpt lat="43.008958301360934" lon="11.667928339210146"><ele>312.0</ele><time>2026-05-02T15:31:32.001Z</time></trkpt><trkpt lat="43.00912148503761" lon="11.667718907403948"><ele>309.5</ele><time>2026-05-02T15:31:33.001Z</time></trkpt><trkpt lat="43.00928633930157" lon="11.667503359354948"><ele>307.0</ele><time>2026-05-02T15:31:34.001Z</time></trkpt><trkpt lat="43.009448730605136" lon="11.667290281874994"><ele>307.0</ele><time>2026-05-02T15:31:35.001Z</time></trkpt><trkpt lat="43.00960993739804" lon="11.667077569932225"><ele>307.0</ele><time>2026-05-02T15:31:36.001Z</time></trkpt><trkpt lat="43.00976681803669" lon="11.666864196846703"><ele>307.0</ele><time>2026-05-02T15:31:37.001Z</time></trkpt><trkpt lat="43.009918242460586" lon="11.666650277780743"><ele>307.0</ele><time>2026-05-02T15:31:38.001Z</time></trkpt><trkpt lat="43.010061724827295" lon="11.666432068204434"><ele>307.0</ele><time>2026-05-02T15:31:39.001Z</time></trkpt><trkpt lat="43.010204315925144" lon="11.666211407468523"><ele>307.0</ele><time>2026-05-02T15:31:40Z</time></trkpt><trkpt lat="43.01034887670135" lon="11.665991620346276"><ele>308.3333333333333</ele><time>2026-05-02T15:31:41Z</time></trkpt><trkpt lat="43.01049926599828" lon="11.66577559865299"><ele>309.6666666666667</ele><time>2026-05-02T15:31:42Z</time></trkpt><trkpt lat="43.01064635686731" lon="11.665563701594394"><ele>311.0</ele><time>2026-05-02T15:31:43Z</time></trkpt><trkpt lat="43.01078842058607" lon="11.665356054434831"><ele>310.0</ele><time>2026-05-02T15:31:44Z</time></trkpt><trkpt lat="43.01092353441983" lon="11.665159049355301"><ele>309.0</ele><time>2026-05-02T15:31:45Z</time></trkpt><trkpt lat="43.01105259751599" lon="11.664969828930984"><ele>308.0</ele><time>2026-05-02T15:31:46Z</time></trkpt><trkpt lat="43.01117513925258" lon="11.664790712032527"><ele>308.0</ele><time>2026-05-02T15:31:47Z</time></trkpt><trkpt lat="43.01129083071067" lon="11.664614862053364"><ele>308.0</ele><time>2026-05-02T15:31:48Z</time></trkpt><trkpt lat="43.01140335820884" lon="11.66444192543136"><ele>308.0</ele><time>2026-05-02T15:31:49Z</time></trkpt><trkpt lat="43.011514107561254" lon="11.664271073683873"><ele>308.0</ele><time>2026-05-02T15:31:50Z</time></trkpt><trkpt lat="43.01162761337627" lon="11.664104406068105"><ele>308.0</ele><time>2026-05-02T15:31:51Z</time></trkpt><trkpt lat="43.01174818473023" lon="11.663940088608026"><ele>308.0</ele><time>2026-05-02T15:31:52Z</time></trkpt><trkpt lat="43.01187246338579" lon="11.663775337683717"><ele>308.0</ele><time>2026-05-02T15:31:53Z</time></trkpt><trkpt lat="43.01199875232911" lon="11.663614832427367"><ele>308.0</ele><time>2026-05-02T15:31:54Z</time></trkpt><trkpt lat="43.01212755126122" lon="11.663449288102152"><ele>308.0</ele><time>2026-05-02T15:31:55Z</time></trkpt><trkpt lat="43.01225581985638" lon="11.663279654196238"><ele>308.33333333333337</ele><time>2026-05-02T15:31:56Z</time></trkpt><trkpt lat="43.0123808581715" lon="11.663101030846521"><ele>308.6666666666667</ele><time>2026-05-02T15:31:57Z</time></trkpt><trkpt lat="43.01250607711907" lon="11.662904876120463"><ele>309.0</ele><time>2026-05-02T15:31:58Z</time></trkpt><trkpt lat="43.01263208535474" lon="11.662696381197414"><ele>307.3333333333333</ele><time>2026-05-02T15:31:59Z</time></trkpt><trkpt lat="43.01276173113864" lon="11.662484272470602"><ele>305.66666666666663</ele><time>2026-05-02T15:32:00Z</time></trkpt><trkpt lat="43.01289730170313" lon="11.662274777400624"><ele>304.0</ele><time>2026-05-02T15:32:01Z</time></trkpt><trkpt lat="43.01304398183911" lon="11.662092440424775"><ele>303.66666666666663</ele><time>2026-05-02T15:32:02Z</time></trkpt><trkpt lat="43.013205839026135" lon="11.661942208968254"><ele>303.3333333333333</ele><time>2026-05-02T15:32:03Z</time></trkpt><trkpt lat="43.01337408551903" lon="11.66179287383168"><ele>303.0</ele><time>2026-05-02T15:32:04Z</time></trkpt><trkpt lat="43.013552246732296" lon="11.661636186823351"><ele>303.6666666666667</ele><time>2026-05-02T15:32:05Z</time></trkpt><trkpt lat="43.01373353358502" lon="11.661457022218482"><ele>304.33333333333337</ele><time>2026-05-02T15:32:06Z</time></trkpt><trkpt lat="43.013905753747814" lon="11.661267853992369"><ele>305.0</ele><time>2026-05-02T15:32:07Z</time></trkpt><trkpt lat="43.01407286921265" lon="11.661079426161217"><ele>306.6666666666667</ele><time>2026-05-02T15:32:08Z</time></trkpt><trkpt lat="43.01423341891329" lon="11.66089676457701"><ele>308.3333333333333</ele><time>2026-05-02T15:32:09Z</time></trkpt><trkpt lat="43.014386053390275" lon="11.660718129364996"><ele>310.0</ele><time>2026-05-02T15:32:10Z</time></trkpt><trkpt lat="43.01452773537137" lon="11.660532838985203"><ele>310.0</ele><time>2026-05-02T15:32:11Z</time></trkpt><trkpt lat="43.0146574284076" lon="11.660336451474569"><ele>310.0</ele><time>2026-05-02T15:32:12Z</time></trkpt><trkpt lat="43.014785511862314" lon="11.660145173163837"><ele>310.0</ele><time>2026-05-02T15:32:13Z</time></trkpt><trkpt lat="43.01490916295084" lon="11.659961182703604"><ele>310.0</ele><time>2026-05-02T15:32:14Z</time></trkpt><trkpt lat="43.015019988315714" lon="11.659759686669005"><ele>310.0</ele><time>2026-05-02T15:32:15Z</time></trkpt><trkpt lat="43.01513043295202" lon="11.659539391135688"><ele>310.0</ele><time>2026-05-02T15:32:16Z</time></trkpt><trkpt lat="43.01523048077494" lon="11.659304160100813"><ele>310.0</ele><time>2026-05-02T15:32:17Z</time></trkpt><trkpt lat="43.01532347134255" lon="11.65905570602147"><ele>310.0</ele><time>2026-05-02T15:32:18Z</time></trkpt><trkpt lat="43.0154220870565" lon="11.658806479147849"><ele>310.0</ele><time>2026-05-02T15:32:19Z</time></trkpt><trkpt lat="43.01552807637784" lon="11.658557247272773"><ele>309.3333333333333</ele><time>2026-05-02T15:32:20Z</time></trkpt><trkpt lat="43.015641422781265" lon="11.658307164109647"><ele>308.6666666666667</ele><time>2026-05-02T15:32:21Z</time></trkpt><trkpt lat="43.01575694444034" lon="11.658066567666442"><ele>308.0</ele><time>2026-05-02T15:32:22Z</time></trkpt><trkpt lat="43.0158747860426" lon="11.65783269608395"><ele>305.6666666666667</ele><time>2026-05-02T15:32:23Z</time></trkpt><trkpt lat="43.015989647909706" lon="11.657603017200351"><ele>303.3333333333333</ele><time>2026-05-02T15:32:24Z</time></trkpt><trkpt lat="43.01610044567823" lon="11.657379099160439"><ele>301.0</ele><time>2026-05-02T15:32:25Z</time></trkpt><trkpt lat="43.01621366605582" lon="11.657157590103093"><ele>300.66666666666663</ele><time>2026-05-02T15:32:26Z</time></trkpt><trkpt lat="43.01635123766434" lon="11.65694915892415"><ele>300.3333333333333</ele><time>2026-05-02T15:32:27Z</time></trkpt><trkpt lat="43.01650865913314" lon="11.656755946763202"><ele>300.0</ele><time>2026-05-02T15:32:28Z</time></trkpt><trkpt lat="43.016674199813096" lon="11.656562971934404"><ele>299.3333333333333</ele><time>2026-05-02T15:32:29Z</time></trkpt><trkpt lat="43.016840531550706" lon="11.656367444161381"><ele>298.66666666666663</ele><time>2026-05-02T15:32:30Z</time></trkpt><trkpt lat="43.01700257772713" lon="11.656166090206238"><ele>298.0</ele><time>2026-05-02T15:32:31Z</time></trkpt><trkpt lat="43.01715866227521" lon="11.655952875218603"><ele>297.66666666666663</ele><time>2026-05-02T15:32:32Z</time></trkpt><trkpt lat="43.01730548546074" lon="11.655723705040538"><ele>297.3333333333333</ele><time>2026-05-02T15:32:33Z</time></trkpt><trkpt lat="43.01744599759571" lon="11.65548598638687"><ele>297.0</ele><time>2026-05-02T15:32:34Z</time></trkpt><trkpt lat="43.017578582167005" lon="11.655240441301588"><ele>295.3333333333333</ele><time>2026-05-02T15:32:35Z</time></trkpt><trkpt lat="43.0177055677541" lon="11.655001441630692"><ele>293.66666666666663</ele><time>2026-05-02T15:32:36Z</time></trkpt><trkpt lat="43.01782820544483" lon="11.654778628398937"><ele>292.0</ele><time>2026-05-02T15:32:37Z</time></trkpt><trkpt lat="43.01794851118178" lon="11.654564282952183"><ele>291.3333333333333</ele><time>2026-05-02T15:32:38Z</time></trkpt><trkpt lat="43.018068259348844" lon="11.6543495593657"><ele>290.6666666666667</ele><time>2026-05-02T15:32:39Z</time></trkpt><trkpt lat="43.01818927318342" lon="11.654126133089186"><ele>290.0</ele><time>2026-05-02T15:32:40Z</time></trkpt><trkpt lat="43.01830910491183" lon="11.653893086265288"><ele>290.0</ele><time>2026-05-02T15:32:41Z</time></trkpt><trkpt lat="43.01842188623487" lon="11.653645285350665"><ele>290.0</ele><time>2026-05-02T15:32:42Z</time></trkpt><trkpt lat="43.01852869424387" lon="11.653379447126982"><ele>290.0</ele><time>2026-05-02T15:32:43Z</time></trkpt><trkpt lat="43.01863571000347" lon="11.653108047394461"><ele>290.0</ele><time>2026-05-02T15:32:44Z</time></trkpt><trkpt lat="43.01874273557952" lon="11.652839205828364"><ele>290.0</ele><time>2026-05-02T15:32:45Z</time></trkpt><trkpt lat="43.01884246094833" lon="11.652586237978364"><ele>290.0</ele><time>2026-05-02T15:32:46Z</time></trkpt><trkpt lat="43.01893963631712" lon="11.652346989535946"><ele>289.6666666666667</ele><time>2026-05-02T15:32:47Z</time></trkpt><trkpt lat="43.019033296440675" lon="11.652114018204458"><ele>289.3333333333333</ele><time>2026-05-02T15:32:48Z</time></trkpt><trkpt lat="43.01912240017393" lon="11.651891752277969"><ele>289.0</ele><time>2026-05-02T15:32:49Z</time></trkpt><trkpt lat="43.01921089309599" lon="11.651668538042841"><ele>288.3333333333333</ele><time>2026-05-02T15:32:50Z</time></trkpt><trkpt lat="43.019304318780314" lon="11.651443649717557"><ele>287.6666666666667</ele><time>2026-05-02T15:32:51Z</time></trkpt><trkpt lat="43.019409296112684" lon="11.651228384860195"><ele>287.0</ele><time>2026-05-02T15:32:52Z</time></trkpt><trkpt lat="43.019536969237905" lon="11.651037054201907"><ele>286.6666666666667</ele><time>2026-05-02T15:32:53Z</time></trkpt><trkpt lat="43.01968482126002" lon="11.650871186803753"><ele>286.3333333333333</ele><time>2026-05-02T15:32:54Z</time></trkpt><trkpt lat="43.01984310946431" lon="11.650719677768837"><ele>286.0</ele><time>2026-05-02T15:32:55Z</time></trkpt><trkpt lat="43.01999975524352" lon="11.65056758903527"><ele>284.66666666666663</ele><time>2026-05-02T15:32:56Z</time></trkpt><trkpt lat="43.02013926419809" lon="11.650410352085766"><ele>283.3333333333333</ele><time>2026-05-02T15:32:57Z</time></trkpt><trkpt lat="43.02028554906238" lon="11.650280490713753"><ele>282.0</ele><time>2026-05-02T15:32:58Z</time></trkpt><trkpt lat="43.02039899890536" lon="11.650118765115156"><ele>281.0</ele><time>2026-05-02T15:32:59Z</time></trkpt><trkpt lat="43.020480877218915" lon="11.649929088242407"><ele>280.0</ele><time>2026-05-02T15:33:00Z</time></trkpt><trkpt lat="43.02053785387427" lon="11.649704655145698"><ele>279.0</ele><time>2026-05-02T15:33:01Z</time></trkpt><trkpt lat="43.02057403968399" lon="11.649449332647729"><ele>278.6666666666667</ele><time>2026-05-02T15:33:02Z</time></trkpt><trkpt lat="43.020588086578925" lon="11.649180599562161"><ele>278.33333333333337</ele><time>2026-05-02T15:33:03Z</time></trkpt><trkpt lat="43.02058389101391" lon="11.648903571053758"><ele>278.0</ele><time>2026-05-02T15:33:04Z</time></trkpt><trkpt lat="43.02056448459095" lon="11.64861991646465"><ele>278.0</ele><time>2026-05-02T15:33:05Z</time></trkpt><trkpt lat="43.02053313116809" lon="11.648336271568244"><ele>278.0</ele><time>2026-05-02T15:33:06Z</time></trkpt><trkpt lat="43.02049217717632" lon="11.64805279631868"><ele>278.0</ele><time>2026-05-02T15:33:07.001Z</time></trkpt><trkpt lat="43.02045109521657" lon="11.64776845821022"><ele>277.33333333333337</ele><time>2026-05-02T15:33:08.001Z</time></trkpt><trkpt lat="43.02040857915925" lon="11.647488232655164"><ele>276.6666666666667</ele><time>2026-05-02T15:33:09.001Z</time></trkpt><trkpt lat="43.02036708922619" lon="11.647209610558681"><ele>276.0</ele><time>2026-05-02T15:33:10.001Z</time></trkpt><trkpt lat="43.020325333335606" lon="11.646929076506327"><ele>274.6666666666667</ele><time>2026-05-02T15:33:11.001Z</time></trkpt><trkpt lat="43.0202822373782" lon="11.646642650292337"><ele>273.33333333333337</ele><time>2026-05-02T15:33:12.001Z</time></trkpt><trkpt lat="43.02024280524022" lon="11.646353295129531"><ele>272.0</ele><time>2026-05-02T15:33:13.001Z</time></trkpt><trkpt lat="43.0202030336199" lon="11.6460566766678"><ele>270.6666666666667</ele><time>2026-05-02T15:33:14.001Z</time></trkpt><trkpt lat="43.020161853759895" lon="11.645763347837956"><ele>269.3333333333333</ele><time>2026-05-02T15:33:15.001Z</time></trkpt><trkpt lat="43.020122134071855" lon="11.645471942061103"><ele>268.0</ele><time>2026-05-02T15:33:16.001Z</time></trkpt><trkpt lat="43.020082572760195" lon="11.64518389080243"><ele>268.0</ele><time>2026-05-02T15:33:17.001Z</time></trkpt><trkpt lat="43.020042683141845" lon="11.644899495232444"><ele>268.0</ele><time>2026-05-02T15:33:18.001Z</time></trkpt><trkpt lat="43.020000371346384" lon="11.644617848169887"><ele>268.0</ele><time>2026-05-02T15:33:19.001Z</time></trkpt><trkpt lat="43.01996318705705" lon="11.644342373945458"><ele>268.0</ele><time>2026-05-02T15:33:20.001Z</time></trkpt><trkpt lat="43.019940420604144" lon="11.644071887544055"><ele>268.0</ele><time>2026-05-02T15:33:21.001Z</time></trkpt><trkpt lat="43.019926666295405" lon="11.643807097968956"><ele>268.0</ele><time>2026-05-02T15:33:22.001Z</time></trkpt><trkpt lat="43.019916142059074" lon="11.643547783688255"><ele>268.3333333333333</ele><time>2026-05-02T15:33:23.001Z</time></trkpt><trkpt lat="43.01985744312348" lon="11.643235210149248"><ele>268.6666666666667</ele><time>2026-05-02T15:33:24.001Z</time></trkpt><trkpt lat="43.0198379904829" lon="11.642985339724229"><ele>269.0</ele><time>2026-05-02T15:33:25.001Z</time></trkpt><trkpt lat="43.019821526861854" lon="11.642756290402453"><ele>269.6666666666667</ele><time>2026-05-02T15:33:26.001Z</time></trkpt><trkpt lat="43.01982479240549" lon="11.642541770359118"><ele>270.3333333333333</ele><time>2026-05-02T15:33:27.001Z</time></trkpt><trkpt lat="43.019865805962866" lon="11.642347312801666"><ele>271.0</ele><time>2026-05-02T15:33:28.001Z</time></trkpt><trkpt lat="43.019956343805994" lon="11.642154816121195"><ele>270.66666666666663</ele><time>2026-05-02T15:33:29.001Z</time></trkpt><trkpt lat="43.020078621201286" lon="11.641967780153502"><ele>270.3333333333333</ele><time>2026-05-02T15:33:30.001Z</time></trkpt><trkpt lat="43.020208681196436" lon="11.641801345741234"><ele>270.0</ele><time>2026-05-02T15:33:31.001Z</time></trkpt><trkpt lat="43.0203278974213" lon="11.64162034626779"><ele>271.0</ele><time>2026-05-02T15:33:32.001Z</time></trkpt><trkpt lat="43.020447774672704" lon="11.641435699299016"><ele>272.0</ele><time>2026-05-02T15:33:33.001Z</time></trkpt><trkpt lat="43.020568834656" lon="11.641242232406448"><ele>273.0</ele><time>2026-05-02T15:33:34.001Z</time></trkpt><trkpt lat="43.02068948862501" lon="11.64104980951065"><ele>273.6666666666667</ele><time>2026-05-02T15:33:35.001Z</time></trkpt><trkpt lat="43.02081414504398" lon="11.640857116748778"><ele>274.33333333333337</ele><time>2026-05-02T15:33:36.001Z</time></trkpt><trkpt lat="43.020932921394376" lon="11.640666688264567"><ele>275.0</ele><time>2026-05-02T15:33:37.001Z</time></trkpt><trkpt lat="43.0210490091271" lon="11.64047506931755"><ele>278.0</ele><time>2026-05-02T15:33:38.001Z</time></trkpt><trkpt lat="43.02116092965183" lon="11.640275812391101"><ele>281.0</ele><time>2026-05-02T15:33:39.001Z</time></trkpt><trkpt lat="43.021257583451295" lon="11.640074699577156"><ele>284.0</ele><time>2026-05-02T15:33:40.001Z</time></trkpt><trkpt lat="43.021330313567056" lon="11.639864935227582"><ele>284.0</ele><time>2026-05-02T15:33:41.001Z</time></trkpt><trkpt lat="43.021381133752094" lon="11.639646707202736"><ele>284.0</ele><time>2026-05-02T15:33:42.001Z</time></trkpt><trkpt lat="43.021423982160854" lon="11.63942806099454"><ele>284.0</ele><time>2026-05-02T15:33:43.001Z</time></trkpt><trkpt lat="43.02146067711111" lon="11.639230150791052"><ele>284.25</ele><time>2026-05-02T15:33:44.001Z</time></trkpt><trkpt lat="43.02149094448044" lon="11.63904820184239"><ele>284.5</ele><time>2026-05-02T15:33:45Z</time></trkpt><trkpt lat="43.02151084113601" lon="11.63887631328237"><ele>284.75</ele><time>2026-05-02T15:33:46Z</time></trkpt><trkpt lat="43.02154149502879" lon="11.638699713584431"><ele>285.0</ele><time>2026-05-02T15:33:47Z</time></trkpt><trkpt lat="43.02157143394633" lon="11.638515794619682"><ele>285.25</ele><time>2026-05-02T15:33:48Z</time></trkpt><trkpt lat="43.02159937355771" lon="11.638327268867357"><ele>285.5</ele><time>2026-05-02T15:33:49Z</time></trkpt><trkpt lat="43.02162254374365" lon="11.638141325365241"><ele>285.75</ele><time>2026-05-02T15:33:50Z</time></trkpt><trkpt lat="43.02164759219145" lon="11.637967662831256"><ele>286.0</ele><time>2026-05-02T15:33:51Z</time></trkpt><trkpt lat="43.021673798775936" lon="11.637799434781739"><ele>286.0</ele><time>2026-05-02T15:33:52Z</time></trkpt><trkpt lat="43.02169785948037" lon="11.637642799189537"><ele>286.0</ele><time>2026-05-02T15:33:53Z</time></trkpt><trkpt lat="43.02172548755589" lon="11.637492451297641"><ele>286.0</ele><time>2026-05-02T15:33:54Z</time></trkpt><trkpt lat="43.02174881753758" lon="11.637347519607435"><ele>286.0</ele><time>2026-05-02T15:33:55Z</time></trkpt><trkpt lat="43.02176605130745" lon="11.637209646728666"><ele>286.0</ele><time>2026-05-02T15:33:56Z</time></trkpt><trkpt lat="43.02178341836629" lon="11.637087827013058"><ele>286.0</ele><time>2026-05-02T15:33:57Z</time></trkpt><trkpt lat="43.02180149440182" lon="11.636979738436356"><ele>286.0</ele><time>2026-05-02T15:33:58Z</time></trkpt><trkpt lat="43.02181663823016" lon="11.636888144122228"><ele>286.0</ele><time>2026-05-02T15:33:59Z</time></trkpt><trkpt lat="43.021844551947225" lon="11.636721719560335"><ele>286.0</ele><time>2026-05-02T15:34:01Z</time></trkpt><trkpt lat="43.02186802212246" lon="11.636599135760148"><ele>286.0</ele><time>2026-05-02T15:34:03Z</time></trkpt><trkpt lat="43.02189057387961" lon="11.636470120980801"><ele>286.2</ele><time>2026-05-02T15:34:05Z</time></trkpt><trkpt lat="43.02190769358747" lon="11.636283653048713"><ele>286.40000000000003</ele><time>2026-05-02T15:34:07Z</time></trkpt><trkpt lat="43.021929940996905" lon="11.63616511124131"><ele>286.6</ele><time>2026-05-02T15:34:08Z</time></trkpt><trkpt lat="43.021958901195774" lon="11.63603280798382"><ele>286.8</ele><time>2026-05-02T15:34:09Z</time></trkpt><trkpt lat="43.02198633495171" lon="11.635883419295148"><ele>287.0</ele><time>2026-05-02T15:34:10Z</time></trkpt><trkpt lat="43.0220109722167" lon="11.635716121956253"><ele>286.25</ele><time>2026-05-02T15:34:11Z</time></trkpt><trkpt lat="43.02203405838044" lon="11.635534842369983"><ele>285.5</ele><time>2026-05-02T15:34:12Z</time></trkpt><trkpt lat="43.022068008361906" lon="11.635345474675363"><ele>284.75</ele><time>2026-05-02T15:34:13Z</time></trkpt><trkpt lat="43.02210069126042" lon="11.635130720938587"><ele>284.0</ele><time>2026-05-02T15:34:14Z</time></trkpt><trkpt lat="43.02212948088838" lon="11.634902949368467"><ele>283.33333333333337</ele><time>2026-05-02T15:34:15Z</time></trkpt><trkpt lat="43.022165014237096" lon="11.63467041170739"><ele>282.6666666666667</ele><time>2026-05-02T15:34:16Z</time></trkpt><trkpt lat="43.022201494765696" lon="11.63442805795365"><ele>282.0</ele><time>2026-05-02T15:34:17Z</time></trkpt><trkpt lat="43.022237720182424" lon="11.6341845298109"><ele>281.0</ele><time>2026-05-02T15:34:18Z</time></trkpt><trkpt lat="43.02226817226651" lon="11.633939317514402"><ele>280.0</ele><time>2026-05-02T15:34:19Z</time></trkpt><trkpt lat="43.022300185730145" lon="11.633706988161604"><ele>279.0</ele><time>2026-05-02T15:34:20Z</time></trkpt><trkpt lat="43.02233340110715" lon="11.633487249252536"><ele>277.6666666666667</ele><time>2026-05-02T15:34:21Z</time></trkpt><trkpt lat="43.0223702710624" lon="11.633279124956463"><ele>276.33333333333337</ele><time>2026-05-02T15:34:22Z</time></trkpt><trkpt lat="43.02242469519543" lon="11.633083114401549"><ele>275.0</ele><time>2026-05-02T15:34:23Z</time></trkpt><trkpt lat="43.022509612976705" lon="11.632900586876765"><ele>273.0</ele><time>2026-05-02T15:34:24Z</time></trkpt><trkpt lat="43.022617675120166" lon="11.632738582902519"><ele>271.0</ele><time>2026-05-02T15:34:25Z</time></trkpt><trkpt lat="43.0227497978418" lon="11.63261107010157"><ele>269.0</ele><time>2026-05-02T15:34:26Z</time></trkpt><trkpt lat="43.022905731270235" lon="11.632568828253701"><ele>269.0</ele><time>2026-05-02T15:34:27Z</time></trkpt><trkpt lat="43.02306649112505" lon="11.63253801377995"><ele>269.0</ele><time>2026-05-02T15:34:28Z</time></trkpt><trkpt lat="43.023219695463936" lon="11.632474344096783"><ele>269.0</ele><time>2026-05-02T15:34:29Z</time></trkpt><trkpt lat="43.02336910694972" lon="11.632400875864269"><ele>268.6666666666667</ele><time>2026-05-02T15:34:30Z</time></trkpt><trkpt lat="43.02351359256747" lon="11.632275054788634"><ele>268.3333333333333</ele><time>2026-05-02T15:34:31Z</time></trkpt><trkpt lat="43.02364440009687" lon="11.632136748299928"><ele>268.0</ele><time>2026-05-02T15:34:32Z</time></trkpt><trkpt lat="43.02377276572457" lon="11.632018653809297"><ele>267.3333333333333</ele><time>2026-05-02T15:34:33Z</time></trkpt><trkpt lat="43.023898210254224" lon="11.631913230138554"><ele>266.6666666666667</ele><time>2026-05-02T15:34:34Z</time></trkpt><trkpt lat="43.024026040608135" lon="11.631798011508723"><ele>266.0</ele><time>2026-05-02T15:34:35Z</time></trkpt><trkpt lat="43.024154369403945" lon="11.63167812675686"><ele>265.5</ele><time>2026-05-02T15:34:36Z</time></trkpt><trkpt lat="43.024282419387646" lon="11.631559627378175"><ele>265.0</ele><time>2026-05-02T15:34:37Z</time></trkpt><trkpt lat="43.0243988978542" lon="11.631447149407165"><ele>264.5</ele><time>2026-05-02T15:34:38Z</time></trkpt><trkpt lat="43.02451393448667" lon="11.631342775728758"><ele>264.0</ele><time>2026-05-02T15:34:39Z</time></trkpt><trkpt lat="43.02460945398038" lon="11.631237194854844"><ele>263.5</ele><time>2026-05-02T15:34:40Z</time></trkpt><trkpt lat="43.02467412177445" lon="11.631098199464358"><ele>263.0</ele><time>2026-05-02T15:34:41Z</time></trkpt><trkpt lat="43.02471052556599" lon="11.630935916732925"><ele>262.5</ele><time>2026-05-02T15:34:42Z</time></trkpt><trkpt lat="43.024710318814925" lon="11.630758778870847"><ele>262.0</ele><time>2026-05-02T15:34:43Z</time></trkpt><trkpt lat="43.02470462582967" lon="11.630596800446096"><ele>262.0</ele><time>2026-05-02T15:34:44Z</time></trkpt><trkpt lat="43.02471232903333" lon="11.630434472120863"><ele>262.0</ele><time>2026-05-02T15:34:45Z</time></trkpt><trkpt lat="43.024728448911226" lon="11.630258564232106"><ele>262.0</ele><time>2026-05-02T15:34:46Z</time></trkpt><trkpt lat="43.02475859487018" lon="11.630077730191044"><ele>262.0</ele><time>2026-05-02T15:34:47Z</time></trkpt><trkpt lat="43.024818406710196" lon="11.629891142991665"><ele>262.75</ele><time>2026-05-02T15:34:48Z</time></trkpt><trkpt lat="43.02489714688142" lon="11.629718259367666"><ele>263.5</ele><time>2026-05-02T15:34:49Z</time></trkpt><trkpt lat="43.024987870014705" lon="11.629573953775392"><ele>264.25</ele><time>2026-05-02T15:34:50Z</time></trkpt><trkpt lat="43.02506748841644" lon="11.629429501028023"><ele>265.0</ele><time>2026-05-02T15:34:51Z</time></trkpt><trkpt lat="43.02513984027604" lon="11.629278469342124"><ele>266.5</ele><time>2026-05-02T15:34:52Z</time></trkpt><trkpt lat="43.025213255289266" lon="11.629135900702936"><ele>268.0</ele><time>2026-05-02T15:34:53Z</time></trkpt><trkpt lat="43.0252849930633" lon="11.62899751086203"><ele>269.5</ele><time>2026-05-02T15:34:54Z</time></trkpt><trkpt lat="43.025354560165525" lon="11.628867341367448"><ele>271.0</ele><time>2026-05-02T15:34:55Z</time></trkpt><trkpt lat="43.02541627468216" lon="11.628750056483115"><ele>272.6</ele><time>2026-05-02T15:34:56Z</time></trkpt><trkpt lat="43.02547961901838" lon="11.628621151200182"><ele>274.20000000000005</ele><time>2026-05-02T15:34:57Z</time></trkpt><trkpt lat="43.025542491688874" lon="11.628489423063796"><ele>275.79999999999995</ele><time>2026-05-02T15:34:58Z</time></trkpt><trkpt lat="43.02560055709185" lon="11.628370772375"><ele>277.4</ele><time>2026-05-02T15:34:59Z</time></trkpt><trkpt lat="43.02565803937158" lon="11.628262306415234"><ele>279.0</ele><time>2026-05-02T15:35:00Z</time></trkpt><trkpt lat="43.025715248091686" lon="11.628157183019141"><ele>279.0</ele><time>2026-05-02T15:35:01Z</time></trkpt><trkpt lat="43.02577577555288" lon="11.628062163623134"><ele>279.0</ele><time>2026-05-02T15:35:02Z</time></trkpt><trkpt lat="43.02584888720307" lon="11.627985833983821"><ele>279.0</ele><time>2026-05-02T15:35:03Z</time></trkpt><trkpt lat="43.02594413008193" lon="11.627933906252911"><ele>279.0</ele><time>2026-05-02T15:35:04Z</time></trkpt><trkpt lat="43.02605721343523" lon="11.62790296424176"><ele>279.0</ele><time>2026-05-02T15:35:05Z</time></trkpt><trkpt lat="43.02619033118673" lon="11.627889624946166"><ele>279.0</ele><time>2026-05-02T15:35:06Z</time></trkpt><trkpt lat="43.02633261108675" lon="11.627867999908181"><ele>279.0</ele><time>2026-05-02T15:35:07Z</time></trkpt><trkpt lat="43.02647795814686" lon="11.627839669594145"><ele>279.0</ele><time>2026-05-02T15:35:08Z</time></trkpt><trkpt lat="43.026621643197494" lon="11.627818428523371"><ele>279.0</ele><time>2026-05-02T15:35:09Z</time></trkpt><trkpt lat="43.02675747000053" lon="11.627796361260685"><ele>279.0</ele><time>2026-05-02T15:35:10Z</time></trkpt><trkpt lat="43.02688464954303" lon="11.627770237446741"><ele>279.0</ele><time>2026-05-02T15:35:11Z</time></trkpt><trkpt lat="43.027008265746986" lon="11.627751121328695"><ele>279.0</ele><time>2026-05-02T15:35:12Z</time></trkpt><trkpt lat="43.02712564321839" lon="11.627732128475962"><ele>279.0</ele><time>2026-05-02T15:35:13Z</time></trkpt><trkpt lat="43.02723136327249" lon="11.627696286865202"><ele>279.0</ele><time>2026-05-02T15:35:14Z</time></trkpt><trkpt lat="43.02732324430232" lon="11.627629811247939"><ele>279.0</ele><time>2026-05-02T15:35:15Z</time></trkpt><trkpt lat="43.02740037414392" lon="11.62753273373412"><ele>279.0</ele><time>2026-05-02T15:35:16Z</time></trkpt><trkpt lat="43.0274674842862" lon="11.62740464756566"><ele>279.0</ele><time>2026-05-02T15:35:17Z</time></trkpt><trkpt lat="43.02752764879423" lon="11.62726501674899"><ele>279.0</ele><time>2026-05-02T15:35:18Z</time></trkpt><trkpt lat="43.02758521053795" lon="11.62712147173445"><ele>277.59999999999997</ele><time>2026-05-02T15:35:19Z</time></trkpt><trkpt lat="43.02763749407096" lon="11.626978030097643"><ele>276.2</ele><time>2026-05-02T15:35:20Z</time></trkpt><trkpt lat="43.0276743697484" lon="11.626837577159284"><ele>274.79999999999995</ele><time>2026-05-02T15:35:21Z</time></trkpt><trkpt lat="43.02769015081084" lon="11.626689483798572"><ele>273.4</ele><time>2026-05-02T15:35:22Z</time></trkpt><trkpt lat="43.02768197025022" lon="11.626535431687126"><ele>272.0</ele><time>2026-05-02T15:35:23.001Z</time></trkpt><trkpt lat="43.02765688025459" lon="11.62639498856208"><ele>272.0</ele><time>2026-05-02T15:35:24.001Z</time></trkpt><trkpt lat="43.027630792288576" lon="11.626273727140653"><ele>272.0</ele><time>2026-05-02T15:35:25.001Z</time></trkpt><trkpt lat="43.02761848962994" lon="11.626162407665715"><ele>272.0</ele><time>2026-05-02T15:35:26.001Z</time></trkpt><trkpt lat="43.02763502571616" lon="11.626057265145944"><ele>272.0</ele><time>2026-05-02T15:35:27.001Z</time></trkpt><trkpt lat="43.02767764659058" lon="11.62597152818859"><ele>272.0</ele><time>2026-05-02T15:35:28.001Z</time></trkpt><trkpt lat="43.02772726465252" lon="11.625912803644967"><ele>272.0</ele><time>2026-05-02T15:35:29.001Z</time></trkpt><trkpt lat="43.027831811125516" lon="11.62582026080696"><ele>270.2</ele><time>2026-05-02T15:35:31.001Z</time></trkpt><trkpt lat="43.027891367131204" lon="11.62575941976495"><ele>268.4</ele><time>2026-05-02T15:35:32.001Z</time></trkpt><trkpt lat="43.027943683611866" lon="11.625699720615414"><ele>266.6</ele><time>2026-05-02T15:35:33.001Z</time></trkpt><trkpt lat="43.02803499596502" lon="11.625589135696545"><ele>264.8</ele><time>2026-05-02T15:35:35.001Z</time></trkpt><trkpt lat="43.02811047198482" lon="11.6254947025279"><ele>263.0</ele><time>2026-05-02T15:35:37.001Z</time></trkpt><trkpt lat="43.02819117751662" lon="11.625402460345892"><ele>263.0</ele><time>2026-05-02T15:35:39.001Z</time></trkpt><trkpt lat="43.02827108293857" lon="11.625339029605646"><ele>263.0</ele><time>2026-05-02T15:35:41.001Z</time></trkpt><trkpt lat="43.02834711813006" lon="11.625336979203915"><ele>263.0</ele><time>2026-05-02T15:35:43.001Z</time></trkpt><trkpt lat="43.02841183141976" lon="11.625338568492786"><ele>263.0</ele><time>2026-05-02T15:35:44.001Z</time></trkpt><trkpt lat="43.02849948352505" lon="11.625370708698156"><ele>263.0</ele><time>2026-05-02T15:35:45.001Z</time></trkpt><trkpt lat="43.02859181936267" lon="11.625454415950818"><ele>263.0</ele><time>2026-05-02T15:35:46.001Z</time></trkpt><trkpt lat="43.028670378844986" lon="11.625585357340928"><ele>262.25</ele><time>2026-05-02T15:35:47.001Z</time></trkpt><trkpt lat="43.028761452328794" lon="11.62572147868229"><ele>261.5</ele><time>2026-05-02T15:35:48.001Z</time></trkpt><trkpt lat="43.028867557778476" lon="11.62582046370419"><ele>260.75</ele><time>2026-05-02T15:35:49.001Z</time></trkpt><trkpt lat="43.028998249401056" lon="11.62589910793787"><ele>260.0</ele><time>2026-05-02T15:35:50Z</time></trkpt><trkpt lat="43.029138840568244" lon="11.625955281908448"><ele>262.33333333333337</ele><time>2026-05-02T15:35:51Z</time></trkpt><trkpt lat="43.02928841366836" lon="11.626000680062576"><ele>264.6666666666667</ele><time>2026-05-02T15:35:52Z</time></trkpt><trkpt lat="43.029434358649745" lon="11.626053733639603"><ele>267.0</ele><time>2026-05-02T15:35:53Z</time></trkpt><trkpt lat="43.02957424466208" lon="11.626123336811313"><ele>265.0</ele><time>2026-05-02T15:35:54Z</time></trkpt><trkpt lat="43.02970889774959" lon="11.626216164241548"><ele>263.0</ele><time>2026-05-02T15:35:55Z</time></trkpt><trkpt lat="43.02984234355573" lon="11.62631119088474"><ele>261.0</ele><time>2026-05-02T15:35:56Z</time></trkpt><trkpt lat="43.0299742445497" lon="11.626384493192258"><ele>259.0</ele><time>2026-05-02T15:35:57Z</time></trkpt><trkpt lat="43.030100858868394" lon="11.626436967420034"><ele>259.0</ele><time>2026-05-02T15:35:58Z</time></trkpt><trkpt lat="43.030224040596565" lon="11.626475246151262"><ele>259.0</ele><time>2026-05-02T15:35:59Z</time></trkpt><trkpt lat="43.03035311847931" lon="11.626504100322933"><ele>259.0</ele><time>2026-05-02T15:36:00Z</time></trkpt><trkpt lat="43.030475667153645" lon="11.626526313572326"><ele>259.0</ele><time>2026-05-02T15:36:01Z</time></trkpt><trkpt lat="43.030586322757166" lon="11.626548141213817"><ele>259.0</ele><time>2026-05-02T15:36:02Z</time></trkpt><trkpt lat="43.03068898385628" lon="11.626574378719182"><ele>259.0</ele><time>2026-05-02T15:36:03Z</time></trkpt><trkpt lat="43.03078969823312" lon="11.626599798075574"><ele>259.0</ele><time>2026-05-02T15:36:04Z</time></trkpt><trkpt lat="43.0308823665335" lon="11.62662364389634"><ele>259.0</ele><time>2026-05-02T15:36:05Z</time></trkpt><trkpt lat="43.03096564612003" lon="11.626650483938649"><ele>259.0</ele><time>2026-05-02T15:36:06Z</time></trkpt><trkpt lat="43.03103788044248" lon="11.62667545560518"><ele>260.0</ele><time>2026-05-02T15:36:07Z</time></trkpt><trkpt lat="43.03110068015775" lon="11.626696856319073"><ele>261.0</ele><time>2026-05-02T15:36:08Z</time></trkpt><trkpt lat="43.031216827216944" lon="11.62673246984076"><ele>262.0</ele><time>2026-05-02T15:36:10Z</time></trkpt><trkpt lat="43.0313228574593" lon="11.626760783841071"><ele>263.0</ele><time>2026-05-02T15:36:12Z</time></trkpt><trkpt lat="43.0314290407843" lon="11.626796844243843"><ele>264.0</ele><time>2026-05-02T15:36:14Z</time></trkpt><trkpt lat="43.03155378293587" lon="11.626834394049936"><ele>264.0</ele><time>2026-05-02T15:36:16Z</time></trkpt><trkpt lat="43.03162708195448" lon="11.626857828961795"><ele>264.0</ele><time>2026-05-02T15:36:17Z</time></trkpt><trkpt lat="43.03170283080997" lon="11.626881200740584"><ele>264.0</ele><time>2026-05-02T15:36:18Z</time></trkpt><trkpt lat="43.03178350897907" lon="11.62690463580623"><ele>264.0</ele><time>2026-05-02T15:36:19Z</time></trkpt><trkpt lat="43.031866502458676" lon="11.626929617471339"><ele>264.0</ele><time>2026-05-02T15:36:20Z</time></trkpt><trkpt lat="43.03194940770772" lon="11.626956871435477"><ele>264.0</ele><time>2026-05-02T15:36:21Z</time></trkpt><trkpt lat="43.032018427583836" lon="11.626978346413669"><ele>262.8333333333333</ele><time>2026-05-02T15:36:22Z</time></trkpt><trkpt lat="43.03208901084866" lon="11.626999668860176"><ele>261.6666666666667</ele><time>2026-05-02T15:36:23Z</time></trkpt><trkpt lat="43.03216944154869" lon="11.627023788847165"><ele>260.5</ele><time>2026-05-02T15:36:24Z</time></trkpt><trkpt lat="43.03225333246449" lon="11.627047933659181"><ele>259.33333333333337</ele><time>2026-05-02T15:36:25Z</time></trkpt><trkpt lat="43.032338891745255" lon="11.62707459051674"><ele>258.1666666666667</ele><time>2026-05-02T15:36:26Z</time></trkpt><trkpt lat="43.0324122204818" lon="11.627099437989196"><ele>257.0</ele><time>2026-05-02T15:36:27Z</time></trkpt><trkpt lat="43.03248833636327" lon="11.62712457560119"><ele>257.0</ele><time>2026-05-02T15:36:28Z</time></trkpt><trkpt lat="43.03256015817968" lon="11.627148172659725"><ele>257.0</ele><time>2026-05-02T15:36:29Z</time></trkpt><trkpt lat="43.032672982901616" lon="11.627186145828732"><ele>257.0</ele><time>2026-05-02T15:36:31Z</time></trkpt><trkpt lat="43.03279163945788" lon="11.627223952179135"><ele>257.0</ele><time>2026-05-02T15:36:33Z</time></trkpt><trkpt lat="43.03287139441243" lon="11.627246664619136"><ele>257.0</ele><time>2026-05-02T15:36:34Z</time></trkpt><trkpt lat="43.03295252948687" lon="11.627296180145471"><ele>257.0</ele><time>2026-05-02T15:36:35Z</time></trkpt><trkpt lat="43.03303420355642" lon="11.627322964682287"><ele>257.0</ele><time>2026-05-02T15:36:36Z</time></trkpt><trkpt lat="43.033118017331276" lon="11.627350450908917"><ele>257.0</ele><time>2026-05-02T15:36:37Z</time></trkpt><trkpt lat="43.033209555795956" lon="11.627380470405326"><ele>257.0</ele><time>2026-05-02T15:36:38Z</time></trkpt><trkpt lat="43.033313440638445" lon="11.627396668417022"><ele>257.0</ele><time>2026-05-02T15:36:39Z</time></trkpt><trkpt lat="43.033420336423305" lon="11.62745237096555"><ele>258.0</ele><time>2026-05-02T15:36:40Z</time></trkpt><trkpt lat="43.033531842688674" lon="11.627516280038613"><ele>259.0</ele><time>2026-05-02T15:36:41Z</time></trkpt><trkpt lat="43.03364919021348" lon="11.62758049457436"><ele>260.0</ele><time>2026-05-02T15:36:42Z</time></trkpt><trkpt lat="43.03376932124795" lon="11.627650273016487"><ele>261.0</ele><time>2026-05-02T15:36:43Z</time></trkpt><trkpt lat="43.033893652799584" lon="11.627694428498565"><ele>261.0</ele><time>2026-05-02T15:36:44Z</time></trkpt><trkpt lat="43.03407132860736" lon="11.62764721760462"><ele>261.0</ele><time>2026-05-02T15:36:45Z</time></trkpt><trkpt lat="43.03420883152885" lon="11.627676561862513"><ele>261.0</ele><time>2026-05-02T15:36:46Z</time></trkpt><trkpt lat="43.03434248733624" lon="11.627684174951828"><ele>262.5</ele><time>2026-05-02T15:36:47Z</time></trkpt><trkpt lat="43.03447841488694" lon="11.627665720776216"><ele>264.0</ele><time>2026-05-02T15:36:48Z</time></trkpt><trkpt lat="43.034616643057475" lon="11.627634250391122"><ele>265.5</ele><time>2026-05-02T15:36:49Z</time></trkpt><trkpt lat="43.03475875805783" lon="11.627603836183424"><ele>267.0</ele><time>2026-05-02T15:36:50Z</time></trkpt><trkpt lat="43.03490447373753" lon="11.62757263019377"><ele>267.5</ele><time>2026-05-02T15:36:51Z</time></trkpt><trkpt lat="43.0350513721715" lon="11.627543655663867"><ele>268.0</ele><time>2026-05-02T15:36:52Z</time></trkpt><trkpt lat="43.035201387618706" lon="11.627515631256191"><ele>268.5</ele><time>2026-05-02T15:36:53Z</time></trkpt><trkpt lat="43.035343545133" lon="11.627495282196612"><ele>269.0</ele><time>2026-05-02T15:36:54Z</time></trkpt><trkpt lat="43.03546748266165" lon="11.627477991701348"><ele>269.0</ele><time>2026-05-02T15:36:55Z</time></trkpt><trkpt lat="43.035595102748836" lon="11.627455643119907"><ele>269.0</ele><time>2026-05-02T15:36:56Z</time></trkpt><trkpt lat="43.03573361326739" lon="11.627432446068092"><ele>269.0</ele><time>2026-05-02T15:36:57Z</time></trkpt><trkpt lat="43.035877100690406" lon="11.627407397292535"><ele>269.0</ele><time>2026-05-02T15:36:58Z</time></trkpt><trkpt lat="43.03600383462604" lon="11.627389804999567"><ele>269.33333333333337</ele><time>2026-05-02T15:36:59Z</time></trkpt><trkpt lat="43.03611708155474" lon="11.627373950719958"><ele>269.6666666666667</ele><time>2026-05-02T15:37:00Z</time></trkpt><trkpt lat="43.0361957020191" lon="11.627365916307106"><ele>270.0</ele><time>2026-05-02T15:37:01Z</time></trkpt><trkpt lat="43.03626053714552" lon="11.627347977465307"><ele>270.3333333333333</ele><time>2026-05-02T15:37:02Z</time></trkpt><trkpt lat="43.03636294816827" lon="11.627313639033414"><ele>270.66666666666663</ele><time>2026-05-02T15:37:04Z</time></trkpt><trkpt lat="43.036431073821916" lon="11.627310852916153"><ele>271.0</ele><time>2026-05-02T15:37:05Z</time></trkpt><trkpt lat="43.036526032770446" lon="11.627297501424168"><ele>269.75</ele><time>2026-05-02T15:37:06Z</time></trkpt><trkpt lat="43.03665023451258" lon="11.627278356368366"><ele>268.5</ele><time>2026-05-02T15:37:07Z</time></trkpt><trkpt lat="43.03679563470309" lon="11.62725556631874"><ele>267.25</ele><time>2026-05-02T15:37:08Z</time></trkpt><trkpt lat="43.03695003231109" lon="11.627233635419746"><ele>266.0</ele><time>2026-05-02T15:37:09Z</time></trkpt><trkpt lat="43.03711630211567" lon="11.627201769555771"><ele>266.0</ele><time>2026-05-02T15:37:10Z</time></trkpt><trkpt lat="43.03729181539705" lon="11.627167778399881"><ele>266.0</ele><time>2026-05-02T15:37:11Z</time></trkpt><trkpt lat="43.03746561045115" lon="11.627142079126"><ele>266.0</ele><time>2026-05-02T15:37:12Z</time></trkpt><trkpt lat="43.037653439701316" lon="11.627110191240655"><ele>265.6666666666667</ele><time>2026-05-02T15:37:13Z</time></trkpt><trkpt lat="43.03783616794493" lon="11.627075451047334"><ele>265.3333333333333</ele><time>2026-05-02T15:37:14Z</time></trkpt><trkpt lat="43.03802284990183" lon="11.627046047443894"><ele>265.0</ele><time>2026-05-02T15:37:15Z</time></trkpt><trkpt lat="43.0382033660015" lon="11.62701383959124"><ele>267.66666666666663</ele><time>2026-05-02T15:37:16Z</time></trkpt><trkpt lat="43.03837065423587" lon="11.626974173186643"><ele>270.3333333333333</ele><time>2026-05-02T15:37:17Z</time></trkpt><trkpt lat="43.03853937821333" lon="11.626943155955503"><ele>273.0</ele><time>2026-05-02T15:37:18Z</time></trkpt><trkpt lat="43.03872206729745" lon="11.626915466291841"><ele>273.0</ele><time>2026-05-02T15:37:19Z</time></trkpt><trkpt lat="43.038915176910415" lon="11.626913511266375"><ele>273.0</ele><time>2026-05-02T15:37:20Z</time></trkpt><trkpt lat="43.03911651604618" lon="11.626907323577209"><ele>273.0</ele><time>2026-05-02T15:37:21Z</time></trkpt><trkpt lat="43.03932497037505" lon="11.626882056497987"><ele>273.0</ele><time>2026-05-02T15:37:22Z</time></trkpt><trkpt lat="43.03953510523217" lon="11.626894307786886"><ele>273.0</ele><time>2026-05-02T15:37:23Z</time></trkpt><trkpt lat="43.03972997029818" lon="11.62689086082772"><ele>273.0</ele><time>2026-05-02T15:37:24Z</time></trkpt><trkpt lat="43.039919532582545" lon="11.626892480678906"><ele>272.3333333333333</ele><time>2026-05-02T15:37:25Z</time></trkpt><trkpt lat="43.040110702815845" lon="11.62689376161987"><ele>271.66666666666663</ele><time>2026-05-02T15:37:26Z</time></trkpt><trkpt lat="43.040302001732094" lon="11.626878801132829"><ele>271.0</ele><time>2026-05-02T15:37:27Z</time></trkpt><trkpt lat="43.04050069571107" lon="11.62683853836225"><ele>271.0</ele><time>2026-05-02T15:37:28Z</time></trkpt><trkpt lat="43.04070892569714" lon="11.626775735603813"><ele>271.0</ele><time>2026-05-02T15:37:29Z</time></trkpt><trkpt lat="43.0409176780817" lon="11.626708125727243"><ele>271.0</ele><time>2026-05-02T15:37:30Z</time></trkpt><trkpt lat="43.04113089078376" lon="11.626684001263978"><ele>270.66666666666663</ele><time>2026-05-02T15:37:31Z</time></trkpt><trkpt lat="43.04132209103841" lon="11.626619665913186"><ele>270.3333333333333</ele><time>2026-05-02T15:37:32.001Z</time></trkpt><trkpt lat="43.041516786253275" lon="11.626558404803895"><ele>270.0</ele><time>2026-05-02T15:37:33.001Z</time></trkpt><trkpt lat="43.041709889035374" lon="11.626473152047497"><ele>270.0</ele><time>2026-05-02T15:37:34.001Z</time></trkpt><trkpt lat="43.04190704444247" lon="11.62637125512183"><ele>270.0</ele><time>2026-05-02T15:37:35.001Z</time></trkpt><trkpt lat="43.042107562605956" lon="11.626265136535975"><ele>270.0</ele><time>2026-05-02T15:37:36.001Z</time></trkpt><trkpt lat="43.042314542458264" lon="11.626156954393315"><ele>271.3333333333333</ele><time>2026-05-02T15:37:37.001Z</time></trkpt><trkpt lat="43.04252012178526" lon="11.626050736537964"><ele>272.66666666666663</ele><time>2026-05-02T15:37:38.001Z</time></trkpt><trkpt lat="43.04272765475587" lon="11.625943629132346"><ele>274.0</ele><time>2026-05-02T15:37:39.001Z</time></trkpt><trkpt lat="43.042932903719354" lon="11.625839866987784"><ele>274.0</ele><time>2026-05-02T15:37:40.001Z</time></trkpt><trkpt lat="43.043133804308056" lon="11.625737989304998"><ele>274.0</ele><time>2026-05-02T15:37:41.001Z</time></trkpt><trkpt lat="43.04332994731959" lon="11.625635197249446"><ele>274.0</ele><time>2026-05-02T15:37:42.001Z</time></trkpt><trkpt lat="43.04351098466935" lon="11.625538304997304"><ele>274.0</ele><time>2026-05-02T15:37:43.001Z</time></trkpt><trkpt lat="43.04367671541226" lon="11.625443328181179"><ele>274.0</ele><time>2026-05-02T15:37:44.001Z</time></trkpt><trkpt lat="43.04384492017674" lon="11.625353478172604"><ele>274.0</ele><time>2026-05-02T15:37:45.001Z</time></trkpt><trkpt lat="43.044020702712736" lon="11.625269322919078"><ele>275.66666666666663</ele><time>2026-05-02T15:37:46.001Z</time></trkpt><trkpt lat="43.04420952472527" lon="11.625187743495346"><ele>277.3333333333333</ele><time>2026-05-02T15:37:47.001Z</time></trkpt><trkpt lat="43.044417447044836" lon="11.625118311630292"><ele>279.0</ele><time>2026-05-02T15:37:48.001Z</time></trkpt><trkpt lat="43.044636240518464" lon="11.625095329527536"><ele>279.0</ele><time>2026-05-02T15:37:49.001Z</time></trkpt><trkpt lat="43.04486565004952" lon="11.625081857431194"><ele>279.0</ele><time>2026-05-02T15:37:50.001Z</time></trkpt><trkpt lat="43.04508790275857" lon="11.62507567642851"><ele>278.6666666666667</ele><time>2026-05-02T15:37:51.001Z</time></trkpt><trkpt lat="43.04529345941132" lon="11.625055201541958"><ele>278.33333333333337</ele><time>2026-05-02T15:37:52.001Z</time></trkpt><trkpt lat="43.04549227087479" lon="11.625062230461726"><ele>278.0</ele><time>2026-05-02T15:37:53.001Z</time></trkpt><trkpt lat="43.045686256012345" lon="11.625078663545125"><ele>278.33333333333337</ele><time>2026-05-02T15:37:54.001Z</time></trkpt><trkpt lat="43.04587370035541" lon="11.625167263739314"><ele>278.6666666666667</ele><time>2026-05-02T15:37:55.001Z</time></trkpt><trkpt lat="43.046057477454184" lon="11.625265144497293"><ele>279.0</ele><time>2026-05-02T15:37:56Z</time></trkpt><trkpt lat="43.046237191015116" lon="11.625338939127452"><ele>278.3333333333333</ele><time>2026-05-02T15:37:57Z</time></trkpt><trkpt lat="43.046400384968855" lon="11.625424443376536"><ele>277.66666666666663</ele><time>2026-05-02T15:37:58Z</time></trkpt><trkpt lat="43.04656229349965" lon="11.625480124203595"><ele>277.0</ele><time>2026-05-02T15:37:59Z</time></trkpt><trkpt lat="43.04673271137328" lon="11.62550543968748"><ele>277.0</ele><time>2026-05-02T15:38:00Z</time></trkpt><trkpt lat="43.046902032317966" lon="11.625513495541465"><ele>277.0</ele><time>2026-05-02T15:38:01Z</time></trkpt><trkpt lat="43.047071362961326" lon="11.625516217444217"><ele>277.0</ele><time>2026-05-02T15:38:02Z</time></trkpt><trkpt lat="43.04723441738831" lon="11.625516840608837"><ele>277.0</ele><time>2026-05-02T15:38:03Z</time></trkpt><trkpt lat="43.04739622582815" lon="11.62552059440378"><ele>277.0</ele><time>2026-05-02T15:38:04Z</time></trkpt><trkpt lat="43.04755305075592" lon="11.625526118208356"><ele>277.0</ele><time>2026-05-02T15:38:05Z</time></trkpt><trkpt lat="43.04769659049706" lon="11.625531083825242"><ele>277.5</ele><time>2026-05-02T15:38:06Z</time></trkpt><trkpt lat="43.047828698513875" lon="11.625520575393045"><ele>278.0</ele><time>2026-05-02T15:38:07Z</time></trkpt><trkpt lat="43.04795042740061" lon="11.625496219594448"><ele>278.5</ele><time>2026-05-02T15:38:08Z</time></trkpt><trkpt lat="43.048053793283856" lon="11.6254264666226"><ele>279.0</ele><time>2026-05-02T15:38:09Z</time></trkpt><trkpt lat="43.04814987966581" lon="11.625316411669543"><ele>280.25</ele><time>2026-05-02T15:38:10Z</time></trkpt><trkpt lat="43.0482398142808" lon="11.625175935255914"><ele>281.5</ele><time>2026-05-02T15:38:11Z</time></trkpt><trkpt lat="43.04831068622954" lon="11.625027422539224"><ele>282.75</ele><time>2026-05-02T15:38:12Z</time></trkpt><trkpt lat="43.04836116375219" lon="11.624909020396975"><ele>284.0</ele><time>2026-05-02T15:38:13Z</time></trkpt><trkpt lat="43.04841027970282" lon="11.624807624592096"><ele>284.4</ele><time>2026-05-02T15:38:14Z</time></trkpt><trkpt lat="43.04846733855788" lon="11.62470148783053"><ele>284.79999999999995</ele><time>2026-05-02T15:38:15Z</time></trkpt><trkpt lat="43.04852799795399" lon="11.624582357129096"><ele>285.20000000000005</ele><time>2026-05-02T15:38:16Z</time></trkpt><trkpt lat="43.04858679698029" lon="11.624452734720256"><ele>285.6</ele><time>2026-05-02T15:38:17Z</time></trkpt><trkpt lat="43.04864819382887" lon="11.62432216164689"><ele>286.0</ele><time>2026-05-02T15:38:18Z</time></trkpt><trkpt lat="43.048714457298054" lon="11.624188624581787"><ele>287.40000000000003</ele><time>2026-05-02T15:38:19Z</time></trkpt><trkpt lat="43.048781710070536" lon="11.624048056303055"><ele>288.8</ele><time>2026-05-02T15:38:20Z</time></trkpt><trkpt lat="43.048845159438685" lon="11.62391904600801"><ele>290.20000000000005</ele><time>2026-05-02T15:38:21Z</time></trkpt><trkpt lat="43.04890311142024" lon="11.623806905160398"><ele>291.6</ele><time>2026-05-02T15:38:22Z</time></trkpt><trkpt lat="43.048955873668504" lon="11.623683883880014"><ele>293.0</ele><time>2026-05-02T15:38:23Z</time></trkpt><trkpt lat="43.049018285763175" lon="11.623547189707635"><ele>292.25</ele><time>2026-05-02T15:38:24Z</time></trkpt><trkpt lat="43.04908764946493" lon="11.623401617217553"><ele>291.5</ele><time>2026-05-02T15:38:25Z</time></trkpt><trkpt lat="43.049156294273494" lon="11.62323989919355"><ele>290.75</ele><time>2026-05-02T15:38:26Z</time></trkpt><trkpt lat="43.0492250149451" lon="11.623066282336628"><ele>290.0</ele><time>2026-05-02T15:38:27Z</time></trkpt><trkpt lat="43.04928556972958" lon="11.622880193316433"><ele>291.33333333333337</ele><time>2026-05-02T15:38:28Z</time></trkpt><trkpt lat="43.04934034594123" lon="11.622688225489028"><ele>292.6666666666667</ele><time>2026-05-02T15:38:29Z</time></trkpt><trkpt lat="43.04939000579316" lon="11.622494162547518"><ele>294.0</ele><time>2026-05-02T15:38:30Z</time></trkpt><trkpt lat="43.04944046496212" lon="11.62229367426787"><ele>294.0</ele><time>2026-05-02T15:38:31Z</time></trkpt><trkpt lat="43.04948100803746" lon="11.622090830900639"><ele>294.0</ele><time>2026-05-02T15:38:32Z</time></trkpt><trkpt lat="43.04951528005855" lon="11.62188799243427"><ele>294.0</ele><time>2026-05-02T15:38:33Z</time></trkpt><trkpt lat="43.049547450935854" lon="11.621682864935794"><ele>295.3333333333333</ele><time>2026-05-02T15:38:34Z</time></trkpt><trkpt lat="43.049565356309714" lon="11.621475786877683"><ele>296.66666666666663</ele><time>2026-05-02T15:38:35Z</time></trkpt><trkpt lat="43.04957933598557" lon="11.62124955735505"><ele>298.0</ele><time>2026-05-02T15:38:36Z</time></trkpt><trkpt lat="43.04958822067879" lon="11.620997524294895"><ele>299.0</ele><time>2026-05-02T15:38:37Z</time></trkpt><trkpt lat="43.049575811407244" lon="11.620712615786758"><ele>300.0</ele><time>2026-05-02T15:38:38Z</time></trkpt><trkpt lat="43.04955133200787" lon="11.620418635676078"><ele>301.0</ele><time>2026-05-02T15:38:39Z</time></trkpt><trkpt lat="43.04951520151111" lon="11.62010810424153"><ele>301.0</ele><time>2026-05-02T15:38:40Z</time></trkpt><trkpt lat="43.04947398405616" lon="11.61978667777312"><ele>301.0</ele><time>2026-05-02T15:38:41Z</time></trkpt><trkpt lat="43.04944943923826" lon="11.619438905052645"><ele>302.0</ele><time>2026-05-02T15:38:42Z</time></trkpt><trkpt lat="43.049419509618886" lon="11.619109174067342"><ele>303.0</ele><time>2026-05-02T15:38:43Z</time></trkpt><trkpt lat="43.04938994765213" lon="11.61881333764886"><ele>304.0</ele><time>2026-05-02T15:38:44Z</time></trkpt><trkpt lat="43.04937587277433" lon="11.618544701811128"><ele>305.0</ele><time>2026-05-02T15:38:45Z</time></trkpt><trkpt lat="43.049351314492625" lon="11.618299574776648"><ele>306.0</ele><time>2026-05-02T15:38:46Z</time></trkpt><trkpt lat="43.049328713247064" lon="11.61806552288982"><ele>306.0</ele><time>2026-05-02T15:38:47Z</time></trkpt><trkpt lat="43.049308245969264" lon="11.6178398684418"><ele>306.0</ele><time>2026-05-02T15:38:48Z</time></trkpt><trkpt lat="43.04928633012558" lon="11.617620868916632"><ele>306.0</ele><time>2026-05-02T15:38:49Z</time></trkpt><trkpt lat="43.04926836824684" lon="11.617397620621793"><ele>307.3333333333333</ele><time>2026-05-02T15:38:50Z</time></trkpt><trkpt lat="43.04924960502359" lon="11.61717783055909"><ele>308.66666666666663</ele><time>2026-05-02T15:38:51Z</time></trkpt><trkpt lat="43.04923174631408" lon="11.616970845644945"><ele>310.0</ele><time>2026-05-02T15:38:52Z</time></trkpt><trkpt lat="43.049210555712115" lon="11.6167547102002"><ele>309.66666666666663</ele><time>2026-05-02T15:38:53Z</time></trkpt><trkpt lat="43.04919262880409" lon="11.616546953422445"><ele>309.3333333333333</ele><time>2026-05-02T15:38:54Z</time></trkpt><trkpt lat="43.04917537075234" lon="11.616341721640586"><ele>309.0</ele><time>2026-05-02T15:38:55Z</time></trkpt><trkpt lat="43.0491485002629" lon="11.616125801249025"><ele>312.3333333333333</ele><time>2026-05-02T15:38:56Z</time></trkpt><trkpt lat="43.04911779532681" lon="11.615913355901586"><ele>315.66666666666663</ele><time>2026-05-02T15:38:57Z</time></trkpt><trkpt lat="43.0490755447832" lon="11.61570871342278"><ele>319.0</ele><time>2026-05-02T15:38:58Z</time></trkpt><trkpt lat="43.04901547435564" lon="11.615517560376363"><ele>319.0</ele><time>2026-05-02T15:38:59Z</time></trkpt><trkpt lat="43.04896490452006" lon="11.615324320500822"><ele>319.0</ele><time>2026-05-02T15:39:00Z</time></trkpt><trkpt lat="43.04889890389603" lon="11.615140147169882"><ele>319.0</ele><time>2026-05-02T15:39:01Z</time></trkpt><trkpt lat="43.04883640006732" lon="11.614951690761764"><ele>319.3333333333333</ele><time>2026-05-02T15:39:02Z</time></trkpt><trkpt lat="43.04878033443069" lon="11.614758092708655"><ele>319.6666666666667</ele><time>2026-05-02T15:39:03Z</time></trkpt><trkpt lat="43.04872042761866" lon="11.614575293923753"><ele>320.0</ele><time>2026-05-02T15:39:04Z</time></trkpt><trkpt lat="43.04865842675908" lon="11.614379239739089"><ele>321.0</ele><time>2026-05-02T15:39:05Z</time></trkpt><trkpt lat="43.04860158190023" lon="11.614183665963933"><ele>322.0</ele><time>2026-05-02T15:39:06Z</time></trkpt><trkpt lat="43.04853713134737" lon="11.613987861937368"><ele>323.0</ele><time>2026-05-02T15:39:07Z</time></trkpt><trkpt lat="43.048470795365944" lon="11.613789753395027"><ele>323.6666666666667</ele><time>2026-05-02T15:39:08Z</time></trkpt><trkpt lat="43.04840503378162" lon="11.613583860852579"><ele>324.3333333333333</ele><time>2026-05-02T15:39:09Z</time></trkpt><trkpt lat="43.048335602874296" lon="11.613379007958025"><ele>325.0</ele><time>2026-05-02T15:39:10Z</time></trkpt><trkpt lat="43.04826720260837" lon="11.613174366331249"><ele>327.3333333333333</ele><time>2026-05-02T15:39:11Z</time></trkpt><trkpt lat="43.048204948723374" lon="11.612963678174836"><ele>329.6666666666667</ele><time>2026-05-02T15:39:12Z</time></trkpt><trkpt lat="43.04815401150218" lon="11.612747148338553"><ele>332.0</ele><time>2026-05-02T15:39:13Z</time></trkpt><trkpt lat="43.04813131090623" lon="11.612527261221901"><ele>333.6666666666667</ele><time>2026-05-02T15:39:14Z</time></trkpt><trkpt lat="43.0481280321674" lon="11.61230945464147"><ele>335.3333333333333</ele><time>2026-05-02T15:39:15Z</time></trkpt><trkpt lat="43.04814914319559" lon="11.612094122823995"><ele>337.0</ele><time>2026-05-02T15:39:16Z</time></trkpt><trkpt lat="43.048186345063726" lon="11.611880668996564"><ele>335.66666666666663</ele><time>2026-05-02T15:39:17Z</time></trkpt><trkpt lat="43.04824838516019" lon="11.61168090693735"><ele>334.3333333333333</ele><time>2026-05-02T15:39:18Z</time></trkpt><trkpt lat="43.048338798051475" lon="11.611501700784155"><ele>333.0</ele><time>2026-05-02T15:39:19Z</time></trkpt><trkpt lat="43.04843307590605" lon="11.611337197362234"><ele>333.0</ele><time>2026-05-02T15:39:20Z</time></trkpt><trkpt lat="43.048546503942234" lon="11.611194836191817"><ele>333.0</ele><time>2026-05-02T15:39:21Z</time></trkpt><trkpt lat="43.04867372815438" lon="11.611085249734241"><ele>333.0</ele><time>2026-05-02T15:39:22Z</time></trkpt><trkpt lat="43.04881421735404" lon="11.610994738688245"><ele>336.6666666666667</ele><time>2026-05-02T15:39:23Z</time></trkpt><trkpt lat="43.04897843492007" lon="11.610961713339432"><ele>340.33333333333337</ele><time>2026-05-02T15:39:24Z</time></trkpt><trkpt lat="43.049139200236084" lon="11.61090006611162"><ele>344.0</ele><time>2026-05-02T15:39:25Z</time></trkpt><trkpt lat="43.04930654018314" lon="11.610880180293906"><ele>344.0</ele><time>2026-05-02T15:39:26Z</time></trkpt><trkpt lat="43.04946225295483" lon="11.6108495402214"><ele>344.0</ele><time>2026-05-02T15:39:27Z</time></trkpt><trkpt lat="43.0496059020457" lon="11.61081372698898"><ele>344.0</ele><time>2026-05-02T15:39:28Z</time></trkpt><trkpt lat="43.049758403301965" lon="11.61076607359276"><ele>344.0</ele><time>2026-05-02T15:39:29Z</time></trkpt><trkpt lat="43.04992531187258" lon="11.6106931880629"><ele>344.0</ele><time>2026-05-02T15:39:30Z</time></trkpt><trkpt lat="43.050095601647676" lon="11.610574154044384"><ele>344.0</ele><time>2026-05-02T15:39:31Z</time></trkpt><trkpt lat="43.050262947854435" lon="11.610423137435415"><ele>346.6666666666667</ele><time>2026-05-02T15:39:32Z</time></trkpt><trkpt lat="43.050416338668896" lon="11.61027139153534"><ele>349.3333333333333</ele><time>2026-05-02T15:39:33Z</time></trkpt><trkpt lat="43.050553516347776" lon="11.610136519321351"><ele>352.0</ele><time>2026-05-02T15:39:34Z</time></trkpt><trkpt lat="43.05068280029444" lon="11.610016413269362"><ele>350.25</ele><time>2026-05-02T15:39:35Z</time></trkpt><trkpt lat="43.05080415982154" lon="11.609907519723327"><ele>348.5</ele><time>2026-05-02T15:39:36Z</time></trkpt><trkpt lat="43.05091084672202" lon="11.609800925417854"><ele>346.75</ele><time>2026-05-02T15:39:37Z</time></trkpt><trkpt lat="43.05102367604953" lon="11.60968368701678"><ele>345.0</ele><time>2026-05-02T15:39:38Z</time></trkpt><trkpt lat="43.051142582988355" lon="11.609569437638289"><ele>348.2</ele><time>2026-05-02T15:39:39Z</time></trkpt><trkpt lat="43.051262318182964" lon="11.609486047293178"><ele>351.4</ele><time>2026-05-02T15:39:40Z</time></trkpt><trkpt lat="43.05136999361096" lon="11.609424479827005"><ele>354.6</ele><time>2026-05-02T15:39:41Z</time></trkpt><trkpt lat="43.051464166615055" lon="11.609367357213415"><ele>357.8</ele><time>2026-05-02T15:39:42Z</time></trkpt><trkpt lat="43.05154345869659" lon="11.609315554091298"><ele>361.0</ele><time>2026-05-02T15:39:43Z</time></trkpt><trkpt lat="43.05162077108902" lon="11.609290673650824"><ele>359.8</ele><time>2026-05-02T15:39:44Z</time></trkpt><trkpt lat="43.05172451823666" lon="11.609228280981712"><ele>358.6</ele><time>2026-05-02T15:39:46Z</time></trkpt><trkpt lat="43.051804868081085" lon="11.609197232619437"><ele>357.4</ele><time>2026-05-02T15:39:49Z</time></trkpt><trkpt lat="43.051878975253324" lon="11.609133300195712"><ele>356.2</ele><time>2026-05-02T15:40:36Z</time></trkpt><trkpt lat="43.05194437085957" lon="11.609085069367795"><ele>355.0</ele><time>2026-05-02T15:40:37Z</time></trkpt><trkpt lat="43.05203196872158" lon="11.609020966735937"><ele>355.0</ele><time>2026-05-02T15:40:38Z</time></trkpt><trkpt lat="43.05214091294654" lon="11.608979953713524"><ele>355.0</ele><time>2026-05-02T15:40:39Z</time></trkpt><trkpt lat="43.05224850198142" lon="11.60889620585709"><ele>355.0</ele><time>2026-05-02T15:40:40Z</time></trkpt><trkpt lat="43.05236484160954" lon="11.60882950461333"><ele>355.0</ele><time>2026-05-02T15:40:41Z</time></trkpt><trkpt lat="43.05248502653624" lon="11.608754266470303"><ele>356.0</ele><time>2026-05-02T15:40:42Z</time></trkpt><trkpt lat="43.0526317466976" lon="11.608690573279128"><ele>357.0</ele><time>2026-05-02T15:40:43Z</time></trkpt><trkpt lat="43.05276863218255" lon="11.608587355101015"><ele>358.0</ele><time>2026-05-02T15:40:44Z</time></trkpt><trkpt lat="43.052925056187874" lon="11.608501471271431"><ele>358.0</ele><time>2026-05-02T15:40:45Z</time></trkpt><trkpt lat="43.053067820362244" lon="11.608417027035822"><ele>358.0</ele><time>2026-05-02T15:40:46Z</time></trkpt><trkpt lat="43.05319425868521" lon="11.60835199802642"><ele>358.0</ele><time>2026-05-02T15:40:47Z</time></trkpt><trkpt lat="43.05332872732083" lon="11.60831891971776"><ele>358.0</ele><time>2026-05-02T15:40:48Z</time></trkpt><trkpt lat="43.05346808479796" lon="11.60830477613783"><ele>359.5</ele><time>2026-05-02T15:40:49Z</time></trkpt><trkpt lat="43.053610854778825" lon="11.60832635570826"><ele>361.0</ele><time>2026-05-02T15:40:50Z</time></trkpt><trkpt lat="43.053756403764424" lon="11.608372320909083"><ele>362.5</ele><time>2026-05-02T15:40:51Z</time></trkpt><trkpt lat="43.053889626786884" lon="11.608476113369749"><ele>364.0</ele><time>2026-05-02T15:40:52Z</time></trkpt><trkpt lat="43.0540337301008" lon="11.608569986635786"><ele>363.66666666666663</ele><time>2026-05-02T15:40:53Z</time></trkpt><trkpt lat="43.05417663285592" lon="11.608698816069722"><ele>363.3333333333333</ele><time>2026-05-02T15:40:54Z</time></trkpt><trkpt lat="43.05432676729495" lon="11.608827628902997"><ele>363.0</ele><time>2026-05-02T15:40:55Z</time></trkpt><trkpt lat="43.054470986991824" lon="11.608952745826725"><ele>363.0</ele><time>2026-05-02T15:40:56Z</time></trkpt><trkpt lat="43.05461647720746" lon="11.609070998304643"><ele>363.0</ele><time>2026-05-02T15:40:57Z</time></trkpt><trkpt lat="43.05476424289658" lon="11.609197309105042"><ele>363.0</ele><time>2026-05-02T15:40:58Z</time></trkpt><trkpt lat="43.054912138952695" lon="11.609323174272896"><ele>364.6666666666667</ele><time>2026-05-02T15:40:59Z</time></trkpt><trkpt lat="43.05506192731387" lon="11.609445120738371"><ele>366.33333333333337</ele><time>2026-05-02T15:41:00Z</time></trkpt><trkpt lat="43.05521085476079" lon="11.609570243670484"><ele>368.0</ele><time>2026-05-02T15:41:01Z</time></trkpt><trkpt lat="43.055356576254134" lon="11.609699470840535"><ele>368.0</ele><time>2026-05-02T15:41:02Z</time></trkpt><trkpt lat="43.05549709921895" lon="11.609824454481936"><ele>368.0</ele><time>2026-05-02T15:41:03Z</time></trkpt><trkpt lat="43.055633158491524" lon="11.609940917243339"><ele>368.0</ele><time>2026-05-02T15:41:04Z</time></trkpt><trkpt lat="43.055764481706845" lon="11.610054390427068"><ele>369.33333333333337</ele><time>2026-05-02T15:41:05Z</time></trkpt><trkpt lat="43.05589817305831" lon="11.61016843856125"><ele>370.6666666666667</ele><time>2026-05-02T15:41:06Z</time></trkpt><trkpt lat="43.05604006721387" lon="11.610281771624459"><ele>372.0</ele><time>2026-05-02T15:41:07Z</time></trkpt><trkpt lat="43.056185743400164" lon="11.610405029358835"><ele>372.0</ele><time>2026-05-02T15:41:08Z</time></trkpt><trkpt lat="43.056336701342964" lon="11.610532790445795"><ele>372.0</ele><time>2026-05-02T15:41:09Z</time></trkpt><trkpt lat="43.05649030427918" lon="11.610662196165189"><ele>372.0</ele><time>2026-05-02T15:41:10Z</time></trkpt><trkpt lat="43.056628533269354" lon="11.61077697653812"><ele>372.5</ele><time>2026-05-02T15:41:11Z</time></trkpt><trkpt lat="43.056759245118116" lon="11.61087823163087"><ele>373.0</ele><time>2026-05-02T15:41:12Z</time></trkpt><trkpt lat="43.05688919079206" lon="11.610967462128402"><ele>373.5</ele><time>2026-05-02T15:41:13Z</time></trkpt><trkpt lat="43.05703000789702" lon="11.611034912514647"><ele>374.0</ele><time>2026-05-02T15:41:14Z</time></trkpt><trkpt lat="43.057186397379105" lon="11.611082082582053"><ele>374.0</ele><time>2026-05-02T15:41:15Z</time></trkpt><trkpt lat="43.057349329537296" lon="11.61108255317775"><ele>374.0</ele><time>2026-05-02T15:41:16Z</time></trkpt><trkpt lat="43.057515342094966" lon="11.611029300415707"><ele>374.0</ele><time>2026-05-02T15:41:17Z</time></trkpt><trkpt lat="43.057673841247095" lon="11.610955860111668"><ele>375.33333333333337</ele><time>2026-05-02T15:41:18Z</time></trkpt><trkpt lat="43.05782161878395" lon="11.610861282005883"><ele>376.6666666666667</ele><time>2026-05-02T15:41:19Z</time></trkpt><trkpt lat="43.05795112527433" lon="11.61074395712756"><ele>378.0</ele><time>2026-05-02T15:41:20Z</time></trkpt><trkpt lat="43.05806209563893" lon="11.61061067292063"><ele>378.0</ele><time>2026-05-02T15:41:21Z</time></trkpt><trkpt lat="43.058166330267454" lon="11.610485703737258"><ele>378.0</ele><time>2026-05-02T15:41:22Z</time></trkpt><trkpt lat="43.058257454839236" lon="11.610326287570926"><ele>378.0</ele><time>2026-05-02T15:41:23Z</time></trkpt><trkpt lat="43.058356756070985" lon="11.61015645407902"><ele>378.0</ele><time>2026-05-02T15:41:24Z</time></trkpt><trkpt lat="43.05845220850205" lon="11.609994066036851"><ele>380.25</ele><time>2026-05-02T15:41:25Z</time></trkpt><trkpt lat="43.05854118664832" lon="11.609854566893278"><ele>382.5</ele><time>2026-05-02T15:41:26Z</time></trkpt><trkpt lat="43.05862071645044" lon="11.609728077210166"><ele>384.75</ele><time>2026-05-02T15:41:27Z</time></trkpt><trkpt lat="43.05870550060223" lon="11.609588393360022"><ele>387.0</ele><time>2026-05-02T15:41:28Z</time></trkpt><trkpt lat="43.058796286889894" lon="11.609442119019437"><ele>387.25</ele><time>2026-05-02T15:41:29Z</time></trkpt><trkpt lat="43.05889445546373" lon="11.60928341597369"><ele>387.5</ele><time>2026-05-02T15:41:30Z</time></trkpt><trkpt lat="43.05898945437762" lon="11.609134110641925"><ele>387.75</ele><time>2026-05-02T15:41:31Z</time></trkpt><trkpt lat="43.0590837366132" lon="11.60898412713574"><ele>388.0</ele><time>2026-05-02T15:41:32Z</time></trkpt><trkpt lat="43.05917116095025" lon="11.608842990704805"><ele>388.0</ele><time>2026-05-02T15:41:33Z</time></trkpt><trkpt lat="43.05926105432488" lon="11.608712840114945"><ele>388.0</ele><time>2026-05-02T15:41:34Z</time></trkpt><trkpt lat="43.059352926773784" lon="11.608559956918596"><ele>388.0</ele><time>2026-05-02T15:41:35Z</time></trkpt><trkpt lat="43.0594493920269" lon="11.608397347995263"><ele>388.0</ele><time>2026-05-02T15:41:36Z</time></trkpt><trkpt lat="43.05954917508285" lon="11.608234337438859"><ele>391.0</ele><time>2026-05-02T15:41:37Z</time></trkpt><trkpt lat="43.05964960156396" lon="11.608076297229264"><ele>394.0</ele><time>2026-05-02T15:41:38Z</time></trkpt><trkpt lat="43.05975065310303" lon="11.607906218239401"><ele>397.0</ele><time>2026-05-02T15:41:39Z</time></trkpt><trkpt lat="43.05985084076803" lon="11.60774113299137"><ele>397.25</ele><time>2026-05-02T15:41:40Z</time></trkpt><trkpt lat="43.05993835948744" lon="11.607598543783904"><ele>397.5</ele><time>2026-05-02T15:41:41Z</time></trkpt><trkpt lat="43.060021326652176" lon="11.607479141088664"><ele>397.75</ele><time>2026-05-02T15:41:42Z</time></trkpt><trkpt lat="43.06010554034052" lon="11.607388092790465"><ele>398.0</ele><time>2026-05-02T15:41:43Z</time></trkpt><trkpt lat="43.06019018214123" lon="11.607316480269775"><ele>397.0</ele><time>2026-05-02T15:41:44Z</time></trkpt><trkpt lat="43.06027703913884" lon="11.60728161297988"><ele>396.0</ele><time>2026-05-02T15:41:45Z</time></trkpt><trkpt lat="43.0603795135031" lon="11.607211453243242"><ele>395.0</ele><time>2026-05-02T15:41:46Z</time></trkpt><trkpt lat="43.06049480346316" lon="11.607121373706084"><ele>394.0</ele><time>2026-05-02T15:41:47Z</time></trkpt><trkpt lat="43.06060295139691" lon="11.60701370109886"><ele>394.79999999999995</ele><time>2026-05-02T15:41:48Z</time></trkpt><trkpt lat="43.060709182715556" lon="11.606896242562062"><ele>395.59999999999997</ele><time>2026-05-02T15:41:49Z</time></trkpt><trkpt lat="43.06080306066124" lon="11.606810738113108"><ele>396.4</ele><time>2026-05-02T15:41:50Z</time></trkpt><trkpt lat="43.060883649010556" lon="11.606769400282523"><ele>397.2</ele><time>2026-05-02T15:41:51Z</time></trkpt><trkpt lat="43.06094785061954" lon="11.606761664049888"><ele>398.0</ele><time>2026-05-02T15:41:52Z</time></trkpt><trkpt lat="43.061012569065305" lon="11.606729898506511"><ele>398.0</ele><time>2026-05-02T15:41:57Z</time></trkpt><trkpt lat="43.061074894639546" lon="11.60686551323143"><ele>398.0</ele><time>2026-05-02T15:41:58Z</time></trkpt><trkpt lat="43.06112219526831" lon="11.606936838946813"><ele>398.0</ele><time>2026-05-02T15:41:59Z</time></trkpt><trkpt lat="43.061176520405645" lon="11.607042462708405"><ele>398.0</ele><time>2026-05-02T15:42:00Z</time></trkpt><trkpt lat="43.06124231865288" lon="11.607171695217565"><ele>398.0</ele><time>2026-05-02T15:42:01Z</time></trkpt><trkpt lat="43.06132307764401" lon="11.607323598764772"><ele>398.0</ele><time>2026-05-02T15:42:02Z</time></trkpt><trkpt lat="43.06141424293472" lon="11.607483759932817"><ele>398.0</ele><time>2026-05-02T15:42:03.001Z</time></trkpt><trkpt lat="43.061522864825804" lon="11.607646895559697"><ele>398.0</ele><time>2026-05-02T15:42:04.001Z</time></trkpt><trkpt lat="43.06161725888419" lon="11.607821897958612"><ele>400.3333333333333</ele><time>2026-05-02T15:42:05.001Z</time></trkpt><trkpt lat="43.0617323808903" lon="11.607985420917455"><ele>402.66666666666663</ele><time>2026-05-02T15:42:06.001Z</time></trkpt><trkpt lat="43.06184796735899" lon="11.608149545388416"><ele>405.0</ele><time>2026-05-02T15:42:07.001Z</time></trkpt><trkpt lat="43.06196540406808" lon="11.608308696019048"><ele>405.0</ele><time>2026-05-02T15:42:08Z</time></trkpt><trkpt lat="43.062084841873755" lon="11.608467349982309"><ele>405.0</ele><time>2026-05-02T15:42:09Z</time></trkpt><trkpt lat="43.062200208640505" lon="11.608623924971113"><ele>405.0</ele><time>2026-05-02T15:42:10Z</time></trkpt><trkpt lat="43.062318153969" lon="11.608779194335428"><ele>405.33333333333337</ele><time>2026-05-02T15:42:11Z</time></trkpt><trkpt lat="43.062437529060425" lon="11.608932637189291"><ele>405.6666666666667</ele><time>2026-05-02T15:42:12Z</time></trkpt><trkpt lat="43.06255577859619" lon="11.60908793061733"><ele>406.0</ele><time>2026-05-02T15:42:13Z</time></trkpt><trkpt lat="43.06267209609029" lon="11.609239793288696"><ele>407.5</ele><time>2026-05-02T15:42:14Z</time></trkpt><trkpt lat="43.06277818244159" lon="11.60937518487872"><ele>409.0</ele><time>2026-05-02T15:42:15Z</time></trkpt><trkpt lat="43.062884600034174" lon="11.609499497563638"><ele>410.5</ele><time>2026-05-02T15:42:16Z</time></trkpt><trkpt lat="43.06300006843863" lon="11.6096170471576"><ele>412.0</ele><time>2026-05-02T15:42:17Z</time></trkpt><trkpt lat="43.06312384351453" lon="11.609722691957717"><ele>412.0</ele><time>2026-05-02T15:42:18Z</time></trkpt><trkpt lat="43.063263725576164" lon="11.609816519437748"><ele>412.0</ele><time>2026-05-02T15:42:19Z</time></trkpt><trkpt lat="43.06340295420519" lon="11.6099297934279"><ele>412.0</ele><time>2026-05-02T15:42:20Z</time></trkpt><trkpt lat="43.0635499553796" lon="11.610027708620121"><ele>413.0</ele><time>2026-05-02T15:42:21Z</time></trkpt><trkpt lat="43.06370928785974" lon="11.610110622790652"><ele>414.0</ele><time>2026-05-02T15:42:22Z</time></trkpt><trkpt lat="43.06385798572445" lon="11.610208126852996"><ele>415.0</ele><time>2026-05-02T15:42:23Z</time></trkpt><trkpt lat="43.063990232078595" lon="11.61032043413246"><ele>411.25</ele><time>2026-05-02T15:42:24Z</time></trkpt><trkpt lat="43.06412530007364" lon="11.610385514825923"><ele>407.5</ele><time>2026-05-02T15:42:25Z</time></trkpt><trkpt lat="43.06423777668739" lon="11.610467891434624"><ele>403.75</ele><time>2026-05-02T15:42:26Z</time></trkpt><trkpt lat="43.06434286395312" lon="11.610542416654335"><ele>400.0</ele><time>2026-05-02T15:42:27Z</time></trkpt><trkpt lat="43.06443904641111" lon="11.610634196513375"><ele>400.00000000000006</ele><time>2026-05-02T15:42:28Z</time></trkpt><trkpt lat="43.06452475551909" lon="11.610676347502237"><ele>400.0</ele><time>2026-05-02T15:42:29Z</time></trkpt><trkpt lat="43.064583834791456" lon="11.610726809229963"><ele>400.0</ele><time>2026-05-02T15:42:30Z</time></trkpt><trkpt lat="43.06465128795997" lon="11.61079209415961"><ele>400.0</ele><time>2026-05-02T15:42:32Z</time></trkpt><trkpt lat="43.064725845226164" lon="11.610867338278563"><ele>400.00000000000006</ele><time>2026-05-02T15:42:35Z</time></trkpt><trkpt lat="43.06480647910666" lon="11.610958486693407"><ele>400.0</ele><time>2026-05-02T15:42:37Z</time></trkpt><trkpt lat="43.0648890538467" lon="11.611077781850357"><ele>400.0</ele><time>2026-05-02T15:42:39Z</time></trkpt><trkpt lat="43.064943124701365" lon="11.611149923347154"><ele>400.0</ele><time>2026-05-02T15:42:40Z</time></trkpt><trkpt lat="43.06500115045617" lon="11.611240363759135"><ele>400.0</ele><time>2026-05-02T15:42:41Z</time></trkpt><trkpt lat="43.065063040057474" lon="11.611351864014013"><ele>400.0</ele><time>2026-05-02T15:42:42Z</time></trkpt><trkpt lat="43.06512460738479" lon="11.611483682638726"><ele>400.0</ele><time>2026-05-02T15:42:43Z</time></trkpt><trkpt lat="43.06518769651616" lon="11.611632025907424"><ele>399.75</ele><time>2026-05-02T15:42:44Z</time></trkpt><trkpt lat="43.06525340838873" lon="11.611787906616497"><ele>399.5</ele><time>2026-05-02T15:42:45Z</time></trkpt><trkpt lat="43.065314163209045" lon="11.611949956871163"><ele>399.25</ele><time>2026-05-02T15:42:46Z</time></trkpt><trkpt lat="43.065375430343515" lon="11.612117114211623"><ele>399.0</ele><time>2026-05-02T15:42:47Z</time></trkpt><trkpt lat="43.06544351025104" lon="11.612289278178423"><ele>399.0</ele><time>2026-05-02T15:42:48Z</time></trkpt><trkpt lat="43.06551581039101" lon="11.612471861543062"><ele>399.0</ele><time>2026-05-02T15:42:49Z</time></trkpt><trkpt lat="43.065588962776424" lon="11.612664991195103"><ele>399.0</ele><time>2026-05-02T15:42:50Z</time></trkpt><trkpt lat="43.06566203150434" lon="11.612866863148056"><ele>399.33333333333337</ele><time>2026-05-02T15:42:51Z</time></trkpt><trkpt lat="43.06573955699415" lon="11.613064873265953"><ele>399.6666666666667</ele><time>2026-05-02T15:42:52Z</time></trkpt><trkpt lat="43.06581782065443" lon="11.613260379658907"><ele>400.0</ele><time>2026-05-02T15:42:53Z</time></trkpt><trkpt lat="43.065887328690465" lon="11.613442720262906"><ele>400.0</ele><time>2026-05-02T15:42:54Z</time></trkpt><trkpt lat="43.06595601630555" lon="11.613607987533491"><ele>400.0</ele><time>2026-05-02T15:42:55Z</time></trkpt><trkpt lat="43.0660288931613" lon="11.613770807486516"><ele>400.0</ele><time>2026-05-02T15:42:56Z</time></trkpt><trkpt lat="43.06610860422308" lon="11.613925808375397"><ele>400.0</ele><time>2026-05-02T15:42:57Z</time></trkpt><trkpt lat="43.06620501402795" lon="11.614067707922459"><ele>400.0</ele><time>2026-05-02T15:42:58Z</time></trkpt><trkpt lat="43.06631434000595" lon="11.614191401520342"><ele>400.0</ele><time>2026-05-02T15:42:59Z</time></trkpt><trkpt lat="43.066433942946254" lon="11.614307500502523"><ele>400.0</ele><time>2026-05-02T15:43:00Z</time></trkpt><trkpt lat="43.06656479837879" lon="11.614408489584891"><ele>400.0</ele><time>2026-05-02T15:43:01Z</time></trkpt><trkpt lat="43.06670808186869" lon="11.614492025520038"><ele>399.0</ele><time>2026-05-02T15:43:02Z</time></trkpt><trkpt lat="43.06686819184079" lon="11.614555460476026"><ele>398.0</ele><time>2026-05-02T15:43:03Z</time></trkpt><trkpt lat="43.067039107411944" lon="11.614614219647224"><ele>397.0</ele><time>2026-05-02T15:43:04Z</time></trkpt><trkpt lat="43.06721584489913" lon="11.614701283961484"><ele>397.0</ele><time>2026-05-02T15:43:05Z</time></trkpt><trkpt lat="43.06739903949057" lon="11.614749025965104"><ele>397.0</ele><time>2026-05-02T15:43:06Z</time></trkpt><trkpt lat="43.06757516369394" lon="11.614818917890736"><ele>397.0</ele><time>2026-05-02T15:43:07Z</time></trkpt><trkpt lat="43.06774682131061" lon="11.614882565327363"><ele>396.6666666666667</ele><time>2026-05-02T15:43:08Z</time></trkpt><trkpt lat="43.06791502815198" lon="11.614947200237735"><ele>396.33333333333337</ele><time>2026-05-02T15:43:09Z</time></trkpt><trkpt lat="43.068081542671756" lon="11.615013435855396"><ele>396.0</ele><time>2026-05-02T15:43:10Z</time></trkpt><trkpt lat="43.068248614904704" lon="11.61507624965107"><ele>395.0</ele><time>2026-05-02T15:43:11Z</time></trkpt><trkpt lat="43.06841492157207" lon="11.615133878794424"><ele>394.0</ele><time>2026-05-02T15:43:12Z</time></trkpt><trkpt lat="43.068579731821615" lon="11.615194853163015"><ele>393.0</ele><time>2026-05-02T15:43:13Z</time></trkpt><trkpt lat="43.068743358078635" lon="11.615252976803506"><ele>393.0</ele><time>2026-05-02T15:43:14Z</time></trkpt><trkpt lat="43.06890022896889" lon="11.615320238561125"><ele>393.0</ele><time>2026-05-02T15:43:15Z</time></trkpt><trkpt lat="43.06905172597237" lon="11.61539481071881"><ele>393.0</ele><time>2026-05-02T15:43:16Z</time></trkpt><trkpt lat="43.069191534293545" lon="11.615503518339258"><ele>390.0</ele><time>2026-05-02T15:43:17Z</time></trkpt><trkpt lat="43.069324036987695" lon="11.615619776075146"><ele>387.0</ele><time>2026-05-02T15:43:18Z</time></trkpt><trkpt lat="43.06944194650325" lon="11.615756202623022"><ele>384.0</ele><time>2026-05-02T15:43:19Z</time></trkpt><trkpt lat="43.06954913538499" lon="11.615913107486053"><ele>384.0</ele><time>2026-05-02T15:43:20Z</time></trkpt><trkpt lat="43.06964546403637" lon="11.61609224817046"><ele>384.0</ele><time>2026-05-02T15:43:21Z</time></trkpt><trkpt lat="43.069743389750656" lon="11.616274645753105"><ele>384.0</ele><time>2026-05-02T15:43:22Z</time></trkpt><trkpt lat="43.06981379655778" lon="11.616483699609846"><ele>382.6666666666667</ele><time>2026-05-02T15:43:23Z</time></trkpt><trkpt lat="43.06988042075067" lon="11.616704186231855"><ele>381.33333333333337</ele><time>2026-05-02T15:43:24Z</time></trkpt><trkpt lat="43.06994656613442" lon="11.61693650880546"><ele>380.0</ele><time>2026-05-02T15:43:25Z</time></trkpt><trkpt lat="43.07001812130196" lon="11.61718033675296"><ele>379.6666666666667</ele><time>2026-05-02T15:43:26Z</time></trkpt><trkpt lat="43.07009706172549" lon="11.617422613762265"><ele>379.3333333333333</ele><time>2026-05-02T15:43:27Z</time></trkpt><trkpt lat="43.07018363304535" lon="11.617650896469573"><ele>379.0</ele><time>2026-05-02T15:43:28Z</time></trkpt><trkpt lat="43.07029259683314" lon="11.617851162273903"><ele>378.66666666666663</ele><time>2026-05-02T15:43:29Z</time></trkpt><trkpt lat="43.07041748918897" lon="11.618035075670182"><ele>378.3333333333333</ele><time>2026-05-02T15:43:30Z</time></trkpt><trkpt lat="43.070566679225855" lon="11.618201521466483"><ele>378.0</ele><time>2026-05-02T15:43:31Z</time></trkpt><trkpt lat="43.07074725430903" lon="11.618343209659605"><ele>374.5</ele><time>2026-05-02T15:43:32Z</time></trkpt><trkpt lat="43.07095134061854" lon="11.618477596770042"><ele>371.0</ele><time>2026-05-02T15:43:33Z</time></trkpt><trkpt lat="43.07116191947432" lon="11.618612025325197"><ele>371.33333333333337</ele><time>2026-05-02T15:43:34Z</time></trkpt><trkpt lat="43.07137286021264" lon="11.618739586738156"><ele>371.6666666666667</ele><time>2026-05-02T15:43:35Z</time></trkpt><trkpt lat="43.07156069193054" lon="11.618885474154734"><ele>372.0</ele><time>2026-05-02T15:43:36Z</time></trkpt><trkpt lat="43.071750853141396" lon="11.618982842967183"><ele>370.0</ele><time>2026-05-02T15:43:37Z</time></trkpt><trkpt lat="43.071925088390515" lon="11.619099312097884"><ele>368.0</ele><time>2026-05-02T15:43:38Z</time></trkpt><trkpt lat="43.07210085130664" lon="11.619212169064562"><ele>366.0</ele><time>2026-05-02T15:43:39Z</time></trkpt><trkpt lat="43.07227816328777" lon="11.619328664427805"><ele>366.0</ele><time>2026-05-02T15:43:40Z</time></trkpt><trkpt lat="43.072452557041906" lon="11.619441652634872"><ele>366.0</ele><time>2026-05-02T15:43:41Z</time></trkpt><trkpt lat="43.072612154667645" lon="11.619567443324868"><ele>366.0</ele><time>2026-05-02T15:43:42Z</time></trkpt><trkpt lat="43.072769587733504" lon="11.619692794797894"><ele>367.0</ele><time>2026-05-02T15:43:43Z</time></trkpt><trkpt lat="43.07291861496107" lon="11.619842578854803"><ele>368.0</ele><time>2026-05-02T15:43:44Z</time></trkpt><trkpt lat="43.07305611530234" lon="11.620029945792327"><ele>369.0</ele><time>2026-05-02T15:43:45Z</time></trkpt><trkpt lat="43.07319413451377" lon="11.620235408129583"><ele>368.3333333333333</ele><time>2026-05-02T15:43:46Z</time></trkpt><trkpt lat="43.07329510361587" lon="11.620477802411575"><ele>367.66666666666663</ele><time>2026-05-02T15:43:47Z</time></trkpt><trkpt lat="43.07335833344735" lon="11.620735183554249"><ele>367.0</ele><time>2026-05-02T15:43:48Z</time></trkpt><trkpt lat="43.073424759603576" lon="11.620988314646246"><ele>366.0</ele><time>2026-05-02T15:43:49Z</time></trkpt><trkpt lat="43.073450290299064" lon="11.621260508506728"><ele>365.0</ele><time>2026-05-02T15:43:50Z</time></trkpt><trkpt lat="43.07345067082112" lon="11.621537043025986"><ele>364.0</ele><time>2026-05-02T15:43:51Z</time></trkpt><trkpt lat="43.07342376253215" lon="11.621805140745424"><ele>363.3333333333333</ele><time>2026-05-02T15:43:52Z</time></trkpt><trkpt lat="43.073373917299456" lon="11.622066687929255"><ele>362.6666666666667</ele><time>2026-05-02T15:43:53Z</time></trkpt><trkpt lat="43.07330859296172" lon="11.622317585726318"><ele>362.0</ele><time>2026-05-02T15:43:54Z</time></trkpt><trkpt lat="43.07324487275469" lon="11.622544288954774"><ele>361.33333333333337</ele><time>2026-05-02T15:43:55Z</time></trkpt><trkpt lat="43.073203211107796" lon="11.622782148523402"><ele>360.6666666666667</ele><time>2026-05-02T15:43:56Z</time></trkpt><trkpt lat="43.073148989251834" lon="11.623011739280246"><ele>360.0</ele><time>2026-05-02T15:43:57Z</time></trkpt><trkpt lat="43.07311667402626" lon="11.623232089385528"><ele>360.0</ele><time>2026-05-02T15:43:58Z</time></trkpt><trkpt lat="43.07310133631596" lon="11.623415044442837"><ele>360.0</ele><time>2026-05-02T15:43:59Z</time></trkpt><trkpt lat="43.07309752470364" lon="11.623582049866576"><ele>360.0</ele><time>2026-05-02T15:44:00Z</time></trkpt><trkpt lat="43.0730982232446" lon="11.623720491333449"><ele>360.0</ele><time>2026-05-02T15:44:01Z</time></trkpt><trkpt lat="43.07310356694238" lon="11.623850780051995"><ele>360.0</ele><time>2026-05-02T15:44:02Z</time></trkpt><trkpt lat="43.07310640744173" lon="11.623982105834335"><ele>360.0</ele><time>2026-05-02T15:44:03Z</time></trkpt><trkpt lat="43.07312205425569" lon="11.624073182365702"><ele>360.0</ele><time>2026-05-02T15:44:04Z</time></trkpt><trkpt lat="43.073150359833114" lon="11.624229629242409"><ele>360.0</ele><time>2026-05-02T15:44:06Z</time></trkpt><trkpt lat="43.07317658930633" lon="11.624331777395996"><ele>360.0</ele><time>2026-05-02T15:44:08.001Z</time></trkpt><trkpt lat="43.073202240619715" lon="11.624424167762562"><ele>360.0</ele><time>2026-05-02T15:44:11.001Z</time></trkpt><trkpt lat="43.07322433984693" lon="11.624518827804996"><ele>360.1666666666667</ele><time>2026-05-02T15:44:15Z</time></trkpt><trkpt lat="43.073251699975884" lon="11.624609561395463"><ele>360.3333333333333</ele><time>2026-05-02T15:44:18Z</time></trkpt><trkpt lat="43.073293849841804" lon="11.624715996414237"><ele>360.5</ele><time>2026-05-02T15:44:21Z</time></trkpt><trkpt lat="43.0733327775261" lon="11.624814038036066"><ele>360.66666666666663</ele><time>2026-05-02T15:44:24Z</time></trkpt><trkpt lat="43.073364714624184" lon="11.624898999798546"><ele>360.8333333333333</ele><time>2026-05-02T15:44:27Z</time></trkpt><trkpt lat="43.07341326418578" lon="11.624986468940405"><ele>361.0</ele><time>2026-05-02T15:44:31Z</time></trkpt><trkpt lat="43.07345310632946" lon="11.625073481993784"><ele>361.0</ele><time>2026-05-02T15:44:34Z</time></trkpt><trkpt lat="43.07351046758701" lon="11.625172222812415"><ele>361.0</ele><time>2026-05-02T15:44:37Z</time></trkpt><trkpt lat="43.073564054973026" lon="11.625263108970751"><ele>361.0</ele><time>2026-05-02T15:44:40Z</time></trkpt><trkpt lat="43.07360358436542" lon="11.625335108889184"><ele>361.0</ele><time>2026-05-02T15:44:43Z</time></trkpt><trkpt lat="43.073650079138275" lon="11.62541315030884"><ele>361.0</ele><time>2026-05-02T15:44:46Z</time></trkpt><trkpt lat="43.07369768638759" lon="11.625493471135181"><ele>361.0</ele><time>2026-05-02T15:44:48Z</time></trkpt><trkpt lat="43.07377012572782" lon="11.625612812747221"><ele>359.66666666666663</ele><time>2026-05-02T15:44:50Z</time></trkpt><trkpt lat="43.07381632350784" lon="11.625686357737157"><ele>358.3333333333333</ele><time>2026-05-02T15:44:51Z</time></trkpt><trkpt lat="43.073865867191365" lon="11.625769229139255"><ele>357.0</ele><time>2026-05-02T15:44:52Z</time></trkpt><trkpt lat="43.07391602596009" lon="11.62586253766509"><ele>355.6666666666667</ele><time>2026-05-02T15:44:53Z</time></trkpt><trkpt lat="43.07396489431599" lon="11.625955012835762"><ele>354.33333333333337</ele><time>2026-05-02T15:44:54Z</time></trkpt><trkpt lat="43.07401845132397" lon="11.626048720428445"><ele>353.0</ele><time>2026-05-02T15:44:55Z</time></trkpt><trkpt lat="43.07407292204677" lon="11.626139008813393"><ele>353.1666666666667</ele><time>2026-05-02T15:44:56Z</time></trkpt><trkpt lat="43.07411977561628" lon="11.626220730692289"><ele>353.33333333333337</ele><time>2026-05-02T15:44:57Z</time></trkpt><trkpt lat="43.07416353215383" lon="11.626293287693214"><ele>353.5</ele><time>2026-05-02T15:44:58Z</time></trkpt><trkpt lat="43.07420817748526" lon="11.626367133448475"><ele>353.6666666666667</ele><time>2026-05-02T15:44:59Z</time></trkpt><trkpt lat="43.07424933451182" lon="11.626441622269173"><ele>353.8333333333333</ele><time>2026-05-02T15:45:00Z</time></trkpt><trkpt lat="43.07431157970385" lon="11.62654767867624"><ele>354.0</ele><time>2026-05-02T15:45:02Z</time></trkpt><trkpt lat="43.07437018499517" lon="11.626634645704154"><ele>354.0</ele><time>2026-05-02T15:45:04Z</time></trkpt><trkpt lat="43.07445912209062" lon="11.62678537659337"><ele>354.0</ele><time>2026-05-02T15:45:06Z</time></trkpt><trkpt lat="43.07452641530087" lon="11.626884610534812"><ele>354.0</ele><time>2026-05-02T15:45:07Z</time></trkpt><trkpt lat="43.07461111424864" lon="11.62698588487131"><ele>354.0</ele><time>2026-05-02T15:45:08Z</time></trkpt><trkpt lat="43.074710422173" lon="11.627084156906191"><ele>354.3333333333333</ele><time>2026-05-02T15:45:09Z</time></trkpt><trkpt lat="43.0748400563263" lon="11.627183089570087"><ele>354.66666666666663</ele><time>2026-05-02T15:45:10Z</time></trkpt><trkpt lat="43.075002363834614" lon="11.627260506844705"><ele>355.0</ele><time>2026-05-02T15:45:11Z</time></trkpt><trkpt lat="43.07518054586586" lon="11.6273376022649"><ele>355.0</ele><time>2026-05-02T15:45:12Z</time></trkpt><trkpt lat="43.075344552750835" lon="11.627401253803272"><ele>355.0</ele><time>2026-05-02T15:45:13Z</time></trkpt><trkpt lat="43.07549656730727" lon="11.627468317132816"><ele>355.0</ele><time>2026-05-02T15:45:14Z</time></trkpt><trkpt lat="43.07565032269008" lon="11.62753739143485"><ele>353.0</ele><time>2026-05-02T15:45:15Z</time></trkpt><trkpt lat="43.07580599685134" lon="11.62760540139624"><ele>351.0</ele><time>2026-05-02T15:45:16Z</time></trkpt><trkpt lat="43.07596217535913" lon="11.627671908936422"><ele>349.0</ele><time>2026-05-02T15:45:17Z</time></trkpt><trkpt lat="43.0761189134868" lon="11.627737803998775"><ele>349.0</ele><time>2026-05-02T15:45:18Z</time></trkpt><trkpt lat="43.07628057167325" lon="11.627809193356349"><ele>349.0</ele><time>2026-05-02T15:45:19Z</time></trkpt><trkpt lat="43.07644364557846" lon="11.627880278878834"><ele>349.0</ele><time>2026-05-02T15:45:20Z</time></trkpt><trkpt lat="43.07660995639836" lon="11.62795694714204"><ele>347.3333333333333</ele><time>2026-05-02T15:45:21Z</time></trkpt><trkpt lat="43.076778207734655" lon="11.628034166736459"><ele>345.6666666666667</ele><time>2026-05-02T15:45:22Z</time></trkpt><trkpt lat="43.076948762708085" lon="11.628111888083073"><ele>344.0</ele><time>2026-05-02T15:45:23Z</time></trkpt><trkpt lat="43.0771277382739" lon="11.62819150599788"><ele>344.0</ele><time>2026-05-02T15:45:24Z</time></trkpt><trkpt lat="43.077313174743395" lon="11.628272709531231"><ele>344.0</ele><time>2026-05-02T15:45:25Z</time></trkpt><trkpt lat="43.077494670658204" lon="11.628355756094406"><ele>344.0</ele><time>2026-05-02T15:45:26Z</time></trkpt><trkpt lat="43.07767665532961" lon="11.628435558219953"><ele>344.6666666666667</ele><time>2026-05-02T15:45:27Z</time></trkpt><trkpt lat="43.0778610983285" lon="11.628521773009883"><ele>345.3333333333333</ele><time>2026-05-02T15:45:28Z</time></trkpt><trkpt lat="43.078050432377104" lon="11.628605863762319"><ele>346.0</ele><time>2026-05-02T15:45:29Z</time></trkpt><trkpt lat="43.078235258765375" lon="11.628686578949507"><ele>344.66666666666663</ele><time>2026-05-02T15:45:30Z</time></trkpt><trkpt lat="43.07841550262364" lon="11.628752325092305"><ele>343.3333333333333</ele><time>2026-05-02T15:45:31Z</time></trkpt><trkpt lat="43.07859688697068" lon="11.628796872611272"><ele>342.0</ele><time>2026-05-02T15:45:32Z</time></trkpt><trkpt lat="43.07877643855404" lon="11.628814894782337"><ele>342.0</ele><time>2026-05-02T15:45:33Z</time></trkpt><trkpt lat="43.07895666683039" lon="11.62880163231497"><ele>342.0</ele><time>2026-05-02T15:45:34Z</time></trkpt><trkpt lat="43.07912926748739" lon="11.628775277776628"><ele>342.0</ele><time>2026-05-02T15:45:35Z</time></trkpt><trkpt lat="43.0792915239182" lon="11.628738573015228"><ele>342.25</ele><time>2026-05-02T15:45:36Z</time></trkpt><trkpt lat="43.079448034759594" lon="11.628706127045538"><ele>342.5</ele><time>2026-05-02T15:45:37Z</time></trkpt><trkpt lat="43.079598023976814" lon="11.628678517068645"><ele>342.75</ele><time>2026-05-02T15:45:38Z</time></trkpt><trkpt lat="43.07973510868731" lon="11.628651985234132"><ele>343.0</ele><time>2026-05-02T15:45:39Z</time></trkpt><trkpt lat="43.07986591621383" lon="11.628621572104011"><ele>344.3333333333333</ele><time>2026-05-02T15:45:40Z</time></trkpt><trkpt lat="43.08000567818427" lon="11.62859364959413"><ele>345.6666666666667</ele><time>2026-05-02T15:45:41Z</time></trkpt><trkpt lat="43.080158165817934" lon="11.628576902825403"><ele>347.0</ele><time>2026-05-02T15:45:42Z</time></trkpt><trkpt lat="43.08031567225524" lon="11.628587131893287"><ele>346.0</ele><time>2026-05-02T15:45:43Z</time></trkpt><trkpt lat="43.080470060786986" lon="11.628643567716134"><ele>345.0</ele><time>2026-05-02T15:45:44Z</time></trkpt><trkpt lat="43.08062892607187" lon="11.628719193679757"><ele>344.0</ele><time>2026-05-02T15:45:45Z</time></trkpt><trkpt lat="43.08077867973103" lon="11.628816314338078"><ele>343.6666666666667</ele><time>2026-05-02T15:45:46Z</time></trkpt><trkpt lat="43.08091746747832" lon="11.628916771079052"><ele>343.3333333333333</ele><time>2026-05-02T15:45:47Z</time></trkpt><trkpt lat="43.08105310589174" lon="11.629006068898217"><ele>343.0</ele><time>2026-05-02T15:45:48Z</time></trkpt><trkpt lat="43.08119460238774" lon="11.629072063194068"><ele>343.0</ele><time>2026-05-02T15:45:49Z</time></trkpt><trkpt lat="43.08134131767262" lon="11.6291148975533"><ele>343.0</ele><time>2026-05-02T15:45:50Z</time></trkpt><trkpt lat="43.08149958605038" lon="11.629154976906378"><ele>343.0</ele><time>2026-05-02T15:45:51Z</time></trkpt><trkpt lat="43.08165810980032" lon="11.62916377420279"><ele>341.0</ele><time>2026-05-02T15:45:52Z</time></trkpt><trkpt lat="43.08182446222706" lon="11.629170080641991"><ele>339.0</ele><time>2026-05-02T15:45:53Z</time></trkpt><trkpt lat="43.081982745437436" lon="11.629188655859698"><ele>337.0</ele><time>2026-05-02T15:45:54Z</time></trkpt><trkpt lat="43.082125713825405" lon="11.629201287726474"><ele>337.0</ele><time>2026-05-02T15:45:55Z</time></trkpt><trkpt lat="43.08225787524155" lon="11.629212811156956"><ele>337.0</ele><time>2026-05-02T15:45:56Z</time></trkpt><trkpt lat="43.08238996063227" lon="11.629224259114666"><ele>337.0</ele><time>2026-05-02T15:45:57Z</time></trkpt><trkpt lat="43.082521285248845" lon="11.629237288027314"><ele>337.0</ele><time>2026-05-02T15:45:58Z</time></trkpt><trkpt lat="43.08265390901266" lon="11.629251499895865"><ele>336.5</ele><time>2026-05-02T15:45:59Z</time></trkpt><trkpt lat="43.082782577220875" lon="11.629267845990455"><ele>336.0</ele><time>2026-05-02T15:46:00Z</time></trkpt><trkpt lat="43.08291431833656" lon="11.629283840910066"><ele>335.5</ele><time>2026-05-02T15:46:01Z</time></trkpt><trkpt lat="43.083045291294106" lon="11.629298010203813"><ele>335.0</ele><time>2026-05-02T15:46:02Z</time></trkpt><trkpt lat="43.08318209493794" lon="11.629327806253642"><ele>336.0</ele><time>2026-05-02T15:46:03Z</time></trkpt><trkpt lat="43.08332065628136" lon="11.6293985303912"><ele>337.0</ele><time>2026-05-02T15:46:04Z</time></trkpt><trkpt lat="43.08344800184496" lon="11.629493202306298"><ele>338.0</ele><time>2026-05-02T15:46:05Z</time></trkpt><trkpt lat="43.08353682455356" lon="11.629650384868544"><ele>339.0</ele><time>2026-05-02T15:46:06Z</time></trkpt><trkpt lat="43.083628909559" lon="11.629798866049024"><ele>339.0</ele><time>2026-05-02T15:46:07Z</time></trkpt><trkpt lat="43.083695049275406" lon="11.629955818035771"><ele>339.0</ele><time>2026-05-02T15:46:08Z</time></trkpt><trkpt lat="43.08374445380501" lon="11.630120220223658"><ele>339.0</ele><time>2026-05-02T15:46:09Z</time></trkpt><trkpt lat="43.08377857221473" lon="11.630290768054536"><ele>339.0</ele><time>2026-05-02T15:46:10Z</time></trkpt><trkpt lat="43.08378908653695" lon="11.630467860908729"><ele>339.0</ele><time>2026-05-02T15:46:11Z</time></trkpt><trkpt lat="43.08378976932733" lon="11.630648887237674"><ele>339.0</ele><time>2026-05-02T15:46:12Z</time></trkpt><trkpt lat="43.08378319615915" lon="11.630845452025333"><ele>339.0</ele><time>2026-05-02T15:46:13Z</time></trkpt><trkpt lat="43.083788181516674" lon="11.63105428743074"><ele>339.0</ele><time>2026-05-02T15:46:14Z</time></trkpt><trkpt lat="43.08377372083223" lon="11.63126461297656"><ele>340.5</ele><time>2026-05-02T15:46:15Z</time></trkpt><trkpt lat="43.0837683437104" lon="11.631466322054468"><ele>342.0</ele><time>2026-05-02T15:46:16Z</time></trkpt><trkpt lat="43.08376156472981" lon="11.631672668935806"><ele>343.5</ele><time>2026-05-02T15:46:17Z</time></trkpt><trkpt lat="43.083748473946116" lon="11.631878326076473"><ele>345.0</ele><time>2026-05-02T15:46:18Z</time></trkpt><trkpt lat="43.08373292654308" lon="11.63207845490828"><ele>347.75</ele><time>2026-05-02T15:46:19Z</time></trkpt><trkpt lat="43.083723326041714" lon="11.632271723441084"><ele>350.5</ele><time>2026-05-02T15:46:20Z</time></trkpt><trkpt lat="43.08372205657852" lon="11.632465381534297"><ele>353.25</ele><time>2026-05-02T15:46:21Z</time></trkpt><trkpt lat="43.08371940080932" lon="11.632653933216275"><ele>356.0</ele><time>2026-05-02T15:46:22Z</time></trkpt><trkpt lat="43.083709757442286" lon="11.63284110547606"><ele>356.25</ele><time>2026-05-02T15:46:23Z</time></trkpt><trkpt lat="43.083698672647905" lon="11.63302907595208"><ele>356.5</ele><time>2026-05-02T15:46:24Z</time></trkpt><trkpt lat="43.083678785099224" lon="11.633214117442323"><ele>356.75</ele><time>2026-05-02T15:46:25Z</time></trkpt><trkpt lat="43.083655219149996" lon="11.633389306389663"><ele>357.0</ele><time>2026-05-02T15:46:26Z</time></trkpt><trkpt lat="43.083630403963824" lon="11.633545799826924"><ele>356.0</ele><time>2026-05-02T15:46:27Z</time></trkpt><trkpt lat="43.08360717076369" lon="11.633702981800207"><ele>355.0</ele><time>2026-05-02T15:46:28Z</time></trkpt><trkpt lat="43.08358198276496" lon="11.633886859304534"><ele>354.0</ele><time>2026-05-02T15:46:29Z</time></trkpt><trkpt lat="43.08354878168793" lon="11.63408097904643"><ele>353.0</ele><time>2026-05-02T15:46:30Z</time></trkpt><trkpt lat="43.08352169001693" lon="11.63428104340348"><ele>352.0</ele><time>2026-05-02T15:46:31Z</time></trkpt><trkpt lat="43.0834981560675" lon="11.634472141532047"><ele>351.0</ele><time>2026-05-02T15:46:32Z</time></trkpt><trkpt lat="43.08347814908535" lon="11.634641453536817"><ele>350.0</ele><time>2026-05-02T15:46:33Z</time></trkpt><trkpt lat="43.08346248904401" lon="11.634797552153342"><ele>349.0</ele><time>2026-05-02T15:46:34Z</time></trkpt><trkpt lat="43.08345761990708" lon="11.634949179148549"><ele>349.0</ele><time>2026-05-02T15:46:35Z</time></trkpt><trkpt lat="43.08345126794756" lon="11.63510819479602"><ele>349.0</ele><time>2026-05-02T15:46:36Z</time></trkpt><trkpt lat="43.08344662929785" lon="11.635270374573894"><ele>349.0</ele><time>2026-05-02T15:46:37Z</time></trkpt><trkpt lat="43.08344484473587" lon="11.635439575034397"><ele>349.0</ele><time>2026-05-02T15:46:38Z</time></trkpt><trkpt lat="43.08344279648899" lon="11.635611154654965"><ele>349.0</ele><time>2026-05-02T15:46:39Z</time></trkpt><trkpt lat="43.083434968217084" lon="11.635787520574961"><ele>349.0</ele><time>2026-05-02T15:46:40Z</time></trkpt><trkpt lat="43.083429445272564" lon="11.635967456796553"><ele>349.0</ele><time>2026-05-02T15:46:41Z</time></trkpt><trkpt lat="43.08342661735366" lon="11.63615129843519"><ele>349.0</ele><time>2026-05-02T15:46:42Z</time></trkpt><trkpt lat="43.083421676391126" lon="11.6363391314538"><ele>349.0</ele><time>2026-05-02T15:46:43Z</time></trkpt><trkpt lat="43.083416230853054" lon="11.636526569224726"><ele>349.0</ele><time>2026-05-02T15:46:44Z</time></trkpt><trkpt lat="43.083407927180126" lon="11.636711722237019"><ele>349.0</ele><time>2026-05-02T15:46:45Z</time></trkpt><trkpt lat="43.083402113019226" lon="11.636894348466924"><ele>349.0</ele><time>2026-05-02T15:46:46Z</time></trkpt><trkpt lat="43.08340025511053" lon="11.637070968252038"><ele>349.75</ele><time>2026-05-02T15:46:47Z</time></trkpt><trkpt lat="43.08339603530001" lon="11.637239759786675"><ele>350.5</ele><time>2026-05-02T15:46:48Z</time></trkpt><trkpt lat="43.08338818091568" lon="11.637415271929346"><ele>351.25</ele><time>2026-05-02T15:46:49Z</time></trkpt><trkpt lat="43.08337250214559" lon="11.637604079661319"><ele>352.0</ele><time>2026-05-02T15:46:50Z</time></trkpt><trkpt lat="43.08334480036186" lon="11.63779785266879"><ele>352.0</ele><time>2026-05-02T15:46:51Z</time></trkpt><trkpt lat="43.08330657017322" lon="11.637989471765138"><ele>352.0</ele><time>2026-05-02T15:46:52Z</time></trkpt><trkpt lat="43.08325895759018" lon="11.638175371743873"><ele>352.0</ele><time>2026-05-02T15:46:53Z</time></trkpt><trkpt lat="43.083206324620114" lon="11.638356113412598"><ele>352.0</ele><time>2026-05-02T15:46:54Z</time></trkpt><trkpt lat="43.08315340040781" lon="11.638516305390315"><ele>354.25</ele><time>2026-05-02T15:46:55Z</time></trkpt><trkpt lat="43.08310333493957" lon="11.638656538194784"><ele>356.5</ele><time>2026-05-02T15:46:56Z</time></trkpt><trkpt lat="43.083059482512525" lon="11.638785133102532"><ele>358.75</ele><time>2026-05-02T15:46:57Z</time></trkpt><trkpt lat="43.083015244305265" lon="11.638928880377014"><ele>361.0</ele><time>2026-05-02T15:46:58Z</time></trkpt><trkpt lat="43.082960927235185" lon="11.639086114669976"><ele>361.0</ele><time>2026-05-02T15:46:59Z</time></trkpt><trkpt lat="43.082903969677574" lon="11.639247177444652"><ele>361.0</ele><time>2026-05-02T15:47:00Z</time></trkpt><trkpt lat="43.08284941429739" lon="11.639397368226106"><ele>361.0</ele><time>2026-05-02T15:47:01Z</time></trkpt><trkpt lat="43.082807372747894" lon="11.63954360431477"><ele>361.0</ele><time>2026-05-02T15:47:02Z</time></trkpt><trkpt lat="43.082757737611075" lon="11.639702729553852"><ele>361.5</ele><time>2026-05-02T15:47:03Z</time></trkpt><trkpt lat="43.08270005499526" lon="11.639859146883223"><ele>362.0</ele><time>2026-05-02T15:47:04Z</time></trkpt><trkpt lat="43.08263390505961" lon="11.640015831291187"><ele>362.5</ele><time>2026-05-02T15:47:05Z</time></trkpt><trkpt lat="43.08256104065676" lon="11.64016512972008"><ele>363.0</ele><time>2026-05-02T15:47:06Z</time></trkpt><trkpt lat="43.08248083608223" lon="11.64030447481016"><ele>364.75</ele><time>2026-05-02T15:47:07Z</time></trkpt><trkpt lat="43.082395259825695" lon="11.640444536065361"><ele>366.5</ele><time>2026-05-02T15:47:08Z</time></trkpt><trkpt lat="43.08230244877643" lon="11.640581961853197"><ele>368.25</ele><time>2026-05-02T15:47:09Z</time></trkpt><trkpt lat="43.08220531549467" lon="11.640716322054436"><ele>370.0</ele><time>2026-05-02T15:47:10Z</time></trkpt><trkpt lat="43.08210342030842" lon="11.640850554329187"><ele>370.0</ele><time>2026-05-02T15:47:11Z</time></trkpt><trkpt lat="43.08201680802396" lon="11.640977141647207"><ele>370.0</ele><time>2026-05-02T15:47:12Z</time></trkpt><trkpt lat="43.08194548851261" lon="11.641092164501082"><ele>370.0</ele><time>2026-05-02T15:47:13Z</time></trkpt><trkpt lat="43.08188196582848" lon="11.641209785568403"><ele>370.0</ele><time>2026-05-02T15:47:14Z</time></trkpt><trkpt lat="43.08182492965144" lon="11.641334032235351"><ele>369.8</ele><time>2026-05-02T15:47:15Z</time></trkpt><trkpt lat="43.08177802115106" lon="11.64146760798524"><ele>369.6</ele><time>2026-05-02T15:47:16Z</time></trkpt><trkpt lat="43.081738915795185" lon="11.641603716549346"><ele>369.4</ele><time>2026-05-02T15:47:17Z</time></trkpt><trkpt lat="43.08171773246474" lon="11.641745210414781"><ele>369.2</ele><time>2026-05-02T15:47:18Z</time></trkpt><trkpt lat="43.0817029685262" lon="11.641890819259492"><ele>369.0</ele><time>2026-05-02T15:47:19Z</time></trkpt><trkpt lat="43.08169103791369" lon="11.642037840240715"><ele>369.4</ele><time>2026-05-02T15:47:20Z</time></trkpt><trkpt lat="43.08168455428479" lon="11.64218319079386"><ele>369.79999999999995</ele><time>2026-05-02T15:47:21Z</time></trkpt><trkpt lat="43.081681228641024" lon="11.642329691701967"><ele>370.20000000000005</ele><time>2026-05-02T15:47:22Z</time></trkpt><trkpt lat="43.08167819828595" lon="11.642476386126091"><ele>370.6</ele><time>2026-05-02T15:47:23Z</time></trkpt><trkpt lat="43.08166640601702" lon="11.642621370801049"><ele>371.0</ele><time>2026-05-02T15:47:24Z</time></trkpt><trkpt lat="43.0816653383426" lon="11.64276696850417"><ele>371.25</ele><time>2026-05-02T15:47:25Z</time></trkpt><trkpt lat="43.08165582534512" lon="11.64292791134741"><ele>371.5</ele><time>2026-05-02T15:47:26Z</time></trkpt><trkpt lat="43.081648818237625" lon="11.643101829122259"><ele>371.75</ele><time>2026-05-02T15:47:27Z</time></trkpt><trkpt lat="43.08164124811498" lon="11.643273564038456"><ele>372.0</ele><time>2026-05-02T15:47:28Z</time></trkpt><trkpt lat="43.08163615010566" lon="11.643432735757264"><ele>372.0</ele><time>2026-05-02T15:47:29Z</time></trkpt><trkpt lat="43.08163292355567" lon="11.643589131638757"><ele>372.0</ele><time>2026-05-02T15:47:30Z</time></trkpt><trkpt lat="43.081625454607604" lon="11.64374428872552"><ele>372.0</ele><time>2026-05-02T15:47:31Z</time></trkpt><trkpt lat="43.081620704381585" lon="11.643898941511974"><ele>372.0</ele><time>2026-05-02T15:47:32Z</time></trkpt><trkpt lat="43.08161393694232" lon="11.644059888620841"><ele>372.0</ele><time>2026-05-02T15:47:33Z</time></trkpt><trkpt lat="43.08160555401011" lon="11.644233665763597"><ele>372.0</ele><time>2026-05-02T15:47:34Z</time></trkpt><trkpt lat="43.081600601091665" lon="11.644407806230252"><ele>372.0</ele><time>2026-05-02T15:47:35Z</time></trkpt><trkpt lat="43.08160112048252" lon="11.644581114950022"><ele>372.0</ele><time>2026-05-02T15:47:36Z</time></trkpt><trkpt lat="43.08160993856083" lon="11.64475078126648"><ele>372.0</ele><time>2026-05-02T15:47:37Z</time></trkpt><trkpt lat="43.08162527981362" lon="11.644913137435"><ele>372.0</ele><time>2026-05-02T15:47:38Z</time></trkpt><trkpt lat="43.081648671363475" lon="11.645075404844189"><ele>372.0</ele><time>2026-05-02T15:47:39Z</time></trkpt><trkpt lat="43.08168061993133" lon="11.645236064677853"><ele>372.0</ele><time>2026-05-02T15:47:40Z</time></trkpt><trkpt lat="43.08171605375937" lon="11.64538296953433"><ele>371.6</ele><time>2026-05-02T15:47:41Z</time></trkpt><trkpt lat="43.08175860190571" lon="11.645524469999252"><ele>371.20000000000005</ele><time>2026-05-02T15:47:42Z</time></trkpt><trkpt lat="43.08180374595363" lon="11.645662048083743"><ele>370.8</ele><time>2026-05-02T15:47:43Z</time></trkpt><trkpt lat="43.08185177736702" lon="11.64579045365802"><ele>370.4</ele><time>2026-05-02T15:47:44Z</time></trkpt><trkpt lat="43.0819022128978" lon="11.645913670864399"><ele>370.0</ele><time>2026-05-02T15:47:45Z</time></trkpt><trkpt lat="43.081960280484175" lon="11.646034020599531"><ele>369.6</ele><time>2026-05-02T15:47:46Z</time></trkpt><trkpt lat="43.08202501308859" lon="11.646151546188408"><ele>369.2</ele><time>2026-05-02T15:47:47Z</time></trkpt><trkpt lat="43.08209439833184" lon="11.646264069067303"><ele>368.79999999999995</ele><time>2026-05-02T15:47:48Z</time></trkpt><trkpt lat="43.08216457816748" lon="11.646378239255004"><ele>368.4</ele><time>2026-05-02T15:47:49Z</time></trkpt><trkpt lat="43.082231079309125" lon="11.646495303985251"><ele>368.0</ele><time>2026-05-02T15:47:50Z</time></trkpt><trkpt lat="43.08229377896327" lon="11.646604784709528"><ele>368.0</ele><time>2026-05-02T15:47:51Z</time></trkpt><trkpt lat="43.08235611647625" lon="11.646708189303608"><ele>368.0</ele><time>2026-05-02T15:47:52Z</time></trkpt><trkpt lat="43.08242457189089" lon="11.64681942861739"><ele>368.0</ele><time>2026-05-02T15:47:53Z</time></trkpt><trkpt lat="43.08249525627013" lon="11.646940281289789"><ele>368.0</ele><time>2026-05-02T15:47:54Z</time></trkpt><trkpt lat="43.082567701158915" lon="11.647070514712444"><ele>368.0</ele><time>2026-05-02T15:47:55Z</time></trkpt><trkpt lat="43.082646504272276" lon="11.647208012203052"><ele>368.75</ele><time>2026-05-02T15:47:56Z</time></trkpt><trkpt lat="43.08273230492688" lon="11.647352689191104"><ele>369.5</ele><time>2026-05-02T15:47:57Z</time></trkpt><trkpt lat="43.08282220973002" lon="11.647512780096246"><ele>370.25</ele><time>2026-05-02T15:47:58Z</time></trkpt><trkpt lat="43.082922482703424" lon="11.647678554844923"><ele>371.0</ele><time>2026-05-02T15:47:59Z</time></trkpt><trkpt lat="43.083026348546156" lon="11.647853351386694"><ele>370.25</ele><time>2026-05-02T15:48:00Z</time></trkpt><trkpt lat="43.083130154725254" lon="11.648025986397855"><ele>369.5</ele><time>2026-05-02T15:48:01Z</time></trkpt><trkpt lat="43.083224870583" lon="11.648183897341637"><ele>368.75</ele><time>2026-05-02T15:48:02Z</time></trkpt><trkpt lat="43.0833078612141" lon="11.648332166901746"><ele>368.0</ele><time>2026-05-02T15:48:03Z</time></trkpt><trkpt lat="43.083390899704085" lon="11.648471458951333"><ele>368.0</ele><time>2026-05-02T15:48:04Z</time></trkpt><trkpt lat="43.08347079474236" lon="11.648600531386993"><ele>368.0</ele><time>2026-05-02T15:48:05Z</time></trkpt><trkpt lat="43.08354402346344" lon="11.648723711133874"><ele>368.0</ele><time>2026-05-02T15:48:06Z</time></trkpt><trkpt lat="43.08361503256358" lon="11.648842941848876"><ele>368.0</ele><time>2026-05-02T15:48:07Z</time></trkpt><trkpt lat="43.08369470323224" lon="11.648977672630833"><ele>367.0</ele><time>2026-05-02T15:48:08Z</time></trkpt><trkpt lat="43.083779110297016" lon="11.649124975969121"><ele>366.0</ele><time>2026-05-02T15:48:09Z</time></trkpt><trkpt lat="43.083871072585126" lon="11.649275662600592"><ele>365.0</ele><time>2026-05-02T15:48:10Z</time></trkpt><trkpt lat="43.08396393864465" lon="11.649433741055844"><ele>364.0</ele><time>2026-05-02T15:48:11Z</time></trkpt><trkpt lat="43.084052043808356" lon="11.649587482801621"><ele>364.25</ele><time>2026-05-02T15:48:12Z</time></trkpt><trkpt lat="43.08414063145203" lon="11.649744900393392"><ele>364.5</ele><time>2026-05-02T15:48:13Z</time></trkpt><trkpt lat="43.084230278187626" lon="11.649894163544609"><ele>364.75</ele><time>2026-05-02T15:48:14Z</time></trkpt><trkpt lat="43.084319585498214" lon="11.650034039832944"><ele>365.0</ele><time>2026-05-02T15:48:15Z</time></trkpt><trkpt lat="43.084417529358404" lon="11.650168641920764"><ele>365.0</ele><time>2026-05-02T15:48:16Z</time></trkpt><trkpt lat="43.08452791646193" lon="11.650290502193446"><ele>365.0</ele><time>2026-05-02T15:48:17Z</time></trkpt><trkpt lat="43.08464410336367" lon="11.65041091990786"><ele>365.0</ele><time>2026-05-02T15:48:18Z</time></trkpt><trkpt lat="43.084763342554574" lon="11.650526804208289"><ele>365.0</ele><time>2026-05-02T15:48:19Z</time></trkpt><trkpt lat="43.084885134881176" lon="11.650636475164054"><ele>366.33333333333337</ele><time>2026-05-02T15:48:20Z</time></trkpt><trkpt lat="43.085008218765395" lon="11.650742474089204"><ele>367.6666666666667</ele><time>2026-05-02T15:48:21Z</time></trkpt><trkpt lat="43.08513903894668" lon="11.650856686180967"><ele>369.0</ele><time>2026-05-02T15:48:22Z</time></trkpt><trkpt lat="43.08527519377468" lon="11.650984475923726"><ele>369.0</ele><time>2026-05-02T15:48:23Z</time></trkpt><trkpt lat="43.085400349648665" lon="11.651089742881423"><ele>369.0</ele><time>2026-05-02T15:48:24Z</time></trkpt><trkpt lat="43.08552007509627" lon="11.651210366107142"><ele>369.0</ele><time>2026-05-02T15:48:25Z</time></trkpt><trkpt lat="43.085638886529516" lon="11.651328234185105"><ele>369.0</ele><time>2026-05-02T15:48:26Z</time></trkpt><trkpt lat="43.085759195199635" lon="11.651435538322781"><ele>369.0</ele><time>2026-05-02T15:48:27Z</time></trkpt><trkpt lat="43.08587312729597" lon="11.651534357891446"><ele>369.0</ele><time>2026-05-02T15:48:28Z</time></trkpt><trkpt lat="43.085987086006305" lon="11.65163393755609"><ele>369.0</ele><time>2026-05-02T15:48:29Z</time></trkpt><trkpt lat="43.08611274346713" lon="11.65173026748854"><ele>369.0</ele><time>2026-05-02T15:48:30Z</time></trkpt><trkpt lat="43.08624395163079" lon="11.651823436013332"><ele>369.0</ele><time>2026-05-02T15:48:31Z</time></trkpt><trkpt lat="43.086372304386416" lon="11.651916595547926"><ele>369.0</ele><time>2026-05-02T15:48:32Z</time></trkpt><trkpt lat="43.08649278641904" lon="11.652009495553685"><ele>369.0</ele><time>2026-05-02T15:48:33Z</time></trkpt><trkpt lat="43.08660959924124" lon="11.652098558165177"><ele>369.0</ele><time>2026-05-02T15:48:34Z</time></trkpt><trkpt lat="43.08671710172263" lon="11.652181550086445"><ele>368.5</ele><time>2026-05-02T15:48:35Z</time></trkpt><trkpt lat="43.08683295825512" lon="11.652266723004702"><ele>368.0</ele><time>2026-05-02T15:48:36Z</time></trkpt><trkpt lat="43.08696090838705" lon="11.652349369094495"><ele>367.5</ele><time>2026-05-02T15:48:37Z</time></trkpt><trkpt lat="43.08708613298383" lon="11.652407429824644"><ele>367.0</ele><time>2026-05-02T15:48:38Z</time></trkpt><trkpt lat="43.08721283886892" lon="11.652430112784387"><ele>367.0</ele><time>2026-05-02T15:48:39Z</time></trkpt><trkpt lat="43.0873573478129" lon="11.652395386663185"><ele>367.0</ele><time>2026-05-02T15:48:40Z</time></trkpt><trkpt lat="43.08751110792447" lon="11.652327687320781"><ele>367.0</ele><time>2026-05-02T15:48:41Z</time></trkpt><trkpt lat="43.08765234564935" lon="11.65225781415805"><ele>368.75</ele><time>2026-05-02T15:48:42Z</time></trkpt><trkpt lat="43.0877748758127" lon="11.652182499630516"><ele>370.5</ele><time>2026-05-02T15:48:43Z</time></trkpt><trkpt lat="43.08790595321639" lon="11.652124066193837"><ele>372.25</ele><time>2026-05-02T15:48:44Z</time></trkpt><trkpt lat="43.088041358599035" lon="11.652106536968029"><ele>374.0</ele><time>2026-05-02T15:48:45Z</time></trkpt><trkpt lat="43.08817200194624" lon="11.652084556136932"><ele>375.0</ele><time>2026-05-02T15:48:46Z</time></trkpt><trkpt lat="43.088285902231284" lon="11.652082351445813"><ele>376.0</ele><time>2026-05-02T15:48:47Z</time></trkpt><trkpt lat="43.0884055465346" lon="11.65209275658434"><ele>377.0</ele><time>2026-05-02T15:48:48Z</time></trkpt><trkpt lat="43.08852346939896" lon="11.652143110147145"><ele>378.0</ele><time>2026-05-02T15:48:49Z</time></trkpt><trkpt lat="43.088617935020906" lon="11.652238093196859"><ele>378.0</ele><time>2026-05-02T15:48:50Z</time></trkpt><trkpt lat="43.08868696864845" lon="11.652372814728068"><ele>378.0</ele><time>2026-05-02T15:48:51Z</time></trkpt><trkpt lat="43.088720661976545" lon="11.65252177345455"><ele>378.0</ele><time>2026-05-02T15:48:52Z</time></trkpt><trkpt lat="43.08872557933117" lon="11.652668509720796"><ele>378.0</ele><time>2026-05-02T15:48:53Z</time></trkpt><trkpt lat="43.088739411099354" lon="11.652870563237427"><ele>379.0</ele><time>2026-05-02T15:48:54Z</time></trkpt><trkpt lat="43.088762914644725" lon="11.653057929059104"><ele>380.0</ele><time>2026-05-02T15:48:55Z</time></trkpt><trkpt lat="43.088775997021514" lon="11.653208790482998"><ele>381.0</ele><time>2026-05-02T15:48:56Z</time></trkpt><trkpt lat="43.088801267233485" lon="11.653363121889809"><ele>382.0</ele><time>2026-05-02T15:48:57Z</time></trkpt><trkpt lat="43.088832052799575" lon="11.65352122692954"><ele>382.75</ele><time>2026-05-02T15:48:58Z</time></trkpt><trkpt lat="43.08887438097034" lon="11.653681810208058"><ele>383.5</ele><time>2026-05-02T15:48:59Z</time></trkpt><trkpt lat="43.088948998590894" lon="11.65381807600355"><ele>384.25</ele><time>2026-05-02T15:49:00Z</time></trkpt><trkpt lat="43.08905186883533" lon="11.65391999174627"><ele>385.0</ele><time>2026-05-02T15:49:01Z</time></trkpt><trkpt lat="43.08917223060477" lon="11.653964003012998"><ele>386.5</ele><time>2026-05-02T15:49:02Z</time></trkpt><trkpt lat="43.08932150367704" lon="11.653972186247742"><ele>388.0</ele><time>2026-05-02T15:49:03Z</time></trkpt><trkpt lat="43.08947648098113" lon="11.653959807804592"><ele>389.5</ele><time>2026-05-02T15:49:04Z</time></trkpt><trkpt lat="43.08960321892867" lon="11.653940749714772"><ele>391.0</ele><time>2026-05-02T15:49:05Z</time></trkpt><trkpt lat="43.08971806222573" lon="11.653927312092655"><ele>391.0</ele><time>2026-05-02T15:49:06Z</time></trkpt><trkpt lat="43.08983407027325" lon="11.653905000263522"><ele>391.0</ele><time>2026-05-02T15:49:07Z</time></trkpt><trkpt lat="43.08994362052006" lon="11.653842492501216"><ele>391.0</ele><time>2026-05-02T15:49:08Z</time></trkpt><trkpt lat="43.090050902289924" lon="11.653756540589967"><ele>391.0</ele><time>2026-05-02T15:49:09Z</time></trkpt><trkpt lat="43.09015555076809" lon="11.653649803394417"><ele>389.5</ele><time>2026-05-02T15:49:10Z</time></trkpt><trkpt lat="43.090252259964146" lon="11.65356446750713"><ele>388.0</ele><time>2026-05-02T15:49:11Z</time></trkpt><trkpt lat="43.090376348095944" lon="11.653552085998108"><ele>386.5</ele><time>2026-05-02T15:49:12Z</time></trkpt><trkpt lat="43.09051471733518" lon="11.653532801985369"><ele>385.0</ele><time>2026-05-02T15:49:13Z</time></trkpt><trkpt lat="43.09065299009155" lon="11.653512875072465"><ele>386.75</ele><time>2026-05-02T15:49:14Z</time></trkpt><trkpt lat="43.090767014336365" lon="11.65349761285059"><ele>388.5</ele><time>2026-05-02T15:49:15Z</time></trkpt><trkpt lat="43.09087699918687" lon="11.653466586880098"><ele>390.25</ele><time>2026-05-02T15:49:16Z</time></trkpt><trkpt lat="43.09099726100074" lon="11.653446929866702"><ele>392.0</ele><time>2026-05-02T15:49:17Z</time></trkpt><trkpt lat="43.09111907628484" lon="11.653427912184545"><ele>392.0</ele><time>2026-05-02T15:49:18Z</time></trkpt><trkpt lat="43.09123632029426" lon="11.653416743074676"><ele>392.0</ele><time>2026-05-02T15:49:19Z</time></trkpt><trkpt lat="43.091353573748925" lon="11.653407342536509"><ele>392.0</ele><time>2026-05-02T15:49:20Z</time></trkpt><trkpt lat="43.09147380382447" lon="11.653400531752494"><ele>392.0</ele><time>2026-05-02T15:49:21Z</time></trkpt><trkpt lat="43.091597071819365" lon="11.653415466427694"><ele>393.5</ele><time>2026-05-02T15:49:22Z</time></trkpt><trkpt lat="43.09172405500918" lon="11.653454372920184"><ele>395.0</ele><time>2026-05-02T15:49:23Z</time></trkpt><trkpt lat="43.0918583965475" lon="11.653514773826046"><ele>396.5</ele><time>2026-05-02T15:49:24Z</time></trkpt><trkpt lat="43.09199660775866" lon="11.653573134637114"><ele>398.0</ele><time>2026-05-02T15:49:25Z</time></trkpt><trkpt lat="43.09213370909426" lon="11.653625002952982"><ele>399.5</ele><time>2026-05-02T15:49:26Z</time></trkpt><trkpt lat="43.09225762130262" lon="11.653676173104056"><ele>401.0</ele><time>2026-05-02T15:49:27Z</time></trkpt><trkpt lat="43.09237717625974" lon="11.653697431719989"><ele>402.5</ele><time>2026-05-02T15:49:28Z</time></trkpt><trkpt lat="43.0924933690004" lon="11.653709050101988"><ele>404.0</ele><time>2026-05-02T15:49:29Z</time></trkpt><trkpt lat="43.09261160226955" lon="11.653716118459185"><ele>404.0</ele><time>2026-05-02T15:49:30Z</time></trkpt><trkpt lat="43.09272074508169" lon="11.653730640321141"><ele>404.0</ele><time>2026-05-02T15:49:31Z</time></trkpt><trkpt lat="43.092812906781134" lon="11.65378733605006"><ele>404.0</ele><time>2026-05-02T15:49:32Z</time></trkpt><trkpt lat="43.0928750925215" lon="11.653893465636372"><ele>404.0</ele><time>2026-05-02T15:49:33Z</time></trkpt><trkpt lat="43.09289387930622" lon="11.654018924572805"><ele>404.0</ele><time>2026-05-02T15:49:34Z</time></trkpt><trkpt lat="43.09287333135106" lon="11.654153338615334"><ele>404.0</ele><time>2026-05-02T15:49:35Z</time></trkpt><trkpt lat="43.09280993457036" lon="11.654271169910789"><ele>404.0</ele><time>2026-05-02T15:49:36Z</time></trkpt><trkpt lat="43.09271162323211" lon="11.654339301957458"><ele>404.0</ele><time>2026-05-02T15:49:37Z</time></trkpt><trkpt lat="43.09259823923427" lon="11.654343601798494"><ele>404.0</ele><time>2026-05-02T15:49:38Z</time></trkpt><trkpt lat="43.09248137498045" lon="11.654263302722946"><ele>404.75</ele><time>2026-05-02T15:49:39Z</time></trkpt><trkpt lat="43.0923386400592" lon="11.654196989067401"><ele>405.5</ele><time>2026-05-02T15:49:40Z</time></trkpt><trkpt lat="43.09220022566887" lon="11.654112483100377"><ele>406.25</ele><time>2026-05-02T15:49:41Z</time></trkpt><trkpt lat="43.09206702800222" lon="11.654051003903925"><ele>407.0</ele><time>2026-05-02T15:49:42Z</time></trkpt><trkpt lat="43.09193952321383" lon="11.65400891813808"><ele>407.0</ele><time>2026-05-02T15:49:43Z</time></trkpt><trkpt lat="43.091805972757804" lon="11.653996477002638"><ele>407.0</ele><time>2026-05-02T15:49:44Z</time></trkpt><trkpt lat="43.09166689615088" lon="11.654023737328435"><ele>407.0</ele><time>2026-05-02T15:49:45Z</time></trkpt><trkpt lat="43.09153092986146" lon="11.654089751191275"><ele>407.0</ele><time>2026-05-02T15:49:46Z</time></trkpt><trkpt lat="43.09139727759027" lon="11.654182894893296"><ele>406.25</ele><time>2026-05-02T15:49:47Z</time></trkpt><trkpt lat="43.09127011738652" lon="11.654291139547542"><ele>405.5</ele><time>2026-05-02T15:49:48Z</time></trkpt><trkpt lat="43.09114281849252" lon="11.654396376119438"><ele>404.75</ele><time>2026-05-02T15:49:49Z</time></trkpt><trkpt lat="43.09101658070241" lon="11.65449181013262"><ele>404.0</ele><time>2026-05-02T15:49:50Z</time></trkpt><trkpt lat="43.09089450469392" lon="11.654585249198234"><ele>404.5</ele><time>2026-05-02T15:49:51Z</time></trkpt><trkpt lat="43.09077585394254" lon="11.65467500332743"><ele>405.0</ele><time>2026-05-02T15:49:52Z</time></trkpt><trkpt lat="43.09065667642279" lon="11.654765440696217"><ele>405.5</ele><time>2026-05-02T15:49:53Z</time></trkpt><trkpt lat="43.09054827266176" lon="11.654863440742838"><ele>406.0</ele><time>2026-05-02T15:49:54Z</time></trkpt><trkpt lat="43.09044796900929" lon="11.654978754488699"><ele>406.0</ele><time>2026-05-02T15:49:55Z</time></trkpt><trkpt lat="43.09036364824447" lon="11.655125947972607"><ele>406.0</ele><time>2026-05-02T15:49:56Z</time></trkpt><trkpt lat="43.09030049742621" lon="11.655302847659685"><ele>406.0</ele><time>2026-05-02T15:49:57Z</time></trkpt><trkpt lat="43.09026558784262" lon="11.655494972929876"><ele>406.0</ele><time>2026-05-02T15:49:58Z</time></trkpt><trkpt lat="43.09025219168564" lon="11.655697908741036"><ele>407.75</ele><time>2026-05-02T15:49:59Z</time></trkpt><trkpt lat="43.09025530266613" lon="11.65589677918316"><ele>409.5</ele><time>2026-05-02T15:50:00Z</time></trkpt><trkpt lat="43.09027682177249" lon="11.656084412479208"><ele>411.25</ele><time>2026-05-02T15:50:01Z</time></trkpt><trkpt lat="43.090303389618285" lon="11.656264896369464"><ele>413.0</ele><time>2026-05-02T15:50:02Z</time></trkpt><trkpt lat="43.09030090577484" lon="11.656448996419137"><ele>414.0</ele><time>2026-05-02T15:50:03Z</time></trkpt><trkpt lat="43.0902698399169" lon="11.656624036346933"><ele>415.0</ele><time>2026-05-02T15:50:04Z</time></trkpt><trkpt lat="43.090203193362576" lon="11.656795097621806"><ele>416.0</ele><time>2026-05-02T15:50:05Z</time></trkpt><trkpt lat="43.09010377011924" lon="11.656934071359007"><ele>417.0</ele><time>2026-05-02T15:50:06Z</time></trkpt><trkpt lat="43.0899835576441" lon="11.657035364004258"><ele>417.5</ele><time>2026-05-02T15:50:07Z</time></trkpt><trkpt lat="43.08984863921919" lon="11.657071350533618"><ele>418.0</ele><time>2026-05-02T15:50:08Z</time></trkpt><trkpt lat="43.08971698007725" lon="11.657115787401143"><ele>418.5</ele><time>2026-05-02T15:50:09Z</time></trkpt><trkpt lat="43.08958461990182" lon="11.657160826554403"><ele>419.0</ele><time>2026-05-02T15:50:10Z</time></trkpt><trkpt lat="43.08945438858477" lon="11.657252580670171"><ele>419.0</ele><time>2026-05-02T15:50:11Z</time></trkpt><trkpt lat="43.08933238197582" lon="11.657371778789642"><ele>419.0</ele><time>2026-05-02T15:50:12Z</time></trkpt><trkpt lat="43.08923029953288" lon="11.65749760664401"><ele>419.0</ele><time>2026-05-02T15:50:13Z</time></trkpt><trkpt lat="43.08913969501386" lon="11.657624660122496"><ele>419.0</ele><time>2026-05-02T15:50:14Z</time></trkpt><trkpt lat="43.08903925664301" lon="11.657754666056377"><ele>420.25</ele><time>2026-05-02T15:50:15Z</time></trkpt><trkpt lat="43.08893484445343" lon="11.657885475024079"><ele>421.5</ele><time>2026-05-02T15:50:16Z</time></trkpt><trkpt lat="43.08883568954786" lon="11.65801276090136"><ele>422.75</ele><time>2026-05-02T15:50:17Z</time></trkpt><trkpt lat="43.088745209943795" lon="11.658125651961456"><ele>424.0</ele><time>2026-05-02T15:50:18Z</time></trkpt><trkpt lat="43.08865358755327" lon="11.658236702668908"><ele>424.0</ele><time>2026-05-02T15:50:19Z</time></trkpt><trkpt lat="43.08856216859603" lon="11.658350962594298"><ele>424.0</ele><time>2026-05-02T15:50:20Z</time></trkpt><trkpt lat="43.08847720671124" lon="11.658469705919819"><ele>424.0</ele><time>2026-05-02T15:50:21Z</time></trkpt><trkpt lat="43.08841035743438" lon="11.658607775023956"><ele>424.0</ele><time>2026-05-02T15:50:22Z</time></trkpt><trkpt lat="43.08837615961303" lon="11.658750443395888"><ele>425.0</ele><time>2026-05-02T15:50:23Z</time></trkpt><trkpt lat="43.08838880222868" lon="11.658909634803438"><ele>426.0</ele><time>2026-05-02T15:50:24Z</time></trkpt><trkpt lat="43.088432230255265" lon="11.659065318129965"><ele>427.0</ele><time>2026-05-02T15:50:25Z</time></trkpt><trkpt lat="43.08849083895341" lon="11.659212259122683"><ele>428.0</ele><time>2026-05-02T15:50:26Z</time></trkpt><trkpt lat="43.08853761097682" lon="11.659339411320838"><ele>429.0</ele><time>2026-05-02T15:50:27Z</time></trkpt><trkpt lat="43.08856045469311" lon="11.659472580527972"><ele>429.99999999999994</ele><time>2026-05-02T15:50:28Z</time></trkpt><trkpt lat="43.088544728273185" lon="11.659617575734426"><ele>430.99999999999994</ele><time>2026-05-02T15:50:29Z</time></trkpt><trkpt lat="43.088494348148274" lon="11.659755365692044"><ele>432.0</ele><time>2026-05-02T15:50:30Z</time></trkpt><trkpt lat="43.08843098207288" lon="11.65986373748278"><ele>433.0</ele><time>2026-05-02T15:50:31Z</time></trkpt><trkpt lat="43.0883471352144" lon="11.65993515202939"><ele>433.79999999999995</ele><time>2026-05-02T15:50:32Z</time></trkpt><trkpt lat="43.08825022829272" lon="11.659981371875878"><ele>434.59999999999997</ele><time>2026-05-02T15:50:33Z</time></trkpt><trkpt lat="43.088143119060234" lon="11.659991903795671"><ele>435.40000000000003</ele><time>2026-05-02T15:50:34Z</time></trkpt><trkpt lat="43.08803897664999" lon="11.659985481522424"><ele>436.20000000000005</ele><time>2026-05-02T15:50:35Z</time></trkpt><trkpt lat="43.08794597658608" lon="11.659962651573645"><ele>437.0</ele><time>2026-05-02T15:50:36Z</time></trkpt><trkpt lat="43.08785687832574" lon="11.659946172473118"><ele>437.0</ele><time>2026-05-02T15:50:37Z</time></trkpt><trkpt lat="43.08776169642202" lon="11.659934976556691"><ele>437.00000000000006</ele><time>2026-05-02T15:50:38Z</time></trkpt><trkpt lat="43.087654066371236" lon="11.659923637563741"><ele>437.00000000000006</ele><time>2026-05-02T15:50:39Z</time></trkpt><trkpt lat="43.08754228729181" lon="11.659904529576847"><ele>437.0</ele><time>2026-05-02T15:50:40Z</time></trkpt><trkpt lat="43.0874326662471" lon="11.659884982492365"><ele>437.0</ele><time>2026-05-02T15:50:41Z</time></trkpt><trkpt lat="43.08732742361825" lon="11.65987180385317"><ele>437.40000000000003</ele><time>2026-05-02T15:50:42Z</time></trkpt><trkpt lat="43.08722879333441" lon="11.65986030904202"><ele>437.80000000000007</ele><time>2026-05-02T15:50:43Z</time></trkpt><trkpt lat="43.0871336700234" lon="11.659846351684825"><ele>438.2</ele><time>2026-05-02T15:50:44Z</time></trkpt><trkpt lat="43.08703867934704" lon="11.659835457581927"><ele>438.6</ele><time>2026-05-02T15:50:45Z</time></trkpt><trkpt lat="43.086940872551864" lon="11.65983279890879"><ele>439.0</ele><time>2026-05-02T15:50:46Z</time></trkpt><trkpt lat="43.08684004581613" lon="11.659853177221827"><ele>439.0</ele><time>2026-05-02T15:50:47Z</time></trkpt><trkpt lat="43.08674173888419" lon="11.659889993477725"><ele>439.0</ele><time>2026-05-02T15:50:48Z</time></trkpt><trkpt lat="43.08664706673517" lon="11.659958465817818"><ele>439.0</ele><time>2026-05-02T15:50:49Z</time></trkpt><trkpt lat="43.08656022703386" lon="11.66007012717633"><ele>439.0</ele><time>2026-05-02T15:50:50Z</time></trkpt><trkpt lat="43.086482774769934" lon="11.660206489741272"><ele>439.75</ele><time>2026-05-02T15:50:51Z</time></trkpt><trkpt lat="43.08641655226426" lon="11.660368762543332"><ele>440.5</ele><time>2026-05-02T15:50:52Z</time></trkpt><trkpt lat="43.086355111135575" lon="11.660532671343743"><ele>441.25</ele><time>2026-05-02T15:50:53Z</time></trkpt><trkpt lat="43.08628790094166" lon="11.660687859174356"><ele>442.0</ele><time>2026-05-02T15:50:54Z</time></trkpt><trkpt lat="43.08622545143101" lon="11.660830501756216"><ele>442.0</ele><time>2026-05-02T15:50:55Z</time></trkpt><trkpt lat="43.0861721733565" lon="11.66096978655882"><ele>442.0</ele><time>2026-05-02T15:50:56Z</time></trkpt><trkpt lat="43.08611354676214" lon="11.661122155212752"><ele>442.0</ele><time>2026-05-02T15:50:57Z</time></trkpt><trkpt lat="43.086052379665226" lon="11.661282113746783"><ele>442.0</ele><time>2026-05-02T15:50:58Z</time></trkpt><trkpt lat="43.08599277846588" lon="11.661443447950829"><ele>443.5</ele><time>2026-05-02T15:50:59Z</time></trkpt><trkpt lat="43.08593250710219" lon="11.66160642937107"><ele>445.0</ele><time>2026-05-02T15:51:00Z</time></trkpt><trkpt lat="43.08587624428655" lon="11.661765627505677"><ele>446.5</ele><time>2026-05-02T15:51:01Z</time></trkpt><trkpt lat="43.08581995169487" lon="11.661923968212733"><ele>448.0</ele><time>2026-05-02T15:51:02Z</time></trkpt><trkpt lat="43.08576139602075" lon="11.662081085347982"><ele>449.0</ele><time>2026-05-02T15:51:03Z</time></trkpt><trkpt lat="43.08571230752959" lon="11.662224287503495"><ele>450.0</ele><time>2026-05-02T15:51:04Z</time></trkpt><trkpt lat="43.08565707088136" lon="11.66236572082502"><ele>451.0</ele><time>2026-05-02T15:51:05Z</time></trkpt><trkpt lat="43.085602492678206" lon="11.662517895850531"><ele>452.0</ele><time>2026-05-02T15:51:06Z</time></trkpt><trkpt lat="43.08555063514006" lon="11.662680152360375"><ele>453.0</ele><time>2026-05-02T15:51:07Z</time></trkpt><trkpt lat="43.085500972174515" lon="11.662852700948934"><ele>454.0</ele><time>2026-05-02T15:51:08Z</time></trkpt><trkpt lat="43.08545371228574" lon="11.663030399573492"><ele>455.0</ele><time>2026-05-02T15:51:09Z</time></trkpt><trkpt lat="43.08541044865867" lon="11.663216907488431"><ele>456.0</ele><time>2026-05-02T15:51:10Z</time></trkpt><trkpt lat="43.08536651770823" lon="11.66341265492682"><ele>456.0</ele><time>2026-05-02T15:51:11Z</time></trkpt><trkpt lat="43.08532340234491" lon="11.663588139031615"><ele>456.0</ele><time>2026-05-02T15:51:12Z</time></trkpt><trkpt lat="43.08528367572584" lon="11.663745394664929"><ele>456.0</ele><time>2026-05-02T15:51:13Z</time></trkpt><trkpt lat="43.08525018063942" lon="11.663881419980317"><ele>456.0</ele><time>2026-05-02T15:51:14Z</time></trkpt><trkpt lat="43.085222682741176" lon="11.664001317295314"><ele>456.4</ele><time>2026-05-02T15:51:15Z</time></trkpt><trkpt lat="43.08520126801368" lon="11.664103592568097"><ele>456.8</ele><time>2026-05-02T15:51:16Z</time></trkpt><trkpt lat="43.08518393530192" lon="11.664187409130902"><ele>457.19999999999993</ele><time>2026-05-02T15:51:17Z</time></trkpt><trkpt lat="43.085157556249314" lon="11.664303897768884"><ele>457.59999999999997</ele><time>2026-05-02T15:51:19Z</time></trkpt><trkpt lat="43.08512118359281" lon="11.664399803826148"><ele>458.0</ele><time>2026-05-02T15:51:22Z</time></trkpt><trkpt lat="43.08527856559761" lon="11.664436324143265"><ele>458.0</ele><time>2026-05-02T15:51:25Z</time></trkpt><trkpt lat="43.0853607534509" lon="11.664392582307999"><ele>457.99999999999994</ele><time>2026-05-02T15:51:26Z</time></trkpt><trkpt lat="43.08546684578855" lon="11.664359086441827"><ele>457.99999999999994</ele><time>2026-05-02T15:51:27Z</time></trkpt><trkpt lat="43.08556981270288" lon="11.664317854578766"><ele>458.0</ele><time>2026-05-02T15:51:28Z</time></trkpt><trkpt lat="43.08568790782409" lon="11.664291194138155"><ele>458.0</ele><time>2026-05-02T15:51:29Z</time></trkpt><trkpt lat="43.08578902487843" lon="11.664219982346182"><ele>456.75</ele><time>2026-05-02T15:51:30Z</time></trkpt><trkpt lat="43.08589487611769" lon="11.664161686565002"><ele>455.5</ele><time>2026-05-02T15:51:31Z</time></trkpt><trkpt lat="43.086003099388826" lon="11.664091158129668"><ele>454.25</ele><time>2026-05-02T15:51:32Z</time></trkpt><trkpt lat="43.0861279267984" lon="11.664002954508197"><ele>453.0</ele><time>2026-05-02T15:51:33Z</time></trkpt><trkpt lat="43.08627840401902" lon="11.663857689321585"><ele>453.0</ele><time>2026-05-02T15:51:34Z</time></trkpt><trkpt lat="43.086431987181086" lon="11.663699341433272"><ele>453.0</ele><time>2026-05-02T15:51:35Z</time></trkpt><trkpt lat="43.08657516674189" lon="11.663560062149186"><ele>453.0</ele><time>2026-05-02T15:51:36Z</time></trkpt><trkpt lat="43.08672820368894" lon="11.663426729095484"><ele>451.66666666666663</ele><time>2026-05-02T15:51:37Z</time></trkpt><trkpt lat="43.08687885539943" lon="11.663276174784267"><ele>450.3333333333333</ele><time>2026-05-02T15:51:38Z</time></trkpt><trkpt lat="43.08697305231526" lon="11.663018054427441"><ele>449.0</ele><time>2026-05-02T15:51:39Z</time></trkpt><trkpt lat="43.0871060645331" lon="11.662808184528972"><ele>449.0</ele><time>2026-05-02T15:51:40Z</time></trkpt><trkpt lat="43.08725301850021" lon="11.662660835365301"><ele>449.0</ele><time>2026-05-02T15:51:41Z</time></trkpt><trkpt lat="43.087391920621336" lon="11.66251236912797"><ele>449.0</ele><time>2026-05-02T15:51:42Z</time></trkpt><trkpt lat="43.0875235326775" lon="11.662376708678591"><ele>447.5</ele><time>2026-05-02T15:51:43Z</time></trkpt><trkpt lat="43.08764384313766" lon="11.662276832363865"><ele>446.0</ele><time>2026-05-02T15:51:44Z</time></trkpt><trkpt lat="43.08776401590073" lon="11.662225315642807"><ele>444.5</ele><time>2026-05-02T15:51:45Z</time></trkpt><trkpt lat="43.087910436725736" lon="11.662188195724115"><ele>443.0</ele><time>2026-05-02T15:51:46Z</time></trkpt><trkpt lat="43.08807880675254" lon="11.662127818768411"><ele>443.0</ele><time>2026-05-02T15:51:47Z</time></trkpt><trkpt lat="43.088254534784475" lon="11.662098907927675"><ele>443.0</ele><time>2026-05-02T15:51:48Z</time></trkpt><trkpt lat="43.088407684765166" lon="11.662049229986232"><ele>443.0</ele><time>2026-05-02T15:51:49Z</time></trkpt><trkpt lat="43.08856026977868" lon="11.661978347736067"><ele>441.3333333333333</ele><time>2026-05-02T15:51:50Z</time></trkpt><trkpt lat="43.08871443933684" lon="11.661849812750985"><ele>439.66666666666663</ele><time>2026-05-02T15:51:51Z</time></trkpt><trkpt lat="43.08887018614731" lon="11.661678950444951"><ele>438.0</ele><time>2026-05-02T15:51:52Z</time></trkpt><trkpt lat="43.089020620956916" lon="11.661504477578324"><ele>437.0</ele><time>2026-05-02T15:51:53Z</time></trkpt><trkpt lat="43.08915569116213" lon="11.661361930070775"><ele>436.0</ele><time>2026-05-02T15:51:54Z</time></trkpt><trkpt lat="43.089296746171144" lon="11.661266166705168"><ele>435.0</ele><time>2026-05-02T15:51:55Z</time></trkpt><trkpt lat="43.08943244633083" lon="11.661189502027955"><ele>435.0</ele><time>2026-05-02T15:51:56Z</time></trkpt><trkpt lat="43.08956884766521" lon="11.661144103464324"><ele>435.0</ele><time>2026-05-02T15:51:57Z</time></trkpt><trkpt lat="43.08972462839931" lon="11.661118591095931"><ele>435.0</ele><time>2026-05-02T15:51:58Z</time></trkpt><trkpt lat="43.08989698295233" lon="11.661118416347845"><ele>432.0</ele><time>2026-05-02T15:51:59Z</time></trkpt><trkpt lat="43.09009092734954" lon="11.661156630529359"><ele>429.0</ele><time>2026-05-02T15:52:00Z</time></trkpt><trkpt lat="43.090286470852426" lon="11.661207564599263"><ele>426.0</ele><time>2026-05-02T15:52:01Z</time></trkpt><trkpt lat="43.09047010600629" lon="11.661246892815539"><ele>426.0</ele><time>2026-05-02T15:52:02Z</time></trkpt><trkpt lat="43.09064525769893" lon="11.661264924712759"><ele>426.0</ele><time>2026-05-02T15:52:03Z</time></trkpt><trkpt lat="43.09081448129031" lon="11.66128756367681"><ele>426.0</ele><time>2026-05-02T15:52:04Z</time></trkpt><trkpt lat="43.09097523077286" lon="11.661281397173157"><ele>423.33333333333337</ele><time>2026-05-02T15:52:05Z</time></trkpt><trkpt lat="43.09114141849126" lon="11.661247065923853"><ele>420.6666666666667</ele><time>2026-05-02T15:52:06Z</time></trkpt><trkpt lat="43.09132882687448" lon="11.66120547565091"><ele>418.0</ele><time>2026-05-02T15:52:07Z</time></trkpt><trkpt lat="43.091530331178916" lon="11.661176478863569"><ele>416.0</ele><time>2026-05-02T15:52:08Z</time></trkpt><trkpt lat="43.09173741873486" lon="11.661147270574597"><ele>414.0</ele><time>2026-05-02T15:52:09Z</time></trkpt><trkpt lat="43.09194681673367" lon="11.66112842029627"><ele>412.0</ele><time>2026-05-02T15:52:10Z</time></trkpt><trkpt lat="43.0921552043638" lon="11.661109421217878"><ele>411.6666666666667</ele><time>2026-05-02T15:52:11Z</time></trkpt><trkpt lat="43.09235156225423" lon="11.661099943732872"><ele>411.33333333333337</ele><time>2026-05-02T15:52:12Z</time></trkpt><trkpt lat="43.092540270722395" lon="11.661087849360584"><ele>411.0</ele><time>2026-05-02T15:52:13Z</time></trkpt><trkpt lat="43.092718995177194" lon="11.661077636485613"><ele>408.66666666666663</ele><time>2026-05-02T15:52:14Z</time></trkpt><trkpt lat="43.092901310053286" lon="11.661087701981993"><ele>406.3333333333333</ele><time>2026-05-02T15:52:15Z</time></trkpt><trkpt lat="43.09307387267575" lon="11.661060731747092"><ele>404.0</ele><time>2026-05-02T15:52:16Z</time></trkpt><trkpt lat="43.093257268059965" lon="11.66105971571251"><ele>401.66666666666663</ele><time>2026-05-02T15:52:17Z</time></trkpt><trkpt lat="43.09344638679913" lon="11.66105428258993"><ele>399.33333333333337</ele><time>2026-05-02T15:52:18Z</time></trkpt><trkpt lat="43.09364323145957" lon="11.661044523816734"><ele>397.0</ele><time>2026-05-02T15:52:19Z</time></trkpt><trkpt lat="43.093836640901486" lon="11.661037457439715"><ele>397.0</ele><time>2026-05-02T15:52:20Z</time></trkpt><trkpt lat="43.09402745284682" lon="11.661039209275586"><ele>397.0</ele><time>2026-05-02T15:52:21Z</time></trkpt><trkpt lat="43.09420884981431" lon="11.66104385096107"><ele>397.0</ele><time>2026-05-02T15:52:22Z</time></trkpt><trkpt lat="43.09438652199264" lon="11.661045606839537"><ele>395.6666666666667</ele><time>2026-05-02T15:52:23Z</time></trkpt><trkpt lat="43.094547804059125" lon="11.661046302187213"><ele>394.33333333333337</ele><time>2026-05-02T15:52:24Z</time></trkpt><trkpt lat="43.09470785060185" lon="11.661033209470702"><ele>393.0</ele><time>2026-05-02T15:52:25Z</time></trkpt><trkpt lat="43.09485612009716" lon="11.66098553513759"><ele>391.66666666666663</ele><time>2026-05-02T15:52:26Z</time></trkpt><trkpt lat="43.094999910852145" lon="11.660904033928418"><ele>390.3333333333333</ele><time>2026-05-02T15:52:27Z</time></trkpt><trkpt lat="43.095135703466255" lon="11.66081043715247"><ele>389.0</ele><time>2026-05-02T15:52:28Z</time></trkpt><trkpt lat="43.09527653527006" lon="11.660774565764683"><ele>389.0</ele><time>2026-05-02T15:52:29Z</time></trkpt><trkpt lat="43.09541837963492" lon="11.660784914544449"><ele>389.0</ele><time>2026-05-02T15:52:30Z</time></trkpt><trkpt lat="43.09558296559476" lon="11.6608352175307"><ele>389.0</ele><time>2026-05-02T15:52:31Z</time></trkpt><trkpt lat="43.095770456543164" lon="11.660908468485063"><ele>386.3333333333333</ele><time>2026-05-02T15:52:32Z</time></trkpt><trkpt lat="43.09595749945156" lon="11.660964226144781"><ele>383.66666666666663</ele><time>2026-05-02T15:52:33Z</time></trkpt><trkpt lat="43.096128578951" lon="11.661029580493857"><ele>381.0</ele><time>2026-05-02T15:52:34Z</time></trkpt><trkpt lat="43.096295643882954" lon="11.661064558014742"><ele>381.0</ele><time>2026-05-02T15:52:35Z</time></trkpt><trkpt lat="43.09646983453654" lon="11.661075020405601"><ele>381.0</ele><time>2026-05-02T15:52:36.001Z</time></trkpt><trkpt lat="43.09666014747314" lon="11.661060975872866"><ele>381.0</ele><time>2026-05-02T15:52:37.001Z</time></trkpt><trkpt lat="43.0968661004551" lon="11.661019704713452"><ele>379.3333333333333</ele><time>2026-05-02T15:52:38Z</time></trkpt><trkpt lat="43.09707620402114" lon="11.660958297230911"><ele>377.66666666666663</ele><time>2026-05-02T15:52:39Z</time></trkpt><trkpt lat="43.09728424356409" lon="11.660895059330729"><ele>376.0</ele><time>2026-05-02T15:52:40Z</time></trkpt><trkpt lat="43.09748881331108" lon="11.660864153113778"><ele>374.3333333333333</ele><time>2026-05-02T15:52:41Z</time></trkpt><trkpt lat="43.09766792860355" lon="11.660817942892146"><ele>372.6666666666667</ele><time>2026-05-02T15:52:42Z</time></trkpt><trkpt lat="43.09783825126847" lon="11.660784520576811"><ele>371.0</ele><time>2026-05-02T15:52:43Z</time></trkpt><trkpt lat="43.09800988624874" lon="11.660775421905194"><ele>371.0</ele><time>2026-05-02T15:52:44Z</time></trkpt><trkpt lat="43.09819016890223" lon="11.66079443892248"><ele>371.0</ele><time>2026-05-02T15:52:45Z</time></trkpt><trkpt lat="43.09838142798093" lon="11.660845985084562"><ele>371.0</ele><time>2026-05-02T15:52:46Z</time></trkpt><trkpt lat="43.09858805525556" lon="11.660883271528425"><ele>368.6666666666667</ele><time>2026-05-02T15:52:47Z</time></trkpt><trkpt lat="43.0987869648751" lon="11.66093517278252"><ele>366.3333333333333</ele><time>2026-05-02T15:52:48Z</time></trkpt><trkpt lat="43.09897621263491" lon="11.66100158618579"><ele>364.0</ele><time>2026-05-02T15:52:49Z</time></trkpt><trkpt lat="43.09916106055755" lon="11.661032417606963"><ele>362.3333333333333</ele><time>2026-05-02T15:52:50Z</time></trkpt><trkpt lat="43.09933876016803" lon="11.661030946049785"><ele>360.6666666666667</ele><time>2026-05-02T15:52:51Z</time></trkpt><trkpt lat="43.09951443047889" lon="11.66104277105813"><ele>359.0</ele><time>2026-05-02T15:52:52Z</time></trkpt><trkpt lat="43.09968764368008" lon="11.661052822866"><ele>359.0</ele><time>2026-05-02T15:52:53Z</time></trkpt><trkpt lat="43.09985296844964" lon="11.661060086988813"><ele>359.0</ele><time>2026-05-02T15:52:54Z</time></trkpt><trkpt lat="43.100014281372665" lon="11.661051264365058"><ele>359.0</ele><time>2026-05-02T15:52:55Z</time></trkpt><trkpt lat="43.100180898776365" lon="11.661005181928989"><ele>357.33333333333337</ele><time>2026-05-02T15:52:56Z</time></trkpt><trkpt lat="43.10036135051834" lon="11.660908568483697"><ele>355.6666666666667</ele><time>2026-05-02T15:52:57Z</time></trkpt><trkpt lat="43.100551650985885" lon="11.660780300421628"><ele>354.0</ele><time>2026-05-02T15:52:58Z</time></trkpt><trkpt lat="43.10074884259578" lon="11.660654885600362"><ele>352.6666666666667</ele><time>2026-05-02T15:52:59Z</time></trkpt><trkpt lat="43.1009409450762" lon="11.660544493221572"><ele>351.33333333333337</ele><time>2026-05-02T15:53:00Z</time></trkpt><trkpt lat="43.10113592094219" lon="11.660456477813124"><ele>350.0</ele><time>2026-05-02T15:53:01Z</time></trkpt><trkpt lat="43.10131467849566" lon="11.660354309721376"><ele>349.33333333333337</ele><time>2026-05-02T15:53:02Z</time></trkpt><trkpt lat="43.10148532406215" lon="11.660259883757512"><ele>348.6666666666667</ele><time>2026-05-02T15:53:03Z</time></trkpt><trkpt lat="43.10164279223028" lon="11.660175318171"><ele>348.0</ele><time>2026-05-02T15:53:04Z</time></trkpt><trkpt lat="43.10179525268864" lon="11.660113809192447"><ele>348.0</ele><time>2026-05-02T15:53:05Z</time></trkpt><trkpt lat="43.101949530453176" lon="11.660100235610342"><ele>348.0</ele><time>2026-05-02T15:53:06Z</time></trkpt><trkpt lat="43.102103953017945" lon="11.660121546380461"><ele>348.0</ele><time>2026-05-02T15:53:07Z</time></trkpt><trkpt lat="43.102275039209445" lon="11.660168793451987"><ele>347.3333333333333</ele><time>2026-05-02T15:53:08Z</time></trkpt><trkpt lat="43.102464124094354" lon="11.660227595605217"><ele>346.66666666666663</ele><time>2026-05-02T15:53:09Z</time></trkpt><trkpt lat="43.10266182432413" lon="11.660268210468518"><ele>346.0</ele><time>2026-05-02T15:53:10Z</time></trkpt><trkpt lat="43.10284543354017" lon="11.660352280530793"><ele>344.66666666666663</ele><time>2026-05-02T15:53:11Z</time></trkpt><trkpt lat="43.10302322439877" lon="11.660412386869682"><ele>343.3333333333333</ele><time>2026-05-02T15:53:12Z</time></trkpt><trkpt lat="43.10319643484501" lon="11.660446919594655"><ele>342.0</ele><time>2026-05-02T15:53:13Z</time></trkpt><trkpt lat="43.103353738122465" lon="11.660508259426768"><ele>341.75</ele><time>2026-05-02T15:53:14Z</time></trkpt><trkpt lat="43.103503809638845" lon="11.660561484704882"><ele>341.5</ele><time>2026-05-02T15:53:15Z</time></trkpt><trkpt lat="43.10364684114589" lon="11.660609264934104"><ele>341.25</ele><time>2026-05-02T15:53:16Z</time></trkpt><trkpt lat="43.103785222354524" lon="11.660650458636114"><ele>341.0</ele><time>2026-05-02T15:53:17Z</time></trkpt><trkpt lat="43.103918796815606" lon="11.66067021387294"><ele>341.0</ele><time>2026-05-02T15:53:18Z</time></trkpt><trkpt lat="43.10405561552097" lon="11.660662774642278"><ele>341.0</ele><time>2026-05-02T15:53:19Z</time></trkpt><trkpt lat="43.104203894575946" lon="11.660610154119858"><ele>341.0</ele><time>2026-05-02T15:53:20Z</time></trkpt><trkpt lat="43.10434995325734" lon="11.660524763815635"><ele>341.0</ele><time>2026-05-02T15:53:21Z</time></trkpt><trkpt lat="43.10449302466319" lon="11.660436199514557"><ele>341.0</ele><time>2026-05-02T15:53:22Z</time></trkpt><trkpt lat="43.10463368842082" lon="11.660344082586299"><ele>341.0</ele><time>2026-05-02T15:53:23Z</time></trkpt><trkpt lat="43.10476923588198" lon="11.660253546092806"><ele>341.0</ele><time>2026-05-02T15:53:24Z</time></trkpt><trkpt lat="43.104900110420516" lon="11.660167093667924"><ele>340.0</ele><time>2026-05-02T15:53:25Z</time></trkpt><trkpt lat="43.105027474873374" lon="11.66008855642425"><ele>339.0</ele><time>2026-05-02T15:53:26Z</time></trkpt><trkpt lat="43.105157617109974" lon="11.660029268332389"><ele>338.0</ele><time>2026-05-02T15:53:27Z</time></trkpt><trkpt lat="43.10531033145369" lon="11.660028772463749"><ele>337.0</ele><time>2026-05-02T15:53:28Z</time></trkpt><trkpt lat="43.1054744638058" lon="11.659974337614406"><ele>337.0</ele><time>2026-05-02T15:53:29Z</time></trkpt><trkpt lat="43.10564233123533" lon="11.659936767577111"><ele>337.0</ele><time>2026-05-02T15:53:30Z</time></trkpt><trkpt lat="43.105799712448665" lon="11.65988298739793"><ele>337.0</ele><time>2026-05-02T15:53:31Z</time></trkpt><trkpt lat="43.10593918055749" lon="11.659840284898442"><ele>337.5</ele><time>2026-05-02T15:53:32Z</time></trkpt><trkpt lat="43.106054989624496" lon="11.659824844084687"><ele>338.0</ele><time>2026-05-02T15:53:33Z</time></trkpt><trkpt lat="43.106176339184195" lon="11.659830687071901"><ele>338.5</ele><time>2026-05-02T15:53:34Z</time></trkpt><trkpt lat="43.10631047078235" lon="11.659889227066701"><ele>339.0</ele><time>2026-05-02T15:53:35Z</time></trkpt><trkpt lat="43.10646498052541" lon="11.659928566792255"><ele>341.0</ele><time>2026-05-02T15:53:36Z</time></trkpt><trkpt lat="43.10663746818116" lon="11.659969485977944"><ele>343.0</ele><time>2026-05-02T15:53:37Z</time></trkpt><trkpt lat="43.10683030772666" lon="11.660003826002232"><ele>345.0</ele><time>2026-05-02T15:53:38Z</time></trkpt><trkpt lat="43.10702479590916" lon="11.66000083762325"><ele>345.0</ele><time>2026-05-02T15:53:39Z</time></trkpt><trkpt lat="43.107208077584836" lon="11.660019406296174"><ele>345.0</ele><time>2026-05-02T15:53:40Z</time></trkpt><trkpt lat="43.10738731364064" lon="11.660022313479214"><ele>345.0</ele><time>2026-05-02T15:53:41Z</time></trkpt><trkpt lat="43.10755808661143" lon="11.660015776814337"><ele>347.0</ele><time>2026-05-02T15:53:42Z</time></trkpt><trkpt lat="43.10771876482612" lon="11.659996599017111"><ele>349.0</ele><time>2026-05-02T15:53:43Z</time></trkpt><trkpt lat="43.10785804807073" lon="11.659963517490178"><ele>351.0</ele><time>2026-05-02T15:53:44Z</time></trkpt><trkpt lat="43.10798866611514" lon="11.659928866090166"><ele>353.0</ele><time>2026-05-02T15:53:45Z</time></trkpt><trkpt lat="43.108129151776986" lon="11.659905703743592"><ele>355.33333333333337</ele><time>2026-05-02T15:53:46Z</time></trkpt><trkpt lat="43.10828958746777" lon="11.659920925048123"><ele>357.6666666666667</ele><time>2026-05-02T15:53:47Z</time></trkpt><trkpt lat="43.1084427299082" lon="11.659964332040948"><ele>360.0</ele><time>2026-05-02T15:53:48Z</time></trkpt><trkpt lat="43.10859307808254" lon="11.660036762745902"><ele>360.0</ele><time>2026-05-02T15:53:49Z</time></trkpt><trkpt lat="43.10872963864174" lon="11.660102172613685"><ele>360.0</ele><time>2026-05-02T15:53:50Z</time></trkpt><trkpt lat="43.108864504822556" lon="11.660139582802922"><ele>360.0</ele><time>2026-05-02T15:53:51Z</time></trkpt><trkpt lat="43.10900738668156" lon="11.660118410568373"><ele>360.0</ele><time>2026-05-02T15:53:52Z</time></trkpt><trkpt lat="43.109155694191166" lon="11.660046582631683"><ele>360.6666666666667</ele><time>2026-05-02T15:53:53Z</time></trkpt><trkpt lat="43.10931840919836" lon="11.659938437993269"><ele>361.33333333333337</ele><time>2026-05-02T15:53:54Z</time></trkpt><trkpt lat="43.1094960591052" lon="11.659817672130274"><ele>362.0</ele><time>2026-05-02T15:53:55Z</time></trkpt><trkpt lat="43.10968282259935" lon="11.659699136437542"><ele>362.0</ele><time>2026-05-02T15:53:56Z</time></trkpt><trkpt lat="43.10986983546721" lon="11.659585213191836"><ele>362.0</ele><time>2026-05-02T15:53:57Z</time></trkpt><trkpt lat="43.11004217930714" lon="11.659475056316523"><ele>362.0</ele><time>2026-05-02T15:53:58Z</time></trkpt><trkpt lat="43.110203863517484" lon="11.659392004622083"><ele>364.75</ele><time>2026-05-02T15:53:59Z</time></trkpt><trkpt lat="43.110344076839574" lon="11.659307415501303"><ele>367.5</ele><time>2026-05-02T15:54:00Z</time></trkpt><trkpt lat="43.110463722858775" lon="11.659218034615598"><ele>370.25</ele><time>2026-05-02T15:54:01Z</time></trkpt><trkpt lat="43.11058139589999" lon="11.659218298308856"><ele>373.0</ele><time>2026-05-02T15:54:02Z</time></trkpt><trkpt lat="43.11068513202161" lon="11.659222777259101"><ele>373.0</ele><time>2026-05-02T15:54:03Z</time></trkpt><trkpt lat="43.11080397114731" lon="11.659233135524731"><ele>373.0</ele><time>2026-05-02T15:54:04Z</time></trkpt><trkpt lat="43.110941076276546" lon="11.659301677104096"><ele>373.0</ele><time>2026-05-02T15:54:05Z</time></trkpt><trkpt lat="43.111081351206174" lon="11.65943206513442"><ele>373.0</ele><time>2026-05-02T15:54:06Z</time></trkpt><trkpt lat="43.111242298723624" lon="11.659526024967395"><ele>373.0</ele><time>2026-05-02T15:54:07Z</time></trkpt><trkpt lat="43.11140270828449" lon="11.659606250163254"><ele>373.0</ele><time>2026-05-02T15:54:08Z</time></trkpt><trkpt lat="43.111595172409814" lon="11.659640177302448"><ele>373.0</ele><time>2026-05-02T15:54:09Z</time></trkpt><trkpt lat="43.1117949031354" lon="11.659657160244684"><ele>373.0</ele><time>2026-05-02T15:54:10Z</time></trkpt><trkpt lat="43.111997363674" lon="11.659679778201394"><ele>373.0</ele><time>2026-05-02T15:54:11Z</time></trkpt><trkpt lat="43.11219819481064" lon="11.659715802009513"><ele>373.0</ele><time>2026-05-02T15:54:12Z</time></trkpt><trkpt lat="43.11238822443109" lon="11.659758480579177"><ele>373.3333333333333</ele><time>2026-05-02T15:54:13Z</time></trkpt><trkpt lat="43.11257228656098" lon="11.659808516475763"><ele>373.6666666666667</ele><time>2026-05-02T15:54:14Z</time></trkpt><trkpt lat="43.11274928441602" lon="11.659862512338307"><ele>374.0</ele><time>2026-05-02T15:54:15Z</time></trkpt><trkpt lat="43.11291362424638" lon="11.65992223693007"><ele>374.0</ele><time>2026-05-02T15:54:16Z</time></trkpt><trkpt lat="43.113074424616684" lon="11.659973815732481"><ele>374.0</ele><time>2026-05-02T15:54:17Z</time></trkpt><trkpt lat="43.11324227704287" lon="11.660022817074452"><ele>374.0</ele><time>2026-05-02T15:54:18Z</time></trkpt><trkpt lat="43.11342796190765" lon="11.660035463742224"><ele>376.33333333333337</ele><time>2026-05-02T15:54:19Z</time></trkpt><trkpt lat="43.11362419275849" lon="11.660031681780406"><ele>378.6666666666667</ele><time>2026-05-02T15:54:20Z</time></trkpt><trkpt lat="43.11382370591086" lon="11.660017282668871"><ele>381.0</ele><time>2026-05-02T15:54:21Z</time></trkpt><trkpt lat="43.11402471122109" lon="11.659996927928436"><ele>383.33333333333337</ele><time>2026-05-02T15:54:22Z</time></trkpt><trkpt lat="43.11422755759507" lon="11.659976119105393"><ele>385.6666666666667</ele><time>2026-05-02T15:54:23Z</time></trkpt><trkpt lat="43.114431056254126" lon="11.65995883314462"><ele>388.0</ele><time>2026-05-02T15:54:24Z</time></trkpt><trkpt lat="43.11463083186918" lon="11.659942954424691"><ele>388.0</ele><time>2026-05-02T15:54:25Z</time></trkpt><trkpt lat="43.11482281214054" lon="11.659922617987435"><ele>388.0</ele><time>2026-05-02T15:54:26Z</time></trkpt><trkpt lat="43.11499088841427" lon="11.659908864007575"><ele>388.0</ele><time>2026-05-02T15:54:27Z</time></trkpt><trkpt lat="43.115147104603565" lon="11.659896841441437"><ele>390.0</ele><time>2026-05-02T15:54:28Z</time></trkpt><trkpt lat="43.11530498882505" lon="11.659874075033473"><ele>392.0</ele><time>2026-05-02T15:54:29Z</time></trkpt><trkpt lat="43.11548167543559" lon="11.659820262935952"><ele>394.0</ele><time>2026-05-02T15:54:30Z</time></trkpt><trkpt lat="43.11567127326605" lon="11.659730163844454"><ele>393.33333333333337</ele><time>2026-05-02T15:54:31Z</time></trkpt><trkpt lat="43.11586912789868" lon="11.65962651049307"><ele>392.66666666666663</ele><time>2026-05-02T15:54:32Z</time></trkpt><trkpt lat="43.1160774387313" lon="11.659520852016332"><ele>392.0</ele><time>2026-05-02T15:54:33Z</time></trkpt><trkpt lat="43.11629647495931" lon="11.659412577731748"><ele>396.0</ele><time>2026-05-02T15:54:34Z</time></trkpt><trkpt lat="43.11651194931265" lon="11.659303316762779"><ele>400.0</ele><time>2026-05-02T15:54:35Z</time></trkpt><trkpt lat="43.11672008756756" lon="11.65919524697941"><ele>400.0</ele><time>2026-05-02T15:54:36Z</time></trkpt><trkpt lat="43.11692540609205" lon="11.65909306232483"><ele>400.0</ele><time>2026-05-02T15:54:37Z</time></trkpt><trkpt lat="43.11712488623921" lon="11.65899606732999"><ele>400.0</ele><time>2026-05-02T15:54:38Z</time></trkpt><trkpt lat="43.117328019984484" lon="11.65889550901349"><ele>400.33333333333337</ele><time>2026-05-02T15:54:39.001Z</time></trkpt><trkpt lat="43.11752561292399" lon="11.65880000990582"><ele>400.66666666666663</ele><time>2026-05-02T15:54:40.001Z</time></trkpt><trkpt lat="43.117724382358766" lon="11.65870080007632"><ele>401.0</ele><time>2026-05-02T15:54:41.001Z</time></trkpt><trkpt lat="43.117920146870524" lon="11.658598427883177"><ele>402.0</ele><time>2026-05-02T15:54:42.001Z</time></trkpt><trkpt lat="43.11811003522455" lon="11.658496383037928"><ele>403.0</ele><time>2026-05-02T15:54:43.001Z</time></trkpt><trkpt lat="43.11829735406159" lon="11.658397659943883"><ele>404.0</ele><time>2026-05-02T15:54:44Z</time></trkpt><trkpt lat="43.11848047861321" lon="11.658302041802683"><ele>406.0</ele><time>2026-05-02T15:54:45Z</time></trkpt><trkpt lat="43.11867106099993" lon="11.658229571706391"><ele>408.0</ele><time>2026-05-02T15:54:46Z</time></trkpt><trkpt lat="43.11885762831897" lon="11.65813492344377"><ele>410.0</ele><time>2026-05-02T15:54:47Z</time></trkpt><trkpt lat="43.11904367677599" lon="11.658040538274735"><ele>410.66666666666663</ele><time>2026-05-02T15:54:48Z</time></trkpt><trkpt lat="43.11921951867089" lon="11.65792859736599"><ele>411.33333333333337</ele><time>2026-05-02T15:54:49Z</time></trkpt><trkpt lat="43.11939908985417" lon="11.65784271178581"><ele>412.0</ele><time>2026-05-02T15:54:50Z</time></trkpt><trkpt lat="43.119579187705426" lon="11.657751446309085"><ele>412.0</ele><time>2026-05-02T15:54:51Z</time></trkpt><trkpt lat="43.119761048094276" lon="11.65766029322293"><ele>412.0</ele><time>2026-05-02T15:54:52Z</time></trkpt><trkpt lat="43.119948066880596" lon="11.657564506284363"><ele>412.0</ele><time>2026-05-02T15:54:53Z</time></trkpt><trkpt lat="43.120135462321734" lon="11.657471719798263"><ele>411.33333333333337</ele><time>2026-05-02T15:54:54Z</time></trkpt><trkpt lat="43.12032256547029" lon="11.657381633741126"><ele>410.66666666666663</ele><time>2026-05-02T15:54:55Z</time></trkpt><trkpt lat="43.12050760518507" lon="11.657286997568827"><ele>410.0</ele><time>2026-05-02T15:54:56Z</time></trkpt><trkpt lat="43.12068348622032" lon="11.657197269568945"><ele>409.0</ele><time>2026-05-02T15:54:57Z</time></trkpt><trkpt lat="43.120849512259525" lon="11.657121239780452"><ele>408.0</ele><time>2026-05-02T15:54:58Z</time></trkpt><trkpt lat="43.1210182997717" lon="11.657059567686407"><ele>407.0</ele><time>2026-05-02T15:54:59Z</time></trkpt><trkpt lat="43.12118482710579" lon="11.656999396237252"><ele>408.3333333333333</ele><time>2026-05-02T15:55:00Z</time></trkpt><trkpt lat="43.121347419841335" lon="11.656859448662939"><ele>409.66666666666663</ele><time>2026-05-02T15:55:01Z</time></trkpt><trkpt lat="43.12150375610974" lon="11.656815472177291"><ele>411.0</ele><time>2026-05-02T15:55:02Z</time></trkpt><trkpt lat="43.12166310044831" lon="11.65676471341749"><ele>411.66666666666663</ele><time>2026-05-02T15:55:03Z</time></trkpt><trkpt lat="43.121840068799706" lon="11.656735202754595"><ele>412.3333333333333</ele><time>2026-05-02T15:55:04Z</time></trkpt><trkpt lat="43.12202872601364" lon="11.65672987003644"><ele>413.0</ele><time>2026-05-02T15:55:05Z</time></trkpt><trkpt lat="43.122216136084006" lon="11.656741840810861"><ele>412.0</ele><time>2026-05-02T15:55:06Z</time></trkpt><trkpt lat="43.122404039915544" lon="11.656795463595502"><ele>411.0</ele><time>2026-05-02T15:55:07Z</time></trkpt><trkpt lat="43.122603030467154" lon="11.65687931004447"><ele>410.0</ele><time>2026-05-02T15:55:08Z</time></trkpt><trkpt lat="43.1228087754539" lon="11.656975028127249"><ele>408.0</ele><time>2026-05-02T15:55:09Z</time></trkpt><trkpt lat="43.12299863462894" lon="11.657063309384657"><ele>406.0</ele><time>2026-05-02T15:55:10Z</time></trkpt><trkpt lat="43.12317666578962" lon="11.657121856580398"><ele>404.0</ele><time>2026-05-02T15:55:11Z</time></trkpt><trkpt lat="43.12334213402528" lon="11.657186613490977"><ele>404.0</ele><time>2026-05-02T15:55:12Z</time></trkpt><trkpt lat="43.12350161423865" lon="11.657231803905434"><ele>404.0</ele><time>2026-05-02T15:55:13Z</time></trkpt><trkpt lat="43.123663918964375" lon="11.657247518844803"><ele>404.0</ele><time>2026-05-02T15:55:14Z</time></trkpt><trkpt lat="43.1238467113776" lon="11.657265290837055"><ele>404.0</ele><time>2026-05-02T15:55:15Z</time></trkpt><trkpt lat="43.12403357731251" lon="11.657274989429336"><ele>404.0</ele><time>2026-05-02T15:55:16Z</time></trkpt><trkpt lat="43.12422561248064" lon="11.65726337908728"><ele>404.0</ele><time>2026-05-02T15:55:17Z</time></trkpt><trkpt lat="43.124413985315535" lon="11.65724390628344"><ele>403.3333333333333</ele><time>2026-05-02T15:55:18Z</time></trkpt><trkpt lat="43.1245861679081" lon="11.657206649899415"><ele>402.66666666666663</ele><time>2026-05-02T15:55:19Z</time></trkpt><trkpt lat="43.12474952923232" lon="11.65715707176412"><ele>402.0</ele><time>2026-05-02T15:55:20Z</time></trkpt><trkpt lat="43.12490995814687" lon="11.657092609610467"><ele>400.66666666666663</ele><time>2026-05-02T15:55:21Z</time></trkpt><trkpt lat="43.125061561184566" lon="11.657009359324954"><ele>399.3333333333333</ele><time>2026-05-02T15:55:22Z</time></trkpt><trkpt lat="43.12521070888174" lon="11.656898504980472"><ele>398.0</ele><time>2026-05-02T15:55:23Z</time></trkpt><trkpt lat="43.12535330536414" lon="11.656755613747174"><ele>398.3333333333333</ele><time>2026-05-02T15:55:24Z</time></trkpt><trkpt lat="43.12548575311235" lon="11.656611925027477"><ele>398.66666666666663</ele><time>2026-05-02T15:55:25Z</time></trkpt><trkpt lat="43.125609513316675" lon="11.65647576291159"><ele>399.0</ele><time>2026-05-02T15:55:26Z</time></trkpt><trkpt lat="43.12573346511003" lon="11.656318911166016"><ele>399.0</ele><time>2026-05-02T15:55:27Z</time></trkpt><trkpt lat="43.12585341854448" lon="11.656139854501449"><ele>399.0</ele><time>2026-05-02T15:55:28Z</time></trkpt><trkpt lat="43.125967243124286" lon="11.655935269686054"><ele>399.0</ele><time>2026-05-02T15:55:29Z</time></trkpt><trkpt lat="43.12607602729873" lon="11.655737671321331"><ele>400.33333333333337</ele><time>2026-05-02T15:55:30Z</time></trkpt><trkpt lat="43.1261745569208" lon="11.65555824204412"><ele>401.6666666666667</ele><time>2026-05-02T15:55:31Z</time></trkpt><trkpt lat="43.12625961497785" lon="11.655388418609236"><ele>403.0</ele><time>2026-05-02T15:55:32Z</time></trkpt><trkpt lat="43.12634731994304" lon="11.655229860321782"><ele>401.5</ele><time>2026-05-02T15:55:33Z</time></trkpt><trkpt lat="43.12644212435042" lon="11.655111337994033"><ele>400.0</ele><time>2026-05-02T15:55:34Z</time></trkpt><trkpt lat="43.12656153730214" lon="11.655020669182067"><ele>398.5</ele><time>2026-05-02T15:55:35Z</time></trkpt><trkpt lat="43.126713950492594" lon="11.654939675211404"><ele>397.0</ele><time>2026-05-02T15:55:36Z</time></trkpt><trkpt lat="43.12688371865639" lon="11.654831854862383"><ele>397.0</ele><time>2026-05-02T15:55:37Z</time></trkpt><trkpt lat="43.12706273979179" lon="11.654708109786974"><ele>397.0</ele><time>2026-05-02T15:55:38Z</time></trkpt><trkpt lat="43.12724053806812" lon="11.654586029032139"><ele>397.0</ele><time>2026-05-02T15:55:39Z</time></trkpt><trkpt lat="43.12740696020424" lon="11.654472511836811"><ele>395.0</ele><time>2026-05-02T15:55:40Z</time></trkpt><trkpt lat="43.12756927171327" lon="11.654371422949719"><ele>393.0</ele><time>2026-05-02T15:55:41Z</time></trkpt><trkpt lat="43.12773140348316" lon="11.654280538375522"><ele>391.0</ele><time>2026-05-02T15:55:42Z</time></trkpt><trkpt lat="43.12789775754524" lon="11.654201221115915"><ele>391.0</ele><time>2026-05-02T15:55:43Z</time></trkpt><trkpt lat="43.128083383983586" lon="11.654136139593847"><ele>391.0</ele><time>2026-05-02T15:55:44Z</time></trkpt><trkpt lat="43.12827702496693" lon="11.654067574399217"><ele>391.0</ele><time>2026-05-02T15:55:45Z</time></trkpt><trkpt lat="43.12846331595515" lon="11.654001906137626"><ele>388.0</ele><time>2026-05-02T15:55:46Z</time></trkpt><trkpt lat="43.128644872537016" lon="11.653937436196141"><ele>385.0</ele><time>2026-05-02T15:55:47Z</time></trkpt><trkpt lat="43.12881775311862" lon="11.653870206511888"><ele>382.0</ele><time>2026-05-02T15:55:48Z</time></trkpt><trkpt lat="43.12897576138773" lon="11.65380354172464"><ele>381.0</ele><time>2026-05-02T15:55:49Z</time></trkpt><trkpt lat="43.12911505051635" lon="11.653720748265107"><ele>380.0</ele><time>2026-05-02T15:55:50Z</time></trkpt><trkpt lat="43.12924328914283" lon="11.653604657709545"><ele>379.0</ele><time>2026-05-02T15:55:51Z</time></trkpt><trkpt lat="43.129356513297324" lon="11.653464354330218"><ele>379.0</ele><time>2026-05-02T15:55:52Z</time></trkpt><trkpt lat="43.12946783050236" lon="11.653310835261532"><ele>379.0</ele><time>2026-05-02T15:55:53Z</time></trkpt><trkpt lat="43.12958536820616" lon="11.653176475332724"><ele>379.0</ele><time>2026-05-02T15:55:54Z</time></trkpt><trkpt lat="43.12971464914395" lon="11.653103921470034"><ele>379.0</ele><time>2026-05-02T15:55:55Z</time></trkpt><trkpt lat="43.12983565171102" lon="11.65304828396795"><ele>379.0</ele><time>2026-05-02T15:55:56Z</time></trkpt><trkpt lat="43.12996303059622" lon="11.653006493666243"><ele>379.0</ele><time>2026-05-02T15:55:57Z</time></trkpt><trkpt lat="43.13008943844761" lon="11.653050683846288"><ele>379.0</ele><time>2026-05-02T15:55:58Z</time></trkpt><trkpt lat="43.130220497317275" lon="11.653097563048716"><ele>375.0</ele><time>2026-05-02T15:55:59Z</time></trkpt><trkpt lat="43.130331566495634" lon="11.653173165356527"><ele>371.0</ele><time>2026-05-02T15:56:00Z</time></trkpt><trkpt lat="43.13044714914784" lon="11.653258957754478"><ele>367.0</ele><time>2026-05-02T15:56:01Z</time></trkpt><trkpt lat="43.13054109432405" lon="11.65339729690974"><ele>363.0</ele><time>2026-05-02T15:56:02Z</time></trkpt><trkpt lat="43.13060034938565" lon="11.653563896516632"><ele>363.0</ele><time>2026-05-02T15:56:03Z</time></trkpt><trkpt lat="43.130665345164466" lon="11.653736217389813"><ele>363.0</ele><time>2026-05-02T15:56:04Z</time></trkpt><trkpt lat="43.13068346309003" lon="11.653954336041759"><ele>363.0</ele><time>2026-05-02T15:56:05Z</time></trkpt><trkpt lat="43.130711515876555" lon="11.65419263696986"><ele>359.0</ele><time>2026-05-02T15:56:06Z</time></trkpt><trkpt lat="43.13075190137688" lon="11.65443890526777"><ele>355.0</ele><time>2026-05-02T15:56:07Z</time></trkpt><trkpt lat="43.13077311364832" lon="11.654676551317245"><ele>351.0</ele><time>2026-05-02T15:56:08Z</time></trkpt><trkpt lat="43.13079580307748" lon="11.654894256071278"><ele>350.75</ele><time>2026-05-02T15:56:09Z</time></trkpt><trkpt lat="43.13081887070682" lon="11.655101293063948"><ele>350.5</ele><time>2026-05-02T15:56:10Z</time></trkpt><trkpt lat="43.130844380104094" lon="11.655295004240001"><ele>350.25</ele><time>2026-05-02T15:56:11Z</time></trkpt><trkpt lat="43.13087913388173" lon="11.65547104865674"><ele>350.0</ele><time>2026-05-02T15:56:12Z</time></trkpt><trkpt lat="43.13093992583996" lon="11.65561680581008"><ele>350.0</ele><time>2026-05-02T15:56:13Z</time></trkpt><trkpt lat="43.13102632876182" lon="11.655731529002967"><ele>350.0</ele><time>2026-05-02T15:56:14Z</time></trkpt><trkpt lat="43.13112841896758" lon="11.65580356177851"><ele>350.0</ele><time>2026-05-02T15:56:15Z</time></trkpt><trkpt lat="43.13124429955975" lon="11.65583521412812"><ele>350.0</ele><time>2026-05-02T15:56:16Z</time></trkpt><trkpt lat="43.1313860234132" lon="11.655833551531144"><ele>350.0</ele><time>2026-05-02T15:56:17Z</time></trkpt><trkpt lat="43.13154858666725" lon="11.655822283533501"><ele>350.0</ele><time>2026-05-02T15:56:18Z</time></trkpt><trkpt lat="43.13172815694096" lon="11.65579872397337"><ele>350.0</ele><time>2026-05-02T15:56:19Z</time></trkpt><trkpt lat="43.13191749832008" lon="11.655770340708044"><ele>346.33333333333337</ele><time>2026-05-02T15:56:20Z</time></trkpt><trkpt lat="43.1321139235994" lon="11.655744315637643"><ele>342.6666666666667</ele><time>2026-05-02T15:56:21Z</time></trkpt><trkpt lat="43.132307891089496" lon="11.655723907158778"><ele>339.0</ele><time>2026-05-02T15:56:22Z</time></trkpt><trkpt lat="43.13249359271219" lon="11.655692672995796"><ele>335.0</ele><time>2026-05-02T15:56:23Z</time></trkpt><trkpt lat="43.13267263620178" lon="11.655653548142293"><ele>331.0</ele><time>2026-05-02T15:56:24Z</time></trkpt><trkpt lat="43.13283844466721" lon="11.655608197365295"><ele>327.0</ele><time>2026-05-02T15:56:25Z</time></trkpt><trkpt lat="43.132990482201116" lon="11.655559661315442"><ele>327.0</ele><time>2026-05-02T15:56:26Z</time></trkpt><trkpt lat="43.13312627867011" lon="11.655517160285894"><ele>327.0</ele><time>2026-05-02T15:56:27Z</time></trkpt><trkpt lat="43.133263583041874" lon="11.655493531302096"><ele>327.0</ele><time>2026-05-02T15:56:28Z</time></trkpt><trkpt lat="43.13340506612809" lon="11.655519153097277"><ele>327.0</ele><time>2026-05-02T15:56:29Z</time></trkpt><trkpt lat="43.133558845529144" lon="11.655556429799157"><ele>323.5</ele><time>2026-05-02T15:56:30Z</time></trkpt><trkpt lat="43.133718085978835" lon="11.655604673027453"><ele>320.0</ele><time>2026-05-02T15:56:31Z</time></trkpt><trkpt lat="43.13386555897128" lon="11.655639232999063"><ele>316.5</ele><time>2026-05-02T15:56:32Z</time></trkpt><trkpt lat="43.133976944456144" lon="11.65567245032793"><ele>313.0</ele><time>2026-05-02T15:56:33Z</time></trkpt><trkpt lat="43.134077248972474" lon="11.655684643907538"><ele>312.0</ele><time>2026-05-02T15:56:34Z</time></trkpt><trkpt lat="43.13417417316764" lon="11.655659123477733"><ele>311.0</ele><time>2026-05-02T15:56:35Z</time></trkpt><trkpt lat="43.1342690885418" lon="11.655592963281606"><ele>310.0</ele><time>2026-05-02T15:56:36Z</time></trkpt><trkpt lat="43.13435805968683" lon="11.655479352088813"><ele>309.0</ele><time>2026-05-02T15:56:37Z</time></trkpt><trkpt lat="43.13443269842654" lon="11.655328253240272"><ele>309.0</ele><time>2026-05-02T15:56:38Z</time></trkpt><trkpt lat="43.13449242796674" lon="11.655153005045419"><ele>309.0</ele><time>2026-05-02T15:56:39Z</time></trkpt><trkpt lat="43.13456157349407" lon="11.655013271409997"><ele>309.0</ele><time>2026-05-02T15:56:40Z</time></trkpt><trkpt lat="43.13464902463016" lon="11.654908481874271"><ele>309.0</ele><time>2026-05-02T15:56:41Z</time></trkpt><trkpt lat="43.13477187178741" lon="11.65481963054632"><ele>308.3333333333333</ele><time>2026-05-02T15:56:42Z</time></trkpt><trkpt lat="43.13494121096937" lon="11.654773862231353"><ele>307.66666666666663</ele><time>2026-05-02T15:56:43Z</time></trkpt><trkpt lat="43.13511283535375" lon="11.654671054467803"><ele>307.0</ele><time>2026-05-02T15:56:44.001Z</time></trkpt><trkpt lat="43.135302634098075" lon="11.65458874440102"><ele>307.0</ele><time>2026-05-02T15:56:45.001Z</time></trkpt><trkpt lat="43.13547233253005" lon="11.654531219001555"><ele>307.0</ele><time>2026-05-02T15:56:46.001Z</time></trkpt><trkpt lat="43.13561112258104" lon="11.654477419558694"><ele>307.0</ele><time>2026-05-02T15:56:47.001Z</time></trkpt><trkpt lat="43.13573293250638" lon="11.654421515034686"><ele>307.0</ele><time>2026-05-02T15:56:48.001Z</time></trkpt><trkpt lat="43.1358651132551" lon="11.654443732953945"><ele>307.75</ele><time>2026-05-02T15:56:49.001Z</time></trkpt><trkpt lat="43.13600164064531" lon="11.654448475465827"><ele>308.5</ele><time>2026-05-02T15:56:50Z</time></trkpt><trkpt lat="43.13610261072089" lon="11.654530545446605"><ele>309.25</ele><time>2026-05-02T15:56:51Z</time></trkpt><trkpt lat="43.136178086801195" lon="11.654615752234482"><ele>310.0</ele><time>2026-05-02T15:56:52Z</time></trkpt><trkpt lat="43.13624217527211" lon="11.65474204367762"><ele>311.75</ele><time>2026-05-02T15:56:53Z</time></trkpt><trkpt lat="43.13631593506017" lon="11.654901566571667"><ele>313.5</ele><time>2026-05-02T15:56:54Z</time></trkpt><trkpt lat="43.1363605754603" lon="11.655102193968705"><ele>315.25</ele><time>2026-05-02T15:56:55Z</time></trkpt><trkpt lat="43.13639523733815" lon="11.655279652652421"><ele>317.0</ele><time>2026-05-02T15:56:56Z</time></trkpt><trkpt lat="43.136434951621695" lon="11.655413494094343"><ele>317.0</ele><time>2026-05-02T15:56:57Z</time></trkpt><trkpt lat="43.136498626382945" lon="11.655525413924789"><ele>317.0</ele><time>2026-05-02T15:56:58Z</time></trkpt><trkpt lat="43.13658333035622" lon="11.655613373179309"><ele>317.0</ele><time>2026-05-02T15:56:59Z</time></trkpt><trkpt lat="43.136690527988385" lon="11.655659333347595"><ele>317.0</ele><time>2026-05-02T15:57:00Z</time></trkpt><trkpt lat="43.13679916871333" lon="11.655656229158549"><ele>317.0</ele><time>2026-05-02T15:57:01Z</time></trkpt><trkpt lat="43.13691031660426" lon="11.655581275042067"><ele>318.0</ele><time>2026-05-02T15:57:02Z</time></trkpt><trkpt lat="43.137031150350374" lon="11.65546893823797"><ele>319.0</ele><time>2026-05-02T15:57:03Z</time></trkpt><trkpt lat="43.137165074375275" lon="11.655342696294044"><ele>320.0</ele><time>2026-05-02T15:57:04Z</time></trkpt><trkpt lat="43.13729558895812" lon="11.655219136044355"><ele>322.8</ele><time>2026-05-02T15:57:05Z</time></trkpt><trkpt lat="43.13739605209288" lon="11.65511376034581"><ele>325.6</ele><time>2026-05-02T15:57:06Z</time></trkpt><trkpt lat="43.137476285279654" lon="11.655022400973976"><ele>328.4</ele><time>2026-05-02T15:57:07Z</time></trkpt><trkpt lat="43.137554341821094" lon="11.654973256055722"><ele>331.2</ele><time>2026-05-02T15:57:08Z</time></trkpt><trkpt lat="43.13762647776356" lon="11.654936567969616"><ele>334.0</ele><time>2026-05-02T15:57:09Z</time></trkpt><trkpt lat="43.1377112554088" lon="11.654952437718853"><ele>334.0</ele><time>2026-05-02T15:57:10Z</time></trkpt><trkpt lat="43.13779421202268" lon="11.654990193099168"><ele>334.0</ele><time>2026-05-02T15:57:11Z</time></trkpt><trkpt lat="43.137854937270376" lon="11.655048911166606"><ele>334.0</ele><time>2026-05-02T15:57:12Z</time></trkpt><trkpt lat="43.137889355652696" lon="11.655170240579949"><ele>334.0</ele><time>2026-05-02T15:57:13Z</time></trkpt><trkpt lat="43.137862061790514" lon="11.65532204028991"><ele>334.0</ele><time>2026-05-02T15:57:14Z</time></trkpt><trkpt lat="43.137815920984956" lon="11.655471536300839"><ele>335.75</ele><time>2026-05-02T15:57:15Z</time></trkpt><trkpt lat="43.13777850625129" lon="11.655662517217557"><ele>337.5</ele><time>2026-05-02T15:57:16Z</time></trkpt><trkpt lat="43.13771335275817" lon="11.655860762162247"><ele>339.25</ele><time>2026-05-02T15:57:17Z</time></trkpt><trkpt lat="43.137663328509454" lon="11.65603384757083"><ele>341.0</ele><time>2026-05-02T15:57:18Z</time></trkpt><trkpt lat="43.13763087739251" lon="11.65617467679077"><ele>342.0</ele><time>2026-05-02T15:57:19Z</time></trkpt><trkpt lat="43.13761174903712" lon="11.656295445696106"><ele>343.0</ele><time>2026-05-02T15:57:20Z</time></trkpt><trkpt lat="43.13761313748213" lon="11.656419533876324"><ele>344.0</ele><time>2026-05-02T15:57:21Z</time></trkpt><trkpt lat="43.13764507088788" lon="11.656547434654886"><ele>345.0</ele><time>2026-05-02T15:57:22Z</time></trkpt><trkpt lat="43.13770018101505" lon="11.656676349216553"><ele>346.0</ele><time>2026-05-02T15:57:23Z</time></trkpt><trkpt lat="43.13777912999898" lon="11.656797501152784"><ele>346.0</ele><time>2026-05-02T15:57:24Z</time></trkpt><trkpt lat="43.13788297619069" lon="11.65692262757067"><ele>346.0</ele><time>2026-05-02T15:57:25Z</time></trkpt><trkpt lat="43.137964750278435" lon="11.657093025843603"><ele>346.0</ele><time>2026-05-02T15:57:26Z</time></trkpt><trkpt lat="43.138038390199966" lon="11.657243402672098"><ele>346.0</ele><time>2026-05-02T15:57:27Z</time></trkpt><trkpt lat="43.138075312417165" lon="11.65737736257726"><ele>345.66666666666663</ele><time>2026-05-02T15:57:28Z</time></trkpt><trkpt lat="43.13808229293449" lon="11.657502171239843"><ele>345.3333333333333</ele><time>2026-05-02T15:57:29Z</time></trkpt><trkpt lat="43.1380560307266" lon="11.657621081295916"><ele>345.0</ele><time>2026-05-02T15:57:30Z</time></trkpt><trkpt lat="43.137998526503075" lon="11.657721406661263"><ele>344.6666666666667</ele><time>2026-05-02T15:57:31Z</time></trkpt><trkpt lat="43.137962496127464" lon="11.657832733081813"><ele>344.33333333333337</ele><time>2026-05-02T15:57:32Z</time></trkpt><trkpt lat="43.137923384610865" lon="11.657914735021805"><ele>344.0</ele><time>2026-05-02T15:57:33Z</time></trkpt><trkpt lat="43.137908955893806" lon="11.658015733383877"><ele>343.6</ele><time>2026-05-02T15:57:34Z</time></trkpt><trkpt lat="43.13793525619616" lon="11.658140651338718"><ele>343.2</ele><time>2026-05-02T15:57:35Z</time></trkpt><trkpt lat="43.13798612490892" lon="11.658259118444903"><ele>342.8</ele><time>2026-05-02T15:57:36Z</time></trkpt><trkpt lat="43.13806049943174" lon="11.658345905029774"><ele>342.40000000000003</ele><time>2026-05-02T15:57:37Z</time></trkpt><trkpt lat="43.138153890898" lon="11.65840117929888"><ele>342.0</ele><time>2026-05-02T15:57:38Z</time></trkpt><trkpt lat="43.13827294959525" lon="11.658453791162804"><ele>346.3333333333333</ele><time>2026-05-02T15:57:39Z</time></trkpt><trkpt lat="43.13839667376686" lon="11.658551620514391"><ele>350.66666666666663</ele><time>2026-05-02T15:57:40Z</time></trkpt><trkpt lat="43.138541528147066" lon="11.658642293689187"><ele>355.0</ele><time>2026-05-02T15:57:41Z</time></trkpt><trkpt lat="43.138694099839306" lon="11.65873838009045"><ele>355.0</ele><time>2026-05-02T15:57:42Z</time></trkpt><trkpt lat="43.13884427920081" lon="11.65883295996224"><ele>355.0</ele><time>2026-05-02T15:57:43Z</time></trkpt><trkpt lat="43.13897230748128" lon="11.658916247399604"><ele>355.0</ele><time>2026-05-02T15:57:44Z</time></trkpt><trkpt lat="43.13909312193655" lon="11.659000708127852"><ele>355.0</ele><time>2026-05-02T15:57:45Z</time></trkpt><trkpt lat="43.139203518479576" lon="11.659106473325608"><ele>359.5</ele><time>2026-05-02T15:57:46Z</time></trkpt><trkpt lat="43.139292709873594" lon="11.659234873293778"><ele>364.0</ele><time>2026-05-02T15:57:47Z</time></trkpt><trkpt lat="43.13936199848577" lon="11.659382304736871"><ele>368.5</ele><time>2026-05-02T15:57:48Z</time></trkpt><trkpt lat="43.13942416903371" lon="11.659549751358378"><ele>373.0</ele><time>2026-05-02T15:57:49Z</time></trkpt><trkpt lat="43.13942859320315" lon="11.659743517249202"><ele>373.2</ele><time>2026-05-02T15:57:50Z</time></trkpt><trkpt lat="43.13943031127881" lon="11.659938084323613"><ele>373.4</ele><time>2026-05-02T15:57:51Z</time></trkpt><trkpt lat="43.1394440031418" lon="11.660081184219182"><ele>373.59999999999997</ele><time>2026-05-02T15:57:52Z</time></trkpt><trkpt lat="43.1394349059159" lon="11.66019575487498"><ele>373.79999999999995</ele><time>2026-05-02T15:57:53Z</time></trkpt><trkpt lat="43.1394167915559" lon="11.660297552329817"><ele>374.0</ele><time>2026-05-02T15:57:54Z</time></trkpt><trkpt lat="43.1393945113446" lon="11.660393724774204"><ele>374.4</ele><time>2026-05-02T15:57:55Z</time></trkpt><trkpt lat="43.139435096468105" lon="11.660478083509"><ele>374.79999999999995</ele><time>2026-05-02T15:57:57Z</time></trkpt><trkpt lat="43.139442587247046" lon="11.660653652205996"><ele>375.20000000000005</ele><time>2026-05-02T15:57:59Z</time></trkpt><trkpt lat="43.13944787463272" lon="11.660804399505851"><ele>375.6</ele><time>2026-05-02T15:58:00Z</time></trkpt><trkpt lat="43.139456712986465" lon="11.660991586351429"><ele>376.0</ele><time>2026-05-02T15:58:01Z</time></trkpt><trkpt lat="43.13948213629327" lon="11.661193889859035"><ele>377.0</ele><time>2026-05-02T15:58:02Z</time></trkpt><trkpt lat="43.13949164849351" lon="11.661398179516475"><ele>378.0</ele><time>2026-05-02T15:58:03Z</time></trkpt><trkpt lat="43.139500708038824" lon="11.66159037509382"><ele>379.0</ele><time>2026-05-02T15:58:04Z</time></trkpt><trkpt lat="43.139481782824454" lon="11.661774859154715"><ele>380.0</ele><time>2026-05-02T15:58:05Z</time></trkpt><trkpt lat="43.139460341134416" lon="11.661961117000288"><ele>382.0</ele><time>2026-05-02T15:58:06Z</time></trkpt><trkpt lat="43.139414803919905" lon="11.6621364324956"><ele>384.0</ele><time>2026-05-02T15:58:07Z</time></trkpt><trkpt lat="43.13934421145699" lon="11.662305417673657"><ele>386.0</ele><time>2026-05-02T15:58:08Z</time></trkpt><trkpt lat="43.13925254491613" lon="11.662465302818294"><ele>388.0</ele><time>2026-05-02T15:58:09Z</time></trkpt><trkpt lat="43.13914307813151" lon="11.662621217774422"><ele>388.33333333333337</ele><time>2026-05-02T15:58:10Z</time></trkpt><trkpt lat="43.139029698835294" lon="11.662768034401598"><ele>388.66666666666663</ele><time>2026-05-02T15:58:11Z</time></trkpt><trkpt lat="43.13891702784501" lon="11.662909784164997"><ele>389.0</ele><time>2026-05-02T15:58:12Z</time></trkpt><trkpt lat="43.13882685824519" lon="11.663058873549586"><ele>389.0</ele><time>2026-05-02T15:58:13Z</time></trkpt><trkpt lat="43.13873531621183" lon="11.663170319542184"><ele>389.0</ele><time>2026-05-02T15:58:14Z</time></trkpt><trkpt lat="43.13865755337262" lon="11.663274468689988"><ele>389.0</ele><time>2026-05-02T15:58:15Z</time></trkpt><trkpt lat="43.13860674201977" lon="11.663377969362214"><ele>389.0</ele><time>2026-05-02T15:58:16Z</time></trkpt><trkpt lat="43.138579820477474" lon="11.663487878458719"><ele>389.0</ele><time>2026-05-02T15:58:17Z</time></trkpt><trkpt lat="43.13858563211715" lon="11.663586289285481"><ele>387.5</ele><time>2026-05-02T15:58:18Z</time></trkpt><trkpt lat="43.13861277343157" lon="11.663754685737695"><ele>386.0</ele><time>2026-05-02T15:58:19Z</time></trkpt><trkpt lat="43.13866768896234" lon="11.663895857709807"><ele>384.5</ele><time>2026-05-02T15:58:20Z</time></trkpt><trkpt lat="43.13874023966522" lon="11.664031289387658"><ele>383.0</ele><time>2026-05-02T15:58:21Z</time></trkpt><trkpt lat="43.138848079778924" lon="11.664146012380595"><ele>383.0</ele><time>2026-05-02T15:58:22Z</time></trkpt><trkpt lat="43.13897401458727" lon="11.664241299389236"><ele>383.0</ele><time>2026-05-02T15:58:23Z</time></trkpt><trkpt lat="43.13910985362581" lon="11.664326093696376"><ele>383.0</ele><time>2026-05-02T15:58:24Z</time></trkpt><trkpt lat="43.13922197237809" lon="11.664449364501746"><ele>383.0</ele><time>2026-05-02T15:58:25Z</time></trkpt><trkpt lat="43.13932939396983" lon="11.664593543344907"><ele>384.0</ele><time>2026-05-02T15:58:26Z</time></trkpt><trkpt lat="43.13942661574204" lon="11.664750825873238"><ele>385.0</ele><time>2026-05-02T15:58:27Z</time></trkpt><trkpt lat="43.13951784348798" lon="11.664893335820576"><ele>386.0</ele><time>2026-05-02T15:58:28Z</time></trkpt><trkpt lat="43.13959597898465" lon="11.66501539281166"><ele>387.0</ele><time>2026-05-02T15:58:29Z</time></trkpt><trkpt lat="43.139708042499244" lon="11.665112018375138"><ele>387.0</ele><time>2026-05-02T15:58:30Z</time></trkpt><trkpt lat="43.13983520568492" lon="11.665209978006162"><ele>387.0</ele><time>2026-05-02T15:58:31Z</time></trkpt><trkpt lat="43.13998050487955" lon="11.665304556212853"><ele>387.0</ele><time>2026-05-02T15:58:32Z</time></trkpt><trkpt lat="43.14013357436328" lon="11.665403153982837"><ele>389.66666666666663</ele><time>2026-05-02T15:58:33Z</time></trkpt><trkpt lat="43.14028491500759" lon="11.665508573867964"><ele>392.3333333333333</ele><time>2026-05-02T15:58:34Z</time></trkpt><trkpt lat="43.14044942510374" lon="11.665608659118224"><ele>395.0</ele><time>2026-05-02T15:58:35Z</time></trkpt><trkpt lat="43.14058956711531" lon="11.665708313817376"><ele>399.75</ele><time>2026-05-02T15:58:36Z</time></trkpt><trkpt lat="43.14071726974705" lon="11.66580878289489"><ele>404.5</ele><time>2026-05-02T15:58:37Z</time></trkpt><trkpt lat="43.14082394610956" lon="11.665889511722733"><ele>409.25</ele><time>2026-05-02T15:58:38Z</time></trkpt><trkpt lat="43.14091214481317" lon="11.665945851821206"><ele>414.0</ele><time>2026-05-02T15:58:39Z</time></trkpt><trkpt lat="43.141016836221894" lon="11.665969794255243"><ele>414.0</ele><time>2026-05-02T15:58:40Z</time></trkpt><trkpt lat="43.14114501956864" lon="11.665958862534167"><ele>414.0</ele><time>2026-05-02T15:58:41Z</time></trkpt><trkpt lat="43.141283326471466" lon="11.665920549397631"><ele>414.0</ele><time>2026-05-02T15:58:42Z</time></trkpt><trkpt lat="43.14142340530248" lon="11.665855749655991"><ele>414.0</ele><time>2026-05-02T15:58:43Z</time></trkpt><trkpt lat="43.14155873106631" lon="11.665828234159205"><ele>415.6</ele><time>2026-05-02T15:58:44Z</time></trkpt><trkpt lat="43.1416824442396" lon="11.66580906212374"><ele>417.2</ele><time>2026-05-02T15:58:45Z</time></trkpt><trkpt lat="43.14178400335047" lon="11.665794193391548"><ele>418.8</ele><time>2026-05-02T15:58:46Z</time></trkpt><trkpt lat="43.14186773630557" lon="11.665818553493438"><ele>420.40000000000003</ele><time>2026-05-02T15:58:47Z</time></trkpt><trkpt lat="43.14193632064816" lon="11.665835923720241"><ele>422.0</ele><time>2026-05-02T15:58:48Z</time></trkpt><trkpt lat="43.142023795406864" lon="11.665892120412678"><ele>422.0</ele><time>2026-05-02T15:58:50Z</time></trkpt><trkpt lat="43.14210815715935" lon="11.665948835872895"><ele>422.0</ele><time>2026-05-02T15:58:52Z</time></trkpt><trkpt lat="43.142167098828416" lon="11.66600441981226"><ele>422.0</ele><time>2026-05-02T15:58:54.001Z</time></trkpt><trkpt lat="43.14224127746747" lon="11.666057329158992"><ele>422.0</ele><time>2026-05-02T15:58:56Z</time></trkpt><trkpt lat="43.14234730885274" lon="11.666192791311001"><ele>422.0</ele><time>2026-05-02T15:58:58Z</time></trkpt><trkpt lat="43.14241072007331" lon="11.666288381245899"><ele>420.40000000000003</ele><time>2026-05-02T15:58:59Z</time></trkpt><trkpt lat="43.142475215664824" lon="11.666372375876133"><ele>418.8</ele><time>2026-05-02T15:59:00Z</time></trkpt><trkpt lat="43.14253756213197" lon="11.66643362005298"><ele>417.2</ele><time>2026-05-02T15:59:01Z</time></trkpt><trkpt lat="43.14261206568916" lon="11.666473793006949"><ele>415.6</ele><time>2026-05-02T15:59:02Z</time></trkpt><trkpt lat="43.1427045457842" lon="11.666549906466251"><ele>414.0</ele><time>2026-05-02T15:59:03Z</time></trkpt><trkpt lat="43.14282419210655" lon="11.66660880581907"><ele>414.0</ele><time>2026-05-02T15:59:04Z</time></trkpt><trkpt lat="43.1429483595454" lon="11.666671084975041"><ele>414.0</ele><time>2026-05-02T15:59:05Z</time></trkpt><trkpt lat="43.14306842423256" lon="11.666744717772264"><ele>414.0</ele><time>2026-05-02T15:59:06Z</time></trkpt><trkpt lat="43.14317997266764" lon="11.666802686311703"><ele>414.0</ele><time>2026-05-02T15:59:07Z</time></trkpt><trkpt lat="43.143270601889846" lon="11.666899567182993"><ele>413.6</ele><time>2026-05-02T15:59:08Z</time></trkpt><trkpt lat="43.143366217526186" lon="11.666978628363559"><ele>413.2</ele><time>2026-05-02T15:59:09Z</time></trkpt><trkpt lat="43.143448976679196" lon="11.667049127677881"><ele>412.8</ele><time>2026-05-02T15:59:10Z</time></trkpt><trkpt lat="43.14352382410288" lon="11.66713526038775"><ele>412.40000000000003</ele><time>2026-05-02T15:59:11Z</time></trkpt><trkpt lat="43.143593102126516" lon="11.667246045448454"><ele>412.0</ele><time>2026-05-02T15:59:12Z</time></trkpt><trkpt lat="43.143665661824926" lon="11.667374218632817"><ele>412.0</ele><time>2026-05-02T15:59:13Z</time></trkpt><trkpt lat="43.14370499265616" lon="11.667540245264636"><ele>412.0</ele><time>2026-05-02T15:59:14Z</time></trkpt><trkpt lat="43.14375832789965" lon="11.667711396875287"><ele>412.0</ele><time>2026-05-02T15:59:15Z</time></trkpt><trkpt lat="43.143805619520606" lon="11.667894701594014"><ele>412.0</ele><time>2026-05-02T15:59:16Z</time></trkpt><trkpt lat="43.14385726309684" lon="11.668081453645023"><ele>411.75</ele><time>2026-05-02T15:59:17Z</time></trkpt><trkpt lat="43.14387877844874" lon="11.668272549006707"><ele>411.5</ele><time>2026-05-02T15:59:18Z</time></trkpt><trkpt lat="43.14387953003161" lon="11.668456932455737"><ele>411.25</ele><time>2026-05-02T15:59:19Z</time></trkpt><trkpt lat="43.14390187329314" lon="11.6686220281526"><ele>411.0</ele><time>2026-05-02T15:59:20Z</time></trkpt><trkpt lat="43.143873454861186" lon="11.668786350099479"><ele>413.25</ele><time>2026-05-02T15:59:21Z</time></trkpt><trkpt lat="43.1438326872631" lon="11.66893150421279"><ele>415.5</ele><time>2026-05-02T15:59:22Z</time></trkpt><trkpt lat="43.1437548124604" lon="11.669070682650766"><ele>417.75</ele><time>2026-05-02T15:59:23Z</time></trkpt><trkpt lat="43.14366971155915" lon="11.669234143945639"><ele>420.0</ele><time>2026-05-02T15:59:24Z</time></trkpt><trkpt lat="43.14356641955144" lon="11.669390603303972"><ele>420.5</ele><time>2026-05-02T15:59:25Z</time></trkpt><trkpt lat="43.14347145271255" lon="11.66954901970504"><ele>421.0</ele><time>2026-05-02T15:59:26Z</time></trkpt><trkpt lat="43.14336923885644" lon="11.66969457075672"><ele>421.5</ele><time>2026-05-02T15:59:27Z</time></trkpt><trkpt lat="43.14325823113649" lon="11.669815269525685"><ele>422.0</ele><time>2026-05-02T15:59:28Z</time></trkpt><trkpt lat="43.14312654609752" lon="11.669925805749239"><ele>422.0</ele><time>2026-05-02T15:59:29Z</time></trkpt><trkpt lat="43.142979418119936" lon="11.670026678357333"><ele>422.0</ele><time>2026-05-02T15:59:30Z</time></trkpt><trkpt lat="43.142834103694355" lon="11.670122105257846"><ele>422.0</ele><time>2026-05-02T15:59:31Z</time></trkpt><trkpt lat="43.14270371081604" lon="11.670209407203009"><ele>420.40000000000003</ele><time>2026-05-02T15:59:32Z</time></trkpt><trkpt lat="43.14258819802875" lon="11.670290017709416"><ele>418.8</ele><time>2026-05-02T15:59:33Z</time></trkpt><trkpt lat="43.14248722548799" lon="11.670368415833922"><ele>417.2</ele><time>2026-05-02T15:59:34Z</time></trkpt><trkpt lat="43.14240484199967" lon="11.67045359275038"><ele>415.6</ele><time>2026-05-02T15:59:35Z</time></trkpt><trkpt lat="43.142338565114045" lon="11.670555367045152"><ele>414.0</ele><time>2026-05-02T15:59:36Z</time></trkpt><trkpt lat="43.14228505287777" lon="11.67070422277675"><ele>414.0</ele><time>2026-05-02T15:59:37Z</time></trkpt><trkpt lat="43.142229716633615" lon="11.670906685032264"><ele>414.0</ele><time>2026-05-02T15:59:38Z</time></trkpt><trkpt lat="43.14217005530131" lon="11.671130650873863"><ele>414.0</ele><time>2026-05-02T15:59:39Z</time></trkpt><trkpt lat="43.142111693348575" lon="11.671371167314305"><ele>417.66666666666663</ele><time>2026-05-02T15:59:40Z</time></trkpt><trkpt lat="43.14206715164509" lon="11.671599186684903"><ele>421.3333333333333</ele><time>2026-05-02T15:59:41Z</time></trkpt><trkpt lat="43.14204344166447" lon="11.671825781735453"><ele>425.0</ele><time>2026-05-02T15:59:42Z</time></trkpt><trkpt lat="43.14204155878142" lon="11.67204478939919"><ele>426.3333333333333</ele><time>2026-05-02T15:59:43Z</time></trkpt><trkpt lat="43.14203694181225" lon="11.672258790750075"><ele>427.66666666666663</ele><time>2026-05-02T15:59:44Z</time></trkpt><trkpt lat="43.14199657595871" lon="11.672459727789715"><ele>429.0</ele><time>2026-05-02T15:59:45Z</time></trkpt><trkpt lat="43.141905389718026" lon="11.672648442094848"><ele>434.0</ele><time>2026-05-02T15:59:46Z</time></trkpt><trkpt lat="43.14182115492585" lon="11.672870368214218"><ele>439.0</ele><time>2026-05-02T15:59:47Z</time></trkpt><trkpt lat="43.14171057733776" lon="11.673080036078987"><ele>444.0</ele><time>2026-05-02T15:59:48Z</time></trkpt><trkpt lat="43.14159913509555" lon="11.673289958406455"><ele>440.33333333333337</ele><time>2026-05-02T15:59:49Z</time></trkpt><trkpt lat="43.1414747459993" lon="11.67348754635128"><ele>436.6666666666667</ele><time>2026-05-02T15:59:50Z</time></trkpt><trkpt lat="43.14134508860493" lon="11.673664280263303"><ele>433.0</ele><time>2026-05-02T15:59:51Z</time></trkpt><trkpt lat="43.141219466901426" lon="11.673815150124376"><ele>433.0</ele><time>2026-05-02T15:59:52Z</time></trkpt><trkpt lat="43.14111511481856" lon="11.67395775145978"><ele>433.0</ele><time>2026-05-02T15:59:53Z</time></trkpt><trkpt lat="43.14102140594804" lon="11.674103354660236"><ele>433.0</ele><time>2026-05-02T15:59:54Z</time></trkpt><trkpt lat="43.14093779165638" lon="11.674253605069323"><ele>433.0</ele><time>2026-05-02T15:59:55Z</time></trkpt><trkpt lat="43.14085911823411" lon="11.674416303614143"><ele>437.6666666666667</ele><time>2026-05-02T15:59:56Z</time></trkpt><trkpt lat="43.140784760795995" lon="11.674606351045929"><ele>442.33333333333337</ele><time>2026-05-02T15:59:57Z</time></trkpt><trkpt lat="43.14071842246434" lon="11.674819375066683"><ele>447.0</ele><time>2026-05-02T15:59:58Z</time></trkpt><trkpt lat="43.14065879741421" lon="11.675018824016234"><ele>439.25</ele><time>2026-05-02T15:59:59Z</time></trkpt><trkpt lat="43.14060212736025" lon="11.675200878521036"><ele>431.5</ele><time>2026-05-02T16:00:00Z</time></trkpt><trkpt lat="43.14055958053146" lon="11.675378156052618"><ele>423.75</ele><time>2026-05-02T16:00:01Z</time></trkpt><trkpt lat="43.14054174306166" lon="11.67557889034584"><ele>416.0</ele><time>2026-05-02T16:00:02Z</time></trkpt><trkpt lat="43.14055361950411" lon="11.675801265155215"><ele>416.0</ele><time>2026-05-02T16:00:03Z</time></trkpt><trkpt lat="43.140589045145596" lon="11.676034955887012"><ele>416.0</ele><time>2026-05-02T16:00:04Z</time></trkpt><trkpt lat="43.14061638202261" lon="11.676261863995684"><ele>416.0</ele><time>2026-05-02T16:00:05Z</time></trkpt><trkpt lat="43.14062200825286" lon="11.676473364390752"><ele>416.75</ele><time>2026-05-02T16:00:06Z</time></trkpt><trkpt lat="43.14063335357821" lon="11.676668854443278"><ele>417.5</ele><time>2026-05-02T16:00:07Z</time></trkpt><trkpt lat="43.140610869776474" lon="11.676863794268515"><ele>418.25</ele><time>2026-05-02T16:00:08Z</time></trkpt><trkpt lat="43.140568658173756" lon="11.677061764393551"><ele>419.0</ele><time>2026-05-02T16:00:09Z</time></trkpt><trkpt lat="43.1405392111052" lon="11.677252794157058"><ele>421.25</ele><time>2026-05-02T16:00:10Z</time></trkpt><trkpt lat="43.140507691920135" lon="11.677432313866527"><ele>423.5</ele><time>2026-05-02T16:00:11Z</time></trkpt><trkpt lat="43.140506113267946" lon="11.67762066758199"><ele>425.75</ele><time>2026-05-02T16:00:12Z</time></trkpt><trkpt lat="43.14054059369562" lon="11.677818725021872"><ele>428.0</ele><time>2026-05-02T16:00:13Z</time></trkpt><trkpt lat="43.140582695774725" lon="11.678020287393096"><ele>428.0</ele><time>2026-05-02T16:00:14Z</time></trkpt><trkpt lat="43.14059043858478" lon="11.67821614572508"><ele>428.0</ele><time>2026-05-02T16:00:15Z</time></trkpt><trkpt lat="43.14058695751184" lon="11.678393066308963"><ele>428.0</ele><time>2026-05-02T16:00:16Z</time></trkpt><trkpt lat="43.14053392451438" lon="11.678541942177345"><ele>428.0</ele><time>2026-05-02T16:00:17Z</time></trkpt><trkpt lat="43.14047169118708" lon="11.678706677694068"><ele>431.0</ele><time>2026-05-02T16:00:18Z</time></trkpt><trkpt lat="43.1404148830833" lon="11.678904519820959"><ele>434.0</ele><time>2026-05-02T16:00:19Z</time></trkpt><trkpt lat="43.140352615892105" lon="11.679106704237329"><ele>437.0</ele><time>2026-05-02T16:00:20Z</time></trkpt><trkpt lat="43.140296733676536" lon="11.679302162901987"><ele>438.5</ele><time>2026-05-02T16:00:21Z</time></trkpt><trkpt lat="43.14024697696332" lon="11.679474645637852"><ele>440.0</ele><time>2026-05-02T16:00:22Z</time></trkpt><trkpt lat="43.14021189109701" lon="11.679666734217017"><ele>441.5</ele><time>2026-05-02T16:00:23Z</time></trkpt><trkpt lat="43.140201507930705" lon="11.679887201930669"><ele>443.0</ele><time>2026-05-02T16:00:24Z</time></trkpt><trkpt lat="43.140205150181195" lon="11.680120582891224"><ele>444.0</ele><time>2026-05-02T16:00:25Z</time></trkpt><trkpt lat="43.14022092696694" lon="11.680347129481294"><ele>445.0</ele><time>2026-05-02T16:00:26Z</time></trkpt><trkpt lat="43.140225321525726" lon="11.680553874517908"><ele>446.0</ele><time>2026-05-02T16:00:27Z</time></trkpt><trkpt lat="43.14018512777474" lon="11.680747815363036"><ele>446.0</ele><time>2026-05-02T16:00:28Z</time></trkpt><trkpt lat="43.14014268354426" lon="11.680964932228656"><ele>446.0</ele><time>2026-05-02T16:00:29Z</time></trkpt><trkpt lat="43.14007833875165" lon="11.681179251333921"><ele>446.0</ele><time>2026-05-02T16:00:30Z</time></trkpt><trkpt lat="43.14003638266801" lon="11.681383693613087"><ele>446.5</ele><time>2026-05-02T16:00:31Z</time></trkpt><trkpt lat="43.140006652827196" lon="11.681568753627833"><ele>447.0</ele><time>2026-05-02T16:00:32Z</time></trkpt><trkpt lat="43.139988573200846" lon="11.68173832319855"><ele>447.5</ele><time>2026-05-02T16:00:33Z</time></trkpt><trkpt lat="43.13999784153499" lon="11.681921145895807"><ele>448.0</ele><time>2026-05-02T16:00:34Z</time></trkpt><trkpt lat="43.14004093753788" lon="11.682122764581063"><ele>448.0</ele><time>2026-05-02T16:00:35Z</time></trkpt><trkpt lat="43.140071564899955" lon="11.68233330425669"><ele>448.0</ele><time>2026-05-02T16:00:36Z</time></trkpt><trkpt lat="43.14010291375454" lon="11.682516653037613"><ele>448.0</ele><time>2026-05-02T16:00:37Z</time></trkpt><trkpt lat="43.14009093439795" lon="11.682692795515667"><ele>448.0</ele><time>2026-05-02T16:00:38Z</time></trkpt><trkpt lat="43.140050038733364" lon="11.682859957629363"><ele>449.0</ele><time>2026-05-02T16:00:39Z</time></trkpt><trkpt lat="43.1399741851685" lon="11.683004400935422"><ele>450.0</ele><time>2026-05-02T16:00:40Z</time></trkpt><trkpt lat="43.139877555670736" lon="11.683170542230958"><ele>451.0</ele><time>2026-05-02T16:00:41Z</time></trkpt><trkpt lat="43.13975558865828" lon="11.683306327613964"><ele>452.0</ele><time>2026-05-02T16:00:42Z</time></trkpt><trkpt lat="43.13964515006437" lon="11.683426403117153"><ele>449.25</ele><time>2026-05-02T16:00:43Z</time></trkpt><trkpt lat="43.139545539947704" lon="11.68353887997074"><ele>446.5</ele><time>2026-05-02T16:00:44Z</time></trkpt><trkpt lat="43.139461817678644" lon="11.683657940023224"><ele>443.75</ele><time>2026-05-02T16:00:45Z</time></trkpt><trkpt lat="43.13940280982594" lon="11.683810592282072"><ele>441.0</ele><time>2026-05-02T16:00:46Z</time></trkpt><trkpt lat="43.139371881739926" lon="11.683992287568396"><ele>441.0</ele><time>2026-05-02T16:00:47Z</time></trkpt><trkpt lat="43.13936174001945" lon="11.684189580811385"><ele>441.0</ele><time>2026-05-02T16:00:48Z</time></trkpt><trkpt lat="43.13935652445081" lon="11.684381238551554"><ele>441.0</ele><time>2026-05-02T16:00:49Z</time></trkpt><trkpt lat="43.13934379303518" lon="11.684550052944697"><ele>441.0</ele><time>2026-05-02T16:00:50Z</time></trkpt><trkpt lat="43.13933806993542" lon="11.684697968538664"><ele>438.8</ele><time>2026-05-02T16:00:51Z</time></trkpt><trkpt lat="43.13934697031847" lon="11.684818881229209"><ele>436.6</ele><time>2026-05-02T16:00:52Z</time></trkpt><trkpt lat="43.13938342663513" lon="11.684922785429972"><ele>434.4</ele><time>2026-05-02T16:00:53Z</time></trkpt><trkpt lat="43.13943380398068" lon="11.685030536695072"><ele>432.2</ele><time>2026-05-02T16:00:54Z</time></trkpt><trkpt lat="43.13953536271181" lon="11.68510075866445"><ele>430.0</ele><time>2026-05-02T16:00:55Z</time></trkpt><trkpt lat="43.13966865884776" lon="11.68514092086291"><ele>430.0</ele><time>2026-05-02T16:00:56Z</time></trkpt><trkpt lat="43.13980486511894" lon="11.685171554209305"><ele>430.0</ele><time>2026-05-02T16:00:57Z</time></trkpt><trkpt lat="43.139927437236906" lon="11.68516758447231"><ele>430.0</ele><time>2026-05-02T16:00:58Z</time></trkpt><trkpt lat="43.14004001885359" lon="11.685114989973897"><ele>430.0</ele><time>2026-05-02T16:00:59Z</time></trkpt><trkpt lat="43.1401653636424" lon="11.685021581778702"><ele>432.0</ele><time>2026-05-02T16:01:00Z</time></trkpt><trkpt lat="43.14029315028923" lon="11.684911123486325"><ele>434.0</ele><time>2026-05-02T16:01:01Z</time></trkpt><trkpt lat="43.14041476307311" lon="11.684881091652167"><ele>436.0</ele><time>2026-05-02T16:01:02Z</time></trkpt><trkpt lat="43.140545731156685" lon="11.68488837668066"><ele>438.0</ele><time>2026-05-02T16:01:03Z</time></trkpt><trkpt lat="43.14068197920612" lon="11.684890168033505"><ele>436.5</ele><time>2026-05-02T16:01:04Z</time></trkpt><trkpt lat="43.140804827649134" lon="11.684858894101621"><ele>435.0</ele><time>2026-05-02T16:01:05Z</time></trkpt><trkpt lat="43.140923933831594" lon="11.684805269041613"><ele>433.5</ele><time>2026-05-02T16:01:06Z</time></trkpt><trkpt lat="43.141056482598216" lon="11.68470334195811"><ele>432.0</ele><time>2026-05-02T16:01:07Z</time></trkpt><trkpt lat="43.14117114853239" lon="11.6846181883435"><ele>432.0</ele><time>2026-05-02T16:01:08Z</time></trkpt><trkpt lat="43.14128749148079" lon="11.684547274052367"><ele>432.0</ele><time>2026-05-02T16:01:09Z</time></trkpt><trkpt lat="43.14141975479604" lon="11.684598651924116"><ele>432.0</ele><time>2026-05-02T16:01:10Z</time></trkpt><trkpt lat="43.1415513464608" lon="11.684640118690115"><ele>432.0</ele><time>2026-05-02T16:01:11Z</time></trkpt><trkpt lat="43.14165825678184" lon="11.684667350956266"><ele>431.8</ele><time>2026-05-02T16:01:12Z</time></trkpt><trkpt lat="43.141742649031706" lon="11.684697768660245"><ele>431.6</ele><time>2026-05-02T16:01:13Z</time></trkpt><trkpt lat="43.14181021309023" lon="11.684741465757806"><ele>431.40000000000003</ele><time>2026-05-02T16:01:14Z</time></trkpt><trkpt lat="43.141861357463455" lon="11.684819213909027"><ele>431.20000000000005</ele><time>2026-05-02T16:01:15Z</time></trkpt><trkpt lat="43.14185900744109" lon="11.684963448820715"><ele>431.0</ele><time>2026-05-02T16:01:16Z</time></trkpt><trkpt lat="43.141910627196836" lon="11.685137179309683"><ele>432.25</ele><time>2026-05-02T16:01:17Z</time></trkpt><trkpt lat="43.14196342588975" lon="11.685308808965171"><ele>433.5</ele><time>2026-05-02T16:01:18Z</time></trkpt><trkpt lat="43.142045809534274" lon="11.68547797271219"><ele>434.75</ele><time>2026-05-02T16:01:19Z</time></trkpt><trkpt lat="43.142124678978234" lon="11.68564874888345"><ele>436.0</ele><time>2026-05-02T16:01:20Z</time></trkpt><trkpt lat="43.14220640948891" lon="11.685800779274576"><ele>436.0</ele><time>2026-05-02T16:01:21Z</time></trkpt><trkpt lat="43.142268175768635" lon="11.68593724911942"><ele>436.0</ele><time>2026-05-02T16:01:22Z</time></trkpt><trkpt lat="43.14232932750564" lon="11.686055991721394"><ele>436.0</ele><time>2026-05-02T16:01:23Z</time></trkpt><trkpt lat="43.142370501375595" lon="11.686190712297448"><ele>436.0</ele><time>2026-05-02T16:01:24Z</time></trkpt><trkpt lat="43.14242394004637" lon="11.686334026250185"><ele>436.0</ele><time>2026-05-02T16:01:25Z</time></trkpt><trkpt lat="43.142485746059464" lon="11.686494589034352"><ele>439.0</ele><time>2026-05-02T16:01:26Z</time></trkpt><trkpt lat="43.14250717601063" lon="11.686706710695386"><ele>442.0</ele><time>2026-05-02T16:01:27Z</time></trkpt><trkpt lat="43.14253935840113" lon="11.686886732400483"><ele>445.0</ele><time>2026-05-02T16:01:28Z</time></trkpt><trkpt lat="43.14256313861894" lon="11.687037111315732"><ele>448.0</ele><time>2026-05-02T16:01:29Z</time></trkpt><trkpt lat="43.14256664883584" lon="11.687170975760216"><ele>449.4</ele><time>2026-05-02T16:01:30Z</time></trkpt><trkpt lat="43.142544084191464" lon="11.6873063259146"><ele>450.79999999999995</ele><time>2026-05-02T16:01:31Z</time></trkpt><trkpt lat="43.14251423749372" lon="11.68744486714099"><ele>452.2</ele><time>2026-05-02T16:01:32Z</time></trkpt><trkpt lat="43.14242185681187" lon="11.687550260998751"><ele>453.6</ele><time>2026-05-02T16:01:33Z</time></trkpt><trkpt lat="43.14233176256158" lon="11.687663040963397"><ele>455.0</ele><time>2026-05-02T16:01:34Z</time></trkpt><trkpt lat="43.142242697115144" lon="11.687761264301171"><ele>459.5</ele><time>2026-05-02T16:01:35Z</time></trkpt><trkpt lat="43.14218644952276" lon="11.687877234678615"><ele>464.0</ele><time>2026-05-02T16:01:36Z</time></trkpt><trkpt lat="43.142157656442336" lon="11.68801883165667"><ele>468.5</ele><time>2026-05-02T16:01:37Z</time></trkpt><trkpt lat="43.14214045358239" lon="11.6881861807896"><ele>473.0</ele><time>2026-05-02T16:01:38Z</time></trkpt><trkpt lat="43.14211810349946" lon="11.688366728540414"><ele>472.99999999999994</ele><time>2026-05-02T16:01:39Z</time></trkpt><trkpt lat="43.142095023738634" lon="11.68852071441041"><ele>473.0</ele><time>2026-05-02T16:01:40Z</time></trkpt><trkpt lat="43.142086383048365" lon="11.68864319709724"><ele>473.0</ele><time>2026-05-02T16:01:41Z</time></trkpt><trkpt lat="43.14207733992828" lon="11.68874044778099"><ele>473.0</ele><time>2026-05-02T16:01:42Z</time></trkpt><trkpt lat="43.14207667667747" lon="11.688833580161358"><ele>472.99999999999994</ele><time>2026-05-02T16:01:43Z</time></trkpt><trkpt lat="43.14205856020233" lon="11.68895671070307"><ele>473.0</ele><time>2026-05-02T16:01:45Z</time></trkpt><trkpt lat="43.14217376170364" lon="11.689002143768024"><ele>471.0</ele><time>2026-05-02T16:01:46Z</time></trkpt><trkpt lat="43.142239646471296" lon="11.689028856819029"><ele>468.99999999999994</ele><time>2026-05-02T16:01:47Z</time></trkpt><trkpt lat="43.14231934141268" lon="11.68907824771687"><ele>466.99999999999994</ele><time>2026-05-02T16:01:48Z</time></trkpt><trkpt lat="43.142419749988605" lon="11.689118356774813"><ele>465.0</ele><time>2026-05-02T16:01:49Z</time></trkpt><trkpt lat="43.1425263953831" lon="11.689163447215332"><ele>463.0</ele><time>2026-05-02T16:01:50Z</time></trkpt><trkpt lat="43.14260740468574" lon="11.6892060671584"><ele>463.0</ele><time>2026-05-02T16:01:51Z</time></trkpt><trkpt lat="43.14268771598539" lon="11.68928022616087"><ele>463.0</ele><time>2026-05-02T16:01:52Z</time></trkpt><trkpt lat="43.14277727785534" lon="11.68940038885387"><ele>463.0</ele><time>2026-05-02T16:01:53Z</time></trkpt><trkpt lat="43.14287590838783" lon="11.689530557844257"><ele>463.0</ele><time>2026-05-02T16:01:54Z</time></trkpt><trkpt lat="43.14297372714441" lon="11.689653076415105"><ele>462.25</ele><time>2026-05-02T16:01:55Z</time></trkpt><trkpt lat="43.14307083559735" lon="11.689777739587884"><ele>461.5</ele><time>2026-05-02T16:01:56Z</time></trkpt><trkpt lat="43.143173203451035" lon="11.689909659178335"><ele>460.75</ele><time>2026-05-02T16:01:57Z</time></trkpt><trkpt lat="43.143282269673065" lon="11.690047555016708"><ele>460.0</ele><time>2026-05-02T16:01:58Z</time></trkpt><trkpt lat="43.14339297483961" lon="11.690183302259921"><ele>459.25</ele><time>2026-05-02T16:01:59Z</time></trkpt><trkpt lat="43.14350468164025" lon="11.690311350982826"><ele>458.5</ele><time>2026-05-02T16:02:00Z</time></trkpt><trkpt lat="43.14361779743886" lon="11.690438704522158"><ele>457.75</ele><time>2026-05-02T16:02:01Z</time></trkpt><trkpt lat="43.14373268915533" lon="11.690567318646583"><ele>457.0</ele><time>2026-05-02T16:02:02Z</time></trkpt><trkpt lat="43.143835760159945" lon="11.690682700227617"><ele>457.0</ele><time>2026-05-02T16:02:03Z</time></trkpt><trkpt lat="43.14394958794774" lon="11.690807500217385"><ele>457.0</ele><time>2026-05-02T16:02:04Z</time></trkpt><trkpt lat="43.14406367426525" lon="11.690937833740094"><ele>457.0</ele><time>2026-05-02T16:02:05Z</time></trkpt><trkpt lat="43.14417814506408" lon="11.691068009204928"><ele>457.0</ele><time>2026-05-02T16:02:06Z</time></trkpt><trkpt lat="43.14429734941884" lon="11.691202821258809"><ele>457.25</ele><time>2026-05-02T16:02:07Z</time></trkpt><trkpt lat="43.14441592681785" lon="11.691335719477644"><ele>457.5</ele><time>2026-05-02T16:02:08Z</time></trkpt><trkpt lat="43.14452762280896" lon="11.691459644802077"><ele>457.75</ele><time>2026-05-02T16:02:09Z</time></trkpt><trkpt lat="43.14462808933466" lon="11.691575511007287"><ele>458.0</ele><time>2026-05-02T16:02:10Z</time></trkpt><trkpt lat="43.14472818935278" lon="11.691694180675556"><ele>458.0</ele><time>2026-05-02T16:02:11Z</time></trkpt><trkpt lat="43.14483704409155" lon="11.691829188300206"><ele>458.0</ele><time>2026-05-02T16:02:12Z</time></trkpt><trkpt lat="43.14493326614285" lon="11.691960558063977"><ele>458.0</ele><time>2026-05-02T16:02:13Z</time></trkpt><trkpt lat="43.14502190891886" lon="11.692095699637612"><ele>458.0</ele><time>2026-05-02T16:02:14Z</time></trkpt><trkpt lat="43.145107152739904" lon="11.692240430299398"><ele>459.0</ele><time>2026-05-02T16:02:15Z</time></trkpt><trkpt lat="43.14519040027801" lon="11.692396997433073"><ele>460.0</ele><time>2026-05-02T16:02:16Z</time></trkpt><trkpt lat="43.145276561522515" lon="11.692562320420818"><ele>461.0</ele><time>2026-05-02T16:02:17Z</time></trkpt><trkpt lat="43.14536593898369" lon="11.692733814716947"><ele>462.0</ele><time>2026-05-02T16:02:18Z</time></trkpt><trkpt lat="43.145456844728635" lon="11.69291299700216"><ele>463.66666666666663</ele><time>2026-05-02T16:02:19Z</time></trkpt><trkpt lat="43.14555037247833" lon="11.693097493094452"><ele>465.3333333333333</ele><time>2026-05-02T16:02:20Z</time></trkpt><trkpt lat="43.14564473448305" lon="11.693286375064547"><ele>467.0</ele><time>2026-05-02T16:02:21Z</time></trkpt><trkpt lat="43.14574274501321" lon="11.693489974881464"><ele>469.0</ele><time>2026-05-02T16:02:22Z</time></trkpt><trkpt lat="43.14583245639692" lon="11.693706554396522"><ele>471.0</ele><time>2026-05-02T16:02:23Z</time></trkpt><trkpt lat="43.14591529596551" lon="11.693931362716603"><ele>473.0</ele><time>2026-05-02T16:02:24Z</time></trkpt><trkpt lat="43.145986582725385" lon="11.694150307415098"><ele>473.0</ele><time>2026-05-02T16:02:25Z</time></trkpt><trkpt lat="43.14604439508509" lon="11.694341197717888"><ele>473.0</ele><time>2026-05-02T16:02:26Z</time></trkpt><trkpt lat="43.146092550789184" lon="11.694508809508877"><ele>473.0</ele><time>2026-05-02T16:02:27Z</time></trkpt><trkpt lat="43.14614420964446" lon="11.694654248147001"><ele>473.0</ele><time>2026-05-02T16:02:28Z</time></trkpt><trkpt lat="43.14617231751466" lon="11.694785928092385"><ele>474.0</ele><time>2026-05-02T16:02:29Z</time></trkpt><trkpt lat="43.14619601900208" lon="11.694895439689905"><ele>474.99999999999994</ele><time>2026-05-02T16:02:30Z</time></trkpt><trkpt lat="43.146221327668215" lon="11.694997110029751"><ele>475.99999999999994</ele><time>2026-05-02T16:02:31Z</time></trkpt><trkpt lat="43.146251520633065" lon="11.695147373381186"><ele>477.0</ele><time>2026-05-02T16:02:32Z</time></trkpt><trkpt lat="43.14628583303389" lon="11.695296127073426"><ele>478.0</ele><time>2026-05-02T16:02:33Z</time></trkpt><trkpt lat="43.14630610206825" lon="11.695414240030056"><ele>479.2</ele><time>2026-05-02T16:02:34Z</time></trkpt><trkpt lat="43.14632783307175" lon="11.695525935755377"><ele>480.4</ele><time>2026-05-02T16:02:35Z</time></trkpt><trkpt lat="43.14635118628852" lon="11.695649841060588"><ele>481.59999999999997</ele><time>2026-05-02T16:02:36Z</time></trkpt><trkpt lat="43.146376327508065" lon="11.695790246289627"><ele>482.79999999999995</ele><time>2026-05-02T16:02:37Z</time></trkpt><trkpt lat="43.14641469530556" lon="11.695940681194466"><ele>484.0</ele><time>2026-05-02T16:02:38Z</time></trkpt><trkpt lat="43.14644986899456" lon="11.69609613445156"><ele>485.25</ele><time>2026-05-02T16:02:39Z</time></trkpt><trkpt lat="43.14648758850018" lon="11.69624905254516"><ele>486.5</ele><time>2026-05-02T16:02:40Z</time></trkpt><trkpt lat="43.14653046615407" lon="11.696394687011425"><ele>487.75</ele><time>2026-05-02T16:02:41Z</time></trkpt><trkpt lat="43.146578566549316" lon="11.696544410810757"><ele>489.0</ele><time>2026-05-02T16:02:42Z</time></trkpt><trkpt lat="43.14663042121623" lon="11.696700126292118"><ele>489.0</ele><time>2026-05-02T16:02:43Z</time></trkpt><trkpt lat="43.14668766464529" lon="11.69685871542834"><ele>489.0</ele><time>2026-05-02T16:02:44Z</time></trkpt><trkpt lat="43.14676250864411" lon="11.697011197059107"><ele>489.0</ele><time>2026-05-02T16:02:45Z</time></trkpt><trkpt lat="43.14685957342327" lon="11.697165286621724"><ele>489.0</ele><time>2026-05-02T16:02:46Z</time></trkpt><trkpt lat="43.146966907947416" lon="11.697306235957656"><ele>490.5</ele><time>2026-05-02T16:02:47Z</time></trkpt><trkpt lat="43.147058925883655" lon="11.697450621620506"><ele>492.0</ele><time>2026-05-02T16:02:48Z</time></trkpt><trkpt lat="43.147169963135674" lon="11.697570672468029"><ele>493.5</ele><time>2026-05-02T16:02:49Z</time></trkpt><trkpt lat="43.14730674504601" lon="11.697660488734998"><ele>495.0</ele><time>2026-05-02T16:02:50Z</time></trkpt><trkpt lat="43.14744559270091" lon="11.697757042892935"><ele>498.66666666666663</ele><time>2026-05-02T16:02:51Z</time></trkpt><trkpt lat="43.147586503217504" lon="11.697839291497113"><ele>502.3333333333333</ele><time>2026-05-02T16:02:52Z</time></trkpt><trkpt lat="43.14771615686249" lon="11.697945140115865"><ele>506.0</ele><time>2026-05-02T16:02:53Z</time></trkpt><trkpt lat="43.14784743550111" lon="11.69803275887736"><ele>506.0</ele><time>2026-05-02T16:02:54Z</time></trkpt><trkpt lat="43.14797783448964" lon="11.698133259332167"><ele>506.0</ele><time>2026-05-02T16:02:55Z</time></trkpt><trkpt lat="43.14810809149153" lon="11.698255487359832"><ele>506.0</ele><time>2026-05-02T16:02:56Z</time></trkpt><trkpt lat="43.148235784188124" lon="11.698388848160935"><ele>506.3333333333333</ele><time>2026-05-02T16:02:57Z</time></trkpt><trkpt lat="43.148364146114055" lon="11.69852259874364"><ele>506.66666666666663</ele><time>2026-05-02T16:02:58Z</time></trkpt><trkpt lat="43.148503224906605" lon="11.698638251286292"><ele>507.0</ele><time>2026-05-02T16:02:59Z</time></trkpt><trkpt lat="43.14863234226801" lon="11.69876938201045"><ele>509.0</ele><time>2026-05-02T16:03:00Z</time></trkpt><trkpt lat="43.14876205385136" lon="11.698890622516382"><ele>511.0</ele><time>2026-05-02T16:03:01Z</time></trkpt><trkpt lat="43.14888296560169" lon="11.698995386197385"><ele>513.0</ele><time>2026-05-02T16:03:02Z</time></trkpt><trkpt lat="43.148990849733096" lon="11.699076499130552"><ele>515.0</ele><time>2026-05-02T16:03:03Z</time></trkpt><trkpt lat="43.149103387703406" lon="11.699127602179447"><ele>515.0</ele><time>2026-05-02T16:03:04Z</time></trkpt><trkpt lat="43.14921651906337" lon="11.699132393602692"><ele>515.0</ele><time>2026-05-02T16:03:05Z</time></trkpt><trkpt lat="43.14935059420415" lon="11.699087396948418"><ele>515.0</ele><time>2026-05-02T16:03:06Z</time></trkpt><trkpt lat="43.14949415403846" lon="11.69900496975047"><ele>515.0</ele><time>2026-05-02T16:03:07Z</time></trkpt><trkpt lat="43.149634616030404" lon="11.698886412596707"><ele>515.0</ele><time>2026-05-02T16:03:08Z</time></trkpt><trkpt lat="43.14977212820975" lon="11.698769335431153"><ele>515.0</ele><time>2026-05-02T16:03:09Z</time></trkpt><trkpt lat="43.14992601693262" lon="11.698696552922105"><ele>515.0</ele><time>2026-05-02T16:03:10Z</time></trkpt><trkpt lat="43.15008299959578" lon="11.698621904338534"><ele>518.0</ele><time>2026-05-02T16:03:11Z</time></trkpt><trkpt lat="43.15024407633056" lon="11.698552772173247"><ele>521.0</ele><time>2026-05-02T16:03:12Z</time></trkpt><trkpt lat="43.150402999085955" lon="11.698488827874234"><ele>524.0</ele><time>2026-05-02T16:03:13Z</time></trkpt><trkpt lat="43.150556764066465" lon="11.698408453549188"><ele>525.6666666666666</ele><time>2026-05-02T16:03:14Z</time></trkpt><trkpt lat="43.15071658047114" lon="11.69835037235543"><ele>527.3333333333334</ele><time>2026-05-02T16:03:15Z</time></trkpt><trkpt lat="43.1508585545974" lon="11.698301104812773"><ele>529.0</ele><time>2026-05-02T16:03:16Z</time></trkpt><trkpt lat="43.15100914386939" lon="11.698253687081612"><ele>529.0</ele><time>2026-05-02T16:03:17Z</time></trkpt><trkpt lat="43.15116378881428" lon="11.698198560362645"><ele>529.0</ele><time>2026-05-02T16:03:18Z</time></trkpt><trkpt lat="43.151314866908024" lon="11.698145527424657"><ele>529.0</ele><time>2026-05-02T16:03:19Z</time></trkpt><trkpt lat="43.15145406511443" lon="11.698093505926437"><ele>529.3333333333334</ele><time>2026-05-02T16:03:20Z</time></trkpt><trkpt lat="43.15159329455087" lon="11.698028365419768"><ele>529.6666666666666</ele><time>2026-05-02T16:03:21Z</time></trkpt><trkpt lat="43.15173342205664" lon="11.697920093391485"><ele>530.0</ele><time>2026-05-02T16:03:22Z</time></trkpt><trkpt lat="43.15187047824949" lon="11.69778172530048"><ele>532.6666666666666</ele><time>2026-05-02T16:03:23Z</time></trkpt><trkpt lat="43.15200394431977" lon="11.697642033664344"><ele>535.3333333333334</ele><time>2026-05-02T16:03:24Z</time></trkpt><trkpt lat="43.15212916421145" lon="11.69750850686348"><ele>538.0</ele><time>2026-05-02T16:03:25Z</time></trkpt><trkpt lat="43.15224459940588" lon="11.697385004613551"><ele>538.0</ele><time>2026-05-02T16:03:26Z</time></trkpt><trkpt lat="43.15234594178081" lon="11.69724920014983"><ele>538.0</ele><time>2026-05-02T16:03:27Z</time></trkpt><trkpt lat="43.15243941191463" lon="11.697073771054988"><ele>538.0</ele><time>2026-05-02T16:03:28Z</time></trkpt><trkpt lat="43.152522220065244" lon="11.696897051021827"><ele>538.25</ele><time>2026-05-02T16:03:29Z</time></trkpt><trkpt lat="43.152592513972195" lon="11.696744378022684"><ele>538.5</ele><time>2026-05-02T16:03:30Z</time></trkpt><trkpt lat="43.15266740930367" lon="11.696613734377818"><ele>538.75</ele><time>2026-05-02T16:03:31Z</time></trkpt><trkpt lat="43.15275355069257" lon="11.696502797411537"><ele>539.0</ele><time>2026-05-02T16:03:32Z</time></trkpt><trkpt lat="43.152844340122776" lon="11.696426962054527"><ele>539.0</ele><time>2026-05-02T16:03:33Z</time></trkpt><trkpt lat="43.152935711014266" lon="11.696391683112623"><ele>539.0</ele><time>2026-05-02T16:03:34Z</time></trkpt><trkpt lat="43.153021646411666" lon="11.696404097633994"><ele>539.0</ele><time>2026-05-02T16:03:35Z</time></trkpt><trkpt lat="43.153088544882074" lon="11.696460700094375"><ele>539.0</ele><time>2026-05-02T16:03:36Z</time></trkpt><trkpt lat="43.15313737297872" lon="11.696551524826774"><ele>539.0</ele><time>2026-05-02T16:03:37Z</time></trkpt><trkpt lat="43.15316566457605" lon="11.696676299744276"><ele>539.0</ele><time>2026-05-02T16:03:38Z</time></trkpt><trkpt lat="43.1531665203371" lon="11.696822134555982"><ele>538.0</ele><time>2026-05-02T16:03:39Z</time></trkpt><trkpt lat="43.15312005743883" lon="11.696981711364971"><ele>537.0</ele><time>2026-05-02T16:03:40Z</time></trkpt><trkpt lat="43.15306608990776" lon="11.69715058535134"><ele>536.0</ele><time>2026-05-02T16:03:41Z</time></trkpt><trkpt lat="43.15300469744696" lon="11.69731864778115"><ele>535.0</ele><time>2026-05-02T16:03:42Z</time></trkpt><trkpt lat="43.15294720916864" lon="11.69748893474861"><ele>535.0</ele><time>2026-05-02T16:03:43Z</time></trkpt><trkpt lat="43.15290693971985" lon="11.697671938125433"><ele>535.0</ele><time>2026-05-02T16:03:44Z</time></trkpt><trkpt lat="43.152887284934216" lon="11.697867978058724"><ele>535.0</ele><time>2026-05-02T16:03:45Z</time></trkpt><trkpt lat="43.15287693893645" lon="11.69806081707298"><ele>535.0</ele><time>2026-05-02T16:03:46Z</time></trkpt><trkpt lat="43.152874712461504" lon="11.698241142528472"><ele>535.25</ele><time>2026-05-02T16:03:47Z</time></trkpt><trkpt lat="43.152885925876895" lon="11.69841130755661"><ele>535.5</ele><time>2026-05-02T16:03:48Z</time></trkpt><trkpt lat="43.152912379863935" lon="11.698584465497916"><ele>535.75</ele><time>2026-05-02T16:03:49Z</time></trkpt><trkpt lat="43.15295866676869" lon="11.698748701536152"><ele>536.0</ele><time>2026-05-02T16:03:50Z</time></trkpt><trkpt lat="43.15299734886407" lon="11.69891483996201"><ele>537.6</ele><time>2026-05-02T16:03:51Z</time></trkpt><trkpt lat="43.153052843408226" lon="11.699066769858685"><ele>539.2</ele><time>2026-05-02T16:03:52Z</time></trkpt><trkpt lat="43.15312371793223" lon="11.69920584509458"><ele>540.8</ele><time>2026-05-02T16:03:53Z</time></trkpt><trkpt lat="43.153177166710954" lon="11.699323608336005"><ele>542.4</ele><time>2026-05-02T16:03:54Z</time></trkpt><trkpt lat="43.15323521162972" lon="11.699415404920193"><ele>544.0</ele><time>2026-05-02T16:03:56Z</time></trkpt><trkpt lat="43.15330783061992" lon="11.699453246566463"><ele>545.5</ele><time>2026-05-02T16:03:58Z</time></trkpt><trkpt lat="43.153404694151455" lon="11.699491904164432"><ele>547.0</ele><time>2026-05-02T16:03:59Z</time></trkpt><trkpt lat="43.153536773207506" lon="11.699532082932773"><ele>548.5</ele><time>2026-05-02T16:04:00Z</time></trkpt><trkpt lat="43.153698612671874" lon="11.699560021612246"><ele>550.0</ele><time>2026-05-02T16:04:01Z</time></trkpt><trkpt lat="43.153876891170256" lon="11.699585547051145"><ele>547.6666666666667</ele><time>2026-05-02T16:04:02Z</time></trkpt><trkpt lat="43.15406178293652" lon="11.699619860869461"><ele>545.3333333333334</ele><time>2026-05-02T16:04:03Z</time></trkpt><trkpt lat="43.154256345542414" lon="11.699661858972496"><ele>543.0</ele><time>2026-05-02T16:04:04Z</time></trkpt><trkpt lat="43.1544545690217" lon="11.699704020777615"><ele>543.0</ele><time>2026-05-02T16:04:05Z</time></trkpt><trkpt lat="43.15465210069058" lon="11.699740088763816"><ele>543.0</ele><time>2026-05-02T16:04:06Z</time></trkpt><trkpt lat="43.154822587691335" lon="11.699776664654411"><ele>543.0</ele><time>2026-05-02T16:04:07Z</time></trkpt><trkpt lat="43.15498567978353" lon="11.699813219652658"><ele>542.0</ele><time>2026-05-02T16:04:08Z</time></trkpt><trkpt lat="43.15513669128568" lon="11.699843364641229"><ele>541.0</ele><time>2026-05-02T16:04:09Z</time></trkpt><trkpt lat="43.15527806147051" lon="11.699875781612683"><ele>540.0</ele><time>2026-05-02T16:04:10Z</time></trkpt><trkpt lat="43.15542628139087" lon="11.699905734058905"><ele>539.0</ele><time>2026-05-02T16:04:11Z</time></trkpt><trkpt lat="43.15556704559652" lon="11.6999222471914"><ele>539.3333333333333</ele><time>2026-05-02T16:04:12Z</time></trkpt><trkpt lat="43.15571846537967" lon="11.699933163234718"><ele>539.6666666666666</ele><time>2026-05-02T16:04:13Z</time></trkpt><trkpt lat="43.15586931682865" lon="11.699938231722674"><ele>540.0</ele><time>2026-05-02T16:04:14Z</time></trkpt><trkpt lat="43.15602818137518" lon="11.699916927322697"><ele>540.0</ele><time>2026-05-02T16:04:15Z</time></trkpt><trkpt lat="43.156202836199" lon="11.699864396715023"><ele>540.0</ele><time>2026-05-02T16:04:16Z</time></trkpt><trkpt lat="43.15638018716444" lon="11.69982714809861"><ele>540.0</ele><time>2026-05-02T16:04:17Z</time></trkpt><trkpt lat="43.15655953117037" lon="11.699793475868729"><ele>538.6666666666666</ele><time>2026-05-02T16:04:18Z</time></trkpt><trkpt lat="43.15673882269378" lon="11.699758637925093"><ele>537.3333333333333</ele><time>2026-05-02T16:04:19Z</time></trkpt><trkpt lat="43.156915717337434" lon="11.699726092914446"><ele>536.0</ele><time>2026-05-02T16:04:20Z</time></trkpt><trkpt lat="43.15708322908402" lon="11.699704455529913"><ele>536.0</ele><time>2026-05-02T16:04:21Z</time></trkpt><trkpt lat="43.15725017431394" lon="11.69971541760158"><ele>536.0</ele><time>2026-05-02T16:04:22Z</time></trkpt><trkpt lat="43.1574251075772" lon="11.699730450827547"><ele>536.0</ele><time>2026-05-02T16:04:23Z</time></trkpt><trkpt lat="43.15761064211148" lon="11.699756983399329"><ele>533.3333333333333</ele><time>2026-05-02T16:04:24Z</time></trkpt><trkpt lat="43.15781069499123" lon="11.699776243147491"><ele>530.6666666666666</ele><time>2026-05-02T16:04:25Z</time></trkpt><trkpt lat="43.158005299800216" lon="11.699817211499559"><ele>528.0</ele><time>2026-05-02T16:04:26Z</time></trkpt><trkpt lat="43.158195657268614" lon="11.699850662676214"><ele>527.3333333333334</ele><time>2026-05-02T16:04:27Z</time></trkpt><trkpt lat="43.15837759012286" lon="11.699887779759003"><ele>526.6666666666667</ele><time>2026-05-02T16:04:28Z</time></trkpt><trkpt lat="43.15854719527856" lon="11.699932386685749"><ele>526.0</ele><time>2026-05-02T16:04:29Z</time></trkpt><trkpt lat="43.15870906405197" lon="11.69999145882438"><ele>526.0</ele><time>2026-05-02T16:04:30Z</time></trkpt><trkpt lat="43.15886126747273" lon="11.700081966461784"><ele>526.0</ele><time>2026-05-02T16:04:31Z</time></trkpt><trkpt lat="43.15900926542274" lon="11.700178618507895"><ele>526.0</ele><time>2026-05-02T16:04:32Z</time></trkpt><trkpt lat="43.1591701932716" lon="11.700290002498843"><ele>521.0</ele><time>2026-05-02T16:04:33Z</time></trkpt><trkpt lat="43.15931781901897" lon="11.700474505818152"><ele>516.0</ele><time>2026-05-02T16:04:34Z</time></trkpt><trkpt lat="43.159481408116356" lon="11.700662234798456"><ele>511.0</ele><time>2026-05-02T16:04:35Z</time></trkpt><trkpt lat="43.159662515016684" lon="11.700845278443172"><ele>511.0</ele><time>2026-05-02T16:04:36Z</time></trkpt><trkpt lat="43.15983936069541" lon="11.701048487697555"><ele>511.0</ele><time>2026-05-02T16:04:37Z</time></trkpt><trkpt lat="43.16002132847594" lon="11.70125452727834"><ele>508.0</ele><time>2026-05-02T16:04:38Z</time></trkpt><trkpt lat="43.160202325447" lon="11.701460188398487"><ele>505.0</ele><time>2026-05-02T16:04:39Z</time></trkpt><trkpt lat="43.16038280103797" lon="11.701664221734458"><ele>505.0</ele><time>2026-05-02T16:04:40Z</time></trkpt><trkpt lat="43.160562819825515" lon="11.701866953789315"><ele>505.0</ele><time>2026-05-02T16:04:41Z</time></trkpt><trkpt lat="43.160739950009265" lon="11.702068572770784"><ele>503.6666666666667</ele><time>2026-05-02T16:04:42Z</time></trkpt><trkpt lat="43.160910708395825" lon="11.702261883094387"><ele>502.33333333333337</ele><time>2026-05-02T16:04:43Z</time></trkpt><trkpt lat="43.16107033755836" lon="11.70247412077552"><ele>501.0</ele><time>2026-05-02T16:04:44Z</time></trkpt><trkpt lat="43.16124756289638" lon="11.702648124061156"><ele>501.0</ele><time>2026-05-02T16:04:45Z</time></trkpt><trkpt lat="43.16141362598316" lon="11.702838110502576"><ele>501.0</ele><time>2026-05-02T16:04:46Z</time></trkpt><trkpt lat="43.161572856943096" lon="11.703018686348955"><ele>501.0</ele><time>2026-05-02T16:04:47Z</time></trkpt><trkpt lat="43.16171440825517" lon="11.703208012636795"><ele>501.0</ele><time>2026-05-02T16:04:48Z</time></trkpt><trkpt lat="43.16186285241818" lon="11.703376481919676"><ele>501.0</ele><time>2026-05-02T16:04:49Z</time></trkpt><trkpt lat="43.161999384610105" lon="11.703537619728277"><ele>501.0</ele><time>2026-05-02T16:04:50Z</time></trkpt><trkpt lat="43.16213437172216" lon="11.703690142843353"><ele>503.66666666666663</ele><time>2026-05-02T16:04:51Z</time></trkpt><trkpt lat="43.16222877871044" lon="11.703886115770038"><ele>506.3333333333333</ele><time>2026-05-02T16:04:52Z</time></trkpt><trkpt lat="43.16234059846953" lon="11.704069804398262"><ele>509.0</ele><time>2026-05-02T16:04:53Z</time></trkpt><trkpt lat="43.162428624839386" lon="11.7042704816599"><ele>503.66666666666663</ele><time>2026-05-02T16:04:54Z</time></trkpt><trkpt lat="43.16250993351424" lon="11.704462449830016"><ele>498.33333333333337</ele><time>2026-05-02T16:04:55Z</time></trkpt><trkpt lat="43.16259156052203" lon="11.704638169353654"><ele>493.0</ele><time>2026-05-02T16:04:56Z</time></trkpt><trkpt lat="43.16268177684167" lon="11.704801290771089"><ele>493.0</ele><time>2026-05-02T16:04:57Z</time></trkpt><trkpt lat="43.162792642843165" lon="11.704929646800373"><ele>493.0</ele><time>2026-05-02T16:04:58Z</time></trkpt><trkpt lat="43.16291139622363" lon="11.705035623996277"><ele>493.0</ele><time>2026-05-02T16:04:59Z</time></trkpt><trkpt lat="43.16304662529131" lon="11.705099125161485"><ele>493.0</ele><time>2026-05-02T16:05:00Z</time></trkpt><trkpt lat="43.16320297389985" lon="11.705156649884259"><ele>490.0</ele><time>2026-05-02T16:05:01Z</time></trkpt><trkpt lat="43.16337630786912" lon="11.705201265518973"><ele>487.0</ele><time>2026-05-02T16:05:02Z</time></trkpt><trkpt lat="43.163553243660886" lon="11.705249282516007"><ele>484.0</ele><time>2026-05-02T16:05:03Z</time></trkpt><trkpt lat="43.16372940596549" lon="11.70530305663028"><ele>483.6666666666667</ele><time>2026-05-02T16:05:04Z</time></trkpt><trkpt lat="43.16390275269315" lon="11.705371896499031"><ele>483.33333333333337</ele><time>2026-05-02T16:05:05Z</time></trkpt><trkpt lat="43.164063594313326" lon="11.705480496856115"><ele>483.0</ele><time>2026-05-02T16:05:06Z</time></trkpt><trkpt lat="43.16422480592831" lon="11.705598307732942"><ele>483.0</ele><time>2026-05-02T16:05:07Z</time></trkpt><trkpt lat="43.16436882796767" lon="11.705723337803626"><ele>483.0</ele><time>2026-05-02T16:05:08Z</time></trkpt><trkpt lat="43.16449901822218" lon="11.70585872243279"><ele>483.0</ele><time>2026-05-02T16:05:09Z</time></trkpt><trkpt lat="43.16462866112077" lon="11.705980149356778"><ele>483.0</ele><time>2026-05-02T16:05:10Z</time></trkpt><trkpt lat="43.16473451329464" lon="11.7061153278319"><ele>483.0</ele><time>2026-05-02T16:05:11Z</time></trkpt><trkpt lat="43.164832123799584" lon="11.706248995278445"><ele>483.0</ele><time>2026-05-02T16:05:12Z</time></trkpt><trkpt lat="43.16492932321286" lon="11.70637548873192"><ele>483.0</ele><time>2026-05-02T16:05:13Z</time></trkpt><trkpt lat="43.16502595581601" lon="11.706484017705652"><ele>483.0</ele><time>2026-05-02T16:05:14Z</time></trkpt><trkpt lat="43.16512636051907" lon="11.706582534625541"><ele>483.0</ele><time>2026-05-02T16:05:15Z</time></trkpt><trkpt lat="43.165232439013614" lon="11.706651901815341"><ele>483.0</ele><time>2026-05-02T16:05:16Z</time></trkpt><trkpt lat="43.165345441019305" lon="11.7066867701658"><ele>483.0</ele><time>2026-05-02T16:05:17Z</time></trkpt><trkpt lat="43.16547108275728" lon="11.706685694493052"><ele>483.0</ele><time>2026-05-02T16:05:18Z</time></trkpt><trkpt lat="43.16560895498557" lon="11.706682599488202"><ele>483.0</ele><time>2026-05-02T16:05:19Z</time></trkpt><trkpt lat="43.16575643535789" lon="11.70669906268436"><ele>483.0</ele><time>2026-05-02T16:05:20Z</time></trkpt><trkpt lat="43.16589892001209" lon="11.706765984279793"><ele>483.0</ele><time>2026-05-02T16:05:21Z</time></trkpt><trkpt lat="43.16603471567753" lon="11.706840955837768"><ele>480.25</ele><time>2026-05-02T16:05:22Z</time></trkpt><trkpt lat="43.166160989481725" lon="11.7069333329017"><ele>477.5</ele><time>2026-05-02T16:05:23Z</time></trkpt><trkpt lat="43.166289066092006" lon="11.707022118312855"><ele>474.75</ele><time>2026-05-02T16:05:24Z</time></trkpt><trkpt lat="43.16639437628775" lon="11.707149093042135"><ele>472.0</ele><time>2026-05-02T16:05:25Z</time></trkpt><trkpt lat="43.16644866913516" lon="11.707324344241409"><ele>472.0</ele><time>2026-05-02T16:05:26Z</time></trkpt><trkpt lat="43.166496745844405" lon="11.70750631335474"><ele>472.0</ele><time>2026-05-02T16:05:27Z</time></trkpt><trkpt lat="43.1665496856865" lon="11.707690185230406"><ele>472.0</ele><time>2026-05-02T16:05:28Z</time></trkpt><trkpt lat="43.16658928164547" lon="11.70784398525967"><ele>472.0</ele><time>2026-05-02T16:05:29Z</time></trkpt><trkpt lat="43.166654064510645" lon="11.70796763929214"><ele>468.25</ele><time>2026-05-02T16:05:30Z</time></trkpt><trkpt lat="43.16674950897317" lon="11.708059923339519"><ele>464.5</ele><time>2026-05-02T16:05:31Z</time></trkpt><trkpt lat="43.166876884499146" lon="11.708110795927086"><ele>460.75</ele><time>2026-05-02T16:05:32Z</time></trkpt><trkpt lat="43.16704046412385" lon="11.708120497294106"><ele>457.0</ele><time>2026-05-02T16:05:33Z</time></trkpt><trkpt lat="43.16722950262863" lon="11.708105937666234"><ele>453.6666666666667</ele><time>2026-05-02T16:05:34Z</time></trkpt><trkpt lat="43.167436763134155" lon="11.708080813037038"><ele>450.33333333333337</ele><time>2026-05-02T16:05:35Z</time></trkpt><trkpt lat="43.167647831435865" lon="11.708055224327618"><ele>447.0</ele><time>2026-05-02T16:05:36Z</time></trkpt><trkpt lat="43.16785805372589" lon="11.708022693598112"><ele>447.0</ele><time>2026-05-02T16:05:37Z</time></trkpt><trkpt lat="43.168059625555834" lon="11.708015529941326"><ele>447.0</ele><time>2026-05-02T16:05:38Z</time></trkpt><trkpt lat="43.16824668108324" lon="11.707996311446308"><ele>447.0</ele><time>2026-05-02T16:05:39Z</time></trkpt><trkpt lat="43.168423176345186" lon="11.70798039801855"><ele>445.33333333333337</ele><time>2026-05-02T16:05:40Z</time></trkpt><trkpt lat="43.168601770768724" lon="11.708022431030622"><ele>443.6666666666667</ele><time>2026-05-02T16:05:41Z</time></trkpt><trkpt lat="43.168767826734545" lon="11.708137563159694"><ele>442.0</ele><time>2026-05-02T16:05:42Z</time></trkpt><trkpt lat="43.16894986296256" lon="11.708275605379622"><ele>441.33333333333337</ele><time>2026-05-02T16:05:43Z</time></trkpt><trkpt lat="43.169131778370684" lon="11.708397857102048"><ele>440.66666666666663</ele><time>2026-05-02T16:05:44Z</time></trkpt><trkpt lat="43.16932040678578" lon="11.708559103762617"><ele>440.0</ele><time>2026-05-02T16:05:45Z</time></trkpt><trkpt lat="43.16950932776285" lon="11.708716315749237"><ele>440.0</ele><time>2026-05-02T16:05:46Z</time></trkpt><trkpt lat="43.16970121448133" lon="11.708869951777094"><ele>440.0</ele><time>2026-05-02T16:05:47Z</time></trkpt><trkpt lat="43.16988964325639" lon="11.709022311637982"><ele>440.0</ele><time>2026-05-02T16:05:48Z</time></trkpt><trkpt lat="43.170073542498066" lon="11.709171197799863"><ele>441.3333333333333</ele><time>2026-05-02T16:05:49Z</time></trkpt><trkpt lat="43.17025198142724" lon="11.709323589121617"><ele>442.66666666666663</ele><time>2026-05-02T16:05:50Z</time></trkpt><trkpt lat="43.17042653851475" lon="11.709469384642418"><ele>444.0</ele><time>2026-05-02T16:05:51Z</time></trkpt><trkpt lat="43.170597703961306" lon="11.709608035029474"><ele>447.0</ele><time>2026-05-02T16:05:52Z</time></trkpt><trkpt lat="43.17076971440064" lon="11.709749428856584"><ele>450.0</ele><time>2026-05-02T16:05:53Z</time></trkpt><trkpt lat="43.17093282758513" lon="11.709880928231271"><ele>453.0</ele><time>2026-05-02T16:05:54Z</time></trkpt><trkpt lat="43.171088900306785" lon="11.710008534640398"><ele>453.0</ele><time>2026-05-02T16:05:55Z</time></trkpt><trkpt lat="43.171230352760084" lon="11.710139122941149"><ele>453.0</ele><time>2026-05-02T16:05:56Z</time></trkpt><trkpt lat="43.171363768414025" lon="11.710296328312829"><ele>453.0</ele><time>2026-05-02T16:05:57Z</time></trkpt><trkpt lat="43.17147992712055" lon="11.710492733875926"><ele>451.0</ele><time>2026-05-02T16:05:58Z</time></trkpt><trkpt lat="43.171604906838965" lon="11.71066647210217"><ele>449.0</ele><time>2026-05-02T16:05:59Z</time></trkpt><trkpt lat="43.171705499273905" lon="11.710858946496392"><ele>447.0</ele><time>2026-05-02T16:06:00Z</time></trkpt><trkpt lat="43.17178851445646" lon="11.71108700272522"><ele>443.0</ele><time>2026-05-02T16:06:01Z</time></trkpt><trkpt lat="43.17189724979165" lon="11.711336417467253"><ele>439.0</ele><time>2026-05-02T16:06:02Z</time></trkpt><trkpt lat="43.17198410637486" lon="11.711606975656219"><ele>435.0</ele><time>2026-05-02T16:06:03Z</time></trkpt><trkpt lat="43.17207022271294" lon="11.7118730611643"><ele>433.66666666666663</ele><time>2026-05-02T16:06:04Z</time></trkpt><trkpt lat="43.172152079890274" lon="11.712120434209575"><ele>432.3333333333333</ele><time>2026-05-02T16:06:05Z</time></trkpt><trkpt lat="43.1722299458197" lon="11.712360313660406"><ele>431.0</ele><time>2026-05-02T16:06:06Z</time></trkpt><trkpt lat="43.172306436394685" lon="11.7125970072884"><ele>434.66666666666663</ele><time>2026-05-02T16:06:07Z</time></trkpt><trkpt lat="43.17238166993245" lon="11.712829636919299"><ele>438.33333333333337</ele><time>2026-05-02T16:06:08Z</time></trkpt><trkpt lat="43.1724515122939" lon="11.713044494290228"><ele>442.0</ele><time>2026-05-02T16:06:09Z</time></trkpt><trkpt lat="43.17252213559838" lon="11.713259830943999"><ele>442.0</ele><time>2026-05-02T16:06:10Z</time></trkpt><trkpt lat="43.17260220656918" lon="11.713483046265535"><ele>442.0</ele><time>2026-05-02T16:06:11Z</time></trkpt><trkpt lat="43.172681027598145" lon="11.713695656759997"><ele>442.0</ele><time>2026-05-02T16:06:12Z</time></trkpt><trkpt lat="43.17275744212057" lon="11.713900315588745"><ele>439.5</ele><time>2026-05-02T16:06:13Z</time></trkpt><trkpt lat="43.1728305818189" lon="11.7140969605587"><ele>437.0</ele><time>2026-05-02T16:06:14Z</time></trkpt><trkpt lat="43.17289875739268" lon="11.714278630312796"><ele>434.5</ele><time>2026-05-02T16:06:15Z</time></trkpt><trkpt lat="43.17296546215362" lon="11.714440260009475"><ele>432.0</ele><time>2026-05-02T16:06:16Z</time></trkpt><trkpt lat="43.17303941972941" lon="11.71457094561697"><ele>431.25</ele><time>2026-05-02T16:06:17Z</time></trkpt><trkpt lat="43.173137952980994" lon="11.714666766452826"><ele>430.5</ele><time>2026-05-02T16:06:18Z</time></trkpt><trkpt lat="43.17325553653505" lon="11.714712813352302"><ele>429.75</ele><time>2026-05-02T16:06:19Z</time></trkpt><trkpt lat="43.17338443691174" lon="11.714722206065836"><ele>429.0</ele><time>2026-05-02T16:06:20Z</time></trkpt><trkpt lat="43.1735077457551" lon="11.714692211289465"><ele>429.0</ele><time>2026-05-02T16:06:21Z</time></trkpt><trkpt lat="43.17361604690194" lon="11.714610180458347"><ele>429.0</ele><time>2026-05-02T16:06:22Z</time></trkpt><trkpt lat="43.17369900059351" lon="11.714481238513759"><ele>429.0</ele><time>2026-05-02T16:06:23Z</time></trkpt><trkpt lat="43.173778770012476" lon="11.714322293705957"><ele>429.0</ele><time>2026-05-02T16:06:24Z</time></trkpt><trkpt lat="43.17385111272751" lon="11.714164213362475"><ele>430.0</ele><time>2026-05-02T16:06:25Z</time></trkpt><trkpt lat="43.173932516530776" lon="11.71403363591548"><ele>431.0</ele><time>2026-05-02T16:06:26Z</time></trkpt><trkpt lat="43.17403836839951" lon="11.713944563441766"><ele>432.0</ele><time>2026-05-02T16:06:27Z</time></trkpt><trkpt lat="43.17415687494047" lon="11.713886798573293"><ele>433.0</ele><time>2026-05-02T16:06:28Z</time></trkpt><trkpt lat="43.17427663597335" lon="11.713909288784624"><ele>429.25</ele><time>2026-05-02T16:06:29Z</time></trkpt><trkpt lat="43.174378812064646" lon="11.713926517869352"><ele>425.5</ele><time>2026-05-02T16:06:30Z</time></trkpt><trkpt lat="43.17450517542701" lon="11.714058490088581"><ele>421.75</ele><time>2026-05-02T16:06:31Z</time></trkpt><trkpt lat="43.174632705992536" lon="11.714202905570238"><ele>418.0</ele><time>2026-05-02T16:06:32Z</time></trkpt><trkpt lat="43.17477765586378" lon="11.714377274634995"><ele>412.6666666666667</ele><time>2026-05-02T16:06:33Z</time></trkpt><trkpt lat="43.17492387311004" lon="11.714569720482256"><ele>407.33333333333337</ele><time>2026-05-02T16:06:34Z</time></trkpt><trkpt lat="43.17508962250286" lon="11.714750584617313"><ele>402.0</ele><time>2026-05-02T16:06:35Z</time></trkpt><trkpt lat="43.17524441622425" lon="11.714936644103373"><ele>402.0</ele><time>2026-05-02T16:06:36Z</time></trkpt><trkpt lat="43.17539425270007" lon="11.715115399277433"><ele>402.0</ele><time>2026-05-02T16:06:37Z</time></trkpt><trkpt lat="43.175530557097304" lon="11.715289255976282"><ele>402.0</ele><time>2026-05-02T16:06:38Z</time></trkpt><trkpt lat="43.17566649549835" lon="11.715454774266588"><ele>398.33333333333337</ele><time>2026-05-02T16:06:39Z</time></trkpt><trkpt lat="43.17581066105893" lon="11.715596000040447"><ele>394.6666666666667</ele><time>2026-05-02T16:06:40Z</time></trkpt><trkpt lat="43.175967656568545" lon="11.715717476553198"><ele>391.0</ele><time>2026-05-02T16:06:41Z</time></trkpt><trkpt lat="43.176138965642515" lon="11.715816596122627"><ele>391.0</ele><time>2026-05-02T16:06:42Z</time></trkpt><trkpt lat="43.17630138293104" lon="11.715912269122263"><ele>391.0</ele><time>2026-05-02T16:06:43Z</time></trkpt><trkpt lat="43.17646002985841" lon="11.716009248990522"><ele>391.0</ele><time>2026-05-02T16:06:44Z</time></trkpt><trkpt lat="43.176608339008794" lon="11.716102804006677"><ele>387.5</ele><time>2026-05-02T16:06:45Z</time></trkpt><trkpt lat="43.17674930228967" lon="11.716193538297423"><ele>384.0</ele><time>2026-05-02T16:06:46Z</time></trkpt><trkpt lat="43.1768840896337" lon="11.71627134614895"><ele>380.5</ele><time>2026-05-02T16:06:47Z</time></trkpt><trkpt lat="43.17700241129961" lon="11.716338852649105"><ele>377.0</ele><time>2026-05-02T16:06:48Z</time></trkpt><trkpt lat="43.177121335841136" lon="11.716380330631415"><ele>377.0</ele><time>2026-05-02T16:06:49Z</time></trkpt><trkpt lat="43.177248942783926" lon="11.716381015995518"><ele>377.0</ele><time>2026-05-02T16:06:50Z</time></trkpt><trkpt lat="43.177380912657284" lon="11.716339038560712"><ele>377.0</ele><time>2026-05-02T16:06:51Z</time></trkpt><trkpt lat="43.17749806047237" lon="11.716242321367064"><ele>377.0</ele><time>2026-05-02T16:06:52Z</time></trkpt><trkpt lat="43.17761809783254" lon="11.71613378822194"><ele>375.0</ele><time>2026-05-02T16:06:53Z</time></trkpt><trkpt lat="43.17774217082033" lon="11.71604827036596"><ele>373.0</ele><time>2026-05-02T16:06:54Z</time></trkpt><trkpt lat="43.17787067512431" lon="11.716020263979424"><ele>371.0</ele><time>2026-05-02T16:06:55Z</time></trkpt><trkpt lat="43.177986405132025" lon="11.716078204340747"><ele>369.0</ele><time>2026-05-02T16:06:56Z</time></trkpt><trkpt lat="43.17809703709554" lon="11.71616051441976"><ele>366.3333333333333</ele><time>2026-05-02T16:06:57Z</time></trkpt><trkpt lat="43.17820572568844" lon="11.716290892893952"><ele>363.66666666666663</ele><time>2026-05-02T16:06:58Z</time></trkpt><trkpt lat="43.17831377262704" lon="11.716435052594825"><ele>361.0</ele><time>2026-05-02T16:06:59Z</time></trkpt><trkpt lat="43.178426554146064" lon="11.716605350706608"><ele>361.0</ele><time>2026-05-02T16:07:00Z</time></trkpt><trkpt lat="43.17853469660321" lon="11.716789279207005"><ele>361.0</ele><time>2026-05-02T16:07:01Z</time></trkpt><trkpt lat="43.17863865784555" lon="11.71697537356374"><ele>361.0</ele><time>2026-05-02T16:07:02Z</time></trkpt><trkpt lat="43.17874213633221" lon="11.717165463625406"><ele>358.3333333333333</ele><time>2026-05-02T16:07:03Z</time></trkpt><trkpt lat="43.17885825612766" lon="11.717347252958511"><ele>355.6666666666667</ele><time>2026-05-02T16:07:04Z</time></trkpt><trkpt lat="43.17896044976239" lon="11.71754129879203"><ele>353.0</ele><time>2026-05-02T16:07:05Z</time></trkpt><trkpt lat="43.1790627319196" lon="11.71774519176094"><ele>352.0</ele><time>2026-05-02T16:07:06Z</time></trkpt><trkpt lat="43.179165270737215" lon="11.71793527911483"><ele>351.0</ele><time>2026-05-02T16:07:07Z</time></trkpt><trkpt lat="43.17927090275634" lon="11.718118707580029"><ele>350.0</ele><time>2026-05-02T16:07:08Z</time></trkpt><trkpt lat="43.179383684819044" lon="11.718297596575988"><ele>350.0</ele><time>2026-05-02T16:07:09Z</time></trkpt><trkpt lat="43.1795121114208" lon="11.718471272033101"><ele>350.0</ele><time>2026-05-02T16:07:10Z</time></trkpt><trkpt lat="43.179653917562305" lon="11.71863749176055"><ele>350.0</ele><time>2026-05-02T16:07:11Z</time></trkpt><trkpt lat="43.17980398169756" lon="11.718780144257009"><ele>351.0</ele><time>2026-05-02T16:07:12Z</time></trkpt><trkpt lat="43.179953044191834" lon="11.71890677902524"><ele>352.0</ele><time>2026-05-02T16:07:13Z</time></trkpt><trkpt lat="43.18008575309164" lon="11.719046613593164"><ele>353.0</ele><time>2026-05-02T16:07:14Z</time></trkpt><trkpt lat="43.180212699301954" lon="11.719204959893698"><ele>353.0</ele><time>2026-05-02T16:07:15Z</time></trkpt><trkpt lat="43.1803120700854" lon="11.719387154891074"><ele>353.0</ele><time>2026-05-02T16:07:16Z</time></trkpt><trkpt lat="43.18041751397483" lon="11.719564750125908"><ele>353.0</ele><time>2026-05-02T16:07:17Z</time></trkpt><trkpt lat="43.180539883999764" lon="11.719741844219069"><ele>350.6666666666667</ele><time>2026-05-02T16:07:18Z</time></trkpt><trkpt lat="43.18064626088692" lon="11.719940221376985"><ele>348.3333333333333</ele><time>2026-05-02T16:07:19Z</time></trkpt><trkpt lat="43.180749541890236" lon="11.720141664588382"><ele>346.0</ele><time>2026-05-02T16:07:20Z</time></trkpt><trkpt lat="43.180867316534716" lon="11.720350200234453"><ele>343.3333333333333</ele><time>2026-05-02T16:07:21Z</time></trkpt><trkpt lat="43.18098928442754" lon="11.720568945351973"><ele>340.6666666666667</ele><time>2026-05-02T16:07:22Z</time></trkpt><trkpt lat="43.181124179493516" lon="11.720810827966087"><ele>338.0</ele><time>2026-05-02T16:07:23Z</time></trkpt><trkpt lat="43.18126476742379" lon="11.721068673039321"><ele>335.0</ele><time>2026-05-02T16:07:24Z</time></trkpt><trkpt lat="43.181410216912816" lon="11.721330640588079"><ele>332.0</ele><time>2026-05-02T16:07:25Z</time></trkpt><trkpt lat="43.181549821474924" lon="11.721583935183203"><ele>332.0</ele><time>2026-05-02T16:07:26Z</time></trkpt><trkpt lat="43.181686115448706" lon="11.721824845017174"><ele>332.0</ele><time>2026-05-02T16:07:27Z</time></trkpt><trkpt lat="43.18182134856919" lon="11.722064334370312"><ele>332.0</ele><time>2026-05-02T16:07:28Z</time></trkpt><trkpt lat="43.1819511680822" lon="11.722295303996543"><ele>333.33333333333337</ele><time>2026-05-02T16:07:29Z</time></trkpt><trkpt lat="43.18207971418396" lon="11.722522983567652"><ele>334.6666666666667</ele><time>2026-05-02T16:07:30Z</time></trkpt><trkpt lat="43.18218076437885" lon="11.722752111584724"><ele>336.0</ele><time>2026-05-02T16:07:31Z</time></trkpt><trkpt lat="43.18227174270569" lon="11.722972819608275"><ele>337.0</ele><time>2026-05-02T16:07:32Z</time></trkpt><trkpt lat="43.18233630763498" lon="11.72319625226334"><ele>338.0</ele><time>2026-05-02T16:07:33Z</time></trkpt><trkpt lat="43.18237469344036" lon="11.723429425590368"><ele>339.0</ele><time>2026-05-02T16:07:34Z</time></trkpt><trkpt lat="43.182391782669846" lon="11.723687425536147"><ele>340.0</ele><time>2026-05-02T16:07:35Z</time></trkpt><trkpt lat="43.18241230748713" lon="11.72395897769368"><ele>341.0</ele><time>2026-05-02T16:07:36Z</time></trkpt><trkpt lat="43.18242039316718" lon="11.72421452803928"><ele>342.0</ele><time>2026-05-02T16:07:37Z</time></trkpt><trkpt lat="43.18242654578596" lon="11.724451104993264"><ele>342.6666666666667</ele><time>2026-05-02T16:07:38Z</time></trkpt><trkpt lat="43.18244129559764" lon="11.724677054111563"><ele>343.33333333333337</ele><time>2026-05-02T16:07:39Z</time></trkpt><trkpt lat="43.18247433004073" lon="11.724903637276636"><ele>344.0</ele><time>2026-05-02T16:07:40Z</time></trkpt><trkpt lat="43.18253689543915" lon="11.725136539441618"><ele>342.33333333333337</ele><time>2026-05-02T16:07:41Z</time></trkpt><trkpt lat="43.18262872948408" lon="11.72536295690936"><ele>340.6666666666667</ele><time>2026-05-02T16:07:42Z</time></trkpt><trkpt lat="43.18272443578763" lon="11.725593433575542"><ele>339.0</ele><time>2026-05-02T16:07:43Z</time></trkpt><trkpt lat="43.182822420272856" lon="11.725829239193686"><ele>336.3333333333333</ele><time>2026-05-02T16:07:44Z</time></trkpt><trkpt lat="43.18291257662017" lon="11.726065822786396"><ele>333.66666666666663</ele><time>2026-05-02T16:07:45Z</time></trkpt><trkpt lat="43.183002983726304" lon="11.726302080166986"><ele>331.0</ele><time>2026-05-02T16:07:46Z</time></trkpt><trkpt lat="43.183089772271316" lon="11.726520765960265"><ele>331.0</ele><time>2026-05-02T16:07:47Z</time></trkpt><trkpt lat="43.18315347536785" lon="11.726736046975752"><ele>331.0</ele><time>2026-05-02T16:07:48Z</time></trkpt><trkpt lat="43.1831905181394" lon="11.726944350614856"><ele>331.0</ele><time>2026-05-02T16:07:49Z</time></trkpt><trkpt lat="43.18321983823657" lon="11.727137439365633"><ele>331.0</ele><time>2026-05-02T16:07:50Z</time></trkpt><trkpt lat="43.18322811939869" lon="11.727323494423455"><ele>331.0</ele><time>2026-05-02T16:07:51Z</time></trkpt><trkpt lat="43.18323830556864" lon="11.727495526181471"><ele>331.0</ele><time>2026-05-02T16:07:52Z</time></trkpt><trkpt lat="43.18325867643846" lon="11.727653051899042"><ele>331.0</ele><time>2026-05-02T16:07:53Z</time></trkpt><trkpt lat="43.18329605811358" lon="11.727791842860757"><ele>331.0</ele><time>2026-05-02T16:07:54Z</time></trkpt><trkpt lat="43.183354844729685" lon="11.727927350941577"><ele>331.0</ele><time>2026-05-02T16:07:55Z</time></trkpt><trkpt lat="43.18344061808621" lon="11.728049627231615"><ele>331.0</ele><time>2026-05-02T16:07:56Z</time></trkpt><trkpt lat="43.18353705427981" lon="11.728147592564008"><ele>331.0</ele><time>2026-05-02T16:07:57Z</time></trkpt><trkpt lat="43.18362975356133" lon="11.72821893538"><ele>331.0</ele><time>2026-05-02T16:07:58Z</time></trkpt><trkpt lat="43.18371479344901" lon="11.72829407839468"><ele>331.0</ele><time>2026-05-02T16:07:59Z</time></trkpt><trkpt lat="43.18378994741177" lon="11.728363167189192"><ele>331.0</ele><time>2026-05-02T16:08:00Z</time></trkpt><trkpt lat="43.18386388189488" lon="11.728433567948834"><ele>331.0</ele><time>2026-05-02T16:08:01Z</time></trkpt><trkpt lat="43.183936126383855" lon="11.728507121040037"><ele>331.0</ele><time>2026-05-02T16:08:02Z</time></trkpt><trkpt lat="43.18400976814053" lon="11.728591028072648"><ele>331.20000000000005</ele><time>2026-05-02T16:08:03Z</time></trkpt><trkpt lat="43.184077517613964" lon="11.728696725453707"><ele>331.40000000000003</ele><time>2026-05-02T16:08:04Z</time></trkpt><trkpt lat="43.184133783572904" lon="11.728821914674906"><ele>331.6</ele><time>2026-05-02T16:08:05Z</time></trkpt><trkpt lat="43.18416900127082" lon="11.72894998475613"><ele>331.8</ele><time>2026-05-02T16:08:06Z</time></trkpt><trkpt lat="43.18417637279958" lon="11.729082285240773"><ele>332.0</ele><time>2026-05-02T16:08:07Z</time></trkpt><trkpt lat="43.18419367382239" lon="11.729203606662137"><ele>332.0</ele><time>2026-05-02T16:08:08Z</time></trkpt><trkpt lat="43.184183862229965" lon="11.729338879358579"><ele>332.0</ele><time>2026-05-02T16:08:09Z</time></trkpt><trkpt lat="43.18415797737856" lon="11.729486183513623"><ele>332.0</ele><time>2026-05-02T16:08:10Z</time></trkpt><trkpt lat="43.184123458405125" lon="11.729641237768245"><ele>332.0</ele><time>2026-05-02T16:08:11Z</time></trkpt><trkpt lat="43.184088496319426" lon="11.729797350949974"><ele>332.0</ele><time>2026-05-02T16:08:12Z</time></trkpt><trkpt lat="43.1840574370068" lon="11.729944984523728"><ele>331.5</ele><time>2026-05-02T16:08:13Z</time></trkpt><trkpt lat="43.18402815046877" lon="11.730093478093522"><ele>331.0</ele><time>2026-05-02T16:08:14Z</time></trkpt><trkpt lat="43.184003537574455" lon="11.730254636484643"><ele>330.5</ele><time>2026-05-02T16:08:15Z</time></trkpt><trkpt lat="43.18399701917598" lon="11.730426762787355"><ele>330.0</ele><time>2026-05-02T16:08:16Z</time></trkpt><trkpt lat="43.18401051439065" lon="11.73060658834372"><ele>329.75</ele><time>2026-05-02T16:08:17Z</time></trkpt><trkpt lat="43.18405599761175" lon="11.730787483046102"><ele>329.5</ele><time>2026-05-02T16:08:18Z</time></trkpt><trkpt lat="43.184126157584004" lon="11.730966719421234"><ele>329.25</ele><time>2026-05-02T16:08:19Z</time></trkpt><trkpt lat="43.184204757156664" lon="11.731127219491464"><ele>329.0</ele><time>2026-05-02T16:08:20Z</time></trkpt><trkpt lat="43.18425975931491" lon="11.731285101624447"><ele>328.0</ele><time>2026-05-02T16:08:21Z</time></trkpt><trkpt lat="43.184320095318874" lon="11.731421324963138"><ele>327.0</ele><time>2026-05-02T16:08:22Z</time></trkpt><trkpt lat="43.18436861750962" lon="11.731559891601558"><ele>326.0</ele><time>2026-05-02T16:08:23Z</time></trkpt><trkpt lat="43.184415064833615" lon="11.731717851078201"><ele>325.0</ele><time>2026-05-02T16:08:24Z</time></trkpt><trkpt lat="43.18445119607247" lon="11.731882046931299"><ele>323.0</ele><time>2026-05-02T16:08:25Z</time></trkpt><trkpt lat="43.18448178733595" lon="11.732059481243864"><ele>321.0</ele><time>2026-05-02T16:08:26Z</time></trkpt><trkpt lat="43.18450862590878" lon="11.73224208193324"><ele>319.0</ele><time>2026-05-02T16:08:27Z</time></trkpt><trkpt lat="43.184548809069284" lon="11.732410852524971"><ele>317.0</ele><time>2026-05-02T16:08:28Z</time></trkpt><trkpt lat="43.18457055746527" lon="11.732579795081996"><ele>314.75</ele><time>2026-05-02T16:08:29Z</time></trkpt><trkpt lat="43.18458965433965" lon="11.732745207520539"><ele>312.5</ele><time>2026-05-02T16:08:30Z</time></trkpt><trkpt lat="43.18461391953813" lon="11.732918275134715"><ele>310.25</ele><time>2026-05-02T16:08:31Z</time></trkpt><trkpt lat="43.18463901588204" lon="11.733101448618704"><ele>308.0</ele><time>2026-05-02T16:08:32Z</time></trkpt><trkpt lat="43.18466398019688" lon="11.733282813192664"><ele>308.0</ele><time>2026-05-02T16:08:33Z</time></trkpt><trkpt lat="43.184688492332796" lon="11.733458744119318"><ele>308.0</ele><time>2026-05-02T16:08:34Z</time></trkpt><trkpt lat="43.184713317361826" lon="11.733641775774029"><ele>308.0</ele><time>2026-05-02T16:08:35Z</time></trkpt><trkpt lat="43.18473925227785" lon="11.733826011358307"><ele>308.0</ele><time>2026-05-02T16:08:36Z</time></trkpt><trkpt lat="43.18476799284039" lon="11.73402197776644"><ele>308.0</ele><time>2026-05-02T16:08:37Z</time></trkpt><trkpt lat="43.18479678781759" lon="11.734220990841651"><ele>308.0</ele><time>2026-05-02T16:08:38Z</time></trkpt><trkpt lat="43.18482224038661" lon="11.734408059947771"><ele>308.0</ele><time>2026-05-02T16:08:39Z</time></trkpt><trkpt lat="43.184842053542624" lon="11.734587283541044"><ele>308.0</ele><time>2026-05-02T16:08:40Z</time></trkpt><trkpt lat="43.18485955818309" lon="11.734759770448587"><ele>308.0</ele><time>2026-05-02T16:08:41Z</time></trkpt><trkpt lat="43.18486303905316" lon="11.734939979927095"><ele>308.0</ele><time>2026-05-02T16:08:42Z</time></trkpt><trkpt lat="43.184831004155974" lon="11.735140193665718"><ele>308.0</ele><time>2026-05-02T16:08:43Z</time></trkpt><trkpt lat="43.18480607427177" lon="11.735357739036477"><ele>308.0</ele><time>2026-05-02T16:08:44Z</time></trkpt><trkpt lat="43.18475886722796" lon="11.735554129938226"><ele>303.0</ele><time>2026-05-02T16:08:45Z</time></trkpt><trkpt lat="43.18472363138697" lon="11.735742411866246"><ele>298.0</ele><time>2026-05-02T16:08:46Z</time></trkpt><trkpt lat="43.184706972204445" lon="11.735929471421663"><ele>293.0</ele><time>2026-05-02T16:08:47Z</time></trkpt><trkpt lat="43.18471262818296" lon="11.736118282416353"><ele>288.0</ele><time>2026-05-02T16:08:48Z</time></trkpt><trkpt lat="43.184749106154655" lon="11.736314088258272"><ele>288.3333333333333</ele><time>2026-05-02T16:08:49Z</time></trkpt><trkpt lat="43.18480572067341" lon="11.736521072917585"><ele>288.66666666666663</ele><time>2026-05-02T16:08:50Z</time></trkpt><trkpt lat="43.18487357874332" lon="11.736730787497311"><ele>289.0</ele><time>2026-05-02T16:08:51Z</time></trkpt><trkpt lat="43.18493820028554" lon="11.736919359097742"><ele>289.0</ele><time>2026-05-02T16:08:52Z</time></trkpt><trkpt lat="43.18498043355782" lon="11.73711069539696"><ele>289.0</ele><time>2026-05-02T16:08:53Z</time></trkpt><trkpt lat="43.1850392152317" lon="11.737283317955576"><ele>289.0</ele><time>2026-05-02T16:08:54Z</time></trkpt><trkpt lat="43.18511545141909" lon="11.737432644000458"><ele>289.0</ele><time>2026-05-02T16:08:55Z</time></trkpt><trkpt lat="43.18517965480182" lon="11.737581409225658"><ele>289.0</ele><time>2026-05-02T16:08:56Z</time></trkpt><trkpt lat="43.18525334203078" lon="11.737716207180851"><ele>289.0</ele><time>2026-05-02T16:08:57Z</time></trkpt><trkpt lat="43.185340842007655" lon="11.737837957992376"><ele>289.0</ele><time>2026-05-02T16:08:58Z</time></trkpt><trkpt lat="43.185426262381355" lon="11.737942542237969"><ele>289.0</ele><time>2026-05-02T16:08:59Z</time></trkpt><trkpt lat="43.1855302847869" lon="11.738049526386112"><ele>288.5</ele><time>2026-05-02T16:09:00Z</time></trkpt><trkpt lat="43.1856505738657" lon="11.73815685472723"><ele>288.0</ele><time>2026-05-02T16:09:01Z</time></trkpt><trkpt lat="43.18576444535324" lon="11.73826597290573"><ele>287.5</ele><time>2026-05-02T16:09:02Z</time></trkpt><trkpt lat="43.18588474437238" lon="11.738361454593015"><ele>287.0</ele><time>2026-05-02T16:09:03Z</time></trkpt><trkpt lat="43.186007345948724" lon="11.738456687979468"><ele>285.6666666666667</ele><time>2026-05-02T16:09:04Z</time></trkpt><trkpt lat="43.18616906631458" lon="11.738583174863235"><ele>284.3333333333333</ele><time>2026-05-02T16:09:05Z</time></trkpt><trkpt lat="43.18635727474834" lon="11.738732133421683"><ele>283.0</ele><time>2026-05-02T16:09:06Z</time></trkpt><trkpt lat="43.18654132861113" lon="11.73887684681439"><ele>283.0</ele><time>2026-05-02T16:09:07Z</time></trkpt><trkpt lat="43.1867074476544" lon="11.73900552408813"><ele>283.0</ele><time>2026-05-02T16:09:08Z</time></trkpt><trkpt lat="43.186882777562325" lon="11.739127082001527"><ele>283.0</ele><time>2026-05-02T16:09:09Z</time></trkpt><trkpt lat="43.18705442240836" lon="11.73928044401943"><ele>282.66666666666663</ele><time>2026-05-02T16:09:10Z</time></trkpt><trkpt lat="43.18720414500233" lon="11.739471573518209"><ele>282.3333333333333</ele><time>2026-05-02T16:09:11Z</time></trkpt><trkpt lat="43.18736359109591" lon="11.739667665726142"><ele>282.0</ele><time>2026-05-02T16:09:12Z</time></trkpt><trkpt lat="43.187539582548865" lon="11.739852798935448"><ele>282.0</ele><time>2026-05-02T16:09:13Z</time></trkpt><trkpt lat="43.18769799771776" lon="11.7400443135685"><ele>282.0</ele><time>2026-05-02T16:09:14Z</time></trkpt><trkpt lat="43.18785043354002" lon="11.740221987317595"><ele>282.0</ele><time>2026-05-02T16:09:15Z</time></trkpt><trkpt lat="43.187989511469915" lon="11.740389380290182"><ele>281.0</ele><time>2026-05-02T16:09:16Z</time></trkpt><trkpt lat="43.18810787705067" lon="11.740565971620882"><ele>280.0</ele><time>2026-05-02T16:09:17Z</time></trkpt><trkpt lat="43.18823525973366" lon="11.740721022951767"><ele>279.0</ele><time>2026-05-02T16:09:18Z</time></trkpt><trkpt lat="43.1883220097936" lon="11.740950101121992"><ele>278.6666666666667</ele><time>2026-05-02T16:09:19Z</time></trkpt><trkpt lat="43.188421250326265" lon="11.741199878252004"><ele>278.33333333333337</ele><time>2026-05-02T16:09:20Z</time></trkpt><trkpt lat="43.18853530509049" lon="11.741458491748963"><ele>278.0</ele><time>2026-05-02T16:09:21Z</time></trkpt><trkpt lat="43.18862939063903" lon="11.741715091041161"><ele>277.0</ele><time>2026-05-02T16:09:22Z</time></trkpt><trkpt lat="43.18871447599148" lon="11.74194579703428"><ele>276.0</ele><time>2026-05-02T16:09:23Z</time></trkpt><trkpt lat="43.188788083970664" lon="11.742136337311138"><ele>275.0</ele><time>2026-05-02T16:09:24Z</time></trkpt><trkpt lat="43.18886379313277" lon="11.742301166788847"><ele>275.0</ele><time>2026-05-02T16:09:25Z</time></trkpt><trkpt lat="43.18896234081873" lon="11.742433619588194"><ele>275.0</ele><time>2026-05-02T16:09:26Z</time></trkpt><trkpt lat="43.18909686161927" lon="11.742556435386904"><ele>275.0</ele><time>2026-05-02T16:09:27Z</time></trkpt><trkpt lat="43.189270710027074" lon="11.742659623747722"><ele>274.6666666666667</ele><time>2026-05-02T16:09:28Z</time></trkpt><trkpt lat="43.189467301202605" lon="11.742740257836267"><ele>274.3333333333333</ele><time>2026-05-02T16:09:29Z</time></trkpt><trkpt lat="43.189669007928" lon="11.742821547453488"><ele>274.0</ele><time>2026-05-02T16:09:30Z</time></trkpt><trkpt lat="43.189852559842805" lon="11.742900397402982"><ele>275.0</ele><time>2026-05-02T16:09:31Z</time></trkpt><trkpt lat="43.19001602455968" lon="11.742973611768411"><ele>276.0</ele><time>2026-05-02T16:09:32Z</time></trkpt><trkpt lat="43.19015727274785" lon="11.7430589949236"><ele>277.0</ele><time>2026-05-02T16:09:33Z</time></trkpt><trkpt lat="43.19031326089685" lon="11.743108022609048"><ele>277.0</ele><time>2026-05-02T16:09:34Z</time></trkpt><trkpt lat="43.19046338292101" lon="11.743196598413995"><ele>277.0</ele><time>2026-05-02T16:09:35Z</time></trkpt><trkpt lat="43.19061972108465" lon="11.743305117934476"><ele>277.0</ele><time>2026-05-02T16:09:36Z</time></trkpt><trkpt lat="43.190773135635574" lon="11.743436233407248"><ele>276.3333333333333</ele><time>2026-05-02T16:09:37Z</time></trkpt><trkpt lat="43.19092322330441" lon="11.743601015450647"><ele>275.6666666666667</ele><time>2026-05-02T16:09:38Z</time></trkpt><trkpt lat="43.19106104082479" lon="11.743783040471696"><ele>275.0</ele><time>2026-05-02T16:09:39Z</time></trkpt><trkpt lat="43.19119309040374" lon="11.74397020784939"><ele>275.0</ele><time>2026-05-02T16:09:40Z</time></trkpt><trkpt lat="43.191314067619416" lon="11.744146523030162"><ele>275.0</ele><time>2026-05-02T16:09:41Z</time></trkpt><trkpt lat="43.19142513522" lon="11.744310445050255"><ele>275.0</ele><time>2026-05-02T16:09:42Z</time></trkpt><trkpt lat="43.19152985355359" lon="11.744458494400208"><ele>275.33333333333337</ele><time>2026-05-02T16:09:43Z</time></trkpt><trkpt lat="43.191636121292966" lon="11.744595111880097"><ele>275.6666666666667</ele><time>2026-05-02T16:09:44Z</time></trkpt><trkpt lat="43.19176150869747" lon="11.744721738870387"><ele>276.0</ele><time>2026-05-02T16:09:45Z</time></trkpt><trkpt lat="43.1919149227879" lon="11.744828306529914"><ele>276.0</ele><time>2026-05-02T16:09:46Z</time></trkpt><trkpt lat="43.19208434248912" lon="11.744915603845772"><ele>276.0</ele><time>2026-05-02T16:09:47Z</time></trkpt><trkpt lat="43.192238578996296" lon="11.744981826421968"><ele>276.0</ele><time>2026-05-02T16:09:48Z</time></trkpt><trkpt lat="43.19237952955759" lon="11.745054356691089"><ele>277.0</ele><time>2026-05-02T16:09:49Z</time></trkpt><trkpt lat="43.192503423810216" lon="11.745156901941831"><ele>278.0</ele><time>2026-05-02T16:09:50Z</time></trkpt><trkpt lat="43.19262232298157" lon="11.745294207955085"><ele>279.0</ele><time>2026-05-02T16:09:51Z</time></trkpt><trkpt lat="43.19273226241517" lon="11.745466264049536"><ele>276.6666666666667</ele><time>2026-05-02T16:09:52Z</time></trkpt><trkpt lat="43.192842372209306" lon="11.74567060363081"><ele>274.33333333333337</ele><time>2026-05-02T16:09:53Z</time></trkpt><trkpt lat="43.192954830519525" lon="11.745880487185426"><ele>272.0</ele><time>2026-05-02T16:09:54Z</time></trkpt><trkpt lat="43.19306977957358" lon="11.746099443679224"><ele>270.0</ele><time>2026-05-02T16:09:55Z</time></trkpt><trkpt lat="43.19318928873288" lon="11.746325347629826"><ele>268.0</ele><time>2026-05-02T16:09:56Z</time></trkpt><trkpt lat="43.193301728349596" lon="11.74653603000455"><ele>266.0</ele><time>2026-05-02T16:09:57Z</time></trkpt><trkpt lat="43.19340906535139" lon="11.746738999169596"><ele>265.33333333333337</ele><time>2026-05-02T16:09:58Z</time></trkpt><trkpt lat="43.19351163841969" lon="11.746934106887593"><ele>264.6666666666667</ele><time>2026-05-02T16:09:59Z</time></trkpt><trkpt lat="43.19361143447603" lon="11.747114997451078"><ele>264.0</ele><time>2026-05-02T16:10:00Z</time></trkpt><trkpt lat="43.19370415054016" lon="11.74728668850569"><ele>264.0</ele><time>2026-05-02T16:10:01Z</time></trkpt><trkpt lat="43.1937858369779" lon="11.74745592003135"><ele>264.0</ele><time>2026-05-02T16:10:02Z</time></trkpt><trkpt lat="43.19387321009283" lon="11.747611887124789"><ele>264.0</ele><time>2026-05-02T16:10:03Z</time></trkpt><trkpt lat="43.19394054506913" lon="11.747737497284033"><ele>264.0</ele><time>2026-05-02T16:10:04Z</time></trkpt><trkpt lat="43.19398324466783" lon="11.74785805260046"><ele>264.1666666666667</ele><time>2026-05-02T16:10:05Z</time></trkpt><trkpt lat="43.19400271124047" lon="11.74796983106089"><ele>264.3333333333333</ele><time>2026-05-02T16:10:06Z</time></trkpt><trkpt lat="43.194040076058236" lon="11.748044208070569"><ele>264.5</ele><time>2026-05-02T16:10:07Z</time></trkpt><trkpt lat="43.193999622175475" lon="11.748167722266503"><ele>264.66666666666663</ele><time>2026-05-02T16:10:08Z</time></trkpt><trkpt lat="43.19395507880401" lon="11.748292918144305"><ele>264.8333333333333</ele><time>2026-05-02T16:10:10Z</time></trkpt><trkpt lat="43.19391224533444" lon="11.748384070714852"><ele>265.0</ele><time>2026-05-02T16:10:11Z</time></trkpt><trkpt lat="43.19388110286362" lon="11.748521057671784"><ele>265.0</ele><time>2026-05-02T16:10:12Z</time></trkpt><trkpt lat="43.19377051888389" lon="11.748666907314291"><ele>265.0</ele><time>2026-05-02T16:10:13Z</time></trkpt><trkpt lat="43.19370909526158" lon="11.748861982959795"><ele>265.0</ele><time>2026-05-02T16:10:14Z</time></trkpt><trkpt lat="43.193663687827645" lon="11.749064746452717"><ele>265.0</ele><time>2026-05-02T16:10:15Z</time></trkpt><trkpt lat="43.19362812635933" lon="11.749268216087042"><ele>265.0</ele><time>2026-05-02T16:10:16Z</time></trkpt><trkpt lat="43.19359888231586" lon="11.749471197872504"><ele>265.0</ele><time>2026-05-02T16:10:17Z</time></trkpt><trkpt lat="43.19354033119677" lon="11.749636588032496"><ele>265.0</ele><time>2026-05-02T16:10:18Z</time></trkpt><trkpt lat="43.193510436323045" lon="11.749906213739257"><ele>264.66666666666663</ele><time>2026-05-02T16:10:19Z</time></trkpt><trkpt lat="43.19340274130549" lon="11.75012584750894"><ele>264.3333333333333</ele><time>2026-05-02T16:10:20Z</time></trkpt><trkpt lat="43.1932938649851" lon="11.750334333188851"><ele>264.0</ele><time>2026-05-02T16:10:21Z</time></trkpt><trkpt lat="43.19319417634185" lon="11.75055698034805"><ele>264.6666666666667</ele><time>2026-05-02T16:10:22Z</time></trkpt><trkpt lat="43.193085832171626" lon="11.750761045678992"><ele>265.33333333333337</ele><time>2026-05-02T16:10:23Z</time></trkpt><trkpt lat="43.19297623528265" lon="11.750956304534483"><ele>266.0</ele><time>2026-05-02T16:10:24Z</time></trkpt><trkpt lat="43.19288070888622" lon="11.751137602371852"><ele>266.0</ele><time>2026-05-02T16:10:25Z</time></trkpt><trkpt lat="43.192797532169386" lon="11.75129103402592"><ele>266.0</ele><time>2026-05-02T16:10:26Z</time></trkpt><trkpt lat="43.19270425579904" lon="11.751477791263301"><ele>266.0</ele><time>2026-05-02T16:10:27Z</time></trkpt><trkpt lat="43.19259841672237" lon="11.751680361498643"><ele>265.6666666666667</ele><time>2026-05-02T16:10:28Z</time></trkpt><trkpt lat="43.19248535245465" lon="11.751899034951066"><ele>265.3333333333333</ele><time>2026-05-02T16:10:29Z</time></trkpt><trkpt lat="43.19237154472333" lon="11.752123268697448"><ele>265.0</ele><time>2026-05-02T16:10:30Z</time></trkpt><trkpt lat="43.19224757614583" lon="11.752361775560551"><ele>265.0</ele><time>2026-05-02T16:10:31Z</time></trkpt><trkpt lat="43.19212486243955" lon="11.752603277190845"><ele>265.0</ele><time>2026-05-02T16:10:32Z</time></trkpt><trkpt lat="43.1920071415158" lon="11.75283254713801"><ele>265.0</ele><time>2026-05-02T16:10:33Z</time></trkpt><trkpt lat="43.19189866044757" lon="11.753046169772542"><ele>264.66666666666663</ele><time>2026-05-02T16:10:34Z</time></trkpt><trkpt lat="43.19179904529109" lon="11.75324380478828"><ele>264.3333333333333</ele><time>2026-05-02T16:10:35Z</time></trkpt><trkpt lat="43.19170053341308" lon="11.753435749962108"><ele>264.0</ele><time>2026-05-02T16:10:36Z</time></trkpt><trkpt lat="43.19159395238815" lon="11.753637799901167"><ele>264.3333333333333</ele><time>2026-05-02T16:10:37Z</time></trkpt><trkpt lat="43.191481309143526" lon="11.753853621389363"><ele>264.66666666666663</ele><time>2026-05-02T16:10:38Z</time></trkpt><trkpt lat="43.19136436850819" lon="11.754076527738874"><ele>265.0</ele><time>2026-05-02T16:10:39Z</time></trkpt><trkpt lat="43.19124420686434" lon="11.754307750285433"><ele>265.0</ele><time>2026-05-02T16:10:40Z</time></trkpt><trkpt lat="43.191128576665434" lon="11.754533801824062"><ele>265.0</ele><time>2026-05-02T16:10:41Z</time></trkpt><trkpt lat="43.19101515975898" lon="11.754755797105544"><ele>265.0</ele><time>2026-05-02T16:10:42Z</time></trkpt><trkpt lat="43.19090433843053" lon="11.754973665384636"><ele>265.0</ele><time>2026-05-02T16:10:43Z</time></trkpt><trkpt lat="43.19079646451779" lon="11.75518606812127"><ele>265.0</ele><time>2026-05-02T16:10:44Z</time></trkpt><trkpt lat="43.19069004073576" lon="11.755390587999777"><ele>265.0</ele><time>2026-05-02T16:10:45Z</time></trkpt><trkpt lat="43.19058399275133" lon="11.755594215086495"><ele>264.66666666666663</ele><time>2026-05-02T16:10:46Z</time></trkpt><trkpt lat="43.190479618357145" lon="11.755802130340935"><ele>264.3333333333333</ele><time>2026-05-02T16:10:47Z</time></trkpt><trkpt lat="43.19037632860814" lon="11.756004531266745"><ele>264.0</ele><time>2026-05-02T16:10:48Z</time></trkpt><trkpt lat="43.19027369076304" lon="11.756207317542318"><ele>264.0</ele><time>2026-05-02T16:10:49Z</time></trkpt><trkpt lat="43.19018201769825" lon="11.756391039320517"><ele>264.0</ele><time>2026-05-02T16:10:50Z</time></trkpt><trkpt lat="43.19009805396229" lon="11.756560146101316"><ele>264.0</ele><time>2026-05-02T16:10:51Z</time></trkpt><trkpt lat="43.19002889517787" lon="11.756712438450931"><ele>264.0</ele><time>2026-05-02T16:10:52Z</time></trkpt><trkpt lat="43.18996670179415" lon="11.756845548079223"><ele>264.0</ele><time>2026-05-02T16:10:53Z</time></trkpt><trkpt lat="43.18991409355293" lon="11.756959178182703"><ele>264.0</ele><time>2026-05-02T16:10:54Z</time></trkpt><trkpt lat="43.1898669295465" lon="11.75706330551247"><ele>264.0</ele><time>2026-05-02T16:10:55Z</time></trkpt><trkpt lat="43.18981080931305" lon="11.757137500234935"><ele>264.0</ele><time>2026-05-02T16:10:56Z</time></trkpt><trkpt lat="43.18977097461345" lon="11.757216434046915"><ele>264.0</ele><time>2026-05-02T16:10:57Z</time></trkpt><trkpt lat="43.18973255650922" lon="11.757323470976232"><ele>264.0</ele><time>2026-05-02T16:10:59Z</time></trkpt><trkpt lat="43.18988275664989" lon="11.7574752178265"><ele>263.75</ele><time>2026-05-02T16:11:00Z</time></trkpt><trkpt lat="43.18997369253084" lon="11.75753179901138"><ele>263.5</ele><time>2026-05-02T16:11:01Z</time></trkpt><trkpt lat="43.19010062130111" lon="11.757595461856763"><ele>263.25</ele><time>2026-05-02T16:11:02Z</time></trkpt><trkpt lat="43.190249962185966" lon="11.757678463698804"><ele>263.0</ele><time>2026-05-02T16:11:03Z</time></trkpt><trkpt lat="43.19041078183412" lon="11.757786413397483"><ele>263.0</ele><time>2026-05-02T16:11:04Z</time></trkpt><trkpt lat="43.19058293682091" lon="11.757907072860688"><ele>263.0</ele><time>2026-05-02T16:11:05Z</time></trkpt><trkpt lat="43.19076157333233" lon="11.758028891417394"><ele>263.0</ele><time>2026-05-02T16:11:06Z</time></trkpt><trkpt lat="43.190963410184985" lon="11.758162303241745"><ele>262.0</ele><time>2026-05-02T16:11:07Z</time></trkpt><trkpt lat="43.19116624475674" lon="11.75829953972197"><ele>261.0</ele><time>2026-05-02T16:11:08Z</time></trkpt><trkpt lat="43.19137151589882" lon="11.758437918425694"><ele>261.0</ele><time>2026-05-02T16:11:09Z</time></trkpt><trkpt lat="43.19156961610193" lon="11.758570362625333"><ele>261.0</ele><time>2026-05-02T16:11:10Z</time></trkpt><trkpt lat="43.19175377335727" lon="11.758695078210035"><ele>261.0</ele><time>2026-05-02T16:11:11Z</time></trkpt><trkpt lat="43.191939334245106" lon="11.758824065397283"><ele>261.0</ele><time>2026-05-02T16:11:12Z</time></trkpt><trkpt lat="43.192131016506984" lon="11.758957085853144"><ele>261.0</ele><time>2026-05-02T16:11:13Z</time></trkpt><trkpt lat="43.19232251805974" lon="11.759085455440461"><ele>261.0</ele><time>2026-05-02T16:11:14Z</time></trkpt><trkpt lat="43.19251340203658" lon="11.75921133562286"><ele>261.0</ele><time>2026-05-02T16:11:15Z</time></trkpt><trkpt lat="43.19270636914812" lon="11.759341255262981"><ele>261.0</ele><time>2026-05-02T16:11:16Z</time></trkpt><trkpt lat="43.19289547412813" lon="11.759472955370912"><ele>261.0</ele><time>2026-05-02T16:11:17Z</time></trkpt><trkpt lat="43.193083083418365" lon="11.7596038426539"><ele>260.0</ele><time>2026-05-02T16:11:18Z</time></trkpt><trkpt lat="43.19326792551236" lon="11.759732081694368"><ele>259.0</ele><time>2026-05-02T16:11:19Z</time></trkpt><trkpt lat="43.193449505436206" lon="11.759856904572082"><ele>258.0</ele><time>2026-05-02T16:11:20Z</time></trkpt><trkpt lat="43.19363281175004" lon="11.75998470050754"><ele>258.0</ele><time>2026-05-02T16:11:21Z</time></trkpt><trkpt lat="43.1938230987519" lon="11.76011042653372"><ele>258.0</ele><time>2026-05-02T16:11:22Z</time></trkpt><trkpt lat="43.194011248557" lon="11.760235315667279"><ele>258.0</ele><time>2026-05-02T16:11:23Z</time></trkpt><trkpt lat="43.1942009908224" lon="11.760362601551464"><ele>257.6666666666667</ele><time>2026-05-02T16:11:24Z</time></trkpt><trkpt lat="43.19438896374158" lon="11.760489679678232"><ele>257.33333333333337</ele><time>2026-05-02T16:11:25Z</time></trkpt><trkpt lat="43.19457350229971" lon="11.760618360362237"><ele>257.0</ele><time>2026-05-02T16:11:26Z</time></trkpt><trkpt lat="43.19475716618518" lon="11.760744957076291"><ele>257.33333333333337</ele><time>2026-05-02T16:11:27Z</time></trkpt><trkpt lat="43.194937364642605" lon="11.760870143010832"><ele>257.6666666666667</ele><time>2026-05-02T16:11:28Z</time></trkpt><trkpt lat="43.19511184033419" lon="11.760988559843758"><ele>258.0</ele><time>2026-05-02T16:11:29Z</time></trkpt><trkpt lat="43.19528130019814" lon="11.761104878318585"><ele>258.0</ele><time>2026-05-02T16:11:30Z</time></trkpt><trkpt lat="43.19544140093098" lon="11.761217791603361"><ele>258.0</ele><time>2026-05-02T16:11:31Z</time></trkpt><trkpt lat="43.19559622565655" lon="11.761314291301982"><ele>258.0</ele><time>2026-05-02T16:11:32Z</time></trkpt><trkpt lat="43.195749263706624" lon="11.761392633855172"><ele>258.0</ele><time>2026-05-02T16:11:33Z</time></trkpt><trkpt lat="43.19589744021721" lon="11.76143952167329"><ele>258.0</ele><time>2026-05-02T16:11:34Z</time></trkpt><trkpt lat="43.19605067268632" lon="11.761457154130397"><ele>258.0</ele><time>2026-05-02T16:11:35Z</time></trkpt><trkpt lat="43.19621154004147" lon="11.761445415399844"><ele>258.0</ele><time>2026-05-02T16:11:36Z</time></trkpt><trkpt lat="43.196371376479405" lon="11.761411114627311"><ele>258.0</ele><time>2026-05-02T16:11:37Z</time></trkpt><trkpt lat="43.19653152528416" lon="11.76133255883627"><ele>258.0</ele><time>2026-05-02T16:11:38Z</time></trkpt><trkpt lat="43.19669578395953" lon="11.761231982046727"><ele>259.0</ele><time>2026-05-02T16:11:39Z</time></trkpt><trkpt lat="43.196870970053716" lon="11.761126419123789"><ele>260.0</ele><time>2026-05-02T16:11:40Z</time></trkpt><trkpt lat="43.19705205829493" lon="11.761028103138424"><ele>261.0</ele><time>2026-05-02T16:11:41Z</time></trkpt><trkpt lat="43.197234550592285" lon="11.760929624771679"><ele>261.3333333333333</ele><time>2026-05-02T16:11:42Z</time></trkpt><trkpt lat="43.197415521183714" lon="11.760827927819241"><ele>261.66666666666663</ele><time>2026-05-02T16:11:43Z</time></trkpt><trkpt lat="43.19758370833131" lon="11.760733855329782"><ele>262.0</ele><time>2026-05-02T16:11:44Z</time></trkpt><trkpt lat="43.1977377933856" lon="11.760658457123105"><ele>262.0</ele><time>2026-05-02T16:11:45Z</time></trkpt><trkpt lat="43.19789089430433" lon="11.760611465075321"><ele>262.0</ele><time>2026-05-02T16:11:46Z</time></trkpt><trkpt lat="43.198043928066916" lon="11.760589735218277"><ele>262.0</ele><time>2026-05-02T16:11:47Z</time></trkpt><trkpt lat="43.19821616043071" lon="11.760611210208546"><ele>262.0</ele><time>2026-05-02T16:11:48Z</time></trkpt><trkpt lat="43.19839441470774" lon="11.760649087349403"><ele>262.0</ele><time>2026-05-02T16:11:49Z</time></trkpt><trkpt lat="43.19855957248883" lon="11.760714519482388"><ele>262.0</ele><time>2026-05-02T16:11:50Z</time></trkpt><trkpt lat="43.198704623117976" lon="11.760799860757432"><ele>262.0</ele><time>2026-05-02T16:11:51Z</time></trkpt><trkpt lat="43.198852687231664" lon="11.760901350289615"><ele>262.0</ele><time>2026-05-02T16:11:52Z</time></trkpt><trkpt lat="43.19902793234191" lon="11.760986360203042"><ele>262.0</ele><time>2026-05-02T16:11:53Z</time></trkpt><trkpt lat="43.199190848604225" lon="11.761190462793667"><ele>260.3333333333333</ele><time>2026-05-02T16:11:54Z</time></trkpt><trkpt lat="43.19937438888125" lon="11.761325343244472"><ele>258.6666666666667</ele><time>2026-05-02T16:11:55Z</time></trkpt><trkpt lat="43.19954303138993" lon="11.761457853394864"><ele>257.0</ele><time>2026-05-02T16:11:56Z</time></trkpt><trkpt lat="43.199696050427775" lon="11.761613874411209"><ele>257.0</ele><time>2026-05-02T16:11:57Z</time></trkpt><trkpt lat="43.19983566682521" lon="11.761805080839807"><ele>257.0</ele><time>2026-05-02T16:11:58Z</time></trkpt><trkpt lat="43.19996978303059" lon="11.76201905128823"><ele>257.0</ele><time>2026-05-02T16:11:59Z</time></trkpt><trkpt lat="43.200100493754704" lon="11.76223934337241"><ele>257.0</ele><time>2026-05-02T16:12:00Z</time></trkpt><trkpt lat="43.20021932588641" lon="11.762429293100066"><ele>257.0</ele><time>2026-05-02T16:12:01Z</time></trkpt><trkpt lat="43.20033075847023" lon="11.76260048173782"><ele>257.0</ele><time>2026-05-02T16:12:02Z</time></trkpt><trkpt lat="43.2004362111011" lon="11.76276294017352"><ele>256.6666666666667</ele><time>2026-05-02T16:12:03Z</time></trkpt><trkpt lat="43.20053595025468" lon="11.762925040869995"><ele>256.3333333333333</ele><time>2026-05-02T16:12:04Z</time></trkpt><trkpt lat="43.200641652529846" lon="11.763093963661294"><ele>256.0</ele><time>2026-05-02T16:12:05Z</time></trkpt><trkpt lat="43.20075880457546" lon="11.76326847985387"><ele>256.0</ele><time>2026-05-02T16:12:06Z</time></trkpt><trkpt lat="43.20088201824711" lon="11.763443115037731"><ele>256.0</ele><time>2026-05-02T16:12:07Z</time></trkpt><trkpt lat="43.201023122801615" lon="11.763619852729079"><ele>256.0</ele><time>2026-05-02T16:12:08Z</time></trkpt><trkpt lat="43.201175794852226" lon="11.763794275222432"><ele>256.3333333333333</ele><time>2026-05-02T16:12:09Z</time></trkpt><trkpt lat="43.20133165776155" lon="11.763966822798483"><ele>256.6666666666667</ele><time>2026-05-02T16:12:10Z</time></trkpt><trkpt lat="43.201484852615195" lon="11.764140883093818"><ele>257.0</ele><time>2026-05-02T16:12:11Z</time></trkpt><trkpt lat="43.20163814252445" lon="11.764315518334877"><ele>256.0</ele><time>2026-05-02T16:12:12Z</time></trkpt><trkpt lat="43.20178472519828" lon="11.764484508122214"><ele>255.0</ele><time>2026-05-02T16:12:13Z</time></trkpt><trkpt lat="43.201924868638194" lon="11.764647049076629"><ele>254.0</ele><time>2026-05-02T16:12:14Z</time></trkpt><trkpt lat="43.202068410856185" lon="11.764811020411846"><ele>254.0</ele><time>2026-05-02T16:12:15Z</time></trkpt><trkpt lat="43.20221777662544" lon="11.764964196967018"><ele>254.0</ele><time>2026-05-02T16:12:16Z</time></trkpt><trkpt lat="43.20237356261993" lon="11.76510585398613"><ele>254.0</ele><time>2026-05-02T16:12:17Z</time></trkpt><trkpt lat="43.20252198850931" lon="11.765232609099268"><ele>255.0</ele><time>2026-05-02T16:12:18Z</time></trkpt><trkpt lat="43.2026594858364" lon="11.765350134296517"><ele>256.0</ele><time>2026-05-02T16:12:19Z</time></trkpt><trkpt lat="43.202788697606316" lon="11.765466792570445"><ele>257.0</ele><time>2026-05-02T16:12:20Z</time></trkpt><trkpt lat="43.20291605823983" lon="11.765585200078178"><ele>257.0</ele><time>2026-05-02T16:12:21Z</time></trkpt><trkpt lat="43.20304795031923" lon="11.76570289480961"><ele>257.0</ele><time>2026-05-02T16:12:22Z</time></trkpt><trkpt lat="43.20317683597492" lon="11.765816361617375"><ele>257.0</ele><time>2026-05-02T16:12:23Z</time></trkpt><trkpt lat="43.20330686403435" lon="11.765901321700564"><ele>256.6666666666667</ele><time>2026-05-02T16:12:24Z</time></trkpt><trkpt lat="43.20344837394342" lon="11.76595937826014"><ele>256.3333333333333</ele><time>2026-05-02T16:12:25Z</time></trkpt><trkpt lat="43.20360836160958" lon="11.765980611676957"><ele>256.0</ele><time>2026-05-02T16:12:26Z</time></trkpt><trkpt lat="43.20378580548711" lon="11.765960417168591"><ele>256.0</ele><time>2026-05-02T16:12:27Z</time></trkpt><trkpt lat="43.203964376008145" lon="11.765931296440261"><ele>256.0</ele><time>2026-05-02T16:12:28Z</time></trkpt><trkpt lat="43.20412660474522" lon="11.765900858117341"><ele>256.0</ele><time>2026-05-02T16:12:29Z</time></trkpt><trkpt lat="43.2042776829368" lon="11.76587521251256"><ele>256.0</ele><time>2026-05-02T16:12:30Z</time></trkpt><trkpt lat="43.204427677064245" lon="11.765847880858574"><ele>256.0</ele><time>2026-05-02T16:12:31Z</time></trkpt><trkpt lat="43.20457077822823" lon="11.765819015886692"><ele>256.0</ele><time>2026-05-02T16:12:32Z</time></trkpt><trkpt lat="43.20470979266713" lon="11.765779803363833"><ele>256.0</ele><time>2026-05-02T16:12:33Z</time></trkpt><trkpt lat="43.20484569764331" lon="11.76571423227064"><ele>256.0</ele><time>2026-05-02T16:12:34Z</time></trkpt><trkpt lat="43.20497914713155" lon="11.765597593883761"><ele>256.0</ele><time>2026-05-02T16:12:35Z</time></trkpt><trkpt lat="43.20511504306765" lon="11.7654562669953"><ele>256.0</ele><time>2026-05-02T16:12:36Z</time></trkpt><trkpt lat="43.205231707511835" lon="11.765288301065121"><ele>255.66666666666666</ele><time>2026-05-02T16:12:37Z</time></trkpt><trkpt lat="43.205341878269344" lon="11.765137321553802"><ele>255.33333333333331</ele><time>2026-05-02T16:12:38Z</time></trkpt><trkpt lat="43.20544174544633" lon="11.764942027067447"><ele>255.0</ele><time>2026-05-02T16:12:39Z</time></trkpt><trkpt lat="43.20554062755466" lon="11.764748853157302"><ele>255.0</ele><time>2026-05-02T16:12:40Z</time></trkpt><trkpt lat="43.20563516293037" lon="11.764572612363475"><ele>255.0</ele><time>2026-05-02T16:12:41Z</time></trkpt><trkpt lat="43.205739834115384" lon="11.76437088014488"><ele>255.0</ele><time>2026-05-02T16:12:42Z</time></trkpt><trkpt lat="43.20584797822872" lon="11.76414233802779"><ele>255.5</ele><time>2026-05-02T16:12:43Z</time></trkpt><trkpt lat="43.20598834945309" lon="11.763909139433373"><ele>256.0</ele><time>2026-05-02T16:12:44Z</time></trkpt><trkpt lat="43.20611894192881" lon="11.76364085659159"><ele>256.5</ele><time>2026-05-02T16:12:45Z</time></trkpt><trkpt lat="43.2062677293931" lon="11.763380895384318"><ele>257.0</ele><time>2026-05-02T16:12:46Z</time></trkpt><trkpt lat="43.20641374964337" lon="11.763112342625307"><ele>257.33333333333337</ele><time>2026-05-02T16:12:47Z</time></trkpt><trkpt lat="43.206548437719746" lon="11.762852337287688"><ele>257.6666666666667</ele><time>2026-05-02T16:12:48Z</time></trkpt><trkpt lat="43.20667222294303" lon="11.762620809769821"><ele>258.0</ele><time>2026-05-02T16:12:49Z</time></trkpt><trkpt lat="43.20679106041994" lon="11.762408412050448"><ele>257.3333333333333</ele><time>2026-05-02T16:12:50Z</time></trkpt><trkpt lat="43.20690009389047" lon="11.762214308787321"><ele>256.66666666666663</ele><time>2026-05-02T16:12:51Z</time></trkpt><trkpt lat="43.20701461553963" lon="11.762042723711764"><ele>256.0</ele><time>2026-05-02T16:12:52Z</time></trkpt><trkpt lat="43.20714859268918" lon="11.761930920727115"><ele>256.0</ele><time>2026-05-02T16:12:53Z</time></trkpt><trkpt lat="43.20727896664214" lon="11.76184446681901"><ele>256.0</ele><time>2026-05-02T16:12:54Z</time></trkpt><trkpt lat="43.20740682187145" lon="11.761782878536385"><ele>256.0</ele><time>2026-05-02T16:12:55Z</time></trkpt><trkpt lat="43.20753783898694" lon="11.761754530226531"><ele>256.0</ele><time>2026-05-02T16:12:56Z</time></trkpt><trkpt lat="43.20768811065358" lon="11.761751984706939"><ele>256.3333333333333</ele><time>2026-05-02T16:12:57Z</time></trkpt><trkpt lat="43.207864225895726" lon="11.761773823016641"><ele>256.6666666666667</ele><time>2026-05-02T16:12:58Z</time></trkpt><trkpt lat="43.20806342850988" lon="11.761782028904038"><ele>257.0</ele><time>2026-05-02T16:12:59Z</time></trkpt><trkpt lat="43.2082741188083" lon="11.76182291803217"><ele>257.0</ele><time>2026-05-02T16:13:00Z</time></trkpt><trkpt lat="43.2085043380986" lon="11.76185060493815"><ele>257.0</ele><time>2026-05-02T16:13:01Z</time></trkpt><trkpt lat="43.2087394532298" lon="11.761889550089085"><ele>257.5</ele><time>2026-05-02T16:13:02Z</time></trkpt><trkpt lat="43.20898378305139" lon="11.76191761261623"><ele>258.0</ele><time>2026-05-02T16:13:03Z</time></trkpt><trkpt lat="43.20922849896187" lon="11.761938916227553"><ele>258.0</ele><time>2026-05-02T16:13:04Z</time></trkpt><trkpt lat="43.2094782742737" lon="11.761963609965115"><ele>258.0</ele><time>2026-05-02T16:13:05Z</time></trkpt><trkpt lat="43.2097282620751" lon="11.76197553262946"><ele>257.6666666666667</ele><time>2026-05-02T16:13:06Z</time></trkpt><trkpt lat="43.20996530267763" lon="11.761982093897526"><ele>257.33333333333337</ele><time>2026-05-02T16:13:07Z</time></trkpt><trkpt lat="43.21017120035584" lon="11.761978007456646"><ele>257.0</ele><time>2026-05-02T16:13:08Z</time></trkpt><trkpt lat="43.210372151119195" lon="11.761977071903782"><ele>257.0</ele><time>2026-05-02T16:13:09Z</time></trkpt><trkpt lat="43.21056518432914" lon="11.76197170254828"><ele>257.0</ele><time>2026-05-02T16:13:10Z</time></trkpt><trkpt lat="43.21074698204606" lon="11.761968108582057"><ele>257.0</ele><time>2026-05-02T16:13:11Z</time></trkpt><trkpt lat="43.21092140344676" lon="11.76196086785599"><ele>257.0</ele><time>2026-05-02T16:13:12Z</time></trkpt><trkpt lat="43.21108535172022" lon="11.76196131602577"><ele>257.0</ele><time>2026-05-02T16:13:13Z</time></trkpt><trkpt lat="43.21125946812339" lon="11.761962788432937"><ele>257.0</ele><time>2026-05-02T16:13:14Z</time></trkpt><trkpt lat="43.21143751527794" lon="11.76197267940413"><ele>257.33333333333337</ele><time>2026-05-02T16:13:15Z</time></trkpt><trkpt lat="43.211646758025246" lon="11.761992555950524"><ele>257.6666666666667</ele><time>2026-05-02T16:13:16Z</time></trkpt><trkpt lat="43.21186347147952" lon="11.762031038792678"><ele>258.0</ele><time>2026-05-02T16:13:17Z</time></trkpt><trkpt lat="43.212084331797406" lon="11.762076898373648"><ele>258.0</ele><time>2026-05-02T16:13:18Z</time></trkpt><trkpt lat="43.212298732466444" lon="11.762118224388077"><ele>258.0</ele><time>2026-05-02T16:13:19Z</time></trkpt><trkpt lat="43.21251217920319" lon="11.762155608133277"><ele>258.0</ele><time>2026-05-02T16:13:20Z</time></trkpt><trkpt lat="43.21272949997826" lon="11.762187469608758"><ele>258.0</ele><time>2026-05-02T16:13:21Z</time></trkpt><trkpt lat="43.2129452909718" lon="11.762212446892336"><ele>258.0</ele><time>2026-05-02T16:13:22Z</time></trkpt><trkpt lat="43.213164170765076" lon="11.762213146768586"><ele>258.0</ele><time>2026-05-02T16:13:23Z</time></trkpt><trkpt lat="43.21337665035703" lon="11.762199933010328"><ele>258.0</ele><time>2026-05-02T16:13:24Z</time></trkpt><trkpt lat="43.2135784936" lon="11.762170100156787"><ele>258.0</ele><time>2026-05-02T16:13:25Z</time></trkpt><trkpt lat="43.21379711761079" lon="11.762121336063574"><ele>258.0</ele><time>2026-05-02T16:13:26Z</time></trkpt><trkpt lat="43.21400945543788" lon="11.762053233720668"><ele>257.6666666666667</ele><time>2026-05-02T16:13:27Z</time></trkpt><trkpt lat="43.21421010947469" lon="11.761974787089231"><ele>257.33333333333337</ele><time>2026-05-02T16:13:28Z</time></trkpt><trkpt lat="43.21440331247002" lon="11.761883884517207"><ele>257.0</ele><time>2026-05-02T16:13:29Z</time></trkpt><trkpt lat="43.21458523993547" lon="11.761777981029296"><ele>257.0</ele><time>2026-05-02T16:13:30Z</time></trkpt><trkpt lat="43.21477063183833" lon="11.761651614057591"><ele>257.0</ele><time>2026-05-02T16:13:31Z</time></trkpt><trkpt lat="43.21494716694615" lon="11.761500921719106"><ele>257.0</ele><time>2026-05-02T16:13:32Z</time></trkpt><trkpt lat="43.215126016398706" lon="11.761319052606124"><ele>257.0</ele><time>2026-05-02T16:13:33Z</time></trkpt><trkpt lat="43.2153147905212" lon="11.761131605122252"><ele>257.0</ele><time>2026-05-02T16:13:34Z</time></trkpt><trkpt lat="43.21550945116983" lon="11.760936406377962"><ele>256.5</ele><time>2026-05-02T16:13:35Z</time></trkpt><trkpt lat="43.21569955692242" lon="11.760737030080303"><ele>256.0</ele><time>2026-05-02T16:13:36Z</time></trkpt><trkpt lat="43.21589602966268" lon="11.76052806810309"><ele>256.0</ele><time>2026-05-02T16:13:37Z</time></trkpt><trkpt lat="43.21609556665896" lon="11.760312984245498"><ele>256.0</ele><time>2026-05-02T16:13:38Z</time></trkpt><trkpt lat="43.216296282673746" lon="11.760095628440888"><ele>255.5</ele><time>2026-05-02T16:13:39Z</time></trkpt><trkpt lat="43.21649362603607" lon="11.75988504343749"><ele>255.0</ele><time>2026-05-02T16:13:40Z</time></trkpt><trkpt lat="43.216689598574185" lon="11.759674781103925"><ele>255.0</ele><time>2026-05-02T16:13:41Z</time></trkpt><trkpt lat="43.216885185018604" lon="11.759463081114985"><ele>255.0</ele><time>2026-05-02T16:13:42Z</time></trkpt><trkpt lat="43.21707846134273" lon="11.75925531252595"><ele>255.0</ele><time>2026-05-02T16:13:43Z</time></trkpt><trkpt lat="43.217263837226135" lon="11.759054876986827"><ele>255.0</ele><time>2026-05-02T16:13:44Z</time></trkpt><trkpt lat="43.217438908022196" lon="11.758871938980272"><ele>255.66666666666669</ele><time>2026-05-02T16:13:45Z</time></trkpt><trkpt lat="43.217606967638616" lon="11.758704292406428"><ele>256.33333333333337</ele><time>2026-05-02T16:13:46Z</time></trkpt><trkpt lat="43.21777021420419" lon="11.758559997580527"><ele>257.0</ele><time>2026-05-02T16:13:47Z</time></trkpt><trkpt lat="43.217935894271186" lon="11.758429498377033"><ele>257.0</ele><time>2026-05-02T16:13:48Z</time></trkpt><trkpt lat="43.21811911627178" lon="11.75831111694122"><ele>257.0</ele><time>2026-05-02T16:13:49Z</time></trkpt><trkpt lat="43.21832005805561" lon="11.758209566488574"><ele>257.0</ele><time>2026-05-02T16:13:50Z</time></trkpt><trkpt lat="43.21852401163172" lon="11.758116417680371"><ele>257.5</ele><time>2026-05-02T16:13:51Z</time></trkpt><trkpt lat="43.2187424139343" lon="11.75801794597644"><ele>258.0</ele><time>2026-05-02T16:13:52Z</time></trkpt><trkpt lat="43.218955758306755" lon="11.757918635932326"><ele>257.6666666666667</ele><time>2026-05-02T16:13:53Z</time></trkpt><trkpt lat="43.21916278973893" lon="11.757816155969223"><ele>257.33333333333337</ele><time>2026-05-02T16:13:54Z</time></trkpt><trkpt lat="43.21935781079897" lon="11.757725219046776"><ele>257.0</ele><time>2026-05-02T16:13:55Z</time></trkpt><trkpt lat="43.21953446553103" lon="11.757642177494834"><ele>256.6666666666667</ele><time>2026-05-02T16:13:56Z</time></trkpt><trkpt lat="43.219704050491416" lon="11.757565176042903"><ele>256.3333333333333</ele><time>2026-05-02T16:13:57Z</time></trkpt><trkpt lat="43.219866740779935" lon="11.757493813519385"><ele>256.0</ele><time>2026-05-02T16:13:58Z</time></trkpt><trkpt lat="43.22001986209938" lon="11.757421937315733"><ele>256.0</ele><time>2026-05-02T16:13:59Z</time></trkpt><trkpt lat="43.2201615780328" lon="11.75735226217349"><ele>256.0</ele><time>2026-05-02T16:14:00Z</time></trkpt><trkpt lat="43.22029452794366" lon="11.757284174555167"><ele>256.0</ele><time>2026-05-02T16:14:01Z</time></trkpt><trkpt lat="43.22042223999852" lon="11.757225158735235"><ele>256.0</ele><time>2026-05-02T16:14:02Z</time></trkpt><trkpt lat="43.22055374644274" lon="11.757163806079372"><ele>256.25</ele><time>2026-05-02T16:14:03Z</time></trkpt><trkpt lat="43.22067872561338" lon="11.757102897440486"><ele>256.5</ele><time>2026-05-02T16:14:04Z</time></trkpt><trkpt lat="43.22079140430718" lon="11.757047987099062"><ele>256.75</ele><time>2026-05-02T16:14:05Z</time></trkpt><trkpt lat="43.22089010213273" lon="11.75700211469581"><ele>257.0</ele><time>2026-05-02T16:14:06Z</time></trkpt><trkpt lat="43.220980481152566" lon="11.756962009431366"><ele>257.0</ele><time>2026-05-02T16:14:07Z</time></trkpt><trkpt lat="43.221062935306556" lon="11.756939315315721"><ele>257.0</ele><time>2026-05-02T16:14:08Z</time></trkpt><trkpt lat="43.22114241770832" lon="11.75694137412262"><ele>257.0</ele><time>2026-05-02T16:14:09Z</time></trkpt><trkpt lat="43.221209679477624" lon="11.756924074925438"><ele>257.0</ele><time>2026-05-02T16:14:10Z</time></trkpt><trkpt lat="43.221272608343575" lon="11.75689830643943"><ele>257.0</ele><time>2026-05-02T16:14:11Z</time></trkpt><trkpt lat="43.221343140379425" lon="11.756873006932178"><ele>257.0</ele><time>2026-05-02T16:14:12Z</time></trkpt><trkpt lat="43.221487330643235" lon="11.7570835566296"><ele>257.0</ele><time>2026-05-02T16:14:13Z</time></trkpt><trkpt lat="43.22158092250411" lon="11.757067724062042"><ele>257.0</ele><time>2026-05-02T16:14:14Z</time></trkpt><trkpt lat="43.22165759685869" lon="11.75701149836079"><ele>257.0</ele><time>2026-05-02T16:14:15Z</time></trkpt><trkpt lat="43.2217224175397" lon="11.75692138990851"><ele>257.0</ele><time>2026-05-02T16:14:16Z</time></trkpt><trkpt lat="43.221768975196774" lon="11.756810478573131"><ele>257.0</ele><time>2026-05-02T16:14:17Z</time></trkpt><trkpt lat="43.22179112812241" lon="11.756673851513298"><ele>257.4</ele><time>2026-05-02T16:14:18Z</time></trkpt><trkpt lat="43.22178436757675" lon="11.75653682258387"><ele>257.79999999999995</ele><time>2026-05-02T16:14:19Z</time></trkpt><trkpt lat="43.221753220592355" lon="11.756402302332473"><ele>258.2</ele><time>2026-05-02T16:14:20Z</time></trkpt><trkpt lat="43.221713023294235" lon="11.756259441795516"><ele>258.59999999999997</ele><time>2026-05-02T16:14:21Z</time></trkpt><trkpt lat="43.22166143484065" lon="11.756116886190489"><ele>259.0</ele><time>2026-05-02T16:14:22Z</time></trkpt><trkpt lat="43.2215976938135" lon="11.75596986599138"><ele>259.0</ele><time>2026-05-02T16:14:23Z</time></trkpt><trkpt lat="43.22152814717267" lon="11.755827054695075"><ele>259.0</ele><time>2026-05-02T16:14:24Z</time></trkpt><trkpt lat="43.221465622738336" lon="11.75569330998725"><ele>259.0</ele><time>2026-05-02T16:14:25Z</time></trkpt><trkpt lat="43.22140548841407" lon="11.755569062027165"><ele>259.0</ele><time>2026-05-02T16:14:26Z</time></trkpt><trkpt lat="43.221348024040445" lon="11.755449918652682"><ele>258.8</ele><time>2026-05-02T16:14:27Z</time></trkpt><trkpt lat="43.2212917698195" lon="11.755327946982254"><ele>258.59999999999997</ele><time>2026-05-02T16:14:28Z</time></trkpt><trkpt lat="43.221235980996276" lon="11.755211637428184"><ele>258.4</ele><time>2026-05-02T16:14:29Z</time></trkpt><trkpt lat="43.22117917004072" lon="11.755101616732304"><ele>258.2</ele><time>2026-05-02T16:14:30Z</time></trkpt><trkpt lat="43.22113011154047" lon="11.75500440658683"><ele>258.0</ele><time>2026-05-02T16:14:31Z</time></trkpt><trkpt lat="43.221087934665924" lon="11.754916139698986"><ele>257.99999999999994</ele><time>2026-05-02T16:14:32Z</time></trkpt><trkpt lat="43.221062628278986" lon="11.754830167492198"><ele>258.0</ele><time>2026-05-02T16:14:33Z</time></trkpt><trkpt lat="43.221051422779055" lon="11.75474361580084"><ele>258.0</ele><time>2026-05-02T16:14:34Z</time></trkpt><trkpt lat="43.221049491277014" lon="11.754651559488309"><ele>258.0</ele><time>2026-05-02T16:14:35Z</time></trkpt><trkpt lat="43.2210664872868" lon="11.754566321778631"><ele>258.0</ele><time>2026-05-02T16:14:36Z</time></trkpt><trkpt lat="43.22110230047264" lon="11.75447380626226"><ele>257.99999999999994</ele><time>2026-05-02T16:14:37Z</time></trkpt><trkpt lat="43.2211637318722" lon="11.75439016771251"><ele>258.0</ele><time>2026-05-02T16:14:38Z</time></trkpt><trkpt lat="43.221244414298276" lon="11.754331038527129"><ele>258.0</ele><time>2026-05-02T16:14:39Z</time></trkpt><trkpt lat="43.2213430870043" lon="11.754282947643317"><ele>258.0</ele><time>2026-05-02T16:14:40Z</time></trkpt><trkpt lat="43.22144355373048" lon="11.75423806503493"><ele>258.0</ele><time>2026-05-02T16:14:41Z</time></trkpt><trkpt lat="43.2215479908188" lon="11.754191737176557"><ele>258.0</ele><time>2026-05-02T16:14:42Z</time></trkpt><trkpt lat="43.22165579907641" lon="11.754138997435021"><ele>258.0</ele><time>2026-05-02T16:14:43Z</time></trkpt><trkpt lat="43.221775183763036" lon="11.75407708038142"><ele>257.5</ele><time>2026-05-02T16:14:44Z</time></trkpt><trkpt lat="43.221897635980994" lon="11.754016255136976"><ele>257.0</ele><time>2026-05-02T16:14:45Z</time></trkpt><trkpt lat="43.22201613567508" lon="11.753954665554126"><ele>256.5</ele><time>2026-05-02T16:14:46Z</time></trkpt><trkpt lat="43.222135820031866" lon="11.753904293293452"><ele>256.0</ele><time>2026-05-02T16:14:47Z</time></trkpt><trkpt lat="43.22225578782002" lon="11.753861069261754"><ele>256.5</ele><time>2026-05-02T16:14:48Z</time></trkpt><trkpt lat="43.22238033135161" lon="11.75378032463332"><ele>257.0</ele><time>2026-05-02T16:14:49Z</time></trkpt><trkpt lat="43.22250143546894" lon="11.753719542574768"><ele>257.5</ele><time>2026-05-02T16:14:50Z</time></trkpt><trkpt lat="43.222609035249384" lon="11.75366536782245"><ele>258.0</ele><time>2026-05-02T16:14:51Z</time></trkpt><trkpt lat="43.22271067460012" lon="11.753609671981765"><ele>258.0</ele><time>2026-05-02T16:14:52Z</time></trkpt><trkpt lat="43.22281769545476" lon="11.753584802954437"><ele>258.0</ele><time>2026-05-02T16:14:53Z</time></trkpt><trkpt lat="43.22290100753245" lon="11.753534165849487"><ele>258.0</ele><time>2026-05-02T16:14:54Z</time></trkpt><trkpt lat="43.22299088601726" lon="11.75349776262012"><ele>258.0</ele><time>2026-05-02T16:14:55Z</time></trkpt><trkpt lat="43.22307947433882" lon="11.75345475806167"><ele>258.0</ele><time>2026-05-02T16:14:56Z</time></trkpt><trkpt lat="43.223176939730116" lon="11.753424548456225"><ele>258.0</ele><time>2026-05-02T16:14:57Z</time></trkpt><trkpt lat="43.22327712109523" lon="11.753405203734701"><ele>258.0</ele><time>2026-05-02T16:14:58Z</time></trkpt><trkpt lat="43.22337041346995" lon="11.753397919043891"><ele>258.0</ele><time>2026-05-02T16:14:59Z</time></trkpt><trkpt lat="43.22345274189385" lon="11.753409052975082"><ele>258.0</ele><time>2026-05-02T16:15:00Z</time></trkpt><trkpt lat="43.223524003555816" lon="11.753442674732005"><ele>258.0</ele><time>2026-05-02T16:15:01Z</time></trkpt><trkpt lat="43.22359834071556" lon="11.753507578039544"><ele>258.0</ele><time>2026-05-02T16:15:02Z</time></trkpt><trkpt lat="43.223672415398006" lon="11.753556520332058"><ele>258.0</ele><time>2026-05-02T16:15:03Z</time></trkpt><trkpt lat="43.22378953021438" lon="11.753517443163648"><ele>258.0</ele><time>2026-05-02T16:15:05Z</time></trkpt><trkpt lat="43.22384049043273" lon="11.753447595031208"><ele>258.0</ele><time>2026-05-02T16:15:06Z</time></trkpt><trkpt lat="43.223901638382536" lon="11.753330926792513"><ele>258.0</ele><time>2026-05-02T16:15:07Z</time></trkpt><trkpt lat="43.22398047284459" lon="11.753197424781188"><ele>258.0</ele><time>2026-05-02T16:15:08Z</time></trkpt><trkpt lat="43.2240867339319" lon="11.75305840513378"><ele>257.6666666666667</ele><time>2026-05-02T16:15:09Z</time></trkpt><trkpt lat="43.22420236881096" lon="11.752923895315357"><ele>257.33333333333337</ele><time>2026-05-02T16:15:10Z</time></trkpt><trkpt lat="43.22436222689444" lon="11.752844636993938"><ele>257.0</ele><time>2026-05-02T16:15:11Z</time></trkpt><trkpt lat="43.2245105790239" lon="11.752747825663482"><ele>257.33333333333337</ele><time>2026-05-02T16:15:12Z</time></trkpt><trkpt lat="43.22468189594071" lon="11.75268363639697"><ele>257.6666666666667</ele><time>2026-05-02T16:15:13Z</time></trkpt><trkpt lat="43.2248687978197" lon="11.752588578701026"><ele>258.0</ele><time>2026-05-02T16:15:14Z</time></trkpt><trkpt lat="43.22505828099603" lon="11.752495905597918"><ele>258.3333333333333</ele><time>2026-05-02T16:15:15Z</time></trkpt><trkpt lat="43.225247687083275" lon="11.75240851241606"><ele>258.66666666666663</ele><time>2026-05-02T16:15:16Z</time></trkpt><trkpt lat="43.22543774102675" lon="11.75231746962125"><ele>259.0</ele><time>2026-05-02T16:15:17Z</time></trkpt><trkpt lat="43.22562822047011" lon="11.752221935081684"><ele>259.0</ele><time>2026-05-02T16:15:18Z</time></trkpt><trkpt lat="43.22581719020965" lon="11.752130232427614"><ele>259.0</ele><time>2026-05-02T16:15:19Z</time></trkpt><trkpt lat="43.22599970879528" lon="11.752044129522643"><ele>259.0</ele><time>2026-05-02T16:15:20Z</time></trkpt><trkpt lat="43.22616934624016" lon="11.751962626489075"><ele>259.0</ele><time>2026-05-02T16:15:21Z</time></trkpt><trkpt lat="43.22633487635189" lon="11.751884148981508"><ele>259.0</ele><time>2026-05-02T16:15:22Z</time></trkpt><trkpt lat="43.226519043351644" lon="11.751794857858217"><ele>259.0</ele><time>2026-05-02T16:15:23Z</time></trkpt><trkpt lat="43.22672347087919" lon="11.751695947698206"><ele>259.0</ele><time>2026-05-02T16:15:24Z</time></trkpt><trkpt lat="43.22694306902302" lon="11.75160104572537"><ele>259.0</ele><time>2026-05-02T16:15:25Z</time></trkpt><trkpt lat="43.22715359363578" lon="11.751482650028638"><ele>258.0</ele><time>2026-05-02T16:15:26Z</time></trkpt><trkpt lat="43.22737613669193" lon="11.75137632825354"><ele>257.0</ele><time>2026-05-02T16:15:27Z</time></trkpt><trkpt lat="43.22760268782302" lon="11.751266303522762"><ele>257.0</ele><time>2026-05-02T16:15:28Z</time></trkpt><trkpt lat="43.227831627424514" lon="11.751155572315911"><ele>257.0</ele><time>2026-05-02T16:15:29Z</time></trkpt><trkpt lat="43.2280652942826" lon="11.751050069961869"><ele>257.0</ele><time>2026-05-02T16:15:30Z</time></trkpt><trkpt lat="43.228294678378354" lon="11.750929749486241"><ele>257.0</ele><time>2026-05-02T16:15:31Z</time></trkpt><trkpt lat="43.2285199375868" lon="11.750819795753362"><ele>257.0</ele><time>2026-05-02T16:15:32Z</time></trkpt><trkpt lat="43.22874124593963" lon="11.750714094801719"><ele>257.0</ele><time>2026-05-02T16:15:33Z</time></trkpt><trkpt lat="43.22894854967388" lon="11.750615501775192"><ele>257.33333333333337</ele><time>2026-05-02T16:15:34Z</time></trkpt><trkpt lat="43.229159750992665" lon="11.75051195595542"><ele>257.6666666666667</ele><time>2026-05-02T16:15:35Z</time></trkpt><trkpt lat="43.2293657799591" lon="11.750406052959532"><ele>258.0</ele><time>2026-05-02T16:15:36Z</time></trkpt><trkpt lat="43.22957151464343" lon="11.750298274590806"><ele>258.3333333333333</ele><time>2026-05-02T16:15:37Z</time></trkpt><trkpt lat="43.229777511211616" lon="11.750194952853066"><ele>258.66666666666663</ele><time>2026-05-02T16:15:38Z</time></trkpt><trkpt lat="43.22997869350899" lon="11.750093064790088"><ele>259.0</ele><time>2026-05-02T16:15:39Z</time></trkpt><trkpt lat="43.23017148873835" lon="11.749991895216338"><ele>259.3333333333333</ele><time>2026-05-02T16:15:40Z</time></trkpt><trkpt lat="43.23035683479291" lon="11.749892904043682"><ele>259.6666666666667</ele><time>2026-05-02T16:15:41Z</time></trkpt><trkpt lat="43.23054029601654" lon="11.749796501966074"><ele>260.0</ele><time>2026-05-02T16:15:42Z</time></trkpt><trkpt lat="43.230720118776176" lon="11.749704733734555"><ele>260.33333333333337</ele><time>2026-05-02T16:15:43Z</time></trkpt><trkpt lat="43.2308932126929" lon="11.749612883217617"><ele>260.6666666666667</ele><time>2026-05-02T16:15:44Z</time></trkpt><trkpt lat="43.23106101519194" lon="11.749525950137414"><ele>261.0</ele><time>2026-05-02T16:15:45Z</time></trkpt><trkpt lat="43.231205931608706" lon="11.749446619573176"><ele>261.0</ele><time>2026-05-02T16:15:46Z</time></trkpt><trkpt lat="43.23133856456214" lon="11.749381452551026"><ele>261.0</ele><time>2026-05-02T16:15:47Z</time></trkpt><trkpt lat="43.23146230812598" lon="11.749317530534844"><ele>261.0</ele><time>2026-05-02T16:15:48Z</time></trkpt><trkpt lat="43.23157767496892" lon="11.749258538640182"><ele>261.0</ele><time>2026-05-02T16:15:49Z</time></trkpt><trkpt lat="43.23168309130325" lon="11.749207571198292"><ele>260.8333333333333</ele><time>2026-05-02T16:15:50Z</time></trkpt><trkpt lat="43.23177847100593" lon="11.749152960923986"><ele>260.6666666666667</ele><time>2026-05-02T16:15:51Z</time></trkpt><trkpt lat="43.231854478419265" lon="11.749087189662735"><ele>260.5</ele><time>2026-05-02T16:15:52Z</time></trkpt><trkpt lat="43.23190944807809" lon="11.74900279232874"><ele>260.33333333333337</ele><time>2026-05-02T16:15:53Z</time></trkpt><trkpt lat="43.23194802394577" lon="11.74891134260942"><ele>260.1666666666667</ele><time>2026-05-02T16:15:54Z</time></trkpt><trkpt lat="43.23196315749616" lon="11.748816725077603"><ele>260.0</ele><time>2026-05-02T16:15:55Z</time></trkpt><trkpt lat="43.231979349125915" lon="11.748690669426429"><ele>260.0</ele><time>2026-05-02T16:15:57Z</time></trkpt><trkpt lat="43.23204020895203" lon="11.748609665456621"><ele>260.0</ele><time>2026-05-02T16:16:02Z</time></trkpt><trkpt lat="43.23214890014596" lon="11.748597528517298"><ele>260.0</ele><time>2026-05-02T16:16:04Z</time></trkpt><trkpt lat="43.23223834090814" lon="11.748639650895134"><ele>260.0</ele><time>2026-05-02T16:16:05Z</time></trkpt><trkpt lat="43.232336445825204" lon="11.748692707367516"><ele>260.0</ele><time>2026-05-02T16:16:06Z</time></trkpt><trkpt lat="43.23243330897243" lon="11.748736303243634"><ele>260.33333333333337</ele><time>2026-05-02T16:16:07Z</time></trkpt><trkpt lat="43.23252724921796" lon="11.748786419895547"><ele>260.6666666666667</ele><time>2026-05-02T16:16:08Z</time></trkpt><trkpt lat="43.23260746736846" lon="11.748824274393037"><ele>261.0</ele><time>2026-05-02T16:16:09Z</time></trkpt><trkpt lat="43.23267742937014" lon="11.748858523025612"><ele>261.3333333333333</ele><time>2026-05-02T16:16:10Z</time></trkpt><trkpt lat="43.232763299310875" lon="11.748899151354829"><ele>261.66666666666663</ele><time>2026-05-02T16:16:12Z</time></trkpt><trkpt lat="43.23285514170486" lon="11.748934958299005"><ele>262.0</ele><time>2026-05-02T16:16:16Z</time></trkpt><trkpt lat="43.23300694721477" lon="11.7490111392245"><ele>262.0</ele><time>2026-05-02T16:16:18Z</time></trkpt><trkpt lat="43.23311890267982" lon="11.749060644292795"><ele>262.0</ele><time>2026-05-02T16:16:19Z</time></trkpt><trkpt lat="43.23323906055542" lon="11.749110043006725"><ele>262.0</ele><time>2026-05-02T16:16:20Z</time></trkpt><trkpt lat="43.23336815162439" lon="11.749172195342348"><ele>262.0</ele><time>2026-05-02T16:16:21Z</time></trkpt><trkpt lat="43.233494689974535" lon="11.749259664638844"><ele>261.66666666666663</ele><time>2026-05-02T16:16:22Z</time></trkpt><trkpt lat="43.233609591044164" lon="11.749379203159853"><ele>261.3333333333333</ele><time>2026-05-02T16:16:23Z</time></trkpt><trkpt lat="43.23371825338252" lon="11.749543743387095"><ele>261.0</ele><time>2026-05-02T16:16:24Z</time></trkpt><trkpt lat="43.23382349752725" lon="11.74969780712259"><ele>261.0</ele><time>2026-05-02T16:16:25Z</time></trkpt><trkpt lat="43.23392868826178" lon="11.749818929204904"><ele>261.0</ele><time>2026-05-02T16:16:26Z</time></trkpt><trkpt lat="43.234058628731766" lon="11.749915348010461"><ele>261.0</ele><time>2026-05-02T16:16:27Z</time></trkpt><trkpt lat="43.23421390441242" lon="11.749974211460456"><ele>261.0</ele><time>2026-05-02T16:16:28Z</time></trkpt><trkpt lat="43.23438928133048" lon="11.750008124288877"><ele>261.0</ele><time>2026-05-02T16:16:29Z</time></trkpt><trkpt lat="43.23457802668876" lon="11.750047836519853"><ele>261.0</ele><time>2026-05-02T16:16:30Z</time></trkpt><trkpt lat="43.23477393740368" lon="11.750103333893058"><ele>261.0</ele><time>2026-05-02T16:16:31Z</time></trkpt><trkpt lat="43.23497613957877" lon="11.750162213331382"><ele>261.0</ele><time>2026-05-02T16:16:32Z</time></trkpt><trkpt lat="43.23518884149755" lon="11.750222385679903"><ele>261.0</ele><time>2026-05-02T16:16:33Z</time></trkpt><trkpt lat="43.23538654136578" lon="11.750276880102286"><ele>261.0</ele><time>2026-05-02T16:16:34Z</time></trkpt><trkpt lat="43.235568060174465" lon="11.75032958629237"><ele>261.0</ele><time>2026-05-02T16:16:35Z</time></trkpt><trkpt lat="43.23573737357922" lon="11.750379646679"><ele>261.0</ele><time>2026-05-02T16:16:36Z</time></trkpt><trkpt lat="43.235895851957274" lon="11.750425714045347"><ele>261.0</ele><time>2026-05-02T16:16:37Z</time></trkpt><trkpt lat="43.23603430940646" lon="11.750463965570589"><ele>261.0</ele><time>2026-05-02T16:16:38Z</time></trkpt><trkpt lat="43.2361558131842" lon="11.750492734967663"><ele>261.0</ele><time>2026-05-02T16:16:39Z</time></trkpt><trkpt lat="43.236269695358" lon="11.750477904481327"><ele>261.0</ele><time>2026-05-02T16:16:40Z</time></trkpt><trkpt lat="43.23637475683355" lon="11.750412419585253"><ele>261.0</ele><time>2026-05-02T16:16:41Z</time></trkpt><trkpt lat="43.23648017543075" lon="11.750284216470934"><ele>262.6666666666667</ele><time>2026-05-02T16:16:42Z</time></trkpt><trkpt lat="43.23658565390744" lon="11.750116550903144"><ele>264.33333333333337</ele><time>2026-05-02T16:16:43Z</time></trkpt><trkpt lat="43.23669980433095" lon="11.749946060858905"><ele>266.0</ele><time>2026-05-02T16:16:44Z</time></trkpt><trkpt lat="43.236837841193996" lon="11.749791570287083"><ele>266.0</ele><time>2026-05-02T16:16:45Z</time></trkpt><trkpt lat="43.23699108272419" lon="11.749655369196454"><ele>266.0</ele><time>2026-05-02T16:16:46Z</time></trkpt><trkpt lat="43.23716054672376" lon="11.749535866377569"><ele>266.0</ele><time>2026-05-02T16:16:47Z</time></trkpt><trkpt lat="43.237336748991076" lon="11.749414691308232"><ele>267.0</ele><time>2026-05-02T16:16:48Z</time></trkpt><trkpt lat="43.237516762586836" lon="11.749298569652572"><ele>268.0</ele><time>2026-05-02T16:16:49Z</time></trkpt><trkpt lat="43.23769807701703" lon="11.749187095795053"><ele>269.0</ele><time>2026-05-02T16:16:50Z</time></trkpt><trkpt lat="43.23787390718731" lon="11.749055675877578"><ele>269.0</ele><time>2026-05-02T16:16:51Z</time></trkpt><trkpt lat="43.23804285560767" lon="11.7489033896187"><ele>269.0</ele><time>2026-05-02T16:16:52Z</time></trkpt><trkpt lat="43.23820573277877" lon="11.748752033043655"><ele>269.0</ele><time>2026-05-02T16:16:53Z</time></trkpt><trkpt lat="43.238358667638565" lon="11.74861327177149"><ele>267.6666666666667</ele><time>2026-05-02T16:16:54Z</time></trkpt><trkpt lat="43.23849970763602" lon="11.748490756135686"><ele>266.3333333333333</ele><time>2026-05-02T16:16:55Z</time></trkpt><trkpt lat="43.238633581954964" lon="11.748378016795817"><ele>265.0</ele><time>2026-05-02T16:16:56Z</time></trkpt><trkpt lat="43.238759763731586" lon="11.74828529059477"><ele>265.0</ele><time>2026-05-02T16:16:57Z</time></trkpt><trkpt lat="43.23887826189355" lon="11.748201918251867"><ele>265.0</ele><time>2026-05-02T16:16:58Z</time></trkpt><trkpt lat="43.23899055638775" lon="11.7481345181597"><ele>265.0</ele><time>2026-05-02T16:16:59Z</time></trkpt><trkpt lat="43.23910170638751" lon="11.748081334153278"><ele>265.0</ele><time>2026-05-02T16:17:00Z</time></trkpt><trkpt lat="43.23921884820836" lon="11.748007864496765"><ele>264.75</ele><time>2026-05-02T16:17:01Z</time></trkpt><trkpt lat="43.2393449843054" lon="11.747931997554895"><ele>264.5</ele><time>2026-05-02T16:17:02Z</time></trkpt><trkpt lat="43.23947525991223" lon="11.747852747863218"><ele>264.25</ele><time>2026-05-02T16:17:03Z</time></trkpt><trkpt lat="43.23961642855775" lon="11.747761283361022"><ele>264.0</ele><time>2026-05-02T16:17:04Z</time></trkpt><trkpt lat="43.239770938357545" lon="11.747663556750831"><ele>264.6666666666667</ele><time>2026-05-02T16:17:05Z</time></trkpt><trkpt lat="43.23992136975134" lon="11.747569890693041"><ele>265.33333333333337</ele><time>2026-05-02T16:17:06Z</time></trkpt><trkpt lat="43.24007182459816" lon="11.74747610731254"><ele>266.0</ele><time>2026-05-02T16:17:07Z</time></trkpt><trkpt lat="43.24022853179464" lon="11.74737651072952"><ele>266.0</ele><time>2026-05-02T16:17:08Z</time></trkpt><trkpt lat="43.24039129067215" lon="11.74727817048975"><ele>266.0</ele><time>2026-05-02T16:17:09Z</time></trkpt><trkpt lat="43.240560506578426" lon="11.74718714503241"><ele>266.0</ele><time>2026-05-02T16:17:10Z</time></trkpt><trkpt lat="43.240731209874035" lon="11.747101605592347"><ele>265.6666666666667</ele><time>2026-05-02T16:17:11Z</time></trkpt><trkpt lat="43.24089804759542" lon="11.747018795361795"><ele>265.3333333333333</ele><time>2026-05-02T16:17:12Z</time></trkpt><trkpt lat="43.24105106599321" lon="11.746941694275236"><ele>265.0</ele><time>2026-05-02T16:17:13Z</time></trkpt><trkpt lat="43.2411931111703" lon="11.746868146982456"><ele>265.0</ele><time>2026-05-02T16:17:14Z</time></trkpt><trkpt lat="43.24133519261199" lon="11.746793395052896"><ele>265.0</ele><time>2026-05-02T16:17:15Z</time></trkpt><trkpt lat="43.24148946679429" lon="11.746712893680536"><ele>265.0</ele><time>2026-05-02T16:17:16Z</time></trkpt><trkpt lat="43.24165332385959" lon="11.746625827706909"><ele>264.66666666666663</ele><time>2026-05-02T16:17:17Z</time></trkpt><trkpt lat="43.24182705284024" lon="11.746536591715959"><ele>264.3333333333333</ele><time>2026-05-02T16:17:18Z</time></trkpt><trkpt lat="43.24199690668155" lon="11.746458975320103"><ele>264.0</ele><time>2026-05-02T16:17:19Z</time></trkpt><trkpt lat="43.24215368474921" lon="11.746399521375771"><ele>265.0</ele><time>2026-05-02T16:17:20Z</time></trkpt><trkpt lat="43.24229875084024" lon="11.746366559834888"><ele>266.0</ele><time>2026-05-02T16:17:21Z</time></trkpt><trkpt lat="43.24244302009634" lon="11.746327785466754"><ele>267.0</ele><time>2026-05-02T16:17:22Z</time></trkpt><trkpt lat="43.24260224008867" lon="11.746266378850267"><ele>267.0</ele><time>2026-05-02T16:17:23Z</time></trkpt><trkpt lat="43.24276474094347" lon="11.746214137815894"><ele>267.0</ele><time>2026-05-02T16:17:24Z</time></trkpt><trkpt lat="43.24293035410628" lon="11.746163774972095"><ele>267.0</ele><time>2026-05-02T16:17:25Z</time></trkpt><trkpt lat="43.2430898900396" lon="11.746106200723286"><ele>266.6666666666667</ele><time>2026-05-02T16:17:26Z</time></trkpt><trkpt lat="43.243245338723554" lon="11.746037992291178"><ele>266.33333333333337</ele><time>2026-05-02T16:17:27Z</time></trkpt><trkpt lat="43.24339762227876" lon="11.745968453350951"><ele>266.0</ele><time>2026-05-02T16:17:28Z</time></trkpt><trkpt lat="43.24354591869996" lon="11.745896876441627"><ele>266.0</ele><time>2026-05-02T16:17:29Z</time></trkpt><trkpt lat="43.243700146642524" lon="11.74583290900948"><ele>266.0</ele><time>2026-05-02T16:17:30Z</time></trkpt><trkpt lat="43.243857525580815" lon="11.745769459922771"><ele>266.0</ele><time>2026-05-02T16:17:31Z</time></trkpt><trkpt lat="43.24401970050258" lon="11.74573494775118"><ele>266.0</ele><time>2026-05-02T16:17:32Z</time></trkpt><trkpt lat="43.24418405357031" lon="11.745703057349939"><ele>266.0</ele><time>2026-05-02T16:17:33Z</time></trkpt><trkpt lat="43.24435225655396" lon="11.74566118909532"><ele>266.0</ele><time>2026-05-02T16:17:34Z</time></trkpt><trkpt lat="43.24452171831346" lon="11.74563551485088"><ele>266.0</ele><time>2026-05-02T16:17:35Z</time></trkpt><trkpt lat="43.24468713539606" lon="11.745624332808175"><ele>266.0</ele><time>2026-05-02T16:17:36Z</time></trkpt><trkpt lat="43.24484696861058" lon="11.74561511787311"><ele>266.0</ele><time>2026-05-02T16:17:37Z</time></trkpt><trkpt lat="43.244994780777475" lon="11.745617151279896"><ele>265.75</ele><time>2026-05-02T16:17:38Z</time></trkpt><trkpt lat="43.24513236695732" lon="11.74561515648358"><ele>265.5</ele><time>2026-05-02T16:17:39Z</time></trkpt><trkpt lat="43.24526354780971" lon="11.745608158389945"><ele>265.25</ele><time>2026-05-02T16:17:40Z</time></trkpt><trkpt lat="43.24539201599899" lon="11.745599383008539"><ele>265.0</ele><time>2026-05-02T16:17:41Z</time></trkpt><trkpt lat="43.24552249542151" lon="11.745590623997808"><ele>265.25</ele><time>2026-05-02T16:17:42Z</time></trkpt><trkpt lat="43.24565392310391" lon="11.745581817422009"><ele>265.5</ele><time>2026-05-02T16:17:43Z</time></trkpt><trkpt lat="43.24577886618268" lon="11.745565694653264"><ele>265.75</ele><time>2026-05-02T16:17:44Z</time></trkpt><trkpt lat="43.24590073576253" lon="11.745519355979955"><ele>266.0</ele><time>2026-05-02T16:17:45Z</time></trkpt><trkpt lat="43.24602522499369" lon="11.745440071797198"><ele>266.0</ele><time>2026-05-02T16:17:46Z</time></trkpt><trkpt lat="43.24615727674263" lon="11.745325722774277"><ele>266.0</ele><time>2026-05-02T16:17:47Z</time></trkpt><trkpt lat="43.246293205707694" lon="11.74518725389277"><ele>266.0</ele><time>2026-05-02T16:17:48Z</time></trkpt><trkpt lat="43.24643163925997" lon="11.745057933869973"><ele>266.0</ele><time>2026-05-02T16:17:49Z</time></trkpt><trkpt lat="43.246562920385266" lon="11.744930069335831"><ele>266.0</ele><time>2026-05-02T16:17:50Z</time></trkpt><trkpt lat="43.24669754819682" lon="11.74479335356755"><ele>266.0</ele><time>2026-05-02T16:17:51Z</time></trkpt><trkpt lat="43.24682397023995" lon="11.744659991929506"><ele>266.0</ele><time>2026-05-02T16:17:52Z</time></trkpt><trkpt lat="43.24694983032654" lon="11.744526408263496"><ele>266.0</ele><time>2026-05-02T16:17:53Z</time></trkpt><trkpt lat="43.247070652084645" lon="11.744399145936528"><ele>266.0</ele><time>2026-05-02T16:17:54Z</time></trkpt><trkpt lat="43.24718810315075" lon="11.744270811503322"><ele>265.33333333333337</ele><time>2026-05-02T16:17:55Z</time></trkpt><trkpt lat="43.247310433956635" lon="11.744140969300238"><ele>264.6666666666667</ele><time>2026-05-02T16:17:56Z</time></trkpt><trkpt lat="43.24743285945613" lon="11.744008292153303"><ele>264.0</ele><time>2026-05-02T16:17:57Z</time></trkpt><trkpt lat="43.247558343626125" lon="11.743899707551897"><ele>264.0</ele><time>2026-05-02T16:17:58Z</time></trkpt><trkpt lat="43.24767941905295" lon="11.743775044399243"><ele>264.0</ele><time>2026-05-02T16:17:59Z</time></trkpt><trkpt lat="43.24780171151879" lon="11.743666068523694"><ele>264.0</ele><time>2026-05-02T16:18:00Z</time></trkpt><trkpt lat="43.24793072174357" lon="11.743553266534912"><ele>264.3333333333333</ele><time>2026-05-02T16:18:01Z</time></trkpt><trkpt lat="43.24806510491829" lon="11.743455444601416"><ele>264.66666666666663</ele><time>2026-05-02T16:18:02Z</time></trkpt><trkpt lat="43.248206695855615" lon="11.743385072436192"><ele>265.0</ele><time>2026-05-02T16:18:03Z</time></trkpt><trkpt lat="43.24835844348056" lon="11.743361293980694"><ele>265.0</ele><time>2026-05-02T16:18:04Z</time></trkpt><trkpt lat="43.248509169399284" lon="11.743310394245714"><ele>265.0</ele><time>2026-05-02T16:18:05Z</time></trkpt><trkpt lat="43.24865990302192" lon="11.743276802451158"><ele>265.0</ele><time>2026-05-02T16:18:06Z</time></trkpt><trkpt lat="43.24881327613043" lon="11.743232964765236"><ele>265.0</ele><time>2026-05-02T16:18:07Z</time></trkpt><trkpt lat="43.24895244128084" lon="11.743235104530983"><ele>265.0</ele><time>2026-05-02T16:18:08Z</time></trkpt><trkpt lat="43.24912696005389" lon="11.743204806571802"><ele>265.0</ele><time>2026-05-02T16:18:09Z</time></trkpt><trkpt lat="43.24927346741256" lon="11.743208424462416"><ele>265.25</ele><time>2026-05-02T16:18:10Z</time></trkpt><trkpt lat="43.24941631599663" lon="11.74322123447437"><ele>265.5</ele><time>2026-05-02T16:18:11Z</time></trkpt><trkpt lat="43.2495561605646" lon="11.743235376944387"><ele>265.75</ele><time>2026-05-02T16:18:12Z</time></trkpt><trkpt lat="43.249695245931086" lon="11.74324181038723"><ele>266.0</ele><time>2026-05-02T16:18:13Z</time></trkpt><trkpt lat="43.24982742032801" lon="11.743258386385477"><ele>267.0</ele><time>2026-05-02T16:18:14Z</time></trkpt><trkpt lat="43.24996398236235" lon="11.743279746278503"><ele>268.0</ele><time>2026-05-02T16:18:15Z</time></trkpt><trkpt lat="43.250101439086485" lon="11.743317962320619"><ele>269.0</ele><time>2026-05-02T16:18:16Z</time></trkpt><trkpt lat="43.25024046980556" lon="11.743340059919383"><ele>270.0</ele><time>2026-05-02T16:18:17Z</time></trkpt><trkpt lat="43.25038245981911" lon="11.743367961457887"><ele>270.0</ele><time>2026-05-02T16:18:18Z</time></trkpt><trkpt lat="43.25052318451126" lon="11.743391659873136"><ele>270.0</ele><time>2026-05-02T16:18:19Z</time></trkpt><trkpt lat="43.25067214610593" lon="11.743382694480099"><ele>270.0</ele><time>2026-05-02T16:18:20Z</time></trkpt><trkpt lat="43.25082396141383" lon="11.743346637044706"><ele>270.0</ele><time>2026-05-02T16:18:21Z</time></trkpt><trkpt lat="43.25098015653495" lon="11.743304237582873"><ele>270.0</ele><time>2026-05-02T16:18:22Z</time></trkpt><trkpt lat="43.25113637734945" lon="11.743260401219658"><ele>270.0</ele><time>2026-05-02T16:18:23Z</time></trkpt><trkpt lat="43.251289678532856" lon="11.743224954395174"><ele>270.0</ele><time>2026-05-02T16:18:24Z</time></trkpt><trkpt lat="43.25143865585557" lon="11.74318575378415"><ele>269.3333333333333</ele><time>2026-05-02T16:18:25Z</time></trkpt><trkpt lat="43.25158912892038" lon="11.743144530663315"><ele>268.66666666666663</ele><time>2026-05-02T16:18:26Z</time></trkpt><trkpt lat="43.251739796392805" lon="11.743120481344034"><ele>268.0</ele><time>2026-05-02T16:18:27Z</time></trkpt><trkpt lat="43.2518868615819" lon="11.743140182469691"><ele>268.0</ele><time>2026-05-02T16:18:28Z</time></trkpt><trkpt lat="43.2520349810501" lon="11.743155399186916"><ele>268.0</ele><time>2026-05-02T16:18:29Z</time></trkpt><trkpt lat="43.25216189135237" lon="11.743179835615999"><ele>268.0</ele><time>2026-05-02T16:18:30Z</time></trkpt><trkpt lat="43.252286928659984" lon="11.743218661699846"><ele>268.0</ele><time>2026-05-02T16:18:31Z</time></trkpt><trkpt lat="43.25239879284656" lon="11.743266069786058"><ele>268.25</ele><time>2026-05-02T16:18:32Z</time></trkpt><trkpt lat="43.25250770675271" lon="11.743337036604384"><ele>268.5</ele><time>2026-05-02T16:18:33Z</time></trkpt><trkpt lat="43.252604483188875" lon="11.743431230753403"><ele>268.75</ele><time>2026-05-02T16:18:34Z</time></trkpt><trkpt lat="43.252703866663296" lon="11.74355309166783"><ele>269.0</ele><time>2026-05-02T16:18:35Z</time></trkpt><trkpt lat="43.25274772758457" lon="11.743744419694872"><ele>270.33333333333337</ele><time>2026-05-02T16:18:36Z</time></trkpt><trkpt lat="43.25281122140161" lon="11.743936702475953"><ele>271.6666666666667</ele><time>2026-05-02T16:18:37Z</time></trkpt><trkpt lat="43.2528770967753" lon="11.74414007510656"><ele>273.0</ele><time>2026-05-02T16:18:38Z</time></trkpt><trkpt lat="43.252955851739415" lon="11.744334511307919"><ele>273.75</ele><time>2026-05-02T16:18:39Z</time></trkpt><trkpt lat="43.25301378357502" lon="11.74453689538688"><ele>274.5</ele><time>2026-05-02T16:18:40Z</time></trkpt><trkpt lat="43.25307276818786" lon="11.744708499799955"><ele>275.25</ele><time>2026-05-02T16:18:41Z</time></trkpt><trkpt lat="43.25313231822353" lon="11.744869038146422"><ele>276.0</ele><time>2026-05-02T16:18:42Z</time></trkpt><trkpt lat="43.25319350277794" lon="11.745039770676012"><ele>274.75</ele><time>2026-05-02T16:18:43Z</time></trkpt><trkpt lat="43.25325419273579" lon="11.745212533406521"><ele>273.5</ele><time>2026-05-02T16:18:44Z</time></trkpt><trkpt lat="43.25331912108503" lon="11.745391164373212"><ele>272.25</ele><time>2026-05-02T16:18:45Z</time></trkpt><trkpt lat="43.253391674185586" lon="11.74556510598125"><ele>271.0</ele><time>2026-05-02T16:18:46Z</time></trkpt><trkpt lat="43.25346862681557" lon="11.745732642833767"><ele>271.0</ele><time>2026-05-02T16:18:47Z</time></trkpt><trkpt lat="43.253578517251654" lon="11.74588875830266"><ele>271.0</ele><time>2026-05-02T16:18:48Z</time></trkpt><trkpt lat="43.25369797887901" lon="11.746013228947263"><ele>271.0</ele><time>2026-05-02T16:18:49Z</time></trkpt><trkpt lat="43.25383173169359" lon="11.746124458615636"><ele>271.0</ele><time>2026-05-02T16:18:50Z</time></trkpt><trkpt lat="43.25397688672655" lon="11.74621992333302"><ele>271.0</ele><time>2026-05-02T16:18:51Z</time></trkpt><trkpt lat="43.25411278940816" lon="11.746312559787055"><ele>271.0</ele><time>2026-05-02T16:18:52Z</time></trkpt><trkpt lat="43.254248600812865" lon="11.74641571588505"><ele>271.0</ele><time>2026-05-02T16:18:53Z</time></trkpt><trkpt lat="43.25438534463329" lon="11.746516716049703"><ele>271.0</ele><time>2026-05-02T16:18:54Z</time></trkpt><trkpt lat="43.254513154801735" lon="11.746635118964818"><ele>271.0</ele><time>2026-05-02T16:18:55Z</time></trkpt><trkpt lat="43.254645517028315" lon="11.746740417467985"><ele>270.66666666666663</ele><time>2026-05-02T16:18:56Z</time></trkpt><trkpt lat="43.25478807346921" lon="11.74683593697473"><ele>270.3333333333333</ele><time>2026-05-02T16:18:57Z</time></trkpt><trkpt lat="43.254922099208905" lon="11.746948792681835"><ele>270.0</ele><time>2026-05-02T16:18:58Z</time></trkpt><trkpt lat="43.25505354187752" lon="11.747057982955235"><ele>271.6666666666667</ele><time>2026-05-02T16:18:59Z</time></trkpt><trkpt lat="43.25518504457718" lon="11.747169767116887"><ele>273.33333333333337</ele><time>2026-05-02T16:19:00Z</time></trkpt><trkpt lat="43.25532243265788" lon="11.747278228889815"><ele>275.0</ele><time>2026-05-02T16:19:01Z</time></trkpt><trkpt lat="43.25546471209533" lon="11.747388761538327"><ele>275.0</ele><time>2026-05-02T16:19:02Z</time></trkpt><trkpt lat="43.255564214917705" lon="11.747499233084257"><ele>275.0</ele><time>2026-05-02T16:19:03Z</time></trkpt><trkpt lat="43.25572102569836" lon="11.747639418038254"><ele>275.0</ele><time>2026-05-02T16:19:04Z</time></trkpt><trkpt lat="43.25585901551865" lon="11.747778294547974"><ele>276.33333333333337</ele><time>2026-05-02T16:19:05Z</time></trkpt><trkpt lat="43.255985820446114" lon="11.747918900408155"><ele>277.6666666666667</ele><time>2026-05-02T16:19:06Z</time></trkpt><trkpt lat="43.25613207440507" lon="11.748063547590412"><ele>279.0</ele><time>2026-05-02T16:19:07Z</time></trkpt><trkpt lat="43.25626730479804" lon="11.74818606215562"><ele>279.0</ele><time>2026-05-02T16:19:08Z</time></trkpt><trkpt lat="43.2564119123936" lon="11.748284413141674"><ele>279.0</ele><time>2026-05-02T16:19:09Z</time></trkpt><trkpt lat="43.25656028702229" lon="11.748356576882168"><ele>279.0</ele><time>2026-05-02T16:19:10Z</time></trkpt><trkpt lat="43.25672015618162" lon="11.748409491249458"><ele>278.6666666666667</ele><time>2026-05-02T16:19:11Z</time></trkpt><trkpt lat="43.25687885844921" lon="11.748467311767776"><ele>278.33333333333337</ele><time>2026-05-02T16:19:12Z</time></trkpt><trkpt lat="43.25704641704969" lon="11.748525544520609"><ele>278.0</ele><time>2026-05-02T16:19:13Z</time></trkpt><trkpt lat="43.257218283515556" lon="11.748584610755413"><ele>277.6666666666667</ele><time>2026-05-02T16:19:14Z</time></trkpt><trkpt lat="43.2573797707461" lon="11.74864292941309"><ele>277.3333333333333</ele><time>2026-05-02T16:19:15Z</time></trkpt><trkpt lat="43.25752969980821" lon="11.748711794973493"><ele>277.0</ele><time>2026-05-02T16:19:16Z</time></trkpt><trkpt lat="43.25767657377429" lon="11.748785888579649"><ele>277.0</ele><time>2026-05-02T16:19:17Z</time></trkpt><trkpt lat="43.25782208323357" lon="11.748862200574274"><ele>277.0</ele><time>2026-05-02T16:19:18Z</time></trkpt><trkpt lat="43.25796495346624" lon="11.74894022221506"><ele>277.0</ele><time>2026-05-02T16:19:19Z</time></trkpt><trkpt lat="43.25810825029904" lon="11.74901515132358"><ele>276.75</ele><time>2026-05-02T16:19:20Z</time></trkpt><trkpt lat="43.25823674572951" lon="11.749079959741229"><ele>276.5</ele><time>2026-05-02T16:19:21Z</time></trkpt><trkpt lat="43.2583461845551" lon="11.749169233679973"><ele>276.25</ele><time>2026-05-02T16:19:22Z</time></trkpt><trkpt lat="43.25844288511554" lon="11.749253024452123"><ele>276.0</ele><time>2026-05-02T16:19:23Z</time></trkpt><trkpt lat="43.25853039894664" lon="11.749331787838198"><ele>276.5</ele><time>2026-05-02T16:19:24Z</time></trkpt><trkpt lat="43.25861661746015" lon="11.749389110505893"><ele>277.0</ele><time>2026-05-02T16:19:25Z</time></trkpt><trkpt lat="43.25869023912982" lon="11.74946644078274"><ele>277.5</ele><time>2026-05-02T16:19:26Z</time></trkpt><trkpt lat="43.25875656732366" lon="11.749537488748054"><ele>278.0</ele><time>2026-05-02T16:19:27Z</time></trkpt><trkpt lat="43.25882271708259" lon="11.749597955224989"><ele>278.5</ele><time>2026-05-02T16:19:28Z</time></trkpt><trkpt lat="43.258882598767705" lon="11.749653586971512"><ele>279.0</ele><time>2026-05-02T16:19:29Z</time></trkpt><trkpt lat="43.2589339782045" lon="11.749716267751742"><ele>278.5</ele><time>2026-05-02T16:19:30Z</time></trkpt><trkpt lat="43.259001497936474" lon="11.749779722524748"><ele>278.0</ele><time>2026-05-02T16:19:31Z</time></trkpt><trkpt lat="43.259102127844834" lon="11.749846662267851"><ele>277.5</ele><time>2026-05-02T16:19:32Z</time></trkpt><trkpt lat="43.25921519879765" lon="11.74996057547809"><ele>277.0</ele><time>2026-05-02T16:19:33Z</time></trkpt><trkpt lat="43.25933783835663" lon="11.750079218112981"><ele>277.66666666666663</ele><time>2026-05-02T16:19:34Z</time></trkpt><trkpt lat="43.25947449785778" lon="11.75020977623237"><ele>278.3333333333333</ele><time>2026-05-02T16:19:35Z</time></trkpt><trkpt lat="43.25961742788434" lon="11.750345981907214"><ele>279.0</ele><time>2026-05-02T16:19:36Z</time></trkpt><trkpt lat="43.259762930650076" lon="11.750484563379413"><ele>279.0</ele><time>2026-05-02T16:19:37Z</time></trkpt><trkpt lat="43.2598965331984" lon="11.750614235906719"><ele>279.0</ele><time>2026-05-02T16:19:38Z</time></trkpt><trkpt lat="43.260014746064655" lon="11.750722155342967"><ele>279.0</ele><time>2026-05-02T16:19:39Z</time></trkpt><trkpt lat="43.26012390507696" lon="11.750819809608195"><ele>279.0</ele><time>2026-05-02T16:19:40Z</time></trkpt><trkpt lat="43.26023443702221" lon="11.75090151684553"><ele>279.0</ele><time>2026-05-02T16:19:41Z</time></trkpt><trkpt lat="43.26036295847634" lon="11.75095773376303"><ele>279.0</ele><time>2026-05-02T16:19:42Z</time></trkpt><trkpt lat="43.26051735117512" lon="11.750976064714356"><ele>279.0</ele><time>2026-05-02T16:19:43Z</time></trkpt><trkpt lat="43.260690157228034" lon="11.750980888689037"><ele>279.0</ele><time>2026-05-02T16:19:44Z</time></trkpt><trkpt lat="43.26087499619942" lon="11.750986775428313"><ele>279.0</ele><time>2026-05-02T16:19:45Z</time></trkpt><trkpt lat="43.261066966969835" lon="11.750994899411932"><ele>279.0</ele><time>2026-05-02T16:19:46Z</time></trkpt><trkpt lat="43.26127121741258" lon="11.751007155241867"><ele>280.6666666666667</ele><time>2026-05-02T16:19:47Z</time></trkpt><trkpt lat="43.26147473296837" lon="11.751024974258204"><ele>282.33333333333337</ele><time>2026-05-02T16:19:48Z</time></trkpt><trkpt lat="43.26168732804947" lon="11.75104079579782"><ele>284.0</ele><time>2026-05-02T16:19:49Z</time></trkpt><trkpt lat="43.261898246354974" lon="11.75105640674137"><ele>284.0</ele><time>2026-05-02T16:19:50Z</time></trkpt><trkpt lat="43.26209765151618" lon="11.751069800890258"><ele>284.0</ele><time>2026-05-02T16:19:51Z</time></trkpt><trkpt lat="43.262283898154976" lon="11.751081155756046"><ele>284.0</ele><time>2026-05-02T16:19:52Z</time></trkpt><trkpt lat="43.26246960445431" lon="11.751095780755367"><ele>286.33333333333337</ele><time>2026-05-02T16:19:53Z</time></trkpt><trkpt lat="43.26266125053712" lon="11.751104978940878"><ele>288.6666666666667</ele><time>2026-05-02T16:19:54Z</time></trkpt><trkpt lat="43.262850078686554" lon="11.75111610912317"><ele>291.0</ele><time>2026-05-02T16:19:55Z</time></trkpt><trkpt lat="43.26303179671249" lon="11.751128709020165"><ele>291.6666666666667</ele><time>2026-05-02T16:19:56Z</time></trkpt><trkpt lat="43.26319674615607" lon="11.751136592547864"><ele>292.33333333333337</ele><time>2026-05-02T16:19:57Z</time></trkpt><trkpt lat="43.263347172973575" lon="11.751144459065573"><ele>293.0</ele><time>2026-05-02T16:19:58Z</time></trkpt><trkpt lat="43.263497684174894" lon="11.751149142358091"><ele>293.0</ele><time>2026-05-02T16:19:59Z</time></trkpt><trkpt lat="43.263652770801656" lon="11.751137785734393"><ele>293.0</ele><time>2026-05-02T16:20:00Z</time></trkpt><trkpt lat="43.26381149952692" lon="11.751116078767355"><ele>293.0</ele><time>2026-05-02T16:20:01Z</time></trkpt><trkpt lat="43.26395646965061" lon="11.751081858977182"><ele>294.0</ele><time>2026-05-02T16:20:02Z</time></trkpt><trkpt lat="43.264101529131615" lon="11.751028970642787"><ele>295.0</ele><time>2026-05-02T16:20:03Z</time></trkpt><trkpt lat="43.26425296931546" lon="11.750945376213943"><ele>296.0</ele><time>2026-05-02T16:20:04Z</time></trkpt><trkpt lat="43.264406383605284" lon="11.750834556731633"><ele>296.0</ele><time>2026-05-02T16:20:05Z</time></trkpt><trkpt lat="43.26456484527886" lon="11.750722578470631"><ele>296.0</ele><time>2026-05-02T16:20:06Z</time></trkpt><trkpt lat="43.264711603053875" lon="11.750625388958595"><ele>296.0</ele><time>2026-05-02T16:20:07Z</time></trkpt><trkpt lat="43.26485339822455" lon="11.750564403750868"><ele>298.33333333333337</ele><time>2026-05-02T16:20:08Z</time></trkpt><trkpt lat="43.26499646286763" lon="11.750510848672016"><ele>300.6666666666667</ele><time>2026-05-02T16:20:09Z</time></trkpt><trkpt lat="43.26516327813846" lon="11.750482952046138"><ele>303.0</ele><time>2026-05-02T16:20:10Z</time></trkpt><trkpt lat="43.26535183041612" lon="11.750468086188453"><ele>303.0</ele><time>2026-05-02T16:20:11Z</time></trkpt><trkpt lat="43.26555207066492" lon="11.750429770511966"><ele>303.0</ele><time>2026-05-02T16:20:12Z</time></trkpt><trkpt lat="43.26576258942416" lon="11.750415916265524"><ele>303.0</ele><time>2026-05-02T16:20:13Z</time></trkpt><trkpt lat="43.265973381281945" lon="11.750393764958647"><ele>304.6666666666667</ele><time>2026-05-02T16:20:14Z</time></trkpt><trkpt lat="43.26617938754315" lon="11.750390900531634"><ele>306.33333333333337</ele><time>2026-05-02T16:20:15Z</time></trkpt><trkpt lat="43.26638288159551" lon="11.750349176949431"><ele>308.0</ele><time>2026-05-02T16:20:16Z</time></trkpt><trkpt lat="43.2665871563402" lon="11.750329494341466"><ele>309.0</ele><time>2026-05-02T16:20:17Z</time></trkpt><trkpt lat="43.26679138356146" lon="11.750309584094646"><ele>310.0</ele><time>2026-05-02T16:20:18Z</time></trkpt><trkpt lat="43.266993878974674" lon="11.750305812212039"><ele>311.0</ele><time>2026-05-02T16:20:19Z</time></trkpt><trkpt lat="43.26719096571628" lon="11.750265692050931"><ele>310.6666666666667</ele><time>2026-05-02T16:20:20Z</time></trkpt><trkpt lat="43.26739190743824" lon="11.750245376039066"><ele>310.3333333333333</ele><time>2026-05-02T16:20:21Z</time></trkpt><trkpt lat="43.267591174083734" lon="11.750228932109758"><ele>310.0</ele><time>2026-05-02T16:20:22Z</time></trkpt><trkpt lat="43.26779107388879" lon="11.750208851739472"><ele>310.0</ele><time>2026-05-02T16:20:23Z</time></trkpt><trkpt lat="43.2679821280665" lon="11.75020943381536"><ele>310.0</ele><time>2026-05-02T16:20:24Z</time></trkpt><trkpt lat="43.26816814366922" lon="11.750190788372024"><ele>310.0</ele><time>2026-05-02T16:20:25Z</time></trkpt><trkpt lat="43.26834287131053" lon="11.750173787894031"><ele>311.3333333333333</ele><time>2026-05-02T16:20:26Z</time></trkpt><trkpt lat="43.26851421817624" lon="11.750135685344365"><ele>312.6666666666667</ele><time>2026-05-02T16:20:27Z</time></trkpt><trkpt lat="43.268689532277996" lon="11.750128910437198"><ele>314.0</ele><time>2026-05-02T16:20:28Z</time></trkpt><trkpt lat="43.2688632599336" lon="11.750106125947356"><ele>316.0</ele><time>2026-05-02T16:20:29Z</time></trkpt><trkpt lat="43.269021577921244" lon="11.750122883696614"><ele>318.0</ele><time>2026-05-02T16:20:30Z</time></trkpt><trkpt lat="43.26917372432165" lon="11.750140257703105"><ele>320.0</ele><time>2026-05-02T16:20:31Z</time></trkpt><trkpt lat="43.26933179714546" lon="11.750160894467738"><ele>319.0</ele><time>2026-05-02T16:20:32Z</time></trkpt><trkpt lat="43.26948240419996" lon="11.750217304654733"><ele>318.0</ele><time>2026-05-02T16:20:33Z</time></trkpt><trkpt lat="43.269615532580076" lon="11.750311289145127"><ele>317.0</ele><time>2026-05-02T16:20:34Z</time></trkpt><trkpt lat="43.26975390017369" lon="11.750413164093581"><ele>319.33333333333337</ele><time>2026-05-02T16:20:35Z</time></trkpt><trkpt lat="43.269900617991915" lon="11.750533305996768"><ele>321.6666666666667</ele><time>2026-05-02T16:20:36Z</time></trkpt><trkpt lat="43.27005555373745" lon="11.750640405265335"><ele>324.0</ele><time>2026-05-02T16:20:37Z</time></trkpt><trkpt lat="43.27018099899859" lon="11.750750704704183"><ele>324.0</ele><time>2026-05-02T16:20:38Z</time></trkpt><trkpt lat="43.27029096601082" lon="11.75084310107482"><ele>324.0</ele><time>2026-05-02T16:20:39Z</time></trkpt><trkpt lat="43.27039053233272" lon="11.750918497888502"><ele>324.0</ele><time>2026-05-02T16:20:40Z</time></trkpt><trkpt lat="43.270482326619074" lon="11.750965934487699"><ele>324.0</ele><time>2026-05-02T16:20:41Z</time></trkpt><trkpt lat="43.27056493154615" lon="11.750969087244478"><ele>324.0</ele><time>2026-05-02T16:20:42Z</time></trkpt><trkpt lat="43.270631297323966" lon="11.750927955733934"><ele>324.0</ele><time>2026-05-02T16:20:43Z</time></trkpt><trkpt lat="43.270675518610496" lon="11.75077079801473"><ele>324.0</ele><time>2026-05-02T16:20:45Z</time></trkpt><trkpt lat="43.27066346586153" lon="11.750672255135068"><ele>324.0</ele><time>2026-05-02T16:20:46Z</time></trkpt><trkpt lat="43.27062607691889" lon="11.750554095653687"><ele>324.0</ele><time>2026-05-02T16:20:47Z</time></trkpt><trkpt lat="43.27056258119193" lon="11.750408509705098"><ele>324.0</ele><time>2026-05-02T16:20:48Z</time></trkpt><trkpt lat="43.27047050688584" lon="11.750250000640596"><ele>325.25</ele><time>2026-05-02T16:20:49Z</time></trkpt><trkpt lat="43.27037611499567" lon="11.750092844662468"><ele>326.5</ele><time>2026-05-02T16:20:50Z</time></trkpt><trkpt lat="43.27029234497667" lon="11.749929932921143"><ele>327.75</ele><time>2026-05-02T16:20:51Z</time></trkpt><trkpt lat="43.27022407258812" lon="11.74975294931736"><ele>329.0</ele><time>2026-05-02T16:20:52Z</time></trkpt><trkpt lat="43.270164439620785" lon="11.749564710046032"><ele>330.0</ele><time>2026-05-02T16:20:53Z</time></trkpt><trkpt lat="43.270139925014576" lon="11.749364076992471"><ele>331.0</ele><time>2026-05-02T16:20:54Z</time></trkpt><trkpt lat="43.270113074646225" lon="11.74915570361439"><ele>332.0</ele><time>2026-05-02T16:20:55Z</time></trkpt><trkpt lat="43.27008038961878" lon="11.748962466506562"><ele>333.0</ele><time>2026-05-02T16:20:56Z</time></trkpt><trkpt lat="43.27007510182391" lon="11.748802249478574"><ele>333.0</ele><time>2026-05-02T16:20:57Z</time></trkpt><trkpt lat="43.27008508606689" lon="11.748672181610006"><ele>333.0</ele><time>2026-05-02T16:20:58Z</time></trkpt><trkpt lat="43.27012305573432" lon="11.74856307396052"><ele>333.0</ele><time>2026-05-02T16:20:59Z</time></trkpt><trkpt lat="43.27018845457838" lon="11.748482226560238"><ele>333.0</ele><time>2026-05-02T16:21:00Z</time></trkpt><trkpt lat="43.27028810219093" lon="11.748453575059973"><ele>333.0</ele><time>2026-05-02T16:21:01Z</time></trkpt><trkpt lat="43.270410615357896" lon="11.74842828488757"><ele>334.75</ele><time>2026-05-02T16:21:02Z</time></trkpt><trkpt lat="43.27054895391392" lon="11.748376094352992"><ele>336.5</ele><time>2026-05-02T16:21:03Z</time></trkpt><trkpt lat="43.2706824037706" lon="11.748351305200684"><ele>338.25</ele><time>2026-05-02T16:21:04Z</time></trkpt><trkpt lat="43.27079020261698" lon="11.748320390966937"><ele>340.0</ele><time>2026-05-02T16:21:05Z</time></trkpt><trkpt lat="43.2708872780274" lon="11.748276033585972"><ele>341.0</ele><time>2026-05-02T16:21:06Z</time></trkpt><trkpt lat="43.27098443160944" lon="11.748196287995588"><ele>342.0</ele><time>2026-05-02T16:21:07Z</time></trkpt><trkpt lat="43.27108213365957" lon="11.74808572784994"><ele>343.0</ele><time>2026-05-02T16:21:08Z</time></trkpt><trkpt lat="43.271162646879255" lon="11.74794524314239"><ele>344.0</ele><time>2026-05-02T16:21:09Z</time></trkpt><trkpt lat="43.271220198663116" lon="11.747810049003602"><ele>345.0</ele><time>2026-05-02T16:21:10Z</time></trkpt><trkpt lat="43.27123946409097" lon="11.747687229171616"><ele>346.0</ele><time>2026-05-02T16:21:11Z</time></trkpt><trkpt lat="43.2712229030356" lon="11.747581309031832"><ele>347.0</ele><time>2026-05-02T16:21:12Z</time></trkpt><trkpt lat="43.27117179159784" lon="11.747458023270953"><ele>348.0</ele><time>2026-05-02T16:21:13Z</time></trkpt><trkpt lat="43.27109100399017" lon="11.747331954810456"><ele>349.0</ele><time>2026-05-02T16:21:14Z</time></trkpt><trkpt lat="43.27098659753569" lon="11.74722087899796"><ele>349.0</ele><time>2026-05-02T16:21:15Z</time></trkpt><trkpt lat="43.27088364613461" lon="11.747120126421256"><ele>349.0</ele><time>2026-05-02T16:21:16Z</time></trkpt><trkpt lat="43.27079996725474" lon="11.74701532217658"><ele>349.0</ele><time>2026-05-02T16:21:17Z</time></trkpt><trkpt lat="43.27074011206268" lon="11.74691147983051"><ele>349.0</ele><time>2026-05-02T16:21:18Z</time></trkpt><trkpt lat="43.2707069196475" lon="11.74681215140606"><ele>349.0</ele><time>2026-05-02T16:21:19Z</time></trkpt><trkpt lat="43.270701009166274" lon="11.7467185786956"><ele>350.0</ele><time>2026-05-02T16:21:20Z</time></trkpt><trkpt lat="43.27072864780807" lon="11.746635081980179"><ele>351.0</ele><time>2026-05-02T16:21:21Z</time></trkpt><trkpt lat="43.27078482478642" lon="11.746556827392943"><ele>352.0</ele><time>2026-05-02T16:21:22Z</time></trkpt><trkpt lat="43.27086814963481" lon="11.746509873044051"><ele>353.0</ele><time>2026-05-02T16:21:23Z</time></trkpt><trkpt lat="43.270979100345656" lon="11.746524122639899"><ele>354.0</ele><time>2026-05-02T16:21:24Z</time></trkpt><trkpt lat="43.27110118674539" lon="11.746515747744521"><ele>354.0</ele><time>2026-05-02T16:21:25Z</time></trkpt><trkpt lat="43.271237033265315" lon="11.746539006095242"><ele>354.0</ele><time>2026-05-02T16:21:26Z</time></trkpt><trkpt lat="43.27137388666515" lon="11.746556778305148"><ele>354.0</ele><time>2026-05-02T16:21:27Z</time></trkpt><trkpt lat="43.27151020468323" lon="11.746580369689784"><ele>354.0</ele><time>2026-05-02T16:21:28Z</time></trkpt><trkpt lat="43.2716366257961" lon="11.746617256493872"><ele>353.25</ele><time>2026-05-02T16:21:29Z</time></trkpt><trkpt lat="43.27175912565245" lon="11.746662055348724"><ele>352.5</ele><time>2026-05-02T16:21:30Z</time></trkpt><trkpt lat="43.27187915097808" lon="11.746728604541726"><ele>351.75</ele><time>2026-05-02T16:21:31Z</time></trkpt><trkpt lat="43.271980699578386" lon="11.746833847622824"><ele>351.0</ele><time>2026-05-02T16:21:32Z</time></trkpt><trkpt lat="43.27207753807704" lon="11.746986121671961"><ele>351.0</ele><time>2026-05-02T16:21:33Z</time></trkpt><trkpt lat="43.27216220919254" lon="11.747124570404024"><ele>351.0</ele><time>2026-05-02T16:21:34Z</time></trkpt><trkpt lat="43.272235555699275" lon="11.747228331730675"><ele>351.0</ele><time>2026-05-02T16:21:35Z</time></trkpt><trkpt lat="43.272318216073195" lon="11.747295874826168"><ele>351.0</ele><time>2026-05-02T16:21:36Z</time></trkpt><trkpt lat="43.27241754043798" lon="11.747348283108984"><ele>351.0</ele><time>2026-05-02T16:21:37Z</time></trkpt><trkpt lat="43.27253724991349" lon="11.747356324684983"><ele>354.6666666666667</ele><time>2026-05-02T16:21:38Z</time></trkpt><trkpt lat="43.27267657437486" lon="11.74733919544038"><ele>358.33333333333337</ele><time>2026-05-02T16:21:39Z</time></trkpt><trkpt lat="43.27283158821634" lon="11.74731272177197"><ele>362.0</ele><time>2026-05-02T16:21:40Z</time></trkpt><trkpt lat="43.27298973280798" lon="11.747339066082429"><ele>364.25</ele><time>2026-05-02T16:21:41Z</time></trkpt><trkpt lat="43.27314660804066" lon="11.747340932416106"><ele>366.5</ele><time>2026-05-02T16:21:42Z</time></trkpt><trkpt lat="43.27329167207595" lon="11.747373480944221"><ele>368.75</ele><time>2026-05-02T16:21:43Z</time></trkpt><trkpt lat="43.27342859028276" lon="11.747412181003956"><ele>371.0</ele><time>2026-05-02T16:21:44Z</time></trkpt><trkpt lat="43.273570235523984" lon="11.747464527202032"><ele>371.0</ele><time>2026-05-02T16:21:45Z</time></trkpt><trkpt lat="43.273711485026986" lon="11.747526907665224"><ele>371.0</ele><time>2026-05-02T16:21:46Z</time></trkpt><trkpt lat="43.2738563379482" lon="11.747594464702695"><ele>371.0</ele><time>2026-05-02T16:21:47Z</time></trkpt><trkpt lat="43.2739995262843" lon="11.747660272555269"><ele>370.0</ele><time>2026-05-02T16:21:48Z</time></trkpt><trkpt lat="43.27413972645437" lon="11.74772644187412"><ele>369.0</ele><time>2026-05-02T16:21:49Z</time></trkpt><trkpt lat="43.274277614953924" lon="11.747792216499986"><ele>368.0</ele><time>2026-05-02T16:21:50Z</time></trkpt><trkpt lat="43.27440251550672" lon="11.747852846703264"><ele>367.0</ele><time>2026-05-02T16:21:51Z</time></trkpt><trkpt lat="43.274516224567776" lon="11.747907077407058"><ele>367.0</ele><time>2026-05-02T16:21:52Z</time></trkpt><trkpt lat="43.27463476527316" lon="11.747960647673787"><ele>367.0</ele><time>2026-05-02T16:21:53Z</time></trkpt><trkpt lat="43.274743655531054" lon="11.7480105142829"><ele>367.0</ele><time>2026-05-02T16:21:54Z</time></trkpt><trkpt lat="43.27483906526145" lon="11.748032806407002"><ele>367.0</ele><time>2026-05-02T16:21:55Z</time></trkpt><trkpt lat="43.27492738107264" lon="11.748035183813382"><ele>367.0</ele><time>2026-05-02T16:21:56Z</time></trkpt><trkpt lat="43.27501193272445" lon="11.748035290264532"><ele>368.66666666666663</ele><time>2026-05-02T16:21:57Z</time></trkpt><trkpt lat="43.2750926103282" lon="11.748051000247314"><ele>370.3333333333333</ele><time>2026-05-02T16:21:58Z</time></trkpt><trkpt lat="43.27516795017284" lon="11.748091821636745"><ele>372.0</ele><time>2026-05-02T16:21:59Z</time></trkpt><trkpt lat="43.27522321066862" lon="11.748150134265087"><ele>373.6666666666667</ele><time>2026-05-02T16:22:00Z</time></trkpt><trkpt lat="43.275272757162604" lon="11.748241128951275"><ele>375.33333333333337</ele><time>2026-05-02T16:22:01Z</time></trkpt><trkpt lat="43.27533448673107" lon="11.74837163911103"><ele>377.0</ele><time>2026-05-02T16:22:02Z</time></trkpt><trkpt lat="43.27539725665057" lon="11.7484982739419"><ele>376.20000000000005</ele><time>2026-05-02T16:22:03Z</time></trkpt><trkpt lat="43.27545841776241" lon="11.748611980037861"><ele>375.4</ele><time>2026-05-02T16:22:04Z</time></trkpt><trkpt lat="43.2755107904526" lon="11.748723330676713"><ele>374.6</ele><time>2026-05-02T16:22:05Z</time></trkpt><trkpt lat="43.27555681966276" lon="11.748830999559653"><ele>373.79999999999995</ele><time>2026-05-02T16:22:06Z</time></trkpt><trkpt lat="43.27559499555518" lon="11.748931734851537"><ele>373.0</ele><time>2026-05-02T16:22:07Z</time></trkpt><trkpt lat="43.27562971403751" lon="11.74904445923506"><ele>373.0</ele><time>2026-05-02T16:22:08Z</time></trkpt><trkpt lat="43.27567509170212" lon="11.74918827704528"><ele>373.0</ele><time>2026-05-02T16:22:09Z</time></trkpt><trkpt lat="43.275719201331" lon="11.749354014676744"><ele>373.0</ele><time>2026-05-02T16:22:10Z</time></trkpt><trkpt lat="43.27575722931944" lon="11.749516444554299"><ele>373.0</ele><time>2026-05-02T16:22:11Z</time></trkpt><trkpt lat="43.27579325422622" lon="11.749660042026903"><ele>372.25</ele><time>2026-05-02T16:22:12Z</time></trkpt><trkpt lat="43.275833457761955" lon="11.749795382021212"><ele>371.5</ele><time>2026-05-02T16:22:13Z</time></trkpt><trkpt lat="43.27587743930087" lon="11.749939470232643"><ele>370.75</ele><time>2026-05-02T16:22:14Z</time></trkpt><trkpt lat="43.27591104714441" lon="11.75011008314742"><ele>370.0</ele><time>2026-05-02T16:22:15Z</time></trkpt><trkpt lat="43.27595925086923" lon="11.750295465003619"><ele>369.5</ele><time>2026-05-02T16:22:16Z</time></trkpt><trkpt lat="43.27601290111995" lon="11.750487024704846"><ele>369.0</ele><time>2026-05-02T16:22:17Z</time></trkpt><trkpt lat="43.27604883808875" lon="11.75069075488837"><ele>368.5</ele><time>2026-05-02T16:22:18Z</time></trkpt><trkpt lat="43.2760942118086" lon="11.75087288739716"><ele>368.0</ele><time>2026-05-02T16:22:19Z</time></trkpt><trkpt lat="43.27615179870708" lon="11.751037246007147"><ele>366.5</ele><time>2026-05-02T16:22:20Z</time></trkpt><trkpt lat="43.27618869795191" lon="11.751200944638194"><ele>365.0</ele><time>2026-05-02T16:22:21Z</time></trkpt><trkpt lat="43.27621538230741" lon="11.75136429403329"><ele>363.5</ele><time>2026-05-02T16:22:22Z</time></trkpt><trkpt lat="43.27620719722302" lon="11.751538490796111"><ele>362.0</ele><time>2026-05-02T16:22:23Z</time></trkpt><trkpt lat="43.27621100675701" lon="11.751739946058406"><ele>360.75</ele><time>2026-05-02T16:22:24Z</time></trkpt><trkpt lat="43.276195783396375" lon="11.751943209685738"><ele>359.5</ele><time>2026-05-02T16:22:25Z</time></trkpt><trkpt lat="43.276192960695994" lon="11.752134403952683"><ele>358.25</ele><time>2026-05-02T16:22:26Z</time></trkpt><trkpt lat="43.27619132165442" lon="11.752316414470517"><ele>357.0</ele><time>2026-05-02T16:22:27Z</time></trkpt><trkpt lat="43.27618894395092" lon="11.752508484417787"><ele>357.0</ele><time>2026-05-02T16:22:28Z</time></trkpt><trkpt lat="43.276201172955254" lon="11.752702163060489"><ele>357.0</ele><time>2026-05-02T16:22:29Z</time></trkpt><trkpt lat="43.276218222113364" lon="11.752895073104607"><ele>357.0</ele><time>2026-05-02T16:22:30Z</time></trkpt><trkpt lat="43.27629314136923" lon="11.753085845550476"><ele>357.0</ele><time>2026-05-02T16:22:31Z</time></trkpt><trkpt lat="43.27634681359947" lon="11.7532901147218"><ele>356.0</ele><time>2026-05-02T16:22:32Z</time></trkpt><trkpt lat="43.2764258163255" lon="11.753470422313304"><ele>355.0</ele><time>2026-05-02T16:22:33Z</time></trkpt><trkpt lat="43.27648030799067" lon="11.753678961460269"><ele>354.0</ele><time>2026-05-02T16:22:34Z</time></trkpt><trkpt lat="43.27652497040748" lon="11.75389878532058"><ele>353.0</ele><time>2026-05-02T16:22:35Z</time></trkpt><trkpt lat="43.276569662079446" lon="11.754118589839251"><ele>352.0</ele><time>2026-05-02T16:22:36Z</time></trkpt><trkpt lat="43.27661995688614" lon="11.754370196481306"><ele>351.0</ele><time>2026-05-02T16:22:37Z</time></trkpt><trkpt lat="43.27667251777129" lon="11.754625371259245"><ele>350.0</ele><time>2026-05-02T16:22:38Z</time></trkpt><trkpt lat="43.27670544106152" lon="11.75485750540388"><ele>349.0</ele><time>2026-05-02T16:22:39Z</time></trkpt><trkpt lat="43.27676340635828" lon="11.755076078395032"><ele>348.0</ele><time>2026-05-02T16:22:40Z</time></trkpt><trkpt lat="43.276805346932825" lon="11.7552870008753"><ele>346.25</ele><time>2026-05-02T16:22:41Z</time></trkpt><trkpt lat="43.276840228602026" lon="11.755473911052148"><ele>344.5</ele><time>2026-05-02T16:22:42Z</time></trkpt><trkpt lat="43.27686808318487" lon="11.755628799966996"><ele>342.75</ele><time>2026-05-02T16:22:43Z</time></trkpt><trkpt lat="43.27685474894127" lon="11.75577229610894"><ele>341.0</ele><time>2026-05-02T16:22:44Z</time></trkpt><trkpt lat="43.27682626666565" lon="11.75589913350238"><ele>341.0</ele><time>2026-05-02T16:22:45Z</time></trkpt><trkpt lat="43.2767623198863" lon="11.756013576106726"><ele>341.0</ele><time>2026-05-02T16:22:46Z</time></trkpt><trkpt lat="43.276654256219956" lon="11.756112124073832"><ele>341.0</ele><time>2026-05-02T16:22:47Z</time></trkpt><trkpt lat="43.27652013928567" lon="11.756248609694856"><ele>341.0</ele><time>2026-05-02T16:22:48Z</time></trkpt><trkpt lat="43.27637331326209" lon="11.756406778679391"><ele>339.6666666666667</ele><time>2026-05-02T16:22:49Z</time></trkpt><trkpt lat="43.27621618586847" lon="11.75655855410134"><ele>338.3333333333333</ele><time>2026-05-02T16:22:50Z</time></trkpt><trkpt lat="43.27606408209222" lon="11.756737830220445"><ele>337.0</ele><time>2026-05-02T16:22:51Z</time></trkpt><trkpt lat="43.275922716334335" lon="11.75693470009538"><ele>336.66666666666663</ele><time>2026-05-02T16:22:52Z</time></trkpt><trkpt lat="43.27579856429034" lon="11.757148665756807"><ele>336.3333333333333</ele><time>2026-05-02T16:22:53Z</time></trkpt><trkpt lat="43.27568660400635" lon="11.75736231246802"><ele>336.0</ele><time>2026-05-02T16:22:54Z</time></trkpt><trkpt lat="43.275561768794454" lon="11.757572886382318"><ele>330.3333333333333</ele><time>2026-05-02T16:22:55Z</time></trkpt><trkpt lat="43.27543401782097" lon="11.757778985095845"><ele>324.66666666666663</ele><time>2026-05-02T16:22:56Z</time></trkpt><trkpt lat="43.27530531209782" lon="11.757986770687666"><ele>319.0</ele><time>2026-05-02T16:22:57Z</time></trkpt><trkpt lat="43.27516434350963" lon="11.758210568980317"><ele>319.0</ele><time>2026-05-02T16:22:58Z</time></trkpt><trkpt lat="43.274993937858135" lon="11.758429665826387"><ele>319.0</ele><time>2026-05-02T16:22:59Z</time></trkpt><trkpt lat="43.2748837623833" lon="11.758591838933643"><ele>319.0</ele><time>2026-05-02T16:23:00Z</time></trkpt><trkpt lat="43.274749547671476" lon="11.75876654569255"><ele>315.66666666666663</ele><time>2026-05-02T16:23:01Z</time></trkpt><trkpt lat="43.27461605487056" lon="11.758936696477189"><ele>312.3333333333333</ele><time>2026-05-02T16:23:02Z</time></trkpt><trkpt lat="43.27446978557234" lon="11.75908502441564"><ele>309.0</ele><time>2026-05-02T16:23:03Z</time></trkpt><trkpt lat="43.27433747803042" lon="11.759245547620786"><ele>305.6666666666667</ele><time>2026-05-02T16:23:04Z</time></trkpt><trkpt lat="43.27421946904045" lon="11.75941536894676"><ele>302.33333333333337</ele><time>2026-05-02T16:23:05Z</time></trkpt><trkpt lat="43.27409333449926" lon="11.759565912304167"><ele>299.0</ele><time>2026-05-02T16:23:06Z</time></trkpt><trkpt lat="43.27396992894389" lon="11.759711765471792"><ele>298.0</ele><time>2026-05-02T16:23:07Z</time></trkpt><trkpt lat="43.27385152579535" lon="11.759858839417419"><ele>297.0</ele><time>2026-05-02T16:23:08Z</time></trkpt><trkpt lat="43.27374041177473" lon="11.75999603651496"><ele>296.0</ele><time>2026-05-02T16:23:09Z</time></trkpt><trkpt lat="43.2736460147497" lon="11.760126634952853"><ele>295.0</ele><time>2026-05-02T16:23:10Z</time></trkpt><trkpt lat="43.27356159465179" lon="11.76026477475281"><ele>295.0</ele><time>2026-05-02T16:23:11Z</time></trkpt><trkpt lat="43.273507512185894" lon="11.760426958758675"><ele>295.0</ele><time>2026-05-02T16:23:12Z</time></trkpt><trkpt lat="43.2734898719392" lon="11.760602942378828"><ele>295.0</ele><time>2026-05-02T16:23:13Z</time></trkpt><trkpt lat="43.273501849398876" lon="11.76077742392817"><ele>295.0</ele><time>2026-05-02T16:23:14Z</time></trkpt><trkpt lat="43.27352424040793" lon="11.76093795075502"><ele>294.0</ele><time>2026-05-02T16:23:15Z</time></trkpt><trkpt lat="43.27354687060616" lon="11.761071440545665"><ele>293.0</ele><time>2026-05-02T16:23:16Z</time></trkpt><trkpt lat="43.27356036095936" lon="11.761171508087608"><ele>292.0</ele><time>2026-05-02T16:23:17Z</time></trkpt><trkpt lat="43.273559997305824" lon="11.761283268345142"><ele>291.0</ele><time>2026-05-02T16:23:19Z</time></trkpt><trkpt lat="43.273746380786875" lon="11.76122716256717"><ele>290.0</ele><time>2026-05-02T16:23:21Z</time></trkpt><trkpt lat="43.27383986256451" lon="11.761158942017689"><ele>289.6666666666667</ele><time>2026-05-02T16:23:22Z</time></trkpt><trkpt lat="43.27396836751473" lon="11.761063137029929"><ele>289.3333333333333</ele><time>2026-05-02T16:23:23Z</time></trkpt><trkpt lat="43.27410117246813" lon="11.760977409696986"><ele>289.0</ele><time>2026-05-02T16:23:24Z</time></trkpt><trkpt lat="43.274244412044794" lon="11.76087985843573"><ele>290.0</ele><time>2026-05-02T16:23:25Z</time></trkpt><trkpt lat="43.274394413843694" lon="11.760781738300215"><ele>291.0</ele><time>2026-05-02T16:23:26Z</time></trkpt><trkpt lat="43.27454151428544" lon="11.760667626843208"><ele>292.0</ele><time>2026-05-02T16:23:27Z</time></trkpt><trkpt lat="43.27468850178922" lon="11.760554103748646"><ele>288.3333333333333</ele><time>2026-05-02T16:23:28Z</time></trkpt><trkpt lat="43.27483319276347" lon="11.760442633478377"><ele>284.6666666666667</ele><time>2026-05-02T16:23:29Z</time></trkpt><trkpt lat="43.27498332799277" lon="11.760333541605547"><ele>281.0</ele><time>2026-05-02T16:23:30Z</time></trkpt><trkpt lat="43.27513519426903" lon="11.760222828819948"><ele>284.33333333333337</ele><time>2026-05-02T16:23:31Z</time></trkpt><trkpt lat="43.27529195200887" lon="11.760108538560628"><ele>287.6666666666667</ele><time>2026-05-02T16:23:32Z</time></trkpt><trkpt lat="43.27544394180547" lon="11.759998500573403"><ele>291.0</ele><time>2026-05-02T16:23:33Z</time></trkpt><trkpt lat="43.27559058883153" lon="11.759887832655059"><ele>289.0</ele><time>2026-05-02T16:23:34Z</time></trkpt><trkpt lat="43.27572574654242" lon="11.759784440731657"><ele>287.0</ele><time>2026-05-02T16:23:35Z</time></trkpt><trkpt lat="43.27585236656129" lon="11.759690203938918"><ele>285.0</ele><time>2026-05-02T16:23:36Z</time></trkpt><trkpt lat="43.2759799750821" lon="11.759610736670696"><ele>283.0</ele><time>2026-05-02T16:23:37Z</time></trkpt><trkpt lat="43.27610718656377" lon="11.759559747176155"><ele>283.0</ele><time>2026-05-02T16:23:38Z</time></trkpt><trkpt lat="43.276245046365425" lon="11.759537032771181"><ele>283.0</ele><time>2026-05-02T16:23:39Z</time></trkpt><trkpt lat="43.276385234457365" lon="11.759554766901514"><ele>283.0</ele><time>2026-05-02T16:23:40Z</time></trkpt><trkpt lat="43.27652657907052" lon="11.759599154968807"><ele>283.0</ele><time>2026-05-02T16:23:41Z</time></trkpt><trkpt lat="43.27665298287988" lon="11.759696281859277"><ele>282.0</ele><time>2026-05-02T16:23:42Z</time></trkpt><trkpt lat="43.27676290321832" lon="11.759797892460565"><ele>281.0</ele><time>2026-05-02T16:23:43Z</time></trkpt><trkpt lat="43.27686801434086" lon="11.759933538062507"><ele>280.0</ele><time>2026-05-02T16:23:44Z</time></trkpt><trkpt lat="43.27698690158262" lon="11.760105010181638"><ele>279.0</ele><time>2026-05-02T16:23:45Z</time></trkpt><trkpt lat="43.277098201484925" lon="11.760305926554624"><ele>279.3333333333333</ele><time>2026-05-02T16:23:46Z</time></trkpt><trkpt lat="43.27721702533887" lon="11.76052653415061"><ele>279.66666666666663</ele><time>2026-05-02T16:23:47Z</time></trkpt><trkpt lat="43.27734082848699" lon="11.760750051205255"><ele>280.0</ele><time>2026-05-02T16:23:48Z</time></trkpt><trkpt lat="43.27746481381284" lon="11.760978806005614"><ele>277.66666666666663</ele><time>2026-05-02T16:23:49Z</time></trkpt><trkpt lat="43.27758262759192" lon="11.761196715951053"><ele>275.3333333333333</ele><time>2026-05-02T16:23:50Z</time></trkpt><trkpt lat="43.27769416069058" lon="11.761400291897932"><ele>273.0</ele><time>2026-05-02T16:23:51Z</time></trkpt><trkpt lat="43.27780286316577" lon="11.761596046064657"><ele>273.0</ele><time>2026-05-02T16:23:52Z</time></trkpt><trkpt lat="43.27790710478229" lon="11.761782914157692"><ele>273.0</ele><time>2026-05-02T16:23:53Z</time></trkpt><trkpt lat="43.27800869958877" lon="11.76196742709266"><ele>273.0</ele><time>2026-05-02T16:23:54Z</time></trkpt><trkpt lat="43.278109662090344" lon="11.762144946889677"><ele>271.3333333333333</ele><time>2026-05-02T16:23:55Z</time></trkpt><trkpt lat="43.27821109603504" lon="11.762310493908966"><ele>269.66666666666663</ele><time>2026-05-02T16:23:56Z</time></trkpt><trkpt lat="43.27831950988083" lon="11.762458480370723"><ele>268.0</ele><time>2026-05-02T16:23:57Z</time></trkpt><trkpt lat="43.27844367815051" lon="11.762589446091617"><ele>264.66666666666663</ele><time>2026-05-02T16:23:58Z</time></trkpt><trkpt lat="43.27859085075868" lon="11.762705524460294"><ele>261.3333333333333</ele><time>2026-05-02T16:23:59Z</time></trkpt><trkpt lat="43.27875648031706" lon="11.762815137986786"><ele>258.0</ele><time>2026-05-02T16:24:00Z</time></trkpt><trkpt lat="43.278924247336974" lon="11.762917716958402"><ele>258.0</ele><time>2026-05-02T16:24:01Z</time></trkpt><trkpt lat="43.2790966646585" lon="11.763018091658639"><ele>258.0</ele><time>2026-05-02T16:24:02Z</time></trkpt><trkpt lat="43.27927365971897" lon="11.763124851127719"><ele>258.0</ele><time>2026-05-02T16:24:03Z</time></trkpt><trkpt lat="43.27945594041254" lon="11.763240827286346"><ele>258.0</ele><time>2026-05-02T16:24:04Z</time></trkpt><trkpt lat="43.279630843677246" lon="11.763352066366362"><ele>258.0</ele><time>2026-05-02T16:24:05Z</time></trkpt><trkpt lat="43.27979879444299" lon="11.763455981080785"><ele>258.0</ele><time>2026-05-02T16:24:06Z</time></trkpt><trkpt lat="43.279952591529906" lon="11.763551643816227"><ele>259.0</ele><time>2026-05-02T16:24:07Z</time></trkpt><trkpt lat="43.28009728049563" lon="11.763640489306283"><ele>260.0</ele><time>2026-05-02T16:24:08Z</time></trkpt><trkpt lat="43.28023370795587" lon="11.76373038431832"><ele>261.0</ele><time>2026-05-02T16:24:09Z</time></trkpt><trkpt lat="43.28034827095974" lon="11.763840997553238"><ele>261.0</ele><time>2026-05-02T16:24:10Z</time></trkpt><trkpt lat="43.28045508569076" lon="11.763955853404736"><ele>261.0</ele><time>2026-05-02T16:24:11Z</time></trkpt><trkpt lat="43.28054037816385" lon="11.764110483086059"><ele>261.0</ele><time>2026-05-02T16:24:12Z</time></trkpt><trkpt lat="43.28060979249237" lon="11.764288410099983"><ele>261.0</ele><time>2026-05-02T16:24:13Z</time></trkpt><trkpt lat="43.2806858222348" lon="11.764484032925468"><ele>262.0</ele><time>2026-05-02T16:24:14Z</time></trkpt><trkpt lat="43.28073915500009" lon="11.764708437626096"><ele>263.0</ele><time>2026-05-02T16:24:15Z</time></trkpt><trkpt lat="43.280795817197266" lon="11.764932836984016"><ele>264.0</ele><time>2026-05-02T16:24:16Z</time></trkpt><trkpt lat="43.2808575945846" lon="11.765155488849572"><ele>263.0</ele><time>2026-05-02T16:24:17Z</time></trkpt><trkpt lat="43.28092932519924" lon="11.765368655987032"><ele>262.0</ele><time>2026-05-02T16:24:18Z</time></trkpt><trkpt lat="43.281003881078426" lon="11.765576434945887"><ele>261.0</ele><time>2026-05-02T16:24:19Z</time></trkpt><trkpt lat="43.28107451487334" lon="11.765777160710845"><ele>261.0</ele><time>2026-05-02T16:24:20Z</time></trkpt><trkpt lat="43.281132136849465" lon="11.765959141615722"><ele>261.0</ele><time>2026-05-02T16:24:21Z</time></trkpt><trkpt lat="43.28119055088428" lon="11.766127110164144"><ele>261.0</ele><time>2026-05-02T16:24:22Z</time></trkpt><trkpt lat="43.28124748156218" lon="11.76628999981528"><ele>261.0</ele><time>2026-05-02T16:24:23Z</time></trkpt><trkpt lat="43.281301427994855" lon="11.766449950188528"><ele>260.25</ele><time>2026-05-02T16:24:24Z</time></trkpt><trkpt lat="43.28136598243863" lon="11.766601026729493"><ele>259.5</ele><time>2026-05-02T16:24:25Z</time></trkpt><trkpt lat="43.28145310144219" lon="11.766747216504717"><ele>258.75</ele><time>2026-05-02T16:24:26Z</time></trkpt><trkpt lat="43.28155642195784" lon="11.76688792241619"><ele>258.0</ele><time>2026-05-02T16:24:27Z</time></trkpt><trkpt lat="43.281679365077856" lon="11.767023114955334"><ele>257.3333333333333</ele><time>2026-05-02T16:24:28Z</time></trkpt><trkpt lat="43.28181271471149" lon="11.767133644295212"><ele>256.66666666666663</ele><time>2026-05-02T16:24:29Z</time></trkpt><trkpt lat="43.28196849179581" lon="11.767226979185857"><ele>256.0</ele><time>2026-05-02T16:24:30Z</time></trkpt><trkpt lat="43.28214366748348" lon="11.767298916619316"><ele>255.66666666666666</ele><time>2026-05-02T16:24:31Z</time></trkpt><trkpt lat="43.28232093223488" lon="11.767357138241763"><ele>255.33333333333331</ele><time>2026-05-02T16:24:32Z</time></trkpt><trkpt lat="43.282493860058175" lon="11.767424798000873"><ele>255.0</ele><time>2026-05-02T16:24:33Z</time></trkpt><trkpt lat="43.28265392138443" lon="11.767507836216836"><ele>255.0</ele><time>2026-05-02T16:24:34Z</time></trkpt><trkpt lat="43.28278160664846" lon="11.767642525050796"><ele>255.0</ele><time>2026-05-02T16:24:35Z</time></trkpt><trkpt lat="43.28290542046357" lon="11.767770001444417"><ele>255.0</ele><time>2026-05-02T16:24:36Z</time></trkpt><trkpt lat="43.28302288083771" lon="11.76790623751819"><ele>255.33333333333331</ele><time>2026-05-02T16:24:37Z</time></trkpt><trkpt lat="43.28315570005471" lon="11.768033669006103"><ele>255.66666666666666</ele><time>2026-05-02T16:24:38Z</time></trkpt><trkpt lat="43.283285342694825" lon="11.768181050512192"><ele>256.0</ele><time>2026-05-02T16:24:39Z</time></trkpt><trkpt lat="43.283415398484905" lon="11.768333172029147"><ele>256.0</ele><time>2026-05-02T16:24:40Z</time></trkpt><trkpt lat="43.28354932471095" lon="11.768488446853427"><ele>256.0</ele><time>2026-05-02T16:24:41Z</time></trkpt><trkpt lat="43.28368051955336" lon="11.768641708125799"><ele>256.0</ele><time>2026-05-02T16:24:42Z</time></trkpt><trkpt lat="43.28381043617498" lon="11.768794487445248"><ele>256.3333333333333</ele><time>2026-05-02T16:24:43Z</time></trkpt><trkpt lat="43.28393414643936" lon="11.768945475287905"><ele>256.6666666666667</ele><time>2026-05-02T16:24:44Z</time></trkpt><trkpt lat="43.28404358550253" lon="11.76908532225293"><ele>257.0</ele><time>2026-05-02T16:24:45Z</time></trkpt><trkpt lat="43.28414267795741" lon="11.769214301985567"><ele>257.0</ele><time>2026-05-02T16:24:46Z</time></trkpt><trkpt lat="43.28424051451769" lon="11.769335446951622"><ele>257.0</ele><time>2026-05-02T16:24:47Z</time></trkpt><trkpt lat="43.28434653511525" lon="11.769473318225344"><ele>257.0</ele><time>2026-05-02T16:24:48Z</time></trkpt><trkpt lat="43.2844583379883" lon="11.769633332782679"><ele>257.0</ele><time>2026-05-02T16:24:49Z</time></trkpt><trkpt lat="43.28456747934437" lon="11.769802788211447"><ele>257.0</ele><time>2026-05-02T16:24:50Z</time></trkpt><trkpt lat="43.28466414595128" lon="11.769981885470333"><ele>257.0</ele><time>2026-05-02T16:24:51Z</time></trkpt><trkpt lat="43.28475398629713" lon="11.770172460075685"><ele>257.0</ele><time>2026-05-02T16:24:52Z</time></trkpt><trkpt lat="43.284841449345066" lon="11.770371476792633"><ele>256.6666666666667</ele><time>2026-05-02T16:24:53Z</time></trkpt><trkpt lat="43.284929559923356" lon="11.770574698731886"><ele>256.3333333333333</ele><time>2026-05-02T16:24:54Z</time></trkpt><trkpt lat="43.28501722108574" lon="11.770772032615973"><ele>256.0</ele><time>2026-05-02T16:24:55Z</time></trkpt><trkpt lat="43.2850976196818" lon="11.77094999151759"><ele>256.25</ele><time>2026-05-02T16:24:56Z</time></trkpt><trkpt lat="43.28517185787436" lon="11.771111902287611"><ele>256.5</ele><time>2026-05-02T16:24:57Z</time></trkpt><trkpt lat="43.28524405644779" lon="11.771268018920052"><ele>256.75</ele><time>2026-05-02T16:24:58Z</time></trkpt><trkpt lat="43.285307283646546" lon="11.771409880021542"><ele>257.0</ele><time>2026-05-02T16:24:59Z</time></trkpt><trkpt lat="43.2853704731393" lon="11.771545929370909"><ele>257.0</ele><time>2026-05-02T16:25:00Z</time></trkpt><trkpt lat="43.28542890617345" lon="11.771672948072167"><ele>257.0</ele><time>2026-05-02T16:25:01Z</time></trkpt><trkpt lat="43.28547068115814" lon="11.771793867673784"><ele>257.0</ele><time>2026-05-02T16:25:02Z</time></trkpt><trkpt lat="43.28550565397998" lon="11.771902471624347"><ele>257.0</ele><time>2026-05-02T16:25:03Z</time></trkpt><trkpt lat="43.28549233527502" lon="11.772035359113938"><ele>257.0</ele><time>2026-05-02T16:25:04Z</time></trkpt><trkpt lat="43.28549919753773" lon="11.7721362681062"><ele>256.8</ele><time>2026-05-02T16:25:05Z</time></trkpt><trkpt lat="43.28553975880257" lon="11.772271828185254"><ele>256.6</ele><time>2026-05-02T16:25:07Z</time></trkpt><trkpt lat="43.28560630453129" lon="11.772282518282623"><ele>256.40000000000003</ele><time>2026-05-02T16:25:08Z</time></trkpt><trkpt lat="43.2857162612512" lon="11.772320004335969"><ele>256.2</ele><time>2026-05-02T16:25:10Z</time></trkpt><trkpt lat="43.28582863423983" lon="11.772229749499273"><ele>256.0</ele><time>2026-05-02T16:25:12Z</time></trkpt><trkpt lat="43.28585980502957" lon="11.772147603892734"><ele>256.0</ele><time>2026-05-02T16:25:13Z</time></trkpt><trkpt lat="43.28585296987879" lon="11.772036178205713"><ele>255.99999999999997</ele><time>2026-05-02T16:25:14Z</time></trkpt><trkpt lat="43.28583312358422" lon="11.77194581507436"><ele>256.0</ele><time>2026-05-02T16:25:15Z</time></trkpt><trkpt lat="43.28581567335008" lon="11.77185557941025"><ele>256.0</ele><time>2026-05-02T16:25:16Z</time></trkpt><trkpt lat="43.28573908470288" lon="11.771814668584877"><ele>255.99999999999997</ele><time>2026-05-02T16:25:17Z</time></trkpt><trkpt lat="43.28567305153041" lon="11.771796436928947"><ele>256.0</ele><time>2026-05-02T16:25:18Z</time></trkpt><trkpt lat="43.28560199498188" lon="11.771816895553377"><ele>256.0</ele><time>2026-05-02T16:25:19Z</time></trkpt><trkpt lat="43.28554113267254" lon="11.771867436205717"><ele>256.0</ele><time>2026-05-02T16:25:20Z</time></trkpt><trkpt lat="43.285495460687585" lon="11.771946124215356"><ele>256.0</ele><time>2026-05-02T16:25:21Z</time></trkpt><trkpt lat="43.28545072876495" lon="11.772045682905533"><ele>256.0</ele><time>2026-05-02T16:25:22Z</time></trkpt><trkpt lat="43.2854348857828" lon="11.772191658702194"><ele>256.0</ele><time>2026-05-02T16:25:23Z</time></trkpt><trkpt lat="43.28528321057637" lon="11.772286194198188"><ele>256.0</ele><time>2026-05-02T16:25:24Z</time></trkpt><trkpt lat="43.285231351690356" lon="11.772442505412213"><ele>256.0</ele><time>2026-05-02T16:25:25Z</time></trkpt><trkpt lat="43.28515385821745" lon="11.772555992644396"><ele>256.0</ele><time>2026-05-02T16:25:26Z</time></trkpt><trkpt lat="43.28511007768601" lon="11.772698269158354"><ele>256.0</ele><time>2026-05-02T16:25:27Z</time></trkpt><trkpt lat="43.28510338148538" lon="11.772862419539093"><ele>256.0</ele><time>2026-05-02T16:25:28Z</time></trkpt><trkpt lat="43.2851349289394" lon="11.773039226349796"><ele>256.0</ele><time>2026-05-02T16:25:29Z</time></trkpt><trkpt lat="43.28519528029868" lon="11.773221403854235"><ele>256.0</ele><time>2026-05-02T16:25:30Z</time></trkpt><trkpt lat="43.28528271833567" lon="11.773410923188427"><ele>256.0</ele><time>2026-05-02T16:25:31Z</time></trkpt><trkpt lat="43.28538937620061" lon="11.77361195418486"><ele>256.0</ele><time>2026-05-02T16:25:32Z</time></trkpt><trkpt lat="43.28549272582721" lon="11.77383187105184"><ele>256.0</ele><time>2026-05-02T16:25:33Z</time></trkpt><trkpt lat="43.28559081225828" lon="11.774053403315902"><ele>256.0</ele><time>2026-05-02T16:25:34Z</time></trkpt><trkpt lat="43.28568618348399" lon="11.774269973023035"><ele>255.66666666666666</ele><time>2026-05-02T16:25:35Z</time></trkpt><trkpt lat="43.285778548063696" lon="11.774475330063716"><ele>255.33333333333331</ele><time>2026-05-02T16:25:36Z</time></trkpt><trkpt lat="43.285866693672816" lon="11.774664686667343"><ele>255.0</ele><time>2026-05-02T16:25:37Z</time></trkpt><trkpt lat="43.28594802145817" lon="11.774843348388629"><ele>255.0</ele><time>2026-05-02T16:25:38Z</time></trkpt><trkpt lat="43.28603229688867" lon="11.775025048345865"><ele>255.0</ele><time>2026-05-02T16:25:39Z</time></trkpt><trkpt lat="43.286134444858334" lon="11.775206228880197"><ele>255.0</ele><time>2026-05-02T16:25:40Z</time></trkpt><trkpt lat="43.28626094941893" lon="11.775365261609139"><ele>254.66666666666669</ele><time>2026-05-02T16:25:41Z</time></trkpt><trkpt lat="43.286416293417396" lon="11.775504946292447"><ele>254.33333333333334</ele><time>2026-05-02T16:25:42Z</time></trkpt><trkpt lat="43.28659541764676" lon="11.775625507391059"><ele>254.0</ele><time>2026-05-02T16:25:43Z</time></trkpt><trkpt lat="43.28678892710891" lon="11.775742010203365"><ele>254.0</ele><time>2026-05-02T16:25:44Z</time></trkpt><trkpt lat="43.28696826304072" lon="11.77585348823427"><ele>254.0</ele><time>2026-05-02T16:25:45Z</time></trkpt><trkpt lat="43.2871359092673" lon="11.775958918924283"><ele>254.0</ele><time>2026-05-02T16:25:46Z</time></trkpt><trkpt lat="43.28729692579151" lon="11.776061772963178"><ele>254.33333333333334</ele><time>2026-05-02T16:25:47Z</time></trkpt><trkpt lat="43.28744229778962" lon="11.77617081085173"><ele>254.66666666666669</ele><time>2026-05-02T16:25:48Z</time></trkpt><trkpt lat="43.2875708662497" lon="11.776291424016716"><ele>255.0</ele><time>2026-05-02T16:25:49Z</time></trkpt><trkpt lat="43.28769259883473" lon="11.776427870057514"><ele>255.0</ele><time>2026-05-02T16:25:50Z</time></trkpt><trkpt lat="43.287812967402274" lon="11.776585073961112"><ele>255.0</ele><time>2026-05-02T16:25:51Z</time></trkpt><trkpt lat="43.287932886483894" lon="11.776752964666974"><ele>255.0</ele><time>2026-05-02T16:25:52Z</time></trkpt><trkpt lat="43.28804747116403" lon="11.7769305209864"><ele>255.66666666666669</ele><time>2026-05-02T16:25:53Z</time></trkpt><trkpt lat="43.288145861447994" lon="11.777090158440652"><ele>256.33333333333337</ele><time>2026-05-02T16:25:54Z</time></trkpt><trkpt lat="43.28824512155701" lon="11.777244722210506"><ele>257.0</ele><time>2026-05-02T16:25:55Z</time></trkpt><trkpt lat="43.28835813135373" lon="11.77742012422107"><ele>257.0</ele><time>2026-05-02T16:25:56Z</time></trkpt><trkpt lat="43.2884854292552" lon="11.777607721578834"><ele>257.0</ele><time>2026-05-02T16:25:57Z</time></trkpt><trkpt lat="43.28861692966998" lon="11.777801470217964"><ele>257.0</ele><time>2026-05-02T16:25:58Z</time></trkpt><trkpt lat="43.28873630466901" lon="11.777991521009042"><ele>257.33333333333337</ele><time>2026-05-02T16:25:59Z</time></trkpt><trkpt lat="43.28885434675725" lon="11.778182486029298"><ele>257.6666666666667</ele><time>2026-05-02T16:26:00Z</time></trkpt><trkpt lat="43.28896923223788" lon="11.7783716135115"><ele>258.0</ele><time>2026-05-02T16:26:01Z</time></trkpt><trkpt lat="43.28906413966886" lon="11.77855889667237"><ele>258.0</ele><time>2026-05-02T16:26:02Z</time></trkpt><trkpt lat="43.28911632006119" lon="11.778761183737384"><ele>258.0</ele><time>2026-05-02T16:26:03Z</time></trkpt><trkpt lat="43.289185933285125" lon="11.778932922316196"><ele>258.0</ele><time>2026-05-02T16:26:04Z</time></trkpt><trkpt lat="43.28925497301168" lon="11.779078825404095"><ele>258.0</ele><time>2026-05-02T16:26:05Z</time></trkpt><trkpt lat="43.28934880932319" lon="11.779198972565403"><ele>258.0</ele><time>2026-05-02T16:26:06Z</time></trkpt><trkpt lat="43.28946418932497" lon="11.779296567880612"><ele>258.0</ele><time>2026-05-02T16:26:07Z</time></trkpt><trkpt lat="43.28960728143761" lon="11.779364433511086"><ele>258.0</ele><time>2026-05-02T16:26:08Z</time></trkpt><trkpt lat="43.28976859339154" lon="11.779404376310952"><ele>260.6666666666667</ele><time>2026-05-02T16:26:09Z</time></trkpt><trkpt lat="43.28995057734736" lon="11.7794116232566"><ele>263.33333333333337</ele><time>2026-05-02T16:26:10Z</time></trkpt><trkpt lat="43.2901312921267" lon="11.779442966176134"><ele>266.0</ele><time>2026-05-02T16:26:11Z</time></trkpt><trkpt lat="43.29033144983652" lon="11.779457312868693"><ele>266.0</ele><time>2026-05-02T16:26:12Z</time></trkpt><trkpt lat="43.290512944867324" lon="11.779472316485206"><ele>266.0</ele><time>2026-05-02T16:26:13Z</time></trkpt><trkpt lat="43.2906836766754" lon="11.779502121620347"><ele>266.0</ele><time>2026-05-02T16:26:14Z</time></trkpt><trkpt lat="43.2908537311432" lon="11.779550644040265"><ele>268.33333333333337</ele><time>2026-05-02T16:26:15Z</time></trkpt><trkpt lat="43.29105455361279" lon="11.779631790304284"><ele>270.6666666666667</ele><time>2026-05-02T16:26:16Z</time></trkpt><trkpt lat="43.29125246531968" lon="11.779722652808909"><ele>273.0</ele><time>2026-05-02T16:26:17Z</time></trkpt><trkpt lat="43.291444589958374" lon="11.779817811772121"><ele>273.3333333333333</ele><time>2026-05-02T16:26:18Z</time></trkpt><trkpt lat="43.29162792297676" lon="11.77990608801506"><ele>273.66666666666663</ele><time>2026-05-02T16:26:19Z</time></trkpt><trkpt lat="43.291801129477" lon="11.779996183520726"><ele>274.0</ele><time>2026-05-02T16:26:20Z</time></trkpt><trkpt lat="43.2919503449575" lon="11.780086901166793"><ele>276.0</ele><time>2026-05-02T16:26:21Z</time></trkpt><trkpt lat="43.292092162549665" lon="11.78019642540046"><ele>278.0</ele><time>2026-05-02T16:26:22Z</time></trkpt><trkpt lat="43.29224023425902" lon="11.780336002164901"><ele>280.0</ele><time>2026-05-02T16:26:23Z</time></trkpt><trkpt lat="43.29238716846952" lon="11.780490520586133"><ele>280.0</ele><time>2026-05-02T16:26:24Z</time></trkpt><trkpt lat="43.29253210809864" lon="11.78065646812516"><ele>280.0</ele><time>2026-05-02T16:26:25Z</time></trkpt><trkpt lat="43.29265307035442" lon="11.780833069924725"><ele>280.0</ele><time>2026-05-02T16:26:26Z</time></trkpt><trkpt lat="43.29276274644619" lon="11.781031043373211"><ele>282.0</ele><time>2026-05-02T16:26:27Z</time></trkpt><trkpt lat="43.292867522904885" lon="11.78126649252884"><ele>284.0</ele><time>2026-05-02T16:26:28Z</time></trkpt><trkpt lat="43.29296562268673" lon="11.781515064463314"><ele>286.0</ele><time>2026-05-02T16:26:29Z</time></trkpt><trkpt lat="43.29307498480762" lon="11.781763584288042"><ele>286.0</ele><time>2026-05-02T16:26:30Z</time></trkpt><trkpt lat="43.29316406406434" lon="11.782019099896658"><ele>286.0</ele><time>2026-05-02T16:26:31Z</time></trkpt><trkpt lat="43.293251886285425" lon="11.782261670249007"><ele>286.0</ele><time>2026-05-02T16:26:32Z</time></trkpt><trkpt lat="43.29333751112747" lon="11.782502687665577"><ele>286.0</ele><time>2026-05-02T16:26:33Z</time></trkpt><trkpt lat="43.29341925956652" lon="11.782735369105522"><ele>286.0</ele><time>2026-05-02T16:26:34Z</time></trkpt><trkpt lat="43.29350195767683" lon="11.782951064755947"><ele>286.0</ele><time>2026-05-02T16:26:35Z</time></trkpt><trkpt lat="43.29358419840462" lon="11.783161854429492"><ele>286.0</ele><time>2026-05-02T16:26:36Z</time></trkpt><trkpt lat="43.293678483999884" lon="11.78336279849042"><ele>286.0</ele><time>2026-05-02T16:26:37Z</time></trkpt><trkpt lat="43.29379983111907" lon="11.78355929928904"><ele>286.0</ele><time>2026-05-02T16:26:38Z</time></trkpt><trkpt lat="43.29393656840267" lon="11.783741711087586"><ele>285.66666666666663</ele><time>2026-05-02T16:26:39Z</time></trkpt><trkpt lat="43.29407226065814" lon="11.783903630414223"><ele>285.3333333333333</ele><time>2026-05-02T16:26:40Z</time></trkpt><trkpt lat="43.294198961004625" lon="11.784043451515874"><ele>285.0</ele><time>2026-05-02T16:26:41Z</time></trkpt><trkpt lat="43.294338576053946" lon="11.784174960735884"><ele>285.0</ele><time>2026-05-02T16:26:42Z</time></trkpt><trkpt lat="43.29448799653714" lon="11.784300308528103"><ele>285.0</ele><time>2026-05-02T16:26:43Z</time></trkpt><trkpt lat="43.294654960490114" lon="11.784414439053876"><ele>285.0</ele><time>2026-05-02T16:26:44Z</time></trkpt><trkpt lat="43.29483856448214" lon="11.784491702342761"><ele>284.6666666666667</ele><time>2026-05-02T16:26:45Z</time></trkpt><trkpt lat="43.295042687523264" lon="11.784539290740641"><ele>284.33333333333337</ele><time>2026-05-02T16:26:46Z</time></trkpt><trkpt lat="43.295273953767754" lon="11.784588213997786"><ele>284.0</ele><time>2026-05-02T16:26:47Z</time></trkpt><trkpt lat="43.29549688811226" lon="11.784639157568924"><ele>285.33333333333337</ele><time>2026-05-02T16:26:48Z</time></trkpt><trkpt lat="43.29569537428322" lon="11.784670957546142"><ele>286.6666666666667</ele><time>2026-05-02T16:26:49Z</time></trkpt><trkpt lat="43.29592016834501" lon="11.784716229664424"><ele>288.0</ele><time>2026-05-02T16:26:50Z</time></trkpt><trkpt lat="43.29614559954739" lon="11.784784028504621"><ele>288.0</ele><time>2026-05-02T16:26:51Z</time></trkpt><trkpt lat="43.296372881359545" lon="11.784834620032635"><ele>288.0</ele><time>2026-05-02T16:26:52Z</time></trkpt><trkpt lat="43.29659804795611" lon="11.78488611178721"><ele>289.3333333333333</ele><time>2026-05-02T16:26:53Z</time></trkpt><trkpt lat="43.29681035933955" lon="11.78493473017154"><ele>290.66666666666663</ele><time>2026-05-02T16:26:54Z</time></trkpt><trkpt lat="43.29700268606496" lon="11.784978772811346"><ele>292.0</ele><time>2026-05-02T16:26:55Z</time></trkpt><trkpt lat="43.29719842456112" lon="11.785023659161116"><ele>293.0</ele><time>2026-05-02T16:26:56Z</time></trkpt><trkpt lat="43.29739801527011" lon="11.785056182009034"><ele>294.0</ele><time>2026-05-02T16:26:57Z</time></trkpt><trkpt lat="43.29759635669889" lon="11.785101367214223"><ele>295.0</ele><time>2026-05-02T16:26:58Z</time></trkpt><trkpt lat="43.297794231436356" lon="11.785144251682937"><ele>296.0</ele><time>2026-05-02T16:26:59Z</time></trkpt><trkpt lat="43.297996623858" lon="11.78520990503582"><ele>297.0</ele><time>2026-05-02T16:27:00Z</time></trkpt><trkpt lat="43.298201204872726" lon="11.78523639373731"><ele>298.0</ele><time>2026-05-02T16:27:01Z</time></trkpt><trkpt lat="43.29839842726376" lon="11.785310834557587"><ele>298.3333333333333</ele><time>2026-05-02T16:27:02Z</time></trkpt><trkpt lat="43.298594420752394" lon="11.785364903265778"><ele>298.6666666666667</ele><time>2026-05-02T16:27:03Z</time></trkpt><trkpt lat="43.29879815930208" lon="11.78541412969787"><ele>299.0</ele><time>2026-05-02T16:27:04Z</time></trkpt><trkpt lat="43.29899217451702" lon="11.785435613141647"><ele>299.0</ele><time>2026-05-02T16:27:05Z</time></trkpt><trkpt lat="43.299185464010456" lon="11.785459239862647"><ele>299.0</ele><time>2026-05-02T16:27:06Z</time></trkpt><trkpt lat="43.29937533339646" lon="11.785474714727997"><ele>299.0</ele><time>2026-05-02T16:27:07Z</time></trkpt><trkpt lat="43.299561998658646" lon="11.785478000798681"><ele>299.0</ele><time>2026-05-02T16:27:08Z</time></trkpt><trkpt lat="43.29973037830616" lon="11.785481228245763"><ele>299.0</ele><time>2026-05-02T16:27:09Z</time></trkpt><trkpt lat="43.29989882848923" lon="11.785475744551448"><ele>299.0</ele><time>2026-05-02T16:27:10Z</time></trkpt><trkpt lat="43.30005367123482" lon="11.785474739399131"><ele>298.0</ele><time>2026-05-02T16:27:11Z</time></trkpt><trkpt lat="43.30022012832648" lon="11.78547527043602"><ele>297.0</ele><time>2026-05-02T16:27:12Z</time></trkpt><trkpt lat="43.30038624420485" lon="11.785491500173679"><ele>296.0</ele><time>2026-05-02T16:27:13Z</time></trkpt><trkpt lat="43.30055644550255" lon="11.785515466002533"><ele>297.6666666666667</ele><time>2026-05-02T16:27:14Z</time></trkpt><trkpt lat="43.30073030860719" lon="11.785560445526645"><ele>299.3333333333333</ele><time>2026-05-02T16:27:15Z</time></trkpt><trkpt lat="43.3008805252978" lon="11.785580539444256"><ele>301.0</ele><time>2026-05-02T16:27:16Z</time></trkpt><trkpt lat="43.30106773294923" lon="11.785602907100566"><ele>301.0</ele><time>2026-05-02T16:27:17Z</time></trkpt><trkpt lat="43.301233740157386" lon="11.785622438573704"><ele>301.0</ele><time>2026-05-02T16:27:18Z</time></trkpt><trkpt lat="43.30139763836115" lon="11.785622234835945"><ele>301.0</ele><time>2026-05-02T16:27:19Z</time></trkpt><trkpt lat="43.30156289069738" lon="11.785641400756617"><ele>303.66666666666663</ele><time>2026-05-02T16:27:20Z</time></trkpt><trkpt lat="43.30173192732826" lon="11.785666363714649"><ele>306.3333333333333</ele><time>2026-05-02T16:27:21Z</time></trkpt><trkpt lat="43.30190305201277" lon="11.785690743535447"><ele>309.0</ele><time>2026-05-02T16:27:22Z</time></trkpt><trkpt lat="43.30208191661359" lon="11.785709141617486"><ele>309.6666666666667</ele><time>2026-05-02T16:27:23Z</time></trkpt><trkpt lat="43.30226139333882" lon="11.785750922064338"><ele>310.33333333333337</ele><time>2026-05-02T16:27:24Z</time></trkpt><trkpt lat="43.30243572441305" lon="11.785783883187683"><ele>311.0</ele><time>2026-05-02T16:27:25Z</time></trkpt><trkpt lat="43.302602142747496" lon="11.785830685460212"><ele>311.0</ele><time>2026-05-02T16:27:26Z</time></trkpt><trkpt lat="43.302756411288456" lon="11.785882591769747"><ele>311.0</ele><time>2026-05-02T16:27:27Z</time></trkpt><trkpt lat="43.30290052513246" lon="11.785928978201289"><ele>311.0</ele><time>2026-05-02T16:27:28Z</time></trkpt><trkpt lat="43.303042569745216" lon="11.785954291125796"><ele>310.5</ele><time>2026-05-02T16:27:29Z</time></trkpt><trkpt lat="43.303173613523306" lon="11.785996978465658"><ele>310.0</ele><time>2026-05-02T16:27:30Z</time></trkpt><trkpt lat="43.30329402548374" lon="11.786033143167167"><ele>309.5</ele><time>2026-05-02T16:27:31Z</time></trkpt><trkpt lat="43.30340164319992" lon="11.786063881606063"><ele>309.0</ele><time>2026-05-02T16:27:32Z</time></trkpt><trkpt lat="43.30349997125987" lon="11.786095935290412"><ele>308.75</ele><time>2026-05-02T16:27:33Z</time></trkpt><trkpt lat="43.30360203042895" lon="11.786128648001187"><ele>308.5</ele><time>2026-05-02T16:27:34Z</time></trkpt><trkpt lat="43.30371253982108" lon="11.786167083055068"><ele>308.25</ele><time>2026-05-02T16:27:35Z</time></trkpt><trkpt lat="43.30382501392493" lon="11.78621480929587"><ele>308.0</ele><time>2026-05-02T16:27:36Z</time></trkpt><trkpt lat="43.30394221897869" lon="11.786271084750643"><ele>308.6</ele><time>2026-05-02T16:27:37Z</time></trkpt><trkpt lat="43.30405305677455" lon="11.786348393389929"><ele>309.20000000000005</ele><time>2026-05-02T16:27:38Z</time></trkpt><trkpt lat="43.3041692028323" lon="11.786393823214807"><ele>309.8</ele><time>2026-05-02T16:27:39Z</time></trkpt><trkpt lat="43.304273544135334" lon="11.786434485942472"><ele>310.40000000000003</ele><time>2026-05-02T16:27:40Z</time></trkpt><trkpt lat="43.304360151726115" lon="11.786477323432422"><ele>311.0</ele><time>2026-05-02T16:27:41Z</time></trkpt><trkpt lat="43.304435273370316" lon="11.78652640883097"><ele>311.0</ele><time>2026-05-02T16:27:42Z</time></trkpt><trkpt lat="43.30452868202893" lon="11.786595014013406"><ele>311.0</ele><time>2026-05-02T16:27:43Z</time></trkpt><trkpt lat="43.30461116971418" lon="11.786717865052374"><ele>311.0</ele><time>2026-05-02T16:27:44Z</time></trkpt><trkpt lat="43.30472966455563" lon="11.786826851223996"><ele>311.0</ele><time>2026-05-02T16:27:45Z</time></trkpt><trkpt lat="43.30483990507842" lon="11.786955719457023"><ele>311.5</ele><time>2026-05-02T16:27:46Z</time></trkpt><trkpt lat="43.304951094619724" lon="11.787078438946416"><ele>312.0</ele><time>2026-05-02T16:27:47Z</time></trkpt><trkpt lat="43.30505130553957" lon="11.787179334202301"><ele>312.5</ele><time>2026-05-02T16:27:48Z</time></trkpt><trkpt lat="43.30514461209949" lon="11.787281550582504"><ele>313.0</ele><time>2026-05-02T16:27:49Z</time></trkpt><trkpt lat="43.305223247649145" lon="11.787412941899737"><ele>313.0</ele><time>2026-05-02T16:27:50Z</time></trkpt><trkpt lat="43.30530529531183" lon="11.787532747323144"><ele>313.0</ele><time>2026-05-02T16:27:51Z</time></trkpt><trkpt lat="43.30538155111755" lon="11.787658707606521"><ele>313.0</ele><time>2026-05-02T16:27:52Z</time></trkpt><trkpt lat="43.305431979411686" lon="11.787809154247576"><ele>313.0</ele><time>2026-05-02T16:27:53Z</time></trkpt><trkpt lat="43.30548453642346" lon="11.78797844521605"><ele>313.5</ele><time>2026-05-02T16:27:54Z</time></trkpt><trkpt lat="43.30554224432551" lon="11.788156364734855"><ele>314.0</ele><time>2026-05-02T16:27:55Z</time></trkpt><trkpt lat="43.30561498432305" lon="11.78833639587384"><ele>314.5</ele><time>2026-05-02T16:27:56Z</time></trkpt><trkpt lat="43.30569999207973" lon="11.788510631069148"><ele>315.0</ele><time>2026-05-02T16:27:57Z</time></trkpt><trkpt lat="43.30578826119622" lon="11.788685408652952"><ele>313.3333333333333</ele><time>2026-05-02T16:27:58Z</time></trkpt><trkpt lat="43.305880072406495" lon="11.78886286826658"><ele>311.66666666666663</ele><time>2026-05-02T16:27:59Z</time></trkpt><trkpt lat="43.305980628975604" lon="11.789034649908487"><ele>310.0</ele><time>2026-05-02T16:28:00Z</time></trkpt><trkpt lat="43.30607909638146" lon="11.789227970666639"><ele>308.5</ele><time>2026-05-02T16:28:01Z</time></trkpt><trkpt lat="43.306158908604694" lon="11.789378912134968"><ele>307.0</ele><time>2026-05-02T16:28:02Z</time></trkpt><trkpt lat="43.306234192142874" lon="11.789535743869688"><ele>305.5</ele><time>2026-05-02T16:28:03Z</time></trkpt><trkpt lat="43.30628183834677" lon="11.789723190748655"><ele>304.0</ele><time>2026-05-02T16:28:04Z</time></trkpt><trkpt lat="43.306309480666116" lon="11.789925613921772"><ele>304.0</ele><time>2026-05-02T16:28:05Z</time></trkpt><trkpt lat="43.30632039387622" lon="11.790150122438154"><ele>304.0</ele><time>2026-05-02T16:28:06Z</time></trkpt><trkpt lat="43.30631656350647" lon="11.790386805508874"><ele>304.0</ele><time>2026-05-02T16:28:07Z</time></trkpt><trkpt lat="43.30631942251194" lon="11.790616383916468"><ele>303.25</ele><time>2026-05-02T16:28:08Z</time></trkpt><trkpt lat="43.30632668535366" lon="11.790824865082989"><ele>302.5</ele><time>2026-05-02T16:28:09Z</time></trkpt><trkpt lat="43.30633360968226" lon="11.791019362611053"><ele>301.75</ele><time>2026-05-02T16:28:10Z</time></trkpt><trkpt lat="43.306335964135" lon="11.791205444404659"><ele>301.0</ele><time>2026-05-02T16:28:11Z</time></trkpt><trkpt lat="43.30633716513086" lon="11.791387034603293"><ele>301.0</ele><time>2026-05-02T16:28:12Z</time></trkpt><trkpt lat="43.30633879956036" lon="11.79156417033062"><ele>301.0</ele><time>2026-05-02T16:28:13Z</time></trkpt><trkpt lat="43.306338978624105" lon="11.791734469754562"><ele>301.0</ele><time>2026-05-02T16:28:14Z</time></trkpt><trkpt lat="43.306333514822065" lon="11.79191365578162"><ele>301.0</ele><time>2026-05-02T16:28:15Z</time></trkpt><trkpt lat="43.30631430224856" lon="11.792107383858097"><ele>301.0</ele><time>2026-05-02T16:28:16Z</time></trkpt><trkpt lat="43.306274942255534" lon="11.792299759853766"><ele>301.0</ele><time>2026-05-02T16:28:17Z</time></trkpt><trkpt lat="43.30622006523678" lon="11.792491418811817"><ele>301.0</ele><time>2026-05-02T16:28:18Z</time></trkpt><trkpt lat="43.306159187518794" lon="11.792681420531338"><ele>301.0</ele><time>2026-05-02T16:28:19Z</time></trkpt><trkpt lat="43.30609914223378" lon="11.79287628253897"><ele>302.0</ele><time>2026-05-02T16:28:20Z</time></trkpt><trkpt lat="43.30604527308204" lon="11.793078688146798"><ele>303.0</ele><time>2026-05-02T16:28:21Z</time></trkpt><trkpt lat="43.305982336095454" lon="11.793271285794624"><ele>304.0</ele><time>2026-05-02T16:28:22Z</time></trkpt><trkpt lat="43.30592189106828" lon="11.793472820130464"><ele>303.5</ele><time>2026-05-02T16:28:23Z</time></trkpt><trkpt lat="43.30586390902637" lon="11.793670511699066"><ele>303.0</ele><time>2026-05-02T16:28:24Z</time></trkpt><trkpt lat="43.30580938488976" lon="11.793868824302116"><ele>302.5</ele><time>2026-05-02T16:28:25Z</time></trkpt><trkpt lat="43.30576055100598" lon="11.794045411862994"><ele>302.0</ele><time>2026-05-02T16:28:26Z</time></trkpt><trkpt lat="43.30571113673909" lon="11.794225186660649"><ele>300.6666666666667</ele><time>2026-05-02T16:28:27Z</time></trkpt><trkpt lat="43.30567409193068" lon="11.794412975391268"><ele>299.3333333333333</ele><time>2026-05-02T16:28:28Z</time></trkpt><trkpt lat="43.30565385868017" lon="11.794624770425708"><ele>298.0</ele><time>2026-05-02T16:28:29Z</time></trkpt><trkpt lat="43.30565735492621" lon="11.794864764185014"><ele>298.0</ele><time>2026-05-02T16:28:30Z</time></trkpt><trkpt lat="43.30567818221066" lon="11.795139663283212"><ele>298.0</ele><time>2026-05-02T16:28:31Z</time></trkpt><trkpt lat="43.3057170350584" lon="11.795429029180962"><ele>298.0</ele><time>2026-05-02T16:28:32Z</time></trkpt><trkpt lat="43.30573088704055" lon="11.795700403043934"><ele>297.0</ele><time>2026-05-02T16:28:33Z</time></trkpt><trkpt lat="43.30575300796773" lon="11.795968907448428"><ele>296.0</ele><time>2026-05-02T16:28:34Z</time></trkpt><trkpt lat="43.30577687821913" lon="11.796226267382844"><ele>295.0</ele><time>2026-05-02T16:28:35Z</time></trkpt><trkpt lat="43.30581268054107" lon="11.796470602914335"><ele>294.0</ele><time>2026-05-02T16:28:36Z</time></trkpt><trkpt lat="43.30586713324261" lon="11.796719979996002"><ele>293.0</ele><time>2026-05-02T16:28:37Z</time></trkpt><trkpt lat="43.30594417601182" lon="11.796965216718702"><ele>292.0</ele><time>2026-05-02T16:28:38Z</time></trkpt><trkpt lat="43.30602550813906" lon="11.797222126140634"><ele>291.3333333333333</ele><time>2026-05-02T16:28:39Z</time></trkpt><trkpt lat="43.30611148408746" lon="11.79747664894956"><ele>290.6666666666667</ele><time>2026-05-02T16:28:40Z</time></trkpt><trkpt lat="43.30620172972414" lon="11.797716688991018"><ele>290.0</ele><time>2026-05-02T16:28:41Z</time></trkpt><trkpt lat="43.30629625117053" lon="11.797949951905816"><ele>290.0</ele><time>2026-05-02T16:28:42Z</time></trkpt><trkpt lat="43.30640310537362" lon="11.798162509310375"><ele>290.0</ele><time>2026-05-02T16:28:43Z</time></trkpt><trkpt lat="43.30650740215578" lon="11.798378207224875"><ele>290.0</ele><time>2026-05-02T16:28:44Z</time></trkpt><trkpt lat="43.30661757992183" lon="11.7986078508391"><ele>290.0</ele><time>2026-05-02T16:28:45Z</time></trkpt><trkpt lat="43.30675517431726" lon="11.798808016738542"><ele>290.0</ele><time>2026-05-02T16:28:46Z</time></trkpt><trkpt lat="43.3069023842475" lon="11.799003948424513"><ele>290.0</ele><time>2026-05-02T16:28:47Z</time></trkpt><trkpt lat="43.3070583530086" lon="11.799198195047746"><ele>290.0</ele><time>2026-05-02T16:28:48Z</time></trkpt><trkpt lat="43.30721740489769" lon="11.799391207125192"><ele>290.0</ele><time>2026-05-02T16:28:49Z</time></trkpt><trkpt lat="43.3073894555253" lon="11.799561710327154"><ele>290.0</ele><time>2026-05-02T16:28:50Z</time></trkpt><trkpt lat="43.30755215260804" lon="11.799744040099574"><ele>291.6666666666667</ele><time>2026-05-02T16:28:51Z</time></trkpt><trkpt lat="43.30770059166279" lon="11.799930925054426"><ele>293.3333333333333</ele><time>2026-05-02T16:28:52Z</time></trkpt><trkpt lat="43.30787866525571" lon="11.800117828047338"><ele>295.0</ele><time>2026-05-02T16:28:53Z</time></trkpt><trkpt lat="43.308044814672684" lon="11.800300058775615"><ele>294.0</ele><time>2026-05-02T16:28:54Z</time></trkpt><trkpt lat="43.30821333311726" lon="11.80047949301094"><ele>293.0</ele><time>2026-05-02T16:28:55Z</time></trkpt><trkpt lat="43.308383805197295" lon="11.8006473907233"><ele>292.0</ele><time>2026-05-02T16:28:56Z</time></trkpt><trkpt lat="43.30855351954717" lon="11.800807812367427"><ele>292.0</ele><time>2026-05-02T16:28:57Z</time></trkpt><trkpt lat="43.30872133761347" lon="11.800956445341182"><ele>292.0</ele><time>2026-05-02T16:28:58Z</time></trkpt><trkpt lat="43.308892217386926" lon="11.801103418245283"><ele>292.0</ele><time>2026-05-02T16:28:59Z</time></trkpt><trkpt lat="43.309058880823805" lon="11.80124156017392"><ele>289.0</ele><time>2026-05-02T16:29:00Z</time></trkpt><trkpt lat="43.30923319373755" lon="11.801388662293556"><ele>286.0</ele><time>2026-05-02T16:29:01Z</time></trkpt><trkpt lat="43.309407294276795" lon="11.801524896459865"><ele>283.0</ele><time>2026-05-02T16:29:02Z</time></trkpt><trkpt lat="43.309587726933636" lon="11.801661627660929"><ele>281.3333333333333</ele><time>2026-05-02T16:29:03Z</time></trkpt><trkpt lat="43.30976578510983" lon="11.80179971132691"><ele>279.6666666666667</ele><time>2026-05-02T16:29:04Z</time></trkpt><trkpt lat="43.3099451624479" lon="11.801940399890759"><ele>278.0</ele><time>2026-05-02T16:29:05Z</time></trkpt><trkpt lat="43.31011935938784" lon="11.802077525620273"><ele>277.0</ele><time>2026-05-02T16:29:06Z</time></trkpt><trkpt lat="43.31028772787976" lon="11.802208002960569"><ele>276.0</ele><time>2026-05-02T16:29:07Z</time></trkpt><trkpt lat="43.31045305055311" lon="11.802334001974796"><ele>275.0</ele><time>2026-05-02T16:29:08Z</time></trkpt><trkpt lat="43.310614848841" lon="11.802454261456162"><ele>273.33333333333337</ele><time>2026-05-02T16:29:09Z</time></trkpt><trkpt lat="43.31076941103131" lon="11.80257705230403"><ele>271.6666666666667</ele><time>2026-05-02T16:29:10Z</time></trkpt><trkpt lat="43.31092501641267" lon="11.802690008028438"><ele>270.0</ele><time>2026-05-02T16:29:11Z</time></trkpt><trkpt lat="43.311083956815864" lon="11.802796729181148"><ele>269.0</ele><time>2026-05-02T16:29:12Z</time></trkpt><trkpt lat="43.311244655253425" lon="11.802911126953683"><ele>268.0</ele><time>2026-05-02T16:29:13Z</time></trkpt><trkpt lat="43.31140437749929" lon="11.803029287120998"><ele>267.0</ele><time>2026-05-02T16:29:14Z</time></trkpt><trkpt lat="43.31156697307055" lon="11.803154894914355"><ele>265.0</ele><time>2026-05-02T16:29:15Z</time></trkpt><trkpt lat="43.31172781084552" lon="11.803285183295289"><ele>263.0</ele><time>2026-05-02T16:29:16Z</time></trkpt><trkpt lat="43.31188872905845" lon="11.803435941824153"><ele>261.0</ele><time>2026-05-02T16:29:17Z</time></trkpt><trkpt lat="43.31205442394448" lon="11.803602031300228"><ele>260.3333333333333</ele><time>2026-05-02T16:29:18Z</time></trkpt><trkpt lat="43.31219890622521" lon="11.803820481710808"><ele>259.66666666666663</ele><time>2026-05-02T16:29:19Z</time></trkpt><trkpt lat="43.31234047164232" lon="11.804042060091453"><ele>259.0</ele><time>2026-05-02T16:29:20Z</time></trkpt><trkpt lat="43.312488536306" lon="11.804261377124478"><ele>257.3333333333333</ele><time>2026-05-02T16:29:21Z</time></trkpt><trkpt lat="43.31262811476575" lon="11.804498299731543"><ele>255.66666666666669</ele><time>2026-05-02T16:29:22Z</time></trkpt><trkpt lat="43.31276042962322" lon="11.804719668502221"><ele>254.0</ele><time>2026-05-02T16:29:23Z</time></trkpt><trkpt lat="43.312882924095234" lon="11.804932863835765"><ele>254.0</ele><time>2026-05-02T16:29:24Z</time></trkpt><trkpt lat="43.31301109927712" lon="11.805146331470516"><ele>254.0</ele><time>2026-05-02T16:29:25Z</time></trkpt><trkpt lat="43.31314273348464" lon="11.805360119723218"><ele>254.0</ele><time>2026-05-02T16:29:26Z</time></trkpt><trkpt lat="43.31327809655843" lon="11.80558040051164"><ele>254.33333333333334</ele><time>2026-05-02T16:29:27Z</time></trkpt><trkpt lat="43.3134089919246" lon="11.805798104375878"><ele>254.66666666666669</ele><time>2026-05-02T16:29:28Z</time></trkpt><trkpt lat="43.31354073702674" lon="11.806013784859973"><ele>255.0</ele><time>2026-05-02T16:29:29Z</time></trkpt><trkpt lat="43.31366941803896" lon="11.806225927541886"><ele>255.33333333333331</ele><time>2026-05-02T16:29:30Z</time></trkpt><trkpt lat="43.31379534119486" lon="11.806434956121064"><ele>255.66666666666666</ele><time>2026-05-02T16:29:31Z</time></trkpt><trkpt lat="43.31391742160202" lon="11.806638560803302"><ele>256.0</ele><time>2026-05-02T16:29:32Z</time></trkpt><trkpt lat="43.31403989998712" lon="11.806840680003056"><ele>258.3333333333333</ele><time>2026-05-02T16:29:33Z</time></trkpt><trkpt lat="43.31416136122232" lon="11.807039965100437"><ele>260.6666666666667</ele><time>2026-05-02T16:29:34Z</time></trkpt><trkpt lat="43.314274507959205" lon="11.807227326534917"><ele>263.0</ele><time>2026-05-02T16:29:35Z</time></trkpt><trkpt lat="43.31438937212984" lon="11.807407049182638"><ele>263.0</ele><time>2026-05-02T16:29:36Z</time></trkpt><trkpt lat="43.31449815480549" lon="11.80758514027405"><ele>263.0</ele><time>2026-05-02T16:29:37Z</time></trkpt><trkpt lat="43.31459491777871" lon="11.807750702478847"><ele>263.0</ele><time>2026-05-02T16:29:38Z</time></trkpt><trkpt lat="43.31469023707168" lon="11.807910985661877"><ele>262.0</ele><time>2026-05-02T16:29:39Z</time></trkpt><trkpt lat="43.31479319154732" lon="11.808083973237476"><ele>261.0</ele><time>2026-05-02T16:29:40Z</time></trkpt><trkpt lat="43.31490093137724" lon="11.808264455248542"><ele>260.0</ele><time>2026-05-02T16:29:41Z</time></trkpt><trkpt lat="43.31500842249666" lon="11.80844320532849"><ele>259.0</ele><time>2026-05-02T16:29:42Z</time></trkpt><trkpt lat="43.31512070989604" lon="11.808628085833407"><ele>258.0</ele><time>2026-05-02T16:29:43Z</time></trkpt><trkpt lat="43.315227782513055" lon="11.808808523513909"><ele>257.0</ele><time>2026-05-02T16:29:44Z</time></trkpt><trkpt lat="43.315331774728485" lon="11.808979127642345"><ele>257.0</ele><time>2026-05-02T16:29:45Z</time></trkpt><trkpt lat="43.31543468275409" lon="11.80914381894993"><ele>257.0</ele><time>2026-05-02T16:29:46Z</time></trkpt><trkpt lat="43.315534778563304" lon="11.8093071895004"><ele>257.0</ele><time>2026-05-02T16:29:47Z</time></trkpt><trkpt lat="43.31563026504186" lon="11.809461201168348"><ele>255.75</ele><time>2026-05-02T16:29:48Z</time></trkpt><trkpt lat="43.31572030513134" lon="11.809601424978315"><ele>254.5</ele><time>2026-05-02T16:29:49Z</time></trkpt><trkpt lat="43.315800957058805" lon="11.809721210194095"><ele>253.25</ele><time>2026-05-02T16:29:50Z</time></trkpt><trkpt lat="43.31587662944352" lon="11.809833544919982"><ele>252.0</ele><time>2026-05-02T16:29:51Z</time></trkpt><trkpt lat="43.31595091103344" lon="11.809942766905179"><ele>252.0</ele><time>2026-05-02T16:29:52Z</time></trkpt><trkpt lat="43.31603088050382" lon="11.810059061663702"><ele>252.0</ele><time>2026-05-02T16:29:53Z</time></trkpt><trkpt lat="43.316118820062776" lon="11.810186983040639"><ele>252.0</ele><time>2026-05-02T16:29:54Z</time></trkpt><trkpt lat="43.3162165694468" lon="11.810324546852009"><ele>252.0</ele><time>2026-05-02T16:29:55Z</time></trkpt><trkpt lat="43.31631524799912" lon="11.81046078583076"><ele>251.5</ele><time>2026-05-02T16:29:56Z</time></trkpt><trkpt lat="43.31640968843315" lon="11.81059317089147"><ele>251.0</ele><time>2026-05-02T16:29:57Z</time></trkpt><trkpt lat="43.3165016891074" lon="11.810729022811097"><ele>250.5</ele><time>2026-05-02T16:29:58Z</time></trkpt><trkpt lat="43.31659854341566" lon="11.810870703899353"><ele>250.0</ele><time>2026-05-02T16:29:59Z</time></trkpt><trkpt lat="43.3167016359147" lon="11.811019563644601"><ele>250.0</ele><time>2026-05-02T16:30:00Z</time></trkpt><trkpt lat="43.31681095339319" lon="11.811176563437495"><ele>250.0</ele><time>2026-05-02T16:30:01Z</time></trkpt><trkpt lat="43.316921524810994" lon="11.811335264702612"><ele>250.0</ele><time>2026-05-02T16:30:02Z</time></trkpt><trkpt lat="43.31702598684398" lon="11.811481493203262"><ele>250.0</ele><time>2026-05-02T16:30:03Z</time></trkpt><trkpt lat="43.31712344002826" lon="11.811617110132282"><ele>250.0</ele><time>2026-05-02T16:30:04Z</time></trkpt><trkpt lat="43.31721283263973" lon="11.811742309782236"><ele>250.0</ele><time>2026-05-02T16:30:05Z</time></trkpt><trkpt lat="43.317300364784195" lon="11.81186548158269"><ele>250.0</ele><time>2026-05-02T16:30:06Z</time></trkpt><trkpt lat="43.317383728764916" lon="11.811983481222917"><ele>249.8</ele><time>2026-05-02T16:30:07Z</time></trkpt><trkpt lat="43.31746327521947" lon="11.81209422387482"><ele>249.6</ele><time>2026-05-02T16:30:08Z</time></trkpt><trkpt lat="43.317538599725495" lon="11.812199156370358"><ele>249.39999999999998</ele><time>2026-05-02T16:30:09Z</time></trkpt><trkpt lat="43.317603054397075" lon="11.812289959035715"><ele>249.2</ele><time>2026-05-02T16:30:10Z</time></trkpt><trkpt lat="43.31766146435292" lon="11.812373070781756"><ele>249.0</ele><time>2026-05-02T16:30:11Z</time></trkpt><trkpt lat="43.3177102982498" lon="11.812450115924833"><ele>249.0</ele><time>2026-05-02T16:30:12Z</time></trkpt><trkpt lat="43.31774797957546" lon="11.812532996734754"><ele>249.0</ele><time>2026-05-02T16:30:13Z</time></trkpt><trkpt lat="43.317780258522106" lon="11.812621146745172"><ele>249.0</ele><time>2026-05-02T16:30:14Z</time></trkpt><trkpt lat="43.317818516949494" lon="11.812700010506397"><ele>249.0</ele><time>2026-05-02T16:30:15Z</time></trkpt><trkpt lat="43.31786853197509" lon="11.812756028916171"><ele>249.0</ele><time>2026-05-02T16:30:16Z</time></trkpt><trkpt lat="43.31798839982586" lon="11.81276787831739"><ele>249.0</ele><time>2026-05-02T16:30:18Z</time></trkpt><trkpt lat="43.31804413778359" lon="11.812725465507402"><ele>248.75</ele><time>2026-05-02T16:30:19Z</time></trkpt><trkpt lat="43.31810395533759" lon="11.812642595555863"><ele>248.5</ele><time>2026-05-02T16:30:20Z</time></trkpt><trkpt lat="43.318153348242696" lon="11.812512493545443"><ele>248.25</ele><time>2026-05-02T16:30:21Z</time></trkpt><trkpt lat="43.31827030723762" lon="11.812445239663301"><ele>248.0</ele><time>2026-05-02T16:30:22Z</time></trkpt><trkpt lat="43.31840976798211" lon="11.812432003210972"><ele>248.0</ele><time>2026-05-02T16:30:23Z</time></trkpt><trkpt lat="43.31855886393966" lon="11.812404768974536"><ele>248.0</ele><time>2026-05-02T16:30:24Z</time></trkpt><trkpt lat="43.318712714465796" lon="11.812393195239123"><ele>248.0</ele><time>2026-05-02T16:30:25Z</time></trkpt><trkpt lat="43.31886536761656" lon="11.812388677298973"><ele>248.33333333333334</ele><time>2026-05-02T16:30:26Z</time></trkpt><trkpt lat="43.319017478749856" lon="11.812362478970961"><ele>248.66666666666669</ele><time>2026-05-02T16:30:27Z</time></trkpt><trkpt lat="43.31918432294634" lon="11.812381615663517"><ele>249.0</ele><time>2026-05-02T16:30:28Z</time></trkpt><trkpt lat="43.31937259409464" lon="11.812378972751212"><ele>249.0</ele><time>2026-05-02T16:30:29Z</time></trkpt><trkpt lat="43.3195646758682" lon="11.812375747272963"><ele>249.0</ele><time>2026-05-02T16:30:30Z</time></trkpt><trkpt lat="43.31974310295046" lon="11.812350371046556"><ele>249.0</ele><time>2026-05-02T16:30:31Z</time></trkpt><trkpt lat="43.31989282724589" lon="11.812370236904833"><ele>248.5</ele><time>2026-05-02T16:30:32Z</time></trkpt><trkpt lat="43.32002698075099" lon="11.812367853969214"><ele>248.0</ele><time>2026-05-02T16:30:33Z</time></trkpt><trkpt lat="43.320155399272565" lon="11.812365604551731"><ele>247.5</ele><time>2026-05-02T16:30:34Z</time></trkpt><trkpt lat="43.320279441546695" lon="11.812363311053582"><ele>247.0</ele><time>2026-05-02T16:30:35Z</time></trkpt><trkpt lat="43.3203900836979" lon="11.812361104316471"><ele>247.0</ele><time>2026-05-02T16:30:36Z</time></trkpt><trkpt lat="43.320496496266905" lon="11.812358981934604"><ele>247.0</ele><time>2026-05-02T16:30:37Z</time></trkpt><trkpt lat="43.32059244415751" lon="11.812357068270673"><ele>247.0</ele><time>2026-05-02T16:30:38Z</time></trkpt><trkpt lat="43.32069559375824" lon="11.812335940099922"><ele>247.0</ele><time>2026-05-02T16:30:39Z</time></trkpt><trkpt lat="43.32080398413815" lon="11.81233495563417"><ele>247.0</ele><time>2026-05-02T16:30:40Z</time></trkpt><trkpt lat="43.32091786598568" lon="11.812332043245208"><ele>247.0</ele><time>2026-05-02T16:30:41Z</time></trkpt><trkpt lat="43.32103191495684" lon="11.812331183745528"><ele>247.0</ele><time>2026-05-02T16:30:42Z</time></trkpt><trkpt lat="43.3211472196693" lon="11.812326933909244"><ele>247.0</ele><time>2026-05-02T16:30:43Z</time></trkpt><trkpt lat="43.3212597722968" lon="11.812322082640069"><ele>247.0</ele><time>2026-05-02T16:30:44Z</time></trkpt><trkpt lat="43.321361934376576" lon="11.812342170473515"><ele>247.0</ele><time>2026-05-02T16:30:45Z</time></trkpt><trkpt lat="43.32145487976522" lon="11.812319284720834"><ele>246.6</ele><time>2026-05-02T16:30:46Z</time></trkpt><trkpt lat="43.321551408170905" lon="11.812317519352378"><ele>246.2</ele><time>2026-05-02T16:30:47Z</time></trkpt><trkpt lat="43.321657211134436" lon="11.812313678185054"><ele>245.8</ele><time>2026-05-02T16:30:48Z</time></trkpt><trkpt lat="43.32176235026321" lon="11.81231003949921"><ele>245.4</ele><time>2026-05-02T16:30:49Z</time></trkpt><trkpt lat="43.321870935846626" lon="11.812306641306064"><ele>245.0</ele><time>2026-05-02T16:30:50Z</time></trkpt><trkpt lat="43.321983499683476" lon="11.81230452135673"><ele>245.0</ele><time>2026-05-02T16:30:51Z</time></trkpt><trkpt lat="43.32210119448235" lon="11.81230218869254"><ele>245.0</ele><time>2026-05-02T16:30:52Z</time></trkpt><trkpt lat="43.32221260064461" lon="11.812302354461893"><ele>245.0</ele><time>2026-05-02T16:30:53Z</time></trkpt><trkpt lat="43.32231828661226" lon="11.812298355030672"><ele>245.0</ele><time>2026-05-02T16:30:54Z</time></trkpt><trkpt lat="43.3224283293185" lon="11.812294354413899"><ele>245.0</ele><time>2026-05-02T16:30:55Z</time></trkpt><trkpt lat="43.32254419112665" lon="11.812291577176525"><ele>245.4</ele><time>2026-05-02T16:30:56Z</time></trkpt><trkpt lat="43.322648446873536" lon="11.812290055280446"><ele>245.8</ele><time>2026-05-02T16:30:57Z</time></trkpt><trkpt lat="43.3227396058579" lon="11.812288475213505"><ele>246.2</ele><time>2026-05-02T16:30:58Z</time></trkpt><trkpt lat="43.32283060660602" lon="11.81228519829749"><ele>246.6</ele><time>2026-05-02T16:30:59Z</time></trkpt><trkpt lat="43.32293439294051" lon="11.81228076993288"><ele>247.0</ele><time>2026-05-02T16:31:00Z</time></trkpt><trkpt lat="43.32303723999709" lon="11.812272537938313"><ele>246.99999999999997</ele><time>2026-05-02T16:31:01Z</time></trkpt><trkpt lat="43.32313401845455" lon="11.8122879016557"><ele>247.0</ele><time>2026-05-02T16:31:02Z</time></trkpt><trkpt lat="43.32322040553122" lon="11.812277651763331"><ele>247.0</ele><time>2026-05-02T16:31:03Z</time></trkpt><trkpt lat="43.323304044831076" lon="11.812266626616154"><ele>247.0</ele><time>2026-05-02T16:31:04Z</time></trkpt><trkpt lat="43.323391486890124" lon="11.812252455679076"><ele>246.99999999999997</ele><time>2026-05-02T16:31:05Z</time></trkpt><trkpt lat="43.32347837965681" lon="11.812238373746055"><ele>247.0</ele><time>2026-05-02T16:31:06Z</time></trkpt><trkpt lat="43.323569599749355" lon="11.812223590522489"><ele>247.0</ele><time>2026-05-02T16:31:07Z</time></trkpt><trkpt lat="43.3236622368503" lon="11.81220884604125"><ele>247.0</ele><time>2026-05-02T16:31:08Z</time></trkpt><trkpt lat="43.32375786595659" lon="11.81219489652518"><ele>247.0</ele><time>2026-05-02T16:31:09Z</time></trkpt><trkpt lat="43.32385604337334" lon="11.812180575029215"><ele>247.0</ele><time>2026-05-02T16:31:10Z</time></trkpt><trkpt lat="43.323955611309025" lon="11.812167608699973"><ele>247.0</ele><time>2026-05-02T16:31:11Z</time></trkpt><trkpt lat="43.3240484050006" lon="11.812154937035011"><ele>246.8</ele><time>2026-05-02T16:31:12Z</time></trkpt><trkpt lat="43.324139868574605" lon="11.812142398224278"><ele>246.6</ele><time>2026-05-02T16:31:13Z</time></trkpt><trkpt lat="43.32423260497314" lon="11.81213000426974"><ele>246.40000000000003</ele><time>2026-05-02T16:31:14Z</time></trkpt><trkpt lat="43.32432242467464" lon="11.812105491539718"><ele>246.20000000000002</ele><time>2026-05-02T16:31:15Z</time></trkpt><trkpt lat="43.32441239471271" lon="11.812117184718588"><ele>246.0</ele><time>2026-05-02T16:31:16Z</time></trkpt><trkpt lat="43.32450333022801" lon="11.81214256725291"><ele>246.0</ele><time>2026-05-02T16:31:17Z</time></trkpt><trkpt lat="43.32458612200858" lon="11.81217587951151"><ele>246.00000000000003</ele><time>2026-05-02T16:31:18Z</time></trkpt><trkpt lat="43.32466514046168" lon="11.812227271179035"><ele>246.00000000000003</ele><time>2026-05-02T16:31:19Z</time></trkpt><trkpt lat="43.3247504068815" lon="11.812274009992048"><ele>246.0</ele><time>2026-05-02T16:31:20Z</time></trkpt><trkpt lat="43.32485763141486" lon="11.812320159779727"><ele>246.0</ele><time>2026-05-02T16:31:21Z</time></trkpt><trkpt lat="43.324976727687236" lon="11.812307050216557"><ele>245.8</ele><time>2026-05-02T16:31:22Z</time></trkpt><trkpt lat="43.32502233327816" lon="11.812210436256056"><ele>245.60000000000002</ele><time>2026-05-02T16:31:23Z</time></trkpt><trkpt lat="43.32510009794862" lon="11.812108460774486"><ele>245.4</ele><time>2026-05-02T16:31:24Z</time></trkpt><trkpt lat="43.325193519558404" lon="11.812005396375701"><ele>245.2</ele><time>2026-05-02T16:31:25Z</time></trkpt><trkpt lat="43.32531843078985" lon="11.811951366107092"><ele>245.0</ele><time>2026-05-02T16:31:26Z</time></trkpt><trkpt lat="43.325453462523576" lon="11.81192372944441"><ele>245.66666666666669</ele><time>2026-05-02T16:31:27Z</time></trkpt><trkpt lat="43.32559457278009" lon="11.811922804178261"><ele>246.33333333333331</ele><time>2026-05-02T16:31:28Z</time></trkpt><trkpt lat="43.32576749676691" lon="11.81189682587523"><ele>247.0</ele><time>2026-05-02T16:31:29Z</time></trkpt><trkpt lat="43.32597619124091" lon="11.811865484516339"><ele>247.0</ele><time>2026-05-02T16:31:30Z</time></trkpt><trkpt lat="43.32620706454311" lon="11.811830140939188"><ele>247.0</ele><time>2026-05-02T16:31:31Z</time></trkpt><trkpt lat="43.32644806511207" lon="11.811785797133869"><ele>246.0</ele><time>2026-05-02T16:31:32Z</time></trkpt><trkpt lat="43.32668616491498" lon="11.811710752918506"><ele>245.0</ele><time>2026-05-02T16:31:33Z</time></trkpt><trkpt lat="43.32693024971717" lon="11.811663134544455"><ele>245.0</ele><time>2026-05-02T16:31:34Z</time></trkpt><trkpt lat="43.327167585510544" lon="11.811610587646388"><ele>245.0</ele><time>2026-05-02T16:31:35Z</time></trkpt><trkpt lat="43.32739659928422" lon="11.811552511460318"><ele>245.66666666666669</ele><time>2026-05-02T16:31:36Z</time></trkpt><trkpt lat="43.3276208025298" lon="11.811497127040905"><ele>246.33333333333331</ele><time>2026-05-02T16:31:37Z</time></trkpt><trkpt lat="43.327835624989014" lon="11.811446315668741"><ele>247.0</ele><time>2026-05-02T16:31:38Z</time></trkpt><trkpt lat="43.32804611472998" lon="11.811404505039254"><ele>247.0</ele><time>2026-05-02T16:31:39Z</time></trkpt><trkpt lat="43.32825590416728" lon="11.811354573324149"><ele>247.0</ele><time>2026-05-02T16:31:40Z</time></trkpt><trkpt lat="43.328465771049636" lon="11.811307597459018"><ele>247.0</ele><time>2026-05-02T16:31:41Z</time></trkpt><trkpt lat="43.32868165145257" lon="11.811260979055836"><ele>247.0</ele><time>2026-05-02T16:31:42Z</time></trkpt><trkpt lat="43.32889058598546" lon="11.81122353053903"><ele>247.0</ele><time>2026-05-02T16:31:43Z</time></trkpt><trkpt lat="43.32909891742395" lon="11.811191256163852"><ele>247.0</ele><time>2026-05-02T16:31:44Z</time></trkpt><trkpt lat="43.329305646432076" lon="11.811173083250482"><ele>247.33333333333331</ele><time>2026-05-02T16:31:45Z</time></trkpt><trkpt lat="43.32951979318656" lon="11.811155201777224"><ele>247.66666666666669</ele><time>2026-05-02T16:31:46Z</time></trkpt><trkpt lat="43.32974061827915" lon="11.81114138145603"><ele>248.0</ele><time>2026-05-02T16:31:47Z</time></trkpt><trkpt lat="43.32996411210548" lon="11.811129384076473"><ele>247.0</ele><time>2026-05-02T16:31:48Z</time></trkpt><trkpt lat="43.33019234840497" lon="11.811114891152483"><ele>246.0</ele><time>2026-05-02T16:31:49Z</time></trkpt><trkpt lat="43.330420590011975" lon="11.811097895891297"><ele>246.5</ele><time>2026-05-02T16:31:50Z</time></trkpt><trkpt lat="43.33064898255409" lon="11.811083674354084"><ele>247.0</ele><time>2026-05-02T16:31:51Z</time></trkpt><trkpt lat="43.330876069671184" lon="11.811070871880135"><ele>247.0</ele><time>2026-05-02T16:31:52Z</time></trkpt><trkpt lat="43.33109889882997" lon="11.811058437699648"><ele>247.0</ele><time>2026-05-02T16:31:53Z</time></trkpt><trkpt lat="43.33131189878125" lon="11.811041084488691"><ele>247.0</ele><time>2026-05-02T16:31:54Z</time></trkpt><trkpt lat="43.331515544900086" lon="11.81103095267699"><ele>247.0</ele><time>2026-05-02T16:31:55Z</time></trkpt><trkpt lat="43.33169809873107" lon="11.811016214971014"><ele>247.0</ele><time>2026-05-02T16:31:56Z</time></trkpt><trkpt lat="43.33187682089309" lon="11.811007262230735"><ele>247.0</ele><time>2026-05-02T16:31:57Z</time></trkpt><trkpt lat="43.33205416980395" lon="11.810991662225005"><ele>246.66666666666666</ele><time>2026-05-02T16:31:58Z</time></trkpt><trkpt lat="43.332240287989265" lon="11.810977720658101"><ele>246.33333333333331</ele><time>2026-05-02T16:31:59Z</time></trkpt><trkpt lat="43.332430928570744" lon="11.81096211632451"><ele>246.0</ele><time>2026-05-02T16:32:00Z</time></trkpt><trkpt lat="43.33262994248554" lon="11.810953072487122"><ele>246.0</ele><time>2026-05-02T16:32:01Z</time></trkpt><trkpt lat="43.33283489202592" lon="11.810936164661456"><ele>246.0</ele><time>2026-05-02T16:32:02Z</time></trkpt><trkpt lat="43.33304692887154" lon="11.810917755761828"><ele>246.0</ele><time>2026-05-02T16:32:03Z</time></trkpt><trkpt lat="43.33326174347838" lon="11.810902188337064"><ele>246.0</ele><time>2026-05-02T16:32:04Z</time></trkpt><trkpt lat="43.3334742517482" lon="11.810890180628197"><ele>246.0</ele><time>2026-05-02T16:32:05Z</time></trkpt><trkpt lat="43.33367298009236" lon="11.810879352290502"><ele>246.0</ele><time>2026-05-02T16:32:06Z</time></trkpt><trkpt lat="43.333865197594626" lon="11.81086483927466"><ele>246.0</ele><time>2026-05-02T16:32:07Z</time></trkpt><trkpt lat="43.33405603945087" lon="11.810847303659216"><ele>246.0</ele><time>2026-05-02T16:32:08Z</time></trkpt><trkpt lat="43.33425538244162" lon="11.81083349559591"><ele>246.0</ele><time>2026-05-02T16:32:09Z</time></trkpt><trkpt lat="43.33446058193119" lon="11.810822687794218"><ele>246.0</ele><time>2026-05-02T16:32:10Z</time></trkpt><trkpt lat="43.33467080553092" lon="11.81080809426295"><ele>246.0</ele><time>2026-05-02T16:32:11Z</time></trkpt><trkpt lat="43.33488260433112" lon="11.810793447113591"><ele>246.0</ele><time>2026-05-02T16:32:12Z</time></trkpt><trkpt lat="43.33509534010749" lon="11.810778926869286"><ele>246.0</ele><time>2026-05-02T16:32:13Z</time></trkpt><trkpt lat="43.33531036769522" lon="11.810764248010367"><ele>246.0</ele><time>2026-05-02T16:32:14Z</time></trkpt><trkpt lat="43.33552980641803" lon="11.8107455618204"><ele>246.0</ele><time>2026-05-02T16:32:15Z</time></trkpt><trkpt lat="43.33575028358657" lon="11.810729247495242"><ele>246.33333333333331</ele><time>2026-05-02T16:32:16Z</time></trkpt><trkpt lat="43.33596818223788" lon="11.810715126043739"><ele>246.66666666666666</ele><time>2026-05-02T16:32:17Z</time></trkpt><trkpt lat="43.33618807326875" lon="11.810702745934428"><ele>247.0</ele><time>2026-05-02T16:32:18Z</time></trkpt><trkpt lat="43.33640593375471" lon="11.81068902907031"><ele>247.0</ele><time>2026-05-02T16:32:19Z</time></trkpt><trkpt lat="43.336617649510906" lon="11.810676486720055"><ele>247.0</ele><time>2026-05-02T16:32:20Z</time></trkpt><trkpt lat="43.336825157379025" lon="11.81066787514879"><ele>247.0</ele><time>2026-05-02T16:32:21Z</time></trkpt><trkpt lat="43.337029591870156" lon="11.810656630542168"><ele>246.66666666666666</ele><time>2026-05-02T16:32:22Z</time></trkpt><trkpt lat="43.337223770317294" lon="11.81064645941593"><ele>246.33333333333331</ele><time>2026-05-02T16:32:23Z</time></trkpt><trkpt lat="43.33740320914805" lon="11.810639501296158"><ele>246.0</ele><time>2026-05-02T16:32:24Z</time></trkpt><trkpt lat="43.33757849302726" lon="11.810624836057066"><ele>246.0</ele><time>2026-05-02T16:32:25Z</time></trkpt><trkpt lat="43.33776364325181" lon="11.810607414324556"><ele>246.0</ele><time>2026-05-02T16:32:26Z</time></trkpt><trkpt lat="43.33796061072059" lon="11.810594149143181"><ele>246.0</ele><time>2026-05-02T16:32:27Z</time></trkpt><trkpt lat="43.33816117257984" lon="11.810580071899011"><ele>246.33333333333331</ele><time>2026-05-02T16:32:28Z</time></trkpt><trkpt lat="43.33836339803238" lon="11.810564493610666"><ele>246.66666666666666</ele><time>2026-05-02T16:32:29Z</time></trkpt><trkpt lat="43.33856650910287" lon="11.810552415398625"><ele>247.0</ele><time>2026-05-02T16:32:30Z</time></trkpt><trkpt lat="43.33876104196025" lon="11.810538148862927"><ele>247.0</ele><time>2026-05-02T16:32:31Z</time></trkpt><trkpt lat="43.33895065159877" lon="11.81052288875925"><ele>247.0</ele><time>2026-05-02T16:32:32Z</time></trkpt><trkpt lat="43.33914201129793" lon="11.810509580073523"><ele>247.0</ele><time>2026-05-02T16:32:33Z</time></trkpt><trkpt lat="43.33933726886838" lon="11.810502071130404"><ele>247.0</ele><time>2026-05-02T16:32:34Z</time></trkpt><trkpt lat="43.33953316819894" lon="11.81049191127443"><ele>247.0</ele><time>2026-05-02T16:32:35Z</time></trkpt><trkpt lat="43.33972960294657" lon="11.810476357092679"><ele>247.0</ele><time>2026-05-02T16:32:36Z</time></trkpt><trkpt lat="43.3399259254748" lon="11.81046066955932"><ele>247.0</ele><time>2026-05-02T16:32:37Z</time></trkpt><trkpt lat="43.340123245966865" lon="11.810450704388117"><ele>247.0</ele><time>2026-05-02T16:32:38Z</time></trkpt><trkpt lat="43.3403199315298" lon="11.810440819880204"><ele>247.0</ele><time>2026-05-02T16:32:39Z</time></trkpt><trkpt lat="43.34051637223501" lon="11.810428619077559"><ele>247.0</ele><time>2026-05-02T16:32:40Z</time></trkpt><trkpt lat="43.340710231678834" lon="11.810413732551456"><ele>247.0</ele><time>2026-05-02T16:32:41Z</time></trkpt><trkpt lat="43.34090444748106" lon="11.810398465958812"><ele>247.0</ele><time>2026-05-02T16:32:42Z</time></trkpt><trkpt lat="43.34109882971521" lon="11.810385346429992"><ele>247.0</ele><time>2026-05-02T16:32:43Z</time></trkpt><trkpt lat="43.34129123517167" lon="11.810374773948215"><ele>247.0</ele><time>2026-05-02T16:32:44Z</time></trkpt><trkpt lat="43.34148719541417" lon="11.810364577265252"><ele>247.0</ele><time>2026-05-02T16:32:45Z</time></trkpt><trkpt lat="43.34167978140926" lon="11.81035319694888"><ele>247.0</ele><time>2026-05-02T16:32:46Z</time></trkpt><trkpt lat="43.34187316103197" lon="11.810344712709696"><ele>247.0</ele><time>2026-05-02T16:32:47Z</time></trkpt><trkpt lat="43.34205918472971" lon="11.810357648100807"><ele>247.0</ele><time>2026-05-02T16:32:48Z</time></trkpt><trkpt lat="43.342247719813365" lon="11.810388389023567"><ele>247.33333333333331</ele><time>2026-05-02T16:32:49Z</time></trkpt><trkpt lat="43.34243859187618" lon="11.810443247885559"><ele>247.66666666666669</ele><time>2026-05-02T16:32:50Z</time></trkpt><trkpt lat="43.34262685943025" lon="11.810507122447056"><ele>248.0</ele><time>2026-05-02T16:32:51Z</time></trkpt><trkpt lat="43.34281406832892" lon="11.810573326573737"><ele>248.0</ele><time>2026-05-02T16:32:52Z</time></trkpt><trkpt lat="43.343005852588654" lon="11.810636685423736"><ele>248.0</ele><time>2026-05-02T16:32:53Z</time></trkpt><trkpt lat="43.343197288132814" lon="11.810698542745868"><ele>248.0</ele><time>2026-05-02T16:32:54Z</time></trkpt><trkpt lat="43.34339028848387" lon="11.810763881287148"><ele>248.0</ele><time>2026-05-02T16:32:55Z</time></trkpt><trkpt lat="43.34358157170103" lon="11.810829520358535"><ele>248.0</ele><time>2026-05-02T16:32:56Z</time></trkpt><trkpt lat="43.34377294351745" lon="11.81088960619745"><ele>248.0</ele><time>2026-05-02T16:32:57Z</time></trkpt><trkpt lat="43.343962921013514" lon="11.81095678804926"><ele>248.0</ele><time>2026-05-02T16:32:58Z</time></trkpt><trkpt lat="43.34415173038633" lon="11.811021342527146"><ele>248.0</ele><time>2026-05-02T16:32:59Z</time></trkpt><trkpt lat="43.34434166667524" lon="11.811086217702897"><ele>248.0</ele><time>2026-05-02T16:33:00Z</time></trkpt><trkpt lat="43.34453050895927" lon="11.811148733850272"><ele>248.33333333333334</ele><time>2026-05-02T16:33:01Z</time></trkpt><trkpt lat="43.344719586178805" lon="11.811211720591755"><ele>248.66666666666669</ele><time>2026-05-02T16:33:02Z</time></trkpt><trkpt lat="43.34491013122884" lon="11.811276990323227"><ele>249.0</ele><time>2026-05-02T16:33:03Z</time></trkpt><trkpt lat="43.34510100288767" lon="11.81133930198132"><ele>249.0</ele><time>2026-05-02T16:33:04Z</time></trkpt><trkpt lat="43.345292974469785" lon="11.811405039836266"><ele>249.0</ele><time>2026-05-02T16:33:05Z</time></trkpt><trkpt lat="43.34548647737469" lon="11.811468577693176"><ele>249.0</ele><time>2026-05-02T16:33:06Z</time></trkpt><trkpt lat="43.345680439507646" lon="11.811515820910241"><ele>249.0</ele><time>2026-05-02T16:33:07Z</time></trkpt><trkpt lat="43.345878913272706" lon="11.811540621688723"><ele>249.0</ele><time>2026-05-02T16:33:08Z</time></trkpt><trkpt lat="43.346080003942284" lon="11.811546394523589"><ele>249.0</ele><time>2026-05-02T16:33:09Z</time></trkpt><trkpt lat="43.34628055496896" lon="11.811536352950544"><ele>249.66666666666669</ele><time>2026-05-02T16:33:10Z</time></trkpt><trkpt lat="43.34648176603687" lon="11.811513618890313"><ele>250.33333333333334</ele><time>2026-05-02T16:33:11Z</time></trkpt><trkpt lat="43.34668353593819" lon="11.811485088161568"><ele>251.0</ele><time>2026-05-02T16:33:12Z</time></trkpt><trkpt lat="43.34688036300115" lon="11.811462118250285"><ele>251.0</ele><time>2026-05-02T16:33:13Z</time></trkpt><trkpt lat="43.3470742175097" lon="11.811440661562903"><ele>251.0</ele><time>2026-05-02T16:33:14Z</time></trkpt><trkpt lat="43.34726262372795" lon="11.811418509354183"><ele>251.0</ele><time>2026-05-02T16:33:15Z</time></trkpt><trkpt lat="43.347450436963136" lon="11.811416388888695"><ele>250.66666666666669</ele><time>2026-05-02T16:33:16Z</time></trkpt><trkpt lat="43.34763750898581" lon="11.81139556380114"><ele>250.33333333333331</ele><time>2026-05-02T16:33:17Z</time></trkpt><trkpt lat="43.34782552150441" lon="11.811374498462492"><ele>250.0</ele><time>2026-05-02T16:33:18Z</time></trkpt><trkpt lat="43.34801202808311" lon="11.811332756055265"><ele>250.66666666666666</ele><time>2026-05-02T16:33:19Z</time></trkpt><trkpt lat="43.348198064115174" lon="11.811322263137214"><ele>251.33333333333331</ele><time>2026-05-02T16:33:20Z</time></trkpt><trkpt lat="43.348382477950395" lon="11.811349671828363"><ele>252.0</ele><time>2026-05-02T16:33:21Z</time></trkpt><trkpt lat="43.34853440359232" lon="11.811285810006797"><ele>252.0</ele><time>2026-05-02T16:33:22Z</time></trkpt><trkpt lat="43.348688348931425" lon="11.811275242180303"><ele>252.0</ele><time>2026-05-02T16:33:23Z</time></trkpt><trkpt lat="43.34884935664222" lon="11.811256353211451"><ele>252.0</ele><time>2026-05-02T16:33:24Z</time></trkpt><trkpt lat="43.349015177274765" lon="11.811237424321583"><ele>252.0</ele><time>2026-05-02T16:33:25Z</time></trkpt><trkpt lat="43.34917880825668" lon="11.811212737035872"><ele>252.0</ele><time>2026-05-02T16:33:26Z</time></trkpt><trkpt lat="43.349346463660865" lon="11.811194824397305"><ele>252.0</ele><time>2026-05-02T16:33:27Z</time></trkpt><trkpt lat="43.34951481441728" lon="11.811172784383523"><ele>252.0</ele><time>2026-05-02T16:33:28Z</time></trkpt><trkpt lat="43.349679890850524" lon="11.811162211711851"><ele>252.0</ele><time>2026-05-02T16:33:29Z</time></trkpt><trkpt lat="43.34984122169394" lon="11.811158266760769"><ele>252.0</ele><time>2026-05-02T16:33:30Z</time></trkpt><trkpt lat="43.3500025687596" lon="11.811161445705757"><ele>251.75</ele><time>2026-05-02T16:33:31Z</time></trkpt><trkpt lat="43.35015270945313" lon="11.811159288285172"><ele>251.5</ele><time>2026-05-02T16:33:32Z</time></trkpt><trkpt lat="43.350297398604" lon="11.811139449053965"><ele>251.25</ele><time>2026-05-02T16:33:33Z</time></trkpt><trkpt lat="43.350450298744875" lon="11.811115529633996"><ele>251.0</ele><time>2026-05-02T16:33:34Z</time></trkpt><trkpt lat="43.350603799023155" lon="11.811098844353836"><ele>250.66666666666669</ele><time>2026-05-02T16:33:35Z</time></trkpt><trkpt lat="43.35076112361272" lon="11.811064832244575"><ele>250.33333333333331</ele><time>2026-05-02T16:33:36Z</time></trkpt><trkpt lat="43.35091725848711" lon="11.81103482616698"><ele>250.0</ele><time>2026-05-02T16:33:37Z</time></trkpt><trkpt lat="43.35107771391205" lon="11.810995492885704"><ele>250.0</ele><time>2026-05-02T16:33:38Z</time></trkpt><trkpt lat="43.35124111416144" lon="11.81095156361294"><ele>250.0</ele><time>2026-05-02T16:33:39Z</time></trkpt><trkpt lat="43.351404829663075" lon="11.810912783897239"><ele>250.0</ele><time>2026-05-02T16:33:40Z</time></trkpt><trkpt lat="43.35156310930194" lon="11.810879829624962"><ele>250.0</ele><time>2026-05-02T16:33:41Z</time></trkpt><trkpt lat="43.35172118078515" lon="11.810842670035319"><ele>250.0</ele><time>2026-05-02T16:33:42Z</time></trkpt><trkpt lat="43.35188295083986" lon="11.810805448521966"><ele>250.0</ele><time>2026-05-02T16:33:43Z</time></trkpt><trkpt lat="43.35204637465143" lon="11.8107681679428"><ele>250.0</ele><time>2026-05-02T16:33:44Z</time></trkpt><trkpt lat="43.35219875981023" lon="11.810735600484236"><ele>250.0</ele><time>2026-05-02T16:33:45Z</time></trkpt><trkpt lat="43.35235002010142" lon="11.810700652087503"><ele>250.0</ele><time>2026-05-02T16:33:46Z</time></trkpt><trkpt lat="43.35250322368656" lon="11.81066768099561"><ele>249.0</ele><time>2026-05-02T16:33:47Z</time></trkpt><trkpt lat="43.35265817873167" lon="11.810633791200202"><ele>248.0</ele><time>2026-05-02T16:33:48Z</time></trkpt><trkpt lat="43.35281818283502" lon="11.810596237014725"><ele>247.0</ele><time>2026-05-02T16:33:49Z</time></trkpt><trkpt lat="43.35298025482402" lon="11.810561546251808"><ele>247.33333333333331</ele><time>2026-05-02T16:33:50Z</time></trkpt><trkpt lat="43.35314524435268" lon="11.810525431778789"><ele>247.66666666666669</ele><time>2026-05-02T16:33:51Z</time></trkpt><trkpt lat="43.35331205897059" lon="11.810487093283028"><ele>248.0</ele><time>2026-05-02T16:33:52Z</time></trkpt><trkpt lat="43.35347318572312" lon="11.810451938727773"><ele>248.0</ele><time>2026-05-02T16:33:53Z</time></trkpt><trkpt lat="43.35362484391135" lon="11.810416481039548"><ele>248.0</ele><time>2026-05-02T16:33:54Z</time></trkpt><trkpt lat="43.3537676244307" lon="11.810403493036146"><ele>248.0</ele><time>2026-05-02T16:33:55Z</time></trkpt><trkpt lat="43.35391458881292" lon="11.810349678827922"><ele>248.0</ele><time>2026-05-02T16:33:56Z</time></trkpt><trkpt lat="43.354069339220125" lon="11.8103214956188"><ele>248.66666666666669</ele><time>2026-05-02T16:33:57Z</time></trkpt><trkpt lat="43.354226526616216" lon="11.810289429836809"><ele>249.33333333333331</ele><time>2026-05-02T16:33:58Z</time></trkpt><trkpt lat="43.35438484464429" lon="11.810277226253325"><ele>250.0</ele><time>2026-05-02T16:33:59Z</time></trkpt><trkpt lat="43.354538714747676" lon="11.810267047781544"><ele>250.0</ele><time>2026-05-02T16:34:00Z</time></trkpt><trkpt lat="43.35470088246055" lon="11.8101734096595"><ele>250.0</ele><time>2026-05-02T16:34:01Z</time></trkpt><trkpt lat="43.35485458359524" lon="11.810133880964838"><ele>250.0</ele><time>2026-05-02T16:34:02Z</time></trkpt><trkpt lat="43.35500193893891" lon="11.81008345839226"><ele>250.66666666666666</ele><time>2026-05-02T16:34:03Z</time></trkpt><trkpt lat="43.35515142998982" lon="11.810025605181476"><ele>251.33333333333331</ele><time>2026-05-02T16:34:04Z</time></trkpt><trkpt lat="43.35530600458004" lon="11.809947479283082"><ele>252.0</ele><time>2026-05-02T16:34:05Z</time></trkpt><trkpt lat="43.355455750356526" lon="11.809857948622426"><ele>251.25</ele><time>2026-05-02T16:34:06Z</time></trkpt><trkpt lat="43.35558525732671" lon="11.809767945904767"><ele>250.5</ele><time>2026-05-02T16:34:07Z</time></trkpt><trkpt lat="43.35570588013336" lon="11.809692967141931"><ele>249.75</ele><time>2026-05-02T16:34:08Z</time></trkpt><trkpt lat="43.35581769188907" lon="11.80962344116345"><ele>249.0</ele><time>2026-05-02T16:34:09Z</time></trkpt><trkpt lat="43.355933221251426" lon="11.809546331454731"><ele>249.0</ele><time>2026-05-02T16:34:10Z</time></trkpt><trkpt lat="43.35605789063017" lon="11.809462696991888"><ele>249.0</ele><time>2026-05-02T16:34:11Z</time></trkpt><trkpt lat="43.356184208058906" lon="11.809377639210437"><ele>249.0</ele><time>2026-05-02T16:34:12Z</time></trkpt><trkpt lat="43.356309783932126" lon="11.809292621472748"><ele>249.0</ele><time>2026-05-02T16:34:13Z</time></trkpt><trkpt lat="43.35643927328704" lon="11.809209548297783"><ele>249.33333333333331</ele><time>2026-05-02T16:34:14Z</time></trkpt><trkpt lat="43.35657427224281" lon="11.80912235928865"><ele>249.66666666666666</ele><time>2026-05-02T16:34:15Z</time></trkpt><trkpt lat="43.356717024910225" lon="11.809031451321701"><ele>250.0</ele><time>2026-05-02T16:34:16Z</time></trkpt><trkpt lat="43.35687246525557" lon="11.808933678509856"><ele>250.0</ele><time>2026-05-02T16:34:17Z</time></trkpt><trkpt lat="43.35701970267221" lon="11.80884045641755"><ele>250.0</ele><time>2026-05-02T16:34:18Z</time></trkpt><trkpt lat="43.35716882268447" lon="11.80874486434012"><ele>250.0</ele><time>2026-05-02T16:34:19Z</time></trkpt><trkpt lat="43.357315368048226" lon="11.808651226750813"><ele>250.0</ele><time>2026-05-02T16:34:20Z</time></trkpt><trkpt lat="43.35745588326235" lon="11.808556954044635"><ele>250.0</ele><time>2026-05-02T16:34:21Z</time></trkpt><trkpt lat="43.35758865641813" lon="11.80848750751978"><ele>250.0</ele><time>2026-05-02T16:34:22Z</time></trkpt><trkpt lat="43.35772364902191" lon="11.808422117601042"><ele>250.0</ele><time>2026-05-02T16:34:23Z</time></trkpt><trkpt lat="43.35786069248638" lon="11.80835840212148"><ele>250.0</ele><time>2026-05-02T16:34:24Z</time></trkpt><trkpt lat="43.3580006394488" lon="11.808293485729534"><ele>250.0</ele><time>2026-05-02T16:34:25Z</time></trkpt><trkpt lat="43.358142205043535" lon="11.80822616737799"><ele>250.0</ele><time>2026-05-02T16:34:26Z</time></trkpt><trkpt lat="43.35828421073798" lon="11.808164525624695"><ele>250.0</ele><time>2026-05-02T16:34:27Z</time></trkpt><trkpt lat="43.358428802637206" lon="11.808106396599353"><ele>250.0</ele><time>2026-05-02T16:34:28Z</time></trkpt><trkpt lat="43.35857334389546" lon="11.808042009133983"><ele>250.0</ele><time>2026-05-02T16:34:29Z</time></trkpt><trkpt lat="43.358719954284744" lon="11.807979569994114"><ele>250.0</ele><time>2026-05-02T16:34:30Z</time></trkpt><trkpt lat="43.358867515790465" lon="11.807919139453805"><ele>249.33333333333331</ele><time>2026-05-02T16:34:31Z</time></trkpt><trkpt lat="43.359018788361475" lon="11.807855954745545"><ele>248.66666666666669</ele><time>2026-05-02T16:34:32Z</time></trkpt><trkpt lat="43.35917107322169" lon="11.807805239425551"><ele>248.0</ele><time>2026-05-02T16:34:33Z</time></trkpt><trkpt lat="43.35931346285116" lon="11.807765956735649"><ele>248.0</ele><time>2026-05-02T16:34:34Z</time></trkpt><trkpt lat="43.35949130038216" lon="11.80773661308284"><ele>248.0</ele><time>2026-05-02T16:34:35Z</time></trkpt><trkpt lat="43.35967085192404" lon="11.807707403169452"><ele>248.0</ele><time>2026-05-02T16:34:36Z</time></trkpt><trkpt lat="43.359868144210125" lon="11.807699582219684"><ele>247.66666666666669</ele><time>2026-05-02T16:34:37Z</time></trkpt><trkpt lat="43.36006204958093" lon="11.807672134821535"><ele>247.33333333333331</ele><time>2026-05-02T16:34:38Z</time></trkpt><trkpt lat="43.36025189884512" lon="11.807624384242793"><ele>247.0</ele><time>2026-05-02T16:34:39Z</time></trkpt><trkpt lat="43.36044134103601" lon="11.80760027124185"><ele>247.0</ele><time>2026-05-02T16:34:40Z</time></trkpt><trkpt lat="43.36061451826947" lon="11.807578975457409"><ele>247.0</ele><time>2026-05-02T16:34:41Z</time></trkpt><trkpt lat="43.360778055288115" lon="11.80755964580307"><ele>247.0</ele><time>2026-05-02T16:34:42Z</time></trkpt><trkpt lat="43.36094108746582" lon="11.807529333875362"><ele>247.0</ele><time>2026-05-02T16:34:43Z</time></trkpt><trkpt lat="43.36110165441223" lon="11.807504180559597"><ele>247.0</ele><time>2026-05-02T16:34:44Z</time></trkpt><trkpt lat="43.361260632931156" lon="11.807483752761277"><ele>247.0</ele><time>2026-05-02T16:34:45Z</time></trkpt><trkpt lat="43.36141949173842" lon="11.80746072243619"><ele>247.75</ele><time>2026-05-02T16:34:46Z</time></trkpt><trkpt lat="43.361573797660604" lon="11.807443499150645"><ele>248.5</ele><time>2026-05-02T16:34:47Z</time></trkpt><trkpt lat="43.361718246421326" lon="11.807421953483734"><ele>249.25</ele><time>2026-05-02T16:34:48Z</time></trkpt><trkpt lat="43.361859566540815" lon="11.807400221373323"><ele>250.0</ele><time>2026-05-02T16:34:49Z</time></trkpt><trkpt lat="43.361989303852965" lon="11.807385354584419"><ele>250.0</ele><time>2026-05-02T16:34:50Z</time></trkpt><trkpt lat="43.362127003186146" lon="11.807365766883036"><ele>250.0</ele><time>2026-05-02T16:34:51Z</time></trkpt><trkpt lat="43.362269487907774" lon="11.80734130655683"><ele>250.0</ele><time>2026-05-02T16:34:52Z</time></trkpt><trkpt lat="43.36241615135831" lon="11.807319132460387"><ele>250.0</ele><time>2026-05-02T16:34:53Z</time></trkpt><trkpt lat="43.362570378239226" lon="11.807294561275096"><ele>249.33333333333331</ele><time>2026-05-02T16:34:54Z</time></trkpt><trkpt lat="43.362722475532685" lon="11.807292962032601"><ele>248.66666666666669</ele><time>2026-05-02T16:34:55Z</time></trkpt><trkpt lat="43.36286437706704" lon="11.807272237126686"><ele>248.0</ele><time>2026-05-02T16:34:56Z</time></trkpt><trkpt lat="43.363016596351365" lon="11.807227480451283"><ele>248.33333333333334</ele><time>2026-05-02T16:34:57Z</time></trkpt><trkpt lat="43.36317546298515" lon="11.807215698240462"><ele>248.66666666666669</ele><time>2026-05-02T16:34:58Z</time></trkpt><trkpt lat="43.36332541921992" lon="11.807191260925295"><ele>249.0</ele><time>2026-05-02T16:34:59Z</time></trkpt><trkpt lat="43.36347831088561" lon="11.807162429008494"><ele>249.0</ele><time>2026-05-02T16:35:00Z</time></trkpt><trkpt lat="43.363628510800396" lon="11.8071604574326"><ele>249.0</ele><time>2026-05-02T16:35:01Z</time></trkpt><trkpt lat="43.363772355849186" lon="11.807139908139593"><ele>249.0</ele><time>2026-05-02T16:35:02Z</time></trkpt><trkpt lat="43.36390276310166" lon="11.807101104129249"><ele>249.0</ele><time>2026-05-02T16:35:03Z</time></trkpt><trkpt lat="43.36404060036737" lon="11.807088991251529"><ele>249.5</ele><time>2026-05-02T16:35:04Z</time></trkpt><trkpt lat="43.36418660613797" lon="11.80707050239105"><ele>250.0</ele><time>2026-05-02T16:35:05Z</time></trkpt><trkpt lat="43.364334931262405" lon="11.807053090944182"><ele>250.5</ele><time>2026-05-02T16:35:06Z</time></trkpt><trkpt lat="43.364475600361025" lon="11.807070321050565"><ele>251.0</ele><time>2026-05-02T16:35:07Z</time></trkpt><trkpt lat="43.36461591972233" lon="11.807058735181945"><ele>251.0</ele><time>2026-05-02T16:35:08Z</time></trkpt><trkpt lat="43.36475609024706" lon="11.807078222294377"><ele>251.0</ele><time>2026-05-02T16:35:09Z</time></trkpt><trkpt lat="43.364891256301476" lon="11.80709352374163"><ele>251.0</ele><time>2026-05-02T16:35:10Z</time></trkpt><trkpt lat="43.365013747261436" lon="11.807109168276282"><ele>251.0</ele><time>2026-05-02T16:35:11Z</time></trkpt><trkpt lat="43.36512985036663" lon="11.807124935138946"><ele>251.0</ele><time>2026-05-02T16:35:12Z</time></trkpt><trkpt lat="43.36524538112024" lon="11.807140982375872"><ele>251.0</ele><time>2026-05-02T16:35:13Z</time></trkpt><trkpt lat="43.365364841344714" lon="11.807167828347213"><ele>251.0</ele><time>2026-05-02T16:35:14Z</time></trkpt><trkpt lat="43.36548424354275" lon="11.807190819757519"><ele>251.0</ele><time>2026-05-02T16:35:15Z</time></trkpt><trkpt lat="43.36559915640039" lon="11.807237967674286"><ele>251.0</ele><time>2026-05-02T16:35:16Z</time></trkpt><trkpt lat="43.36570657702006" lon="11.80726015353067"><ele>251.00000000000003</ele><time>2026-05-02T16:35:17Z</time></trkpt><trkpt lat="43.365820532941314" lon="11.807266677077038"><ele>251.00000000000003</ele><time>2026-05-02T16:35:18Z</time></trkpt><trkpt lat="43.365929144325115" lon="11.807305641342397"><ele>251.0</ele><time>2026-05-02T16:35:19Z</time></trkpt><trkpt lat="43.36603874391541" lon="11.807328186793942"><ele>251.0</ele><time>2026-05-02T16:35:20Z</time></trkpt><trkpt lat="43.366147682015715" lon="11.807351471971254"><ele>251.00000000000003</ele><time>2026-05-02T16:35:21Z</time></trkpt><trkpt lat="43.366240958014416" lon="11.807371409424539"><ele>251.0</ele><time>2026-05-02T16:35:22Z</time></trkpt><trkpt lat="43.36633220460715" lon="11.807390913096304"><ele>251.0</ele><time>2026-05-02T16:35:23Z</time></trkpt><trkpt lat="43.366421529699636" lon="11.80740926628244"><ele>251.0</ele><time>2026-05-02T16:35:24Z</time></trkpt><trkpt lat="43.36648494606392" lon="11.807421659759916"><ele>251.00000000000003</ele><time>2026-05-02T16:35:25Z</time></trkpt><trkpt lat="43.36656181448674" lon="11.807436682172598"><ele>251.0</ele><time>2026-05-02T16:35:27Z</time></trkpt><trkpt lat="43.36662600248673" lon="11.807435832908402"><ele>250.75</ele><time>2026-05-02T16:35:31Z</time></trkpt><trkpt lat="43.36675777338522" lon="11.807464828822823"><ele>250.5</ele><time>2026-05-02T16:35:33Z</time></trkpt><trkpt lat="43.366857299160344" lon="11.807490645774548"><ele>250.25</ele><time>2026-05-02T16:35:34Z</time></trkpt><trkpt lat="43.366973600675564" lon="11.807512451282562"><ele>250.0</ele><time>2026-05-02T16:35:35Z</time></trkpt><trkpt lat="43.36710544075947" lon="11.807547201819496"><ele>250.0</ele><time>2026-05-02T16:35:36Z</time></trkpt><trkpt lat="43.36725009789708" lon="11.80759811912642"><ele>250.0</ele><time>2026-05-02T16:35:37Z</time></trkpt><trkpt lat="43.367397703989205" lon="11.807660015055193"><ele>250.0</ele><time>2026-05-02T16:35:38Z</time></trkpt><trkpt lat="43.36754898267918" lon="11.807727859269214"><ele>249.66666666666666</ele><time>2026-05-02T16:35:39Z</time></trkpt><trkpt lat="43.367707792301566" lon="11.807783003851624"><ele>249.33333333333331</ele><time>2026-05-02T16:35:40Z</time></trkpt><trkpt lat="43.36787562315178" lon="11.80782050709339"><ele>249.0</ele><time>2026-05-02T16:35:41Z</time></trkpt><trkpt lat="43.3680487729323" lon="11.807852134384714"><ele>249.0</ele><time>2026-05-02T16:35:42Z</time></trkpt><trkpt lat="43.36822939793093" lon="11.807875727502264"><ele>249.0</ele><time>2026-05-02T16:35:43Z</time></trkpt><trkpt lat="43.368405707349346" lon="11.807892507981364"><ele>249.0</ele><time>2026-05-02T16:35:44Z</time></trkpt><trkpt lat="43.36858341928786" lon="11.807916507048665"><ele>249.0</ele><time>2026-05-02T16:35:45Z</time></trkpt><trkpt lat="43.36876118751553" lon="11.807938974121658"><ele>249.0</ele><time>2026-05-02T16:35:46Z</time></trkpt><trkpt lat="43.36893752543441" lon="11.807957285783129"><ele>249.0</ele><time>2026-05-02T16:35:47Z</time></trkpt><trkpt lat="43.36911639843588" lon="11.807980349357159"><ele>249.0</ele><time>2026-05-02T16:35:48Z</time></trkpt><trkpt lat="43.3692958783348" lon="11.808000813739937"><ele>249.0</ele><time>2026-05-02T16:35:49Z</time></trkpt><trkpt lat="43.36947475875836" lon="11.808018017546722"><ele>249.0</ele><time>2026-05-02T16:35:50Z</time></trkpt><trkpt lat="43.36966281984512" lon="11.808039826830571"><ele>248.33333333333331</ele><time>2026-05-02T16:35:51Z</time></trkpt><trkpt lat="43.369849168000215" lon="11.808058355178199"><ele>247.66666666666666</ele><time>2026-05-02T16:35:52Z</time></trkpt><trkpt lat="43.37003490032579" lon="11.808076280575039"><ele>247.0</ele><time>2026-05-02T16:35:53Z</time></trkpt><trkpt lat="43.370224345282224" lon="11.80809531746336"><ele>247.0</ele><time>2026-05-02T16:35:54Z</time></trkpt><trkpt lat="43.370411180841316" lon="11.808122086694882"><ele>247.0</ele><time>2026-05-02T16:35:55Z</time></trkpt><trkpt lat="43.37060459666853" lon="11.808143543502299"><ele>247.0</ele><time>2026-05-02T16:35:56Z</time></trkpt><trkpt lat="43.370794310981196" lon="11.808165986768685"><ele>247.33333333333331</ele><time>2026-05-02T16:35:57Z</time></trkpt><trkpt lat="43.370983768600105" lon="11.808191200338953"><ele>247.66666666666669</ele><time>2026-05-02T16:35:58Z</time></trkpt><trkpt lat="43.37117692085082" lon="11.808210535931861"><ele>248.0</ele><time>2026-05-02T16:35:59Z</time></trkpt><trkpt lat="43.371350517509754" lon="11.80823512428384"><ele>248.0</ele><time>2026-05-02T16:36:00Z</time></trkpt><trkpt lat="43.37150037835809" lon="11.80825066080459"><ele>248.0</ele><time>2026-05-02T16:36:01Z</time></trkpt><trkpt lat="43.37163555331439" lon="11.808263836499693"><ele>248.0</ele><time>2026-05-02T16:36:02Z</time></trkpt><trkpt lat="43.37176053924648" lon="11.808275838137702"><ele>248.0</ele><time>2026-05-02T16:36:03Z</time></trkpt><trkpt lat="43.37189065598054" lon="11.80829215168166"><ele>248.0</ele><time>2026-05-02T16:36:04Z</time></trkpt><trkpt lat="43.37203171749151" lon="11.808306655926257"><ele>248.0</ele><time>2026-05-02T16:36:05Z</time></trkpt><trkpt lat="43.37218680190203" lon="11.808322091163607"><ele>248.0</ele><time>2026-05-02T16:36:06Z</time></trkpt><trkpt lat="43.37234546592835" lon="11.808340971950523"><ele>248.33333333333334</ele><time>2026-05-02T16:36:07Z</time></trkpt><trkpt lat="43.372512126691895" lon="11.808355997341373"><ele>248.66666666666669</ele><time>2026-05-02T16:36:08Z</time></trkpt><trkpt lat="43.372678375999094" lon="11.808369707096467"><ele>249.0</ele><time>2026-05-02T16:36:09Z</time></trkpt><trkpt lat="43.37283748976245" lon="11.808376821801113"><ele>249.0</ele><time>2026-05-02T16:36:10Z</time></trkpt><trkpt lat="43.37298927729201" lon="11.808363842233131"><ele>249.0</ele><time>2026-05-02T16:36:11Z</time></trkpt><trkpt lat="43.37313075870231" lon="11.80834915218393"><ele>249.0</ele><time>2026-05-02T16:36:12Z</time></trkpt><trkpt lat="43.3732670877993" lon="11.808328153757415"><ele>249.0</ele><time>2026-05-02T16:36:13Z</time></trkpt><trkpt lat="43.37340706649939" lon="11.808297479264203"><ele>249.0</ele><time>2026-05-02T16:36:14Z</time></trkpt><trkpt lat="43.37354899908209" lon="11.808256938887704"><ele>249.0</ele><time>2026-05-02T16:36:15Z</time></trkpt><trkpt lat="43.37369124077128" lon="11.808215600786687"><ele>249.0</ele><time>2026-05-02T16:36:16Z</time></trkpt><trkpt lat="43.37383295476055" lon="11.808174981014224"><ele>249.0</ele><time>2026-05-02T16:36:17Z</time></trkpt><trkpt lat="43.37397077378077" lon="11.80813539230289"><ele>249.0</ele><time>2026-05-02T16:36:18Z</time></trkpt><trkpt lat="43.37409764464151" lon="11.808097806608231"><ele>249.0</ele><time>2026-05-02T16:36:19Z</time></trkpt><trkpt lat="43.37422249575496" lon="11.808062511568247"><ele>249.0</ele><time>2026-05-02T16:36:20Z</time></trkpt><trkpt lat="43.37434578335637" lon="11.80802724083253"><ele>249.0</ele><time>2026-05-02T16:36:21Z</time></trkpt><trkpt lat="43.374468976448966" lon="11.807989817773944"><ele>249.0</ele><time>2026-05-02T16:36:22Z</time></trkpt><trkpt lat="43.37460848716884" lon="11.807944933407288"><ele>249.0</ele><time>2026-05-02T16:36:23Z</time></trkpt><trkpt lat="43.37477048245078" lon="11.807897225796925"><ele>249.0</ele><time>2026-05-02T16:36:24Z</time></trkpt><trkpt lat="43.37494736373867" lon="11.807843782519688"><ele>248.66666666666669</ele><time>2026-05-02T16:36:25Z</time></trkpt><trkpt lat="43.375132297287145" lon="11.807794185737155"><ele>248.33333333333334</ele><time>2026-05-02T16:36:26Z</time></trkpt><trkpt lat="43.37531885843319" lon="11.807740828519231"><ele>248.0</ele><time>2026-05-02T16:36:27Z</time></trkpt><trkpt lat="43.37550628692404" lon="11.80768704545217"><ele>248.0</ele><time>2026-05-02T16:36:28Z</time></trkpt><trkpt lat="43.37569618488195" lon="11.807638931230516"><ele>248.0</ele><time>2026-05-02T16:36:29Z</time></trkpt><trkpt lat="43.37589263301223" lon="11.807605093264268"><ele>248.0</ele><time>2026-05-02T16:36:30Z</time></trkpt><trkpt lat="43.37609243785867" lon="11.807583840968773"><ele>248.0</ele><time>2026-05-02T16:36:31Z</time></trkpt><trkpt lat="43.37629617167482" lon="11.807562685085975"><ele>248.0</ele><time>2026-05-02T16:36:32Z</time></trkpt><trkpt lat="43.37650055687482" lon="11.807541293341494"><ele>248.0</ele><time>2026-05-02T16:36:33Z</time></trkpt><trkpt lat="43.37670708811594" lon="11.807518258557714"><ele>248.0</ele><time>2026-05-02T16:36:34Z</time></trkpt><trkpt lat="43.37691633829522" lon="11.807497171346588"><ele>248.0</ele><time>2026-05-02T16:36:35Z</time></trkpt><trkpt lat="43.3771308873393" lon="11.807470366861835"><ele>248.0</ele><time>2026-05-02T16:36:36Z</time></trkpt><trkpt lat="43.377347572778966" lon="11.80743157713261"><ele>247.5</ele><time>2026-05-02T16:36:37Z</time></trkpt><trkpt lat="43.37756545435324" lon="11.807386637617567"><ele>247.0</ele><time>2026-05-02T16:36:38Z</time></trkpt><trkpt lat="43.37779636732965" lon="11.807338643620579"><ele>247.5</ele><time>2026-05-02T16:36:39Z</time></trkpt><trkpt lat="43.37802334623941" lon="11.807289186969243"><ele>248.0</ele><time>2026-05-02T16:36:40Z</time></trkpt><trkpt lat="43.378262278260024" lon="11.807239926840055"><ele>248.0</ele><time>2026-05-02T16:36:41Z</time></trkpt><trkpt lat="43.378509888759126" lon="11.807186552107554"><ele>248.0</ele><time>2026-05-02T16:36:42Z</time></trkpt><trkpt lat="43.378751855833386" lon="11.807130547221991"><ele>248.0</ele><time>2026-05-02T16:36:43Z</time></trkpt><trkpt lat="43.379003582976765" lon="11.807075539066675"><ele>248.0</ele><time>2026-05-02T16:36:44Z</time></trkpt><trkpt lat="43.379257129039686" lon="11.807022188922124"><ele>248.0</ele><time>2026-05-02T16:36:45Z</time></trkpt><trkpt lat="43.37950840884866" lon="11.806970844752348"><ele>248.0</ele><time>2026-05-02T16:36:46Z</time></trkpt><trkpt lat="43.37974418220958" lon="11.806918790005295"><ele>248.0</ele><time>2026-05-02T16:36:47Z</time></trkpt><trkpt lat="43.379962433008025" lon="11.8068708901546"><ele>248.0</ele><time>2026-05-02T16:36:48Z</time></trkpt><trkpt lat="43.38017975634122" lon="11.806822317802164"><ele>248.0</ele><time>2026-05-02T16:36:49Z</time></trkpt><trkpt lat="43.38040652438977" lon="11.806773164489702"><ele>247.5</ele><time>2026-05-02T16:36:50Z</time></trkpt><trkpt lat="43.38064200937893" lon="11.806728334248474"><ele>247.0</ele><time>2026-05-02T16:36:51Z</time></trkpt><trkpt lat="43.380882911673204" lon="11.806683103652134"><ele>247.0</ele><time>2026-05-02T16:36:52Z</time></trkpt><trkpt lat="43.38112919457759" lon="11.806632062648662"><ele>247.0</ele><time>2026-05-02T16:36:53Z</time></trkpt><trkpt lat="43.381372136975536" lon="11.80658427389362"><ele>247.0</ele><time>2026-05-02T16:36:54Z</time></trkpt><trkpt lat="43.38161726852114" lon="11.806539179689265"><ele>247.0</ele><time>2026-05-02T16:36:55Z</time></trkpt><trkpt lat="43.38186460974603" lon="11.80649200362734"><ele>247.0</ele><time>2026-05-02T16:36:56.001Z</time></trkpt><trkpt lat="43.38211152844859" lon="11.80644341163467"><ele>247.0</ele><time>2026-05-02T16:36:57.001Z</time></trkpt><trkpt lat="43.38235806369503" lon="11.806395360819774"><ele>246.5</ele><time>2026-05-02T16:36:58.001Z</time></trkpt><trkpt lat="43.382607281707834" lon="11.80635108743365"><ele>246.0</ele><time>2026-05-02T16:36:59.001Z</time></trkpt><trkpt lat="43.38285188970042" lon="11.806306580501476"><ele>246.0</ele><time>2026-05-02T16:37:00.001Z</time></trkpt><trkpt lat="43.38309898119201" lon="11.806258211918548"><ele>246.0</ele><time>2026-05-02T16:37:01.001Z</time></trkpt><trkpt lat="43.38333962966157" lon="11.80620541288336"><ele>246.0</ele><time>2026-05-02T16:37:02.001Z</time></trkpt><trkpt lat="43.38357741824971" lon="11.806154007397488"><ele>246.0</ele><time>2026-05-02T16:37:03.001Z</time></trkpt><trkpt lat="43.3838129477796" lon="11.80610445458382"><ele>246.0</ele><time>2026-05-02T16:37:04.001Z</time></trkpt><trkpt lat="43.38404326483422" lon="11.806057036423152"><ele>246.0</ele><time>2026-05-02T16:37:05.001Z</time></trkpt><trkpt lat="43.384268310059504" lon="11.806008745774475"><ele>246.33333333333331</ele><time>2026-05-02T16:37:06.001Z</time></trkpt><trkpt lat="43.384487093530495" lon="11.805961587943013"><ele>246.66666666666666</ele><time>2026-05-02T16:37:07.001Z</time></trkpt><trkpt lat="43.38470089404587" lon="11.805916212018769"><ele>247.0</ele><time>2026-05-02T16:37:08.001Z</time></trkpt><trkpt lat="43.38491737550331" lon="11.805869214742327"><ele>247.0</ele><time>2026-05-02T16:37:09.001Z</time></trkpt><trkpt lat="43.38512793246347" lon="11.805820943233089"><ele>247.0</ele><time>2026-05-02T16:37:10.001Z</time></trkpt><trkpt lat="43.385342440681356" lon="11.80577292914378"><ele>247.0</ele><time>2026-05-02T16:37:11.001Z</time></trkpt><trkpt lat="43.38555327363463" lon="11.805724732119623"><ele>246.0</ele><time>2026-05-02T16:37:12.001Z</time></trkpt><trkpt lat="43.38576059999526" lon="11.805681067667875"><ele>245.0</ele><time>2026-05-02T16:37:13.001Z</time></trkpt><trkpt lat="43.38596550117383" lon="11.805639742242429"><ele>244.0</ele><time>2026-05-02T16:37:14.001Z</time></trkpt><trkpt lat="43.38617014122768" lon="11.805588386482862"><ele>244.66666666666666</ele><time>2026-05-02T16:37:15.001Z</time></trkpt><trkpt lat="43.386384425382424" lon="11.805537471374471"><ele>245.33333333333331</ele><time>2026-05-02T16:37:16.001Z</time></trkpt><trkpt lat="43.38659913348586" lon="11.805488522203492"><ele>246.0</ele><time>2026-05-02T16:37:17.001Z</time></trkpt><trkpt lat="43.386819455566034" lon="11.805431498805738"><ele>246.0</ele><time>2026-05-02T16:37:18.001Z</time></trkpt><trkpt lat="43.387036607930554" lon="11.805368390799467"><ele>246.0</ele><time>2026-05-02T16:37:19.001Z</time></trkpt><trkpt lat="43.387255110060956" lon="11.805306628608557"><ele>246.0</ele><time>2026-05-02T16:37:20.001Z</time></trkpt><trkpt lat="43.38748197841862" lon="11.805241246617475"><ele>246.0</ele><time>2026-05-02T16:37:21.001Z</time></trkpt><trkpt lat="43.387703523378455" lon="11.805179250161414"><ele>246.0</ele><time>2026-05-02T16:37:22.001Z</time></trkpt><trkpt lat="43.38792635114758" lon="11.80512225640788"><ele>246.0</ele><time>2026-05-02T16:37:23.001Z</time></trkpt><trkpt lat="43.38814730492838" lon="11.805061062492154"><ele>246.0</ele><time>2026-05-02T16:37:24.001Z</time></trkpt><trkpt lat="43.388364830225534" lon="11.804995580406288"><ele>246.0</ele><time>2026-05-02T16:37:25.001Z</time></trkpt><trkpt lat="43.38858354638844" lon="11.804936369238472"><ele>246.0</ele><time>2026-05-02T16:37:26.001Z</time></trkpt><trkpt lat="43.3887976558054" lon="11.804881236826736"><ele>246.0</ele><time>2026-05-02T16:37:27.001Z</time></trkpt><trkpt lat="43.38899940099462" lon="11.804834683508462"><ele>246.0</ele><time>2026-05-02T16:37:28.001Z</time></trkpt><trkpt lat="43.38919699371397" lon="11.804808745010419"><ele>246.0</ele><time>2026-05-02T16:37:29.001Z</time></trkpt><trkpt lat="43.38939056472976" lon="11.804822048130973"><ele>246.0</ele><time>2026-05-02T16:37:30.001Z</time></trkpt><trkpt lat="43.38958306673935" lon="11.804844057827724"><ele>246.0</ele><time>2026-05-02T16:37:31.001Z</time></trkpt><trkpt lat="43.389772884205684" lon="11.804822375567838"><ele>246.0</ele><time>2026-05-02T16:37:32.001Z</time></trkpt><trkpt lat="43.389983998693936" lon="11.805010587504173"><ele>246.0</ele><time>2026-05-02T16:37:33.001Z</time></trkpt><trkpt lat="43.3901888924661" lon="11.805082599581489"><ele>246.0</ele><time>2026-05-02T16:37:34.001Z</time></trkpt><trkpt lat="43.39039791895291" lon="11.805153875176675"><ele>246.0</ele><time>2026-05-02T16:37:35.001Z</time></trkpt><trkpt lat="43.39060621015327" lon="11.805219477452365"><ele>246.0</ele><time>2026-05-02T16:37:36.001Z</time></trkpt><trkpt lat="43.390814432647886" lon="11.805282085777307"><ele>246.33333333333331</ele><time>2026-05-02T16:37:37.001Z</time></trkpt><trkpt lat="43.39101457050111" lon="11.805336290652969"><ele>246.66666666666666</ele><time>2026-05-02T16:37:38.001Z</time></trkpt><trkpt lat="43.39122142055254" lon="11.805388838809703"><ele>247.0</ele><time>2026-05-02T16:37:39.001Z</time></trkpt><trkpt lat="43.391425598697865" lon="11.805418508809032"><ele>247.0</ele><time>2026-05-02T16:37:40.001Z</time></trkpt><trkpt lat="43.39164157233981" lon="11.805422861805086"><ele>247.0</ele><time>2026-05-02T16:37:41.001Z</time></trkpt><trkpt lat="43.391857078443365" lon="11.805399689619115"><ele>247.0</ele><time>2026-05-02T16:37:42.001Z</time></trkpt><trkpt lat="43.39207275989841" lon="11.80536575205117"><ele>246.5</ele><time>2026-05-02T16:37:43.001Z</time></trkpt><trkpt lat="43.3922958781083" lon="11.805330678070185"><ele>246.0</ele><time>2026-05-02T16:37:44.001Z</time></trkpt><trkpt lat="43.392523642089415" lon="11.805294364562046"><ele>246.0</ele><time>2026-05-02T16:37:45.001Z</time></trkpt><trkpt lat="43.3927507464717" lon="11.805262099842881"><ele>246.0</ele><time>2026-05-02T16:37:46.001Z</time></trkpt><trkpt lat="43.3929779728281" lon="11.805231319377118"><ele>245.5</ele><time>2026-05-02T16:37:47.001Z</time></trkpt><trkpt lat="43.39320977008362" lon="11.80519985624627"><ele>245.0</ele><time>2026-05-02T16:37:48.001Z</time></trkpt><trkpt lat="43.393442465591946" lon="11.805167996929745"><ele>245.0</ele><time>2026-05-02T16:37:49.001Z</time></trkpt><trkpt lat="43.393678471400605" lon="11.805134168618663"><ele>245.0</ele><time>2026-05-02T16:37:50.001Z</time></trkpt><trkpt lat="43.39391206015992" lon="11.805100379506568"><ele>245.5</ele><time>2026-05-02T16:37:51.001Z</time></trkpt><trkpt lat="43.39414624522862" lon="11.805067275095718"><ele>246.0</ele><time>2026-05-02T16:37:52.001Z</time></trkpt><trkpt lat="43.39438240702774" lon="11.805034928110612"><ele>246.0</ele><time>2026-05-02T16:37:53.001Z</time></trkpt><trkpt lat="43.39461861053411" lon="11.805004670096334"><ele>246.0</ele><time>2026-05-02T16:37:54.001Z</time></trkpt><trkpt lat="43.3948531340571" lon="11.804972737433822"><ele>246.5</ele><time>2026-05-02T16:37:55.001Z</time></trkpt><trkpt lat="43.39508791460472" lon="11.804938761181516"><ele>247.0</ele><time>2026-05-02T16:37:56.001Z</time></trkpt><trkpt lat="43.3953218321446" lon="11.804904147930444"><ele>246.5</ele><time>2026-05-02T16:37:57.001Z</time></trkpt><trkpt lat="43.39555364529283" lon="11.804871496971845"><ele>246.0</ele><time>2026-05-02T16:37:58.001Z</time></trkpt><trkpt lat="43.39578667063613" lon="11.804843097135937"><ele>246.0</ele><time>2026-05-02T16:37:59.001Z</time></trkpt><trkpt lat="43.39601588021659" lon="11.804813582812406"><ele>246.0</ele><time>2026-05-02T16:38:00.001Z</time></trkpt><trkpt lat="43.39624074946606" lon="11.804782669483068"><ele>247.0</ele><time>2026-05-02T16:38:01.001Z</time></trkpt><trkpt lat="43.39646801007784" lon="11.804756281137095"><ele>248.0</ele><time>2026-05-02T16:38:02.001Z</time></trkpt><trkpt lat="43.39669273512425" lon="11.804726454320912"><ele>248.0</ele><time>2026-05-02T16:38:03.001Z</time></trkpt><trkpt lat="43.396915086235104" lon="11.804698199586833"><ele>248.0</ele><time>2026-05-02T16:38:04.001Z</time></trkpt><trkpt lat="43.39714359432096" lon="11.80466125905223"><ele>246.5</ele><time>2026-05-02T16:38:05.001Z</time></trkpt><trkpt lat="43.39737707972525" lon="11.804613480148925"><ele>245.0</ele><time>2026-05-02T16:38:06.001Z</time></trkpt><trkpt lat="43.39761947628629" lon="11.804545449789265"><ele>245.0</ele><time>2026-05-02T16:38:07.001Z</time></trkpt><trkpt lat="43.397863373319424" lon="11.804462354025661"><ele>245.0</ele><time>2026-05-02T16:38:08.001Z</time></trkpt><trkpt lat="43.398111547848416" lon="11.804379313400842"><ele>245.5</ele><time>2026-05-02T16:38:09.001Z</time></trkpt><trkpt lat="43.39835279110128" lon="11.804315820104506"><ele>246.0</ele><time>2026-05-02T16:38:10.001Z</time></trkpt><trkpt lat="43.39859127149113" lon="11.804242103123975"><ele>246.0</ele><time>2026-05-02T16:38:11.001Z</time></trkpt><trkpt lat="43.39882894562046" lon="11.804160592627204"><ele>246.0</ele><time>2026-05-02T16:38:12.001Z</time></trkpt><trkpt lat="43.3990718542615" lon="11.804080073126622"><ele>246.0</ele><time>2026-05-02T16:38:13.001Z</time></trkpt><trkpt lat="43.3993135108593" lon="11.804010575563717"><ele>246.0</ele><time>2026-05-02T16:38:14.001Z</time></trkpt><trkpt lat="43.399552113981706" lon="11.803941122393296"><ele>244.0</ele><time>2026-05-02T16:38:15.001Z</time></trkpt><trkpt lat="43.399793227082704" lon="11.803888914631836"><ele>242.0</ele><time>2026-05-02T16:38:16.001Z</time></trkpt><trkpt lat="43.4000352074109" lon="11.80385566574946"><ele>242.0</ele><time>2026-05-02T16:38:17.001Z</time></trkpt><trkpt lat="43.40027752166218" lon="11.803859519044932"><ele>242.0</ele><time>2026-05-02T16:38:18.001Z</time></trkpt><trkpt lat="43.40052084944201" lon="11.803863089000595"><ele>242.5</ele><time>2026-05-02T16:38:19.001Z</time></trkpt><trkpt lat="43.40076258555889" lon="11.803853997391629"><ele>243.0</ele><time>2026-05-02T16:38:20.001Z</time></trkpt><trkpt lat="43.40100245593676" lon="11.803837664912917"><ele>243.0</ele><time>2026-05-02T16:38:21.001Z</time></trkpt><trkpt lat="43.40122532645014" lon="11.803832760469684"><ele>243.0</ele><time>2026-05-02T16:38:22.001Z</time></trkpt><trkpt lat="43.4014305637823" lon="11.80382516807452"><ele>243.0</ele><time>2026-05-02T16:38:23.001Z</time></trkpt><trkpt lat="43.40162830181221" lon="11.803821927128643"><ele>243.66666666666669</ele><time>2026-05-02T16:38:24.001Z</time></trkpt><trkpt lat="43.401821705368825" lon="11.803817952203259"><ele>244.33333333333334</ele><time>2026-05-02T16:38:25.001Z</time></trkpt><trkpt lat="43.40200861852254" lon="11.80381326878102"><ele>245.0</ele><time>2026-05-02T16:38:26.001Z</time></trkpt><trkpt lat="43.40218090738704" lon="11.803799602367269"><ele>245.33333333333334</ele><time>2026-05-02T16:38:27.001Z</time></trkpt><trkpt lat="43.40236135412438" lon="11.80377991744817"><ele>245.66666666666669</ele><time>2026-05-02T16:38:28.001Z</time></trkpt><trkpt lat="43.4025446331272" lon="11.803729504875445"><ele>246.0</ele><time>2026-05-02T16:38:29.001Z</time></trkpt><trkpt lat="43.4027167415639" lon="11.803667328541799"><ele>246.0</ele><time>2026-05-02T16:38:30.001Z</time></trkpt><trkpt lat="43.402873878963355" lon="11.80359292581319"><ele>246.0</ele><time>2026-05-02T16:38:31.001Z</time></trkpt><trkpt lat="43.40301369220979" lon="11.803496359253614"><ele>246.0</ele><time>2026-05-02T16:38:32.001Z</time></trkpt><trkpt lat="43.40316800172773" lon="11.80338561109381"><ele>246.66666666666669</ele><time>2026-05-02T16:38:33.001Z</time></trkpt><trkpt lat="43.40332599895822" lon="11.803248833520815"><ele>247.33333333333334</ele><time>2026-05-02T16:38:34.001Z</time></trkpt><trkpt lat="43.403485992261345" lon="11.803099486077635"><ele>248.0</ele><time>2026-05-02T16:38:35.001Z</time></trkpt><trkpt lat="43.40363061398976" lon="11.802949558057168"><ele>248.0</ele><time>2026-05-02T16:38:36.001Z</time></trkpt><trkpt lat="43.40376900916783" lon="11.802813843588394"><ele>248.0</ele><time>2026-05-02T16:38:37.001Z</time></trkpt><trkpt lat="43.40389669216889" lon="11.802692079831715"><ele>248.0</ele><time>2026-05-02T16:38:38.001Z</time></trkpt><trkpt lat="43.40400604892397" lon="11.80258886129404"><ele>247.5</ele><time>2026-05-02T16:38:39.001Z</time></trkpt><trkpt lat="43.40411240101902" lon="11.802480191111409"><ele>247.0</ele><time>2026-05-02T16:38:40.001Z</time></trkpt><trkpt lat="43.404212365098665" lon="11.80237873897187"><ele>246.5</ele><time>2026-05-02T16:38:41.001Z</time></trkpt><trkpt lat="43.40430608075412" lon="11.802286193360922"><ele>246.0</ele><time>2026-05-02T16:38:42.001Z</time></trkpt><trkpt lat="43.40440579824431" lon="11.802213805989263"><ele>246.0</ele><time>2026-05-02T16:38:43.001Z</time></trkpt><trkpt lat="43.40451141403611" lon="11.802111593577091"><ele>246.0</ele><time>2026-05-02T16:38:44.001Z</time></trkpt><trkpt lat="43.40463282279613" lon="11.801994097413818"><ele>246.0</ele><time>2026-05-02T16:38:45.001Z</time></trkpt><trkpt lat="43.404760722146555" lon="11.801870168846776"><ele>246.0</ele><time>2026-05-02T16:38:46.001Z</time></trkpt><trkpt lat="43.40488828214171" lon="11.801730763109006"><ele>246.66666666666669</ele><time>2026-05-02T16:38:47.001Z</time></trkpt><trkpt lat="43.405031357162144" lon="11.801588417017518"><ele>247.33333333333334</ele><time>2026-05-02T16:38:48.001Z</time></trkpt><trkpt lat="43.40517279453873" lon="11.801444509982598"><ele>248.0</ele><time>2026-05-02T16:38:49.001Z</time></trkpt><trkpt lat="43.405326341905216" lon="11.80132187922651"><ele>248.0</ele><time>2026-05-02T16:38:50.001Z</time></trkpt><trkpt lat="43.40546384510593" lon="11.801174517976126"><ele>248.0</ele><time>2026-05-02T16:38:51.001Z</time></trkpt><trkpt lat="43.40559064586114" lon="11.801038161661289"><ele>248.0</ele><time>2026-05-02T16:38:52.001Z</time></trkpt><trkpt lat="43.40573049368058" lon="11.800904135981927"><ele>248.33333333333334</ele><time>2026-05-02T16:38:53Z</time></trkpt><trkpt lat="43.40586325234131" lon="11.800776551015714"><ele>248.66666666666669</ele><time>2026-05-02T16:38:54Z</time></trkpt><trkpt lat="43.40598787129261" lon="11.800660270373314"><ele>249.0</ele><time>2026-05-02T16:38:55.001Z</time></trkpt><trkpt lat="43.40610570293011" lon="11.80055152426345"><ele>249.0</ele><time>2026-05-02T16:38:56.001Z</time></trkpt><trkpt lat="43.4062194948328" lon="11.800445715670586"><ele>249.0</ele><time>2026-05-02T16:38:57.001Z</time></trkpt><trkpt lat="43.40633346264138" lon="11.80033510452134"><ele>249.0</ele><time>2026-05-02T16:38:58.001Z</time></trkpt><trkpt lat="43.40644513464166" lon="11.800222085116037"><ele>249.0</ele><time>2026-05-02T16:38:59.001Z</time></trkpt><trkpt lat="43.40656430386644" lon="11.800098235915"><ele>248.66666666666669</ele><time>2026-05-02T16:39:00.001Z</time></trkpt><trkpt lat="43.406692684796056" lon="11.799969053790935"><ele>248.33333333333334</ele><time>2026-05-02T16:39:01.001Z</time></trkpt><trkpt lat="43.40682532577097" lon="11.799841771771765"><ele>248.0</ele><time>2026-05-02T16:39:02.001Z</time></trkpt><trkpt lat="43.40696351242775" lon="11.799710226639364"><ele>248.0</ele><time>2026-05-02T16:39:03.001Z</time></trkpt><trkpt lat="43.40710169058275" lon="11.799576468970773"><ele>248.0</ele><time>2026-05-02T16:39:04.001Z</time></trkpt><trkpt lat="43.40724310224922" lon="11.799438731450612"><ele>248.0</ele><time>2026-05-02T16:39:05.001Z</time></trkpt><trkpt lat="43.40738766770629" lon="11.79929767859618"><ele>248.33333333333334</ele><time>2026-05-02T16:39:06.001Z</time></trkpt><trkpt lat="43.40753733429202" lon="11.799150639528209"><ele>248.66666666666669</ele><time>2026-05-02T16:39:07.001Z</time></trkpt><trkpt lat="43.40768565040644" lon="11.799006005545495"><ele>249.0</ele><time>2026-05-02T16:39:08.001Z</time></trkpt><trkpt lat="43.407835264430275" lon="11.798861934746373"><ele>249.0</ele><time>2026-05-02T16:39:09.001Z</time></trkpt><trkpt lat="43.407975840513146" lon="11.798727670769482"><ele>249.0</ele><time>2026-05-02T16:39:10.001Z</time></trkpt><trkpt lat="43.40810295937846" lon="11.798604738571765"><ele>249.0</ele><time>2026-05-02T16:39:11.001Z</time></trkpt><trkpt lat="43.408214477068945" lon="11.798495341957734"><ele>249.0</ele><time>2026-05-02T16:39:12.001Z</time></trkpt><trkpt lat="43.4083155455834" lon="11.798393823175532"><ele>248.99999999999997</ele><time>2026-05-02T16:39:13.001Z</time></trkpt><trkpt lat="43.408410553718596" lon="11.79830219014468"><ele>248.99999999999997</ele><time>2026-05-02T16:39:14.001Z</time></trkpt><trkpt lat="43.40849816453451" lon="11.798215539059848"><ele>249.0</ele><time>2026-05-02T16:39:15.001Z</time></trkpt><trkpt lat="43.40857494577389" lon="11.798141269538782"><ele>249.0</ele><time>2026-05-02T16:39:16.001Z</time></trkpt><trkpt lat="43.408641028672385" lon="11.79807914986856"><ele>249.0</ele><time>2026-05-02T16:39:18.001Z</time></trkpt><trkpt lat="43.40871268134511" lon="11.798018134600753"><ele>248.99999999999997</ele><time>2026-05-02T16:39:24.001Z</time></trkpt><trkpt lat="43.40877598385082" lon="11.797998728138742"><ele>248.99999999999997</ele><time>2026-05-02T16:39:26.001Z</time></trkpt><trkpt lat="43.40891277189361" lon="11.79800526287223"><ele>249.0</ele><time>2026-05-02T16:39:28.001Z</time></trkpt><trkpt lat="43.409000816646724" lon="11.798031693040961"><ele>249.0</ele><time>2026-05-02T16:39:29.001Z</time></trkpt><trkpt lat="43.409096298308434" lon="11.798064425600328"><ele>249.0</ele><time>2026-05-02T16:39:30.001Z</time></trkpt><trkpt lat="43.409185641838285" lon="11.798082085890927"><ele>248.99999999999997</ele><time>2026-05-02T16:39:31.001Z</time></trkpt><trkpt lat="43.40929051733076" lon="11.798122752174176"><ele>248.99999999999997</ele><time>2026-05-02T16:39:32.001Z</time></trkpt><trkpt lat="43.40937453477068" lon="11.798159289504357"><ele>249.0</ele><time>2026-05-02T16:39:33.001Z</time></trkpt><trkpt lat="43.40945170897046" lon="11.798184708661273"><ele>249.0</ele><time>2026-05-02T16:39:34.001Z</time></trkpt><trkpt lat="43.40953381956075" lon="11.798208570781439"><ele>249.0</ele><time>2026-05-02T16:39:35.001Z</time></trkpt><trkpt lat="43.4096210062738" lon="11.798238950265857"><ele>248.99999999999997</ele><time>2026-05-02T16:39:36.001Z</time></trkpt><trkpt lat="43.409711262780974" lon="11.798270905841845"><ele>248.99999999999997</ele><time>2026-05-02T16:39:37.001Z</time></trkpt><trkpt lat="43.409801049041434" lon="11.79831378595995"><ele>249.0</ele><time>2026-05-02T16:39:38.001Z</time></trkpt><trkpt lat="43.409880765620045" lon="11.798373625503014"><ele>249.0</ele><time>2026-05-02T16:39:39.001Z</time></trkpt><trkpt lat="43.40995865719463" lon="11.798437362014718"><ele>248.83333333333334</ele><time>2026-05-02T16:39:40.001Z</time></trkpt><trkpt lat="43.410033396438585" lon="11.798511469460434"><ele>248.66666666666669</ele><time>2026-05-02T16:39:41.001Z</time></trkpt><trkpt lat="43.41010631632634" lon="11.798591491327953"><ele>248.5</ele><time>2026-05-02T16:39:42.001Z</time></trkpt><trkpt lat="43.41016962923145" lon="11.79867249926083"><ele>248.33333333333334</ele><time>2026-05-02T16:39:43.001Z</time></trkpt><trkpt lat="43.410228295104176" lon="11.798757226698072"><ele>248.16666666666669</ele><time>2026-05-02T16:39:44.001Z</time></trkpt><trkpt lat="43.41028199549524" lon="11.798849707260349"><ele>248.0</ele><time>2026-05-02T16:39:45.001Z</time></trkpt><trkpt lat="43.410335346411046" lon="11.798945701787373"><ele>248.00000000000003</ele><time>2026-05-02T16:39:46.001Z</time></trkpt><trkpt lat="43.41038413384644" lon="11.799052252789567"><ele>248.0</ele><time>2026-05-02T16:39:47.001Z</time></trkpt><trkpt lat="43.410432372770025" lon="11.799152827746136"><ele>248.0</ele><time>2026-05-02T16:39:48.001Z</time></trkpt><trkpt lat="43.4104768109035" lon="11.79924621101658"><ele>248.0</ele><time>2026-05-02T16:39:49.001Z</time></trkpt><trkpt lat="43.410518393263004" lon="11.799330773002762"><ele>248.00000000000003</ele><time>2026-05-02T16:39:50.001Z</time></trkpt><trkpt lat="43.410563610876046" lon="11.79942096423241"><ele>248.0</ele><time>2026-05-02T16:39:51.001Z</time></trkpt><trkpt lat="43.41060987331944" lon="11.799510129865753"><ele>248.60000000000002</ele><time>2026-05-02T16:39:52.001Z</time></trkpt><trkpt lat="43.410659726593835" lon="11.799607512496184"><ele>249.20000000000002</ele><time>2026-05-02T16:39:53.001Z</time></trkpt><trkpt lat="43.4107082882151" lon="11.799710340974539"><ele>249.8</ele><time>2026-05-02T16:39:54.001Z</time></trkpt><trkpt lat="43.41076087692792" lon="11.799815327907018"><ele>250.4</ele><time>2026-05-02T16:39:55.001Z</time></trkpt><trkpt lat="43.410815851375816" lon="11.799927712204987"><ele>251.0</ele><time>2026-05-02T16:39:56.001Z</time></trkpt><trkpt lat="43.410878595865626" lon="11.80005339946284"><ele>250.60000000000002</ele><time>2026-05-02T16:39:57.001Z</time></trkpt><trkpt lat="43.41094153978168" lon="11.80017367378875"><ele>250.20000000000002</ele><time>2026-05-02T16:39:58.001Z</time></trkpt><trkpt lat="43.411000483412025" lon="11.800296423997048"><ele>249.79999999999998</ele><time>2026-05-02T16:39:59.001Z</time></trkpt><trkpt lat="43.41105690657667" lon="11.800414202129339"><ele>249.39999999999998</ele><time>2026-05-02T16:40:00.001Z</time></trkpt><trkpt lat="43.411111160289586" lon="11.800524411108167"><ele>249.0</ele><time>2026-05-02T16:40:01.001Z</time></trkpt><trkpt lat="43.411164715079295" lon="11.800622414512363"><ele>249.0</ele><time>2026-05-02T16:40:02.001Z</time></trkpt><trkpt lat="43.411194858384675" lon="11.800718782300155"><ele>248.99999999999997</ele><time>2026-05-02T16:40:03.001Z</time></trkpt><trkpt lat="43.41125140770647" lon="11.800834954945447"><ele>248.99999999999997</ele><time>2026-05-02T16:40:05.001Z</time></trkpt><trkpt lat="43.41139125170755" lon="11.800709072120153"><ele>249.0</ele><time>2026-05-02T16:40:06.001Z</time></trkpt><trkpt lat="43.41143571268816" lon="11.800622312900929"><ele>249.0</ele><time>2026-05-02T16:40:07.001Z</time></trkpt><trkpt lat="43.411492884551826" lon="11.800497857308175"><ele>248.33333333333331</ele><time>2026-05-02T16:40:08.001Z</time></trkpt><trkpt lat="43.41158184491792" lon="11.800334834900124"><ele>247.66666666666666</ele><time>2026-05-02T16:40:09.001Z</time></trkpt><trkpt lat="43.41169879484302" lon="11.80017191341146"><ele>247.0</ele><time>2026-05-02T16:40:10.001Z</time></trkpt><trkpt lat="43.41183579095491" lon="11.799983536350252"><ele>247.0</ele><time>2026-05-02T16:40:11.001Z</time></trkpt><trkpt lat="43.41197841313762" lon="11.799773319940304"><ele>247.0</ele><time>2026-05-02T16:40:12.001Z</time></trkpt><trkpt lat="43.41213167364269" lon="11.799552197835373"><ele>247.0</ele><time>2026-05-02T16:40:13.001Z</time></trkpt><trkpt lat="43.41228755272851" lon="11.799324383984588"><ele>246.0</ele><time>2026-05-02T16:40:14.001Z</time></trkpt><trkpt lat="43.41244660178238" lon="11.799088645295065"><ele>245.0</ele><time>2026-05-02T16:40:15.001Z</time></trkpt><trkpt lat="43.412607621092796" lon="11.79885468847598"><ele>245.0</ele><time>2026-05-02T16:40:16.001Z</time></trkpt><trkpt lat="43.41276155736315" lon="11.798630757886635"><ele>245.0</ele><time>2026-05-02T16:40:17.001Z</time></trkpt><trkpt lat="43.41290497323824" lon="11.798417355570503"><ele>245.0</ele><time>2026-05-02T16:40:18.001Z</time></trkpt><trkpt lat="43.41304758396098" lon="11.798206409702463"><ele>245.0</ele><time>2026-05-02T16:40:19.001Z</time></trkpt><trkpt lat="43.41319289672064" lon="11.7979955280499"><ele>245.0</ele><time>2026-05-02T16:40:20.001Z</time></trkpt><trkpt lat="43.41333641254069" lon="11.79778660261514"><ele>245.0</ele><time>2026-05-02T16:40:21.001Z</time></trkpt><trkpt lat="43.413476450751524" lon="11.7975848983503"><ele>245.66666666666669</ele><time>2026-05-02T16:40:22.001Z</time></trkpt><trkpt lat="43.413632983534754" lon="11.797416154174213"><ele>246.33333333333331</ele><time>2026-05-02T16:40:23.001Z</time></trkpt><trkpt lat="43.41378691277013" lon="11.797259022079993"><ele>247.0</ele><time>2026-05-02T16:40:24.001Z</time></trkpt><trkpt lat="43.413933206127304" lon="11.797107384996712"><ele>247.0</ele><time>2026-05-02T16:40:25.001Z</time></trkpt><trkpt lat="43.41410268434833" lon="11.79701725617629"><ele>247.0</ele><time>2026-05-02T16:40:26.001Z</time></trkpt><trkpt lat="43.414268787248126" lon="11.796931352356388"><ele>247.0</ele><time>2026-05-02T16:40:27.001Z</time></trkpt><trkpt lat="43.41443997510296" lon="11.796857943625419"><ele>247.0</ele><time>2026-05-02T16:40:28.001Z</time></trkpt><trkpt lat="43.414608721351044" lon="11.79677221829166"><ele>247.0</ele><time>2026-05-02T16:40:29.001Z</time></trkpt><trkpt lat="43.41478293413814" lon="11.796713226609297"><ele>247.0</ele><time>2026-05-02T16:40:30.001Z</time></trkpt><trkpt lat="43.41495752915112" lon="11.796647865875574"><ele>247.0</ele><time>2026-05-02T16:40:31.001Z</time></trkpt><trkpt lat="43.41512525034274" lon="11.79657759779051"><ele>247.0</ele><time>2026-05-02T16:40:32.001Z</time></trkpt><trkpt lat="43.41529119694275" lon="11.796516994827831"><ele>247.0</ele><time>2026-05-02T16:40:33.001Z</time></trkpt><trkpt lat="43.415467274406424" lon="11.796475419967308"><ele>247.0</ele><time>2026-05-02T16:40:34.001Z</time></trkpt><trkpt lat="43.41565422239439" lon="11.796450776222123"><ele>247.0</ele><time>2026-05-02T16:40:35.001Z</time></trkpt><trkpt lat="43.415836744271665" lon="11.796455969011706"><ele>247.0</ele><time>2026-05-02T16:40:36.001Z</time></trkpt><trkpt lat="43.41602056013822" lon="11.796487980848784"><ele>247.0</ele><time>2026-05-02T16:40:37.001Z</time></trkpt><trkpt lat="43.416202528616395" lon="11.796542892968139"><ele>247.0</ele><time>2026-05-02T16:40:38.001Z</time></trkpt><trkpt lat="43.41638255819253" lon="11.796600433495705"><ele>247.0</ele><time>2026-05-02T16:40:39.001Z</time></trkpt><trkpt lat="43.41655951647529" lon="11.796655426171263"><ele>247.0</ele><time>2026-05-02T16:40:40.001Z</time></trkpt><trkpt lat="43.41672472753648" lon="11.796702944001979"><ele>247.0</ele><time>2026-05-02T16:40:41.001Z</time></trkpt><trkpt lat="43.41687888918366" lon="11.796736882239863"><ele>247.0</ele><time>2026-05-02T16:40:42.001Z</time></trkpt><trkpt lat="43.41703187089534" lon="11.796754409653664"><ele>248.0</ele><time>2026-05-02T16:40:43.001Z</time></trkpt><trkpt lat="43.41718980259407" lon="11.796753837453513"><ele>249.0</ele><time>2026-05-02T16:40:44.001Z</time></trkpt><trkpt lat="43.417350614631125" lon="11.796724419858911"><ele>250.0</ele><time>2026-05-02T16:40:45.001Z</time></trkpt><trkpt lat="43.41751060224149" lon="11.796678416275016"><ele>250.0</ele><time>2026-05-02T16:40:46.001Z</time></trkpt><trkpt lat="43.417668604553526" lon="11.79661964183825"><ele>250.0</ele><time>2026-05-02T16:40:47.001Z</time></trkpt><trkpt lat="43.41782518691537" lon="11.796565547282905"><ele>250.0</ele><time>2026-05-02T16:40:48.001Z</time></trkpt><trkpt lat="43.41798185189342" lon="11.796507911948503"><ele>250.33333333333331</ele><time>2026-05-02T16:40:49.001Z</time></trkpt><trkpt lat="43.418135273161504" lon="11.796450603128111"><ele>250.66666666666669</ele><time>2026-05-02T16:40:50.001Z</time></trkpt><trkpt lat="43.41829622023612" lon="11.796397842617603"><ele>251.0</ele><time>2026-05-02T16:40:51.001Z</time></trkpt><trkpt lat="43.41846275915729" lon="11.796340672695225"><ele>251.0</ele><time>2026-05-02T16:40:52.001Z</time></trkpt><trkpt lat="43.41864447525605" lon="11.796279214500595"><ele>251.0</ele><time>2026-05-02T16:40:53.001Z</time></trkpt><trkpt lat="43.41883900303813" lon="11.796239953675727"><ele>251.0</ele><time>2026-05-02T16:40:54.001Z</time></trkpt><trkpt lat="43.41904383086747" lon="11.796179289096484"><ele>250.66666666666669</ele><time>2026-05-02T16:40:55.001Z</time></trkpt><trkpt lat="43.41925788697065" lon="11.79611796418799"><ele>250.33333333333331</ele><time>2026-05-02T16:40:56.001Z</time></trkpt><trkpt lat="43.41947747698151" lon="11.796058104323519"><ele>250.0</ele><time>2026-05-02T16:40:57.001Z</time></trkpt><trkpt lat="43.419705206315925" lon="11.795996358940394"><ele>251.0</ele><time>2026-05-02T16:40:58.001Z</time></trkpt><trkpt lat="43.419931752801986" lon="11.795934626086611"><ele>252.0</ele><time>2026-05-02T16:40:59.001Z</time></trkpt><trkpt lat="43.420167212906435" lon="11.795870464299025"><ele>252.0</ele><time>2026-05-02T16:41:00.001Z</time></trkpt><trkpt lat="43.42039774941626" lon="11.795788774194353"><ele>252.0</ele><time>2026-05-02T16:41:01.001Z</time></trkpt><trkpt lat="43.420632093264196" lon="11.795725566855252"><ele>252.0</ele><time>2026-05-02T16:41:02.001Z</time></trkpt><trkpt lat="43.420867973425345" lon="11.795657815794051"><ele>252.0</ele><time>2026-05-02T16:41:03.001Z</time></trkpt><trkpt lat="43.421101888035935" lon="11.795587077256396"><ele>252.0</ele><time>2026-05-02T16:41:04.001Z</time></trkpt><trkpt lat="43.42133266216952" lon="11.795516567384947"><ele>252.0</ele><time>2026-05-02T16:41:05Z</time></trkpt><trkpt lat="43.42155784816144" lon="11.7954444282769"><ele>252.0</ele><time>2026-05-02T16:41:06.001Z</time></trkpt><trkpt lat="43.42177490005149" lon="11.795372433205474"><ele>252.0</ele><time>2026-05-02T16:41:07Z</time></trkpt><trkpt lat="43.421977211440826" lon="11.795309149061834"><ele>252.0</ele><time>2026-05-02T16:41:08Z</time></trkpt><trkpt lat="43.42217019878461" lon="11.795267302082618"><ele>252.0</ele><time>2026-05-02T16:41:09.001Z</time></trkpt><trkpt lat="43.42236131861122" lon="11.795231276187529"><ele>252.0</ele><time>2026-05-02T16:41:10.001Z</time></trkpt><trkpt lat="43.422542695832796" lon="11.79513470890105"><ele>252.0</ele><time>2026-05-02T16:41:11.001Z</time></trkpt><trkpt lat="43.42270711948001" lon="11.795056089367748"><ele>252.33333333333331</ele><time>2026-05-02T16:41:12.001Z</time></trkpt><trkpt lat="43.42286568256577" lon="11.795002259294572"><ele>252.66666666666666</ele><time>2026-05-02T16:41:13.001Z</time></trkpt><trkpt lat="43.4230194452866" lon="11.794972144996077"><ele>253.0</ele><time>2026-05-02T16:41:14.001Z</time></trkpt><trkpt lat="43.423162625525975" lon="11.79492332289082"><ele>254.0</ele><time>2026-05-02T16:41:15.001Z</time></trkpt><trkpt lat="43.42331156805011" lon="11.794873103348932"><ele>255.0</ele><time>2026-05-02T16:41:16.001Z</time></trkpt><trkpt lat="43.423463736712236" lon="11.794824570609995"><ele>256.0</ele><time>2026-05-02T16:41:17.001Z</time></trkpt><trkpt lat="43.42361392183217" lon="11.79478382059498"><ele>256.0</ele><time>2026-05-02T16:41:18.001Z</time></trkpt><trkpt lat="43.42376737276268" lon="11.794752589724613"><ele>256.0</ele><time>2026-05-02T16:41:19.001Z</time></trkpt><trkpt lat="43.423918583323115" lon="11.794729154578402"><ele>256.0</ele><time>2026-05-02T16:41:20.001Z</time></trkpt><trkpt lat="43.424074886299124" lon="11.79470479331257"><ele>257.0</ele><time>2026-05-02T16:41:21.001Z</time></trkpt><trkpt lat="43.42422265714517" lon="11.794663267672043"><ele>258.0</ele><time>2026-05-02T16:41:22.001Z</time></trkpt><trkpt lat="43.42438218448853" lon="11.79464391343158"><ele>259.0</ele><time>2026-05-02T16:41:23.001Z</time></trkpt><trkpt lat="43.42452229649955" lon="11.794643684972527"><ele>257.66666666666663</ele><time>2026-05-02T16:41:24.001Z</time></trkpt><trkpt lat="43.424711201387105" lon="11.794625166746556"><ele>256.3333333333333</ele><time>2026-05-02T16:41:25.001Z</time></trkpt><trkpt lat="43.42490923264028" lon="11.794619678482219"><ele>255.0</ele><time>2026-05-02T16:41:26.001Z</time></trkpt><trkpt lat="43.42509298561376" lon="11.794629776570702"><ele>255.0</ele><time>2026-05-02T16:41:27.001Z</time></trkpt><trkpt lat="43.425265688758174" lon="11.794664499524302"><ele>255.0</ele><time>2026-05-02T16:41:28.001Z</time></trkpt><trkpt lat="43.425437575678316" lon="11.794720385511301"><ele>255.0</ele><time>2026-05-02T16:41:29.001Z</time></trkpt><trkpt lat="43.42561518337036" lon="11.79479686288804"><ele>254.66666666666669</ele><time>2026-05-02T16:41:30.001Z</time></trkpt><trkpt lat="43.42578710663997" lon="11.794891129219653"><ele>254.33333333333334</ele><time>2026-05-02T16:41:31.001Z</time></trkpt><trkpt lat="43.4259723711572" lon="11.794995663961824"><ele>254.0</ele><time>2026-05-02T16:41:32.001Z</time></trkpt><trkpt lat="43.426173667543196" lon="11.795109246320184"><ele>251.5</ele><time>2026-05-02T16:41:33.001Z</time></trkpt><trkpt lat="43.42640116122694" lon="11.795236891971019"><ele>249.0</ele><time>2026-05-02T16:41:34.001Z</time></trkpt><trkpt lat="43.426637511592375" lon="11.795369251608545"><ele>249.0</ele><time>2026-05-02T16:41:35.001Z</time></trkpt><trkpt lat="43.4268887529437" lon="11.795509950485151"><ele>249.0</ele><time>2026-05-02T16:41:36.001Z</time></trkpt><trkpt lat="43.427143194310574" lon="11.79564092981122"><ele>250.5</ele><time>2026-05-02T16:41:37.001Z</time></trkpt><trkpt lat="43.42739679750412" lon="11.795781640010198"><ele>252.0</ele><time>2026-05-02T16:41:38.001Z</time></trkpt><trkpt lat="43.427649854221826" lon="11.795913522838331"><ele>251.0</ele><time>2026-05-02T16:41:39.001Z</time></trkpt><trkpt lat="43.42789641770154" lon="11.796054646369976"><ele>250.0</ele><time>2026-05-02T16:41:40.001Z</time></trkpt><trkpt lat="43.42814299222603" lon="11.796194575260467"><ele>250.0</ele><time>2026-05-02T16:41:41.001Z</time></trkpt><trkpt lat="43.4283779079866" lon="11.796348704200286"><ele>250.0</ele><time>2026-05-02T16:41:42.001Z</time></trkpt><trkpt lat="43.428612078004996" lon="11.796481575578035"><ele>250.0</ele><time>2026-05-02T16:41:43.001Z</time></trkpt><trkpt lat="43.42883747699518" lon="11.796609470058502"><ele>250.0</ele><time>2026-05-02T16:41:44.001Z</time></trkpt><trkpt lat="43.42906527970061" lon="11.796738423296896"><ele>249.5</ele><time>2026-05-02T16:41:45.001Z</time></trkpt><trkpt lat="43.42929892015978" lon="11.796849745943035"><ele>249.0</ele><time>2026-05-02T16:41:46.001Z</time></trkpt><trkpt lat="43.42952502196558" lon="11.79697927822087"><ele>249.5</ele><time>2026-05-02T16:41:47.001Z</time></trkpt><trkpt lat="43.42974431253276" lon="11.797103790213681"><ele>250.0</ele><time>2026-05-02T16:41:48.001Z</time></trkpt><trkpt lat="43.429955991782435" lon="11.797222019079856"><ele>250.0</ele><time>2026-05-02T16:41:49.001Z</time></trkpt><trkpt lat="43.43015450889136" lon="11.797332532438544"><ele>250.0</ele><time>2026-05-02T16:41:50.001Z</time></trkpt><trkpt lat="43.43034081475802" lon="11.797436478148073"><ele>250.0</ele><time>2026-05-02T16:41:51.001Z</time></trkpt><trkpt lat="43.43052095876433" lon="11.79753606568387"><ele>249.66666666666666</ele><time>2026-05-02T16:41:52.001Z</time></trkpt><trkpt lat="43.43069136741489" lon="11.797622880315725"><ele>249.33333333333331</ele><time>2026-05-02T16:41:53.001Z</time></trkpt><trkpt lat="43.43085526349758" lon="11.797713116839224"><ele>249.0</ele><time>2026-05-02T16:41:54.001Z</time></trkpt><trkpt lat="43.431012780139405" lon="11.797736618991214"><ele>249.0</ele><time>2026-05-02T16:41:55.001Z</time></trkpt><trkpt lat="43.43116720641489" lon="11.797714784999501"><ele>249.0</ele><time>2026-05-02T16:41:56.001Z</time></trkpt><trkpt lat="43.4313314371669" lon="11.797659719494789"><ele>249.0</ele><time>2026-05-02T16:41:57.001Z</time></trkpt><trkpt lat="43.4314890053676" lon="11.797566587877366"><ele>249.33333333333331</ele><time>2026-05-02T16:41:58.001Z</time></trkpt><trkpt lat="43.43163356979582" lon="11.797429006766116"><ele>249.66666666666666</ele><time>2026-05-02T16:41:59.001Z</time></trkpt><trkpt lat="43.43176468464033" lon="11.79721228441916"><ele>250.0</ele><time>2026-05-02T16:42:00.001Z</time></trkpt><trkpt lat="43.43189745780031" lon="11.797046882928122"><ele>250.0</ele><time>2026-05-02T16:42:01.001Z</time></trkpt><trkpt lat="43.43203422675594" lon="11.79682784724362"><ele>250.0</ele><time>2026-05-02T16:42:02.001Z</time></trkpt><trkpt lat="43.432189071742904" lon="11.796607289026372"><ele>250.0</ele><time>2026-05-02T16:42:03.001Z</time></trkpt><trkpt lat="43.43233273278476" lon="11.79636806566776"><ele>250.0</ele><time>2026-05-02T16:42:04.001Z</time></trkpt><trkpt lat="43.43249446476375" lon="11.796147459214335"><ele>250.0</ele><time>2026-05-02T16:42:05.001Z</time></trkpt><trkpt lat="43.4326531070187" lon="11.795919162232405"><ele>251.0</ele><time>2026-05-02T16:42:06.001Z</time></trkpt><trkpt lat="43.43280896852622" lon="11.795692770107673"><ele>252.0</ele><time>2026-05-02T16:42:07.001Z</time></trkpt><trkpt lat="43.432953995413264" lon="11.79547164234165"><ele>253.0</ele><time>2026-05-02T16:42:08.001Z</time></trkpt><trkpt lat="43.43308770771377" lon="11.795251518890641"><ele>253.0</ele><time>2026-05-02T16:42:09.001Z</time></trkpt><trkpt lat="43.433204286159885" lon="11.795022038621756"><ele>253.0</ele><time>2026-05-02T16:42:10.001Z</time></trkpt><trkpt lat="43.43330663200608" lon="11.794781537702912"><ele>253.0</ele><time>2026-05-02T16:42:11.001Z</time></trkpt><trkpt lat="43.43339986270094" lon="11.794537724469558"><ele>254.0</ele><time>2026-05-02T16:42:12.001Z</time></trkpt><trkpt lat="43.43348205319461" lon="11.794308330370837"><ele>255.0</ele><time>2026-05-02T16:42:13.001Z</time></trkpt><trkpt lat="43.43355296607207" lon="11.794095596825333"><ele>256.0</ele><time>2026-05-02T16:42:14.001Z</time></trkpt><trkpt lat="43.433627883912" lon="11.793896083901187"><ele>256.0</ele><time>2026-05-02T16:42:15.001Z</time></trkpt><trkpt lat="43.43372827371336" lon="11.793733384388922"><ele>256.0</ele><time>2026-05-02T16:42:16.001Z</time></trkpt><trkpt lat="43.433830874818156" lon="11.79358985263382"><ele>256.0</ele><time>2026-05-02T16:42:17.001Z</time></trkpt><trkpt lat="43.43394864090062" lon="11.793448888182873"><ele>256.66666666666663</ele><time>2026-05-02T16:42:18.001Z</time></trkpt><trkpt lat="43.434099124274205" lon="11.793339173651345"><ele>257.3333333333333</ele><time>2026-05-02T16:42:19.001Z</time></trkpt><trkpt lat="43.434273828792016" lon="11.793281009373478"><ele>258.0</ele><time>2026-05-02T16:42:20.001Z</time></trkpt><trkpt lat="43.434419752815074" lon="11.793244474796227"><ele>258.0</ele><time>2026-05-02T16:42:21.001Z</time></trkpt><trkpt lat="43.434588053817315" lon="11.793250390496155"><ele>258.0</ele><time>2026-05-02T16:42:22.001Z</time></trkpt><trkpt lat="43.434774942256404" lon="11.793295354543062"><ele>258.0</ele><time>2026-05-02T16:42:23.001Z</time></trkpt><trkpt lat="43.43496728972948" lon="11.793378771611227"><ele>257.0</ele><time>2026-05-02T16:42:24.001Z</time></trkpt><trkpt lat="43.435171516819864" lon="11.793472849062669"><ele>256.0</ele><time>2026-05-02T16:42:25.001Z</time></trkpt><trkpt lat="43.43538274453334" lon="11.793553219451194"><ele>255.0</ele><time>2026-05-02T16:42:26.001Z</time></trkpt><trkpt lat="43.4355941431939" lon="11.793660735364522"><ele>254.33333333333331</ele><time>2026-05-02T16:42:27.001Z</time></trkpt><trkpt lat="43.435804863141584" lon="11.793742530511963"><ele>253.66666666666666</ele><time>2026-05-02T16:42:28.001Z</time></trkpt><trkpt lat="43.43600704335038" lon="11.793834647001196"><ele>253.0</ele><time>2026-05-02T16:42:29.001Z</time></trkpt><trkpt lat="43.43622100061488" lon="11.793952153389322"><ele>252.33333333333331</ele><time>2026-05-02T16:42:30.001Z</time></trkpt><trkpt lat="43.43646658133402" lon="11.79404965749632"><ele>251.66666666666669</ele><time>2026-05-02T16:42:31.001Z</time></trkpt><trkpt lat="43.43662305354865" lon="11.794078657201823"><ele>251.0</ele><time>2026-05-02T16:42:32.001Z</time></trkpt><trkpt lat="43.43680755793438" lon="11.794131694245314"><ele>251.0</ele><time>2026-05-02T16:42:33.001Z</time></trkpt><trkpt lat="43.437014473277955" lon="11.794169718031924"><ele>251.0</ele><time>2026-05-02T16:42:34.001Z</time></trkpt><trkpt lat="43.43723409318649" lon="11.794179082850608"><ele>251.0</ele><time>2026-05-02T16:42:35.001Z</time></trkpt><trkpt lat="43.43746571439354" lon="11.79416408560329"><ele>250.5</ele><time>2026-05-02T16:42:36.001Z</time></trkpt><trkpt lat="43.43769980851109" lon="11.794130093820241"><ele>250.0</ele><time>2026-05-02T16:42:37.001Z</time></trkpt><trkpt lat="43.437934250858156" lon="11.794103201405903"><ele>250.0</ele><time>2026-05-02T16:42:38.001Z</time></trkpt><trkpt lat="43.43817084756641" lon="11.794086895347423"><ele>250.0</ele><time>2026-05-02T16:42:39.001Z</time></trkpt><trkpt lat="43.438404778144665" lon="11.794066929492416"><ele>250.0</ele><time>2026-05-02T16:42:40.001Z</time></trkpt><trkpt lat="43.43863775973534" lon="11.79405130925919"><ele>250.0</ele><time>2026-05-02T16:42:41.001Z</time></trkpt><trkpt lat="43.43886678391919" lon="11.794029132051705"><ele>249.0</ele><time>2026-05-02T16:42:42.001Z</time></trkpt><trkpt lat="43.43909484015079" lon="11.794011847273364"><ele>248.0</ele><time>2026-05-02T16:42:43.001Z</time></trkpt><trkpt lat="43.43931761496022" lon="11.794002206895135"><ele>248.0</ele><time>2026-05-02T16:42:44.001Z</time></trkpt><trkpt lat="43.43954569976496" lon="11.793999023678085"><ele>248.0</ele><time>2026-05-02T16:42:45.001Z</time></trkpt><trkpt lat="43.43977021381164" lon="11.794006617052899"><ele>248.5</ele><time>2026-05-02T16:42:46.001Z</time></trkpt><trkpt lat="43.4399976632799" lon="11.794056131348219"><ele>249.0</ele><time>2026-05-02T16:42:47.001Z</time></trkpt><trkpt lat="43.4402177803671" lon="11.794099612827592"><ele>249.0</ele><time>2026-05-02T16:42:48.001Z</time></trkpt><trkpt lat="43.44044014192076" lon="11.794145985661707"><ele>249.0</ele><time>2026-05-02T16:42:49.001Z</time></trkpt><trkpt lat="43.44065789116729" lon="11.79417445935371"><ele>249.0</ele><time>2026-05-02T16:42:50.001Z</time></trkpt><trkpt lat="43.44086683046842" lon="11.79421670594112"><ele>249.33333333333331</ele><time>2026-05-02T16:42:51.001Z</time></trkpt><trkpt lat="43.44106458961573" lon="11.794277416930253"><ele>249.66666666666666</ele><time>2026-05-02T16:42:52.001Z</time></trkpt><trkpt lat="43.44126273264969" lon="11.79428600278665"><ele>250.0</ele><time>2026-05-02T16:42:53.001Z</time></trkpt><trkpt lat="43.441456510619055" lon="11.794304846449895"><ele>250.33333333333331</ele><time>2026-05-02T16:42:54.001Z</time></trkpt><trkpt lat="43.44165203275538" lon="11.794293243739375"><ele>250.66666666666669</ele><time>2026-05-02T16:42:55.001Z</time></trkpt><trkpt lat="43.441848063457556" lon="11.794271641576344"><ele>251.0</ele><time>2026-05-02T16:42:56.001Z</time></trkpt><trkpt lat="43.44205071189721" lon="11.794270258079566"><ele>250.66666666666669</ele><time>2026-05-02T16:42:57.001Z</time></trkpt><trkpt lat="43.442253134775896" lon="11.794253308690038"><ele>250.33333333333331</ele><time>2026-05-02T16:42:58.001Z</time></trkpt><trkpt lat="43.44244814687246" lon="11.794242919921663"><ele>250.0</ele><time>2026-05-02T16:42:59.001Z</time></trkpt><trkpt lat="43.442636773027616" lon="11.794237615802379"><ele>250.0</ele><time>2026-05-02T16:43:00.001Z</time></trkpt><trkpt lat="43.44283489802104" lon="11.794228198350185"><ele>250.0</ele><time>2026-05-02T16:43:01Z</time></trkpt><trkpt lat="43.44303295796467" lon="11.794265814021417"><ele>250.0</ele><time>2026-05-02T16:43:02Z</time></trkpt><trkpt lat="43.44324646757929" lon="11.794362719244859"><ele>249.66666666666666</ele><time>2026-05-02T16:43:03Z</time></trkpt><trkpt lat="43.44342021426701" lon="11.794435890299622"><ele>249.33333333333331</ele><time>2026-05-02T16:43:04Z</time></trkpt><trkpt lat="43.443604586766334" lon="11.79456091488272"><ele>249.0</ele><time>2026-05-02T16:43:05Z</time></trkpt><trkpt lat="43.44378587638507" lon="11.794688156201666"><ele>249.66666666666669</ele><time>2026-05-02T16:43:06Z</time></trkpt><trkpt lat="43.44397129035087" lon="11.79481814485302"><ele>250.33333333333334</ele><time>2026-05-02T16:43:07Z</time></trkpt><trkpt lat="43.44415767711138" lon="11.794944937079878"><ele>251.0</ele><time>2026-05-02T16:43:08Z</time></trkpt><trkpt lat="43.44435001950562" lon="11.795071449118598"><ele>250.66666666666669</ele><time>2026-05-02T16:43:09Z</time></trkpt><trkpt lat="43.44454097422391" lon="11.795208514144806"><ele>250.33333333333331</ele><time>2026-05-02T16:43:10Z</time></trkpt><trkpt lat="43.444731801309395" lon="11.795348490804331"><ele>250.0</ele><time>2026-05-02T16:43:11Z</time></trkpt><trkpt lat="43.444917150709784" lon="11.795488929474814"><ele>250.0</ele><time>2026-05-02T16:43:12Z</time></trkpt><trkpt lat="43.44510543341957" lon="11.79563106083721"><ele>250.0</ele><time>2026-05-02T16:43:13Z</time></trkpt><trkpt lat="43.44529608051404" lon="11.79576976945996"><ele>250.0</ele><time>2026-05-02T16:43:14Z</time></trkpt><trkpt lat="43.445479172723765" lon="11.795906837052023"><ele>250.33333333333331</ele><time>2026-05-02T16:43:15Z</time></trkpt><trkpt lat="43.4456440160636" lon="11.796048402658762"><ele>250.66666666666669</ele><time>2026-05-02T16:43:16Z</time></trkpt><trkpt lat="43.44582087751122" lon="11.796181255108062"><ele>251.0</ele><time>2026-05-02T16:43:17Z</time></trkpt><trkpt lat="43.44598467437528" lon="11.796304548602977"><ele>251.0</ele><time>2026-05-02T16:43:18Z</time></trkpt><trkpt lat="43.44614800788464" lon="11.796402322206749"><ele>251.0</ele><time>2026-05-02T16:43:19Z</time></trkpt><trkpt lat="43.446287956017635" lon="11.796534300190942"><ele>251.0</ele><time>2026-05-02T16:43:20Z</time></trkpt><trkpt lat="43.446428144176465" lon="11.796638480782686"><ele>251.0</ele><time>2026-05-02T16:43:21Z</time></trkpt><trkpt lat="43.446579598126526" lon="11.796717780594918"><ele>251.0</ele><time>2026-05-02T16:43:22Z</time></trkpt><trkpt lat="43.44672743037357" lon="11.796808623462875"><ele>251.0</ele><time>2026-05-02T16:43:23Z</time></trkpt><trkpt lat="43.44688394939703" lon="11.796879996807096"><ele>250.66666666666669</ele><time>2026-05-02T16:43:24Z</time></trkpt><trkpt lat="43.44704745629621" lon="11.796935314419176"><ele>250.33333333333331</ele><time>2026-05-02T16:43:25Z</time></trkpt><trkpt lat="43.44720481673575" lon="11.796973698625662"><ele>250.0</ele><time>2026-05-02T16:43:26Z</time></trkpt><trkpt lat="43.447357133163266" lon="11.796994649905802"><ele>249.75</ele><time>2026-05-02T16:43:27Z</time></trkpt><trkpt lat="43.447495953866344" lon="11.796999482790424"><ele>249.5</ele><time>2026-05-02T16:43:28Z</time></trkpt><trkpt lat="43.44761494680067" lon="11.797000122884011"><ele>249.25</ele><time>2026-05-02T16:43:29Z</time></trkpt><trkpt lat="43.44772580800463" lon="11.797001625050418"><ele>249.0</ele><time>2026-05-02T16:43:30Z</time></trkpt><trkpt lat="43.44782805347214" lon="11.797012633907752"><ele>249.0</ele><time>2026-05-02T16:43:31Z</time></trkpt><trkpt lat="43.44794340124557" lon="11.797044619080005"><ele>249.0</ele><time>2026-05-02T16:43:32Z</time></trkpt><trkpt lat="43.44807361227764" lon="11.7970932459228"><ele>249.0</ele><time>2026-05-02T16:43:33Z</time></trkpt><trkpt lat="43.44820249681606" lon="11.797168956318535"><ele>249.0</ele><time>2026-05-02T16:43:34Z</time></trkpt><trkpt lat="43.448329468055114" lon="11.79732293228589"><ele>249.0</ele><time>2026-05-02T16:43:35Z</time></trkpt><trkpt lat="43.448495311800045" lon="11.797429826708042"><ele>249.0</ele><time>2026-05-02T16:43:36Z</time></trkpt><trkpt lat="43.4486390927477" lon="11.797561841282754"><ele>249.0</ele><time>2026-05-02T16:43:37Z</time></trkpt><trkpt lat="43.44875751363142" lon="11.797709000379015"><ele>248.66666666666669</ele><time>2026-05-02T16:43:38Z</time></trkpt><trkpt lat="43.44883378745653" lon="11.797919813131022"><ele>248.33333333333334</ele><time>2026-05-02T16:43:39Z</time></trkpt><trkpt lat="43.44891618556127" lon="11.798146420994255"><ele>248.0</ele><time>2026-05-02T16:43:40Z</time></trkpt><trkpt lat="43.44900844723178" lon="11.798369940195634"><ele>248.0</ele><time>2026-05-02T16:43:41Z</time></trkpt><trkpt lat="43.44908248580934" lon="11.798576445306415"><ele>248.0</ele><time>2026-05-02T16:43:42Z</time></trkpt><trkpt lat="43.44916019021737" lon="11.798761198188974"><ele>248.0</ele><time>2026-05-02T16:43:43Z</time></trkpt><trkpt lat="43.44924374553637" lon="11.798930032013924"><ele>248.0</ele><time>2026-05-02T16:43:44Z</time></trkpt><trkpt lat="43.44934613476797" lon="11.799097976016306"><ele>248.0</ele><time>2026-05-02T16:43:45Z</time></trkpt><trkpt lat="43.44947550286176" lon="11.799254285560187"><ele>248.0</ele><time>2026-05-02T16:43:46Z</time></trkpt><trkpt lat="43.44961331533152" lon="11.799429655230485"><ele>248.66666666666669</ele><time>2026-05-02T16:43:47Z</time></trkpt><trkpt lat="43.449742185092425" lon="11.799560894292714"><ele>249.33333333333331</ele><time>2026-05-02T16:43:48Z</time></trkpt><trkpt lat="43.44986782332921" lon="11.799692730996895"><ele>250.0</ele><time>2026-05-02T16:43:49Z</time></trkpt><trkpt lat="43.44997319050583" lon="11.79982718971358"><ele>250.0</ele><time>2026-05-02T16:43:50Z</time></trkpt><trkpt lat="43.45007753649403" lon="11.799959328692362"><ele>250.0</ele><time>2026-05-02T16:43:51Z</time></trkpt><trkpt lat="43.450133566586565" lon="11.800127818850477"><ele>250.0</ele><time>2026-05-02T16:43:52Z</time></trkpt><trkpt lat="43.450203822658445" lon="11.800278969440829"><ele>250.0</ele><time>2026-05-02T16:43:53Z</time></trkpt><trkpt lat="43.45028740036809" lon="11.800425047565238"><ele>250.0</ele><time>2026-05-02T16:43:54Z</time></trkpt><trkpt lat="43.450354060466346" lon="11.800573440908758"><ele>250.0</ele><time>2026-05-02T16:43:55Z</time></trkpt><trkpt lat="43.45041295480714" lon="11.800706344818613"><ele>250.0</ele><time>2026-05-02T16:43:56Z</time></trkpt><trkpt lat="43.45046511897222" lon="11.800828578844918"><ele>250.0</ele><time>2026-05-02T16:43:57Z</time></trkpt><trkpt lat="43.45051462383858" lon="11.800948218191769"><ele>250.0</ele><time>2026-05-02T16:43:58Z</time></trkpt><trkpt lat="43.45055859015845" lon="11.801062683240927"><ele>250.0</ele><time>2026-05-02T16:43:59Z</time></trkpt><trkpt lat="43.450595305126924" lon="11.801149907744172"><ele>250.0</ele><time>2026-05-02T16:44:00Z</time></trkpt><trkpt lat="43.45064148554952" lon="11.80128815914791"><ele>250.0</ele><time>2026-05-02T16:44:01Z</time></trkpt><trkpt lat="43.450694900872094" lon="11.801415181016667"><ele>250.0</ele><time>2026-05-02T16:44:02Z</time></trkpt><trkpt lat="43.450752623082685" lon="11.801551158324484"><ele>250.0</ele><time>2026-05-02T16:44:03Z</time></trkpt><trkpt lat="43.45079815758025" lon="11.80170531202039"><ele>250.25</ele><time>2026-05-02T16:44:04Z</time></trkpt><trkpt lat="43.45085755556908" lon="11.801861801380694"><ele>250.5</ele><time>2026-05-02T16:44:05Z</time></trkpt><trkpt lat="43.450922536864844" lon="11.802026563548534"><ele>250.75</ele><time>2026-05-02T16:44:06Z</time></trkpt><trkpt lat="43.451004452623394" lon="11.802184016647267"><ele>251.0</ele><time>2026-05-02T16:44:07Z</time></trkpt><trkpt lat="43.45106567107371" lon="11.802358349478439"><ele>251.0</ele><time>2026-05-02T16:44:08Z</time></trkpt><trkpt lat="43.451092816795345" lon="11.802547300951066"><ele>251.0</ele><time>2026-05-02T16:44:09Z</time></trkpt><trkpt lat="43.45113895565754" lon="11.802728896146276"><ele>251.0</ele><time>2026-05-02T16:44:10Z</time></trkpt><trkpt lat="43.451158735554195" lon="11.802904251730737"><ele>251.0</ele><time>2026-05-02T16:44:11Z</time></trkpt><trkpt lat="43.45118264109434" lon="11.803083042256045"><ele>250.5</ele><time>2026-05-02T16:44:12Z</time></trkpt><trkpt lat="43.45121018381883" lon="11.803272934249676"><ele>250.0</ele><time>2026-05-02T16:44:13Z</time></trkpt><trkpt lat="43.451221655463286" lon="11.803439250053165"><ele>249.5</ele><time>2026-05-02T16:44:14Z</time></trkpt><trkpt lat="43.451265710493914" lon="11.803617976809347"><ele>249.0</ele><time>2026-05-02T16:44:15Z</time></trkpt><trkpt lat="43.451302887817704" lon="11.803781041363893"><ele>249.0</ele><time>2026-05-02T16:44:16Z</time></trkpt><trkpt lat="43.451355067847395" lon="11.803940514213139"><ele>249.0</ele><time>2026-05-02T16:44:17Z</time></trkpt><trkpt lat="43.45143021490282" lon="11.804095588958472"><ele>249.0</ele><time>2026-05-02T16:44:18Z</time></trkpt><trkpt lat="43.45151498329212" lon="11.804239563964192"><ele>249.0</ele><time>2026-05-02T16:44:19Z</time></trkpt><trkpt lat="43.45160164703147" lon="11.804383162817386"><ele>248.75</ele><time>2026-05-02T16:44:20Z</time></trkpt><trkpt lat="43.45168204080914" lon="11.804528047240089"><ele>248.5</ele><time>2026-05-02T16:44:21Z</time></trkpt><trkpt lat="43.451755349046785" lon="11.80467005067896"><ele>248.25</ele><time>2026-05-02T16:44:22Z</time></trkpt><trkpt lat="43.451828122186306" lon="11.804818089767409"><ele>248.0</ele><time>2026-05-02T16:44:23Z</time></trkpt><trkpt lat="43.4519088323755" lon="11.80496109539223"><ele>248.0</ele><time>2026-05-02T16:44:24Z</time></trkpt><trkpt lat="43.45199504808637" lon="11.805089209594936"><ele>248.0</ele><time>2026-05-02T16:44:25Z</time></trkpt><trkpt lat="43.45208322972143" lon="11.805212418623457"><ele>248.0</ele><time>2026-05-02T16:44:26Z</time></trkpt><trkpt lat="43.45218894954616" lon="11.805348152226257"><ele>248.0</ele><time>2026-05-02T16:44:27Z</time></trkpt><trkpt lat="43.45226680873255" lon="11.805467399121007"><ele>248.2</ele><time>2026-05-02T16:44:28Z</time></trkpt><trkpt lat="43.45234472528588" lon="11.805585119696655"><ele>248.4</ele><time>2026-05-02T16:44:29Z</time></trkpt><trkpt lat="43.45242848928398" lon="11.805677008616053"><ele>248.59999999999997</ele><time>2026-05-02T16:44:30Z</time></trkpt><trkpt lat="43.45251462530793" lon="11.805758409976699"><ele>248.79999999999998</ele><time>2026-05-02T16:44:31Z</time></trkpt><trkpt lat="43.452615430983265" lon="11.805820318087736"><ele>249.0</ele><time>2026-05-02T16:44:32Z</time></trkpt><trkpt lat="43.452728671818775" lon="11.805870105285658"><ele>249.0</ele><time>2026-05-02T16:44:33Z</time></trkpt><trkpt lat="43.452850648881416" lon="11.805905745786777"><ele>249.0</ele><time>2026-05-02T16:44:34Z</time></trkpt><trkpt lat="43.45297849068533" lon="11.805925342756627"><ele>249.0</ele><time>2026-05-02T16:44:35Z</time></trkpt><trkpt lat="43.45310827497542" lon="11.805937076171068"><ele>249.0</ele><time>2026-05-02T16:44:36Z</time></trkpt><trkpt lat="43.45323511460244" lon="11.805942821408525"><ele>249.25</ele><time>2026-05-02T16:44:37Z</time></trkpt><trkpt lat="43.453357953029034" lon="11.805948100093913"><ele>249.5</ele><time>2026-05-02T16:44:38Z</time></trkpt><trkpt lat="43.45348114659096" lon="11.805965760498928"><ele>249.75</ele><time>2026-05-02T16:44:39Z</time></trkpt><trkpt lat="43.45359836798648" lon="11.80601996465763"><ele>250.0</ele><time>2026-05-02T16:44:40Z</time></trkpt><trkpt lat="43.45372154609197" lon="11.806045132966577"><ele>249.4</ele><time>2026-05-02T16:44:41Z</time></trkpt><trkpt lat="43.45382869411264" lon="11.80608289104202"><ele>248.8</ele><time>2026-05-02T16:44:42Z</time></trkpt><trkpt lat="43.45392808604395" lon="11.806111222819423"><ele>248.2</ele><time>2026-05-02T16:44:43Z</time></trkpt><trkpt lat="43.45402459364478" lon="11.806134368023233"><ele>247.6</ele><time>2026-05-02T16:44:44Z</time></trkpt><trkpt lat="43.45412944418177" lon="11.806161022611377"><ele>247.0</ele><time>2026-05-02T16:44:45Z</time></trkpt><trkpt lat="43.4542413326577" lon="11.806184579934426"><ele>247.0</ele><time>2026-05-02T16:44:46Z</time></trkpt><trkpt lat="43.45435438486315" lon="11.806210337785503"><ele>247.0</ele><time>2026-05-02T16:44:47Z</time></trkpt><trkpt lat="43.45446976284182" lon="11.80625460638133"><ele>247.0</ele><time>2026-05-02T16:44:48Z</time></trkpt><trkpt lat="43.45458661265623" lon="11.806347029460456"><ele>247.0</ele><time>2026-05-02T16:44:49Z</time></trkpt><trkpt lat="43.45472532967683" lon="11.806446426797553"><ele>247.33333333333331</ele><time>2026-05-02T16:44:50Z</time></trkpt><trkpt lat="43.45487702148365" lon="11.806562585357915"><ele>247.66666666666669</ele><time>2026-05-02T16:44:51.001Z</time></trkpt><trkpt lat="43.45503215658939" lon="11.806685429237998"><ele>248.0</ele><time>2026-05-02T16:44:52.001Z</time></trkpt><trkpt lat="43.45517313310692" lon="11.806799271628988"><ele>247.33333333333334</ele><time>2026-05-02T16:44:53.001Z</time></trkpt><trkpt lat="43.45531306588003" lon="11.806893563559292"><ele>246.66666666666669</ele><time>2026-05-02T16:44:54.001Z</time></trkpt><trkpt lat="43.45543624104571" lon="11.807010698475933"><ele>246.0</ele><time>2026-05-02T16:44:55.001Z</time></trkpt><trkpt lat="43.45555628284418" lon="11.807139326604396"><ele>246.0</ele><time>2026-05-02T16:44:56.001Z</time></trkpt><trkpt lat="43.455672637257365" lon="11.807280220940598"><ele>246.0</ele><time>2026-05-02T16:44:57.001Z</time></trkpt><trkpt lat="43.455776084585516" lon="11.807450442136028"><ele>246.0</ele><time>2026-05-02T16:44:58.001Z</time></trkpt><trkpt lat="43.4559062442211" lon="11.807630372716158"><ele>246.0</ele><time>2026-05-02T16:44:59.001Z</time></trkpt><trkpt lat="43.45608773897263" lon="11.807798003314096"><ele>246.0</ele><time>2026-05-02T16:45:00.001Z</time></trkpt><trkpt lat="43.45625260901316" lon="11.80801955730218"><ele>246.0</ele><time>2026-05-02T16:45:01.001Z</time></trkpt><trkpt lat="43.45640491511917" lon="11.808245933357687"><ele>246.0</ele><time>2026-05-02T16:45:02.001Z</time></trkpt><trkpt lat="43.456545215640595" lon="11.808464655173044"><ele>246.0</ele><time>2026-05-02T16:45:03.001Z</time></trkpt><trkpt lat="43.4566904037511" lon="11.808677593880311"><ele>246.0</ele><time>2026-05-02T16:45:04.001Z</time></trkpt><trkpt lat="43.45684276760642" lon="11.80888316864137"><ele>246.0</ele><time>2026-05-02T16:45:05.001Z</time></trkpt><trkpt lat="43.457007584004174" lon="11.809070326184415"><ele>246.0</ele><time>2026-05-02T16:45:06.001Z</time></trkpt><trkpt lat="43.45716774881351" lon="11.809246213358739"><ele>246.0</ele><time>2026-05-02T16:45:07Z</time></trkpt><trkpt lat="43.45731279476141" lon="11.809435402415703"><ele>246.0</ele><time>2026-05-02T16:45:08Z</time></trkpt><trkpt lat="43.45745038222936" lon="11.809632644527222"><ele>246.0</ele><time>2026-05-02T16:45:09Z</time></trkpt><trkpt lat="43.45757807759157" lon="11.809802325948493"><ele>246.0</ele><time>2026-05-02T16:45:10Z</time></trkpt><trkpt lat="43.45768239259639" lon="11.809959554948085"><ele>246.0</ele><time>2026-05-02T16:45:11Z</time></trkpt><trkpt lat="43.45778498571196" lon="11.81010730999771"><ele>246.0</ele><time>2026-05-02T16:45:12Z</time></trkpt><trkpt lat="43.45787968900143" lon="11.810246884607464"><ele>246.0</ele><time>2026-05-02T16:45:13Z</time></trkpt><trkpt lat="43.45796899961248" lon="11.810381936629765"><ele>246.0</ele><time>2026-05-02T16:45:14Z</time></trkpt><trkpt lat="43.458049849831895" lon="11.81050813338201"><ele>245.75</ele><time>2026-05-02T16:45:15Z</time></trkpt><trkpt lat="43.4581325912633" lon="11.810641733548875"><ele>245.5</ele><time>2026-05-02T16:45:16Z</time></trkpt><trkpt lat="43.458220038566395" lon="11.810800300786132"><ele>245.25</ele><time>2026-05-02T16:45:17Z</time></trkpt><trkpt lat="43.458296363849364" lon="11.810974673116792"><ele>245.0</ele><time>2026-05-02T16:45:18Z</time></trkpt><trkpt lat="43.45835616722407" lon="11.81116513902566"><ele>246.0</ele><time>2026-05-02T16:45:19Z</time></trkpt><trkpt lat="43.458409013496976" lon="11.811363641198945"><ele>247.0</ele><time>2026-05-02T16:45:20Z</time></trkpt><trkpt lat="43.458445471142106" lon="11.811567370661958"><ele>248.0</ele><time>2026-05-02T16:45:21Z</time></trkpt><trkpt lat="43.45849805461634" lon="11.811765725850682"><ele>248.25</ele><time>2026-05-02T16:45:22Z</time></trkpt><trkpt lat="43.45852067860446" lon="11.811977839044175"><ele>248.5</ele><time>2026-05-02T16:45:23Z</time></trkpt><trkpt lat="43.45854457675574" lon="11.812171737682673"><ele>248.75</ele><time>2026-05-02T16:45:24Z</time></trkpt><trkpt lat="43.458568483114654" lon="11.812361653373381"><ele>249.0</ele><time>2026-05-02T16:45:25Z</time></trkpt><trkpt lat="43.45858537613896" lon="11.812530849947905"><ele>248.5</ele><time>2026-05-02T16:45:26Z</time></trkpt><trkpt lat="43.458615457672785" lon="11.812748064370101"><ele>248.0</ele><time>2026-05-02T16:45:27Z</time></trkpt><trkpt lat="43.45864120662797" lon="11.81293477019889"><ele>247.5</ele><time>2026-05-02T16:45:28Z</time></trkpt><trkpt lat="43.45867047286363" lon="11.813113240506082"><ele>247.0</ele><time>2026-05-02T16:45:29Z</time></trkpt><trkpt lat="43.458701976507044" lon="11.813283577974316"><ele>247.0</ele><time>2026-05-02T16:45:30Z</time></trkpt><trkpt lat="43.458727426020346" lon="11.81345613383581"><ele>247.0</ele><time>2026-05-02T16:45:31Z</time></trkpt><trkpt lat="43.45874633215314" lon="11.813648127724129"><ele>247.0</ele><time>2026-05-02T16:45:32Z</time></trkpt><trkpt lat="43.45874670822842" lon="11.813846204649362"><ele>247.0</ele><time>2026-05-02T16:45:33Z</time></trkpt><trkpt lat="43.458769254171116" lon="11.814046160268758"><ele>246.75</ele><time>2026-05-02T16:45:34Z</time></trkpt><trkpt lat="43.45877190698013" lon="11.814252522993945"><ele>246.5</ele><time>2026-05-02T16:45:35Z</time></trkpt><trkpt lat="43.45878208141838" lon="11.814457330824569"><ele>246.25</ele><time>2026-05-02T16:45:36Z</time></trkpt><trkpt lat="43.45879799106693" lon="11.81464130364271"><ele>246.0</ele><time>2026-05-02T16:45:37Z</time></trkpt><trkpt lat="43.45881041923505" lon="11.814830342021144"><ele>246.75</ele><time>2026-05-02T16:45:38Z</time></trkpt><trkpt lat="43.45883629231541" lon="11.815009506115734"><ele>247.5</ele><time>2026-05-02T16:45:39Z</time></trkpt><trkpt lat="43.458878141259596" lon="11.815182360659495"><ele>248.25</ele><time>2026-05-02T16:45:40Z</time></trkpt><trkpt lat="43.45892506549851" lon="11.815349960204529"><ele>249.0</ele><time>2026-05-02T16:45:41Z</time></trkpt><trkpt lat="43.459000850052036" lon="11.815499311225182"><ele>249.0</ele><time>2026-05-02T16:45:42Z</time></trkpt><trkpt lat="43.459078123053814" lon="11.815677653736353"><ele>249.0</ele><time>2026-05-02T16:45:43Z</time></trkpt><trkpt lat="43.459150542893774" lon="11.815857185674787"><ele>249.0</ele><time>2026-05-02T16:45:44Z</time></trkpt><trkpt lat="43.459212816632196" lon="11.81604224690174"><ele>249.0</ele><time>2026-05-02T16:45:45.001Z</time></trkpt><trkpt lat="43.45924588694663" lon="11.81622843258584"><ele>248.75</ele><time>2026-05-02T16:45:46.001Z</time></trkpt><trkpt lat="43.459282544858375" lon="11.816402902099092"><ele>248.5</ele><time>2026-05-02T16:45:47.001Z</time></trkpt><trkpt lat="43.45933705134918" lon="11.816570673821339"><ele>248.25</ele><time>2026-05-02T16:45:48.001Z</time></trkpt><trkpt lat="43.459371312894476" lon="11.816737010016862"><ele>248.0</ele><time>2026-05-02T16:45:49.001Z</time></trkpt><trkpt lat="43.459409482597124" lon="11.81688856881364"><ele>247.66666666666669</ele><time>2026-05-02T16:45:50.001Z</time></trkpt><trkpt lat="43.45944199835945" lon="11.817026873240511"><ele>247.33333333333334</ele><time>2026-05-02T16:45:51.001Z</time></trkpt><trkpt lat="43.459477298446906" lon="11.817158152645892"><ele>247.0</ele><time>2026-05-02T16:45:52.001Z</time></trkpt><trkpt lat="43.45950825555757" lon="11.817261550554893"><ele>246.66666666666669</ele><time>2026-05-02T16:45:53.001Z</time></trkpt><trkpt lat="43.45954019773127" lon="11.817355760472537"><ele>246.33333333333334</ele><time>2026-05-02T16:45:54.001Z</time></trkpt><trkpt lat="43.45955263402979" lon="11.817446995993572"><ele>246.0</ele><time>2026-05-02T16:45:55.001Z</time></trkpt><trkpt lat="43.459539704546856" lon="11.817548919307477"><ele>246.0</ele><time>2026-05-02T16:45:56.001Z</time></trkpt><trkpt lat="43.459485523742394" lon="11.817637165799344"><ele>246.0</ele><time>2026-05-02T16:45:57.001Z</time></trkpt><trkpt lat="43.459403984561725" lon="11.81773906529239"><ele>246.0</ele><time>2026-05-02T16:45:58.001Z</time></trkpt><trkpt lat="43.459297185147335" lon="11.817817418186996"><ele>246.0</ele><time>2026-05-02T16:45:59.001Z</time></trkpt><trkpt lat="43.45915867252479" lon="11.817874865018084"><ele>245.25</ele><time>2026-05-02T16:46:00.001Z</time></trkpt><trkpt lat="43.4590087349727" lon="11.8179295020087"><ele>244.5</ele><time>2026-05-02T16:46:01.001Z</time></trkpt><trkpt lat="43.45889806287926" lon="11.817999358007395"><ele>243.75</ele><time>2026-05-02T16:46:02.001Z</time></trkpt><trkpt lat="43.45878634588268" lon="11.818042774733687"><ele>243.0</ele><time>2026-05-02T16:46:03.001Z</time></trkpt><trkpt lat="43.45866913912087" lon="11.818021231439968"><ele>243.0</ele><time>2026-05-02T16:46:04.001Z</time></trkpt><trkpt lat="43.458553636031674" lon="11.817931310424594"><ele>243.0</ele><time>2026-05-02T16:46:05.001Z</time></trkpt><trkpt lat="43.45845420822576" lon="11.817801673228963"><ele>243.0</ele><time>2026-05-02T16:46:06.001Z</time></trkpt><trkpt lat="43.458358362664086" lon="11.817658371000158"><ele>243.0</ele><time>2026-05-02T16:46:07.001Z</time></trkpt><trkpt lat="43.45829430138528" lon="11.817505317324184"><ele>243.5</ele><time>2026-05-02T16:46:08.001Z</time></trkpt><trkpt lat="43.45826305594548" lon="11.817339759939856"><ele>244.0</ele><time>2026-05-02T16:46:09.001Z</time></trkpt><trkpt lat="43.45825516244953" lon="11.8171572462155"><ele>244.5</ele><time>2026-05-02T16:46:10.001Z</time></trkpt><trkpt lat="43.458276002240986" lon="11.816973560855692"><ele>245.0</ele><time>2026-05-02T16:46:11.001Z</time></trkpt><trkpt lat="43.4583152050819" lon="11.81682437588931"><ele>245.00000000000003</ele><time>2026-05-02T16:46:12.001Z</time></trkpt><trkpt lat="43.45836791273983" lon="11.816707687173464"><ele>245.0</ele><time>2026-05-02T16:46:13.001Z</time></trkpt><trkpt lat="43.4584433406754" lon="11.816638791094272"><ele>245.0</ele><time>2026-05-02T16:46:14.001Z</time></trkpt><trkpt lat="43.45852201961036" lon="11.816623465266733"><ele>245.0</ele><time>2026-05-02T16:46:15.001Z</time></trkpt><trkpt lat="43.45859367373511" lon="11.816645475088615"><ele>245.00000000000003</ele><time>2026-05-02T16:46:16.001Z</time></trkpt><trkpt lat="43.45864340515977" lon="11.816717232788328"><ele>245.0</ele><time>2026-05-02T16:46:17.001Z</time></trkpt><trkpt lat="43.458682031685406" lon="11.816819832923647"><ele>245.0</ele><time>2026-05-02T16:46:18.001Z</time></trkpt><trkpt lat="43.45875015931149" lon="11.816923538645707"><ele>245.0</ele><time>2026-05-02T16:46:19.001Z</time></trkpt><trkpt lat="43.45876080323086" lon="11.817126797080752"><ele>245.0</ele><time>2026-05-02T16:46:20.001Z</time></trkpt><trkpt lat="43.45881420568514" lon="11.817298515046794"><ele>245.0</ele><time>2026-05-02T16:46:21.001Z</time></trkpt><trkpt lat="43.4588749460033" lon="11.817484991147097"><ele>244.33333333333334</ele><time>2026-05-02T16:46:22.001Z</time></trkpt><trkpt lat="43.45893857327878" lon="11.817686644581652"><ele>243.66666666666669</ele><time>2026-05-02T16:46:23.001Z</time></trkpt><trkpt lat="43.459007869066276" lon="11.81789936373087"><ele>243.0</ele><time>2026-05-02T16:46:24.001Z</time></trkpt><trkpt lat="43.459084634314245" lon="11.81813154750134"><ele>243.0</ele><time>2026-05-02T16:46:25.001Z</time></trkpt><trkpt lat="43.459156479327135" lon="11.81837126210104"><ele>243.0</ele><time>2026-05-02T16:46:26.001Z</time></trkpt><trkpt lat="43.45922126744883" lon="11.818599604390956"><ele>243.0</ele><time>2026-05-02T16:46:27.001Z</time></trkpt><trkpt lat="43.45928713298371" lon="11.818826539409331"><ele>242.0</ele><time>2026-05-02T16:46:28.001Z</time></trkpt><trkpt lat="43.459353798026974" lon="11.819065047127257"><ele>241.0</ele><time>2026-05-02T16:46:29.001Z</time></trkpt><trkpt lat="43.45942639785531" lon="11.819315906264924"><ele>240.0</ele><time>2026-05-02T16:46:30.001Z</time></trkpt><trkpt lat="43.459490353467764" lon="11.819570913796841"><ele>240.0</ele><time>2026-05-02T16:46:31.001Z</time></trkpt><trkpt lat="43.459554553251536" lon="11.8198066937275"><ele>240.0</ele><time>2026-05-02T16:46:32.001Z</time></trkpt><trkpt lat="43.45962006503474" lon="11.820030704144168"><ele>240.0</ele><time>2026-05-02T16:46:33.001Z</time></trkpt><trkpt lat="43.45968158463811" lon="11.820239993197022"><ele>241.0</ele><time>2026-05-02T16:46:34.001Z</time></trkpt><trkpt lat="43.459742377496795" lon="11.820459054970053"><ele>242.0</ele><time>2026-05-02T16:46:35.001Z</time></trkpt><trkpt lat="43.45980434531151" lon="11.820689650328092"><ele>243.0</ele><time>2026-05-02T16:46:36.001Z</time></trkpt><trkpt lat="43.459867248859254" lon="11.820927888723968"><ele>243.66666666666669</ele><time>2026-05-02T16:46:37.001Z</time></trkpt><trkpt lat="43.45993008337657" lon="11.821161357650196"><ele>244.33333333333334</ele><time>2026-05-02T16:46:38.001Z</time></trkpt><trkpt lat="43.459988763038375" lon="11.821378472721037"><ele>245.0</ele><time>2026-05-02T16:46:39.001Z</time></trkpt><trkpt lat="43.460047194533274" lon="11.821594115713886"><ele>244.66666666666669</ele><time>2026-05-02T16:46:40.001Z</time></trkpt><trkpt lat="43.460105287807515" lon="11.821816434369662"><ele>244.33333333333331</ele><time>2026-05-02T16:46:41.001Z</time></trkpt><trkpt lat="43.46016189696004" lon="11.822044520387822"><ele>244.0</ele><time>2026-05-02T16:46:42.001Z</time></trkpt><trkpt lat="43.46022183005447" lon="11.82228778845887"><ele>244.0</ele><time>2026-05-02T16:46:43.001Z</time></trkpt><trkpt lat="43.46028134951631" lon="11.822544209663382"><ele>244.0</ele><time>2026-05-02T16:46:44.001Z</time></trkpt><trkpt lat="43.46034089708121" lon="11.822810109966674"><ele>244.0</ele><time>2026-05-02T16:46:45.001Z</time></trkpt><trkpt lat="43.460401787734604" lon="11.823080846333568"><ele>244.33333333333331</ele><time>2026-05-02T16:46:46.001Z</time></trkpt><trkpt lat="43.460462975642834" lon="11.823354064466045"><ele>244.66666666666669</ele><time>2026-05-02T16:46:47.001Z</time></trkpt><trkpt lat="43.460517349225285" lon="11.823617792741864"><ele>245.0</ele><time>2026-05-02T16:46:48.001Z</time></trkpt><trkpt lat="43.460567438916954" lon="11.823860325840103"><ele>245.0</ele><time>2026-05-02T16:46:49.001Z</time></trkpt><trkpt lat="43.46061449579889" lon="11.824123243074855"><ele>245.0</ele><time>2026-05-02T16:46:50.001Z</time></trkpt><trkpt lat="43.46065939137017" lon="11.824383899949193"><ele>245.0</ele><time>2026-05-02T16:46:51.001Z</time></trkpt><trkpt lat="43.4607108599066" lon="11.824643937150045"><ele>245.33333333333334</ele><time>2026-05-02T16:46:52.001Z</time></trkpt><trkpt lat="43.46076084819517" lon="11.824908859687307"><ele>245.66666666666669</ele><time>2026-05-02T16:46:53.001Z</time></trkpt><trkpt lat="43.46080054285749" lon="11.82517504088079"><ele>246.0</ele><time>2026-05-02T16:46:54.001Z</time></trkpt><trkpt lat="43.46084122485519" lon="11.825428948729435"><ele>246.0</ele><time>2026-05-02T16:46:55.001Z</time></trkpt><trkpt lat="43.460876978439096" lon="11.825669814557747"><ele>246.0</ele><time>2026-05-02T16:46:56.001Z</time></trkpt><trkpt lat="43.46091312211329" lon="11.825911839317598"><ele>246.0</ele><time>2026-05-02T16:46:57.001Z</time></trkpt><trkpt lat="43.4609495000911" lon="11.826162224183413"><ele>245.33333333333331</ele><time>2026-05-02T16:46:58.001Z</time></trkpt><trkpt lat="43.46097793723894" lon="11.826398703358363"><ele>244.66666666666666</ele><time>2026-05-02T16:46:59.001Z</time></trkpt><trkpt lat="43.46100068103157" lon="11.826627521521328"><ele>244.0</ele><time>2026-05-02T16:47:00.001Z</time></trkpt><trkpt lat="43.46102901725812" lon="11.826862028987506"><ele>244.0</ele><time>2026-05-02T16:47:01.001Z</time></trkpt><trkpt lat="43.461060633785486" lon="11.82708825211445"><ele>244.0</ele><time>2026-05-02T16:47:02.001Z</time></trkpt><trkpt lat="43.46108919047655" lon="11.827321201438155"><ele>244.0</ele><time>2026-05-02T16:47:03.001Z</time></trkpt><trkpt lat="43.46110980038292" lon="11.827551772258815"><ele>244.33333333333331</ele><time>2026-05-02T16:47:04.001Z</time></trkpt><trkpt lat="43.46113002764956" lon="11.827789456597312"><ele>244.66666666666669</ele><time>2026-05-02T16:47:05.001Z</time></trkpt><trkpt lat="43.46115288509426" lon="11.828033665314122"><ele>245.0</ele><time>2026-05-02T16:47:06.001Z</time></trkpt><trkpt lat="43.46117160034287" lon="11.828276167669772"><ele>244.33333333333334</ele><time>2026-05-02T16:47:07.001Z</time></trkpt><trkpt lat="43.46119818921916" lon="11.828525563990823"><ele>243.66666666666669</ele><time>2026-05-02T16:47:08.001Z</time></trkpt><trkpt lat="43.46122106656366" lon="11.82877134192299"><ele>243.0</ele><time>2026-05-02T16:47:09.001Z</time></trkpt><trkpt lat="43.46124492915485" lon="11.829019826371619"><ele>243.0</ele><time>2026-05-02T16:47:10.001Z</time></trkpt><trkpt lat="43.46126846279563" lon="11.829277650092168"><ele>243.0</ele><time>2026-05-02T16:47:11.001Z</time></trkpt><trkpt lat="43.46129110033864" lon="11.829530141186904"><ele>243.0</ele><time>2026-05-02T16:47:12.001Z</time></trkpt><trkpt lat="43.46131523305349" lon="11.829773065453542"><ele>243.33333333333331</ele><time>2026-05-02T16:47:13Z</time></trkpt><trkpt lat="43.46133874646572" lon="11.830010228688217"><ele>243.66666666666666</ele><time>2026-05-02T16:47:14Z</time></trkpt><trkpt lat="43.46135835868879" lon="11.830247704866668"><ele>244.0</ele><time>2026-05-02T16:47:15Z</time></trkpt><trkpt lat="43.46138170468124" lon="11.830487446125785"><ele>244.33333333333331</ele><time>2026-05-02T16:47:16Z</time></trkpt><trkpt lat="43.461403391758076" lon="11.830736316526016"><ele>244.66666666666669</ele><time>2026-05-02T16:47:17Z</time></trkpt><trkpt lat="43.461428785811364" lon="11.830990674922598"><ele>245.0</ele><time>2026-05-02T16:47:18Z</time></trkpt><trkpt lat="43.461453713119866" lon="11.831247160647315"><ele>245.0</ele><time>2026-05-02T16:47:19Z</time></trkpt><trkpt lat="43.46148186787334" lon="11.831505536378012"><ele>245.0</ele><time>2026-05-02T16:47:20Z</time></trkpt><trkpt lat="43.46150986978904" lon="11.831772570973499"><ele>245.0</ele><time>2026-05-02T16:47:21Z</time></trkpt><trkpt lat="43.461537923122606" lon="11.832041313473884"><ele>244.66666666666669</ele><time>2026-05-02T16:47:22Z</time></trkpt><trkpt lat="43.46156682186821" lon="11.83231412421969"><ele>244.33333333333331</ele><time>2026-05-02T16:47:23Z</time></trkpt><trkpt lat="43.46159639257877" lon="11.832578833887926"><ele>244.0</ele><time>2026-05-02T16:47:24Z</time></trkpt><trkpt lat="43.46162259056499" lon="11.832830880334757"><ele>243.66666666666666</ele><time>2026-05-02T16:47:25Z</time></trkpt><trkpt lat="43.46164975636012" lon="11.833091554667874"><ele>243.33333333333331</ele><time>2026-05-02T16:47:26Z</time></trkpt><trkpt lat="43.46167975288696" lon="11.833359011723655"><ele>243.0</ele><time>2026-05-02T16:47:27Z</time></trkpt><trkpt lat="43.46171048559286" lon="11.833633262202893"><ele>243.0</ele><time>2026-05-02T16:47:28Z</time></trkpt><trkpt lat="43.461743013965204" lon="11.83391258128962"><ele>243.0</ele><time>2026-05-02T16:47:29Z</time></trkpt><trkpt lat="43.461772915072466" lon="11.834190804028355"><ele>243.0</ele><time>2026-05-02T16:47:30Z</time></trkpt><trkpt lat="43.461803182169184" lon="11.834460020143343"><ele>243.66666666666669</ele><time>2026-05-02T16:47:31Z</time></trkpt><trkpt lat="43.46183766012217" lon="11.834727371354553"><ele>244.33333333333334</ele><time>2026-05-02T16:47:32Z</time></trkpt><trkpt lat="43.46187954707876" lon="11.834998071456399"><ele>245.0</ele><time>2026-05-02T16:47:33Z</time></trkpt><trkpt lat="43.461934153504224" lon="11.835267506004325"><ele>245.0</ele><time>2026-05-02T16:47:34Z</time></trkpt><trkpt lat="43.46200008980566" lon="11.835534058390605"><ele>245.0</ele><time>2026-05-02T16:47:35Z</time></trkpt><trkpt lat="43.46208105396266" lon="11.835794733154671"><ele>245.0</ele><time>2026-05-02T16:47:36Z</time></trkpt><trkpt lat="43.462163076317296" lon="11.836031739163909"><ele>245.0</ele><time>2026-05-02T16:47:37Z</time></trkpt><trkpt lat="43.462265348314325" lon="11.836261266383389"><ele>245.0</ele><time>2026-05-02T16:47:38Z</time></trkpt><trkpt lat="43.46236595158661" lon="11.836473522303729"><ele>245.0</ele><time>2026-05-02T16:47:39Z</time></trkpt><trkpt lat="43.46246835757495" lon="11.836668233476338"><ele>245.66666666666669</ele><time>2026-05-02T16:47:40Z</time></trkpt><trkpt lat="43.462580630902124" lon="11.836862319018444"><ele>246.33333333333331</ele><time>2026-05-02T16:47:41Z</time></trkpt><trkpt lat="43.4626989944438" lon="11.837046043734889"><ele>247.0</ele><time>2026-05-02T16:47:42Z</time></trkpt><trkpt lat="43.462820308462426" lon="11.837230089515504"><ele>247.0</ele><time>2026-05-02T16:47:43Z</time></trkpt><trkpt lat="43.462944231169025" lon="11.837409978916101"><ele>247.0</ele><time>2026-05-02T16:47:44Z</time></trkpt><trkpt lat="43.46307513151026" lon="11.83757871913729"><ele>247.0</ele><time>2026-05-02T16:47:45Z</time></trkpt><trkpt lat="43.46320376292226" lon="11.837728745738323"><ele>247.33333333333331</ele><time>2026-05-02T16:47:46Z</time></trkpt><trkpt lat="43.46333215444561" lon="11.83786782144441"><ele>247.66666666666669</ele><time>2026-05-02T16:47:47Z</time></trkpt><trkpt lat="43.4634652587197" lon="11.838000554956155"><ele>248.0</ele><time>2026-05-02T16:47:48Z</time></trkpt><trkpt lat="43.46359986840585" lon="11.838126259890958"><ele>248.0</ele><time>2026-05-02T16:47:49Z</time></trkpt><trkpt lat="43.463726193394216" lon="11.838239265608978"><ele>248.0</ele><time>2026-05-02T16:47:50Z</time></trkpt><trkpt lat="43.46385891906071" lon="11.838353585414431"><ele>248.0</ele><time>2026-05-02T16:47:51Z</time></trkpt><trkpt lat="43.463999912443526" lon="11.838468772916588"><ele>247.33333333333334</ele><time>2026-05-02T16:47:52Z</time></trkpt><trkpt lat="43.46414640875173" lon="11.838590275959017"><ele>246.66666666666669</ele><time>2026-05-02T16:47:53Z</time></trkpt><trkpt lat="43.464298361579885" lon="11.83871865575866"><ele>246.0</ele><time>2026-05-02T16:47:54.001Z</time></trkpt><trkpt lat="43.46445366376914" lon="11.838851154053556"><ele>246.0</ele><time>2026-05-02T16:47:55.001Z</time></trkpt><trkpt lat="43.464610852100776" lon="11.838987979416762"><ele>246.0</ele><time>2026-05-02T16:47:56.001Z</time></trkpt><trkpt lat="43.4647659105409" lon="11.839122377425797"><ele>246.0</ele><time>2026-05-02T16:47:57.001Z</time></trkpt><trkpt lat="43.46491744504874" lon="11.83924776172229"><ele>245.33333333333331</ele><time>2026-05-02T16:47:58.001Z</time></trkpt><trkpt lat="43.46506822073917" lon="11.83936769129112"><ele>244.66666666666666</ele><time>2026-05-02T16:47:59.001Z</time></trkpt><trkpt lat="43.46521767115219" lon="11.839495234706696"><ele>244.0</ele><time>2026-05-02T16:48:00.001Z</time></trkpt><trkpt lat="43.46537158413316" lon="11.839626740705102"><ele>244.0</ele><time>2026-05-02T16:48:01.001Z</time></trkpt><trkpt lat="43.46552760810332" lon="11.839759319422226"><ele>244.0</ele><time>2026-05-02T16:48:02.001Z</time></trkpt><trkpt lat="43.465687037298096" lon="11.839892202166114"><ele>244.0</ele><time>2026-05-02T16:48:03.001Z</time></trkpt><trkpt lat="43.46584944827152" lon="11.840026025007765"><ele>244.66666666666666</ele><time>2026-05-02T16:48:04.001Z</time></trkpt><trkpt lat="43.46601458948703" lon="11.840162285485201"><ele>245.33333333333331</ele><time>2026-05-02T16:48:05.001Z</time></trkpt><trkpt lat="43.46617674739393" lon="11.840304734108683"><ele>246.0</ele><time>2026-05-02T16:48:06.001Z</time></trkpt><trkpt lat="43.46633530390882" lon="11.840453586233487"><ele>246.33333333333331</ele><time>2026-05-02T16:48:07.001Z</time></trkpt><trkpt lat="43.46649077329178" lon="11.840608306367038"><ele>246.66666666666666</ele><time>2026-05-02T16:48:08.001Z</time></trkpt><trkpt lat="43.46663553316089" lon="11.84077066345272"><ele>247.0</ele><time>2026-05-02T16:48:09.001Z</time></trkpt><trkpt lat="43.466768364009226" lon="11.84093555200816"><ele>247.33333333333331</ele><time>2026-05-02T16:48:10.001Z</time></trkpt><trkpt lat="43.4668906492584" lon="11.841089638137294"><ele>247.66666666666669</ele><time>2026-05-02T16:48:11.001Z</time></trkpt><trkpt lat="43.46699755761243" lon="11.841231903045752"><ele>248.0</ele><time>2026-05-02T16:48:12.001Z</time></trkpt><trkpt lat="43.467083202295925" lon="11.841379810991144"><ele>248.0</ele><time>2026-05-02T16:48:13.001Z</time></trkpt><trkpt lat="43.46714073640424" lon="11.841547290237894"><ele>248.0</ele><time>2026-05-02T16:48:14.001Z</time></trkpt><trkpt lat="43.4671662763319" lon="11.841733249200614"><ele>248.0</ele><time>2026-05-02T16:48:15.001Z</time></trkpt><trkpt lat="43.46714602046396" lon="11.841932911785227"><ele>248.0</ele><time>2026-05-02T16:48:16.001Z</time></trkpt><trkpt lat="43.46711986828254" lon="11.842148523271163"><ele>248.0</ele><time>2026-05-02T16:48:17.001Z</time></trkpt><trkpt lat="43.46709194734302" lon="11.84236501523399"><ele>248.0</ele><time>2026-05-02T16:48:18.001Z</time></trkpt><trkpt lat="43.467078404314805" lon="11.842555866994397"><ele>248.0</ele><time>2026-05-02T16:48:19.001Z</time></trkpt><trkpt lat="43.46706771481583" lon="11.842724815690687"><ele>248.0</ele><time>2026-05-02T16:48:20.001Z</time></trkpt><trkpt lat="43.46707922381903" lon="11.842884993098668"><ele>247.60000000000002</ele><time>2026-05-02T16:48:21.001Z</time></trkpt><trkpt lat="43.46711084122138" lon="11.84303187265876"><ele>247.20000000000002</ele><time>2026-05-02T16:48:22.001Z</time></trkpt><trkpt lat="43.467159969340706" lon="11.843153036176513"><ele>246.8</ele><time>2026-05-02T16:48:23.001Z</time></trkpt><trkpt lat="43.46721459421322" lon="11.843257633851064"><ele>246.4</ele><time>2026-05-02T16:48:24.001Z</time></trkpt><trkpt lat="43.46726692414446" lon="11.843322769983233"><ele>246.0</ele><time>2026-05-02T16:48:25.001Z</time></trkpt><trkpt lat="43.467298604827405" lon="11.84341932777173"><ele>246.0</ele><time>2026-05-02T16:48:27.001Z</time></trkpt><trkpt lat="43.467338306339094" lon="11.843508447698305"><ele>246.0</ele><time>2026-05-02T16:48:30.001Z</time></trkpt><trkpt lat="43.46748552749694" lon="11.843407965596764"><ele>246.0</ele><time>2026-05-02T16:48:31.001Z</time></trkpt><trkpt lat="43.46758741702871" lon="11.843315305306193"><ele>246.0</ele><time>2026-05-02T16:48:32.001Z</time></trkpt><trkpt lat="43.46770694912744" lon="11.84319842965323"><ele>246.0</ele><time>2026-05-02T16:48:33.001Z</time></trkpt><trkpt lat="43.46784269623055" lon="11.843090126217682"><ele>246.0</ele><time>2026-05-02T16:48:34.001Z</time></trkpt><trkpt lat="43.46798440283281" lon="11.842964670889998"><ele>246.0</ele><time>2026-05-02T16:48:35.001Z</time></trkpt><trkpt lat="43.46814058069522" lon="11.842855689664205"><ele>246.33333333333331</ele><time>2026-05-02T16:48:36.001Z</time></trkpt><trkpt lat="43.4682803885326" lon="11.842720987933989"><ele>246.66666666666666</ele><time>2026-05-02T16:48:37.001Z</time></trkpt><trkpt lat="43.46841453701093" lon="11.842619297601283"><ele>247.0</ele><time>2026-05-02T16:48:38.001Z</time></trkpt><trkpt lat="43.468523846362196" lon="11.842496011479502"><ele>247.0</ele><time>2026-05-02T16:48:39.001Z</time></trkpt><trkpt lat="43.46863407132856" lon="11.842395807586676"><ele>247.0</ele><time>2026-05-02T16:48:40.001Z</time></trkpt><trkpt lat="43.46874960130378" lon="11.842297361135849"><ele>247.0</ele><time>2026-05-02T16:48:41.001Z</time></trkpt><trkpt lat="43.46888162628656" lon="11.842187235679527"><ele>247.0</ele><time>2026-05-02T16:48:42.001Z</time></trkpt><trkpt lat="43.46901525669234" lon="11.842069231461796"><ele>247.25</ele><time>2026-05-02T16:48:43.001Z</time></trkpt><trkpt lat="43.46913392871891" lon="11.841958041743137"><ele>247.5</ele><time>2026-05-02T16:48:44.001Z</time></trkpt><trkpt lat="43.46924424207581" lon="11.84185440433419"><ele>247.75</ele><time>2026-05-02T16:48:45.001Z</time></trkpt><trkpt lat="43.469350994282166" lon="11.841759584463846"><ele>248.0</ele><time>2026-05-02T16:48:46.001Z</time></trkpt><trkpt lat="43.46944961428066" lon="11.841673185156255"><ele>247.8</ele><time>2026-05-02T16:48:47.001Z</time></trkpt><trkpt lat="43.469541260665174" lon="11.841592945645642"><ele>247.60000000000002</ele><time>2026-05-02T16:48:48.001Z</time></trkpt><trkpt lat="43.46962593888598" lon="11.841517342566528"><ele>247.39999999999998</ele><time>2026-05-02T16:48:49.001Z</time></trkpt><trkpt lat="43.46970733061399" lon="11.841442814285442"><ele>247.2</ele><time>2026-05-02T16:48:50.001Z</time></trkpt><trkpt lat="43.46979064362603" lon="11.84137129599862"><ele>247.0</ele><time>2026-05-02T16:48:51.001Z</time></trkpt><trkpt lat="43.4698698709874" lon="11.841308745072581"><ele>246.99999999999997</ele><time>2026-05-02T16:48:52.001Z</time></trkpt><trkpt lat="43.46994726504016" lon="11.841266042591418"><ele>247.0</ele><time>2026-05-02T16:48:53.001Z</time></trkpt><trkpt lat="43.470023769695366" lon="11.841257329194914"><ele>247.0</ele><time>2026-05-02T16:48:54.001Z</time></trkpt><trkpt lat="43.47009744614318" lon="11.841275998269891"><ele>247.0</ele><time>2026-05-02T16:48:55.001Z</time></trkpt><trkpt lat="43.470176837367895" lon="11.841331082307551"><ele>246.99999999999997</ele><time>2026-05-02T16:48:56.001Z</time></trkpt><trkpt lat="43.47025512529223" lon="11.84142459939506"><ele>247.0</ele><time>2026-05-02T16:48:57.001Z</time></trkpt><trkpt lat="43.47033067311894" lon="11.841570425468992"><ele>247.0</ele><time>2026-05-02T16:48:58.001Z</time></trkpt><trkpt lat="43.47040430335263" lon="11.84173593724729"><ele>247.0</ele><time>2026-05-02T16:48:59.001Z</time></trkpt><trkpt lat="43.47048251509048" lon="11.841900771427397"><ele>247.0</ele><time>2026-05-02T16:49:00.001Z</time></trkpt><trkpt lat="43.47055442829919" lon="11.842051003506247"><ele>247.0</ele><time>2026-05-02T16:49:01.001Z</time></trkpt><trkpt lat="43.47061708782823" lon="11.842201645145135"><ele>247.0</ele><time>2026-05-02T16:49:02.001Z</time></trkpt><trkpt lat="43.470683330991356" lon="11.842366888037894"><ele>247.0</ele><time>2026-05-02T16:49:03.001Z</time></trkpt><trkpt lat="43.47076646209246" lon="11.8425456236861"><ele>247.0</ele><time>2026-05-02T16:49:04.001Z</time></trkpt><trkpt lat="43.47083524670426" lon="11.842729103225624"><ele>247.0</ele><time>2026-05-02T16:49:05.001Z</time></trkpt><trkpt lat="43.470901962231316" lon="11.842887996668866"><ele>246.75</ele><time>2026-05-02T16:49:06.001Z</time></trkpt><trkpt lat="43.47096108600859" lon="11.843031360818394"><ele>246.5</ele><time>2026-05-02T16:49:07.001Z</time></trkpt><trkpt lat="43.47102089835304" lon="11.843172576719418"><ele>246.25</ele><time>2026-05-02T16:49:08.001Z</time></trkpt><trkpt lat="43.471080578573776" lon="11.843340547737665"><ele>246.0</ele><time>2026-05-02T16:49:09.001Z</time></trkpt><trkpt lat="43.47114579900646" lon="11.84350017166955"><ele>246.0</ele><time>2026-05-02T16:49:10.001Z</time></trkpt><trkpt lat="43.47122337167898" lon="11.84362021469982"><ele>246.0</ele><time>2026-05-02T16:49:11.001Z</time></trkpt><trkpt lat="43.471296724929765" lon="11.84374413308352"><ele>246.0</ele><time>2026-05-02T16:49:12.001Z</time></trkpt><trkpt lat="43.47138785666189" lon="11.843882617740292"><ele>246.0</ele><time>2026-05-02T16:49:13.001Z</time></trkpt><trkpt lat="43.47150062067602" lon="11.844004746333207"><ele>246.0</ele><time>2026-05-02T16:49:14.001Z</time></trkpt><trkpt lat="43.471630802578055" lon="11.844098745725903"><ele>246.0</ele><time>2026-05-02T16:49:15.001Z</time></trkpt><trkpt lat="43.47175982615623" lon="11.844170845704301"><ele>246.0</ele><time>2026-05-02T16:49:16.001Z</time></trkpt><trkpt lat="43.47190046599532" lon="11.844237087381673"><ele>246.0</ele><time>2026-05-02T16:49:17.001Z</time></trkpt><trkpt lat="43.47202844954069" lon="11.844278475392967"><ele>246.25</ele><time>2026-05-02T16:49:18Z</time></trkpt><trkpt lat="43.47215856095227" lon="11.84427160797767"><ele>246.5</ele><time>2026-05-02T16:49:19Z</time></trkpt><trkpt lat="43.4722988745948" lon="11.844385138260423"><ele>246.75</ele><time>2026-05-02T16:49:20Z</time></trkpt><trkpt lat="43.472446818071674" lon="11.844435660624978"><ele>247.0</ele><time>2026-05-02T16:49:21Z</time></trkpt><trkpt lat="43.47257735645871" lon="11.844483612964329"><ele>247.0</ele><time>2026-05-02T16:49:22Z</time></trkpt><trkpt lat="43.47271333627234" lon="11.844510540693486"><ele>247.0</ele><time>2026-05-02T16:49:23Z</time></trkpt><trkpt lat="43.47283557796725" lon="11.844561936513772"><ele>247.0</ele><time>2026-05-02T16:49:24Z</time></trkpt><trkpt lat="43.47295021511688" lon="11.844593842329326"><ele>247.0</ele><time>2026-05-02T16:49:25Z</time></trkpt><trkpt lat="43.47305434986395" lon="11.844636264179337"><ele>246.83333333333331</ele><time>2026-05-02T16:49:26Z</time></trkpt><trkpt lat="43.47315076177067" lon="11.844674533679436"><ele>246.66666666666666</ele><time>2026-05-02T16:49:27Z</time></trkpt><trkpt lat="43.473240606917805" lon="11.844706170422125"><ele>246.5</ele><time>2026-05-02T16:49:28Z</time></trkpt><trkpt lat="43.4733210644032" lon="11.844735904373161"><ele>246.33333333333331</ele><time>2026-05-02T16:49:29Z</time></trkpt><trkpt lat="43.47339657676676" lon="11.844762670996946"><ele>246.16666666666666</ele><time>2026-05-02T16:49:30Z</time></trkpt><trkpt lat="43.47346622740449" lon="11.844788747595086"><ele>246.0</ele><time>2026-05-02T16:49:31Z</time></trkpt><trkpt lat="43.47353336359003" lon="11.84481313233086"><ele>246.0</ele><time>2026-05-02T16:49:32Z</time></trkpt><trkpt lat="43.47363512292371" lon="11.844843113743003"><ele>246.00000000000003</ele><time>2026-05-02T16:49:34Z</time></trkpt><trkpt lat="43.47371109413934" lon="11.844870246971501"><ele>246.00000000000003</ele><time>2026-05-02T16:49:36Z</time></trkpt><trkpt lat="43.47379056001795" lon="11.844900558922024"><ele>246.0</ele><time>2026-05-02T16:49:39Z</time></trkpt><trkpt lat="43.47387954724174" lon="11.84492599500039"><ele>246.0</ele><time>2026-05-02T16:50:21.001Z</time></trkpt><trkpt lat="43.473998802041194" lon="11.844969965792849"><ele>246.0</ele><time>2026-05-02T16:50:23.001Z</time></trkpt><trkpt lat="43.47406257411389" lon="11.844993435861438"><ele>246.0</ele><time>2026-05-02T16:50:24.001Z</time></trkpt><trkpt lat="43.47413547107627" lon="11.845018125124449"><ele>246.0</ele><time>2026-05-02T16:50:25.001Z</time></trkpt><trkpt lat="43.474213531121926" lon="11.845044384551912"><ele>246.0</ele><time>2026-05-02T16:50:26.001Z</time></trkpt><trkpt lat="43.47428880105429" lon="11.84506994052565"><ele>246.0</ele><time>2026-05-02T16:50:27.001Z</time></trkpt><trkpt lat="43.474384208495565" lon="11.84509442702682"><ele>246.0</ele><time>2026-05-02T16:50:28.001Z</time></trkpt><trkpt lat="43.474474786906825" lon="11.845112804847856"><ele>246.0</ele><time>2026-05-02T16:50:29.001Z</time></trkpt><trkpt lat="43.47456858124486" lon="11.845124390568163"><ele>246.0</ele><time>2026-05-02T16:50:30.001Z</time></trkpt><trkpt lat="43.474656670611765" lon="11.845166019676"><ele>246.0</ele><time>2026-05-02T16:50:31.001Z</time></trkpt><trkpt lat="43.47475225143918" lon="11.845175727444438"><ele>246.0</ele><time>2026-05-02T16:50:32.001Z</time></trkpt><trkpt lat="43.47483862317304" lon="11.845182983370087"><ele>246.0</ele><time>2026-05-02T16:50:33.001Z</time></trkpt><trkpt lat="43.47491549407435" lon="11.8451878249608"><ele>246.0</ele><time>2026-05-02T16:50:34.001Z</time></trkpt><trkpt lat="43.47499129350972" lon="11.84519259907485"><ele>245.5</ele><time>2026-05-02T16:50:35.001Z</time></trkpt><trkpt lat="43.47506832728277" lon="11.845197450923168"><ele>245.0</ele><time>2026-05-02T16:50:36.001Z</time></trkpt><trkpt lat="43.47514939303091" lon="11.845202556719746"><ele>244.5</ele><time>2026-05-02T16:50:37.001Z</time></trkpt><trkpt lat="43.47523660166348" lon="11.845208899326302"><ele>244.0</ele><time>2026-05-02T16:50:38.001Z</time></trkpt><trkpt lat="43.475331705131865" lon="11.845216126193787"><ele>243.5</ele><time>2026-05-02T16:50:39.001Z</time></trkpt><trkpt lat="43.47542799415601" lon="11.84522353719097"><ele>243.0</ele><time>2026-05-02T16:50:40.001Z</time></trkpt><trkpt lat="43.47553264662854" lon="11.8452315635774"><ele>242.25</ele><time>2026-05-02T16:50:41.001Z</time></trkpt><trkpt lat="43.47563757022254" lon="11.845239610757892"><ele>241.5</ele><time>2026-05-02T16:50:42.001Z</time></trkpt><trkpt lat="43.47575002644939" lon="11.845248235661948"><ele>240.75</ele><time>2026-05-02T16:50:43.001Z</time></trkpt><trkpt lat="43.47586593553191" lon="11.845256970975546"><ele>240.0</ele><time>2026-05-02T16:50:44.001Z</time></trkpt><trkpt lat="43.47598323561146" lon="11.845265362301562"><ele>240.0</ele><time>2026-05-02T16:50:45.001Z</time></trkpt><trkpt lat="43.476097069797035" lon="11.845273505692145"><ele>240.0</ele><time>2026-05-02T16:50:46.001Z</time></trkpt><trkpt lat="43.47621155957659" lon="11.845283050946556"><ele>240.0</ele><time>2026-05-02T16:50:47.001Z</time></trkpt><trkpt lat="43.47632953696315" lon="11.845292909851482"><ele>240.0</ele><time>2026-05-02T16:50:48.001Z</time></trkpt><trkpt lat="43.476455394019936" lon="11.845303389535196"><ele>240.25</ele><time>2026-05-02T16:50:49.001Z</time></trkpt><trkpt lat="43.476575235713334" lon="11.845313211715123"><ele>240.5</ele><time>2026-05-02T16:50:50.001Z</time></trkpt><trkpt lat="43.47670870321727" lon="11.845323482672912"><ele>240.75</ele><time>2026-05-02T16:50:51.001Z</time></trkpt><trkpt lat="43.47683780116793" lon="11.84533388355712"><ele>241.0</ele><time>2026-05-02T16:50:52.001Z</time></trkpt><trkpt lat="43.47696727083012" lon="11.84534439475522"><ele>241.0</ele><time>2026-05-02T16:50:53.001Z</time></trkpt><trkpt lat="43.4770976822064" lon="11.84535508054444"><ele>241.00000000000003</ele><time>2026-05-02T16:50:54.001Z</time></trkpt><trkpt lat="43.4772162631614" lon="11.845364913382086"><ele>241.00000000000003</ele><time>2026-05-02T16:50:55.001Z</time></trkpt><trkpt lat="43.477316928925454" lon="11.845372707741824"><ele>241.0</ele><time>2026-05-02T16:50:56.001Z</time></trkpt><trkpt lat="43.47741485808644" lon="11.84537934629563"><ele>241.0</ele><time>2026-05-02T16:50:57.001Z</time></trkpt><trkpt lat="43.47750239530397" lon="11.84538528040722"><ele>241.0</ele><time>2026-05-02T16:50:58.001Z</time></trkpt><trkpt lat="43.47758426681771" lon="11.845390432186626"><ele>241.00000000000003</ele><time>2026-05-02T16:50:59.001Z</time></trkpt><trkpt lat="43.47766220870513" lon="11.845395247296894"><ele>241.0</ele><time>2026-05-02T16:51:00.001Z</time></trkpt><trkpt lat="43.47773599470833" lon="11.845400903717222"><ele>241.0</ele><time>2026-05-02T16:51:01.001Z</time></trkpt><trkpt lat="43.47780929608752" lon="11.845385507915083"><ele>241.00000000000003</ele><time>2026-05-02T16:51:02.001Z</time></trkpt><trkpt lat="43.47787425511452" lon="11.845396840529212"><ele>241.0</ele><time>2026-05-02T16:51:03.001Z</time></trkpt><trkpt lat="43.47794175283408" lon="11.845415654226768"><ele>241.0</ele><time>2026-05-02T16:51:04.001Z</time></trkpt><trkpt lat="43.478003109875985" lon="11.84543863864345"><ele>242.0</ele><time>2026-05-02T16:51:05.001Z</time></trkpt><trkpt lat="43.478097805053736" lon="11.845529163015902"><ele>243.0</ele><time>2026-05-02T16:51:07.001Z</time></trkpt><trkpt lat="43.478180044048756" lon="11.845709904696067"><ele>244.0</ele><time>2026-05-02T16:51:09.001Z</time></trkpt><trkpt lat="43.47822360465248" lon="11.845872267679118"><ele>245.0</ele><time>2026-05-02T16:51:10.001Z</time></trkpt><trkpt lat="43.47826030493462" lon="11.846057620198815"><ele>243.0</ele><time>2026-05-02T16:51:11.001Z</time></trkpt><trkpt lat="43.47829948550985" lon="11.846254061396357"><ele>241.0</ele><time>2026-05-02T16:51:12.001Z</time></trkpt><trkpt lat="43.47834344019025" lon="11.84643972297728"><ele>239.0</ele><time>2026-05-02T16:51:13.001Z</time></trkpt><trkpt lat="43.47838192705304" lon="11.846620822847228"><ele>237.0</ele><time>2026-05-02T16:51:14.001Z</time></trkpt><trkpt lat="43.478418859023456" lon="11.846793927535417"><ele>236.25</ele><time>2026-05-02T16:51:15.001Z</time></trkpt><trkpt lat="43.47845491371761" lon="11.846958040978212"><ele>235.5</ele><time>2026-05-02T16:51:16.001Z</time></trkpt><trkpt lat="43.47849104599325" lon="11.847117093396886"><ele>234.75</ele><time>2026-05-02T16:51:17.001Z</time></trkpt><trkpt lat="43.47853159448265" lon="11.84727960247025"><ele>234.0</ele><time>2026-05-02T16:51:18.001Z</time></trkpt><trkpt lat="43.47857089900553" lon="11.847458471483653"><ele>234.25</ele><time>2026-05-02T16:51:19.001Z</time></trkpt><trkpt lat="43.47860873666217" lon="11.847629177007539"><ele>234.5</ele><time>2026-05-02T16:51:20.001Z</time></trkpt><trkpt lat="43.47864297321312" lon="11.847784739326968"><ele>234.75</ele><time>2026-05-02T16:51:21.001Z</time></trkpt><trkpt lat="43.47867490604926" lon="11.84792421959982"><ele>235.0</ele><time>2026-05-02T16:51:22.001Z</time></trkpt><trkpt lat="43.47870769044743" lon="11.84805250592557"><ele>235.0</ele><time>2026-05-02T16:51:23.001Z</time></trkpt><trkpt lat="43.4787523520989" lon="11.848162767575834"><ele>235.0</ele><time>2026-05-02T16:51:24Z</time></trkpt><trkpt lat="43.4788072494277" lon="11.848246553055212"><ele>235.0</ele><time>2026-05-02T16:51:25Z</time></trkpt><trkpt lat="43.478883430459845" lon="11.848308989246316"><ele>235.0</ele><time>2026-05-02T16:51:26Z</time></trkpt><trkpt lat="43.47897199897106" lon="11.848348798598183"><ele>235.0</ele><time>2026-05-02T16:51:27Z</time></trkpt><trkpt lat="43.479067052446055" lon="11.848368055556714"><ele>234.33333333333331</ele><time>2026-05-02T16:51:28Z</time></trkpt><trkpt lat="43.47916547559654" lon="11.848376127932509"><ele>233.66666666666666</ele><time>2026-05-02T16:51:29Z</time></trkpt><trkpt lat="43.47926092468218" lon="11.848385229973449"><ele>233.0</ele><time>2026-05-02T16:51:30Z</time></trkpt><trkpt lat="43.47934315799263" lon="11.848395211738401"><ele>232.33333333333331</ele><time>2026-05-02T16:51:31Z</time></trkpt><trkpt lat="43.47942233933056" lon="11.848391737977568"><ele>231.66666666666666</ele><time>2026-05-02T16:51:32Z</time></trkpt><trkpt lat="43.479500166407774" lon="11.848346482477586"><ele>231.0</ele><time>2026-05-02T16:51:33Z</time></trkpt><trkpt lat="43.47958494949185" lon="11.84827583466174"><ele>234.75</ele><time>2026-05-02T16:51:34Z</time></trkpt><trkpt lat="43.479663847386" lon="11.848140883660847"><ele>238.5</ele><time>2026-05-02T16:51:35Z</time></trkpt><trkpt lat="43.47976327562778" lon="11.848061680463296"><ele>242.25</ele><time>2026-05-02T16:51:36Z</time></trkpt><trkpt lat="43.479882238130116" lon="11.848016783460471"><ele>246.0</ele><time>2026-05-02T16:51:37Z</time></trkpt><trkpt lat="43.47999210437262" lon="11.847939202772576"><ele>246.0</ele><time>2026-05-02T16:51:38Z</time></trkpt><trkpt lat="43.4801061381713" lon="11.847886406877324"><ele>246.00000000000003</ele><time>2026-05-02T16:51:39Z</time></trkpt><trkpt lat="43.48021155103203" lon="11.847838465319452"><ele>246.00000000000003</ele><time>2026-05-02T16:51:40Z</time></trkpt><trkpt lat="43.480302002451886" lon="11.847813625924536"><ele>246.0</ele><time>2026-05-02T16:51:41Z</time></trkpt><trkpt lat="43.48038280855963" lon="11.847774459135996"><ele>246.0</ele><time>2026-05-02T16:51:42Z</time></trkpt><trkpt lat="43.48047469905965" lon="11.84772303651773"><ele>247.75</ele><time>2026-05-02T16:51:43Z</time></trkpt><trkpt lat="43.48058240460785" lon="11.847748758848367"><ele>249.5</ele><time>2026-05-02T16:51:44Z</time></trkpt><trkpt lat="43.480695413602795" lon="11.847785476753725"><ele>251.25</ele><time>2026-05-02T16:51:45Z</time></trkpt><trkpt lat="43.48081484583929" lon="11.84782644922994"><ele>253.0</ele><time>2026-05-02T16:51:46Z</time></trkpt><trkpt lat="43.48094565296815" lon="11.847848652136687"><ele>253.0</ele><time>2026-05-02T16:51:47Z</time></trkpt><trkpt lat="43.481072254217054" lon="11.847892530605504"><ele>253.0</ele><time>2026-05-02T16:51:48Z</time></trkpt><trkpt lat="43.48121395448703" lon="11.847887415495649"><ele>253.0</ele><time>2026-05-02T16:51:49Z</time></trkpt><trkpt lat="43.48136427307011" lon="11.847857792265767"><ele>253.0</ele><time>2026-05-02T16:51:50Z</time></trkpt><trkpt lat="43.481509610468784" lon="11.847827580196938"><ele>253.5</ele><time>2026-05-02T16:51:51Z</time></trkpt><trkpt lat="43.481646805292876" lon="11.847802208497454"><ele>254.0</ele><time>2026-05-02T16:51:52Z</time></trkpt><trkpt lat="43.481785630577704" lon="11.847781937148357"><ele>254.5</ele><time>2026-05-02T16:51:53Z</time></trkpt><trkpt lat="43.48192999422102" lon="11.847748806422263"><ele>255.0</ele><time>2026-05-02T16:51:54Z</time></trkpt><trkpt lat="43.48208490302913" lon="11.847773430919771"><ele>253.66666666666669</ele><time>2026-05-02T16:51:55Z</time></trkpt><trkpt lat="43.48224244744645" lon="11.847759474471234"><ele>252.33333333333334</ele><time>2026-05-02T16:51:56Z</time></trkpt><trkpt lat="43.482394726787874" lon="11.847767108683598"><ele>251.0</ele><time>2026-05-02T16:51:57Z</time></trkpt><trkpt lat="43.482551816766566" lon="11.847777104493568"><ele>251.0</ele><time>2026-05-02T16:51:58Z</time></trkpt><trkpt lat="43.48271231322488" lon="11.847814763072801"><ele>251.0</ele><time>2026-05-02T16:51:59Z</time></trkpt><trkpt lat="43.482857512225344" lon="11.84786991306242"><ele>251.0</ele><time>2026-05-02T16:52:00Z</time></trkpt><trkpt lat="43.482999196479994" lon="11.847911166996981"><ele>250.33333333333334</ele><time>2026-05-02T16:52:01Z</time></trkpt><trkpt lat="43.48314387624326" lon="11.847931866193115"><ele>249.66666666666669</ele><time>2026-05-02T16:52:02Z</time></trkpt><trkpt lat="43.483293852913086" lon="11.847944279595783"><ele>249.0</ele><time>2026-05-02T16:52:03Z</time></trkpt><trkpt lat="43.48344978451598" lon="11.847966123101891"><ele>249.0</ele><time>2026-05-02T16:52:04Z</time></trkpt><trkpt lat="43.4836026609575" lon="11.848019372721156"><ele>249.0</ele><time>2026-05-02T16:52:05Z</time></trkpt><trkpt lat="43.48375245674348" lon="11.84811007578895"><ele>249.0</ele><time>2026-05-02T16:52:06Z</time></trkpt><trkpt lat="43.48389651328471" lon="11.848233910645812"><ele>248.33333333333331</ele><time>2026-05-02T16:52:07Z</time></trkpt><trkpt lat="43.484038178057475" lon="11.84835561611339"><ele>247.66666666666666</ele><time>2026-05-02T16:52:08Z</time></trkpt><trkpt lat="43.484175345988206" lon="11.848472881451423"><ele>247.0</ele><time>2026-05-02T16:52:09Z</time></trkpt><trkpt lat="43.48430459383861" lon="11.848581437411218"><ele>247.0</ele><time>2026-05-02T16:52:10Z</time></trkpt><trkpt lat="43.48442614283887" lon="11.848680380022355"><ele>247.0</ele><time>2026-05-02T16:52:11Z</time></trkpt><trkpt lat="43.48454437731648" lon="11.848776234998937"><ele>247.0</ele><time>2026-05-02T16:52:12Z</time></trkpt><trkpt lat="43.48466091892337" lon="11.84886427084101"><ele>247.0</ele><time>2026-05-02T16:52:13.001Z</time></trkpt><trkpt lat="43.48479012150561" lon="11.848948267644833"><ele>246.66666666666666</ele><time>2026-05-02T16:52:14.001Z</time></trkpt><trkpt lat="43.48493141060452" lon="11.849024744939465"><ele>246.33333333333331</ele><time>2026-05-02T16:52:15.001Z</time></trkpt><trkpt lat="43.48508074592676" lon="11.849100812251553"><ele>246.0</ele><time>2026-05-02T16:52:16.001Z</time></trkpt><trkpt lat="43.48522763976714" lon="11.849189924698486"><ele>246.33333333333331</ele><time>2026-05-02T16:52:17.001Z</time></trkpt><trkpt lat="43.48536183652427" lon="11.849307418212083"><ele>246.66666666666666</ele><time>2026-05-02T16:52:18.001Z</time></trkpt><trkpt lat="43.4854850001893" lon="11.849436815906978"><ele>247.0</ele><time>2026-05-02T16:52:19.001Z</time></trkpt><trkpt lat="43.48560346937237" lon="11.84954525929095"><ele>247.25</ele><time>2026-05-02T16:52:20.001Z</time></trkpt><trkpt lat="43.485725168984345" lon="11.849623699288307"><ele>247.5</ele><time>2026-05-02T16:52:21.001Z</time></trkpt><trkpt lat="43.48584956549376" lon="11.849689165882868"><ele>247.75</ele><time>2026-05-02T16:52:22.001Z</time></trkpt><trkpt lat="43.48596312600432" lon="11.849753106943023"><ele>248.0</ele><time>2026-05-02T16:52:23.001Z</time></trkpt><trkpt lat="43.48606373868743" lon="11.849824206151142"><ele>248.00000000000003</ele><time>2026-05-02T16:52:24.001Z</time></trkpt><trkpt lat="43.48613834599024" lon="11.84990009348983"><ele>248.0</ele><time>2026-05-02T16:52:25.001Z</time></trkpt><trkpt lat="43.486189667449075" lon="11.849966596732466"><ele>248.0</ele><time>2026-05-02T16:52:26.001Z</time></trkpt><trkpt lat="43.486259695913425" lon="11.850093812900194"><ele>248.0</ele><time>2026-05-02T16:52:28.001Z</time></trkpt><trkpt lat="43.48629281442954" lon="11.850181343642522"><ele>248.00000000000003</ele><time>2026-05-02T16:52:29.001Z</time></trkpt><trkpt lat="43.48632467033801" lon="11.850284436118123"><ele>248.0</ele><time>2026-05-02T16:52:30.001Z</time></trkpt><trkpt lat="43.486360497329656" lon="11.850402686771037"><ele>247.8</ele><time>2026-05-02T16:52:31.001Z</time></trkpt><trkpt lat="43.486415330371855" lon="11.850505172165448"><ele>247.60000000000002</ele><time>2026-05-02T16:52:32.001Z</time></trkpt><trkpt lat="43.486487070084664" lon="11.850582354271221"><ele>247.39999999999998</ele><time>2026-05-02T16:52:33.001Z</time></trkpt><trkpt lat="43.48656682282004" lon="11.850616047842127"><ele>247.2</ele><time>2026-05-02T16:52:34.001Z</time></trkpt><trkpt lat="43.4866588951927" lon="11.850627616299887"><ele>247.0</ele><time>2026-05-02T16:52:35.001Z</time></trkpt><trkpt lat="43.48674918026439" lon="11.850580672475347"><ele>247.0</ele><time>2026-05-02T16:52:36.001Z</time></trkpt><trkpt lat="43.48682583566382" lon="11.850483587284932"><ele>247.0</ele><time>2026-05-02T16:52:37.001Z</time></trkpt><trkpt lat="43.48685790650415" lon="11.850351848427032"><ele>247.0</ele><time>2026-05-02T16:52:38.001Z</time></trkpt><trkpt lat="43.48687128696149" lon="11.850209716119165"><ele>247.0</ele><time>2026-05-02T16:52:39.001Z</time></trkpt><trkpt lat="43.4868822118657" lon="11.850038169647474"><ele>247.0</ele><time>2026-05-02T16:52:40.001Z</time></trkpt><trkpt lat="43.48692418177713" lon="11.849859985268276"><ele>247.33333333333331</ele><time>2026-05-02T16:52:41.001Z</time></trkpt><trkpt lat="43.48700146290657" lon="11.849691116093398"><ele>247.66666666666669</ele><time>2026-05-02T16:52:42.001Z</time></trkpt><trkpt lat="43.48710791695166" lon="11.849519239132585"><ele>248.0</ele><time>2026-05-02T16:52:43.001Z</time></trkpt><trkpt lat="43.48723396532722" lon="11.849354614384001"><ele>248.0</ele><time>2026-05-02T16:52:44.001Z</time></trkpt><trkpt lat="43.48736623263956" lon="11.849181179173527"><ele>248.0</ele><time>2026-05-02T16:52:45.001Z</time></trkpt><trkpt lat="43.48749104148484" lon="11.848984339015892"><ele>248.0</ele><time>2026-05-02T16:52:46.001Z</time></trkpt><trkpt lat="43.487611155712905" lon="11.848763404216422"><ele>248.0</ele><time>2026-05-02T16:52:47.001Z</time></trkpt><trkpt lat="43.48774471478059" lon="11.848543344035088"><ele>248.0</ele><time>2026-05-02T16:52:48.001Z</time></trkpt><trkpt lat="43.48784141961165" lon="11.848315428644998"><ele>248.0</ele><time>2026-05-02T16:52:49.001Z</time></trkpt><trkpt lat="43.48796334545122" lon="11.848076560137876"><ele>248.0</ele><time>2026-05-02T16:52:50.001Z</time></trkpt><trkpt lat="43.488084712764426" lon="11.847834460532837"><ele>248.0</ele><time>2026-05-02T16:52:51.001Z</time></trkpt><trkpt lat="43.488206627940855" lon="11.847587658857574"><ele>248.0</ele><time>2026-05-02T16:52:52.001Z</time></trkpt><trkpt lat="43.488334305392144" lon="11.84735105067714"><ele>248.0</ele><time>2026-05-02T16:52:53.001Z</time></trkpt><trkpt lat="43.48846062275202" lon="11.847112878457141"><ele>248.0</ele><time>2026-05-02T16:52:54.001Z</time></trkpt><trkpt lat="43.48858368642014" lon="11.846860239347095"><ele>248.0</ele><time>2026-05-02T16:52:55.001Z</time></trkpt><trkpt lat="43.4887141489417" lon="11.84660899106719"><ele>249.0</ele><time>2026-05-02T16:52:56.001Z</time></trkpt><trkpt lat="43.488848148048405" lon="11.846347753876802"><ele>250.0</ele><time>2026-05-02T16:52:57.001Z</time></trkpt><trkpt lat="43.488984593892184" lon="11.846080838938647"><ele>249.5</ele><time>2026-05-02T16:52:58.001Z</time></trkpt><trkpt lat="43.48911731606974" lon="11.84580745934718"><ele>249.0</ele><time>2026-05-02T16:52:59.001Z</time></trkpt><trkpt lat="43.48925457271176" lon="11.845525827053434"><ele>249.0</ele><time>2026-05-02T16:53:00.001Z</time></trkpt><trkpt lat="43.48940168862117" lon="11.845249191853075"><ele>249.0</ele><time>2026-05-02T16:53:01.001Z</time></trkpt><trkpt lat="43.48954262966289" lon="11.84497958513451"><ele>249.33333333333331</ele><time>2026-05-02T16:53:02.001Z</time></trkpt><trkpt lat="43.48966975138975" lon="11.844725675634045"><ele>249.66666666666666</ele><time>2026-05-02T16:53:03.001Z</time></trkpt><trkpt lat="43.48979203955275" lon="11.844482334942612"><ele>250.0</ele><time>2026-05-02T16:53:04.001Z</time></trkpt><trkpt lat="43.48990303977281" lon="11.844254591414836"><ele>250.0</ele><time>2026-05-02T16:53:05.001Z</time></trkpt><trkpt lat="43.49000822644487" lon="11.844048215511666"><ele>250.0</ele><time>2026-05-02T16:53:06.001Z</time></trkpt><trkpt lat="43.49011002091648" lon="11.843851397413234"><ele>250.0</ele><time>2026-05-02T16:53:07.001Z</time></trkpt><trkpt lat="43.4902110639828" lon="11.843658122008186"><ele>249.66666666666666</ele><time>2026-05-02T16:53:08.001Z</time></trkpt><trkpt lat="43.49031407996924" lon="11.84345111491388"><ele>249.33333333333331</ele><time>2026-05-02T16:53:09.001Z</time></trkpt><trkpt lat="43.4904182921389" lon="11.843241145625495"><ele>249.0</ele><time>2026-05-02T16:53:10.001Z</time></trkpt><trkpt lat="43.49052846105521" lon="11.843027921685414"><ele>249.0</ele><time>2026-05-02T16:53:11.001Z</time></trkpt><trkpt lat="43.490641003889515" lon="11.842806103284879"><ele>249.0</ele><time>2026-05-02T16:53:12.001Z</time></trkpt><trkpt lat="43.490749740154385" lon="11.842585635622353"><ele>249.0</ele><time>2026-05-02T16:53:13.001Z</time></trkpt><trkpt lat="43.49085766274648" lon="11.842370441488827"><ele>249.0</ele><time>2026-05-02T16:53:14.001Z</time></trkpt><trkpt lat="43.490959844924504" lon="11.842164898186068"><ele>249.0</ele><time>2026-05-02T16:53:15.001Z</time></trkpt><trkpt lat="43.491057920963996" lon="11.841969205347313"><ele>249.0</ele><time>2026-05-02T16:53:16.001Z</time></trkpt><trkpt lat="43.491150930966946" lon="11.841785541361695"><ele>248.75</ele><time>2026-05-02T16:53:17.001Z</time></trkpt><trkpt lat="43.491239296409645" lon="11.841611768921517"><ele>248.5</ele><time>2026-05-02T16:53:18.001Z</time></trkpt><trkpt lat="43.491323433358794" lon="11.841447852311314"><ele>248.25</ele><time>2026-05-02T16:53:19.001Z</time></trkpt><trkpt lat="43.491408818072" lon="11.84128389134671"><ele>248.0</ele><time>2026-05-02T16:53:20.001Z</time></trkpt><trkpt lat="43.491497501427276" lon="11.841110546143298"><ele>248.0</ele><time>2026-05-02T16:53:21.001Z</time></trkpt><trkpt lat="43.49158603528551" lon="11.840932464855563"><ele>248.0</ele><time>2026-05-02T16:53:22.001Z</time></trkpt><trkpt lat="43.49168004222674" lon="11.840757484671714"><ele>248.0</ele><time>2026-05-02T16:53:23.001Z</time></trkpt><trkpt lat="43.49176636246525" lon="11.840585089115324"><ele>248.0</ele><time>2026-05-02T16:53:24.001Z</time></trkpt><trkpt lat="43.49185704862669" lon="11.840408713661574"><ele>248.0</ele><time>2026-05-02T16:53:25.001Z</time></trkpt><trkpt lat="43.491948558663736" lon="11.840223141474608"><ele>248.0</ele><time>2026-05-02T16:53:26.001Z</time></trkpt><trkpt lat="43.49204765015023" lon="11.840032586885572"><ele>248.0</ele><time>2026-05-02T16:53:27.001Z</time></trkpt><trkpt lat="43.492146726924496" lon="11.839838065630309"><ele>248.0</ele><time>2026-05-02T16:53:28.001Z</time></trkpt><trkpt lat="43.492246948854195" lon="11.839637331778667"><ele>248.0</ele><time>2026-05-02T16:53:29.001Z</time></trkpt><trkpt lat="43.49235000195833" lon="11.839433620961787"><ele>247.33333333333334</ele><time>2026-05-02T16:53:30Z</time></trkpt><trkpt lat="43.49245471629113" lon="11.839225673689944"><ele>246.66666666666669</ele><time>2026-05-02T16:53:31Z</time></trkpt><trkpt lat="43.49255316718086" lon="11.839024665925447"><ele>246.0</ele><time>2026-05-02T16:53:32Z</time></trkpt><trkpt lat="43.492650724437404" lon="11.838831109320411"><ele>246.0</ele><time>2026-05-02T16:53:33Z</time></trkpt><trkpt lat="43.492746413900335" lon="11.838647794815026"><ele>246.0</ele><time>2026-05-02T16:53:34Z</time></trkpt><trkpt lat="43.49283976593026" lon="11.838467734266018"><ele>246.0</ele><time>2026-05-02T16:53:35Z</time></trkpt><trkpt lat="43.492930080449675" lon="11.838293879754845"><ele>246.33333333333331</ele><time>2026-05-02T16:53:36Z</time></trkpt><trkpt lat="43.493022122920266" lon="11.838117168409687"><ele>246.66666666666666</ele><time>2026-05-02T16:53:37Z</time></trkpt><trkpt lat="43.49311265399352" lon="11.837942496522583"><ele>247.0</ele><time>2026-05-02T16:53:38Z</time></trkpt><trkpt lat="43.493202530210986" lon="11.837761808768844"><ele>246.66666666666666</ele><time>2026-05-02T16:53:39Z</time></trkpt><trkpt lat="43.49329489996957" lon="11.837601029167592"><ele>246.33333333333331</ele><time>2026-05-02T16:53:40Z</time></trkpt><trkpt lat="43.49339128499693" lon="11.837391847559598"><ele>246.0</ele><time>2026-05-02T16:53:41Z</time></trkpt><trkpt lat="43.49348628141862" lon="11.837208019714986"><ele>246.0</ele><time>2026-05-02T16:53:42Z</time></trkpt><trkpt lat="43.49358194323306" lon="11.83701780484251"><ele>246.0</ele><time>2026-05-02T16:53:43Z</time></trkpt><trkpt lat="43.49367827198618" lon="11.83682571095249"><ele>246.0</ele><time>2026-05-02T16:53:44Z</time></trkpt><trkpt lat="43.493769992813164" lon="11.836645210840611"><ele>247.0</ele><time>2026-05-02T16:53:45Z</time></trkpt><trkpt lat="43.49385551832587" lon="11.836466273353945"><ele>248.0</ele><time>2026-05-02T16:53:46Z</time></trkpt><trkpt lat="43.49394584586548" lon="11.836288663197307"><ele>249.0</ele><time>2026-05-02T16:53:47Z</time></trkpt><trkpt lat="43.494038606540336" lon="11.836108298526126"><ele>249.0</ele><time>2026-05-02T16:53:48Z</time></trkpt><trkpt lat="43.49413031118681" lon="11.835928712939763"><ele>249.0</ele><time>2026-05-02T16:53:49Z</time></trkpt><trkpt lat="43.494220868430254" lon="11.835754083030357"><ele>249.0</ele><time>2026-05-02T16:53:50Z</time></trkpt><trkpt lat="43.49431028977361" lon="11.835577620332405"><ele>249.0</ele><time>2026-05-02T16:53:51Z</time></trkpt><trkpt lat="43.494397670212464" lon="11.835405155470324"><ele>249.0</ele><time>2026-05-02T16:53:52Z</time></trkpt><trkpt lat="43.49448398284849" lon="11.835227679544433"><ele>249.0</ele><time>2026-05-02T16:53:53Z</time></trkpt><trkpt lat="43.494575236918195" lon="11.835044988983261"><ele>249.33333333333331</ele><time>2026-05-02T16:53:54Z</time></trkpt><trkpt lat="43.49467041660963" lon="11.834857449891183"><ele>249.66666666666666</ele><time>2026-05-02T16:53:55Z</time></trkpt><trkpt lat="43.494763764682034" lon="11.834677055632"><ele>250.0</ele><time>2026-05-02T16:53:56Z</time></trkpt><trkpt lat="43.494849581807" lon="11.834507231778403"><ele>250.0</ele><time>2026-05-02T16:53:57Z</time></trkpt><trkpt lat="43.494936003778164" lon="11.834346388294508"><ele>250.0</ele><time>2026-05-02T16:53:58Z</time></trkpt><trkpt lat="43.49502085070059" lon="11.834181591110193"><ele>250.0</ele><time>2026-05-02T16:53:59Z</time></trkpt><trkpt lat="43.49510469644528" lon="11.834018503505094"><ele>250.0</ele><time>2026-05-02T16:54:00Z</time></trkpt><trkpt lat="43.4951880478746" lon="11.833846565562395"><ele>250.0</ele><time>2026-05-02T16:54:01Z</time></trkpt><trkpt lat="43.495275696121425" lon="11.833683042035966"><ele>250.0</ele><time>2026-05-02T16:54:02Z</time></trkpt><trkpt lat="43.49535942676632" lon="11.833512205444695"><ele>250.0</ele><time>2026-05-02T16:54:03Z</time></trkpt><trkpt lat="43.495446216955365" lon="11.833334463220918"><ele>249.33333333333331</ele><time>2026-05-02T16:54:04Z</time></trkpt><trkpt lat="43.49553885620732" lon="11.833151708912245"><ele>248.66666666666669</ele><time>2026-05-02T16:54:05Z</time></trkpt><trkpt lat="43.49563224462617" lon="11.832968150434818"><ele>248.0</ele><time>2026-05-02T16:54:06Z</time></trkpt><trkpt lat="43.4957275171017" lon="11.832784758678226"><ele>248.33333333333334</ele><time>2026-05-02T16:54:07Z</time></trkpt><trkpt lat="43.495821605652445" lon="11.832605723321509"><ele>248.66666666666669</ele><time>2026-05-02T16:54:08Z</time></trkpt><trkpt lat="43.495913670640924" lon="11.83242578912412"><ele>249.0</ele><time>2026-05-02T16:54:09Z</time></trkpt><trkpt lat="43.49600407924776" lon="11.832240725870157"><ele>249.0</ele><time>2026-05-02T16:54:10Z</time></trkpt><trkpt lat="43.496098262817505" lon="11.832057485393044"><ele>249.0</ele><time>2026-05-02T16:54:11Z</time></trkpt><trkpt lat="43.49618999625551" lon="11.831877220968618"><ele>249.0</ele><time>2026-05-02T16:54:12Z</time></trkpt><trkpt lat="43.49628132289177" lon="11.831689815192417"><ele>249.66666666666669</ele><time>2026-05-02T16:54:13Z</time></trkpt><trkpt lat="43.49637673495436" lon="11.83151311488166"><ele>250.33333333333334</ele><time>2026-05-02T16:54:14Z</time></trkpt><trkpt lat="43.49646646806738" lon="11.831335309838908"><ele>251.0</ele><time>2026-05-02T16:54:15Z</time></trkpt><trkpt lat="43.496552168026525" lon="11.831158195725099"><ele>251.0</ele><time>2026-05-02T16:54:16Z</time></trkpt><trkpt lat="43.49663415385631" lon="11.830997371918897"><ele>251.0</ele><time>2026-05-02T16:54:17Z</time></trkpt><trkpt lat="43.496718033313456" lon="11.830833143774159"><ele>251.0</ele><time>2026-05-02T16:54:18Z</time></trkpt><trkpt lat="43.49679984544117" lon="11.830672129343446"><ele>251.0</ele><time>2026-05-02T16:54:19Z</time></trkpt><trkpt lat="43.49687672323784" lon="11.830520517563782"><ele>251.0</ele><time>2026-05-02T16:54:20.001Z</time></trkpt><trkpt lat="43.49695019610275" lon="11.830378916317729"><ele>251.0</ele><time>2026-05-02T16:54:21.001Z</time></trkpt><trkpt lat="43.49702493777126" lon="11.83022821583061"><ele>251.0</ele><time>2026-05-02T16:54:22.001Z</time></trkpt><trkpt lat="43.49709942507744" lon="11.830075291413925"><ele>251.0</ele><time>2026-05-02T16:54:23.001Z</time></trkpt><trkpt lat="43.49717392474805" lon="11.829926322494119"><ele>251.0</ele><time>2026-05-02T16:54:24.001Z</time></trkpt><trkpt lat="43.497242495532426" lon="11.829787521655303"><ele>251.00000000000003</ele><time>2026-05-02T16:54:25.001Z</time></trkpt><trkpt lat="43.49730517710206" lon="11.82965987132473"><ele>251.00000000000003</ele><time>2026-05-02T16:54:26.001Z</time></trkpt><trkpt lat="43.49736723453465" lon="11.82954079022969"><ele>251.0</ele><time>2026-05-02T16:54:27.001Z</time></trkpt><trkpt lat="43.4974266599356" lon="11.82942994061069"><ele>251.0</ele><time>2026-05-02T16:54:28.001Z</time></trkpt><trkpt lat="43.49749613871271" lon="11.829306070951311"><ele>250.75</ele><time>2026-05-02T16:54:29.001Z</time></trkpt><trkpt lat="43.49754487525005" lon="11.829199094544444"><ele>250.5</ele><time>2026-05-02T16:54:30.001Z</time></trkpt><trkpt lat="43.497610520039196" lon="11.829068178645377"><ele>250.25</ele><time>2026-05-02T16:54:31.001Z</time></trkpt><trkpt lat="43.49767806152238" lon="11.82892718670346"><ele>250.0</ele><time>2026-05-02T16:54:32.001Z</time></trkpt><trkpt lat="43.49774806828413" lon="11.82879200176813"><ele>250.0</ele><time>2026-05-02T16:54:33.001Z</time></trkpt><trkpt lat="43.49781017918019" lon="11.828670715775692"><ele>250.0</ele><time>2026-05-02T16:54:34.001Z</time></trkpt><trkpt lat="43.49786992710884" lon="11.828567534483515"><ele>250.0</ele><time>2026-05-02T16:54:35.001Z</time></trkpt><trkpt lat="43.49793324952969" lon="11.82848930361606"><ele>250.0</ele><time>2026-05-02T16:54:36.001Z</time></trkpt><trkpt lat="43.49798246382662" lon="11.828423700531342"><ele>250.0</ele><time>2026-05-02T16:54:37.001Z</time></trkpt><trkpt lat="43.498143390509455" lon="11.82859318288257"><ele>250.0</ele><time>2026-05-02T16:54:39.001Z</time></trkpt><trkpt lat="43.49823711099141" lon="11.82868512069861"><ele>250.0</ele><time>2026-05-02T16:54:40.001Z</time></trkpt><trkpt lat="43.49833934784848" lon="11.828818498947635"><ele>250.0</ele><time>2026-05-02T16:54:41.001Z</time></trkpt><trkpt lat="43.49845653443805" lon="11.828969598456696"><ele>250.0</ele><time>2026-05-02T16:54:42.001Z</time></trkpt><trkpt lat="43.49858548794366" lon="11.829130331113744"><ele>250.0</ele><time>2026-05-02T16:54:43.001Z</time></trkpt><trkpt lat="43.49871756379755" lon="11.829304556791817"><ele>250.0</ele><time>2026-05-02T16:54:44.001Z</time></trkpt><trkpt lat="43.498848829922345" lon="11.829464033578267"><ele>250.0</ele><time>2026-05-02T16:54:45.001Z</time></trkpt><trkpt lat="43.4989642752314" lon="11.829613580542624"><ele>250.0</ele><time>2026-05-02T16:54:46.001Z</time></trkpt><trkpt lat="43.49907171066562" lon="11.829752032216385"><ele>250.0</ele><time>2026-05-02T16:54:47.001Z</time></trkpt><trkpt lat="43.499171842679424" lon="11.829881050688716"><ele>250.0</ele><time>2026-05-02T16:54:48.001Z</time></trkpt><trkpt lat="43.49926765750003" lon="11.830005717265147"><ele>250.0</ele><time>2026-05-02T16:54:49.001Z</time></trkpt><trkpt lat="43.499358435453104" lon="11.830122544843169"><ele>250.0</ele><time>2026-05-02T16:54:50.001Z</time></trkpt><trkpt lat="43.499455271170106" lon="11.830247176900373"><ele>250.0</ele><time>2026-05-02T16:54:51.001Z</time></trkpt><trkpt lat="43.499561241283715" lon="11.830381693494157"><ele>250.0</ele><time>2026-05-02T16:54:52.001Z</time></trkpt><trkpt lat="43.499664070598726" lon="11.830509781457346"><ele>250.0</ele><time>2026-05-02T16:54:53.001Z</time></trkpt><trkpt lat="43.499771949390166" lon="11.830640908967206"><ele>250.33333333333331</ele><time>2026-05-02T16:54:54.001Z</time></trkpt><trkpt lat="43.49988849745912" lon="11.830785615998638"><ele>250.66666666666669</ele><time>2026-05-02T16:54:55.001Z</time></trkpt><trkpt lat="43.50001370625637" lon="11.83093892069428"><ele>251.0</ele><time>2026-05-02T16:54:56.001Z</time></trkpt><trkpt lat="43.50013911338482" lon="11.831095225592279"><ele>251.0</ele><time>2026-05-02T16:54:57.001Z</time></trkpt><trkpt lat="43.50026018015576" lon="11.831247329794918"><ele>251.0</ele><time>2026-05-02T16:54:58.001Z</time></trkpt><trkpt lat="43.50036797668942" lon="11.831382135465054"><ele>251.0</ele><time>2026-05-02T16:54:59.001Z</time></trkpt><trkpt lat="43.500470758745614" lon="11.831514030355839"><ele>250.75</ele><time>2026-05-02T16:55:00.001Z</time></trkpt><trkpt lat="43.50056702323009" lon="11.831636861413166"><ele>250.5</ele><time>2026-05-02T16:55:01.001Z</time></trkpt><trkpt lat="43.50067054965487" lon="11.831762295542077"><ele>250.25</ele><time>2026-05-02T16:55:02.001Z</time></trkpt><trkpt lat="43.500771180152285" lon="11.831889428063649"><ele>250.0</ele><time>2026-05-02T16:55:03.001Z</time></trkpt><trkpt lat="43.50086061023654" lon="11.832005612561893"><ele>249.75</ele><time>2026-05-02T16:55:04.001Z</time></trkpt><trkpt lat="43.500952870328106" lon="11.832127077147712"><ele>249.5</ele><time>2026-05-02T16:55:05.001Z</time></trkpt><trkpt lat="43.501044923598634" lon="11.832241376154629"><ele>249.25</ele><time>2026-05-02T16:55:06.001Z</time></trkpt><trkpt lat="43.5011380456624" lon="11.832353776008757"><ele>249.0</ele><time>2026-05-02T16:55:07.001Z</time></trkpt><trkpt lat="43.50121124708912" lon="11.832475733462186"><ele>249.39999999999998</ele><time>2026-05-02T16:55:08.001Z</time></trkpt><trkpt lat="43.501292962352665" lon="11.832579059604498"><ele>249.79999999999998</ele><time>2026-05-02T16:55:09.001Z</time></trkpt><trkpt lat="43.5013827837452" lon="11.832664543656154"><ele>250.20000000000002</ele><time>2026-05-02T16:55:10.001Z</time></trkpt><trkpt lat="43.50144643880158" lon="11.832778513208723"><ele>250.60000000000002</ele><time>2026-05-02T16:55:11.001Z</time></trkpt><trkpt lat="43.50150745351507" lon="11.832903999645845"><ele>251.0</ele><time>2026-05-02T16:55:12.001Z</time></trkpt><trkpt lat="43.50156903777583" lon="11.833037421887024"><ele>251.0</ele><time>2026-05-02T16:55:13.001Z</time></trkpt><trkpt lat="43.50171527954353" lon="11.83309251181509"><ele>251.00000000000003</ele><time>2026-05-02T16:55:14.001Z</time></trkpt><trkpt lat="43.50179305620557" lon="11.833186433970857"><ele>251.00000000000003</ele><time>2026-05-02T16:55:15.001Z</time></trkpt><trkpt lat="43.50186882035441" lon="11.833286734257868"><ele>251.0</ele><time>2026-05-02T16:55:16.001Z</time></trkpt><trkpt lat="43.50193492472198" lon="11.833368054604167"><ele>251.0</ele><time>2026-05-02T16:55:17.001Z</time></trkpt><trkpt lat="43.501988985324" lon="11.833434128524454"><ele>250.83333333333334</ele><time>2026-05-02T16:55:18.001Z</time></trkpt><trkpt lat="43.50204061183352" lon="11.83350365602107"><ele>250.66666666666669</ele><time>2026-05-02T16:55:19.001Z</time></trkpt><trkpt lat="43.50212777070074" lon="11.833613853087158"><ele>250.5</ele><time>2026-05-02T16:55:21.001Z</time></trkpt><trkpt lat="43.50217450054432" lon="11.833672958777592"><ele>250.33333333333331</ele><time>2026-05-02T16:55:22.001Z</time></trkpt><trkpt lat="43.50222795932499" lon="11.833761284799483"><ele>250.16666666666666</ele><time>2026-05-02T16:55:24.001Z</time></trkpt><trkpt lat="43.50231793084572" lon="11.833676391983012"><ele>250.0</ele><time>2026-05-02T16:55:25.001Z</time></trkpt><trkpt lat="43.50239211413081" lon="11.833611439111426"><ele>250.5</ele><time>2026-05-02T16:55:26.001Z</time></trkpt><trkpt lat="43.50248236352645" lon="11.833581983082334"><ele>251.0</ele><time>2026-05-02T16:55:27.001Z</time></trkpt><trkpt lat="43.50256455025352" lon="11.833536977064607"><ele>251.5</ele><time>2026-05-02T16:55:28.001Z</time></trkpt><trkpt lat="43.50268809669974" lon="11.833470356934622"><ele>252.0</ele><time>2026-05-02T16:55:29.001Z</time></trkpt><trkpt lat="43.502836512430726" lon="11.833391000759661"><ele>251.33333333333331</ele><time>2026-05-02T16:55:30.001Z</time></trkpt><trkpt lat="43.50299622664615" lon="11.833305603413644"><ele>250.66666666666666</ele><time>2026-05-02T16:55:31.001Z</time></trkpt><trkpt lat="43.50316240193379" lon="11.833216395990725"><ele>250.0</ele><time>2026-05-02T16:55:32.001Z</time></trkpt><trkpt lat="43.503311830248755" lon="11.833135254254005"><ele>250.0</ele><time>2026-05-02T16:55:33.001Z</time></trkpt><trkpt lat="43.50344504924251" lon="11.833063832186125"><ele>250.0</ele><time>2026-05-02T16:55:34.001Z</time></trkpt><trkpt lat="43.503575464670575" lon="11.832994762056249"><ele>250.0</ele><time>2026-05-02T16:55:35.001Z</time></trkpt><trkpt lat="43.50372391671019" lon="11.83291610717388"><ele>250.0</ele><time>2026-05-02T16:55:36Z</time></trkpt><trkpt lat="43.503880198908895" lon="11.832831645824454"><ele>250.66666666666666</ele><time>2026-05-02T16:55:37Z</time></trkpt><trkpt lat="43.50403715811943" lon="11.832746818673646"><ele>251.33333333333331</ele><time>2026-05-02T16:55:38Z</time></trkpt><trkpt lat="43.50419170901308" lon="11.832644688152207"><ele>252.0</ele><time>2026-05-02T16:55:39Z</time></trkpt><trkpt lat="43.50434197347748" lon="11.832567722434645"><ele>252.0</ele><time>2026-05-02T16:55:40Z</time></trkpt><trkpt lat="43.504479050335874" lon="11.83249138484733"><ele>252.0</ele><time>2026-05-02T16:55:41Z</time></trkpt><trkpt lat="43.504611606249604" lon="11.83242556780576"><ele>252.0</ele><time>2026-05-02T16:55:42Z</time></trkpt><trkpt lat="43.50474143145343" lon="11.832321167313324"><ele>252.0</ele><time>2026-05-02T16:55:43Z</time></trkpt><trkpt lat="43.50486773168879" lon="11.832188398342664"><ele>251.33333333333331</ele><time>2026-05-02T16:55:44Z</time></trkpt><trkpt lat="43.504987586395714" lon="11.832030108422453"><ele>250.66666666666666</ele><time>2026-05-02T16:55:45Z</time></trkpt><trkpt lat="43.50510586726569" lon="11.831850883250691"><ele>250.0</ele><time>2026-05-02T16:55:46Z</time></trkpt><trkpt lat="43.50523113497138" lon="11.831668526308913"><ele>250.0</ele><time>2026-05-02T16:55:47Z</time></trkpt><trkpt lat="43.50537963929012" lon="11.831520150810473"><ele>250.0</ele><time>2026-05-02T16:55:48Z</time></trkpt><trkpt lat="43.50552600275803" lon="11.83137668701234"><ele>250.0</ele><time>2026-05-02T16:55:49Z</time></trkpt><trkpt lat="43.505691165263215" lon="11.831260837055233"><ele>249.0</ele><time>2026-05-02T16:55:50Z</time></trkpt><trkpt lat="43.505864555276645" lon="11.831136349289478"><ele>248.0</ele><time>2026-05-02T16:55:51Z</time></trkpt><trkpt lat="43.50603070757111" lon="11.83097960192742"><ele>247.0</ele><time>2026-05-02T16:55:52Z</time></trkpt><trkpt lat="43.5062003868825" lon="11.830815458944526"><ele>247.0</ele><time>2026-05-02T16:55:53Z</time></trkpt><trkpt lat="43.50637421167256" lon="11.83064166586852"><ele>247.0</ele><time>2026-05-02T16:55:54Z</time></trkpt><trkpt lat="43.50654878760265" lon="11.83047606570804"><ele>247.0</ele><time>2026-05-02T16:55:55Z</time></trkpt><trkpt lat="43.50672203650196" lon="11.830317855411632"><ele>247.0</ele><time>2026-05-02T16:55:56Z</time></trkpt><trkpt lat="43.506892959671994" lon="11.830168823769458"><ele>247.0</ele><time>2026-05-02T16:55:57Z</time></trkpt><trkpt lat="43.50705602532797" lon="11.830031698336114"><ele>247.0</ele><time>2026-05-02T16:55:58Z</time></trkpt><trkpt lat="43.50720903329646" lon="11.829908081334013"><ele>247.25</ele><time>2026-05-02T16:55:59Z</time></trkpt><trkpt lat="43.50735718083849" lon="11.829819523519953"><ele>247.5</ele><time>2026-05-02T16:56:00Z</time></trkpt><trkpt lat="43.50747172351166" lon="11.829710515732037"><ele>247.75</ele><time>2026-05-02T16:56:01Z</time></trkpt><trkpt lat="43.50759001353574" lon="11.829639126963196"><ele>248.0</ele><time>2026-05-02T16:56:02Z</time></trkpt><trkpt lat="43.50771250494288" lon="11.829625316319058"><ele>248.0</ele><time>2026-05-02T16:56:03Z</time></trkpt><trkpt lat="43.507830398232684" lon="11.82964709628474"><ele>248.0</ele><time>2026-05-02T16:56:04Z</time></trkpt><trkpt lat="43.50797154594735" lon="11.829674100994872"><ele>248.0</ele><time>2026-05-02T16:56:05Z</time></trkpt><trkpt lat="43.508129591234365" lon="11.829687158128083"><ele>248.0</ele><time>2026-05-02T16:56:06Z</time></trkpt><trkpt lat="43.508289922970924" lon="11.829722628038786"><ele>247.25</ele><time>2026-05-02T16:56:07Z</time></trkpt><trkpt lat="43.5084421761429" lon="11.829714613522551"><ele>246.5</ele><time>2026-05-02T16:56:08Z</time></trkpt><trkpt lat="43.508585054160605" lon="11.829695680005596"><ele>245.75</ele><time>2026-05-02T16:56:09Z</time></trkpt><trkpt lat="43.50872503986409" lon="11.829628165440623"><ele>245.0</ele><time>2026-05-02T16:56:10Z</time></trkpt><trkpt lat="43.50886274361648" lon="11.829528852437777"><ele>244.33333333333334</ele><time>2026-05-02T16:56:11Z</time></trkpt><trkpt lat="43.50902334209857" lon="11.829428799175393"><ele>243.66666666666669</ele><time>2026-05-02T16:56:12Z</time></trkpt><trkpt lat="43.50919569008549" lon="11.829299248517975"><ele>243.0</ele><time>2026-05-02T16:56:13Z</time></trkpt><trkpt lat="43.50937590958519" lon="11.829167283223786"><ele>238.66666666666669</ele><time>2026-05-02T16:56:14Z</time></trkpt><trkpt lat="43.50956844492191" lon="11.829044979805184"><ele>234.33333333333334</ele><time>2026-05-02T16:56:15Z</time></trkpt><trkpt lat="43.509772861784576" lon="11.828952224320323"><ele>230.0</ele><time>2026-05-02T16:56:16Z</time></trkpt><trkpt lat="43.509982800904766" lon="11.828868738762253"><ele>230.0</ele><time>2026-05-02T16:56:17Z</time></trkpt><trkpt lat="43.51018575021156" lon="11.828759108352852"><ele>230.0</ele><time>2026-05-02T16:56:18Z</time></trkpt><trkpt lat="43.510371047466755" lon="11.828659167179353"><ele>230.0</ele><time>2026-05-02T16:56:19Z</time></trkpt><trkpt lat="43.51054391931804" lon="11.828530807722169"><ele>227.66666666666669</ele><time>2026-05-02T16:56:20Z</time></trkpt><trkpt lat="43.51070032791341" lon="11.828377283750136"><ele>225.33333333333331</ele><time>2026-05-02T16:56:21Z</time></trkpt><trkpt lat="43.51084632261082" lon="11.828231211838258"><ele>223.0</ele><time>2026-05-02T16:56:22Z</time></trkpt><trkpt lat="43.51097665119384" lon="11.828079054854902"><ele>223.0</ele><time>2026-05-02T16:56:23Z</time></trkpt><trkpt lat="43.511114547821116" lon="11.827974156669185"><ele>223.0</ele><time>2026-05-02T16:56:24Z</time></trkpt><trkpt lat="43.51124047323546" lon="11.827895915710894"><ele>223.0</ele><time>2026-05-02T16:56:25Z</time></trkpt><trkpt lat="43.51136151221822" lon="11.827845133908985"><ele>223.0</ele><time>2026-05-02T16:56:26Z</time></trkpt><trkpt lat="43.511476992678425" lon="11.827833311241994"><ele>222.5</ele><time>2026-05-02T16:56:27Z</time></trkpt><trkpt lat="43.511606258795034" lon="11.827836555124941"><ele>222.0</ele><time>2026-05-02T16:56:28Z</time></trkpt><trkpt lat="43.511750437271836" lon="11.827816862911975"><ele>221.5</ele><time>2026-05-02T16:56:29Z</time></trkpt><trkpt lat="43.51190010225952" lon="11.827824233826629"><ele>221.0</ele><time>2026-05-02T16:56:30Z</time></trkpt><trkpt lat="43.51203611541035" lon="11.8278109157984"><ele>220.60000000000002</ele><time>2026-05-02T16:56:31Z</time></trkpt><trkpt lat="43.51216140216916" lon="11.827794516934665"><ele>220.20000000000002</ele><time>2026-05-02T16:56:32Z</time></trkpt><trkpt lat="43.51227769240451" lon="11.827804593051523"><ele>219.79999999999998</ele><time>2026-05-02T16:56:33.001Z</time></trkpt><trkpt lat="43.512378464715184" lon="11.827777405454917"><ele>219.39999999999998</ele><time>2026-05-02T16:56:34.001Z</time></trkpt><trkpt lat="43.512459927992154" lon="11.827783659351951"><ele>219.0</ele><time>2026-05-02T16:56:35.001Z</time></trkpt><trkpt lat="43.5125192531189" lon="11.82782379250567"><ele>219.0</ele><time>2026-05-02T16:56:36.001Z</time></trkpt><trkpt lat="43.512565194955506" lon="11.827893650050703"><ele>218.99999999999997</ele><time>2026-05-02T16:56:37.001Z</time></trkpt><trkpt lat="43.51260221174725" lon="11.828019382002838"><ele>218.99999999999997</ele><time>2026-05-02T16:56:38.001Z</time></trkpt><trkpt lat="43.512637974261395" lon="11.828182864152025"><ele>219.0</ele><time>2026-05-02T16:56:39.001Z</time></trkpt><trkpt lat="43.512673296927034" lon="11.828367753855025"><ele>219.0</ele><time>2026-05-02T16:56:40.001Z</time></trkpt><trkpt lat="43.51271691289545" lon="11.828570707306381"><ele>219.0</ele><time>2026-05-02T16:56:41.001Z</time></trkpt><trkpt lat="43.512775526460736" lon="11.828784206911514"><ele>219.0</ele><time>2026-05-02T16:56:42.001Z</time></trkpt><trkpt lat="43.51283949784706" lon="11.829004981812767"><ele>219.0</ele><time>2026-05-02T16:56:43.001Z</time></trkpt><trkpt lat="43.51291059353348" lon="11.82923074284357"><ele>218.66666666666669</ele><time>2026-05-02T16:56:44.001Z</time></trkpt><trkpt lat="43.51299517680559" lon="11.82947183006468"><ele>218.33333333333334</ele><time>2026-05-02T16:56:45.001Z</time></trkpt><trkpt lat="43.513080888524165" lon="11.829719162544759"><ele>218.0</ele><time>2026-05-02T16:56:46.001Z</time></trkpt><trkpt lat="43.51317384469469" lon="11.829975314709614"><ele>217.33333333333334</ele><time>2026-05-02T16:56:47.001Z</time></trkpt><trkpt lat="43.513259634114384" lon="11.83020943606694"><ele>216.66666666666669</ele><time>2026-05-02T16:56:48.001Z</time></trkpt><trkpt lat="43.51335360603058" lon="11.830445236205799"><ele>216.0</ele><time>2026-05-02T16:56:49.001Z</time></trkpt><trkpt lat="43.51345347137168" lon="11.830679342248153"><ele>216.0</ele><time>2026-05-02T16:56:50.001Z</time></trkpt><trkpt lat="43.51355496640101" lon="11.830907216616664"><ele>216.0</ele><time>2026-05-02T16:56:51.001Z</time></trkpt><trkpt lat="43.51365897769994" lon="11.831129581943491"><ele>216.0</ele><time>2026-05-02T16:56:52.001Z</time></trkpt><trkpt lat="43.51376729771327" lon="11.831349470145465"><ele>216.33333333333331</ele><time>2026-05-02T16:56:53.001Z</time></trkpt><trkpt lat="43.51388050494981" lon="11.831563449402239"><ele>216.66666666666666</ele><time>2026-05-02T16:56:54.001Z</time></trkpt><trkpt lat="43.513985579400526" lon="11.831758243741199"><ele>217.0</ele><time>2026-05-02T16:56:55.001Z</time></trkpt><trkpt lat="43.51407961185631" lon="11.831952196116717"><ele>217.75</ele><time>2026-05-02T16:56:56.001Z</time></trkpt><trkpt lat="43.51415106672471" lon="11.832146282180318"><ele>218.5</ele><time>2026-05-02T16:56:57.001Z</time></trkpt><trkpt lat="43.51418359670751" lon="11.832347894383298"><ele>219.25</ele><time>2026-05-02T16:56:58.001Z</time></trkpt><trkpt lat="43.51422254486787" lon="11.832530903652545"><ele>220.0</ele><time>2026-05-02T16:56:59.001Z</time></trkpt><trkpt lat="43.51426721864488" lon="11.832703616397978"><ele>221.75</ele><time>2026-05-02T16:57:00.001Z</time></trkpt><trkpt lat="43.51430178846573" lon="11.832870611258665"><ele>223.5</ele><time>2026-05-02T16:57:01.001Z</time></trkpt><trkpt lat="43.514354322302225" lon="11.83300969132247"><ele>225.25</ele><time>2026-05-02T16:57:02.001Z</time></trkpt><trkpt lat="43.514417915146915" lon="11.833140831778033"><ele>227.0</ele><time>2026-05-02T16:57:03.001Z</time></trkpt><trkpt lat="43.51448468666517" lon="11.83325058670802"><ele>227.00000000000003</ele><time>2026-05-02T16:57:04.001Z</time></trkpt><trkpt lat="43.51455255324493" lon="11.83333779021008"><ele>227.0</ele><time>2026-05-02T16:57:05.001Z</time></trkpt><trkpt lat="43.51460775006595" lon="11.83343987560978"><ele>227.0</ele><time>2026-05-02T16:57:06.001Z</time></trkpt><trkpt lat="43.51465912668398" lon="11.83350433104396"><ele>227.0</ele><time>2026-05-02T16:57:07.001Z</time></trkpt><trkpt lat="43.51474632447174" lon="11.833588320940516"><ele>227.00000000000003</ele><time>2026-05-02T16:57:09.001Z</time></trkpt><trkpt lat="43.51478902805362" lon="11.83365632991572"><ele>227.0</ele><time>2026-05-02T16:57:11.001Z</time></trkpt><trkpt lat="43.5148419121887" lon="11.83373806925238"><ele>228.25</ele><time>2026-05-02T16:57:14.001Z</time></trkpt><trkpt lat="43.51491095225037" lon="11.833822569919883"><ele>229.5</ele><time>2026-05-02T16:57:19.001Z</time></trkpt><trkpt lat="43.515015422504526" lon="11.833731994725518"><ele>230.75</ele><time>2026-05-02T16:57:20.001Z</time></trkpt><trkpt lat="43.515114262315294" lon="11.83366592515416"><ele>232.0</ele><time>2026-05-02T16:57:21.001Z</time></trkpt><trkpt lat="43.51525712274661" lon="11.833559383935702"><ele>228.33333333333331</ele><time>2026-05-02T16:57:22.001Z</time></trkpt><trkpt lat="43.515437153719596" lon="11.833459319962367"><ele>224.66666666666669</ele><time>2026-05-02T16:57:23.001Z</time></trkpt><trkpt lat="43.515625932353096" lon="11.8333297027928"><ele>221.0</ele><time>2026-05-02T16:57:24.001Z</time></trkpt><trkpt lat="43.51582759388162" lon="11.833192265996262"><ele>221.0</ele><time>2026-05-02T16:57:25.001Z</time></trkpt><trkpt lat="43.516039996414996" lon="11.833049404759073"><ele>221.0</ele><time>2026-05-02T16:57:26.001Z</time></trkpt><trkpt lat="43.51626066815238" lon="11.832900837507115"><ele>218.5</ele><time>2026-05-02T16:57:27.001Z</time></trkpt><trkpt lat="43.51647988169184" lon="11.832747272690009"><ele>216.0</ele><time>2026-05-02T16:57:28.001Z</time></trkpt><trkpt lat="43.51668452604292" lon="11.832597906703764"><ele>216.0</ele><time>2026-05-02T16:57:29.001Z</time></trkpt><trkpt lat="43.51687772253009" lon="11.83245506440579"><ele>216.0</ele><time>2026-05-02T16:57:30.001Z</time></trkpt><trkpt lat="43.51705467103697" lon="11.832306641092313"><ele>216.0</ele><time>2026-05-02T16:57:31.001Z</time></trkpt><trkpt lat="43.517226103444536" lon="11.832179514443423"><ele>215.33333333333331</ele><time>2026-05-02T16:57:32.001Z</time></trkpt><trkpt lat="43.51738112669577" lon="11.832065842909149"><ele>214.66666666666666</ele><time>2026-05-02T16:57:33.001Z</time></trkpt><trkpt lat="43.51753029440268" lon="11.831955730913885"><ele>214.0</ele><time>2026-05-02T16:57:34.001Z</time></trkpt><trkpt lat="43.51767301479576" lon="11.831853132735272"><ele>214.0</ele><time>2026-05-02T16:57:35.001Z</time></trkpt><trkpt lat="43.517807303817584" lon="11.831749560359915"><ele>214.0</ele><time>2026-05-02T16:57:36.001Z</time></trkpt><trkpt lat="43.517930733479815" lon="11.831651068931825"><ele>214.0</ele><time>2026-05-02T16:57:37.001Z</time></trkpt><trkpt lat="43.51804633041827" lon="11.831560784348373"><ele>214.0</ele><time>2026-05-02T16:57:38.001Z</time></trkpt><trkpt lat="43.518148890035235" lon="11.831483073799903"><ele>214.0</ele><time>2026-05-02T16:57:39.001Z</time></trkpt><trkpt lat="43.518240879922196" lon="11.831413935532765"><ele>213.99999999999997</ele><time>2026-05-02T16:57:40.001Z</time></trkpt><trkpt lat="43.51832246995793" lon="11.831353041915841"><ele>213.99999999999997</ele><time>2026-05-02T16:57:41.001Z</time></trkpt><trkpt lat="43.51839216164558" lon="11.831302185552369"><ele>214.0</ele><time>2026-05-02T16:57:42Z</time></trkpt><trkpt lat="43.51845509876843" lon="11.831255926725445"><ele>214.0</ele><time>2026-05-02T16:57:43Z</time></trkpt><trkpt lat="43.518548464175424" lon="11.831184436245998"><ele>213.99999999999997</ele><time>2026-05-02T16:57:45Z</time></trkpt><trkpt lat="43.51861096182577" lon="11.831136641127266"><ele>214.0</ele><time>2026-05-02T16:57:47Z</time></trkpt><trkpt lat="43.51867599726187" lon="11.831076628913989"><ele>214.0</ele><time>2026-05-02T16:57:50Z</time></trkpt><trkpt lat="43.5187606168145" lon="11.831038720782008"><ele>214.0</ele><time>2026-05-02T16:57:57Z</time></trkpt><trkpt lat="43.51881690502276" lon="11.83098195385246"><ele>213.99999999999997</ele><time>2026-05-02T16:58:22Z</time></trkpt><trkpt lat="43.51894142026255" lon="11.830926187836209"><ele>214.0</ele><time>2026-05-02T16:58:24Z</time></trkpt><trkpt lat="43.51902096240048" lon="11.830897947876924"><ele>213.75</ele><time>2026-05-02T16:58:25Z</time></trkpt><trkpt lat="43.519110282637676" lon="11.830884178176278"><ele>213.5</ele><time>2026-05-02T16:58:26Z</time></trkpt><trkpt lat="43.519212631513746" lon="11.830910600852153"><ele>213.25</ele><time>2026-05-02T16:58:27Z</time></trkpt><trkpt lat="43.51932474336312" lon="11.830978795168983"><ele>213.0</ele><time>2026-05-02T16:58:28Z</time></trkpt><trkpt lat="43.51944838659466" lon="11.83107550371263"><ele>211.33333333333331</ele><time>2026-05-02T16:58:29Z</time></trkpt><trkpt lat="43.519592045149196" lon="11.831187105087194"><ele>209.66666666666666</ele><time>2026-05-02T16:58:30Z</time></trkpt><trkpt lat="43.51973385604082" lon="11.83129693055702"><ele>208.0</ele><time>2026-05-02T16:58:31Z</time></trkpt><trkpt lat="43.51986017580045" lon="11.831396185782474"><ele>208.0</ele><time>2026-05-02T16:58:32Z</time></trkpt><trkpt lat="43.51998238379281" lon="11.831492290629189"><ele>208.0</ele><time>2026-05-02T16:58:33Z</time></trkpt><trkpt lat="43.52012030485997" lon="11.831580402724041"><ele>208.0</ele><time>2026-05-02T16:58:34Z</time></trkpt><trkpt lat="43.52026506744474" lon="11.831623390491623"><ele>208.0</ele><time>2026-05-02T16:58:35Z</time></trkpt><trkpt lat="43.520415895416654" lon="11.831675732816223"><ele>209.0</ele><time>2026-05-02T16:58:36Z</time></trkpt><trkpt lat="43.52058543487012" lon="11.831720478836376"><ele>210.0</ele><time>2026-05-02T16:58:37Z</time></trkpt><trkpt lat="43.520764340878934" lon="11.831762501234644"><ele>211.0</ele><time>2026-05-02T16:58:38Z</time></trkpt><trkpt lat="43.52094854743017" lon="11.831807849832394"><ele>211.33333333333331</ele><time>2026-05-02T16:58:39Z</time></trkpt><trkpt lat="43.52112076800398" lon="11.831862417139241"><ele>211.66666666666669</ele><time>2026-05-02T16:58:40Z</time></trkpt><trkpt lat="43.52128424066966" lon="11.831920442837344"><ele>212.0</ele><time>2026-05-02T16:58:41Z</time></trkpt><trkpt lat="43.52144344175029" lon="11.831957035902013"><ele>212.5</ele><time>2026-05-02T16:58:42Z</time></trkpt><trkpt lat="43.521593510729396" lon="11.83199775686551"><ele>213.0</ele><time>2026-05-02T16:58:43Z</time></trkpt><trkpt lat="43.52172861229283" lon="11.832017109367266"><ele>213.5</ele><time>2026-05-02T16:58:44Z</time></trkpt><trkpt lat="43.52185122223417" lon="11.832055059639131"><ele>214.0</ele><time>2026-05-02T16:58:45Z</time></trkpt><trkpt lat="43.521966343931076" lon="11.83208589796478"><ele>214.0</ele><time>2026-05-02T16:58:46Z</time></trkpt><trkpt lat="43.522072928185985" lon="11.83211257189174"><ele>214.0</ele><time>2026-05-02T16:58:47Z</time></trkpt><trkpt lat="43.52218768392375" lon="11.832143856544864"><ele>214.0</ele><time>2026-05-02T16:58:48.001Z</time></trkpt><trkpt lat="43.52231893861727" lon="11.832188531482577"><ele>214.0</ele><time>2026-05-02T16:58:49.001Z</time></trkpt><trkpt lat="43.522438379605035" lon="11.832220111100444"><ele>214.0</ele><time>2026-05-02T16:58:50.001Z</time></trkpt><trkpt lat="43.52254571942964" lon="11.83224840160749"><ele>214.0</ele><time>2026-05-02T16:58:51.001Z</time></trkpt><trkpt lat="43.52264817275405" lon="11.83223537079773"><ele>214.0</ele><time>2026-05-02T16:58:52.001Z</time></trkpt><trkpt lat="43.52273620822348" lon="11.832113350253438"><ele>214.0</ele><time>2026-05-02T16:58:53.001Z</time></trkpt><trkpt lat="43.52282045017385" lon="11.832006072709152"><ele>214.33333333333331</ele><time>2026-05-02T16:58:54.001Z</time></trkpt><trkpt lat="43.522929232001424" lon="11.831864431739032"><ele>214.66666666666669</ele><time>2026-05-02T16:58:55.001Z</time></trkpt><trkpt lat="43.523046356515124" lon="11.83171135394379"><ele>215.0</ele><time>2026-05-02T16:58:56.001Z</time></trkpt><trkpt lat="43.52316229628449" lon="11.83155085553542"><ele>215.25</ele><time>2026-05-02T16:58:57.001Z</time></trkpt><trkpt lat="43.52325499959128" lon="11.831395339563105"><ele>215.5</ele><time>2026-05-02T16:58:58.001Z</time></trkpt><trkpt lat="43.523346746023186" lon="11.831254519056175"><ele>215.75</ele><time>2026-05-02T16:58:59.001Z</time></trkpt><trkpt lat="43.52343743487671" lon="11.831145359902203"><ele>216.0</ele><time>2026-05-02T16:59:00.001Z</time></trkpt><trkpt lat="43.52354090249989" lon="11.83109354759604"><ele>216.0</ele><time>2026-05-02T16:59:01.001Z</time></trkpt><trkpt lat="43.52363559060469" lon="11.831061892841404"><ele>216.0</ele><time>2026-05-02T16:59:02.001Z</time></trkpt><trkpt lat="43.52371469037974" lon="11.831036359397823"><ele>216.0</ele><time>2026-05-02T16:59:03.001Z</time></trkpt><trkpt lat="43.52376791045763" lon="11.831098869983979"><ele>216.0</ele><time>2026-05-02T16:59:04.001Z</time></trkpt><trkpt lat="43.5238075314476" lon="11.831399730709624"><ele>217.33333333333331</ele><time>2026-05-02T16:59:07.001Z</time></trkpt><trkpt lat="43.523821505800385" lon="11.831573610299154"><ele>218.66666666666666</ele><time>2026-05-02T16:59:08.001Z</time></trkpt><trkpt lat="43.52384676039257" lon="11.83179006694707"><ele>220.0</ele><time>2026-05-02T16:59:09.001Z</time></trkpt><trkpt lat="43.52387089881253" lon="11.832024433855661"><ele>221.0</ele><time>2026-05-02T16:59:10.001Z</time></trkpt><trkpt lat="43.523894218986406" lon="11.832276757723085"><ele>222.0</ele><time>2026-05-02T16:59:11.001Z</time></trkpt><trkpt lat="43.52391967255964" lon="11.83254412095329"><ele>223.0</ele><time>2026-05-02T16:59:12.001Z</time></trkpt><trkpt lat="43.52394163306548" lon="11.832820783894205"><ele>225.33333333333331</ele><time>2026-05-02T16:59:13.001Z</time></trkpt><trkpt lat="43.52396967440026" lon="11.833091235103383"><ele>227.66666666666669</ele><time>2026-05-02T16:59:14.001Z</time></trkpt><trkpt lat="43.523981215124046" lon="11.833339094281804"><ele>230.0</ele><time>2026-05-02T16:59:15.001Z</time></trkpt><trkpt lat="43.52397899994089" lon="11.83356939242215"><ele>234.0</ele><time>2026-05-02T16:59:16.001Z</time></trkpt><trkpt lat="43.523942886436565" lon="11.833779736144939"><ele>238.0</ele><time>2026-05-02T16:59:17.001Z</time></trkpt><trkpt lat="43.523882052714335" lon="11.834014756140524"><ele>242.0</ele><time>2026-05-02T16:59:18.001Z</time></trkpt><trkpt lat="43.52380299798388" lon="11.834249255143218"><ele>238.0</ele><time>2026-05-02T16:59:19.001Z</time></trkpt><trkpt lat="43.52371161237163" lon="11.8344816521626"><ele>234.0</ele><time>2026-05-02T16:59:20.001Z</time></trkpt><trkpt lat="43.523626115387884" lon="11.834720711602566"><ele>230.0</ele><time>2026-05-02T16:59:21.001Z</time></trkpt><trkpt lat="43.5235403497773" lon="11.834921531322093"><ele>230.0</ele><time>2026-05-02T16:59:22.001Z</time></trkpt><trkpt lat="43.52343692542069" lon="11.835099896793645"><ele>230.0</ele><time>2026-05-02T16:59:23.001Z</time></trkpt><trkpt lat="43.523307675187674" lon="11.835272919859976"><ele>230.0</ele><time>2026-05-02T16:59:24.001Z</time></trkpt><trkpt lat="43.52317255548668" lon="11.835427071682966"><ele>232.0</ele><time>2026-05-02T16:59:25.001Z</time></trkpt><trkpt lat="43.52305949206016" lon="11.835567248853419"><ele>234.0</ele><time>2026-05-02T16:59:26.001Z</time></trkpt><trkpt lat="43.522978274213834" lon="11.835702635750618"><ele>236.0</ele><time>2026-05-02T16:59:27.001Z</time></trkpt><trkpt lat="43.52293644357254" lon="11.835837368306455"><ele>238.0</ele><time>2026-05-02T16:59:28.001Z</time></trkpt><trkpt lat="43.5229261650698" lon="11.835987701010207"><ele>238.0</ele><time>2026-05-02T16:59:29.001Z</time></trkpt><trkpt lat="43.52295275772889" lon="11.836150101774985"><ele>238.0</ele><time>2026-05-02T16:59:30.001Z</time></trkpt><trkpt lat="43.52301632536726" lon="11.836292267995214"><ele>238.0</ele><time>2026-05-02T16:59:31.001Z</time></trkpt><trkpt lat="43.52310495168189" lon="11.83639384151343"><ele>238.0</ele><time>2026-05-02T16:59:32.001Z</time></trkpt><trkpt lat="43.523212624248664" lon="11.836450561967713"><ele>238.0</ele><time>2026-05-02T16:59:33.001Z</time></trkpt><trkpt lat="43.5233396643799" lon="11.836469581283165"><ele>238.0</ele><time>2026-05-02T16:59:34.001Z</time></trkpt><trkpt lat="43.52348006874413" lon="11.836455047607387"><ele>238.0</ele><time>2026-05-02T16:59:35.001Z</time></trkpt><trkpt lat="43.523641608436286" lon="11.836438441296474"><ele>238.0</ele><time>2026-05-02T16:59:36.001Z</time></trkpt><trkpt lat="43.52380749191549" lon="11.836433409740357"><ele>241.0</ele><time>2026-05-02T16:59:37.001Z</time></trkpt><trkpt lat="43.52399188064142" lon="11.836438055190762"><ele>244.0</ele><time>2026-05-02T16:59:38.001Z</time></trkpt><trkpt lat="43.52418605642395" lon="11.836435561468017"><ele>247.0</ele><time>2026-05-02T16:59:39.001Z</time></trkpt><trkpt lat="43.52439342244639" lon="11.836433690735467"><ele>249.0</ele><time>2026-05-02T16:59:40.001Z</time></trkpt><trkpt lat="43.524605289154" lon="11.836458836043205"><ele>251.0</ele><time>2026-05-02T16:59:41.001Z</time></trkpt><trkpt lat="43.5248197940521" lon="11.836459355488657"><ele>253.0</ele><time>2026-05-02T16:59:42.001Z</time></trkpt><trkpt lat="43.52502898766039" lon="11.836459955554862"><ele>253.0</ele><time>2026-05-02T16:59:43.001Z</time></trkpt><trkpt lat="43.52523200206331" lon="11.836459226230852"><ele>253.0</ele><time>2026-05-02T16:59:44.001Z</time></trkpt><trkpt lat="43.5254354946116" lon="11.836456052720509"><ele>253.0</ele><time>2026-05-02T16:59:45.001Z</time></trkpt><trkpt lat="43.525644647986866" lon="11.83643008527707"><ele>253.33333333333331</ele><time>2026-05-02T16:59:46.001Z</time></trkpt><trkpt lat="43.52585044970598" lon="11.83642753455593"><ele>253.66666666666669</ele><time>2026-05-02T16:59:47.001Z</time></trkpt><trkpt lat="43.526039909209956" lon="11.836448213008957"><ele>254.0</ele><time>2026-05-02T16:59:48Z</time></trkpt><trkpt lat="43.526212171121045" lon="11.836453909815182"><ele>253.79999999999998</ele><time>2026-05-02T16:59:49Z</time></trkpt><trkpt lat="43.52635588955874" lon="11.836469272653463"><ele>253.59999999999997</ele><time>2026-05-02T16:59:50Z</time></trkpt><trkpt lat="43.52648357659788" lon="11.836473619639271"><ele>253.4</ele><time>2026-05-02T16:59:51Z</time></trkpt><trkpt lat="43.52657348208531" lon="11.836531342448682"><ele>253.2</ele><time>2026-05-02T16:59:52Z</time></trkpt><trkpt lat="43.52663770313327" lon="11.836566381494686"><ele>253.0</ele><time>2026-05-02T16:59:53Z</time></trkpt><trkpt lat="43.52670383274132" lon="11.836608816014143"><ele>253.0</ele><time>2026-05-02T16:59:55Z</time></trkpt><trkpt lat="43.52676206881243" lon="11.836424845420314"><ele>253.0</ele><time>2026-05-02T16:59:58Z</time></trkpt><trkpt lat="43.526766036926695" lon="11.836302900309613"><ele>253.0</ele><time>2026-05-02T17:00:00Z</time></trkpt><trkpt lat="43.5268481022528" lon="11.836302450318316"><ele>253.0</ele><time>2026-05-02T17:00:01Z</time></trkpt><trkpt lat="43.52691430256108" lon="11.836276380203339"><ele>253.0</ele><time>2026-05-02T17:00:02Z</time></trkpt><trkpt lat="43.5269804568382" lon="11.836250317340095"><ele>253.0</ele><time>2026-05-02T17:00:03Z</time></trkpt><trkpt lat="43.527040609519204" lon="11.836201531797462"><ele>253.0</ele><time>2026-05-02T17:00:04Z</time></trkpt><trkpt lat="43.527117341546756" lon="11.836234125708733"><ele>253.0</ele><time>2026-05-02T17:00:06Z</time></trkpt><trkpt lat="43.52720642058926" lon="11.836315376881242"><ele>253.0</ele><time>2026-05-02T17:00:08Z</time></trkpt><trkpt lat="43.52732396141678" lon="11.836281068625464"><ele>253.0</ele><time>2026-05-02T17:00:10Z</time></trkpt><trkpt lat="43.52741435657912" lon="11.836264546188515"><ele>253.2</ele><time>2026-05-02T17:00:12Z</time></trkpt><trkpt lat="43.52741930634146" lon="11.836385761565612"><ele>253.4</ele><time>2026-05-02T17:00:14Z</time></trkpt><trkpt lat="43.52745408171587" lon="11.836531027998891"><ele>253.59999999999997</ele><time>2026-05-02T17:00:16Z</time></trkpt><trkpt lat="43.527488683831905" lon="11.83664930659481"><ele>253.79999999999998</ele><time>2026-05-02T17:00:18Z</time></trkpt><trkpt lat="43.52737377240788" lon="11.836698139227355"><ele>254.0</ele><time>2026-05-02T17:00:21Z</time></trkpt><trkpt lat="43.527310599769365" lon="11.836724271527993"><ele>254.0</ele><time>2026-05-02T17:00:22Z</time></trkpt><trkpt lat="43.5272399210283" lon="11.836753508868018"><ele>254.0</ele><time>2026-05-02T17:00:24Z</time></trkpt></trkseg></trk></gpx>